<?xml version='1.0' encoding='UTF-8'?><gpx version="1.1" creator="JPX - https://github.com/jenetics/jpx" xmlns="http://www.topografix.com/GPX/1/1"><trk><trkseg><trkpt lat="44.5596636" lon="11.0264797"><ele>53.0</ele><time>2026-03-28T09:46:57.999Z</time></trkpt><trkpt lat="44.5596782" lon="11.0263816"><ele>53.0</ele><time>2026-03-28T09:47:43.007Z</time></trkpt><trkpt lat="44.5597405" lon="11.026354"><ele>53.0</ele><time>2026-03-28T09:47:45.999Z</time></trkpt><trkpt lat="44.5598069" lon="11.0264048"><ele>53.0</ele><time>2026-03-28T09:47:48Z</time></trkpt><trkpt lat="44.5598682" lon="11.026455"><ele>53.0</ele><time>2026-03-28T09:47:49.998Z</time></trkpt><trkpt lat="44.5599285" lon="11.0265085"><ele>53.0</ele><time>2026-03-28T09:47:53.011Z</time></trkpt><trkpt lat="44.5599756" lon="11.0265772"><ele>53.0</ele><time>2026-03-28T09:47:59.997Z</time></trkpt><trkpt lat="44.5599638" lon="11.0266994"><ele>53.16666666666667</ele><time>2026-03-28T09:48:02.003Z</time></trkpt><trkpt lat="44.5599258" lon="11.0268225"><ele>53.333333333333336</ele><time>2026-03-28T09:48:03.998Z</time></trkpt><trkpt lat="44.5598664" lon="11.0268843"><ele>53.5</ele><time>2026-03-28T09:48:07.01Z</time></trkpt><trkpt lat="44.5597921" lon="11.0268731"><ele>53.66666666666667</ele><time>2026-03-28T09:48:08.996Z</time></trkpt><trkpt lat="44.5597278" lon="11.0268423"><ele>53.833333333333336</ele><time>2026-03-28T09:48:10.995Z</time></trkpt><trkpt lat="44.5596424" lon="11.0268154"><ele>54.0</ele><time>2026-03-28T09:48:13.004Z</time></trkpt><trkpt lat="44.5595202" lon="11.0267661"><ele>54.0</ele><time>2026-03-28T09:48:15.005Z</time></trkpt><trkpt lat="44.5594542" lon="11.0267352"><ele>54.0</ele><time>2026-03-28T09:48:15.993Z</time></trkpt><trkpt lat="44.5593853" lon="11.0266985"><ele>54.0</ele><time>2026-03-28T09:48:16.996Z</time></trkpt><trkpt lat="44.5593158" lon="11.0266636"><ele>54.0</ele><time>2026-03-28T09:48:18.006Z</time></trkpt><trkpt lat="44.5592501" lon="11.0266263"><ele>54.0</ele><time>2026-03-28T09:48:18.998Z</time></trkpt><trkpt lat="44.5591938" lon="11.0265714"><ele>54.0</ele><time>2026-03-28T09:48:19.996Z</time></trkpt><trkpt lat="44.5591501" lon="11.0265029"><ele>54.0</ele><time>2026-03-28T09:48:20.995Z</time></trkpt><trkpt lat="44.5590575" lon="11.0264242"><ele>54.0</ele><time>2026-03-28T09:48:23.004Z</time></trkpt><trkpt lat="44.5589777" lon="11.026496"><ele>54.00000000000001</ele><time>2026-03-28T09:48:25.004Z</time></trkpt><trkpt lat="44.5589359" lon="11.0266762"><ele>54.00000000000001</ele><time>2026-03-28T09:48:27.001Z</time></trkpt><trkpt lat="44.5589097" lon="11.0267994"><ele>54.0</ele><time>2026-03-28T09:48:28.005Z</time></trkpt><trkpt lat="44.5588796" lon="11.0269331"><ele>54.0</ele><time>2026-03-28T09:48:29.001Z</time></trkpt><trkpt lat="44.5588453" lon="11.0270783"><ele>54.0</ele><time>2026-03-28T09:48:29.992Z</time></trkpt><trkpt lat="44.5588056" lon="11.0272368"><ele>54.0</ele><time>2026-03-28T09:48:31.006Z</time></trkpt><trkpt lat="44.5587607" lon="11.0274005"><ele>54.0</ele><time>2026-03-28T09:48:32.007Z</time></trkpt><trkpt lat="44.5587075" lon="11.0275619"><ele>54.0</ele><time>2026-03-28T09:48:32.997Z</time></trkpt><trkpt lat="44.5586457" lon="11.0277192"><ele>53.75</ele><time>2026-03-28T09:48:33.999Z</time></trkpt><trkpt lat="44.5585805" lon="11.0278724"><ele>53.5</ele><time>2026-03-28T09:48:34.991Z</time></trkpt><trkpt lat="44.5585109" lon="11.0280243"><ele>53.25</ele><time>2026-03-28T09:48:35.997Z</time></trkpt><trkpt lat="44.5584381" lon="11.0281748"><ele>53.0</ele><time>2026-03-28T09:48:36.997Z</time></trkpt><trkpt lat="44.5583653" lon="11.0283323"><ele>53.0</ele><time>2026-03-28T09:48:37.997Z</time></trkpt><trkpt lat="44.5582896" lon="11.0284978"><ele>53.0</ele><time>2026-03-28T09:48:39.015Z</time></trkpt><trkpt lat="44.5582147" lon="11.0286616"><ele>53.0</ele><time>2026-03-28T09:48:40.002Z</time></trkpt><trkpt lat="44.5581384" lon="11.0288321"><ele>53.0</ele><time>2026-03-28T09:48:41.002Z</time></trkpt><trkpt lat="44.5580619" lon="11.0290009"><ele>53.5</ele><time>2026-03-28T09:48:42.004Z</time></trkpt><trkpt lat="44.5579875" lon="11.0291633"><ele>54.0</ele><time>2026-03-28T09:48:43Z</time></trkpt><trkpt lat="44.5579153" lon="11.0293176"><ele>54.5</ele><time>2026-03-28T09:48:43.991Z</time></trkpt><trkpt lat="44.5578434" lon="11.0294676"><ele>55.0</ele><time>2026-03-28T09:48:45.004Z</time></trkpt><trkpt lat="44.5577774" lon="11.0296126"><ele>55.0</ele><time>2026-03-28T09:48:45.999Z</time></trkpt><trkpt lat="44.5577116" lon="11.0297558"><ele>55.0</ele><time>2026-03-28T09:48:47.008Z</time></trkpt><trkpt lat="44.5576479" lon="11.0298972"><ele>55.0</ele><time>2026-03-28T09:48:48.009Z</time></trkpt><trkpt lat="44.5575843" lon="11.0300401"><ele>55.0</ele><time>2026-03-28T09:48:49.001Z</time></trkpt><trkpt lat="44.5575186" lon="11.030185"><ele>55.25</ele><time>2026-03-28T09:48:50.007Z</time></trkpt><trkpt lat="44.5574516" lon="11.0303304"><ele>55.5</ele><time>2026-03-28T09:48:51.007Z</time></trkpt><trkpt lat="44.5573856" lon="11.030476"><ele>55.75</ele><time>2026-03-28T09:48:52.002Z</time></trkpt><trkpt lat="44.5573224" lon="11.0306239"><ele>56.0</ele><time>2026-03-28T09:48:52.997Z</time></trkpt><trkpt lat="44.5572599" lon="11.0307744"><ele>55.75</ele><time>2026-03-28T09:48:53.999Z</time></trkpt><trkpt lat="44.5571959" lon="11.0309225"><ele>55.5</ele><time>2026-03-28T09:48:54.999Z</time></trkpt><trkpt lat="44.5571319" lon="11.0310686"><ele>55.25</ele><time>2026-03-28T09:48:56Z</time></trkpt><trkpt lat="44.5570672" lon="11.0312128"><ele>55.0</ele><time>2026-03-28T09:48:57.005Z</time></trkpt><trkpt lat="44.5570008" lon="11.0313544"><ele>55.0</ele><time>2026-03-28T09:48:57.993Z</time></trkpt><trkpt lat="44.5569296" lon="11.0315058"><ele>55.0</ele><time>2026-03-28T09:48:59.005Z</time></trkpt><trkpt lat="44.556858" lon="11.0316611"><ele>55.0</ele><time>2026-03-28T09:48:59.999Z</time></trkpt><trkpt lat="44.5567848" lon="11.0318236"><ele>55.0</ele><time>2026-03-28T09:49:01.01Z</time></trkpt><trkpt lat="44.5567103" lon="11.0319862"><ele>55.0</ele><time>2026-03-28T09:49:02.013Z</time></trkpt><trkpt lat="44.5566364" lon="11.0321458"><ele>55.0</ele><time>2026-03-28T09:49:03.004Z</time></trkpt><trkpt lat="44.5565617" lon="11.0323077"><ele>55.0</ele><time>2026-03-28T09:49:04.004Z</time></trkpt><trkpt lat="44.5564867" lon="11.032475"><ele>55.0</ele><time>2026-03-28T09:49:05.01Z</time></trkpt><trkpt lat="44.5564098" lon="11.0326506"><ele>55.0</ele><time>2026-03-28T09:49:05.995Z</time></trkpt><trkpt lat="44.5563321" lon="11.0328344"><ele>55.0</ele><time>2026-03-28T09:49:06.999Z</time></trkpt><trkpt lat="44.5562583" lon="11.0330048"><ele>55.0</ele><time>2026-03-28T09:49:08.005Z</time></trkpt><trkpt lat="44.556192" lon="11.0331586"><ele>55.0</ele><time>2026-03-28T09:49:08.997Z</time></trkpt><trkpt lat="44.5561301" lon="11.0333005"><ele>55.25</ele><time>2026-03-28T09:49:10.006Z</time></trkpt><trkpt lat="44.5560705" lon="11.0334326"><ele>55.5</ele><time>2026-03-28T09:49:11.011Z</time></trkpt><trkpt lat="44.5560077" lon="11.0335694"><ele>55.75</ele><time>2026-03-28T09:49:12.008Z</time></trkpt><trkpt lat="44.5559403" lon="11.0337144"><ele>56.0</ele><time>2026-03-28T09:49:13.01Z</time></trkpt><trkpt lat="44.5558755" lon="11.033855"><ele>56.0</ele><time>2026-03-28T09:49:14Z</time></trkpt><trkpt lat="44.555816" lon="11.0339862"><ele>55.99999999999999</ele><time>2026-03-28T09:49:14.999Z</time></trkpt><trkpt lat="44.5557637" lon="11.0341047"><ele>55.99999999999999</ele><time>2026-03-28T09:49:16.015Z</time></trkpt><trkpt lat="44.5557255" lon="11.0342084"><ele>56.0</ele><time>2026-03-28T09:49:16.998Z</time></trkpt><trkpt lat="44.5557024" lon="11.0343171"><ele>56.0</ele><time>2026-03-28T09:49:18.007Z</time></trkpt><trkpt lat="44.5556938" lon="11.0344446"><ele>56.00000000000001</ele><time>2026-03-28T09:49:19.004Z</time></trkpt><trkpt lat="44.5556931" lon="11.0345872"><ele>56.0</ele><time>2026-03-28T09:49:20.009Z</time></trkpt><trkpt lat="44.5556913" lon="11.0347214"><ele>56.0</ele><time>2026-03-28T09:49:21.004Z</time></trkpt><trkpt lat="44.5556953" lon="11.0348342"><ele>56.0</ele><time>2026-03-28T09:49:22.012Z</time></trkpt><trkpt lat="44.5556943" lon="11.0349614"><ele>56.00000000000001</ele><time>2026-03-28T09:49:24.015Z</time></trkpt><trkpt lat="44.5556608" lon="11.03504"><ele>56.0</ele><time>2026-03-28T09:49:25.998Z</time></trkpt><trkpt lat="44.5555274" lon="11.0351184"><ele>56.4</ele><time>2026-03-28T09:49:28.006Z</time></trkpt><trkpt lat="44.5554485" lon="11.0351766"><ele>56.8</ele><time>2026-03-28T09:49:29.002Z</time></trkpt><trkpt lat="44.5553646" lon="11.0352569"><ele>57.199999999999996</ele><time>2026-03-28T09:49:30.032Z</time></trkpt><trkpt lat="44.5552839" lon="11.0353333"><ele>57.599999999999994</ele><time>2026-03-28T09:49:31.008Z</time></trkpt><trkpt lat="44.5551878" lon="11.0353896"><ele>58.0</ele><time>2026-03-28T09:49:32.009Z</time></trkpt><trkpt lat="44.5550733" lon="11.0354107"><ele>58.0</ele><time>2026-03-28T09:49:33.001Z</time></trkpt><trkpt lat="44.5549611" lon="11.0354342"><ele>58.0</ele><time>2026-03-28T09:49:34.01Z</time></trkpt><trkpt lat="44.5548757" lon="11.0354922"><ele>58.0</ele><time>2026-03-28T09:49:35.006Z</time></trkpt><trkpt lat="44.5548149" lon="11.0355833"><ele>58.0</ele><time>2026-03-28T09:49:36.004Z</time></trkpt><trkpt lat="44.5547826" lon="11.0357059"><ele>58.0</ele><time>2026-03-28T09:49:37.009Z</time></trkpt><trkpt lat="44.5547908" lon="11.0358364"><ele>57.599999999999994</ele><time>2026-03-28T09:49:38.006Z</time></trkpt><trkpt lat="44.5548377" lon="11.0359566"><ele>57.199999999999996</ele><time>2026-03-28T09:49:39Z</time></trkpt><trkpt lat="44.5549122" lon="11.0360562"><ele>56.8</ele><time>2026-03-28T09:49:40.004Z</time></trkpt><trkpt lat="44.5549974" lon="11.0361649"><ele>56.4</ele><time>2026-03-28T09:49:41.035Z</time></trkpt><trkpt lat="44.5550613" lon="11.0363122"><ele>56.0</ele><time>2026-03-28T09:49:42Z</time></trkpt><trkpt lat="44.5551097" lon="11.0365002"><ele>55.66666666666667</ele><time>2026-03-28T09:49:43.008Z</time></trkpt><trkpt lat="44.5551482" lon="11.03671"><ele>55.33333333333333</ele><time>2026-03-28T09:49:44.008Z</time></trkpt><trkpt lat="44.5551865" lon="11.0369356"><ele>55.0</ele><time>2026-03-28T09:49:45.003Z</time></trkpt><trkpt lat="44.5552275" lon="11.0371717"><ele>55.0</ele><time>2026-03-28T09:49:46.015Z</time></trkpt><trkpt lat="44.5552707" lon="11.037405"><ele>55.0</ele><time>2026-03-28T09:49:47.013Z</time></trkpt><trkpt lat="44.5553189" lon="11.0376381"><ele>55.0</ele><time>2026-03-28T09:49:48.015Z</time></trkpt><trkpt lat="44.5553747" lon="11.0378678"><ele>54.666666666666664</ele><time>2026-03-28T09:49:49.005Z</time></trkpt><trkpt lat="44.5554423" lon="11.0381029"><ele>54.33333333333333</ele><time>2026-03-28T09:49:50.03Z</time></trkpt><trkpt lat="44.5555171" lon="11.0383321"><ele>54.0</ele><time>2026-03-28T09:49:51.046Z</time></trkpt><trkpt lat="44.555595" lon="11.0385585"><ele>53.66666666666667</ele><time>2026-03-28T09:49:52.053Z</time></trkpt><trkpt lat="44.5556746" lon="11.0387769"><ele>53.333333333333336</ele><time>2026-03-28T09:49:53.034Z</time></trkpt><trkpt lat="44.5557589" lon="11.0389856"><ele>53.0</ele><time>2026-03-28T09:49:53.993Z</time></trkpt><trkpt lat="44.5558556" lon="11.039201"><ele>53.0</ele><time>2026-03-28T09:49:55.005Z</time></trkpt><trkpt lat="44.5559542" lon="11.0394109"><ele>53.0</ele><time>2026-03-28T09:49:55.997Z</time></trkpt><trkpt lat="44.5560552" lon="11.0396284"><ele>53.0</ele><time>2026-03-28T09:49:57.022Z</time></trkpt><trkpt lat="44.556153" lon="11.0398373"><ele>52.66666666666667</ele><time>2026-03-28T09:49:58.014Z</time></trkpt><trkpt lat="44.5562524" lon="11.0400474"><ele>52.33333333333333</ele><time>2026-03-28T09:49:59.022Z</time></trkpt><trkpt lat="44.5563529" lon="11.0402583"><ele>52.0</ele><time>2026-03-28T09:50:00.035Z</time></trkpt><trkpt lat="44.5564525" lon="11.0404651"><ele>52.0</ele><time>2026-03-28T09:50:01.03Z</time></trkpt><trkpt lat="44.5565473" lon="11.0406669"><ele>52.0</ele><time>2026-03-28T09:50:02.011Z</time></trkpt><trkpt lat="44.5566414" lon="11.0408669"><ele>52.0</ele><time>2026-03-28T09:50:03.005Z</time></trkpt><trkpt lat="44.5567341" lon="11.0410623"><ele>52.25</ele><time>2026-03-28T09:50:04.034Z</time></trkpt><trkpt lat="44.556818" lon="11.0412382"><ele>52.5</ele><time>2026-03-28T09:50:05.011Z</time></trkpt><trkpt lat="44.556899" lon="11.041412"><ele>52.75</ele><time>2026-03-28T09:50:06.006Z</time></trkpt><trkpt lat="44.5569759" lon="11.0415789"><ele>53.0</ele><time>2026-03-28T09:50:06.993Z</time></trkpt><trkpt lat="44.5570493" lon="11.041739"><ele>53.599999999999994</ele><time>2026-03-28T09:50:08.002Z</time></trkpt><trkpt lat="44.5571163" lon="11.041889"><ele>54.199999999999996</ele><time>2026-03-28T09:50:09.029Z</time></trkpt><trkpt lat="44.5571659" lon="11.0420143"><ele>54.8</ele><time>2026-03-28T09:50:09.998Z</time></trkpt><trkpt lat="44.5572036" lon="11.0421241"><ele>55.4</ele><time>2026-03-28T09:50:11.041Z</time></trkpt><trkpt lat="44.5572355" lon="11.0422684"><ele>56.0</ele><time>2026-03-28T09:50:13.014Z</time></trkpt><trkpt lat="44.5572273" lon="11.0424546"><ele>55.333333333333336</ele><time>2026-03-28T09:50:15.017Z</time></trkpt><trkpt lat="44.5572288" lon="11.0425716"><ele>54.66666666666667</ele><time>2026-03-28T09:50:16.024Z</time></trkpt><trkpt lat="44.5572537" lon="11.0426866"><ele>54.0</ele><time>2026-03-28T09:50:17.038Z</time></trkpt><trkpt lat="44.5573003" lon="11.0427777"><ele>53.33333333333333</ele><time>2026-03-28T09:50:17.999Z</time></trkpt><trkpt lat="44.5573673" lon="11.0428436"><ele>52.666666666666664</ele><time>2026-03-28T09:50:19.003Z</time></trkpt><trkpt lat="44.5574477" lon="11.0428698"><ele>52.0</ele><time>2026-03-28T09:50:20.025Z</time></trkpt><trkpt lat="44.5575299" lon="11.0428516"><ele>52.0</ele><time>2026-03-28T09:50:21.013Z</time></trkpt><trkpt lat="44.5576041" lon="11.042792"><ele>52.0</ele><time>2026-03-28T09:50:22.005Z</time></trkpt><trkpt lat="44.5576572" lon="11.0426947"><ele>52.0</ele><time>2026-03-28T09:50:22.991Z</time></trkpt><trkpt lat="44.5576854" lon="11.0425693"><ele>52.0</ele><time>2026-03-28T09:50:24.007Z</time></trkpt><trkpt lat="44.5577043" lon="11.0424164"><ele>52.0</ele><time>2026-03-28T09:50:25.017Z</time></trkpt><trkpt lat="44.5577467" lon="11.0422713"><ele>52.33333333333333</ele><time>2026-03-28T09:50:26.008Z</time></trkpt><trkpt lat="44.5578089" lon="11.0421521"><ele>52.666666666666664</ele><time>2026-03-28T09:50:27.002Z</time></trkpt><trkpt lat="44.5578697" lon="11.0420621"><ele>53.0</ele><time>2026-03-28T09:50:28.024Z</time></trkpt><trkpt lat="44.5579086" lon="11.0419836"><ele>53.33333333333333</ele><time>2026-03-28T09:50:29.008Z</time></trkpt><trkpt lat="44.557904" lon="11.0418195"><ele>53.666666666666664</ele><time>2026-03-28T09:50:31.007Z</time></trkpt><trkpt lat="44.5578714" lon="11.0417394"><ele>54.0</ele><time>2026-03-28T09:50:32.001Z</time></trkpt><trkpt lat="44.5578323" lon="11.0416449"><ele>54.0</ele><time>2026-03-28T09:50:33.029Z</time></trkpt><trkpt lat="44.5577944" lon="11.0415447"><ele>54.0</ele><time>2026-03-28T09:50:34.009Z</time></trkpt><trkpt lat="44.5577597" lon="11.0414406"><ele>54.0</ele><time>2026-03-28T09:50:35.021Z</time></trkpt><trkpt lat="44.5577306" lon="11.0413524"><ele>54.0</ele><time>2026-03-28T09:50:36.002Z</time></trkpt><trkpt lat="44.5576773" lon="11.0412132"><ele>54.0</ele><time>2026-03-28T09:50:38.003Z</time></trkpt><trkpt lat="44.5575843" lon="11.0412194"><ele>54.0</ele><time>2026-03-28T09:50:40.006Z</time></trkpt><trkpt lat="44.5574938" lon="11.0412996"><ele>54.0</ele><time>2026-03-28T09:50:42.015Z</time></trkpt><trkpt lat="44.5574131" lon="11.0413621"><ele>54.0</ele><time>2026-03-28T09:50:44.017Z</time></trkpt><trkpt lat="44.557351" lon="11.0414655"><ele>54.0</ele><time>2026-03-28T09:50:46.014Z</time></trkpt><trkpt lat="44.5573179" lon="11.0415601"><ele>54.0</ele><time>2026-03-28T09:50:47.998Z</time></trkpt><trkpt lat="44.5573265" lon="11.0416737"><ele>54.0</ele><time>2026-03-28T09:50:57.023Z</time></trkpt><trkpt lat="44.5573504" lon="11.0417672"><ele>54.0</ele><time>2026-03-28T09:50:59.014Z</time></trkpt><trkpt lat="44.557407" lon="11.0418344"><ele>54.333333333333336</ele><time>2026-03-28T09:51:02.006Z</time></trkpt><trkpt lat="44.557473" lon="11.0418402"><ele>54.66666666666667</ele><time>2026-03-28T09:54:25.977Z</time></trkpt><trkpt lat="44.5575339" lon="11.0418897"><ele>55.0</ele><time>2026-03-28T09:54:27.952Z</time></trkpt><trkpt lat="44.5575972" lon="11.0419278"><ele>55.333333333333336</ele><time>2026-03-28T09:54:29.983Z</time></trkpt><trkpt lat="44.5576678" lon="11.0418714"><ele>55.66666666666667</ele><time>2026-03-28T09:54:31.964Z</time></trkpt><trkpt lat="44.5577611" lon="11.0417791"><ele>56.0</ele><time>2026-03-28T09:54:33.954Z</time></trkpt><trkpt lat="44.5578313" lon="11.0418511"><ele>56.00000000000001</ele><time>2026-03-28T09:54:37.015Z</time></trkpt><trkpt lat="44.5578106" lon="11.0419989"><ele>56.0</ele><time>2026-03-28T09:54:39.031Z</time></trkpt><trkpt lat="44.5577714" lon="11.0420817"><ele>56.0</ele><time>2026-03-28T09:54:40.019Z</time></trkpt><trkpt lat="44.5577227" lon="11.0421532"><ele>56.0</ele><time>2026-03-28T09:54:41.019Z</time></trkpt><trkpt lat="44.5576643" lon="11.0422039"><ele>56.00000000000001</ele><time>2026-03-28T09:54:42.022Z</time></trkpt><trkpt lat="44.5575991" lon="11.0422263"><ele>56.0</ele><time>2026-03-28T09:54:43.015Z</time></trkpt><trkpt lat="44.5575316" lon="11.0422284"><ele>56.00000000000001</ele><time>2026-03-28T09:54:44.01Z</time></trkpt><trkpt lat="44.5574632" lon="11.0422271"><ele>56.0</ele><time>2026-03-28T09:54:45.02Z</time></trkpt><trkpt lat="44.5573929" lon="11.0422474"><ele>56.0</ele><time>2026-03-28T09:54:46.012Z</time></trkpt><trkpt lat="44.5573212" lon="11.0422985"><ele>56.0</ele><time>2026-03-28T09:54:47.021Z</time></trkpt><trkpt lat="44.5572592" lon="11.042379"><ele>56.00000000000001</ele><time>2026-03-28T09:54:48.019Z</time></trkpt><trkpt lat="44.5571991" lon="11.0424736"><ele>56.0</ele><time>2026-03-28T09:54:49.023Z</time></trkpt><trkpt lat="44.5571274" lon="11.0425579"><ele>55.199999999999996</ele><time>2026-03-28T09:54:50.019Z</time></trkpt><trkpt lat="44.5570398" lon="11.0426107"><ele>54.39999999999999</ele><time>2026-03-28T09:54:51.012Z</time></trkpt><trkpt lat="44.5569428" lon="11.042648"><ele>53.6</ele><time>2026-03-28T09:54:52.022Z</time></trkpt><trkpt lat="44.5568469" lon="11.0426853"><ele>52.8</ele><time>2026-03-28T09:54:53.022Z</time></trkpt><trkpt lat="44.5567561" lon="11.0427336"><ele>52.0</ele><time>2026-03-28T09:54:54.009Z</time></trkpt><trkpt lat="44.5566655" lon="11.0427905"><ele>52.0</ele><time>2026-03-28T09:54:55.008Z</time></trkpt><trkpt lat="44.5565722" lon="11.0428524"><ele>52.0</ele><time>2026-03-28T09:54:56.022Z</time></trkpt><trkpt lat="44.5564805" lon="11.0429141"><ele>52.0</ele><time>2026-03-28T09:54:57Z</time></trkpt><trkpt lat="44.5563803" lon="11.0429812"><ele>52.0</ele><time>2026-03-28T09:54:58.034Z</time></trkpt><trkpt lat="44.556277" lon="11.0430515"><ele>52.0</ele><time>2026-03-28T09:54:59.046Z</time></trkpt><trkpt lat="44.5561759" lon="11.0431215"><ele>52.25</ele><time>2026-03-28T09:54:59.994Z</time></trkpt><trkpt lat="44.5560626" lon="11.0432003"><ele>52.5</ele><time>2026-03-28T09:55:01.012Z</time></trkpt><trkpt lat="44.5559432" lon="11.0432832"><ele>52.75</ele><time>2026-03-28T09:55:02.025Z</time></trkpt><trkpt lat="44.5558201" lon="11.0433679"><ele>53.0</ele><time>2026-03-28T09:55:03.017Z</time></trkpt><trkpt lat="44.5556976" lon="11.0434519"><ele>53.0</ele><time>2026-03-28T09:55:04.017Z</time></trkpt><trkpt lat="44.5555764" lon="11.0435354"><ele>53.0</ele><time>2026-03-28T09:55:05.02Z</time></trkpt><trkpt lat="44.5554536" lon="11.0436255"><ele>53.0</ele><time>2026-03-28T09:55:06.039Z</time></trkpt><trkpt lat="44.5553348" lon="11.0437222"><ele>53.0</ele><time>2026-03-28T09:55:07.023Z</time></trkpt><trkpt lat="44.5552194" lon="11.0438347"><ele>53.0</ele><time>2026-03-28T09:55:08.003Z</time></trkpt><trkpt lat="44.5551077" lon="11.0439682"><ele>53.0</ele><time>2026-03-28T09:55:09.009Z</time></trkpt><trkpt lat="44.5550061" lon="11.0441215"><ele>53.0</ele><time>2026-03-28T09:55:10.017Z</time></trkpt><trkpt lat="44.5549207" lon="11.0442958"><ele>53.0</ele><time>2026-03-28T09:55:11.027Z</time></trkpt><trkpt lat="44.5548518" lon="11.0444815"><ele>53.333333333333336</ele><time>2026-03-28T09:55:12.012Z</time></trkpt><trkpt lat="44.5547896" lon="11.0446787"><ele>53.66666666666667</ele><time>2026-03-28T09:55:13.009Z</time></trkpt><trkpt lat="44.5547307" lon="11.0448828"><ele>54.0</ele><time>2026-03-28T09:55:14.013Z</time></trkpt><trkpt lat="44.5546722" lon="11.0450875"><ele>53.66666666666667</ele><time>2026-03-28T09:55:15.01Z</time></trkpt><trkpt lat="44.5546129" lon="11.0452962"><ele>53.333333333333336</ele><time>2026-03-28T09:55:16.026Z</time></trkpt><trkpt lat="44.554556" lon="11.0455005"><ele>53.0</ele><time>2026-03-28T09:55:17.019Z</time></trkpt><trkpt lat="44.554496" lon="11.0457062"><ele>52.66666666666667</ele><time>2026-03-28T09:55:18.032Z</time></trkpt><trkpt lat="44.5544371" lon="11.0459074"><ele>52.33333333333333</ele><time>2026-03-28T09:55:19.016Z</time></trkpt><trkpt lat="44.5543771" lon="11.0461184"><ele>52.0</ele><time>2026-03-28T09:55:20.031Z</time></trkpt><trkpt lat="44.5543178" lon="11.046329"><ele>52.0</ele><time>2026-03-28T09:55:21.031Z</time></trkpt><trkpt lat="44.5542575" lon="11.0465436"><ele>52.0</ele><time>2026-03-28T09:55:22.023Z</time></trkpt><trkpt lat="44.5541944" lon="11.0467628"><ele>52.0</ele><time>2026-03-28T09:55:23.022Z</time></trkpt><trkpt lat="44.5541287" lon="11.0469863"><ele>52.0</ele><time>2026-03-28T09:55:24.026Z</time></trkpt><trkpt lat="44.554063" lon="11.0472144"><ele>52.0</ele><time>2026-03-28T09:55:25.02Z</time></trkpt><trkpt lat="44.5539992" lon="11.047449"><ele>52.0</ele><time>2026-03-28T09:55:26.028Z</time></trkpt><trkpt lat="44.5539335" lon="11.0476797"><ele>52.0</ele><time>2026-03-28T09:55:27.022Z</time></trkpt><trkpt lat="44.5538689" lon="11.0479085"><ele>52.0</ele><time>2026-03-28T09:55:28.009Z</time></trkpt><trkpt lat="44.5538032" lon="11.0481372"><ele>52.0</ele><time>2026-03-28T09:55:28.999Z</time></trkpt><trkpt lat="44.5537361" lon="11.0483694"><ele>52.0</ele><time>2026-03-28T09:55:30.011Z</time></trkpt><trkpt lat="44.5536701" lon="11.0486022"><ele>52.0</ele><time>2026-03-28T09:55:31.034Z</time></trkpt><trkpt lat="44.5536078" lon="11.0488231"><ele>52.0</ele><time>2026-03-28T09:55:32.015Z</time></trkpt><trkpt lat="44.5535417" lon="11.0490533"><ele>51.666666666666664</ele><time>2026-03-28T09:55:33.045Z</time></trkpt><trkpt lat="44.5534766" lon="11.0492752"><ele>51.33333333333333</ele><time>2026-03-28T09:55:34.04Z</time></trkpt><trkpt lat="44.5534135" lon="11.0494958"><ele>51.0</ele><time>2026-03-28T09:55:35.034Z</time></trkpt><trkpt lat="44.5533513" lon="11.0497165"><ele>51.0</ele><time>2026-03-28T09:55:36.024Z</time></trkpt><trkpt lat="44.5532881" lon="11.0499339"><ele>51.0</ele><time>2026-03-28T09:55:37.011Z</time></trkpt><trkpt lat="44.5532244" lon="11.0501523"><ele>51.0</ele><time>2026-03-28T09:55:38.008Z</time></trkpt><trkpt lat="44.5531596" lon="11.0503796"><ele>51.0</ele><time>2026-03-28T09:55:39.024Z</time></trkpt><trkpt lat="44.5530948" lon="11.0506128"><ele>51.0</ele><time>2026-03-28T09:55:40.026Z</time></trkpt><trkpt lat="44.5530281" lon="11.0508483"><ele>51.0</ele><time>2026-03-28T09:55:41.02Z</time></trkpt><trkpt lat="44.5529604" lon="11.0510825"><ele>51.0</ele><time>2026-03-28T09:55:42.003Z</time></trkpt><trkpt lat="44.5528909" lon="11.051325"><ele>51.0</ele><time>2026-03-28T09:55:43.022Z</time></trkpt><trkpt lat="44.5528241" lon="11.0515576"><ele>51.0</ele><time>2026-03-28T09:55:44.018Z</time></trkpt><trkpt lat="44.5527598" lon="11.0517836"><ele>51.66666666666667</ele><time>2026-03-28T09:55:45.01Z</time></trkpt><trkpt lat="44.5526972" lon="11.0520087"><ele>52.333333333333336</ele><time>2026-03-28T09:55:46.005Z</time></trkpt><trkpt lat="44.5526348" lon="11.0522369"><ele>53.0</ele><time>2026-03-28T09:55:47.011Z</time></trkpt><trkpt lat="44.5525703" lon="11.0524645"><ele>53.0</ele><time>2026-03-28T09:55:48.023Z</time></trkpt><trkpt lat="44.5525038" lon="11.0526912"><ele>53.0</ele><time>2026-03-28T09:55:49.04Z</time></trkpt><trkpt lat="44.5524392" lon="11.0529092"><ele>53.0</ele><time>2026-03-28T09:55:50.019Z</time></trkpt><trkpt lat="44.5523749" lon="11.0531347"><ele>53.0</ele><time>2026-03-28T09:55:51.018Z</time></trkpt><trkpt lat="44.5523092" lon="11.0533609"><ele>53.0</ele><time>2026-03-28T09:55:52.01Z</time></trkpt><trkpt lat="44.5522359" lon="11.0535917"><ele>53.0</ele><time>2026-03-28T09:55:53.025Z</time></trkpt><trkpt lat="44.5521603" lon="11.0538123"><ele>53.0</ele><time>2026-03-28T09:55:53.998Z</time></trkpt><trkpt lat="44.552076" lon="11.0540413"><ele>53.0</ele><time>2026-03-28T09:55:55.013Z</time></trkpt><trkpt lat="44.5519876" lon="11.0542657"><ele>53.0</ele><time>2026-03-28T09:55:56.027Z</time></trkpt><trkpt lat="44.5519029" lon="11.0544824"><ele>53.0</ele><time>2026-03-28T09:55:57.012Z</time></trkpt><trkpt lat="44.5518179" lon="11.0547034"><ele>53.0</ele><time>2026-03-28T09:55:58.026Z</time></trkpt><trkpt lat="44.5517367" lon="11.0549176"><ele>53.0</ele><time>2026-03-28T09:55:59.018Z</time></trkpt><trkpt lat="44.5516565" lon="11.0551348"><ele>53.0</ele><time>2026-03-28T09:56:00.028Z</time></trkpt><trkpt lat="44.5515807" lon="11.0553409"><ele>53.0</ele><time>2026-03-28T09:56:00.992Z</time></trkpt><trkpt lat="44.5514989" lon="11.0555601"><ele>53.0</ele><time>2026-03-28T09:56:02.028Z</time></trkpt><trkpt lat="44.5514204" lon="11.0557701"><ele>52.66666666666667</ele><time>2026-03-28T09:56:03.023Z</time></trkpt><trkpt lat="44.551341" lon="11.0559839"><ele>52.33333333333333</ele><time>2026-03-28T09:56:04.025Z</time></trkpt><trkpt lat="44.5512613" lon="11.0561989"><ele>52.0</ele><time>2026-03-28T09:56:05.015Z</time></trkpt><trkpt lat="44.5511795" lon="11.0564199"><ele>52.666666666666664</ele><time>2026-03-28T09:56:06.014Z</time></trkpt><trkpt lat="44.5510949" lon="11.0566483"><ele>53.33333333333333</ele><time>2026-03-28T09:56:07.035Z</time></trkpt><trkpt lat="44.5510142" lon="11.0568677"><ele>54.0</ele><time>2026-03-28T09:56:08.007Z</time></trkpt><trkpt lat="44.5509283" lon="11.0570968"><ele>54.0</ele><time>2026-03-28T09:56:09.026Z</time></trkpt><trkpt lat="44.5508422" lon="11.0573178"><ele>54.0</ele><time>2026-03-28T09:56:10.031Z</time></trkpt><trkpt lat="44.5507609" lon="11.0575297"><ele>54.0</ele><time>2026-03-28T09:56:11.011Z</time></trkpt><trkpt lat="44.5506848" lon="11.0577501"><ele>54.0</ele><time>2026-03-28T09:56:12.015Z</time></trkpt><trkpt lat="44.5506178" lon="11.0579856"><ele>54.0</ele><time>2026-03-28T09:56:13.042Z</time></trkpt><trkpt lat="44.5505669" lon="11.0582214"><ele>54.0</ele><time>2026-03-28T09:56:14.034Z</time></trkpt><trkpt lat="44.5505257" lon="11.0584581"><ele>53.66666666666667</ele><time>2026-03-28T09:56:15.011Z</time></trkpt><trkpt lat="44.5504849" lon="11.0587072"><ele>53.333333333333336</ele><time>2026-03-28T09:56:16.035Z</time></trkpt><trkpt lat="44.5504475" lon="11.0589464"><ele>53.0</ele><time>2026-03-28T09:56:17.021Z</time></trkpt><trkpt lat="44.5504122" lon="11.0591952"><ele>53.0</ele><time>2026-03-28T09:56:18.045Z</time></trkpt><trkpt lat="44.550379" lon="11.0594364"><ele>53.0</ele><time>2026-03-28T09:56:19.039Z</time></trkpt><trkpt lat="44.550345" lon="11.0596721"><ele>53.0</ele><time>2026-03-28T09:56:20.02Z</time></trkpt><trkpt lat="44.5503079" lon="11.0599108"><ele>53.66666666666667</ele><time>2026-03-28T09:56:21.026Z</time></trkpt><trkpt lat="44.5502686" lon="11.0601447"><ele>54.33333333333333</ele><time>2026-03-28T09:56:22.026Z</time></trkpt><trkpt lat="44.5502252" lon="11.0603725"><ele>55.0</ele><time>2026-03-28T09:56:23.013Z</time></trkpt><trkpt lat="44.5501737" lon="11.0606049"><ele>54.666666666666664</ele><time>2026-03-28T09:56:24.02Z</time></trkpt><trkpt lat="44.5501159" lon="11.0608393"><ele>54.33333333333333</ele><time>2026-03-28T09:56:25.042Z</time></trkpt><trkpt lat="44.5500566" lon="11.0610649"><ele>54.0</ele><time>2026-03-28T09:56:26.023Z</time></trkpt><trkpt lat="44.5499948" lon="11.0612961"><ele>54.0</ele><time>2026-03-28T09:56:27.03Z</time></trkpt><trkpt lat="44.5499348" lon="11.061525"><ele>54.0</ele><time>2026-03-28T09:56:28.024Z</time></trkpt><trkpt lat="44.5498756" lon="11.0617533"><ele>54.0</ele><time>2026-03-28T09:56:29.026Z</time></trkpt><trkpt lat="44.5498171" lon="11.0619743"><ele>53.33333333333333</ele><time>2026-03-28T09:56:30.019Z</time></trkpt><trkpt lat="44.5497594" lon="11.0621897"><ele>52.666666666666664</ele><time>2026-03-28T09:56:31.017Z</time></trkpt><trkpt lat="44.5497034" lon="11.0624007"><ele>52.0</ele><time>2026-03-28T09:56:32.022Z</time></trkpt><trkpt lat="44.5496499" lon="11.0626051"><ele>52.0</ele><time>2026-03-28T09:56:33.011Z</time></trkpt><trkpt lat="44.5495958" lon="11.062809"><ele>52.0</ele><time>2026-03-28T09:56:34.017Z</time></trkpt><trkpt lat="44.5495416" lon="11.0630157"><ele>52.0</ele><time>2026-03-28T09:56:35.046Z</time></trkpt><trkpt lat="44.5494919" lon="11.0632057"><ele>52.5</ele><time>2026-03-28T09:56:36.026Z</time></trkpt><trkpt lat="44.5494446" lon="11.0633862"><ele>53.0</ele><time>2026-03-28T09:56:37.022Z</time></trkpt><trkpt lat="44.5493996" lon="11.0635551"><ele>53.5</ele><time>2026-03-28T09:56:38.014Z</time></trkpt><trkpt lat="44.549353" lon="11.0637074"><ele>54.0</ele><time>2026-03-28T09:56:39.013Z</time></trkpt><trkpt lat="44.5493166" lon="11.0638514"><ele>54.0</ele><time>2026-03-28T09:56:40.02Z</time></trkpt><trkpt lat="44.5492857" lon="11.0639829"><ele>54.00000000000001</ele><time>2026-03-28T09:56:41.02Z</time></trkpt><trkpt lat="44.5492521" lon="11.0640994"><ele>54.00000000000001</ele><time>2026-03-28T09:56:42.018Z</time></trkpt><trkpt lat="44.5492173" lon="11.0641919"><ele>54.0</ele><time>2026-03-28T09:56:43.015Z</time></trkpt><trkpt lat="44.5491513" lon="11.0643041"><ele>54.0</ele><time>2026-03-28T09:56:45.032Z</time></trkpt><trkpt lat="44.5490696" lon="11.0643669"><ele>54.166666666666664</ele><time>2026-03-28T09:56:47.016Z</time></trkpt><trkpt lat="44.5489668" lon="11.0644128"><ele>54.33333333333333</ele><time>2026-03-28T09:56:49.013Z</time></trkpt><trkpt lat="44.5488976" lon="11.0644161"><ele>54.5</ele><time>2026-03-28T09:56:50.026Z</time></trkpt><trkpt lat="44.5488189" lon="11.0643999"><ele>54.666666666666664</ele><time>2026-03-28T09:56:51.049Z</time></trkpt><trkpt lat="44.5487363" lon="11.0643694"><ele>54.83333333333333</ele><time>2026-03-28T09:56:52.025Z</time></trkpt><trkpt lat="44.5486523" lon="11.0643369"><ele>55.0</ele><time>2026-03-28T09:56:53.006Z</time></trkpt><trkpt lat="44.5485694" lon="11.0643018"><ele>55.0</ele><time>2026-03-28T09:56:54.02Z</time></trkpt><trkpt lat="44.5484863" lon="11.0642634"><ele>55.0</ele><time>2026-03-28T09:56:55.026Z</time></trkpt><trkpt lat="44.5484018" lon="11.0642236"><ele>55.0</ele><time>2026-03-28T09:56:56.03Z</time></trkpt><trkpt lat="44.5483212" lon="11.0641878"><ele>55.0</ele><time>2026-03-28T09:56:56.955Z</time></trkpt><trkpt lat="44.5482268" lon="11.0641494"><ele>55.0</ele><time>2026-03-28T09:56:57.949Z</time></trkpt><trkpt lat="44.5481155" lon="11.0641164"><ele>54.75</ele><time>2026-03-28T09:56:58.974Z</time></trkpt><trkpt lat="44.548004" lon="11.064096"><ele>54.5</ele><time>2026-03-28T09:56:59.962Z</time></trkpt><trkpt lat="44.5478845" lon="11.064085"><ele>54.25</ele><time>2026-03-28T09:57:00.971Z</time></trkpt><trkpt lat="44.5477599" lon="11.0640742"><ele>54.0</ele><time>2026-03-28T09:57:01.983Z</time></trkpt><trkpt lat="44.5476458" lon="11.0640558"><ele>54.400000000000006</ele><time>2026-03-28T09:57:02.963Z</time></trkpt><trkpt lat="44.5475356" lon="11.0640293"><ele>54.800000000000004</ele><time>2026-03-28T09:57:03.977Z</time></trkpt><trkpt lat="44.547429" lon="11.0639956"><ele>55.199999999999996</ele><time>2026-03-28T09:57:04.964Z</time></trkpt><trkpt lat="44.5473259" lon="11.0639575"><ele>55.599999999999994</ele><time>2026-03-28T09:57:05.968Z</time></trkpt><trkpt lat="44.547221" lon="11.0639157"><ele>56.0</ele><time>2026-03-28T09:57:06.98Z</time></trkpt><trkpt lat="44.547117" lon="11.063869"><ele>55.833333333333336</ele><time>2026-03-28T09:57:07.963Z</time></trkpt><trkpt lat="44.5470175" lon="11.0638267"><ele>55.66666666666667</ele><time>2026-03-28T09:57:08.958Z</time></trkpt><trkpt lat="44.5469306" lon="11.0637919"><ele>55.5</ele><time>2026-03-28T09:57:09.984Z</time></trkpt><trkpt lat="44.5468501" lon="11.0637603"><ele>55.33333333333333</ele><time>2026-03-28T09:57:10.975Z</time></trkpt><trkpt lat="44.5467751" lon="11.0637294"><ele>55.166666666666664</ele><time>2026-03-28T09:57:11.95Z</time></trkpt><trkpt lat="44.5466992" lon="11.0636946"><ele>55.0</ele><time>2026-03-28T09:57:12.972Z</time></trkpt><trkpt lat="44.5466164" lon="11.0636614"><ele>55.0</ele><time>2026-03-28T09:57:13.978Z</time></trkpt><trkpt lat="44.5465032" lon="11.0636167"><ele>55.0</ele><time>2026-03-28T09:57:14.968Z</time></trkpt><trkpt lat="44.5463892" lon="11.0635657"><ele>55.0</ele><time>2026-03-28T09:57:15.981Z</time></trkpt><trkpt lat="44.5462605" lon="11.0635091"><ele>55.0</ele><time>2026-03-28T09:57:16.966Z</time></trkpt><trkpt lat="44.5461267" lon="11.0634477"><ele>55.0</ele><time>2026-03-28T09:57:17.959Z</time></trkpt><trkpt lat="44.5460143" lon="11.0633958"><ele>55.0</ele><time>2026-03-28T09:57:18.97Z</time></trkpt><trkpt lat="44.5459236" lon="11.0633497"><ele>55.0</ele><time>2026-03-28T09:57:19.968Z</time></trkpt><trkpt lat="44.5458292" lon="11.0633056"><ele>55.0</ele><time>2026-03-28T09:57:20.956Z</time></trkpt><trkpt lat="44.5457287" lon="11.0632584"><ele>55.0</ele><time>2026-03-28T09:57:21.956Z</time></trkpt><trkpt lat="44.5455981" lon="11.0632332"><ele>55.0</ele><time>2026-03-28T09:57:22.963Z</time></trkpt><trkpt lat="44.5454577" lon="11.0632133"><ele>55.0</ele><time>2026-03-28T09:57:23.958Z</time></trkpt><trkpt lat="44.5453194" lon="11.0632186"><ele>55.0</ele><time>2026-03-28T09:57:24.977Z</time></trkpt><trkpt lat="44.545193" lon="11.0632315"><ele>55.0</ele><time>2026-03-28T09:57:25.97Z</time></trkpt><trkpt lat="44.5450773" lon="11.0632463"><ele>54.99999999999999</ele><time>2026-03-28T09:57:26.978Z</time></trkpt><trkpt lat="44.5449792" lon="11.0632488"><ele>55.0</ele><time>2026-03-28T09:57:27.984Z</time></trkpt><trkpt lat="44.5449042" lon="11.0632322"><ele>55.0</ele><time>2026-03-28T09:57:28.955Z</time></trkpt><trkpt lat="44.5448347" lon="11.0632001"><ele>55.0</ele><time>2026-03-28T09:57:29.97Z</time></trkpt><trkpt lat="44.5447671" lon="11.0631444"><ele>54.99999999999999</ele><time>2026-03-28T09:57:30.964Z</time></trkpt><trkpt lat="44.5446887" lon="11.0630965"><ele>55.0</ele><time>2026-03-28T09:57:31.963Z</time></trkpt><trkpt lat="44.5446157" lon="11.06308"><ele>54.99999999999999</ele><time>2026-03-28T09:57:32.955Z</time></trkpt><trkpt lat="44.5445472" lon="11.0631105"><ele>55.0</ele><time>2026-03-28T09:57:33.965Z</time></trkpt><trkpt lat="44.5444662" lon="11.0631695"><ele>55.0</ele><time>2026-03-28T09:57:34.977Z</time></trkpt><trkpt lat="44.5443861" lon="11.0632165"><ele>55.0</ele><time>2026-03-28T09:57:35.976Z</time></trkpt><trkpt lat="44.5443003" lon="11.0632545"><ele>54.99999999999999</ele><time>2026-03-28T09:57:36.956Z</time></trkpt><trkpt lat="44.5442101" lon="11.0632932"><ele>55.0</ele><time>2026-03-28T09:57:37.969Z</time></trkpt><trkpt lat="44.5441297" lon="11.0633303"><ele>54.99999999999999</ele><time>2026-03-28T09:57:38.972Z</time></trkpt><trkpt lat="44.5440571" lon="11.0633584"><ele>55.0</ele><time>2026-03-28T09:57:39.951Z</time></trkpt><trkpt lat="44.5439812" lon="11.0633739"><ele>55.0</ele><time>2026-03-28T09:57:40.951Z</time></trkpt><trkpt lat="44.5438993" lon="11.0633623"><ele>55.0</ele><time>2026-03-28T09:57:41.97Z</time></trkpt><trkpt lat="44.5438138" lon="11.0633264"><ele>54.99999999999999</ele><time>2026-03-28T09:57:42.963Z</time></trkpt><trkpt lat="44.5437331" lon="11.0632844"><ele>55.0</ele><time>2026-03-28T09:57:43.955Z</time></trkpt><trkpt lat="44.5436473" lon="11.0632351"><ele>55.0</ele><time>2026-03-28T09:57:44.98Z</time></trkpt><trkpt lat="44.5435575" lon="11.0631874"><ele>55.0</ele><time>2026-03-28T09:57:45.991Z</time></trkpt><trkpt lat="44.5434732" lon="11.063143"><ele>55.0</ele><time>2026-03-28T09:57:46.967Z</time></trkpt><trkpt lat="44.5433788" lon="11.0630952"><ele>55.0</ele><time>2026-03-28T09:57:47.969Z</time></trkpt><trkpt lat="44.5432753" lon="11.0630428"><ele>55.0</ele><time>2026-03-28T09:57:48.95Z</time></trkpt><trkpt lat="44.543153" lon="11.0629799"><ele>55.0</ele><time>2026-03-28T09:57:49.966Z</time></trkpt><trkpt lat="44.5430241" lon="11.0629144"><ele>55.0</ele><time>2026-03-28T09:57:50.966Z</time></trkpt><trkpt lat="44.5428902" lon="11.062851"><ele>55.0</ele><time>2026-03-28T09:57:51.946Z</time></trkpt><trkpt lat="44.5427549" lon="11.0627837"><ele>55.0</ele><time>2026-03-28T09:57:52.964Z</time></trkpt><trkpt lat="44.5426345" lon="11.0627139"><ele>55.25</ele><time>2026-03-28T09:57:53.963Z</time></trkpt><trkpt lat="44.5425148" lon="11.0626437"><ele>55.5</ele><time>2026-03-28T09:57:54.974Z</time></trkpt><trkpt lat="44.5423953" lon="11.0625756"><ele>55.75</ele><time>2026-03-28T09:57:55.955Z</time></trkpt><trkpt lat="44.5422741" lon="11.0625084"><ele>56.0</ele><time>2026-03-28T09:57:56.956Z</time></trkpt><trkpt lat="44.5421517" lon="11.0624408"><ele>56.25</ele><time>2026-03-28T09:57:57.957Z</time></trkpt><trkpt lat="44.5420314" lon="11.0623731"><ele>56.5</ele><time>2026-03-28T09:57:58.961Z</time></trkpt><trkpt lat="44.5419193" lon="11.0623098"><ele>56.75</ele><time>2026-03-28T09:57:59.986Z</time></trkpt><trkpt lat="44.5418097" lon="11.062253"><ele>57.0</ele><time>2026-03-28T09:58:00.959Z</time></trkpt><trkpt lat="44.5416945" lon="11.0621897"><ele>57.0</ele><time>2026-03-28T09:58:01.963Z</time></trkpt><trkpt lat="44.5415759" lon="11.0621189"><ele>57.0</ele><time>2026-03-28T09:58:02.963Z</time></trkpt><trkpt lat="44.5414546" lon="11.062047"><ele>57.0</ele><time>2026-03-28T09:58:03.981Z</time></trkpt><trkpt lat="44.5413313" lon="11.0619765"><ele>57.0</ele><time>2026-03-28T09:58:04.977Z</time></trkpt><trkpt lat="44.5412058" lon="11.0619072"><ele>57.25</ele><time>2026-03-28T09:58:05.982Z</time></trkpt><trkpt lat="44.5410809" lon="11.0618405"><ele>57.5</ele><time>2026-03-28T09:58:06.975Z</time></trkpt><trkpt lat="44.5409465" lon="11.0617689"><ele>57.75</ele><time>2026-03-28T09:58:07.982Z</time></trkpt><trkpt lat="44.5408183" lon="11.0616976"><ele>58.0</ele><time>2026-03-28T09:58:08.943Z</time></trkpt><trkpt lat="44.5406798" lon="11.0616267"><ele>58.25</ele><time>2026-03-28T09:58:09.948Z</time></trkpt><trkpt lat="44.5405634" lon="11.0615667"><ele>58.5</ele><time>2026-03-28T09:58:10.961Z</time></trkpt><trkpt lat="44.540455" lon="11.0615118"><ele>58.75</ele><time>2026-03-28T09:58:11.97Z</time></trkpt><trkpt lat="44.5403488" lon="11.0614553"><ele>59.0</ele><time>2026-03-28T09:58:12.944Z</time></trkpt><trkpt lat="44.5402394" lon="11.0613891"><ele>59.0</ele><time>2026-03-28T09:58:13.951Z</time></trkpt><trkpt lat="44.5401234" lon="11.0613225"><ele>59.0</ele><time>2026-03-28T09:58:14.96Z</time></trkpt><trkpt lat="44.5400078" lon="11.0612601"><ele>59.0</ele><time>2026-03-28T09:58:15.97Z</time></trkpt><trkpt lat="44.5398922" lon="11.0611996"><ele>59.0</ele><time>2026-03-28T09:58:16.968Z</time></trkpt><trkpt lat="44.5397693" lon="11.0611309"><ele>59.0</ele><time>2026-03-28T09:58:17.977Z</time></trkpt><trkpt lat="44.5396482" lon="11.0610608"><ele>59.0</ele><time>2026-03-28T09:58:18.973Z</time></trkpt><trkpt lat="44.5395282" lon="11.0609942"><ele>59.0</ele><time>2026-03-28T09:58:19.959Z</time></trkpt><trkpt lat="44.5394079" lon="11.0609278"><ele>59.0</ele><time>2026-03-28T09:58:20.965Z</time></trkpt><trkpt lat="44.5392865" lon="11.0608637"><ele>59.0</ele><time>2026-03-28T09:58:21.965Z</time></trkpt><trkpt lat="44.5391707" lon="11.0607984"><ele>59.0</ele><time>2026-03-28T09:58:22.964Z</time></trkpt><trkpt lat="44.5390583" lon="11.0607361"><ele>59.0</ele><time>2026-03-28T09:58:23.954Z</time></trkpt><trkpt lat="44.538955" lon="11.0606803"><ele>59.0</ele><time>2026-03-28T09:58:24.969Z</time></trkpt><trkpt lat="44.5388505" lon="11.060622"><ele>59.0</ele><time>2026-03-28T09:58:25.965Z</time></trkpt><trkpt lat="44.5387523" lon="11.0605637"><ele>59.00000000000001</ele><time>2026-03-28T09:58:26.955Z</time></trkpt><trkpt lat="44.5386429" lon="11.060503"><ele>59.00000000000001</ele><time>2026-03-28T09:58:27.976Z</time></trkpt><trkpt lat="44.5385427" lon="11.060452"><ele>59.0</ele><time>2026-03-28T09:58:28.975Z</time></trkpt><trkpt lat="44.5384472" lon="11.0604038"><ele>59.0</ele><time>2026-03-28T09:58:29.965Z</time></trkpt><trkpt lat="44.538362" lon="11.060353"><ele>59.0</ele><time>2026-03-28T09:58:30.963Z</time></trkpt><trkpt lat="44.5382698" lon="11.0603013"><ele>59.00000000000001</ele><time>2026-03-28T09:58:31.953Z</time></trkpt><trkpt lat="44.5381678" lon="11.0602451"><ele>59.00000000000001</ele><time>2026-03-28T09:58:32.95Z</time></trkpt><trkpt lat="44.538058" lon="11.0601849"><ele>59.0</ele><time>2026-03-28T09:58:33.957Z</time></trkpt><trkpt lat="44.5379443" lon="11.0601217"><ele>59.0</ele><time>2026-03-28T09:58:34.958Z</time></trkpt><trkpt lat="44.537822" lon="11.0600562"><ele>59.0</ele><time>2026-03-28T09:58:35.95Z</time></trkpt><trkpt lat="44.5376924" lon="11.0599904"><ele>59.0</ele><time>2026-03-28T09:58:36.967Z</time></trkpt><trkpt lat="44.5375713" lon="11.0599253"><ele>59.0</ele><time>2026-03-28T09:58:37.956Z</time></trkpt><trkpt lat="44.5374524" lon="11.0598588"><ele>59.0</ele><time>2026-03-28T09:58:38.967Z</time></trkpt><trkpt lat="44.5373344" lon="11.0597948"><ele>59.0</ele><time>2026-03-28T09:58:39.96Z</time></trkpt><trkpt lat="44.537216" lon="11.0597265"><ele>59.0</ele><time>2026-03-28T09:58:40.991Z</time></trkpt><trkpt lat="44.5370965" lon="11.0596613"><ele>59.0</ele><time>2026-03-28T09:58:41.96Z</time></trkpt><trkpt lat="44.5369732" lon="11.059598"><ele>59.0</ele><time>2026-03-28T09:58:42.961Z</time></trkpt><trkpt lat="44.5368622" lon="11.0595346"><ele>59.2</ele><time>2026-03-28T09:58:43.972Z</time></trkpt><trkpt lat="44.5367542" lon="11.0594738"><ele>59.400000000000006</ele><time>2026-03-28T09:58:44.982Z</time></trkpt><trkpt lat="44.5366545" lon="11.0594176"><ele>59.6</ele><time>2026-03-28T09:58:45.987Z</time></trkpt><trkpt lat="44.5365638" lon="11.0593702"><ele>59.8</ele><time>2026-03-28T09:58:46.976Z</time></trkpt><trkpt lat="44.5364625" lon="11.0593146"><ele>60.0</ele><time>2026-03-28T09:58:47.961Z</time></trkpt><trkpt lat="44.5363715" lon="11.0592627"><ele>60.0</ele><time>2026-03-28T09:58:48.958Z</time></trkpt><trkpt lat="44.5362786" lon="11.0592076"><ele>60.0</ele><time>2026-03-28T09:58:49.959Z</time></trkpt><trkpt lat="44.5361891" lon="11.0591553"><ele>60.0</ele><time>2026-03-28T09:58:50.951Z</time></trkpt><trkpt lat="44.5360939" lon="11.0591023"><ele>60.0</ele><time>2026-03-28T09:58:51.985Z</time></trkpt><trkpt lat="44.5359984" lon="11.0590502"><ele>60.0</ele><time>2026-03-28T09:58:52.996Z</time></trkpt><trkpt lat="44.5359111" lon="11.0590031"><ele>59.833333333333336</ele><time>2026-03-28T09:58:53.959Z</time></trkpt><trkpt lat="44.5358226" lon="11.0589539"><ele>59.66666666666667</ele><time>2026-03-28T09:58:54.979Z</time></trkpt><trkpt lat="44.5357302" lon="11.0589022"><ele>59.5</ele><time>2026-03-28T09:58:55.971Z</time></trkpt><trkpt lat="44.5356459" lon="11.058853"><ele>59.333333333333336</ele><time>2026-03-28T09:58:56.972Z</time></trkpt><trkpt lat="44.5355752" lon="11.0588138"><ele>59.16666666666667</ele><time>2026-03-28T09:58:57.954Z</time></trkpt><trkpt lat="44.5355065" lon="11.0587774"><ele>59.0</ele><time>2026-03-28T09:58:58.963Z</time></trkpt><trkpt lat="44.5354153" lon="11.0587363"><ele>59.50000000000001</ele><time>2026-03-28T09:59:00.958Z</time></trkpt><trkpt lat="44.5353175" lon="11.0587088"><ele>60.0</ele><time>2026-03-28T09:59:22.982Z</time></trkpt><trkpt lat="44.5352555" lon="11.0586916"><ele>60.5</ele><time>2026-03-28T09:59:23.962Z</time></trkpt><trkpt lat="44.5351884" lon="11.05868"><ele>61.0</ele><time>2026-03-28T09:59:24.95Z</time></trkpt><trkpt lat="44.535116" lon="11.0586802"><ele>61.50000000000001</ele><time>2026-03-28T09:59:25.947Z</time></trkpt><trkpt lat="44.5350305" lon="11.0586898"><ele>62.0</ele><time>2026-03-28T09:59:26.971Z</time></trkpt><trkpt lat="44.5349236" lon="11.0587171"><ele>62.0</ele><time>2026-03-28T09:59:27.971Z</time></trkpt><trkpt lat="44.5347892" lon="11.0587661"><ele>62.0</ele><time>2026-03-28T09:59:28.968Z</time></trkpt><trkpt lat="44.534616" lon="11.0588382"><ele>62.0</ele><time>2026-03-28T09:59:29.965Z</time></trkpt><trkpt lat="44.5344148" lon="11.0589163"><ele>62.333333333333336</ele><time>2026-03-28T09:59:30.983Z</time></trkpt><trkpt lat="44.53421" lon="11.0589896"><ele>62.66666666666667</ele><time>2026-03-28T09:59:31.973Z</time></trkpt><trkpt lat="44.5340183" lon="11.0590541"><ele>63.0</ele><time>2026-03-28T09:59:32.947Z</time></trkpt><trkpt lat="44.5338299" lon="11.059116"><ele>63.0</ele><time>2026-03-28T09:59:33.97Z</time></trkpt><trkpt lat="44.5336575" lon="11.0591781"><ele>63.0</ele><time>2026-03-28T09:59:34.955Z</time></trkpt><trkpt lat="44.5334856" lon="11.0592417"><ele>63.0</ele><time>2026-03-28T09:59:35.966Z</time></trkpt><trkpt lat="44.5333354" lon="11.0593104"><ele>63.0</ele><time>2026-03-28T09:59:36.962Z</time></trkpt><trkpt lat="44.5331845" lon="11.0593799"><ele>63.0</ele><time>2026-03-28T09:59:37.971Z</time></trkpt><trkpt lat="44.5330442" lon="11.0594379"><ele>63.0</ele><time>2026-03-28T09:59:38.949Z</time></trkpt><trkpt lat="44.5328948" lon="11.0594851"><ele>63.33333333333333</ele><time>2026-03-28T09:59:39.964Z</time></trkpt><trkpt lat="44.5327395" lon="11.05953"><ele>63.666666666666664</ele><time>2026-03-28T09:59:40.965Z</time></trkpt><trkpt lat="44.5325777" lon="11.0595741"><ele>64.0</ele><time>2026-03-28T09:59:41.974Z</time></trkpt><trkpt lat="44.5324157" lon="11.0596225"><ele>64.0</ele><time>2026-03-28T09:59:42.972Z</time></trkpt><trkpt lat="44.5322449" lon="11.0596744"><ele>64.0</ele><time>2026-03-28T09:59:43.982Z</time></trkpt><trkpt lat="44.5320793" lon="11.0597255"><ele>64.0</ele><time>2026-03-28T09:59:44.963Z</time></trkpt><trkpt lat="44.5319132" lon="11.0597868"><ele>63.666666666666664</ele><time>2026-03-28T09:59:45.958Z</time></trkpt><trkpt lat="44.5317415" lon="11.0598525"><ele>63.33333333333333</ele><time>2026-03-28T09:59:46.971Z</time></trkpt><trkpt lat="44.5315688" lon="11.0599242"><ele>63.0</ele><time>2026-03-28T09:59:47.945Z</time></trkpt><trkpt lat="44.5313794" lon="11.0600022"><ele>62.66666666666667</ele><time>2026-03-28T09:59:48.974Z</time></trkpt><trkpt lat="44.5311915" lon="11.0600751"><ele>62.333333333333336</ele><time>2026-03-28T09:59:49.959Z</time></trkpt><trkpt lat="44.5309989" lon="11.0601498"><ele>62.0</ele><time>2026-03-28T09:59:50.958Z</time></trkpt><trkpt lat="44.5308056" lon="11.0602304"><ele>62.0</ele><time>2026-03-28T09:59:51.979Z</time></trkpt><trkpt lat="44.530617" lon="11.0603059"><ele>62.0</ele><time>2026-03-28T09:59:52.973Z</time></trkpt><trkpt lat="44.5304326" lon="11.060376"><ele>62.0</ele><time>2026-03-28T09:59:53.969Z</time></trkpt><trkpt lat="44.5302463" lon="11.0604451"><ele>62.333333333333336</ele><time>2026-03-28T09:59:54.965Z</time></trkpt><trkpt lat="44.5300621" lon="11.060518"><ele>62.66666666666667</ele><time>2026-03-28T09:59:55.956Z</time></trkpt><trkpt lat="44.5298771" lon="11.0605921"><ele>63.0</ele><time>2026-03-28T09:59:56.962Z</time></trkpt><trkpt lat="44.5296903" lon="11.06067"><ele>62.66666666666667</ele><time>2026-03-28T09:59:57.981Z</time></trkpt><trkpt lat="44.5295075" lon="11.0607471"><ele>62.333333333333336</ele><time>2026-03-28T09:59:58.973Z</time></trkpt><trkpt lat="44.5293208" lon="11.0608208"><ele>62.0</ele><time>2026-03-28T09:59:59.969Z</time></trkpt><trkpt lat="44.5291362" lon="11.060893"><ele>62.0</ele><time>2026-03-28T10:00:00.956Z</time></trkpt><trkpt lat="44.5289449" lon="11.060971"><ele>62.0</ele><time>2026-03-28T10:00:01.974Z</time></trkpt><trkpt lat="44.5287568" lon="11.0610486"><ele>62.0</ele><time>2026-03-28T10:00:02.973Z</time></trkpt><trkpt lat="44.528569" lon="11.0611269"><ele>63.0</ele><time>2026-03-28T10:00:03.959Z</time></trkpt><trkpt lat="44.5283783" lon="11.0612083"><ele>64.0</ele><time>2026-03-28T10:00:04.969Z</time></trkpt><trkpt lat="44.5281876" lon="11.0612891"><ele>65.0</ele><time>2026-03-28T10:00:05.97Z</time></trkpt><trkpt lat="44.527998" lon="11.0613663"><ele>65.0</ele><time>2026-03-28T10:00:06.967Z</time></trkpt><trkpt lat="44.5278067" lon="11.0614491"><ele>65.0</ele><time>2026-03-28T10:00:07.958Z</time></trkpt><trkpt lat="44.5276128" lon="11.0615336"><ele>65.0</ele><time>2026-03-28T10:00:08.971Z</time></trkpt><trkpt lat="44.5274206" lon="11.0616203"><ele>65.0</ele><time>2026-03-28T10:00:09.98Z</time></trkpt><trkpt lat="44.5272326" lon="11.0617016"><ele>65.0</ele><time>2026-03-28T10:00:10.956Z</time></trkpt><trkpt lat="44.5270417" lon="11.0617814"><ele>65.0</ele><time>2026-03-28T10:00:11.957Z</time></trkpt><trkpt lat="44.5268512" lon="11.0618606"><ele>65.33333333333334</ele><time>2026-03-28T10:00:12.958Z</time></trkpt><trkpt lat="44.5266641" lon="11.0619396"><ele>65.66666666666667</ele><time>2026-03-28T10:00:13.952Z</time></trkpt><trkpt lat="44.5264767" lon="11.062022"><ele>66.0</ele><time>2026-03-28T10:00:14.956Z</time></trkpt><trkpt lat="44.5262932" lon="11.0620987"><ele>66.66666666666667</ele><time>2026-03-28T10:00:15.96Z</time></trkpt><trkpt lat="44.5261076" lon="11.0621726"><ele>67.33333333333334</ele><time>2026-03-28T10:00:16.966Z</time></trkpt><trkpt lat="44.5259213" lon="11.0622479"><ele>68.0</ele><time>2026-03-28T10:00:17.97Z</time></trkpt><trkpt lat="44.5257352" lon="11.0623236"><ele>68.0</ele><time>2026-03-28T10:00:18.955Z</time></trkpt><trkpt lat="44.525547" lon="11.0623994"><ele>68.0</ele><time>2026-03-28T10:00:19.955Z</time></trkpt><trkpt lat="44.5253589" lon="11.0624771"><ele>68.0</ele><time>2026-03-28T10:00:20.969Z</time></trkpt><trkpt lat="44.5251734" lon="11.0625521"><ele>67.66666666666667</ele><time>2026-03-28T10:00:21.972Z</time></trkpt><trkpt lat="44.5249915" lon="11.0626228"><ele>67.33333333333333</ele><time>2026-03-28T10:00:22.96Z</time></trkpt><trkpt lat="44.5248068" lon="11.0626935"><ele>67.0</ele><time>2026-03-28T10:00:23.976Z</time></trkpt><trkpt lat="44.5246255" lon="11.0627659"><ele>67.0</ele><time>2026-03-28T10:00:24.959Z</time></trkpt><trkpt lat="44.5244352" lon="11.0628445"><ele>67.0</ele><time>2026-03-28T10:00:25.973Z</time></trkpt><trkpt lat="44.5242513" lon="11.0629195"><ele>67.0</ele><time>2026-03-28T10:00:26.95Z</time></trkpt><trkpt lat="44.5240611" lon="11.062996"><ele>67.0</ele><time>2026-03-28T10:00:27.959Z</time></trkpt><trkpt lat="44.5238737" lon="11.0630722"><ele>67.0</ele><time>2026-03-28T10:00:28.959Z</time></trkpt><trkpt lat="44.5236807" lon="11.0631497"><ele>67.0</ele><time>2026-03-28T10:00:29.97Z</time></trkpt><trkpt lat="44.5234875" lon="11.0632253"><ele>67.33333333333333</ele><time>2026-03-28T10:00:30.965Z</time></trkpt><trkpt lat="44.5232945" lon="11.0632993"><ele>67.66666666666667</ele><time>2026-03-28T10:00:31.955Z</time></trkpt><trkpt lat="44.5230957" lon="11.0633748"><ele>68.0</ele><time>2026-03-28T10:00:32.969Z</time></trkpt><trkpt lat="44.5228999" lon="11.0634516"><ele>68.66666666666667</ele><time>2026-03-28T10:00:33.96Z</time></trkpt><trkpt lat="44.5227005" lon="11.0635277"><ele>69.33333333333333</ele><time>2026-03-28T10:00:34.958Z</time></trkpt><trkpt lat="44.5225008" lon="11.0636084"><ele>70.0</ele><time>2026-03-28T10:00:35.961Z</time></trkpt><trkpt lat="44.5222953" lon="11.0636897"><ele>70.0</ele><time>2026-03-28T10:00:36.974Z</time></trkpt><trkpt lat="44.5220958" lon="11.0637713"><ele>70.0</ele><time>2026-03-28T10:00:37.962Z</time></trkpt><trkpt lat="44.5218958" lon="11.0638522"><ele>70.0</ele><time>2026-03-28T10:00:38.951Z</time></trkpt><trkpt lat="44.5216948" lon="11.0639328"><ele>70.33333333333333</ele><time>2026-03-28T10:00:39.967Z</time></trkpt><trkpt lat="44.5215007" lon="11.0640116"><ele>70.66666666666667</ele><time>2026-03-28T10:00:40.95Z</time></trkpt><trkpt lat="44.5213024" lon="11.0640938"><ele>71.0</ele><time>2026-03-28T10:00:41.974Z</time></trkpt><trkpt lat="44.5211145" lon="11.0641699"><ele>71.33333333333334</ele><time>2026-03-28T10:00:42.965Z</time></trkpt><trkpt lat="44.5209279" lon="11.0642466"><ele>71.66666666666667</ele><time>2026-03-28T10:00:43.961Z</time></trkpt><trkpt lat="44.5207454" lon="11.0643216"><ele>72.0</ele><time>2026-03-28T10:00:44.949Z</time></trkpt><trkpt lat="44.5205591" lon="11.064396"><ele>71.33333333333333</ele><time>2026-03-28T10:00:45.962Z</time></trkpt><trkpt lat="44.5203736" lon="11.0644693"><ele>70.66666666666666</ele><time>2026-03-28T10:00:46.972Z</time></trkpt><trkpt lat="44.5201842" lon="11.0645465"><ele>70.0</ele><time>2026-03-28T10:00:47.965Z</time></trkpt><trkpt lat="44.5199876" lon="11.0646266"><ele>70.0</ele><time>2026-03-28T10:00:48.962Z</time></trkpt><trkpt lat="44.519787" lon="11.0647098"><ele>70.0</ele><time>2026-03-28T10:00:49.949Z</time></trkpt><trkpt lat="44.5195835" lon="11.0647893"><ele>70.0</ele><time>2026-03-28T10:00:50.984Z</time></trkpt><trkpt lat="44.5193901" lon="11.0648612"><ele>69.66666666666666</ele><time>2026-03-28T10:00:51.978Z</time></trkpt><trkpt lat="44.5191987" lon="11.0649311"><ele>69.33333333333333</ele><time>2026-03-28T10:00:52.964Z</time></trkpt><trkpt lat="44.5190048" lon="11.0650042"><ele>69.0</ele><time>2026-03-28T10:00:53.963Z</time></trkpt><trkpt lat="44.5188054" lon="11.0650816"><ele>69.0</ele><time>2026-03-28T10:00:54.976Z</time></trkpt><trkpt lat="44.5186156" lon="11.0651605"><ele>69.0</ele><time>2026-03-28T10:00:55.947Z</time></trkpt><trkpt lat="44.518424" lon="11.0652394"><ele>69.0</ele><time>2026-03-28T10:00:56.956Z</time></trkpt><trkpt lat="44.5182332" lon="11.0653164"><ele>69.0</ele><time>2026-03-28T10:00:57.971Z</time></trkpt><trkpt lat="44.5180516" lon="11.0653903"><ele>69.0</ele><time>2026-03-28T10:00:58.958Z</time></trkpt><trkpt lat="44.5178703" lon="11.0654646"><ele>69.0</ele><time>2026-03-28T10:00:59.965Z</time></trkpt><trkpt lat="44.5176972" lon="11.0655344"><ele>69.0</ele><time>2026-03-28T10:01:00.959Z</time></trkpt><trkpt lat="44.5175223" lon="11.0656027"><ele>69.0</ele><time>2026-03-28T10:01:01.98Z</time></trkpt><trkpt lat="44.5173509" lon="11.0656707"><ele>69.0</ele><time>2026-03-28T10:01:02.963Z</time></trkpt><trkpt lat="44.5171745" lon="11.0657419"><ele>69.33333333333333</ele><time>2026-03-28T10:01:03.979Z</time></trkpt><trkpt lat="44.5170075" lon="11.065812"><ele>69.66666666666666</ele><time>2026-03-28T10:01:04.953Z</time></trkpt><trkpt lat="44.5168382" lon="11.0658892"><ele>70.0</ele><time>2026-03-28T10:01:05.967Z</time></trkpt><trkpt lat="44.5166778" lon="11.0659763"><ele>70.0</ele><time>2026-03-28T10:01:06.964Z</time></trkpt><trkpt lat="44.5165295" lon="11.0660736"><ele>70.0</ele><time>2026-03-28T10:01:07.961Z</time></trkpt><trkpt lat="44.5163859" lon="11.0661721"><ele>70.0</ele><time>2026-03-28T10:01:08.964Z</time></trkpt><trkpt lat="44.5162576" lon="11.0662566"><ele>70.5</ele><time>2026-03-28T10:01:09.965Z</time></trkpt><trkpt lat="44.5161379" lon="11.0663113"><ele>71.0</ele><time>2026-03-28T10:01:10.968Z</time></trkpt><trkpt lat="44.5160322" lon="11.0663478"><ele>71.5</ele><time>2026-03-28T10:01:11.967Z</time></trkpt><trkpt lat="44.5159192" lon="11.06634"><ele>72.0</ele><time>2026-03-28T10:01:12.973Z</time></trkpt><trkpt lat="44.5157993" lon="11.0663185"><ele>72.0</ele><time>2026-03-28T10:01:13.969Z</time></trkpt><trkpt lat="44.5156782" lon="11.0663136"><ele>72.0</ele><time>2026-03-28T10:01:14.959Z</time></trkpt><trkpt lat="44.5155484" lon="11.0663221"><ele>72.0</ele><time>2026-03-28T10:01:15.964Z</time></trkpt><trkpt lat="44.515405" lon="11.0663126"><ele>72.0</ele><time>2026-03-28T10:01:16.978Z</time></trkpt><trkpt lat="44.5152752" lon="11.0662646"><ele>71.66666666666667</ele><time>2026-03-28T10:01:17.971Z</time></trkpt><trkpt lat="44.515137" lon="11.0662239"><ele>71.33333333333334</ele><time>2026-03-28T10:01:18.96Z</time></trkpt><trkpt lat="44.514985" lon="11.0661957"><ele>71.0</ele><time>2026-03-28T10:01:19.965Z</time></trkpt><trkpt lat="44.5148156" lon="11.0661972"><ele>71.0</ele><time>2026-03-28T10:01:20.96Z</time></trkpt><trkpt lat="44.514638" lon="11.0661914"><ele>71.0</ele><time>2026-03-28T10:01:21.969Z</time></trkpt><trkpt lat="44.5144405" lon="11.0661951"><ele>71.0</ele><time>2026-03-28T10:01:22.964Z</time></trkpt><trkpt lat="44.514232" lon="11.0661989"><ele>69.66666666666667</ele><time>2026-03-28T10:01:23.958Z</time></trkpt><trkpt lat="44.5140177" lon="11.0661903"><ele>68.33333333333333</ele><time>2026-03-28T10:01:24.965Z</time></trkpt><trkpt lat="44.5138074" lon="11.066169"><ele>67.0</ele><time>2026-03-28T10:01:25.975Z</time></trkpt><trkpt lat="44.513603" lon="11.0661347"><ele>66.33333333333333</ele><time>2026-03-28T10:01:26.97Z</time></trkpt><trkpt lat="44.513395" lon="11.0660973"><ele>65.66666666666667</ele><time>2026-03-28T10:01:27.958Z</time></trkpt><trkpt lat="44.5131793" lon="11.0660591"><ele>65.0</ele><time>2026-03-28T10:01:28.963Z</time></trkpt><trkpt lat="44.5129671" lon="11.0660239"><ele>66.0</ele><time>2026-03-28T10:01:29.957Z</time></trkpt><trkpt lat="44.5127585" lon="11.0659949"><ele>67.0</ele><time>2026-03-28T10:01:30.952Z</time></trkpt><trkpt lat="44.5125438" lon="11.0659696"><ele>68.0</ele><time>2026-03-28T10:01:31.97Z</time></trkpt><trkpt lat="44.5123377" lon="11.0659551"><ele>68.0</ele><time>2026-03-28T10:01:32.972Z</time></trkpt><trkpt lat="44.5121317" lon="11.0659487"><ele>68.0</ele><time>2026-03-28T10:01:33.959Z</time></trkpt><trkpt lat="44.5119167" lon="11.0659458"><ele>68.0</ele><time>2026-03-28T10:01:34.969Z</time></trkpt><trkpt lat="44.5117001" lon="11.0659465"><ele>69.33333333333334</ele><time>2026-03-28T10:01:35.964Z</time></trkpt><trkpt lat="44.5114769" lon="11.0659491"><ele>70.66666666666667</ele><time>2026-03-28T10:01:36.976Z</time></trkpt><trkpt lat="44.5112603" lon="11.0659565"><ele>72.0</ele><time>2026-03-28T10:01:37.969Z</time></trkpt><trkpt lat="44.5110459" lon="11.0659631"><ele>72.0</ele><time>2026-03-28T10:01:38.96Z</time></trkpt><trkpt lat="44.5108375" lon="11.0659764"><ele>72.0</ele><time>2026-03-28T10:01:39.965Z</time></trkpt><trkpt lat="44.5106333" lon="11.0659859"><ele>72.0</ele><time>2026-03-28T10:01:40.976Z</time></trkpt><trkpt lat="44.5104411" lon="11.0659965"><ele>72.33333333333333</ele><time>2026-03-28T10:01:41.971Z</time></trkpt><trkpt lat="44.5102559" lon="11.0660101"><ele>72.66666666666666</ele><time>2026-03-28T10:01:42.961Z</time></trkpt><trkpt lat="44.5100624" lon="11.066024"><ele>73.0</ele><time>2026-03-28T10:01:43.994Z</time></trkpt><trkpt lat="44.5098866" lon="11.0660375"><ele>73.0</ele><time>2026-03-28T10:01:44.966Z</time></trkpt><trkpt lat="44.509706" lon="11.0660479"><ele>73.0</ele><time>2026-03-28T10:01:45.959Z</time></trkpt><trkpt lat="44.5095207" lon="11.0660546"><ele>73.0</ele><time>2026-03-28T10:01:46.962Z</time></trkpt><trkpt lat="44.5093331" lon="11.0660686"><ele>72.66666666666666</ele><time>2026-03-28T10:01:47.954Z</time></trkpt><trkpt lat="44.5091323" lon="11.0660827"><ele>72.33333333333333</ele><time>2026-03-28T10:01:48.961Z</time></trkpt><trkpt lat="44.5089287" lon="11.0660967"><ele>72.0</ele><time>2026-03-28T10:01:49.974Z</time></trkpt><trkpt lat="44.5087311" lon="11.0661159"><ele>73.0</ele><time>2026-03-28T10:01:50.963Z</time></trkpt><trkpt lat="44.5085356" lon="11.0661334"><ele>74.0</ele><time>2026-03-28T10:01:51.948Z</time></trkpt><trkpt lat="44.5083435" lon="11.0661462"><ele>75.0</ele><time>2026-03-28T10:01:52.952Z</time></trkpt><trkpt lat="44.5081619" lon="11.066157"><ele>75.0</ele><time>2026-03-28T10:01:53.937Z</time></trkpt><trkpt lat="44.5079815" lon="11.0661668"><ele>75.0</ele><time>2026-03-28T10:01:54.95Z</time></trkpt><trkpt lat="44.5078148" lon="11.0661771"><ele>75.0</ele><time>2026-03-28T10:01:55.951Z</time></trkpt><trkpt lat="44.5076551" lon="11.0661868"><ele>75.0</ele><time>2026-03-28T10:01:56.971Z</time></trkpt><trkpt lat="44.5075119" lon="11.0661958"><ele>75.0</ele><time>2026-03-28T10:01:57.97Z</time></trkpt><trkpt lat="44.507379" lon="11.0662025"><ele>75.0</ele><time>2026-03-28T10:01:58.985Z</time></trkpt><trkpt lat="44.5072627" lon="11.0662096"><ele>75.0</ele><time>2026-03-28T10:01:59.982Z</time></trkpt><trkpt lat="44.5071564" lon="11.0662045"><ele>74.4</ele><time>2026-03-28T10:02:00.981Z</time></trkpt><trkpt lat="44.5070644" lon="11.0661795"><ele>73.8</ele><time>2026-03-28T10:02:01.967Z</time></trkpt><trkpt lat="44.5069797" lon="11.0661241"><ele>73.2</ele><time>2026-03-28T10:02:02.965Z</time></trkpt><trkpt lat="44.5069037" lon="11.0660385"><ele>72.6</ele><time>2026-03-28T10:02:03.95Z</time></trkpt><trkpt lat="44.5068155" lon="11.0659482"><ele>72.0</ele><time>2026-03-28T10:02:04.965Z</time></trkpt><trkpt lat="44.5067188" lon="11.0658788"><ele>72.0</ele><time>2026-03-28T10:02:05.972Z</time></trkpt><trkpt lat="44.5066235" lon="11.0658528"><ele>72.0</ele><time>2026-03-28T10:02:06.953Z</time></trkpt><trkpt lat="44.5065236" lon="11.0658713"><ele>72.0</ele><time>2026-03-28T10:02:07.964Z</time></trkpt><trkpt lat="44.5064162" lon="11.0659233"><ele>72.0</ele><time>2026-03-28T10:02:08.957Z</time></trkpt><trkpt lat="44.5063289" lon="11.0660065"><ele>72.0</ele><time>2026-03-28T10:02:09.965Z</time></trkpt><trkpt lat="44.5062424" lon="11.066075"><ele>72.5</ele><time>2026-03-28T10:02:10.951Z</time></trkpt><trkpt lat="44.5061502" lon="11.0661463"><ele>73.0</ele><time>2026-03-28T10:02:11.967Z</time></trkpt><trkpt lat="44.5060554" lon="11.0662022"><ele>73.5</ele><time>2026-03-28T10:02:12.962Z</time></trkpt><trkpt lat="44.5059454" lon="11.0662328"><ele>74.0</ele><time>2026-03-28T10:02:13.967Z</time></trkpt><trkpt lat="44.5058139" lon="11.0662273"><ele>74.0</ele><time>2026-03-28T10:02:14.959Z</time></trkpt><trkpt lat="44.5056503" lon="11.0661874"><ele>74.0</ele><time>2026-03-28T10:02:15.955Z</time></trkpt><trkpt lat="44.5054661" lon="11.06613"><ele>74.0</ele><time>2026-03-28T10:02:16.973Z</time></trkpt><trkpt lat="44.5052661" lon="11.0660548"><ele>75.33333333333334</ele><time>2026-03-28T10:02:17.96Z</time></trkpt><trkpt lat="44.505063" lon="11.0659744"><ele>76.66666666666667</ele><time>2026-03-28T10:02:18.962Z</time></trkpt><trkpt lat="44.5048674" lon="11.0658951"><ele>78.0</ele><time>2026-03-28T10:02:19.969Z</time></trkpt><trkpt lat="44.5046807" lon="11.0658192"><ele>77.66666666666667</ele><time>2026-03-28T10:02:20.959Z</time></trkpt><trkpt lat="44.5044923" lon="11.0657432"><ele>77.33333333333334</ele><time>2026-03-28T10:02:21.968Z</time></trkpt><trkpt lat="44.504307" lon="11.0656707"><ele>77.0</ele><time>2026-03-28T10:02:22.969Z</time></trkpt><trkpt lat="44.50412" lon="11.0655989"><ele>77.0</ele><time>2026-03-28T10:02:23.983Z</time></trkpt><trkpt lat="44.503943" lon="11.0655324"><ele>77.0</ele><time>2026-03-28T10:02:24.979Z</time></trkpt><trkpt lat="44.503773" lon="11.065469"><ele>77.0</ele><time>2026-03-28T10:02:25.968Z</time></trkpt><trkpt lat="44.5036058" lon="11.0654079"><ele>77.66666666666667</ele><time>2026-03-28T10:02:26.977Z</time></trkpt><trkpt lat="44.5034421" lon="11.0653507"><ele>78.33333333333333</ele><time>2026-03-28T10:02:27.996Z</time></trkpt><trkpt lat="44.5032916" lon="11.0653182"><ele>79.0</ele><time>2026-03-28T10:02:28.969Z</time></trkpt><trkpt lat="44.5031408" lon="11.0653207"><ele>79.0</ele><time>2026-03-28T10:02:29.974Z</time></trkpt><trkpt lat="44.5029827" lon="11.0653694"><ele>79.0</ele><time>2026-03-28T10:02:30.979Z</time></trkpt><trkpt lat="44.5028481" lon="11.0654644"><ele>79.0</ele><time>2026-03-28T10:02:31.959Z</time></trkpt><trkpt lat="44.5027309" lon="11.0656029"><ele>78.66666666666666</ele><time>2026-03-28T10:02:32.948Z</time></trkpt><trkpt lat="44.5026267" lon="11.0657908"><ele>78.33333333333333</ele><time>2026-03-28T10:02:33.951Z</time></trkpt><trkpt lat="44.5025553" lon="11.0660111"><ele>78.0</ele><time>2026-03-28T10:02:34.974Z</time></trkpt><trkpt lat="44.5025214" lon="11.0662522"><ele>78.0</ele><time>2026-03-28T10:02:35.962Z</time></trkpt><trkpt lat="44.5025223" lon="11.0664953"><ele>78.0</ele><time>2026-03-28T10:02:36.961Z</time></trkpt><trkpt lat="44.5025597" lon="11.0667233"><ele>78.0</ele><time>2026-03-28T10:02:37.969Z</time></trkpt><trkpt lat="44.5026287" lon="11.0669191"><ele>78.0</ele><time>2026-03-28T10:02:38.976Z</time></trkpt><trkpt lat="44.5027235" lon="11.0670887"><ele>78.0</ele><time>2026-03-28T10:02:39.945Z</time></trkpt><trkpt lat="44.5028407" lon="11.0672323"><ele>78.0</ele><time>2026-03-28T10:02:40.951Z</time></trkpt><trkpt lat="44.502969" lon="11.0673295"><ele>78.0</ele><time>2026-03-28T10:02:41.963Z</time></trkpt><trkpt lat="44.5031044" lon="11.0673898"><ele>78.0</ele><time>2026-03-28T10:02:42.962Z</time></trkpt><trkpt lat="44.5032311" lon="11.0674311"><ele>78.0</ele><time>2026-03-28T10:02:43.961Z</time></trkpt><trkpt lat="44.5033351" lon="11.0674777"><ele>78.0</ele><time>2026-03-28T10:02:44.976Z</time></trkpt><trkpt lat="44.5034198" lon="11.0675482"><ele>78.16666666666667</ele><time>2026-03-28T10:02:45.963Z</time></trkpt><trkpt lat="44.5034841" lon="11.0676266"><ele>78.33333333333333</ele><time>2026-03-28T10:02:46.952Z</time></trkpt><trkpt lat="44.5035484" lon="11.0676918"><ele>78.5</ele><time>2026-03-28T10:02:47.958Z</time></trkpt><trkpt lat="44.5036226" lon="11.0677285"><ele>78.66666666666666</ele><time>2026-03-28T10:02:48.953Z</time></trkpt><trkpt lat="44.5037" lon="11.0677197"><ele>78.83333333333333</ele><time>2026-03-28T10:02:49.963Z</time></trkpt><trkpt lat="44.5037674" lon="11.0676718"><ele>79.0</ele><time>2026-03-28T10:02:50.966Z</time></trkpt><trkpt lat="44.5038165" lon="11.0675808"><ele>79.0</ele><time>2026-03-28T10:02:51.971Z</time></trkpt><trkpt lat="44.5038404" lon="11.0674592"><ele>79.0</ele><time>2026-03-28T10:02:52.972Z</time></trkpt><trkpt lat="44.5038287" lon="11.0673255"><ele>79.0</ele><time>2026-03-28T10:02:53.977Z</time></trkpt><trkpt lat="44.5037796" lon="11.0672009"><ele>79.0</ele><time>2026-03-28T10:02:54.97Z</time></trkpt><trkpt lat="44.5037054" lon="11.0670835"><ele>79.0</ele><time>2026-03-28T10:02:55.971Z</time></trkpt><trkpt lat="44.5036296" lon="11.0669466"><ele>79.0</ele><time>2026-03-28T10:02:56.978Z</time></trkpt><trkpt lat="44.5035737" lon="11.0667737"><ele>79.0</ele><time>2026-03-28T10:02:57.962Z</time></trkpt><trkpt lat="44.5035359" lon="11.0665897"><ele>79.0</ele><time>2026-03-28T10:02:58.975Z</time></trkpt><trkpt lat="44.50351" lon="11.0664023"><ele>79.0</ele><time>2026-03-28T10:02:59.974Z</time></trkpt><trkpt lat="44.5034902" lon="11.0662162"><ele>79.0</ele><time>2026-03-28T10:03:00.958Z</time></trkpt><trkpt lat="44.5034746" lon="11.0660302"><ele>79.0</ele><time>2026-03-28T10:03:01.966Z</time></trkpt><trkpt lat="44.5034582" lon="11.0658378"><ele>79.0</ele><time>2026-03-28T10:03:02.946Z</time></trkpt><trkpt lat="44.503444" lon="11.0656348"><ele>79.0</ele><time>2026-03-28T10:03:03.949Z</time></trkpt><trkpt lat="44.5034339" lon="11.0654289"><ele>79.0</ele><time>2026-03-28T10:03:04.952Z</time></trkpt><trkpt lat="44.503425" lon="11.0652201"><ele>79.0</ele><time>2026-03-28T10:03:05.95Z</time></trkpt><trkpt lat="44.5034152" lon="11.0649908"><ele>79.0</ele><time>2026-03-28T10:03:06.964Z</time></trkpt><trkpt lat="44.5033997" lon="11.0647518"><ele>78.66666666666666</ele><time>2026-03-28T10:03:07.972Z</time></trkpt><trkpt lat="44.503372" lon="11.0645206"><ele>78.33333333333333</ele><time>2026-03-28T10:03:08.966Z</time></trkpt><trkpt lat="44.5033299" lon="11.0643007"><ele>78.0</ele><time>2026-03-28T10:03:09.961Z</time></trkpt><trkpt lat="44.5032746" lon="11.0640834"><ele>78.0</ele><time>2026-03-28T10:03:10.97Z</time></trkpt><trkpt lat="44.5032203" lon="11.0638734"><ele>78.0</ele><time>2026-03-28T10:03:11.966Z</time></trkpt><trkpt lat="44.5031653" lon="11.0636668"><ele>78.0</ele><time>2026-03-28T10:03:12.967Z</time></trkpt><trkpt lat="44.5031152" lon="11.0634657"><ele>78.0</ele><time>2026-03-28T10:03:13.971Z</time></trkpt><trkpt lat="44.5030731" lon="11.063268"><ele>78.0</ele><time>2026-03-28T10:03:14.967Z</time></trkpt><trkpt lat="44.5030439" lon="11.0630621"><ele>78.0</ele><time>2026-03-28T10:03:15.969Z</time></trkpt><trkpt lat="44.503027" lon="11.0628451"><ele>78.0</ele><time>2026-03-28T10:03:16.967Z</time></trkpt><trkpt lat="44.5030265" lon="11.0626255"><ele>78.0</ele><time>2026-03-28T10:03:17.972Z</time></trkpt><trkpt lat="44.5030377" lon="11.0624125"><ele>78.0</ele><time>2026-03-28T10:03:18.964Z</time></trkpt><trkpt lat="44.5030564" lon="11.0622005"><ele>78.5</ele><time>2026-03-28T10:03:19.961Z</time></trkpt><trkpt lat="44.5030715" lon="11.0619978"><ele>79.0</ele><time>2026-03-28T10:03:20.958Z</time></trkpt><trkpt lat="44.5030785" lon="11.0617962"><ele>79.5</ele><time>2026-03-28T10:03:21.972Z</time></trkpt><trkpt lat="44.503077" lon="11.0616002"><ele>80.0</ele><time>2026-03-28T10:03:22.958Z</time></trkpt><trkpt lat="44.5030657" lon="11.0614021"><ele>80.33333333333334</ele><time>2026-03-28T10:03:23.955Z</time></trkpt><trkpt lat="44.503043" lon="11.0611891"><ele>80.66666666666667</ele><time>2026-03-28T10:03:24.975Z</time></trkpt><trkpt lat="44.5030109" lon="11.0609643"><ele>81.0</ele><time>2026-03-28T10:03:25.977Z</time></trkpt><trkpt lat="44.5029663" lon="11.0607298"><ele>81.33333333333333</ele><time>2026-03-28T10:03:26.963Z</time></trkpt><trkpt lat="44.5029074" lon="11.0604933"><ele>81.66666666666666</ele><time>2026-03-28T10:03:27.967Z</time></trkpt><trkpt lat="44.5028336" lon="11.060267"><ele>82.0</ele><time>2026-03-28T10:03:28.948Z</time></trkpt><trkpt lat="44.5027466" lon="11.0600387"><ele>82.0</ele><time>2026-03-28T10:03:29.954Z</time></trkpt><trkpt lat="44.502658" lon="11.0598145"><ele>82.0</ele><time>2026-03-28T10:03:30.95Z</time></trkpt><trkpt lat="44.5025684" lon="11.0595922"><ele>82.0</ele><time>2026-03-28T10:03:31.953Z</time></trkpt><trkpt lat="44.5024771" lon="11.0593709"><ele>82.0</ele><time>2026-03-28T10:03:32.967Z</time></trkpt><trkpt lat="44.5023868" lon="11.0591631"><ele>82.0</ele><time>2026-03-28T10:03:33.953Z</time></trkpt><trkpt lat="44.5022921" lon="11.0589551"><ele>82.0</ele><time>2026-03-28T10:03:34.952Z</time></trkpt><trkpt lat="44.5021924" lon="11.0587376"><ele>82.0</ele><time>2026-03-28T10:03:35.972Z</time></trkpt><trkpt lat="44.5020928" lon="11.0585159"><ele>82.0</ele><time>2026-03-28T10:03:36.97Z</time></trkpt><trkpt lat="44.5019913" lon="11.0582923"><ele>82.0</ele><time>2026-03-28T10:03:37.966Z</time></trkpt><trkpt lat="44.5018859" lon="11.0580592"><ele>82.0</ele><time>2026-03-28T10:03:38.991Z</time></trkpt><trkpt lat="44.5017834" lon="11.0578336"><ele>82.0</ele><time>2026-03-28T10:03:39.983Z</time></trkpt><trkpt lat="44.5016768" lon="11.0576059"><ele>82.0</ele><time>2026-03-28T10:03:40.986Z</time></trkpt><trkpt lat="44.5015587" lon="11.0573892"><ele>82.33333333333333</ele><time>2026-03-28T10:03:41.965Z</time></trkpt><trkpt lat="44.5014201" lon="11.0571767"><ele>82.66666666666667</ele><time>2026-03-28T10:03:42.961Z</time></trkpt><trkpt lat="44.5012544" lon="11.0569776"><ele>83.0</ele><time>2026-03-28T10:03:43.957Z</time></trkpt><trkpt lat="44.5010551" lon="11.0567896"><ele>82.66666666666667</ele><time>2026-03-28T10:03:44.978Z</time></trkpt><trkpt lat="44.5008654" lon="11.0566316"><ele>82.33333333333333</ele><time>2026-03-28T10:03:45.977Z</time></trkpt><trkpt lat="44.5006869" lon="11.056492"><ele>82.0</ele><time>2026-03-28T10:03:46.965Z</time></trkpt><trkpt lat="44.5005165" lon="11.0563637"><ele>82.66666666666666</ele><time>2026-03-28T10:03:47.98Z</time></trkpt><trkpt lat="44.5003545" lon="11.0562406"><ele>83.33333333333333</ele><time>2026-03-28T10:03:48.973Z</time></trkpt><trkpt lat="44.5001931" lon="11.0561162"><ele>84.0</ele><time>2026-03-28T10:03:49.98Z</time></trkpt><trkpt lat="44.500035" lon="11.055996"><ele>84.0</ele><time>2026-03-28T10:03:50.973Z</time></trkpt><trkpt lat="44.4998762" lon="11.0558667"><ele>84.0</ele><time>2026-03-28T10:03:51.976Z</time></trkpt><trkpt lat="44.4997151" lon="11.0557372"><ele>84.0</ele><time>2026-03-28T10:03:52.968Z</time></trkpt><trkpt lat="44.4995431" lon="11.0556154"><ele>84.33333333333333</ele><time>2026-03-28T10:03:53.98Z</time></trkpt><trkpt lat="44.4993836" lon="11.0554934"><ele>84.66666666666666</ele><time>2026-03-28T10:03:54.957Z</time></trkpt><trkpt lat="44.4992305" lon="11.0553771"><ele>85.0</ele><time>2026-03-28T10:03:55.969Z</time></trkpt><trkpt lat="44.4990834" lon="11.0552758"><ele>85.0</ele><time>2026-03-28T10:03:56.976Z</time></trkpt><trkpt lat="44.4989504" lon="11.0551806"><ele>85.0</ele><time>2026-03-28T10:03:57.95Z</time></trkpt><trkpt lat="44.4988176" lon="11.0550794"><ele>85.0</ele><time>2026-03-28T10:03:58.964Z</time></trkpt><trkpt lat="44.4986886" lon="11.0549713"><ele>85.33333333333333</ele><time>2026-03-28T10:03:59.962Z</time></trkpt><trkpt lat="44.498555" lon="11.0548446"><ele>85.66666666666667</ele><time>2026-03-28T10:04:00.97Z</time></trkpt><trkpt lat="44.4984223" lon="11.0546998"><ele>86.0</ele><time>2026-03-28T10:04:01.965Z</time></trkpt><trkpt lat="44.4982961" lon="11.0545305"><ele>86.0</ele><time>2026-03-28T10:04:02.961Z</time></trkpt><trkpt lat="44.4981733" lon="11.0543457"><ele>86.0</ele><time>2026-03-28T10:04:03.963Z</time></trkpt><trkpt lat="44.498058" lon="11.0541522"><ele>86.0</ele><time>2026-03-28T10:04:04.975Z</time></trkpt><trkpt lat="44.4979488" lon="11.0539595"><ele>86.5</ele><time>2026-03-28T10:04:05.982Z</time></trkpt><trkpt lat="44.49785" lon="11.0537895"><ele>87.0</ele><time>2026-03-28T10:04:06.966Z</time></trkpt><trkpt lat="44.4977584" lon="11.0536315"><ele>87.5</ele><time>2026-03-28T10:04:07.975Z</time></trkpt><trkpt lat="44.4976708" lon="11.0534813"><ele>88.0</ele><time>2026-03-28T10:04:08.962Z</time></trkpt><trkpt lat="44.4975777" lon="11.0533262"><ele>88.0</ele><time>2026-03-28T10:04:09.968Z</time></trkpt><trkpt lat="44.4974812" lon="11.0531665"><ele>88.0</ele><time>2026-03-28T10:04:10.966Z</time></trkpt><trkpt lat="44.4973818" lon="11.0529984"><ele>88.0</ele><time>2026-03-28T10:04:11.968Z</time></trkpt><trkpt lat="44.4972821" lon="11.052828"><ele>88.0</ele><time>2026-03-28T10:04:12.956Z</time></trkpt><trkpt lat="44.4971818" lon="11.0526547"><ele>88.0</ele><time>2026-03-28T10:04:13.958Z</time></trkpt><trkpt lat="44.4970796" lon="11.0524844"><ele>88.0</ele><time>2026-03-28T10:04:14.974Z</time></trkpt><trkpt lat="44.4969812" lon="11.052322"><ele>88.33333333333333</ele><time>2026-03-28T10:04:15.973Z</time></trkpt><trkpt lat="44.4968809" lon="11.0521559"><ele>88.66666666666667</ele><time>2026-03-28T10:04:16.975Z</time></trkpt><trkpt lat="44.4967828" lon="11.0519904"><ele>89.0</ele><time>2026-03-28T10:04:17.966Z</time></trkpt><trkpt lat="44.4966849" lon="11.051825"><ele>89.0</ele><time>2026-03-28T10:04:18.96Z</time></trkpt><trkpt lat="44.4965849" lon="11.051657"><ele>89.0</ele><time>2026-03-28T10:04:19.955Z</time></trkpt><trkpt lat="44.4964853" lon="11.051484"><ele>89.0</ele><time>2026-03-28T10:04:20.966Z</time></trkpt><trkpt lat="44.4963857" lon="11.0513115"><ele>89.33333333333334</ele><time>2026-03-28T10:04:21.964Z</time></trkpt><trkpt lat="44.4962794" lon="11.0511264"><ele>89.66666666666667</ele><time>2026-03-28T10:04:22.967Z</time></trkpt><trkpt lat="44.4961747" lon="11.0509482"><ele>90.0</ele><time>2026-03-28T10:04:23.961Z</time></trkpt><trkpt lat="44.4960693" lon="11.05077"><ele>90.0</ele><time>2026-03-28T10:04:24.982Z</time></trkpt><trkpt lat="44.4959691" lon="11.0506028"><ele>90.0</ele><time>2026-03-28T10:04:25.976Z</time></trkpt><trkpt lat="44.4958689" lon="11.0504331"><ele>90.0</ele><time>2026-03-28T10:04:26.98Z</time></trkpt><trkpt lat="44.495771" lon="11.0502669"><ele>90.0</ele><time>2026-03-28T10:04:27.979Z</time></trkpt><trkpt lat="44.4956784" lon="11.0501084"><ele>90.0</ele><time>2026-03-28T10:04:28.956Z</time></trkpt><trkpt lat="44.4955836" lon="11.0499433"><ele>90.0</ele><time>2026-03-28T10:04:29.961Z</time></trkpt><trkpt lat="44.4954903" lon="11.0497799"><ele>90.0</ele><time>2026-03-28T10:04:30.987Z</time></trkpt><trkpt lat="44.4953949" lon="11.0496142"><ele>90.33333333333333</ele><time>2026-03-28T10:04:31.96Z</time></trkpt><trkpt lat="44.4952975" lon="11.0494417"><ele>90.66666666666666</ele><time>2026-03-28T10:04:32.979Z</time></trkpt><trkpt lat="44.4952014" lon="11.049276"><ele>91.0</ele><time>2026-03-28T10:04:33.978Z</time></trkpt><trkpt lat="44.4951106" lon="11.0491191"><ele>91.5</ele><time>2026-03-28T10:04:34.95Z</time></trkpt><trkpt lat="44.4950174" lon="11.0489666"><ele>92.0</ele><time>2026-03-28T10:04:35.961Z</time></trkpt><trkpt lat="44.4949271" lon="11.0488174"><ele>92.5</ele><time>2026-03-28T10:04:36.982Z</time></trkpt><trkpt lat="44.4948445" lon="11.0486854"><ele>93.0</ele><time>2026-03-28T10:04:37.968Z</time></trkpt><trkpt lat="44.4947663" lon="11.0485496"><ele>93.0</ele><time>2026-03-28T10:04:38.964Z</time></trkpt><trkpt lat="44.4946905" lon="11.0484134"><ele>93.0</ele><time>2026-03-28T10:04:39.952Z</time></trkpt><trkpt lat="44.4946066" lon="11.0482775"><ele>93.0</ele><time>2026-03-28T10:04:40.974Z</time></trkpt><trkpt lat="44.4945208" lon="11.0481428"><ele>93.0</ele><time>2026-03-28T10:04:41.976Z</time></trkpt><trkpt lat="44.494433" lon="11.0480031"><ele>92.75</ele><time>2026-03-28T10:04:42.962Z</time></trkpt><trkpt lat="44.4943426" lon="11.047856"><ele>92.5</ele><time>2026-03-28T10:04:43.965Z</time></trkpt><trkpt lat="44.4942572" lon="11.0477135"><ele>92.25</ele><time>2026-03-28T10:04:44.956Z</time></trkpt><trkpt lat="44.4941704" lon="11.0475704"><ele>92.0</ele><time>2026-03-28T10:04:45.958Z</time></trkpt><trkpt lat="44.4940838" lon="11.0474362"><ele>92.0</ele><time>2026-03-28T10:04:46.983Z</time></trkpt><trkpt lat="44.4940096" lon="11.0473151"><ele>92.0</ele><time>2026-03-28T10:04:47.974Z</time></trkpt><trkpt lat="44.4939421" lon="11.0472007"><ele>92.0</ele><time>2026-03-28T10:04:48.978Z</time></trkpt><trkpt lat="44.4938739" lon="11.0470928"><ele>92.0</ele><time>2026-03-28T10:04:49.966Z</time></trkpt><trkpt lat="44.4938008" lon="11.0469789"><ele>92.0</ele><time>2026-03-28T10:04:50.987Z</time></trkpt><trkpt lat="44.4937298" lon="11.0468612"><ele>92.6</ele><time>2026-03-28T10:04:51.979Z</time></trkpt><trkpt lat="44.4936545" lon="11.0467394"><ele>93.19999999999999</ele><time>2026-03-28T10:04:52.959Z</time></trkpt><trkpt lat="44.4935842" lon="11.0466207"><ele>93.8</ele><time>2026-03-28T10:04:53.97Z</time></trkpt><trkpt lat="44.4935107" lon="11.0464996"><ele>94.4</ele><time>2026-03-28T10:04:55Z</time></trkpt><trkpt lat="44.493444" lon="11.0463959"><ele>95.0</ele><time>2026-03-28T10:04:55.965Z</time></trkpt><trkpt lat="44.4933771" lon="11.0462949"><ele>95.33333333333334</ele><time>2026-03-28T10:04:56.953Z</time></trkpt><trkpt lat="44.4933056" lon="11.0461972"><ele>95.66666666666667</ele><time>2026-03-28T10:04:57.978Z</time></trkpt><trkpt lat="44.4932397" lon="11.0461114"><ele>96.0</ele><time>2026-03-28T10:04:58.982Z</time></trkpt><trkpt lat="44.4931799" lon="11.0460438"><ele>96.33333333333334</ele><time>2026-03-28T10:04:59.964Z</time></trkpt><trkpt lat="44.4931224" lon="11.0459883"><ele>96.66666666666667</ele><time>2026-03-28T10:05:00.966Z</time></trkpt><trkpt lat="44.4930617" lon="11.0459374"><ele>97.0</ele><time>2026-03-28T10:05:01.967Z</time></trkpt><trkpt lat="44.4930032" lon="11.0458863"><ele>97.0</ele><time>2026-03-28T10:05:02.96Z</time></trkpt><trkpt lat="44.4929307" lon="11.0458102"><ele>97.0</ele><time>2026-03-28T10:05:03.952Z</time></trkpt><trkpt lat="44.4928489" lon="11.0456998"><ele>97.0</ele><time>2026-03-28T10:05:04.976Z</time></trkpt><trkpt lat="44.4927704" lon="11.0455894"><ele>97.0</ele><time>2026-03-28T10:05:05.976Z</time></trkpt><trkpt lat="44.492694" lon="11.0454827"><ele>97.0</ele><time>2026-03-28T10:05:06.961Z</time></trkpt><trkpt lat="44.492609" lon="11.0453795"><ele>96.75</ele><time>2026-03-28T10:05:07.95Z</time></trkpt><trkpt lat="44.4925112" lon="11.0452681"><ele>96.5</ele><time>2026-03-28T10:05:08.967Z</time></trkpt><trkpt lat="44.4924029" lon="11.0451459"><ele>96.25</ele><time>2026-03-28T10:05:09.985Z</time></trkpt><trkpt lat="44.4922835" lon="11.0450073"><ele>96.0</ele><time>2026-03-28T10:05:10.967Z</time></trkpt><trkpt lat="44.4921589" lon="11.0448653"><ele>96.33333333333334</ele><time>2026-03-28T10:05:11.98Z</time></trkpt><trkpt lat="44.492042" lon="11.0447235"><ele>96.66666666666667</ele><time>2026-03-28T10:05:12.989Z</time></trkpt><trkpt lat="44.4919284" lon="11.0445896"><ele>97.0</ele><time>2026-03-28T10:05:13.984Z</time></trkpt><trkpt lat="44.4918141" lon="11.0444572"><ele>97.0</ele><time>2026-03-28T10:05:14.976Z</time></trkpt><trkpt lat="44.4916933" lon="11.0443197"><ele>97.0</ele><time>2026-03-28T10:05:15.971Z</time></trkpt><trkpt lat="44.4915773" lon="11.0441839"><ele>97.0</ele><time>2026-03-28T10:05:16.966Z</time></trkpt><trkpt lat="44.4914598" lon="11.0440455"><ele>96.75</ele><time>2026-03-28T10:05:17.985Z</time></trkpt><trkpt lat="44.4913428" lon="11.0439261"><ele>96.5</ele><time>2026-03-28T10:05:18.959Z</time></trkpt><trkpt lat="44.4912139" lon="11.0438147"><ele>96.25</ele><time>2026-03-28T10:05:19.958Z</time></trkpt><trkpt lat="44.4910828" lon="11.0437162"><ele>96.0</ele><time>2026-03-28T10:05:20.949Z</time></trkpt><trkpt lat="44.4909481" lon="11.0436204"><ele>97.33333333333334</ele><time>2026-03-28T10:05:21.962Z</time></trkpt><trkpt lat="44.4908104" lon="11.0435398"><ele>98.66666666666667</ele><time>2026-03-28T10:05:22.967Z</time></trkpt><trkpt lat="44.490667" lon="11.0434658"><ele>100.0</ele><time>2026-03-28T10:05:23.978Z</time></trkpt><trkpt lat="44.4905246" lon="11.0433941"><ele>100.0</ele><time>2026-03-28T10:05:24.96Z</time></trkpt><trkpt lat="44.4903786" lon="11.0433198"><ele>100.0</ele><time>2026-03-28T10:05:25.972Z</time></trkpt><trkpt lat="44.490239" lon="11.043249"><ele>100.0</ele><time>2026-03-28T10:05:26.968Z</time></trkpt><trkpt lat="44.490101" lon="11.0431784"><ele>100.0</ele><time>2026-03-28T10:05:27.973Z</time></trkpt><trkpt lat="44.4899648" lon="11.0431104"><ele>100.0</ele><time>2026-03-28T10:05:28.979Z</time></trkpt><trkpt lat="44.4898309" lon="11.0430386"><ele>100.0</ele><time>2026-03-28T10:05:29.969Z</time></trkpt><trkpt lat="44.4896899" lon="11.0429521"><ele>100.0</ele><time>2026-03-28T10:05:30.973Z</time></trkpt><trkpt lat="44.489553" lon="11.0428466"><ele>100.33333333333334</ele><time>2026-03-28T10:05:31.963Z</time></trkpt><trkpt lat="44.4894139" lon="11.042718"><ele>100.66666666666666</ele><time>2026-03-28T10:05:32.971Z</time></trkpt><trkpt lat="44.489284" lon="11.0425697"><ele>101.0</ele><time>2026-03-28T10:05:33.964Z</time></trkpt><trkpt lat="44.4891566" lon="11.042402"><ele>100.33333333333333</ele><time>2026-03-28T10:05:34.972Z</time></trkpt><trkpt lat="44.4890318" lon="11.0422191"><ele>99.66666666666666</ele><time>2026-03-28T10:05:35.969Z</time></trkpt><trkpt lat="44.4889063" lon="11.0420255"><ele>99.0</ele><time>2026-03-28T10:05:36.97Z</time></trkpt><trkpt lat="44.488785" lon="11.0418327"><ele>99.66666666666666</ele><time>2026-03-28T10:05:37.961Z</time></trkpt><trkpt lat="44.4886656" lon="11.0416427"><ele>100.33333333333333</ele><time>2026-03-28T10:05:38.972Z</time></trkpt><trkpt lat="44.4885551" lon="11.0414671"><ele>101.0</ele><time>2026-03-28T10:05:39.97Z</time></trkpt><trkpt lat="44.4884521" lon="11.0413065"><ele>101.0</ele><time>2026-03-28T10:05:40.974Z</time></trkpt><trkpt lat="44.4883602" lon="11.0411617"><ele>101.0</ele><time>2026-03-28T10:05:41.968Z</time></trkpt><trkpt lat="44.4882751" lon="11.0410324"><ele>101.0</ele><time>2026-03-28T10:05:42.966Z</time></trkpt><trkpt lat="44.4881879" lon="11.0409029"><ele>101.0</ele><time>2026-03-28T10:05:43.984Z</time></trkpt><trkpt lat="44.488106" lon="11.0407776"><ele>100.75</ele><time>2026-03-28T10:05:44.953Z</time></trkpt><trkpt lat="44.4880205" lon="11.0406436"><ele>100.5</ele><time>2026-03-28T10:05:45.973Z</time></trkpt><trkpt lat="44.4879368" lon="11.0405147"><ele>100.25</ele><time>2026-03-28T10:05:46.96Z</time></trkpt><trkpt lat="44.4878519" lon="11.0403856"><ele>100.0</ele><time>2026-03-28T10:05:47.96Z</time></trkpt><trkpt lat="44.4877671" lon="11.0402559"><ele>99.75</ele><time>2026-03-28T10:05:48.969Z</time></trkpt><trkpt lat="44.487678" lon="11.040123"><ele>99.5</ele><time>2026-03-28T10:05:49.971Z</time></trkpt><trkpt lat="44.4875868" lon="11.0399856"><ele>99.25</ele><time>2026-03-28T10:05:50.978Z</time></trkpt><trkpt lat="44.487482" lon="11.0398302"><ele>99.0</ele><time>2026-03-28T10:05:51.974Z</time></trkpt><trkpt lat="44.4873554" lon="11.0396459"><ele>98.5</ele><time>2026-03-28T10:05:52.977Z</time></trkpt><trkpt lat="44.487198" lon="11.0394229"><ele>98.0</ele><time>2026-03-28T10:05:53.979Z</time></trkpt><trkpt lat="44.4870278" lon="11.0391711"><ele>98.0</ele><time>2026-03-28T10:05:54.968Z</time></trkpt><trkpt lat="44.4868591" lon="11.0389073"><ele>98.0</ele><time>2026-03-28T10:05:55.968Z</time></trkpt><trkpt lat="44.486697" lon="11.0386541"><ele>98.0</ele><time>2026-03-28T10:05:56.968Z</time></trkpt><trkpt lat="44.4865339" lon="11.0384049"><ele>98.0</ele><time>2026-03-28T10:05:57.954Z</time></trkpt><trkpt lat="44.486384" lon="11.0381847"><ele>98.0</ele><time>2026-03-28T10:05:58.964Z</time></trkpt><trkpt lat="44.4862627" lon="11.0380178"><ele>98.0</ele><time>2026-03-28T10:05:59.963Z</time></trkpt><trkpt lat="44.4861573" lon="11.0378773"><ele>98.0</ele><time>2026-03-28T10:06:00.959Z</time></trkpt><trkpt lat="44.4860552" lon="11.0377428"><ele>98.0</ele><time>2026-03-28T10:06:01.98Z</time></trkpt><trkpt lat="44.4859415" lon="11.0376044"><ele>98.0</ele><time>2026-03-28T10:06:02.949Z</time></trkpt><trkpt lat="44.4858131" lon="11.0374379"><ele>98.0</ele><time>2026-03-28T10:06:03.972Z</time></trkpt><trkpt lat="44.48569" lon="11.0372723"><ele>97.66666666666666</ele><time>2026-03-28T10:06:04.959Z</time></trkpt><trkpt lat="44.485568" lon="11.0371043"><ele>97.33333333333334</ele><time>2026-03-28T10:06:05.958Z</time></trkpt><trkpt lat="44.4854507" lon="11.0369449"><ele>97.0</ele><time>2026-03-28T10:06:06.956Z</time></trkpt><trkpt lat="44.485341" lon="11.0367952"><ele>97.5</ele><time>2026-03-28T10:06:07.988Z</time></trkpt><trkpt lat="44.4852422" lon="11.0366613"><ele>98.0</ele><time>2026-03-28T10:06:08.986Z</time></trkpt><trkpt lat="44.4851473" lon="11.0365388"><ele>98.5</ele><time>2026-03-28T10:06:09.966Z</time></trkpt><trkpt lat="44.4850524" lon="11.0364163"><ele>99.0</ele><time>2026-03-28T10:06:10.971Z</time></trkpt><trkpt lat="44.4849605" lon="11.0362942"><ele>99.25</ele><time>2026-03-28T10:06:11.955Z</time></trkpt><trkpt lat="44.4848627" lon="11.0361678"><ele>99.5</ele><time>2026-03-28T10:06:12.969Z</time></trkpt><trkpt lat="44.4847655" lon="11.0360431"><ele>99.75</ele><time>2026-03-28T10:06:13.981Z</time></trkpt><trkpt lat="44.484671" lon="11.0359217"><ele>100.0</ele><time>2026-03-28T10:06:14.977Z</time></trkpt><trkpt lat="44.4845804" lon="11.0357993"><ele>100.0</ele><time>2026-03-28T10:06:15.966Z</time></trkpt><trkpt lat="44.4844897" lon="11.0356762"><ele>100.0</ele><time>2026-03-28T10:06:16.963Z</time></trkpt><trkpt lat="44.4844023" lon="11.0355636"><ele>100.0</ele><time>2026-03-28T10:06:17.989Z</time></trkpt><trkpt lat="44.4843316" lon="11.035466"><ele>100.0</ele><time>2026-03-28T10:06:18.967Z</time></trkpt><trkpt lat="44.4842674" lon="11.0353735"><ele>100.0</ele><time>2026-03-28T10:06:19.977Z</time></trkpt><trkpt lat="44.4842011" lon="11.0352815"><ele>100.0</ele><time>2026-03-28T10:06:20.963Z</time></trkpt><trkpt lat="44.4841171" lon="11.0351754"><ele>100.0</ele><time>2026-03-28T10:06:21.991Z</time></trkpt><trkpt lat="44.4840101" lon="11.035046"><ele>100.0</ele><time>2026-03-28T10:06:22.973Z</time></trkpt><trkpt lat="44.4838891" lon="11.0348954"><ele>100.0</ele><time>2026-03-28T10:06:23.968Z</time></trkpt><trkpt lat="44.4837704" lon="11.0347487"><ele>100.0</ele><time>2026-03-28T10:06:24.981Z</time></trkpt><trkpt lat="44.4836598" lon="11.0346233"><ele>100.0</ele><time>2026-03-28T10:06:25.96Z</time></trkpt><trkpt lat="44.4835531" lon="11.0345198"><ele>100.0</ele><time>2026-03-28T10:06:26.977Z</time></trkpt><trkpt lat="44.4834418" lon="11.0344336"><ele>100.0</ele><time>2026-03-28T10:06:27.972Z</time></trkpt><trkpt lat="44.483328" lon="11.0343549"><ele>100.0</ele><time>2026-03-28T10:06:28.969Z</time></trkpt><trkpt lat="44.4832095" lon="11.0342953"><ele>100.0</ele><time>2026-03-28T10:06:29.96Z</time></trkpt><trkpt lat="44.4830866" lon="11.0342504"><ele>100.0</ele><time>2026-03-28T10:06:30.955Z</time></trkpt><trkpt lat="44.4829578" lon="11.0342108"><ele>100.0</ele><time>2026-03-28T10:06:31.971Z</time></trkpt><trkpt lat="44.4828333" lon="11.0341819"><ele>100.5</ele><time>2026-03-28T10:06:32.973Z</time></trkpt><trkpt lat="44.4827076" lon="11.0341625"><ele>101.0</ele><time>2026-03-28T10:06:33.962Z</time></trkpt><trkpt lat="44.4825859" lon="11.0341492"><ele>101.5</ele><time>2026-03-28T10:06:34.972Z</time></trkpt><trkpt lat="44.482465" lon="11.0341476"><ele>102.0</ele><time>2026-03-28T10:06:35.982Z</time></trkpt><trkpt lat="44.482344" lon="11.0341547"><ele>102.0</ele><time>2026-03-28T10:06:36.957Z</time></trkpt><trkpt lat="44.4822121" lon="11.0341618"><ele>102.0</ele><time>2026-03-28T10:06:37.989Z</time></trkpt><trkpt lat="44.4820832" lon="11.0341688"><ele>102.0</ele><time>2026-03-28T10:06:38.962Z</time></trkpt><trkpt lat="44.4819493" lon="11.0341723"><ele>102.0</ele><time>2026-03-28T10:06:39.984Z</time></trkpt><trkpt lat="44.4818255" lon="11.0341728"><ele>102.39999999999999</ele><time>2026-03-28T10:06:40.98Z</time></trkpt><trkpt lat="44.4817126" lon="11.0341768"><ele>102.8</ele><time>2026-03-28T10:06:41.961Z</time></trkpt><trkpt lat="44.4816049" lon="11.0341827"><ele>103.2</ele><time>2026-03-28T10:06:42.969Z</time></trkpt><trkpt lat="44.4815043" lon="11.0341877"><ele>103.6</ele><time>2026-03-28T10:06:43.969Z</time></trkpt><trkpt lat="44.4814078" lon="11.0341906"><ele>104.0</ele><time>2026-03-28T10:06:44.97Z</time></trkpt><trkpt lat="44.4813086" lon="11.0341917"><ele>104.16666666666666</ele><time>2026-03-28T10:06:45.982Z</time></trkpt><trkpt lat="44.4812126" lon="11.034198"><ele>104.33333333333333</ele><time>2026-03-28T10:06:46.986Z</time></trkpt><trkpt lat="44.4811192" lon="11.0341967"><ele>104.5</ele><time>2026-03-28T10:06:47.978Z</time></trkpt><trkpt lat="44.4810322" lon="11.0341974"><ele>104.66666666666666</ele><time>2026-03-28T10:06:48.988Z</time></trkpt><trkpt lat="44.4809554" lon="11.0341974"><ele>104.83333333333333</ele><time>2026-03-28T10:06:49.957Z</time></trkpt><trkpt lat="44.4808839" lon="11.0341983"><ele>105.0</ele><time>2026-03-28T10:06:50.981Z</time></trkpt><trkpt lat="44.480768" lon="11.0341982"><ele>105.0</ele><time>2026-03-28T10:06:52.972Z</time></trkpt><trkpt lat="44.4806532" lon="11.0342063"><ele>105.0</ele><time>2026-03-28T10:06:54.962Z</time></trkpt><trkpt lat="44.480589" lon="11.0342075"><ele>105.0</ele><time>2026-03-28T10:06:55.962Z</time></trkpt><trkpt lat="44.4805128" lon="11.0342085"><ele>105.0</ele><time>2026-03-28T10:06:56.967Z</time></trkpt><trkpt lat="44.4804245" lon="11.0342093"><ele>105.0</ele><time>2026-03-28T10:06:57.99Z</time></trkpt><trkpt lat="44.4803301" lon="11.0342153"><ele>105.0</ele><time>2026-03-28T10:06:58.96Z</time></trkpt><trkpt lat="44.4802287" lon="11.0342204"><ele>105.4</ele><time>2026-03-28T10:06:59.971Z</time></trkpt><trkpt lat="44.480125" lon="11.0342167"><ele>105.8</ele><time>2026-03-28T10:07:00.976Z</time></trkpt><trkpt lat="44.4800237" lon="11.0342105"><ele>106.19999999999999</ele><time>2026-03-28T10:07:01.971Z</time></trkpt><trkpt lat="44.4799253" lon="11.0342024"><ele>106.6</ele><time>2026-03-28T10:07:02.971Z</time></trkpt><trkpt lat="44.4798272" lon="11.0341932"><ele>107.0</ele><time>2026-03-28T10:07:03.985Z</time></trkpt><trkpt lat="44.4797316" lon="11.0341793"><ele>107.0</ele><time>2026-03-28T10:07:04.966Z</time></trkpt><trkpt lat="44.4796318" lon="11.0341619"><ele>106.99999999999999</ele><time>2026-03-28T10:07:05.976Z</time></trkpt><trkpt lat="44.4795372" lon="11.0341358"><ele>106.99999999999999</ele><time>2026-03-28T10:07:06.966Z</time></trkpt><trkpt lat="44.4794368" lon="11.0341021"><ele>107.0</ele><time>2026-03-28T10:07:07.962Z</time></trkpt><trkpt lat="44.4793341" lon="11.0340674"><ele>107.0</ele><time>2026-03-28T10:07:08.954Z</time></trkpt><trkpt lat="44.4792186" lon="11.0340222"><ele>106.75</ele><time>2026-03-28T10:07:09.975Z</time></trkpt><trkpt lat="44.4790997" lon="11.0339684"><ele>106.5</ele><time>2026-03-28T10:07:10.97Z</time></trkpt><trkpt lat="44.47898" lon="11.0339063"><ele>106.25</ele><time>2026-03-28T10:07:11.956Z</time></trkpt><trkpt lat="44.4788489" lon="11.0338377"><ele>106.0</ele><time>2026-03-28T10:07:12.982Z</time></trkpt><trkpt lat="44.4787215" lon="11.0337533"><ele>106.75</ele><time>2026-03-28T10:07:13.984Z</time></trkpt><trkpt lat="44.4786037" lon="11.0336512"><ele>107.5</ele><time>2026-03-28T10:07:14.973Z</time></trkpt><trkpt lat="44.4784886" lon="11.0335445"><ele>108.25</ele><time>2026-03-28T10:07:15.968Z</time></trkpt><trkpt lat="44.4783737" lon="11.0334334"><ele>109.0</ele><time>2026-03-28T10:07:16.958Z</time></trkpt><trkpt lat="44.4782594" lon="11.0333137"><ele>108.75</ele><time>2026-03-28T10:07:17.966Z</time></trkpt><trkpt lat="44.4781453" lon="11.0331994"><ele>108.5</ele><time>2026-03-28T10:07:18.963Z</time></trkpt><trkpt lat="44.4780304" lon="11.0330836"><ele>108.25</ele><time>2026-03-28T10:07:19.97Z</time></trkpt><trkpt lat="44.4779193" lon="11.0329707"><ele>108.0</ele><time>2026-03-28T10:07:20.974Z</time></trkpt><trkpt lat="44.4778095" lon="11.0328626"><ele>108.5</ele><time>2026-03-28T10:07:21.971Z</time></trkpt><trkpt lat="44.4777007" lon="11.03275"><ele>109.0</ele><time>2026-03-28T10:07:22.962Z</time></trkpt><trkpt lat="44.4775829" lon="11.0326295"><ele>109.5</ele><time>2026-03-28T10:07:23.962Z</time></trkpt><trkpt lat="44.477468" lon="11.0325147"><ele>110.0</ele><time>2026-03-28T10:07:24.958Z</time></trkpt><trkpt lat="44.4773457" lon="11.032398"><ele>110.0</ele><time>2026-03-28T10:07:25.967Z</time></trkpt><trkpt lat="44.4772189" lon="11.0322826"><ele>110.0</ele><time>2026-03-28T10:07:26.985Z</time></trkpt><trkpt lat="44.4770976" lon="11.0321712"><ele>110.0</ele><time>2026-03-28T10:07:27.957Z</time></trkpt><trkpt lat="44.4769688" lon="11.0320465"><ele>110.33333333333333</ele><time>2026-03-28T10:07:28.968Z</time></trkpt><trkpt lat="44.4768398" lon="11.0318986"><ele>110.66666666666666</ele><time>2026-03-28T10:07:30.007Z</time></trkpt><trkpt lat="44.4767189" lon="11.0317688"><ele>111.0</ele><time>2026-03-28T10:07:30.953Z</time></trkpt><trkpt lat="44.476589" lon="11.0316384"><ele>111.0</ele><time>2026-03-28T10:07:31.971Z</time></trkpt><trkpt lat="44.4764645" lon="11.0315119"><ele>111.0</ele><time>2026-03-28T10:07:32.971Z</time></trkpt><trkpt lat="44.4763448" lon="11.0313961"><ele>111.0</ele><time>2026-03-28T10:07:33.974Z</time></trkpt><trkpt lat="44.4762224" lon="11.0312708"><ele>111.0</ele><time>2026-03-28T10:07:34.982Z</time></trkpt><trkpt lat="44.4761004" lon="11.0311495"><ele>111.0</ele><time>2026-03-28T10:07:35.977Z</time></trkpt><trkpt lat="44.4759769" lon="11.0310244"><ele>111.0</ele><time>2026-03-28T10:07:36.968Z</time></trkpt><trkpt lat="44.4758505" lon="11.030897"><ele>111.66666666666666</ele><time>2026-03-28T10:07:37.993Z</time></trkpt><trkpt lat="44.475718" lon="11.0307688"><ele>112.33333333333333</ele><time>2026-03-28T10:07:38.992Z</time></trkpt><trkpt lat="44.4755832" lon="11.0306354"><ele>113.0</ele><time>2026-03-28T10:07:39.977Z</time></trkpt><trkpt lat="44.4754466" lon="11.0304997"><ele>113.0</ele><time>2026-03-28T10:07:40.982Z</time></trkpt><trkpt lat="44.4753158" lon="11.0303685"><ele>113.0</ele><time>2026-03-28T10:07:41.975Z</time></trkpt><trkpt lat="44.475182" lon="11.0302369"><ele>113.0</ele><time>2026-03-28T10:07:42.971Z</time></trkpt><trkpt lat="44.4750447" lon="11.030104"><ele>112.33333333333333</ele><time>2026-03-28T10:07:43.97Z</time></trkpt><trkpt lat="44.4749031" lon="11.0299678"><ele>111.66666666666666</ele><time>2026-03-28T10:07:44.975Z</time></trkpt><trkpt lat="44.4747673" lon="11.0298266"><ele>111.0</ele><time>2026-03-28T10:07:45.954Z</time></trkpt><trkpt lat="44.4746271" lon="11.0296827"><ele>111.33333333333334</ele><time>2026-03-28T10:07:46.979Z</time></trkpt><trkpt lat="44.4744924" lon="11.0295469"><ele>111.66666666666667</ele><time>2026-03-28T10:07:47.986Z</time></trkpt><trkpt lat="44.4743606" lon="11.0294188"><ele>112.0</ele><time>2026-03-28T10:07:48.985Z</time></trkpt><trkpt lat="44.4742313" lon="11.0292904"><ele>112.0</ele><time>2026-03-28T10:07:49.977Z</time></trkpt><trkpt lat="44.4741031" lon="11.0291597"><ele>112.0</ele><time>2026-03-28T10:07:50.972Z</time></trkpt><trkpt lat="44.4739724" lon="11.0290305"><ele>112.0</ele><time>2026-03-28T10:07:51.975Z</time></trkpt><trkpt lat="44.4738459" lon="11.0289071"><ele>113.0</ele><time>2026-03-28T10:07:52.959Z</time></trkpt><trkpt lat="44.4737156" lon="11.0287825"><ele>114.0</ele><time>2026-03-28T10:07:53.968Z</time></trkpt><trkpt lat="44.4735852" lon="11.0286492"><ele>115.0</ele><time>2026-03-28T10:07:54.975Z</time></trkpt><trkpt lat="44.4734606" lon="11.0285178"><ele>115.0</ele><time>2026-03-28T10:07:55.964Z</time></trkpt><trkpt lat="44.4733364" lon="11.028383"><ele>115.0</ele><time>2026-03-28T10:07:56.97Z</time></trkpt><trkpt lat="44.4732112" lon="11.0282304"><ele>115.0</ele><time>2026-03-28T10:07:57.954Z</time></trkpt><trkpt lat="44.4730784" lon="11.0280501"><ele>115.0</ele><time>2026-03-28T10:07:58.98Z</time></trkpt><trkpt lat="44.4729536" lon="11.0278699"><ele>115.0</ele><time>2026-03-28T10:07:59.969Z</time></trkpt><trkpt lat="44.4728314" lon="11.0276817"><ele>115.0</ele><time>2026-03-28T10:08:00.952Z</time></trkpt><trkpt lat="44.4727048" lon="11.027491"><ele>115.0</ele><time>2026-03-28T10:08:01.95Z</time></trkpt><trkpt lat="44.4725809" lon="11.027309"><ele>115.0</ele><time>2026-03-28T10:08:02.974Z</time></trkpt><trkpt lat="44.4724598" lon="11.0271256"><ele>115.0</ele><time>2026-03-28T10:08:03.984Z</time></trkpt><trkpt lat="44.4723429" lon="11.0269479"><ele>115.0</ele><time>2026-03-28T10:08:04.963Z</time></trkpt><trkpt lat="44.4722221" lon="11.0267665"><ele>115.0</ele><time>2026-03-28T10:08:05.977Z</time></trkpt><trkpt lat="44.4721028" lon="11.0265884"><ele>115.0</ele><time>2026-03-28T10:08:06.97Z</time></trkpt><trkpt lat="44.4719801" lon="11.0264058"><ele>114.33333333333334</ele><time>2026-03-28T10:08:07.982Z</time></trkpt><trkpt lat="44.4718611" lon="11.0262271"><ele>113.66666666666666</ele><time>2026-03-28T10:08:08.962Z</time></trkpt><trkpt lat="44.4717379" lon="11.0260456"><ele>113.0</ele><time>2026-03-28T10:08:09.975Z</time></trkpt><trkpt lat="44.4716207" lon="11.02587"><ele>112.66666666666666</ele><time>2026-03-28T10:08:10.963Z</time></trkpt><trkpt lat="44.4714958" lon="11.025685"><ele>112.33333333333334</ele><time>2026-03-28T10:08:12.003Z</time></trkpt><trkpt lat="44.4713852" lon="11.0255177"><ele>112.0</ele><time>2026-03-28T10:08:12.953Z</time></trkpt><trkpt lat="44.4712631" lon="11.0253362"><ele>113.66666666666667</ele><time>2026-03-28T10:08:13.968Z</time></trkpt><trkpt lat="44.4711455" lon="11.0251582"><ele>115.33333333333334</ele><time>2026-03-28T10:08:14.964Z</time></trkpt><trkpt lat="44.4710258" lon="11.0249796"><ele>117.0</ele><time>2026-03-28T10:08:15.962Z</time></trkpt><trkpt lat="44.4709033" lon="11.0247961"><ele>117.0</ele><time>2026-03-28T10:08:16.992Z</time></trkpt><trkpt lat="44.4707834" lon="11.0246226"><ele>117.0</ele><time>2026-03-28T10:08:17.977Z</time></trkpt><trkpt lat="44.4706669" lon="11.0244517"><ele>117.0</ele><time>2026-03-28T10:08:18.975Z</time></trkpt><trkpt lat="44.4705521" lon="11.0242779"><ele>117.66666666666666</ele><time>2026-03-28T10:08:19.979Z</time></trkpt><trkpt lat="44.4704394" lon="11.0241119"><ele>118.33333333333333</ele><time>2026-03-28T10:08:20.958Z</time></trkpt><trkpt lat="44.4703277" lon="11.0239448"><ele>119.0</ele><time>2026-03-28T10:08:21.963Z</time></trkpt><trkpt lat="44.4702169" lon="11.0237729"><ele>119.0</ele><time>2026-03-28T10:08:22.972Z</time></trkpt><trkpt lat="44.4701124" lon="11.0235942"><ele>119.0</ele><time>2026-03-28T10:08:23.947Z</time></trkpt><trkpt lat="44.4700092" lon="11.0233915"><ele>119.0</ele><time>2026-03-28T10:08:24.982Z</time></trkpt><trkpt lat="44.469919" lon="11.0231871"><ele>119.33333333333333</ele><time>2026-03-28T10:08:25.955Z</time></trkpt><trkpt lat="44.4698333" lon="11.0229688"><ele>119.66666666666666</ele><time>2026-03-28T10:08:26.971Z</time></trkpt><trkpt lat="44.4697564" lon="11.0227494"><ele>120.0</ele><time>2026-03-28T10:08:27.978Z</time></trkpt><trkpt lat="44.4697044" lon="11.0225275"><ele>120.33333333333334</ele><time>2026-03-28T10:08:28.949Z</time></trkpt><trkpt lat="44.4696616" lon="11.0222936"><ele>120.66666666666667</ele><time>2026-03-28T10:08:29.965Z</time></trkpt><trkpt lat="44.4696275" lon="11.022061"><ele>121.0</ele><time>2026-03-28T10:08:30.984Z</time></trkpt><trkpt lat="44.4695935" lon="11.0218366"><ele>120.33333333333334</ele><time>2026-03-28T10:08:31.979Z</time></trkpt><trkpt lat="44.4695566" lon="11.021608"><ele>119.66666666666666</ele><time>2026-03-28T10:08:32.977Z</time></trkpt><trkpt lat="44.4695185" lon="11.0213877"><ele>119.0</ele><time>2026-03-28T10:08:33.956Z</time></trkpt><trkpt lat="44.4694789" lon="11.0211576"><ele>119.0</ele><time>2026-03-28T10:08:34.956Z</time></trkpt><trkpt lat="44.46944" lon="11.0209249"><ele>119.0</ele><time>2026-03-28T10:08:35.962Z</time></trkpt><trkpt lat="44.469402" lon="11.0206947"><ele>119.0</ele><time>2026-03-28T10:08:36.965Z</time></trkpt><trkpt lat="44.469363" lon="11.0204724"><ele>119.33333333333333</ele><time>2026-03-28T10:08:37.978Z</time></trkpt><trkpt lat="44.469324" lon="11.0202438"><ele>119.66666666666666</ele><time>2026-03-28T10:08:38.988Z</time></trkpt><trkpt lat="44.4692867" lon="11.0200205"><ele>120.0</ele><time>2026-03-28T10:08:39.981Z</time></trkpt><trkpt lat="44.469252" lon="11.0198035"><ele>120.25</ele><time>2026-03-28T10:08:40.976Z</time></trkpt><trkpt lat="44.4692211" lon="11.0195977"><ele>120.5</ele><time>2026-03-28T10:08:41.976Z</time></trkpt><trkpt lat="44.4691824" lon="11.0194038"><ele>120.75</ele><time>2026-03-28T10:08:42.955Z</time></trkpt><trkpt lat="44.46913" lon="11.0192103"><ele>121.0</ele><time>2026-03-28T10:08:43.967Z</time></trkpt><trkpt lat="44.469056" lon="11.0190263"><ele>118.66666666666667</ele><time>2026-03-28T10:08:44.958Z</time></trkpt><trkpt lat="44.4689503" lon="11.0188552"><ele>116.33333333333334</ele><time>2026-03-28T10:08:45.95Z</time></trkpt><trkpt lat="44.468816" lon="11.0187173"><ele>114.0</ele><time>2026-03-28T10:08:46.95Z</time></trkpt><trkpt lat="44.4686597" lon="11.0186173"><ele>114.0</ele><time>2026-03-28T10:08:47.95Z</time></trkpt><trkpt lat="44.4685216" lon="11.0185353"><ele>114.0</ele><time>2026-03-28T10:08:48.965Z</time></trkpt><trkpt lat="44.468401" lon="11.0184602"><ele>114.0</ele><time>2026-03-28T10:08:49.948Z</time></trkpt><trkpt lat="44.4682846" lon="11.0183809"><ele>114.0</ele><time>2026-03-28T10:08:50.957Z</time></trkpt><trkpt lat="44.4681786" lon="11.0183021"><ele>113.5</ele><time>2026-03-28T10:08:51.949Z</time></trkpt><trkpt lat="44.4680764" lon="11.0182237"><ele>113.0</ele><time>2026-03-28T10:08:52.956Z</time></trkpt><trkpt lat="44.4679783" lon="11.0181381"><ele>112.5</ele><time>2026-03-28T10:08:53.952Z</time></trkpt><trkpt lat="44.467877" lon="11.0180439"><ele>112.0</ele><time>2026-03-28T10:08:54.957Z</time></trkpt><trkpt lat="44.4677807" lon="11.0179447"><ele>113.25</ele><time>2026-03-28T10:08:55.953Z</time></trkpt><trkpt lat="44.467686" lon="11.0178395"><ele>114.5</ele><time>2026-03-28T10:08:56.963Z</time></trkpt><trkpt lat="44.467599" lon="11.0177339"><ele>115.75</ele><time>2026-03-28T10:08:57.953Z</time></trkpt><trkpt lat="44.4675147" lon="11.0176281"><ele>117.0</ele><time>2026-03-28T10:08:58.965Z</time></trkpt><trkpt lat="44.467432" lon="11.0175159"><ele>117.0</ele><time>2026-03-28T10:08:59.957Z</time></trkpt><trkpt lat="44.4673464" lon="11.0174025"><ele>117.0</ele><time>2026-03-28T10:09:00.963Z</time></trkpt><trkpt lat="44.4672562" lon="11.0172803"><ele>117.0</ele><time>2026-03-28T10:09:01.959Z</time></trkpt><trkpt lat="44.467159" lon="11.0171401"><ele>117.0</ele><time>2026-03-28T10:09:02.968Z</time></trkpt><trkpt lat="44.4670649" lon="11.0169995"><ele>117.0</ele><time>2026-03-28T10:09:03.978Z</time></trkpt><trkpt lat="44.4669766" lon="11.0168611"><ele>117.0</ele><time>2026-03-28T10:09:04.969Z</time></trkpt><trkpt lat="44.4668912" lon="11.0167233"><ele>117.0</ele><time>2026-03-28T10:09:05.968Z</time></trkpt><trkpt lat="44.466807" lon="11.0165803"><ele>117.0</ele><time>2026-03-28T10:09:06.98Z</time></trkpt><trkpt lat="44.4667315" lon="11.0164408"><ele>117.0</ele><time>2026-03-28T10:09:07.967Z</time></trkpt><trkpt lat="44.4666662" lon="11.0162904"><ele>117.0</ele><time>2026-03-28T10:09:08.954Z</time></trkpt><trkpt lat="44.4666006" lon="11.0161391"><ele>117.0</ele><time>2026-03-28T10:09:09.953Z</time></trkpt><trkpt lat="44.4665354" lon="11.0159731"><ele>117.0</ele><time>2026-03-28T10:09:10.956Z</time></trkpt><trkpt lat="44.4664671" lon="11.0158022"><ele>117.25</ele><time>2026-03-28T10:09:11.974Z</time></trkpt><trkpt lat="44.4664007" lon="11.0156337"><ele>117.5</ele><time>2026-03-28T10:09:12.946Z</time></trkpt><trkpt lat="44.466335" lon="11.0154632"><ele>117.75</ele><time>2026-03-28T10:09:13.963Z</time></trkpt><trkpt lat="44.4662669" lon="11.0152893"><ele>118.0</ele><time>2026-03-28T10:09:14.975Z</time></trkpt><trkpt lat="44.4661983" lon="11.0151182"><ele>117.5</ele><time>2026-03-28T10:09:15.97Z</time></trkpt><trkpt lat="44.4661346" lon="11.0149565"><ele>117.0</ele><time>2026-03-28T10:09:16.961Z</time></trkpt><trkpt lat="44.4660792" lon="11.0148077"><ele>116.5</ele><time>2026-03-28T10:09:17.964Z</time></trkpt><trkpt lat="44.4660255" lon="11.0146736"><ele>116.0</ele><time>2026-03-28T10:09:18.963Z</time></trkpt><trkpt lat="44.4659799" lon="11.0145448"><ele>115.99999999999999</ele><time>2026-03-28T10:09:19.949Z</time></trkpt><trkpt lat="44.465947" lon="11.0144169"><ele>116.0</ele><time>2026-03-28T10:09:20.967Z</time></trkpt><trkpt lat="44.4659322" lon="11.0142874"><ele>116.0</ele><time>2026-03-28T10:09:21.949Z</time></trkpt><trkpt lat="44.4659278" lon="11.0141694"><ele>116.0</ele><time>2026-03-28T10:09:22.959Z</time></trkpt><trkpt lat="44.4659144" lon="11.014068"><ele>115.99999999999999</ele><time>2026-03-28T10:09:23.959Z</time></trkpt><trkpt lat="44.4658788" lon="11.0139839"><ele>116.0</ele><time>2026-03-28T10:09:24.961Z</time></trkpt><trkpt lat="44.4658158" lon="11.013921"><ele>115.75</ele><time>2026-03-28T10:09:25.964Z</time></trkpt><trkpt lat="44.4657262" lon="11.0138504"><ele>115.5</ele><time>2026-03-28T10:09:26.97Z</time></trkpt><trkpt lat="44.4656075" lon="11.0137838"><ele>115.25</ele><time>2026-03-28T10:09:27.963Z</time></trkpt><trkpt lat="44.4654716" lon="11.0137033"><ele>115.0</ele><time>2026-03-28T10:09:28.978Z</time></trkpt><trkpt lat="44.4653414" lon="11.0136177"><ele>115.5</ele><time>2026-03-28T10:09:29.961Z</time></trkpt><trkpt lat="44.465202" lon="11.0135287"><ele>116.0</ele><time>2026-03-28T10:09:30.988Z</time></trkpt><trkpt lat="44.4650699" lon="11.0134486"><ele>116.5</ele><time>2026-03-28T10:09:31.982Z</time></trkpt><trkpt lat="44.4649463" lon="11.0133699"><ele>117.0</ele><time>2026-03-28T10:09:32.967Z</time></trkpt><trkpt lat="44.4648122" lon="11.0132852"><ele>117.0</ele><time>2026-03-28T10:09:33.988Z</time></trkpt><trkpt lat="44.4646814" lon="11.0132008"><ele>117.0</ele><time>2026-03-28T10:09:34.98Z</time></trkpt><trkpt lat="44.4645462" lon="11.0131173"><ele>117.0</ele><time>2026-03-28T10:09:36.003Z</time></trkpt><trkpt lat="44.4644102" lon="11.0130381"><ele>117.0</ele><time>2026-03-28T10:09:36.986Z</time></trkpt><trkpt lat="44.4642748" lon="11.0129576"><ele>118.5</ele><time>2026-03-28T10:09:37.982Z</time></trkpt><trkpt lat="44.4641442" lon="11.0128744"><ele>120.0</ele><time>2026-03-28T10:09:38.979Z</time></trkpt><trkpt lat="44.4640183" lon="11.0127802"><ele>121.5</ele><time>2026-03-28T10:09:39.97Z</time></trkpt><trkpt lat="44.4639012" lon="11.0126607"><ele>123.0</ele><time>2026-03-28T10:09:40.955Z</time></trkpt><trkpt lat="44.4637821" lon="11.0125033"><ele>122.0</ele><time>2026-03-28T10:09:41.972Z</time></trkpt><trkpt lat="44.4636676" lon="11.012327"><ele>121.0</ele><time>2026-03-28T10:09:42.983Z</time></trkpt><trkpt lat="44.4635616" lon="11.0121627"><ele>120.0</ele><time>2026-03-28T10:09:43.957Z</time></trkpt><trkpt lat="44.463454" lon="11.011994"><ele>120.0</ele><time>2026-03-28T10:09:44.956Z</time></trkpt><trkpt lat="44.4633489" lon="11.0118236"><ele>120.0</ele><time>2026-03-28T10:09:45.964Z</time></trkpt><trkpt lat="44.4632406" lon="11.0116593"><ele>120.0</ele><time>2026-03-28T10:09:46.972Z</time></trkpt><trkpt lat="44.4631315" lon="11.0114873"><ele>120.0</ele><time>2026-03-28T10:09:47.995Z</time></trkpt><trkpt lat="44.463026" lon="11.0113261"><ele>120.0</ele><time>2026-03-28T10:09:48.978Z</time></trkpt><trkpt lat="44.4629178" lon="11.0111612"><ele>120.0</ele><time>2026-03-28T10:09:49.985Z</time></trkpt><trkpt lat="44.462808" lon="11.0109907"><ele>120.33333333333334</ele><time>2026-03-28T10:09:51.007Z</time></trkpt><trkpt lat="44.4627052" lon="11.0108274"><ele>120.66666666666667</ele><time>2026-03-28T10:09:51.98Z</time></trkpt><trkpt lat="44.4625993" lon="11.0106584"><ele>121.0</ele><time>2026-03-28T10:09:52.972Z</time></trkpt><trkpt lat="44.4624874" lon="11.0104809"><ele>121.66666666666667</ele><time>2026-03-28T10:09:53.975Z</time></trkpt><trkpt lat="44.4623675" lon="11.0102927"><ele>122.33333333333334</ele><time>2026-03-28T10:09:54.989Z</time></trkpt><trkpt lat="44.4622418" lon="11.0100993"><ele>123.0</ele><time>2026-03-28T10:09:55.975Z</time></trkpt><trkpt lat="44.4621142" lon="11.0099033"><ele>124.0</ele><time>2026-03-28T10:09:56.953Z</time></trkpt><trkpt lat="44.4619844" lon="11.0097047"><ele>125.0</ele><time>2026-03-28T10:09:57.964Z</time></trkpt><trkpt lat="44.4618586" lon="11.0095115"><ele>126.0</ele><time>2026-03-28T10:09:58.961Z</time></trkpt><trkpt lat="44.4617322" lon="11.0093163"><ele>126.33333333333334</ele><time>2026-03-28T10:09:59.968Z</time></trkpt><trkpt lat="44.4616062" lon="11.0091253"><ele>126.66666666666667</ele><time>2026-03-28T10:10:00.973Z</time></trkpt><trkpt lat="44.4614801" lon="11.0089289"><ele>127.0</ele><time>2026-03-28T10:10:01.987Z</time></trkpt><trkpt lat="44.4613568" lon="11.0087348"><ele>127.33333333333334</ele><time>2026-03-28T10:10:02.987Z</time></trkpt><trkpt lat="44.4612363" lon="11.0085451"><ele>127.66666666666666</ele><time>2026-03-28T10:10:03.974Z</time></trkpt><trkpt lat="44.4611133" lon="11.0083513"><ele>128.0</ele><time>2026-03-28T10:10:04.97Z</time></trkpt><trkpt lat="44.4609865" lon="11.0081509"><ele>128.0</ele><time>2026-03-28T10:10:05.984Z</time></trkpt><trkpt lat="44.4608574" lon="11.0079506"><ele>128.0</ele><time>2026-03-28T10:10:06.977Z</time></trkpt><trkpt lat="44.4607302" lon="11.0077512"><ele>128.0</ele><time>2026-03-28T10:10:07.964Z</time></trkpt><trkpt lat="44.4606017" lon="11.0075515"><ele>127.66666666666666</ele><time>2026-03-28T10:10:08.964Z</time></trkpt><trkpt lat="44.4604723" lon="11.0073533"><ele>127.33333333333334</ele><time>2026-03-28T10:10:09.974Z</time></trkpt><trkpt lat="44.4603475" lon="11.007166"><ele>127.0</ele><time>2026-03-28T10:10:10.969Z</time></trkpt><trkpt lat="44.4602274" lon="11.0069806"><ele>128.0</ele><time>2026-03-28T10:10:11.95Z</time></trkpt><trkpt lat="44.4601074" lon="11.0067855"><ele>129.0</ele><time>2026-03-28T10:10:12.983Z</time></trkpt><trkpt lat="44.4599921" lon="11.0065973"><ele>130.0</ele><time>2026-03-28T10:10:13.988Z</time></trkpt><trkpt lat="44.4598841" lon="11.0064082"><ele>130.66666666666669</ele><time>2026-03-28T10:10:14.982Z</time></trkpt><trkpt lat="44.4597827" lon="11.0062232"><ele>131.33333333333334</ele><time>2026-03-28T10:10:15.972Z</time></trkpt><trkpt lat="44.4596898" lon="11.0060393"><ele>132.0</ele><time>2026-03-28T10:10:16.952Z</time></trkpt><trkpt lat="44.4595976" lon="11.0058522"><ele>132.25</ele><time>2026-03-28T10:10:17.969Z</time></trkpt><trkpt lat="44.4595126" lon="11.0056777"><ele>132.5</ele><time>2026-03-28T10:10:18.957Z</time></trkpt><trkpt lat="44.4594272" lon="11.005504"><ele>132.75</ele><time>2026-03-28T10:10:19.965Z</time></trkpt><trkpt lat="44.459344" lon="11.0053369"><ele>133.0</ele><time>2026-03-28T10:10:20.964Z</time></trkpt><trkpt lat="44.4592619" lon="11.0051738"><ele>133.0</ele><time>2026-03-28T10:10:21.976Z</time></trkpt><trkpt lat="44.4591844" lon="11.0050146"><ele>133.0</ele><time>2026-03-28T10:10:22.966Z</time></trkpt><trkpt lat="44.4591103" lon="11.0048584"><ele>133.0</ele><time>2026-03-28T10:10:23.973Z</time></trkpt><trkpt lat="44.4590367" lon="11.0047081"><ele>133.0</ele><time>2026-03-28T10:10:24.963Z</time></trkpt><trkpt lat="44.4589644" lon="11.0045602"><ele>133.75</ele><time>2026-03-28T10:10:25.973Z</time></trkpt><trkpt lat="44.4588939" lon="11.0044151"><ele>134.5</ele><time>2026-03-28T10:10:26.969Z</time></trkpt><trkpt lat="44.4588229" lon="11.004268"><ele>135.25</ele><time>2026-03-28T10:10:27.972Z</time></trkpt><trkpt lat="44.4587522" lon="11.0041255"><ele>136.0</ele><time>2026-03-28T10:10:28.962Z</time></trkpt><trkpt lat="44.4586785" lon="11.0039801"><ele>136.75</ele><time>2026-03-28T10:10:29.98Z</time></trkpt><trkpt lat="44.4586087" lon="11.0038366"><ele>137.5</ele><time>2026-03-28T10:10:30.985Z</time></trkpt><trkpt lat="44.4585411" lon="11.0036993"><ele>138.25</ele><time>2026-03-28T10:10:31.962Z</time></trkpt><trkpt lat="44.4584719" lon="11.0035594"><ele>139.0</ele><time>2026-03-28T10:10:32.986Z</time></trkpt><trkpt lat="44.4584069" lon="11.0034288"><ele>139.2</ele><time>2026-03-28T10:10:33.972Z</time></trkpt><trkpt lat="44.4583438" lon="11.0033006"><ele>139.4</ele><time>2026-03-28T10:10:34.963Z</time></trkpt><trkpt lat="44.458281" lon="11.00318"><ele>139.6</ele><time>2026-03-28T10:10:35.969Z</time></trkpt><trkpt lat="44.4582195" lon="11.0030554"><ele>139.8</ele><time>2026-03-28T10:10:36.978Z</time></trkpt><trkpt lat="44.4581592" lon="11.0029344"><ele>140.0</ele><time>2026-03-28T10:10:37.952Z</time></trkpt><trkpt lat="44.4580937" lon="11.0027962"><ele>140.0</ele><time>2026-03-28T10:10:38.98Z</time></trkpt><trkpt lat="44.4580328" lon="11.0026597"><ele>140.0</ele><time>2026-03-28T10:10:39.988Z</time></trkpt><trkpt lat="44.4579764" lon="11.0025222"><ele>140.0</ele><time>2026-03-28T10:10:40.975Z</time></trkpt><trkpt lat="44.457924" lon="11.0023843"><ele>140.0</ele><time>2026-03-28T10:10:41.968Z</time></trkpt><trkpt lat="44.4578733" lon="11.0022419"><ele>140.0</ele><time>2026-03-28T10:10:42.957Z</time></trkpt><trkpt lat="44.4578244" lon="11.0020957"><ele>140.0</ele><time>2026-03-28T10:10:43.983Z</time></trkpt><trkpt lat="44.4577778" lon="11.0019494"><ele>140.0</ele><time>2026-03-28T10:10:44.964Z</time></trkpt><trkpt lat="44.45773" lon="11.0017957"><ele>140.0</ele><time>2026-03-28T10:10:45.961Z</time></trkpt><trkpt lat="44.457677" lon="11.0016224"><ele>139.0</ele><time>2026-03-28T10:10:46.956Z</time></trkpt><trkpt lat="44.4576155" lon="11.0014273"><ele>138.0</ele><time>2026-03-28T10:10:47.973Z</time></trkpt><trkpt lat="44.4575421" lon="11.0012056"><ele>137.0</ele><time>2026-03-28T10:10:48.967Z</time></trkpt><trkpt lat="44.4574597" lon="11.0009542"><ele>136.0</ele><time>2026-03-28T10:10:49.967Z</time></trkpt><trkpt lat="44.4573707" lon="11.0006819"><ele>135.0</ele><time>2026-03-28T10:10:50.971Z</time></trkpt><trkpt lat="44.457273" lon="11.0003771"><ele>135.0</ele><time>2026-03-28T10:10:51.991Z</time></trkpt><trkpt lat="44.4571735" lon="11.000046"><ele>135.0</ele><time>2026-03-28T10:10:52.987Z</time></trkpt><trkpt lat="44.4570653" lon="10.999692"><ele>134.0</ele><time>2026-03-28T10:10:53.971Z</time></trkpt><trkpt lat="44.4569441" lon="10.9993042"><ele>133.0</ele><time>2026-03-28T10:10:54.975Z</time></trkpt><trkpt lat="44.4568176" lon="10.9988878"><ele>132.5</ele><time>2026-03-28T10:10:55.988Z</time></trkpt><trkpt lat="44.4566997" lon="10.998485"><ele>132.0</ele><time>2026-03-28T10:10:56.959Z</time></trkpt><trkpt lat="44.4565894" lon="10.9980928"><ele>132.0</ele><time>2026-03-28T10:10:57.946Z</time></trkpt><trkpt lat="44.4564765" lon="10.9977095"><ele>132.0</ele><time>2026-03-28T10:10:58.962Z</time></trkpt><trkpt lat="44.456367" lon="10.9973436"><ele>132.5</ele><time>2026-03-28T10:10:59.955Z</time></trkpt><trkpt lat="44.456254" lon="10.9969692"><ele>133.0</ele><time>2026-03-28T10:11:00.965Z</time></trkpt><trkpt lat="44.4561403" lon="10.9965943"><ele>133.0</ele><time>2026-03-28T10:11:01.983Z</time></trkpt><trkpt lat="44.4560259" lon="10.9962242"><ele>133.0</ele><time>2026-03-28T10:11:02.965Z</time></trkpt><trkpt lat="44.4559064" lon="10.9958313"><ele>132.5</ele><time>2026-03-28T10:11:03.972Z</time></trkpt><trkpt lat="44.4557833" lon="10.99543"><ele>132.0</ele><time>2026-03-28T10:11:04.981Z</time></trkpt><trkpt lat="44.4556628" lon="10.9950368"><ele>131.0</ele><time>2026-03-28T10:11:05.968Z</time></trkpt><trkpt lat="44.4555338" lon="10.9946301"><ele>130.0</ele><time>2026-03-28T10:11:06.992Z</time></trkpt><trkpt lat="44.4554191" lon="10.9942494"><ele>132.5</ele><time>2026-03-28T10:11:07.978Z</time></trkpt><trkpt lat="44.455312" lon="10.9938902"><ele>135.0</ele><time>2026-03-28T10:11:08.968Z</time></trkpt><trkpt lat="44.4552071" lon="10.9935497"><ele>135.5</ele><time>2026-03-28T10:11:09.969Z</time></trkpt><trkpt lat="44.4551092" lon="10.9932295"><ele>136.0</ele><time>2026-03-28T10:11:10.952Z</time></trkpt><trkpt lat="44.455011" lon="10.9929112"><ele>136.0</ele><time>2026-03-28T10:11:11.969Z</time></trkpt><trkpt lat="44.4549181" lon="10.992607"><ele>136.0</ele><time>2026-03-28T10:11:12.967Z</time></trkpt><trkpt lat="44.4548255" lon="10.9923086"><ele>136.0</ele><time>2026-03-28T10:11:13.963Z</time></trkpt><trkpt lat="44.4547297" lon="10.992001"><ele>136.0</ele><time>2026-03-28T10:11:14.984Z</time></trkpt><trkpt lat="44.4546367" lon="10.9917049"><ele>139.0</ele><time>2026-03-28T10:11:15.967Z</time></trkpt><trkpt lat="44.4545443" lon="10.9914088"><ele>142.0</ele><time>2026-03-28T10:11:16.962Z</time></trkpt><trkpt lat="44.4544503" lon="10.9911044"><ele>140.5</ele><time>2026-03-28T10:11:17.994Z</time></trkpt><trkpt lat="44.454362" lon="10.990817"><ele>139.0</ele><time>2026-03-28T10:11:18.974Z</time></trkpt><trkpt lat="44.4542713" lon="10.9905252"><ele>139.0</ele><time>2026-03-28T10:11:19.976Z</time></trkpt><trkpt lat="44.4541788" lon="10.9902397"><ele>139.0</ele><time>2026-03-28T10:11:20.968Z</time></trkpt><trkpt lat="44.4540901" lon="10.989951"><ele>139.0</ele><time>2026-03-28T10:11:21.976Z</time></trkpt><trkpt lat="44.4540035" lon="10.9896662"><ele>139.66666666666669</ele><time>2026-03-28T10:11:22.993Z</time></trkpt><trkpt lat="44.4539213" lon="10.9893953"><ele>140.33333333333334</ele><time>2026-03-28T10:11:23.973Z</time></trkpt><trkpt lat="44.4538378" lon="10.9891251"><ele>141.0</ele><time>2026-03-28T10:11:24.966Z</time></trkpt><trkpt lat="44.4537589" lon="10.9888593"><ele>143.0</ele><time>2026-03-28T10:11:25.969Z</time></trkpt><trkpt lat="44.4536804" lon="10.9886017"><ele>145.0</ele><time>2026-03-28T10:11:26.973Z</time></trkpt><trkpt lat="44.4535998" lon="10.9883445"><ele>147.0</ele><time>2026-03-28T10:11:27.971Z</time></trkpt><trkpt lat="44.4535187" lon="10.9880819"><ele>147.33333333333334</ele><time>2026-03-28T10:11:28.974Z</time></trkpt><trkpt lat="44.4534391" lon="10.9878374"><ele>147.66666666666669</ele><time>2026-03-28T10:11:29.956Z</time></trkpt><trkpt lat="44.4533549" lon="10.9876075"><ele>148.0</ele><time>2026-03-28T10:11:30.959Z</time></trkpt><trkpt lat="44.4532611" lon="10.987383"><ele>148.33333333333334</ele><time>2026-03-28T10:11:31.984Z</time></trkpt><trkpt lat="44.4531638" lon="10.9871847"><ele>148.66666666666666</ele><time>2026-03-28T10:11:32.972Z</time></trkpt><trkpt lat="44.4530584" lon="10.9869977"><ele>149.0</ele><time>2026-03-28T10:11:33.967Z</time></trkpt><trkpt lat="44.4529489" lon="10.9867963"><ele>150.0</ele><time>2026-03-28T10:11:34.977Z</time></trkpt><trkpt lat="44.452785" lon="10.9866097"><ele>151.0</ele><time>2026-03-28T10:11:35.973Z</time></trkpt><trkpt lat="44.4525995" lon="10.9864461"><ele>152.0</ele><time>2026-03-28T10:11:36.961Z</time></trkpt><trkpt lat="44.4523147" lon="10.9864583"><ele>152.0</ele><time>2026-03-28T10:11:37.975Z</time></trkpt><trkpt lat="44.4521302" lon="10.9863386"><ele>152.0</ele><time>2026-03-28T10:11:38.966Z</time></trkpt><trkpt lat="44.4519786" lon="10.9862245"><ele>152.0</ele><time>2026-03-28T10:11:39.96Z</time></trkpt><trkpt lat="44.4518561" lon="10.9861021"><ele>154.0</ele><time>2026-03-28T10:11:40.97Z</time></trkpt><trkpt lat="44.4517471" lon="10.9859503"><ele>156.0</ele><time>2026-03-28T10:11:41.964Z</time></trkpt><trkpt lat="44.4516496" lon="10.9857874"><ele>158.0</ele><time>2026-03-28T10:11:42.966Z</time></trkpt><trkpt lat="44.451574" lon="10.9856445"><ele>160.0</ele><time>2026-03-28T10:11:43.967Z</time></trkpt><trkpt lat="44.4515139" lon="10.9855164"><ele>160.0</ele><time>2026-03-28T10:11:44.972Z</time></trkpt><trkpt lat="44.4514665" lon="10.9853842"><ele>160.0</ele><time>2026-03-28T10:11:45.978Z</time></trkpt><trkpt lat="44.4514555" lon="10.9852398"><ele>160.0</ele><time>2026-03-28T10:11:46.983Z</time></trkpt><trkpt lat="44.4514652" lon="10.9850407"><ele>160.0</ele><time>2026-03-28T10:11:47.959Z</time></trkpt><trkpt lat="44.45148" lon="10.9848294"><ele>159.0</ele><time>2026-03-28T10:11:48.963Z</time></trkpt><trkpt lat="44.4514943" lon="10.9846193"><ele>158.0</ele><time>2026-03-28T10:11:49.959Z</time></trkpt><trkpt lat="44.4515007" lon="10.9844038"><ele>157.0</ele><time>2026-03-28T10:11:50.978Z</time></trkpt><trkpt lat="44.4515042" lon="10.984195"><ele>156.75</ele><time>2026-03-28T10:11:51.972Z</time></trkpt><trkpt lat="44.4515078" lon="10.9839955"><ele>156.5</ele><time>2026-03-28T10:11:52.959Z</time></trkpt><trkpt lat="44.4515139" lon="10.9837919"><ele>156.25</ele><time>2026-03-28T10:11:53.979Z</time></trkpt><trkpt lat="44.4515151" lon="10.9836037"><ele>156.0</ele><time>2026-03-28T10:11:54.962Z</time></trkpt><trkpt lat="44.4515123" lon="10.983413"><ele>155.5</ele><time>2026-03-28T10:11:55.956Z</time></trkpt><trkpt lat="44.4515033" lon="10.9832131"><ele>155.0</ele><time>2026-03-28T10:11:56.968Z</time></trkpt><trkpt lat="44.45149" lon="10.9830081"><ele>154.5</ele><time>2026-03-28T10:11:57.96Z</time></trkpt><trkpt lat="44.451476" lon="10.982787"><ele>154.0</ele><time>2026-03-28T10:11:58.97Z</time></trkpt><trkpt lat="44.4514607" lon="10.9825511"><ele>153.33333333333334</ele><time>2026-03-28T10:11:59.975Z</time></trkpt><trkpt lat="44.4514443" lon="10.9823162"><ele>152.66666666666666</ele><time>2026-03-28T10:12:00.971Z</time></trkpt><trkpt lat="44.451429" lon="10.9820857"><ele>152.0</ele><time>2026-03-28T10:12:01.96Z</time></trkpt><trkpt lat="44.4514123" lon="10.9818509"><ele>151.33333333333331</ele><time>2026-03-28T10:12:02.966Z</time></trkpt><trkpt lat="44.4513909" lon="10.9816082"><ele>150.66666666666666</ele><time>2026-03-28T10:12:03.991Z</time></trkpt><trkpt lat="44.4513656" lon="10.9813851"><ele>150.0</ele><time>2026-03-28T10:12:04.989Z</time></trkpt><trkpt lat="44.4513361" lon="10.9811656"><ele>150.0</ele><time>2026-03-28T10:12:05.977Z</time></trkpt><trkpt lat="44.4513028" lon="10.9809527"><ele>150.0</ele><time>2026-03-28T10:12:06.975Z</time></trkpt><trkpt lat="44.4512729" lon="10.9807517"><ele>150.0</ele><time>2026-03-28T10:12:07.968Z</time></trkpt><trkpt lat="44.4512691" lon="10.9805435"><ele>153.0</ele><time>2026-03-28T10:12:08.979Z</time></trkpt><trkpt lat="44.4512625" lon="10.9803299"><ele>156.0</ele><time>2026-03-28T10:12:09.971Z</time></trkpt><trkpt lat="44.4512616" lon="10.980126"><ele>159.0</ele><time>2026-03-28T10:12:10.966Z</time></trkpt><trkpt lat="44.4512551" lon="10.9799304"><ele>162.0</ele><time>2026-03-28T10:12:11.983Z</time></trkpt><trkpt lat="44.4512404" lon="10.9797439"><ele>162.0</ele><time>2026-03-28T10:12:13.001Z</time></trkpt><trkpt lat="44.4511962" lon="10.9795795"><ele>162.0</ele><time>2026-03-28T10:12:13.963Z</time></trkpt><trkpt lat="44.4511522" lon="10.9794008"><ele>162.0</ele><time>2026-03-28T10:12:14.975Z</time></trkpt><trkpt lat="44.4511077" lon="10.9792289"><ele>162.0</ele><time>2026-03-28T10:12:15.971Z</time></trkpt><trkpt lat="44.4510582" lon="10.9790582"><ele>162.5</ele><time>2026-03-28T10:12:16.984Z</time></trkpt><trkpt lat="44.4510024" lon="10.9789095"><ele>163.0</ele><time>2026-03-28T10:12:17.966Z</time></trkpt><trkpt lat="44.4509265" lon="10.9787671"><ele>163.5</ele><time>2026-03-28T10:12:18.966Z</time></trkpt><trkpt lat="44.4508414" lon="10.9786349"><ele>164.0</ele><time>2026-03-28T10:12:19.965Z</time></trkpt><trkpt lat="44.4507394" lon="10.9784916"><ele>163.25</ele><time>2026-03-28T10:12:20.974Z</time></trkpt><trkpt lat="44.4506394" lon="10.9783432"><ele>162.5</ele><time>2026-03-28T10:12:21.985Z</time></trkpt><trkpt lat="44.4505414" lon="10.9781946"><ele>161.75</ele><time>2026-03-28T10:12:22.974Z</time></trkpt><trkpt lat="44.4504558" lon="10.9780497"><ele>161.0</ele><time>2026-03-28T10:12:23.977Z</time></trkpt><trkpt lat="44.4503854" lon="10.9779096"><ele>162.4</ele><time>2026-03-28T10:12:24.96Z</time></trkpt><trkpt lat="44.4503317" lon="10.977769"><ele>163.8</ele><time>2026-03-28T10:12:25.985Z</time></trkpt><trkpt lat="44.4502986" lon="10.9776398"><ele>165.20000000000002</ele><time>2026-03-28T10:12:26.964Z</time></trkpt><trkpt lat="44.4502921" lon="10.9775181"><ele>166.60000000000002</ele><time>2026-03-28T10:12:27.954Z</time></trkpt><trkpt lat="44.4503122" lon="10.9773751"><ele>168.0</ele><time>2026-03-28T10:12:28.977Z</time></trkpt><trkpt lat="44.4503654" lon="10.9772206"><ele>168.0</ele><time>2026-03-28T10:12:29.977Z</time></trkpt><trkpt lat="44.4504441" lon="10.9770765"><ele>168.0</ele><time>2026-03-28T10:12:30.978Z</time></trkpt><trkpt lat="44.4505409" lon="10.9769117"><ele>168.0</ele><time>2026-03-28T10:12:32Z</time></trkpt><trkpt lat="44.4506351" lon="10.9767576"><ele>168.0</ele><time>2026-03-28T10:12:32.987Z</time></trkpt><trkpt lat="44.4507267" lon="10.9766029"><ele>165.75</ele><time>2026-03-28T10:12:33.991Z</time></trkpt><trkpt lat="44.4508186" lon="10.9764492"><ele>163.5</ele><time>2026-03-28T10:12:34.986Z</time></trkpt><trkpt lat="44.450911" lon="10.9762954"><ele>161.25</ele><time>2026-03-28T10:12:35.967Z</time></trkpt><trkpt lat="44.4510065" lon="10.9761393"><ele>159.0</ele><time>2026-03-28T10:12:36.991Z</time></trkpt><trkpt lat="44.4510929" lon="10.9759963"><ele>159.0</ele><time>2026-03-28T10:12:37.989Z</time></trkpt><trkpt lat="44.4511685" lon="10.9758601"><ele>159.0</ele><time>2026-03-28T10:12:38.986Z</time></trkpt><trkpt lat="44.4512308" lon="10.9757396"><ele>159.0</ele><time>2026-03-28T10:12:39.965Z</time></trkpt><trkpt lat="44.4512794" lon="10.9756271"><ele>159.0</ele><time>2026-03-28T10:12:40.952Z</time></trkpt><trkpt lat="44.4512889" lon="10.9755256"><ele>159.0</ele><time>2026-03-28T10:12:41.961Z</time></trkpt><trkpt lat="44.4512617" lon="10.9754283"><ele>158.5</ele><time>2026-03-28T10:12:42.979Z</time></trkpt><trkpt lat="44.4512014" lon="10.9753223"><ele>158.0</ele><time>2026-03-28T10:12:43.957Z</time></trkpt><trkpt lat="44.4511149" lon="10.975206"><ele>157.5</ele><time>2026-03-28T10:12:44.987Z</time></trkpt><trkpt lat="44.4510203" lon="10.9750844"><ele>157.0</ele><time>2026-03-28T10:12:45.976Z</time></trkpt><trkpt lat="44.4509159" lon="10.9749527"><ele>157.0</ele><time>2026-03-28T10:12:46.979Z</time></trkpt><trkpt lat="44.4508168" lon="10.9748154"><ele>157.0</ele><time>2026-03-28T10:12:47.969Z</time></trkpt><trkpt lat="44.4507149" lon="10.9746687"><ele>157.0</ele><time>2026-03-28T10:12:48.986Z</time></trkpt><trkpt lat="44.4506124" lon="10.9745239"><ele>157.0</ele><time>2026-03-28T10:12:49.974Z</time></trkpt><trkpt lat="44.4505107" lon="10.9743726"><ele>157.75</ele><time>2026-03-28T10:12:50.973Z</time></trkpt><trkpt lat="44.4504126" lon="10.9742175"><ele>158.5</ele><time>2026-03-28T10:12:51.99Z</time></trkpt><trkpt lat="44.4503224" lon="10.9740711"><ele>159.25</ele><time>2026-03-28T10:12:52.986Z</time></trkpt><trkpt lat="44.4502337" lon="10.9739242"><ele>160.0</ele><time>2026-03-28T10:12:53.971Z</time></trkpt><trkpt lat="44.450139" lon="10.9737619"><ele>160.0</ele><time>2026-03-28T10:12:54.984Z</time></trkpt><trkpt lat="44.4500495" lon="10.9736066"><ele>160.0</ele><time>2026-03-28T10:12:55.966Z</time></trkpt><trkpt lat="44.4499651" lon="10.9734618"><ele>160.0</ele><time>2026-03-28T10:12:56.968Z</time></trkpt><trkpt lat="44.4498838" lon="10.9733378"><ele>160.0</ele><time>2026-03-28T10:12:57.973Z</time></trkpt><trkpt lat="44.449795" lon="10.9732483"><ele>159.5</ele><time>2026-03-28T10:12:58.968Z</time></trkpt><trkpt lat="44.4496936" lon="10.9731849"><ele>159.0</ele><time>2026-03-28T10:12:59.958Z</time></trkpt><trkpt lat="44.4495753" lon="10.9731431"><ele>158.5</ele><time>2026-03-28T10:13:00.969Z</time></trkpt><trkpt lat="44.4494457" lon="10.973107"><ele>158.0</ele><time>2026-03-28T10:13:01.989Z</time></trkpt><trkpt lat="44.4493203" lon="10.9730576"><ele>159.0</ele><time>2026-03-28T10:13:02.975Z</time></trkpt><trkpt lat="44.449202" lon="10.9729857"><ele>160.0</ele><time>2026-03-28T10:13:03.971Z</time></trkpt><trkpt lat="44.4490885" lon="10.9729221"><ele>161.0</ele><time>2026-03-28T10:13:04.974Z</time></trkpt><trkpt lat="44.4489905" lon="10.9728694"><ele>162.0</ele><time>2026-03-28T10:13:05.985Z</time></trkpt><trkpt lat="44.4489101" lon="10.9728361"><ele>163.0</ele><time>2026-03-28T10:13:06.959Z</time></trkpt><trkpt lat="44.4488429" lon="10.9728121"><ele>162.0</ele><time>2026-03-28T10:13:07.985Z</time></trkpt><trkpt lat="44.4487797" lon="10.9727888"><ele>161.0</ele><time>2026-03-28T10:13:08.971Z</time></trkpt><trkpt lat="44.4487193" lon="10.9727571"><ele>160.0</ele><time>2026-03-28T10:13:09.985Z</time></trkpt><trkpt lat="44.4486663" lon="10.9727029"><ele>159.0</ele><time>2026-03-28T10:13:10.976Z</time></trkpt><trkpt lat="44.4486307" lon="10.9725421"><ele>158.0</ele><time>2026-03-28T10:13:12.962Z</time></trkpt><trkpt lat="44.4486668" lon="10.9724552"><ele>157.0</ele><time>2026-03-28T10:13:13.983Z</time></trkpt><trkpt lat="44.4487331" lon="10.9724118"><ele>155.79999999999998</ele><time>2026-03-28T10:13:14.973Z</time></trkpt><trkpt lat="44.4488278" lon="10.9724322"><ele>154.6</ele><time>2026-03-28T10:13:15.982Z</time></trkpt><trkpt lat="44.4489236" lon="10.9725102"><ele>153.39999999999998</ele><time>2026-03-28T10:13:16.979Z</time></trkpt><trkpt lat="44.4490213" lon="10.9725878"><ele>152.2</ele><time>2026-03-28T10:13:17.963Z</time></trkpt><trkpt lat="44.4491278" lon="10.9726401"><ele>151.0</ele><time>2026-03-28T10:13:18.975Z</time></trkpt><trkpt lat="44.449228" lon="10.9726714"><ele>152.4</ele><time>2026-03-28T10:13:19.97Z</time></trkpt><trkpt lat="44.4493297" lon="10.9726963"><ele>153.8</ele><time>2026-03-28T10:13:20.979Z</time></trkpt><trkpt lat="44.4494268" lon="10.9727101"><ele>155.20000000000002</ele><time>2026-03-28T10:13:21.952Z</time></trkpt><trkpt lat="44.4495217" lon="10.9727274"><ele>156.6</ele><time>2026-03-28T10:13:22.983Z</time></trkpt><trkpt lat="44.4496047" lon="10.9727465"><ele>158.0</ele><time>2026-03-28T10:13:23.965Z</time></trkpt><trkpt lat="44.449688" lon="10.9727638"><ele>158.0</ele><time>2026-03-28T10:13:24.967Z</time></trkpt><trkpt lat="44.4497708" lon="10.9727723"><ele>158.0</ele><time>2026-03-28T10:13:25.957Z</time></trkpt><trkpt lat="44.4498616" lon="10.9727666"><ele>158.0</ele><time>2026-03-28T10:13:26.97Z</time></trkpt><trkpt lat="44.4499573" lon="10.9727318"><ele>158.0</ele><time>2026-03-28T10:13:27.978Z</time></trkpt><trkpt lat="44.4500721" lon="10.9726541"><ele>158.0</ele><time>2026-03-28T10:13:28.967Z</time></trkpt><trkpt lat="44.4501822" lon="10.9725179"><ele>155.66666666666666</ele><time>2026-03-28T10:13:29.972Z</time></trkpt><trkpt lat="44.4502807" lon="10.9723276"><ele>153.33333333333334</ele><time>2026-03-28T10:13:30.986Z</time></trkpt><trkpt lat="44.4503751" lon="10.9721119"><ele>151.0</ele><time>2026-03-28T10:13:31.958Z</time></trkpt><trkpt lat="44.4504738" lon="10.9718693"><ele>150.33333333333334</ele><time>2026-03-28T10:13:32.971Z</time></trkpt><trkpt lat="44.450567" lon="10.9716464"><ele>149.66666666666666</ele><time>2026-03-28T10:13:33.988Z</time></trkpt><trkpt lat="44.4506366" lon="10.9714447"><ele>149.0</ele><time>2026-03-28T10:13:34.979Z</time></trkpt><trkpt lat="44.4507047" lon="10.9712626"><ele>149.0</ele><time>2026-03-28T10:13:35.978Z</time></trkpt><trkpt lat="44.450778" lon="10.9711065"><ele>149.0</ele><time>2026-03-28T10:13:36.97Z</time></trkpt><trkpt lat="44.4508705" lon="10.9709674"><ele>149.0</ele><time>2026-03-28T10:13:37.975Z</time></trkpt><trkpt lat="44.45098" lon="10.970846"><ele>149.0</ele><time>2026-03-28T10:13:38.974Z</time></trkpt><trkpt lat="44.4510872" lon="10.970759"><ele>147.75</ele><time>2026-03-28T10:13:39.964Z</time></trkpt><trkpt lat="44.451218" lon="10.9706891"><ele>146.5</ele><time>2026-03-28T10:13:40.976Z</time></trkpt><trkpt lat="44.4513518" lon="10.970643"><ele>145.25</ele><time>2026-03-28T10:13:41.982Z</time></trkpt><trkpt lat="44.4514912" lon="10.970621"><ele>144.0</ele><time>2026-03-28T10:13:42.973Z</time></trkpt><trkpt lat="44.4516473" lon="10.9706258"><ele>144.0</ele><time>2026-03-28T10:13:43.972Z</time></trkpt><trkpt lat="44.4517974" lon="10.9706505"><ele>144.0</ele><time>2026-03-28T10:13:44.983Z</time></trkpt><trkpt lat="44.4519312" lon="10.9706842"><ele>144.0</ele><time>2026-03-28T10:13:45.965Z</time></trkpt><trkpt lat="44.4520483" lon="10.9707344"><ele>144.0</ele><time>2026-03-28T10:13:46.98Z</time></trkpt><trkpt lat="44.4521419" lon="10.9708024"><ele>143.75</ele><time>2026-03-28T10:13:47.972Z</time></trkpt><trkpt lat="44.4522305" lon="10.9708932"><ele>143.5</ele><time>2026-03-28T10:13:48.993Z</time></trkpt><trkpt lat="44.4523117" lon="10.9710043"><ele>143.25</ele><time>2026-03-28T10:13:49.957Z</time></trkpt><trkpt lat="44.4524017" lon="10.9711341"><ele>143.0</ele><time>2026-03-28T10:13:50.978Z</time></trkpt><trkpt lat="44.4525012" lon="10.9712747"><ele>143.0</ele><time>2026-03-28T10:13:51.99Z</time></trkpt><trkpt lat="44.4526078" lon="10.9714389"><ele>143.0</ele><time>2026-03-28T10:13:52.977Z</time></trkpt><trkpt lat="44.4527063" lon="10.9716226"><ele>143.0</ele><time>2026-03-28T10:13:53.978Z</time></trkpt><trkpt lat="44.4527847" lon="10.971807"><ele>143.5</ele><time>2026-03-28T10:13:54.981Z</time></trkpt><trkpt lat="44.4528485" lon="10.971976"><ele>144.0</ele><time>2026-03-28T10:13:55.957Z</time></trkpt><trkpt lat="44.4529186" lon="10.9721202"><ele>144.5</ele><time>2026-03-28T10:13:56.961Z</time></trkpt><trkpt lat="44.453001" lon="10.9722156"><ele>145.0</ele><time>2026-03-28T10:13:57.959Z</time></trkpt><trkpt lat="44.4531056" lon="10.9722766"><ele>142.0</ele><time>2026-03-28T10:13:58.974Z</time></trkpt><trkpt lat="44.4532305" lon="10.9723213"><ele>139.0</ele><time>2026-03-28T10:13:59.991Z</time></trkpt><trkpt lat="44.4533621" lon="10.972347"><ele>136.0</ele><time>2026-03-28T10:14:00.973Z</time></trkpt><trkpt lat="44.4535045" lon="10.9723581"><ele>133.0</ele><time>2026-03-28T10:14:01.988Z</time></trkpt><trkpt lat="44.4536544" lon="10.9723451"><ele>133.0</ele><time>2026-03-28T10:14:02.968Z</time></trkpt><trkpt lat="44.4537986" lon="10.9723159"><ele>133.0</ele><time>2026-03-28T10:14:03.962Z</time></trkpt><trkpt lat="44.453936" lon="10.9722677"><ele>133.0</ele><time>2026-03-28T10:14:04.962Z</time></trkpt><trkpt lat="44.4540655" lon="10.9722077"><ele>133.0</ele><time>2026-03-28T10:14:05.976Z</time></trkpt><trkpt lat="44.4541778" lon="10.9721409"><ele>133.0</ele><time>2026-03-28T10:14:06.972Z</time></trkpt><trkpt lat="44.454263" lon="10.9720602"><ele>133.0</ele><time>2026-03-28T10:14:07.968Z</time></trkpt><trkpt lat="44.4543275" lon="10.9719566"><ele>133.0</ele><time>2026-03-28T10:14:08.992Z</time></trkpt><trkpt lat="44.4543687" lon="10.9718209"><ele>133.0</ele><time>2026-03-28T10:14:09.975Z</time></trkpt><trkpt lat="44.4543975" lon="10.9716146"><ele>133.33333333333334</ele><time>2026-03-28T10:14:10.964Z</time></trkpt><trkpt lat="44.4544061" lon="10.9713755"><ele>133.66666666666666</ele><time>2026-03-28T10:14:11.981Z</time></trkpt><trkpt lat="44.454411" lon="10.971132"><ele>134.0</ele><time>2026-03-28T10:14:12.959Z</time></trkpt><trkpt lat="44.4544043" lon="10.9708816"><ele>135.33333333333331</ele><time>2026-03-28T10:14:13.981Z</time></trkpt><trkpt lat="44.454394" lon="10.9706365"><ele>136.66666666666666</ele><time>2026-03-28T10:14:14.974Z</time></trkpt><trkpt lat="44.4543764" lon="10.9703934"><ele>138.0</ele><time>2026-03-28T10:14:15.973Z</time></trkpt><trkpt lat="44.4543613" lon="10.9701526"><ele>137.66666666666666</ele><time>2026-03-28T10:14:16.978Z</time></trkpt><trkpt lat="44.4543512" lon="10.9699129"><ele>137.33333333333331</ele><time>2026-03-28T10:14:17.984Z</time></trkpt><trkpt lat="44.4543363" lon="10.9696908"><ele>137.0</ele><time>2026-03-28T10:14:18.965Z</time></trkpt><trkpt lat="44.4543216" lon="10.9694646"><ele>137.0</ele><time>2026-03-28T10:14:19.977Z</time></trkpt><trkpt lat="44.4543066" lon="10.9692408"><ele>137.0</ele><time>2026-03-28T10:14:20.983Z</time></trkpt><trkpt lat="44.4542929" lon="10.969019"><ele>137.0</ele><time>2026-03-28T10:14:21.967Z</time></trkpt><trkpt lat="44.4542771" lon="10.9687868"><ele>137.33333333333331</ele><time>2026-03-28T10:14:22.967Z</time></trkpt><trkpt lat="44.4542602" lon="10.968541"><ele>137.66666666666666</ele><time>2026-03-28T10:14:23.973Z</time></trkpt><trkpt lat="44.454239" lon="10.9682955"><ele>138.0</ele><time>2026-03-28T10:14:24.968Z</time></trkpt><trkpt lat="44.4542043" lon="10.9680349"><ele>138.0</ele><time>2026-03-28T10:14:25.988Z</time></trkpt><trkpt lat="44.4541644" lon="10.967776"><ele>138.0</ele><time>2026-03-28T10:14:26.976Z</time></trkpt><trkpt lat="44.4541124" lon="10.9675123"><ele>138.0</ele><time>2026-03-28T10:14:27.97Z</time></trkpt><trkpt lat="44.4540531" lon="10.9672425"><ele>138.0</ele><time>2026-03-28T10:14:28.967Z</time></trkpt><trkpt lat="44.453992" lon="10.9669749"><ele>138.0</ele><time>2026-03-28T10:14:29.972Z</time></trkpt><trkpt lat="44.4539328" lon="10.9667134"><ele>138.0</ele><time>2026-03-28T10:14:30.981Z</time></trkpt><trkpt lat="44.4538795" lon="10.9664601"><ele>138.66666666666666</ele><time>2026-03-28T10:14:31.976Z</time></trkpt><trkpt lat="44.453832" lon="10.9662211"><ele>139.33333333333331</ele><time>2026-03-28T10:14:32.957Z</time></trkpt><trkpt lat="44.4537901" lon="10.9659841"><ele>140.0</ele><time>2026-03-28T10:14:33.962Z</time></trkpt><trkpt lat="44.4537668" lon="10.9657564"><ele>140.75</ele><time>2026-03-28T10:14:34.96Z</time></trkpt><trkpt lat="44.4537601" lon="10.965535"><ele>141.5</ele><time>2026-03-28T10:14:35.972Z</time></trkpt><trkpt lat="44.4537678" lon="10.9653336"><ele>142.25</ele><time>2026-03-28T10:14:36.98Z</time></trkpt><trkpt lat="44.4537834" lon="10.9651606"><ele>143.0</ele><time>2026-03-28T10:14:37.959Z</time></trkpt><trkpt lat="44.4537989" lon="10.9650078"><ele>143.0</ele><time>2026-03-28T10:14:38.96Z</time></trkpt><trkpt lat="44.4538133" lon="10.9648775"><ele>143.0</ele><time>2026-03-28T10:14:39.96Z</time></trkpt><trkpt lat="44.4538299" lon="10.9647705"><ele>143.0</ele><time>2026-03-28T10:14:40.969Z</time></trkpt><trkpt lat="44.4538567" lon="10.9646867"><ele>143.0</ele><time>2026-03-28T10:14:41.974Z</time></trkpt><trkpt lat="44.4539167" lon="10.9646042"><ele>143.0</ele><time>2026-03-28T10:14:43.97Z</time></trkpt><trkpt lat="44.4539616" lon="10.9645355"><ele>143.0</ele><time>2026-03-28T10:14:50.972Z</time></trkpt><trkpt lat="44.4539661" lon="10.964375"><ele>143.0</ele><time>2026-03-28T10:14:52.966Z</time></trkpt><trkpt lat="44.4539578" lon="10.9642638"><ele>143.0</ele><time>2026-03-28T10:14:53.978Z</time></trkpt><trkpt lat="44.4539386" lon="10.9641393"><ele>143.0</ele><time>2026-03-28T10:14:54.97Z</time></trkpt><trkpt lat="44.4538592" lon="10.9639824"><ele>143.0</ele><time>2026-03-28T10:14:55.959Z</time></trkpt><trkpt lat="44.4537864" lon="10.9638411"><ele>143.0</ele><time>2026-03-28T10:14:56.971Z</time></trkpt><trkpt lat="44.4537181" lon="10.9637142"><ele>142.5</ele><time>2026-03-28T10:14:57.975Z</time></trkpt><trkpt lat="44.4536473" lon="10.963591"><ele>142.0</ele><time>2026-03-28T10:14:58.958Z</time></trkpt><trkpt lat="44.4535844" lon="10.9634623"><ele>141.5</ele><time>2026-03-28T10:14:59.973Z</time></trkpt><trkpt lat="44.4535225" lon="10.9633261"><ele>141.0</ele><time>2026-03-28T10:15:00.98Z</time></trkpt><trkpt lat="44.4534475" lon="10.963146"><ele>141.0</ele><time>2026-03-28T10:15:01.989Z</time></trkpt><trkpt lat="44.4533711" lon="10.9629419"><ele>141.0</ele><time>2026-03-28T10:15:02.973Z</time></trkpt><trkpt lat="44.4532904" lon="10.9627339"><ele>141.0</ele><time>2026-03-28T10:15:03.967Z</time></trkpt><trkpt lat="44.4532108" lon="10.9625349"><ele>142.66666666666666</ele><time>2026-03-28T10:15:04.972Z</time></trkpt><trkpt lat="44.4531394" lon="10.9623471"><ele>144.33333333333331</ele><time>2026-03-28T10:15:05.978Z</time></trkpt><trkpt lat="44.4530723" lon="10.9621558"><ele>146.0</ele><time>2026-03-28T10:15:06.965Z</time></trkpt><trkpt lat="44.453018" lon="10.9619546"><ele>146.0</ele><time>2026-03-28T10:15:07.983Z</time></trkpt><trkpt lat="44.4529881" lon="10.961745"><ele>146.0</ele><time>2026-03-28T10:15:08.973Z</time></trkpt><trkpt lat="44.4529738" lon="10.9615201"><ele>146.0</ele><time>2026-03-28T10:15:09.976Z</time></trkpt><trkpt lat="44.452976" lon="10.961283"><ele>147.0</ele><time>2026-03-28T10:15:10.974Z</time></trkpt><trkpt lat="44.4530037" lon="10.9610443"><ele>148.0</ele><time>2026-03-28T10:15:11.979Z</time></trkpt><trkpt lat="44.4530398" lon="10.9607979"><ele>149.0</ele><time>2026-03-28T10:15:12.975Z</time></trkpt><trkpt lat="44.4530787" lon="10.960551"><ele>149.0</ele><time>2026-03-28T10:15:13.981Z</time></trkpt><trkpt lat="44.453112" lon="10.9603183"><ele>149.0</ele><time>2026-03-28T10:15:14.986Z</time></trkpt><trkpt lat="44.4531453" lon="10.9600837"><ele>149.0</ele><time>2026-03-28T10:15:15.995Z</time></trkpt><trkpt lat="44.4531723" lon="10.9598518"><ele>148.66666666666666</ele><time>2026-03-28T10:15:16.99Z</time></trkpt><trkpt lat="44.4531975" lon="10.9596087"><ele>148.33333333333334</ele><time>2026-03-28T10:15:17.972Z</time></trkpt><trkpt lat="44.4532107" lon="10.9593482"><ele>148.0</ele><time>2026-03-28T10:15:18.975Z</time></trkpt><trkpt lat="44.4532123" lon="10.9590636"><ele>149.33333333333334</ele><time>2026-03-28T10:15:19.979Z</time></trkpt><trkpt lat="44.4531999" lon="10.9587623"><ele>150.66666666666666</ele><time>2026-03-28T10:15:20.97Z</time></trkpt><trkpt lat="44.4531773" lon="10.9584518"><ele>152.0</ele><time>2026-03-28T10:15:21.987Z</time></trkpt><trkpt lat="44.4531512" lon="10.9581624"><ele>152.66666666666666</ele><time>2026-03-28T10:15:22.975Z</time></trkpt><trkpt lat="44.4531228" lon="10.9578895"><ele>153.33333333333334</ele><time>2026-03-28T10:15:23.983Z</time></trkpt><trkpt lat="44.4530947" lon="10.9576189"><ele>154.0</ele><time>2026-03-28T10:15:24.977Z</time></trkpt><trkpt lat="44.4530707" lon="10.9573401"><ele>154.33333333333334</ele><time>2026-03-28T10:15:25.979Z</time></trkpt><trkpt lat="44.453046" lon="10.9570478"><ele>154.66666666666666</ele><time>2026-03-28T10:15:26.978Z</time></trkpt><trkpt lat="44.4530187" lon="10.9567489"><ele>155.0</ele><time>2026-03-28T10:15:27.979Z</time></trkpt><trkpt lat="44.4529906" lon="10.9564305"><ele>154.33333333333331</ele><time>2026-03-28T10:15:28.983Z</time></trkpt><trkpt lat="44.4529652" lon="10.956122"><ele>153.66666666666666</ele><time>2026-03-28T10:15:29.96Z</time></trkpt><trkpt lat="44.4529386" lon="10.9558142"><ele>153.0</ele><time>2026-03-28T10:15:30.963Z</time></trkpt><trkpt lat="44.4529074" lon="10.9555114"><ele>149.66666666666666</ele><time>2026-03-28T10:15:31.966Z</time></trkpt><trkpt lat="44.4528652" lon="10.9552195"><ele>146.33333333333331</ele><time>2026-03-28T10:15:32.983Z</time></trkpt><trkpt lat="44.4528061" lon="10.954942"><ele>143.0</ele><time>2026-03-28T10:15:33.974Z</time></trkpt><trkpt lat="44.4527302" lon="10.9546782"><ele>143.0</ele><time>2026-03-28T10:15:34.973Z</time></trkpt><trkpt lat="44.4526427" lon="10.9544202"><ele>143.0</ele><time>2026-03-28T10:15:35.982Z</time></trkpt><trkpt lat="44.4525476" lon="10.95417"><ele>143.0</ele><time>2026-03-28T10:15:36.97Z</time></trkpt><trkpt lat="44.452445" lon="10.9539197"><ele>143.33333333333331</ele><time>2026-03-28T10:15:37.959Z</time></trkpt><trkpt lat="44.4523334" lon="10.953654"><ele>143.66666666666666</ele><time>2026-03-28T10:15:38.968Z</time></trkpt><trkpt lat="44.4522217" lon="10.9533856"><ele>144.0</ele><time>2026-03-28T10:15:39.969Z</time></trkpt><trkpt lat="44.4521092" lon="10.9531182"><ele>144.0</ele><time>2026-03-28T10:15:40.963Z</time></trkpt><trkpt lat="44.4519958" lon="10.9528389"><ele>144.0</ele><time>2026-03-28T10:15:41.971Z</time></trkpt><trkpt lat="44.45188" lon="10.9525494"><ele>144.66666666666666</ele><time>2026-03-28T10:15:42.986Z</time></trkpt><trkpt lat="44.4517699" lon="10.952283"><ele>145.33333333333331</ele><time>2026-03-28T10:15:43.962Z</time></trkpt><trkpt lat="44.451659" lon="10.952015"><ele>146.0</ele><time>2026-03-28T10:15:44.956Z</time></trkpt><trkpt lat="44.4515512" lon="10.9517504"><ele>146.33333333333331</ele><time>2026-03-28T10:15:45.956Z</time></trkpt><trkpt lat="44.4514466" lon="10.9514852"><ele>146.66666666666666</ele><time>2026-03-28T10:15:46.97Z</time></trkpt><trkpt lat="44.4513419" lon="10.9512261"><ele>147.0</ele><time>2026-03-28T10:15:47.977Z</time></trkpt><trkpt lat="44.4512378" lon="10.9509689"><ele>146.33333333333334</ele><time>2026-03-28T10:15:48.975Z</time></trkpt><trkpt lat="44.4511289" lon="10.9507074"><ele>145.66666666666669</ele><time>2026-03-28T10:15:49.98Z</time></trkpt><trkpt lat="44.4510154" lon="10.9504354"><ele>145.0</ele><time>2026-03-28T10:15:50.971Z</time></trkpt><trkpt lat="44.4509" lon="10.950146"><ele>145.0</ele><time>2026-03-28T10:15:51.965Z</time></trkpt><trkpt lat="44.45078" lon="10.9498491"><ele>145.0</ele><time>2026-03-28T10:15:52.976Z</time></trkpt><trkpt lat="44.4506601" lon="10.9495528"><ele>145.0</ele><time>2026-03-28T10:15:53.97Z</time></trkpt><trkpt lat="44.4505395" lon="10.9492588"><ele>145.0</ele><time>2026-03-28T10:15:54.976Z</time></trkpt><trkpt lat="44.4504261" lon="10.9489772"><ele>145.33333333333334</ele><time>2026-03-28T10:15:55.965Z</time></trkpt><trkpt lat="44.4503195" lon="10.9487033"><ele>145.66666666666666</ele><time>2026-03-28T10:15:56.981Z</time></trkpt><trkpt lat="44.4502202" lon="10.9484581"><ele>146.0</ele><time>2026-03-28T10:15:57.963Z</time></trkpt><trkpt lat="44.4501107" lon="10.9482191"><ele>147.66666666666666</ele><time>2026-03-28T10:15:58.965Z</time></trkpt><trkpt lat="44.4499868" lon="10.9479997"><ele>149.33333333333334</ele><time>2026-03-28T10:15:59.975Z</time></trkpt><trkpt lat="44.4498435" lon="10.9478009"><ele>151.0</ele><time>2026-03-28T10:16:00.971Z</time></trkpt><trkpt lat="44.4496808" lon="10.9476402"><ele>151.66666666666669</ele><time>2026-03-28T10:16:01.971Z</time></trkpt><trkpt lat="44.4495091" lon="10.9475034"><ele>152.33333333333334</ele><time>2026-03-28T10:16:02.963Z</time></trkpt><trkpt lat="44.4493338" lon="10.9473809"><ele>153.0</ele><time>2026-03-28T10:16:03.985Z</time></trkpt><trkpt lat="44.4491553" lon="10.9472634"><ele>153.0</ele><time>2026-03-28T10:16:04.98Z</time></trkpt><trkpt lat="44.4489724" lon="10.9471429"><ele>153.0</ele><time>2026-03-28T10:16:05.967Z</time></trkpt><trkpt lat="44.448791" lon="10.9470157"><ele>153.0</ele><time>2026-03-28T10:16:06.969Z</time></trkpt><trkpt lat="44.4486032" lon="10.9468819"><ele>152.33333333333334</ele><time>2026-03-28T10:16:07.97Z</time></trkpt><trkpt lat="44.44842" lon="10.946748"><ele>151.66666666666669</ele><time>2026-03-28T10:16:08.967Z</time></trkpt><trkpt lat="44.4482389" lon="10.9466167"><ele>151.0</ele><time>2026-03-28T10:16:09.973Z</time></trkpt><trkpt lat="44.4480628" lon="10.94649"><ele>152.66666666666669</ele><time>2026-03-28T10:16:10.972Z</time></trkpt><trkpt lat="44.447895" lon="10.9463632"><ele>154.33333333333334</ele><time>2026-03-28T10:16:11.979Z</time></trkpt><trkpt lat="44.4477209" lon="10.9462402"><ele>156.0</ele><time>2026-03-28T10:16:12.972Z</time></trkpt><trkpt lat="44.4475446" lon="10.9460967"><ele>156.0</ele><time>2026-03-28T10:16:13.97Z</time></trkpt><trkpt lat="44.4473561" lon="10.9459579"><ele>156.0</ele><time>2026-03-28T10:16:14.997Z</time></trkpt><trkpt lat="44.4471894" lon="10.9458275"><ele>156.0</ele><time>2026-03-28T10:16:15.981Z</time></trkpt><trkpt lat="44.4470382" lon="10.9456846"><ele>156.0</ele><time>2026-03-28T10:16:16.97Z</time></trkpt><trkpt lat="44.4468798" lon="10.9455022"><ele>156.0</ele><time>2026-03-28T10:16:17.981Z</time></trkpt><trkpt lat="44.4467491" lon="10.9452883"><ele>156.0</ele><time>2026-03-28T10:16:18.981Z</time></trkpt><trkpt lat="44.4466587" lon="10.945065"><ele>157.66666666666666</ele><time>2026-03-28T10:16:19.989Z</time></trkpt><trkpt lat="44.4465606" lon="10.9447951"><ele>159.33333333333331</ele><time>2026-03-28T10:16:20.995Z</time></trkpt><trkpt lat="44.4464775" lon="10.9445257"><ele>161.0</ele><time>2026-03-28T10:16:21.982Z</time></trkpt><trkpt lat="44.4463858" lon="10.9442519"><ele>156.5</ele><time>2026-03-28T10:16:22.992Z</time></trkpt><trkpt lat="44.4462889" lon="10.9439626"><ele>152.0</ele><time>2026-03-28T10:16:23.981Z</time></trkpt><trkpt lat="44.4461936" lon="10.9436749"><ele>152.0</ele><time>2026-03-28T10:16:24.961Z</time></trkpt><trkpt lat="44.4460965" lon="10.9433947"><ele>152.0</ele><time>2026-03-28T10:16:25.972Z</time></trkpt><trkpt lat="44.446001" lon="10.9431274"><ele>152.0</ele><time>2026-03-28T10:16:26.97Z</time></trkpt><trkpt lat="44.4458966" lon="10.9428685"><ele>153.33333333333331</ele><time>2026-03-28T10:16:27.984Z</time></trkpt><trkpt lat="44.4457871" lon="10.9426295"><ele>154.66666666666666</ele><time>2026-03-28T10:16:28.968Z</time></trkpt><trkpt lat="44.445668" lon="10.9423916"><ele>156.0</ele><time>2026-03-28T10:16:29.979Z</time></trkpt><trkpt lat="44.4455431" lon="10.9421594"><ele>155.33333333333334</ele><time>2026-03-28T10:16:30.956Z</time></trkpt><trkpt lat="44.4454097" lon="10.9419242"><ele>154.66666666666669</ele><time>2026-03-28T10:16:31.966Z</time></trkpt><trkpt lat="44.4452703" lon="10.9416901"><ele>154.0</ele><time>2026-03-28T10:16:32.993Z</time></trkpt><trkpt lat="44.445128" lon="10.9414707"><ele>155.33333333333334</ele><time>2026-03-28T10:16:33.998Z</time></trkpt><trkpt lat="44.4449844" lon="10.9412666"><ele>156.66666666666666</ele><time>2026-03-28T10:16:34.972Z</time></trkpt><trkpt lat="44.4448303" lon="10.9410643"><ele>158.0</ele><time>2026-03-28T10:16:35.954Z</time></trkpt><trkpt lat="44.4446638" lon="10.9408612"><ele>157.33333333333331</ele><time>2026-03-28T10:16:36.975Z</time></trkpt><trkpt lat="44.4444938" lon="10.9406653"><ele>156.66666666666666</ele><time>2026-03-28T10:16:37.971Z</time></trkpt><trkpt lat="44.4443256" lon="10.9404784"><ele>156.0</ele><time>2026-03-28T10:16:38.958Z</time></trkpt><trkpt lat="44.4441533" lon="10.9402886"><ele>156.0</ele><time>2026-03-28T10:16:39.977Z</time></trkpt><trkpt lat="44.443991" lon="10.940113"><ele>156.0</ele><time>2026-03-28T10:16:40.965Z</time></trkpt><trkpt lat="44.4438258" lon="10.9399364"><ele>156.0</ele><time>2026-03-28T10:16:41.971Z</time></trkpt><trkpt lat="44.4436614" lon="10.9397608"><ele>156.66666666666666</ele><time>2026-03-28T10:16:42.959Z</time></trkpt><trkpt lat="44.4434983" lon="10.9395813"><ele>157.33333333333331</ele><time>2026-03-28T10:16:43.954Z</time></trkpt><trkpt lat="44.443334" lon="10.9393821"><ele>158.0</ele><time>2026-03-28T10:16:44.973Z</time></trkpt><trkpt lat="44.4431678" lon="10.9391624"><ele>158.0</ele><time>2026-03-28T10:16:45.972Z</time></trkpt><trkpt lat="44.4430072" lon="10.9389253"><ele>158.0</ele><time>2026-03-28T10:16:46.97Z</time></trkpt><trkpt lat="44.4428434" lon="10.9386612"><ele>158.0</ele><time>2026-03-28T10:16:47.995Z</time></trkpt><trkpt lat="44.4426922" lon="10.9384102"><ele>158.0</ele><time>2026-03-28T10:16:48.965Z</time></trkpt><trkpt lat="44.4425397" lon="10.9381578"><ele>160.33333333333331</ele><time>2026-03-28T10:16:49.986Z</time></trkpt><trkpt lat="44.4423894" lon="10.9379236"><ele>162.66666666666666</ele><time>2026-03-28T10:16:50.979Z</time></trkpt><trkpt lat="44.4422375" lon="10.9377026"><ele>165.0</ele><time>2026-03-28T10:16:51.976Z</time></trkpt><trkpt lat="44.4420786" lon="10.9374984"><ele>165.0</ele><time>2026-03-28T10:16:52.964Z</time></trkpt><trkpt lat="44.4419062" lon="10.9373226"><ele>165.0</ele><time>2026-03-28T10:16:53.956Z</time></trkpt><trkpt lat="44.4417132" lon="10.937168"><ele>165.0</ele><time>2026-03-28T10:16:54.971Z</time></trkpt><trkpt lat="44.4415174" lon="10.9370212"><ele>165.0</ele><time>2026-03-28T10:16:55.966Z</time></trkpt><trkpt lat="44.4413204" lon="10.936874"><ele>165.0</ele><time>2026-03-28T10:16:56.981Z</time></trkpt><trkpt lat="44.4411315" lon="10.9367291"><ele>165.0</ele><time>2026-03-28T10:16:57.977Z</time></trkpt><trkpt lat="44.4409428" lon="10.936585"><ele>164.0</ele><time>2026-03-28T10:16:58.977Z</time></trkpt><trkpt lat="44.4407521" lon="10.9364431"><ele>163.0</ele><time>2026-03-28T10:16:59.98Z</time></trkpt><trkpt lat="44.4405588" lon="10.936303"><ele>162.0</ele><time>2026-03-28T10:17:00.99Z</time></trkpt><trkpt lat="44.4403689" lon="10.9361603"><ele>160.0</ele><time>2026-03-28T10:17:01.979Z</time></trkpt><trkpt lat="44.4401771" lon="10.9360182"><ele>158.0</ele><time>2026-03-28T10:17:02.961Z</time></trkpt><trkpt lat="44.4399778" lon="10.9358715"><ele>156.0</ele><time>2026-03-28T10:17:03.978Z</time></trkpt><trkpt lat="44.4397856" lon="10.9357241"><ele>157.33333333333334</ele><time>2026-03-28T10:17:04.98Z</time></trkpt><trkpt lat="44.4395936" lon="10.935567"><ele>158.66666666666669</ele><time>2026-03-28T10:17:05.983Z</time></trkpt><trkpt lat="44.4394087" lon="10.9353916"><ele>160.0</ele><time>2026-03-28T10:17:07.001Z</time></trkpt><trkpt lat="44.4392381" lon="10.9352012"><ele>166.0</ele><time>2026-03-28T10:17:07.962Z</time></trkpt><trkpt lat="44.4390666" lon="10.9349763"><ele>172.0</ele><time>2026-03-28T10:17:08.975Z</time></trkpt><trkpt lat="44.4389135" lon="10.9347308"><ele>168.0</ele><time>2026-03-28T10:17:09.974Z</time></trkpt><trkpt lat="44.4387651" lon="10.934471"><ele>164.0</ele><time>2026-03-28T10:17:10.965Z</time></trkpt><trkpt lat="44.4386235" lon="10.9342075"><ele>164.0</ele><time>2026-03-28T10:17:11.975Z</time></trkpt><trkpt lat="44.438487" lon="10.9339586"><ele>164.0</ele><time>2026-03-28T10:17:12.973Z</time></trkpt><trkpt lat="44.438354" lon="10.9337121"><ele>164.0</ele><time>2026-03-28T10:17:13.991Z</time></trkpt><trkpt lat="44.4382258" lon="10.9334832"><ele>162.66666666666666</ele><time>2026-03-28T10:17:14.983Z</time></trkpt><trkpt lat="44.4380916" lon="10.933279"><ele>161.33333333333334</ele><time>2026-03-28T10:17:15.971Z</time></trkpt><trkpt lat="44.4379413" lon="10.9330931"><ele>160.0</ele><time>2026-03-28T10:17:16.974Z</time></trkpt><trkpt lat="44.437774" lon="10.9329239"><ele>160.0</ele><time>2026-03-28T10:17:17.961Z</time></trkpt><trkpt lat="44.4375838" lon="10.9327658"><ele>160.0</ele><time>2026-03-28T10:17:18.975Z</time></trkpt><trkpt lat="44.437377" lon="10.9326123"><ele>161.0</ele><time>2026-03-28T10:17:19.976Z</time></trkpt><trkpt lat="44.437163" lon="10.9324514"><ele>162.0</ele><time>2026-03-28T10:17:20.97Z</time></trkpt><trkpt lat="44.4369466" lon="10.9322811"><ele>162.0</ele><time>2026-03-28T10:17:21.973Z</time></trkpt><trkpt lat="44.4367408" lon="10.9321115"><ele>162.0</ele><time>2026-03-28T10:17:22.979Z</time></trkpt><trkpt lat="44.4365456" lon="10.9319512"><ele>162.0</ele><time>2026-03-28T10:17:23.977Z</time></trkpt><trkpt lat="44.4363557" lon="10.9317964"><ele>162.0</ele><time>2026-03-28T10:17:24.994Z</time></trkpt><trkpt lat="44.4361753" lon="10.931649"><ele>162.0</ele><time>2026-03-28T10:17:25.99Z</time></trkpt><trkpt lat="44.4359959" lon="10.9315028"><ele>163.33333333333334</ele><time>2026-03-28T10:17:26.979Z</time></trkpt><trkpt lat="44.4358149" lon="10.9313552"><ele>164.66666666666669</ele><time>2026-03-28T10:17:27.969Z</time></trkpt><trkpt lat="44.4356298" lon="10.9312029"><ele>166.0</ele><time>2026-03-28T10:17:28.976Z</time></trkpt><trkpt lat="44.435446" lon="10.9310534"><ele>166.0</ele><time>2026-03-28T10:17:29.972Z</time></trkpt><trkpt lat="44.4352585" lon="10.9309043"><ele>166.0</ele><time>2026-03-28T10:17:30.984Z</time></trkpt><trkpt lat="44.4350714" lon="10.9307532"><ele>166.0</ele><time>2026-03-28T10:17:31.961Z</time></trkpt><trkpt lat="44.4348713" lon="10.9305879"><ele>166.0</ele><time>2026-03-28T10:17:32.964Z</time></trkpt><trkpt lat="44.4346752" lon="10.9304269"><ele>166.0</ele><time>2026-03-28T10:17:33.962Z</time></trkpt><trkpt lat="44.4344766" lon="10.9302639"><ele>166.0</ele><time>2026-03-28T10:17:34.971Z</time></trkpt><trkpt lat="44.4342816" lon="10.9301027"><ele>166.0</ele><time>2026-03-28T10:17:35.973Z</time></trkpt><trkpt lat="44.4340894" lon="10.9299449"><ele>166.0</ele><time>2026-03-28T10:17:36.971Z</time></trkpt><trkpt lat="44.4338922" lon="10.9297882"><ele>164.5</ele><time>2026-03-28T10:17:37.974Z</time></trkpt><trkpt lat="44.4336845" lon="10.9296373"><ele>163.0</ele><time>2026-03-28T10:17:38.968Z</time></trkpt><trkpt lat="44.4334688" lon="10.9294904"><ele>163.0</ele><time>2026-03-28T10:17:39.96Z</time></trkpt><trkpt lat="44.4332462" lon="10.9293489"><ele>163.0</ele><time>2026-03-28T10:17:40.976Z</time></trkpt><trkpt lat="44.4330285" lon="10.92922"><ele>166.0</ele><time>2026-03-28T10:17:41.975Z</time></trkpt><trkpt lat="44.4328088" lon="10.9291018"><ele>169.0</ele><time>2026-03-28T10:17:42.977Z</time></trkpt><trkpt lat="44.4325912" lon="10.9289886"><ele>169.0</ele><time>2026-03-28T10:17:43.974Z</time></trkpt><trkpt lat="44.4323746" lon="10.9288802"><ele>169.0</ele><time>2026-03-28T10:17:44.971Z</time></trkpt><trkpt lat="44.4321538" lon="10.9287727"><ele>167.0</ele><time>2026-03-28T10:17:45.976Z</time></trkpt><trkpt lat="44.4319317" lon="10.9286636"><ele>165.0</ele><time>2026-03-28T10:17:46.98Z</time></trkpt><trkpt lat="44.4317137" lon="10.9285562"><ele>165.0</ele><time>2026-03-28T10:17:47.978Z</time></trkpt><trkpt lat="44.4314988" lon="10.9284542"><ele>165.0</ele><time>2026-03-28T10:17:48.974Z</time></trkpt><trkpt lat="44.4312885" lon="10.9283494"><ele>166.5</ele><time>2026-03-28T10:17:49.963Z</time></trkpt><trkpt lat="44.4310726" lon="10.9282272"><ele>168.0</ele><time>2026-03-28T10:17:50.986Z</time></trkpt><trkpt lat="44.4308762" lon="10.9280925"><ele>168.0</ele><time>2026-03-28T10:17:51.963Z</time></trkpt><trkpt lat="44.4306794" lon="10.9279353"><ele>168.0</ele><time>2026-03-28T10:17:52.963Z</time></trkpt><trkpt lat="44.4304859" lon="10.927758"><ele>168.0</ele><time>2026-03-28T10:17:53.985Z</time></trkpt><trkpt lat="44.4303129" lon="10.9275673"><ele>168.0</ele><time>2026-03-28T10:17:54.972Z</time></trkpt><trkpt lat="44.4301625" lon="10.9273513"><ele>168.0</ele><time>2026-03-28T10:17:55.979Z</time></trkpt><trkpt lat="44.4300245" lon="10.9271081"><ele>168.0</ele><time>2026-03-28T10:17:56.981Z</time></trkpt><trkpt lat="44.429903" lon="10.9268431"><ele>168.0</ele><time>2026-03-28T10:17:57.973Z</time></trkpt><trkpt lat="44.4297944" lon="10.9265541"><ele>168.0</ele><time>2026-03-28T10:17:58.972Z</time></trkpt><trkpt lat="44.4296901" lon="10.9262709"><ele>168.0</ele><time>2026-03-28T10:17:59.968Z</time></trkpt><trkpt lat="44.4295963" lon="10.9260007"><ele>168.0</ele><time>2026-03-28T10:18:00.974Z</time></trkpt><trkpt lat="44.4295074" lon="10.9257433"><ele>168.0</ele><time>2026-03-28T10:18:01.982Z</time></trkpt><trkpt lat="44.4294268" lon="10.9255216"><ele>168.0</ele><time>2026-03-28T10:18:02.967Z</time></trkpt><trkpt lat="44.4293375" lon="10.9253238"><ele>168.0</ele><time>2026-03-28T10:18:03.971Z</time></trkpt><trkpt lat="44.4292323" lon="10.9251488"><ele>168.0</ele><time>2026-03-28T10:18:04.965Z</time></trkpt><trkpt lat="44.4291063" lon="10.9250072"><ele>168.0</ele><time>2026-03-28T10:18:05.977Z</time></trkpt><trkpt lat="44.4289518" lon="10.9248947"><ele>168.0</ele><time>2026-03-28T10:18:06.976Z</time></trkpt><trkpt lat="44.4287718" lon="10.9248065"><ele>168.0</ele><time>2026-03-28T10:18:07.968Z</time></trkpt><trkpt lat="44.4285857" lon="10.9247411"><ele>168.0</ele><time>2026-03-28T10:18:08.974Z</time></trkpt><trkpt lat="44.4284123" lon="10.9246895"><ele>168.0</ele><time>2026-03-28T10:18:09.972Z</time></trkpt><trkpt lat="44.4282441" lon="10.9246406"><ele>168.0</ele><time>2026-03-28T10:18:10.988Z</time></trkpt><trkpt lat="44.4280964" lon="10.9246041"><ele>168.0</ele><time>2026-03-28T10:18:11.973Z</time></trkpt><trkpt lat="44.4279609" lon="10.9245785"><ele>168.0</ele><time>2026-03-28T10:18:12.973Z</time></trkpt><trkpt lat="44.427835" lon="10.9245595"><ele>168.0</ele><time>2026-03-28T10:18:13.986Z</time></trkpt><trkpt lat="44.4277196" lon="10.924544"><ele>167.5</ele><time>2026-03-28T10:18:14.969Z</time></trkpt><trkpt lat="44.4276033" lon="10.9245314"><ele>167.0</ele><time>2026-03-28T10:18:15.959Z</time></trkpt><trkpt lat="44.4274838" lon="10.9245109"><ele>166.5</ele><time>2026-03-28T10:18:16.977Z</time></trkpt><trkpt lat="44.4273599" lon="10.9244894"><ele>166.0</ele><time>2026-03-28T10:18:17.976Z</time></trkpt><trkpt lat="44.4272315" lon="10.9244684"><ele>166.0</ele><time>2026-03-28T10:18:18.974Z</time></trkpt><trkpt lat="44.4270942" lon="10.9244461"><ele>166.0</ele><time>2026-03-28T10:18:19.975Z</time></trkpt><trkpt lat="44.4269484" lon="10.9244298"><ele>166.0</ele><time>2026-03-28T10:18:20.967Z</time></trkpt><trkpt lat="44.426783" lon="10.924411"><ele>166.0</ele><time>2026-03-28T10:18:21.973Z</time></trkpt><trkpt lat="44.4266059" lon="10.9243834"><ele>166.0</ele><time>2026-03-28T10:18:22.974Z</time></trkpt><trkpt lat="44.4264272" lon="10.9243504"><ele>166.0</ele><time>2026-03-28T10:18:23.972Z</time></trkpt><trkpt lat="44.4262413" lon="10.9243165"><ele>166.33333333333334</ele><time>2026-03-28T10:18:24.98Z</time></trkpt><trkpt lat="44.4260581" lon="10.9242799"><ele>166.66666666666666</ele><time>2026-03-28T10:18:25.973Z</time></trkpt><trkpt lat="44.4258745" lon="10.9242454"><ele>167.0</ele><time>2026-03-28T10:18:26.963Z</time></trkpt><trkpt lat="44.4256899" lon="10.924213"><ele>167.33333333333331</ele><time>2026-03-28T10:18:27.976Z</time></trkpt><trkpt lat="44.4255109" lon="10.9241827"><ele>167.66666666666666</ele><time>2026-03-28T10:18:28.973Z</time></trkpt><trkpt lat="44.425331" lon="10.9241512"><ele>168.0</ele><time>2026-03-28T10:18:29.972Z</time></trkpt><trkpt lat="44.4251515" lon="10.924122"><ele>168.66666666666666</ele><time>2026-03-28T10:18:30.982Z</time></trkpt><trkpt lat="44.4249732" lon="10.924095"><ele>169.33333333333331</ele><time>2026-03-28T10:18:31.978Z</time></trkpt><trkpt lat="44.4247835" lon="10.9240679"><ele>170.0</ele><time>2026-03-28T10:18:32.972Z</time></trkpt><trkpt lat="44.4245794" lon="10.9240563"><ele>171.0</ele><time>2026-03-28T10:18:33.975Z</time></trkpt><trkpt lat="44.4243582" lon="10.9240618"><ele>172.0</ele><time>2026-03-28T10:18:34.975Z</time></trkpt><trkpt lat="44.4241385" lon="10.9240841"><ele>173.0</ele><time>2026-03-28T10:18:35.954Z</time></trkpt><trkpt lat="44.4239129" lon="10.9241145"><ele>172.66666666666666</ele><time>2026-03-28T10:18:36.984Z</time></trkpt><trkpt lat="44.4237124" lon="10.9241418"><ele>172.33333333333334</ele><time>2026-03-28T10:18:37.973Z</time></trkpt><trkpt lat="44.4235266" lon="10.9241677"><ele>172.0</ele><time>2026-03-28T10:18:38.962Z</time></trkpt><trkpt lat="44.4233456" lon="10.9241983"><ele>172.0</ele><time>2026-03-28T10:18:39.958Z</time></trkpt><trkpt lat="44.4231634" lon="10.9242215"><ele>172.0</ele><time>2026-03-28T10:18:40.96Z</time></trkpt><trkpt lat="44.4229795" lon="10.9242386"><ele>172.0</ele><time>2026-03-28T10:18:41.975Z</time></trkpt><trkpt lat="44.4227926" lon="10.9242503"><ele>172.66666666666669</ele><time>2026-03-28T10:18:42.983Z</time></trkpt><trkpt lat="44.4226028" lon="10.9242528"><ele>173.33333333333334</ele><time>2026-03-28T10:18:43.97Z</time></trkpt><trkpt lat="44.4223997" lon="10.9242382"><ele>174.0</ele><time>2026-03-28T10:18:44.965Z</time></trkpt><trkpt lat="44.4221824" lon="10.9242039"><ele>173.0</ele><time>2026-03-28T10:18:45.981Z</time></trkpt><trkpt lat="44.4219614" lon="10.9241524"><ele>172.0</ele><time>2026-03-28T10:18:46.967Z</time></trkpt><trkpt lat="44.4217276" lon="10.924077"><ele>172.0</ele><time>2026-03-28T10:18:47.963Z</time></trkpt><trkpt lat="44.4214955" lon="10.9239935"><ele>172.0</ele><time>2026-03-28T10:18:48.966Z</time></trkpt><trkpt lat="44.4212725" lon="10.9239195"><ele>171.66666666666669</ele><time>2026-03-28T10:18:49.979Z</time></trkpt><trkpt lat="44.4210558" lon="10.9238501"><ele>171.33333333333334</ele><time>2026-03-28T10:18:50.992Z</time></trkpt><trkpt lat="44.4208511" lon="10.9237857"><ele>171.0</ele><time>2026-03-28T10:18:51.971Z</time></trkpt><trkpt lat="44.4206415" lon="10.923725"><ele>170.0</ele><time>2026-03-28T10:18:52.975Z</time></trkpt><trkpt lat="44.4204369" lon="10.9236592"><ele>169.0</ele><time>2026-03-28T10:18:53.974Z</time></trkpt><trkpt lat="44.4202397" lon="10.9235816"><ele>168.0</ele><time>2026-03-28T10:18:54.978Z</time></trkpt><trkpt lat="44.4200502" lon="10.9234946"><ele>168.0</ele><time>2026-03-28T10:18:55.97Z</time></trkpt><trkpt lat="44.4198624" lon="10.9234043"><ele>168.0</ele><time>2026-03-28T10:18:56.97Z</time></trkpt><trkpt lat="44.4196738" lon="10.9233124"><ele>168.0</ele><time>2026-03-28T10:18:57.993Z</time></trkpt><trkpt lat="44.4194977" lon="10.9232193"><ele>170.0</ele><time>2026-03-28T10:18:58.969Z</time></trkpt><trkpt lat="44.4193139" lon="10.9231116"><ele>172.0</ele><time>2026-03-28T10:18:59.967Z</time></trkpt><trkpt lat="44.4191347" lon="10.9229759"><ele>174.0</ele><time>2026-03-28T10:19:00.978Z</time></trkpt><trkpt lat="44.4189629" lon="10.922809"><ele>174.66666666666666</ele><time>2026-03-28T10:19:01.977Z</time></trkpt><trkpt lat="44.4188068" lon="10.9226169"><ele>175.33333333333331</ele><time>2026-03-28T10:19:02.995Z</time></trkpt><trkpt lat="44.4186702" lon="10.9224187"><ele>176.0</ele><time>2026-03-28T10:19:03.983Z</time></trkpt><trkpt lat="44.418554" lon="10.9222228"><ele>176.0</ele><time>2026-03-28T10:19:04.988Z</time></trkpt><trkpt lat="44.4184591" lon="10.9220526"><ele>176.0</ele><time>2026-03-28T10:19:05.972Z</time></trkpt><trkpt lat="44.418365" lon="10.9219022"><ele>176.0</ele><time>2026-03-28T10:19:06.976Z</time></trkpt><trkpt lat="44.4182728" lon="10.9217686"><ele>176.0</ele><time>2026-03-28T10:19:07.967Z</time></trkpt><trkpt lat="44.4181795" lon="10.9216538"><ele>176.5</ele><time>2026-03-28T10:19:08.983Z</time></trkpt><trkpt lat="44.4180851" lon="10.9215374"><ele>177.0</ele><time>2026-03-28T10:19:09.974Z</time></trkpt><trkpt lat="44.4179858" lon="10.9214219"><ele>177.5</ele><time>2026-03-28T10:19:10.951Z</time></trkpt><trkpt lat="44.4178734" lon="10.9212921"><ele>178.0</ele><time>2026-03-28T10:19:11.969Z</time></trkpt><trkpt lat="44.4177562" lon="10.9211656"><ele>178.0</ele><time>2026-03-28T10:19:12.965Z</time></trkpt><trkpt lat="44.4176332" lon="10.9210393"><ele>178.0</ele><time>2026-03-28T10:19:13.97Z</time></trkpt><trkpt lat="44.4175088" lon="10.9209119"><ele>178.0</ele><time>2026-03-28T10:19:14.977Z</time></trkpt><trkpt lat="44.4173764" lon="10.9207914"><ele>178.5</ele><time>2026-03-28T10:19:15.983Z</time></trkpt><trkpt lat="44.4172352" lon="10.9206931"><ele>179.0</ele><time>2026-03-28T10:19:16.976Z</time></trkpt><trkpt lat="44.4170994" lon="10.9206234"><ele>179.5</ele><time>2026-03-28T10:19:17.99Z</time></trkpt><trkpt lat="44.4169612" lon="10.9205622"><ele>180.0</ele><time>2026-03-28T10:19:18.974Z</time></trkpt><trkpt lat="44.4168267" lon="10.9205098"><ele>180.0</ele><time>2026-03-28T10:19:19.984Z</time></trkpt><trkpt lat="44.4167057" lon="10.9204673"><ele>180.0</ele><time>2026-03-28T10:19:20.983Z</time></trkpt><trkpt lat="44.4165932" lon="10.9204271"><ele>180.0</ele><time>2026-03-28T10:19:21.97Z</time></trkpt><trkpt lat="44.4164891" lon="10.9203885"><ele>180.0</ele><time>2026-03-28T10:19:22.968Z</time></trkpt><trkpt lat="44.4163843" lon="10.9203505"><ele>180.25</ele><time>2026-03-28T10:19:23.991Z</time></trkpt><trkpt lat="44.4162784" lon="10.9203002"><ele>180.5</ele><time>2026-03-28T10:19:24.966Z</time></trkpt><trkpt lat="44.4161855" lon="10.9202228"><ele>180.75</ele><time>2026-03-28T10:19:25.984Z</time></trkpt><trkpt lat="44.4160744" lon="10.9200985"><ele>181.0</ele><time>2026-03-28T10:19:26.968Z</time></trkpt><trkpt lat="44.41596" lon="10.9199285"><ele>181.0</ele><time>2026-03-28T10:19:27.975Z</time></trkpt><trkpt lat="44.4158478" lon="10.9197383"><ele>181.0</ele><time>2026-03-28T10:19:28.977Z</time></trkpt><trkpt lat="44.4157469" lon="10.9195569"><ele>181.0</ele><time>2026-03-28T10:19:29.974Z</time></trkpt><trkpt lat="44.4156389" lon="10.9194084"><ele>181.0</ele><time>2026-03-28T10:19:30.988Z</time></trkpt><trkpt lat="44.415511" lon="10.919303"><ele>181.0</ele><time>2026-03-28T10:19:31.982Z</time></trkpt><trkpt lat="44.4153675" lon="10.9192261"><ele>181.0</ele><time>2026-03-28T10:19:32.976Z</time></trkpt><trkpt lat="44.415222" lon="10.9191658"><ele>180.75</ele><time>2026-03-28T10:19:33.974Z</time></trkpt><trkpt lat="44.415071" lon="10.919109"><ele>180.5</ele><time>2026-03-28T10:19:34.973Z</time></trkpt><trkpt lat="44.414929" lon="10.9190569"><ele>180.25</ele><time>2026-03-28T10:19:35.986Z</time></trkpt><trkpt lat="44.4147986" lon="10.9190157"><ele>180.0</ele><time>2026-03-28T10:19:36.982Z</time></trkpt><trkpt lat="44.4146927" lon="10.9190127"><ele>184.0</ele><time>2026-03-28T10:19:37.989Z</time></trkpt><trkpt lat="44.4146055" lon="10.9190537"><ele>188.0</ele><time>2026-03-28T10:19:38.971Z</time></trkpt><trkpt lat="44.4145185" lon="10.9191463"><ele>192.0</ele><time>2026-03-28T10:19:39.975Z</time></trkpt><trkpt lat="44.4144651" lon="10.919289"><ele>196.0</ele><time>2026-03-28T10:19:40.982Z</time></trkpt><trkpt lat="44.4144318" lon="10.919467"><ele>200.0</ele><time>2026-03-28T10:19:41.971Z</time></trkpt><trkpt lat="44.414409" lon="10.9196581"><ele>200.0</ele><time>2026-03-28T10:19:42.979Z</time></trkpt><trkpt lat="44.4143732" lon="10.9198548"><ele>200.0</ele><time>2026-03-28T10:19:43.975Z</time></trkpt><trkpt lat="44.4143261" lon="10.9200529"><ele>200.0</ele><time>2026-03-28T10:19:44.973Z</time></trkpt><trkpt lat="44.4142749" lon="10.9202469"><ele>200.0</ele><time>2026-03-28T10:19:45.969Z</time></trkpt><trkpt lat="44.4142245" lon="10.9204376"><ele>197.25</ele><time>2026-03-28T10:19:46.986Z</time></trkpt><trkpt lat="44.4141753" lon="10.9205846"><ele>194.5</ele><time>2026-03-28T10:19:47.971Z</time></trkpt><trkpt lat="44.4140876" lon="10.9207376"><ele>191.75</ele><time>2026-03-28T10:19:48.975Z</time></trkpt><trkpt lat="44.4139753" lon="10.9208689"><ele>189.0</ele><time>2026-03-28T10:19:49.995Z</time></trkpt><trkpt lat="44.4138729" lon="10.9209729"><ele>188.75</ele><time>2026-03-28T10:19:50.975Z</time></trkpt><trkpt lat="44.4137644" lon="10.9210787"><ele>188.5</ele><time>2026-03-28T10:19:51.975Z</time></trkpt><trkpt lat="44.4136472" lon="10.921167"><ele>188.25</ele><time>2026-03-28T10:19:52.98Z</time></trkpt><trkpt lat="44.4135213" lon="10.9212292"><ele>188.0</ele><time>2026-03-28T10:19:53.981Z</time></trkpt><trkpt lat="44.4134032" lon="10.9212792"><ele>188.0</ele><time>2026-03-28T10:19:54.967Z</time></trkpt><trkpt lat="44.413308" lon="10.921332"><ele>188.0</ele><time>2026-03-28T10:19:55.969Z</time></trkpt><trkpt lat="44.4131637" lon="10.9213441"><ele>188.0</ele><time>2026-03-28T10:19:56.979Z</time></trkpt><trkpt lat="44.4130117" lon="10.9213287"><ele>188.0</ele><time>2026-03-28T10:19:57.969Z</time></trkpt><trkpt lat="44.4128527" lon="10.9212466"><ele>191.33333333333331</ele><time>2026-03-28T10:19:58.986Z</time></trkpt><trkpt lat="44.4126741" lon="10.9210255"><ele>194.66666666666666</ele><time>2026-03-28T10:19:59.988Z</time></trkpt><trkpt lat="44.4125334" lon="10.9209109"><ele>198.0</ele><time>2026-03-28T10:20:00.966Z</time></trkpt><trkpt lat="44.4124101" lon="10.9208218"><ele>198.60000000000002</ele><time>2026-03-28T10:20:01.985Z</time></trkpt><trkpt lat="44.4123037" lon="10.920744"><ele>199.20000000000002</ele><time>2026-03-28T10:20:02.99Z</time></trkpt><trkpt lat="44.4122091" lon="10.9206738"><ele>199.8</ele><time>2026-03-28T10:20:03.979Z</time></trkpt><trkpt lat="44.4121106" lon="10.9206058"><ele>200.4</ele><time>2026-03-28T10:20:04.976Z</time></trkpt><trkpt lat="44.4120025" lon="10.9205624"><ele>201.0</ele><time>2026-03-28T10:20:05.978Z</time></trkpt><trkpt lat="44.4118973" lon="10.9205592"><ele>201.0</ele><time>2026-03-28T10:20:06.98Z</time></trkpt><trkpt lat="44.4117779" lon="10.9206099"><ele>201.0</ele><time>2026-03-28T10:20:07.978Z</time></trkpt><trkpt lat="44.4116638" lon="10.9207333"><ele>201.0</ele><time>2026-03-28T10:20:08.973Z</time></trkpt><trkpt lat="44.4115555" lon="10.9208788"><ele>201.0</ele><time>2026-03-28T10:20:09.974Z</time></trkpt><trkpt lat="44.4114447" lon="10.9210301"><ele>200.0</ele><time>2026-03-28T10:20:10.973Z</time></trkpt><trkpt lat="44.4113275" lon="10.9211909"><ele>199.0</ele><time>2026-03-28T10:20:11.976Z</time></trkpt><trkpt lat="44.4112141" lon="10.9213394"><ele>198.0</ele><time>2026-03-28T10:20:12.992Z</time></trkpt><trkpt lat="44.4111155" lon="10.9214693"><ele>197.75</ele><time>2026-03-28T10:20:13.963Z</time></trkpt><trkpt lat="44.4110159" lon="10.9215793"><ele>197.5</ele><time>2026-03-28T10:20:14.969Z</time></trkpt><trkpt lat="44.4109112" lon="10.9216573"><ele>197.25</ele><time>2026-03-28T10:20:15.968Z</time></trkpt><trkpt lat="44.4108028" lon="10.9216972"><ele>197.0</ele><time>2026-03-28T10:20:16.971Z</time></trkpt><trkpt lat="44.4106748" lon="10.9217042"><ele>197.0</ele><time>2026-03-28T10:20:17.984Z</time></trkpt><trkpt lat="44.410534" lon="10.9216631"><ele>197.0</ele><time>2026-03-28T10:20:18.982Z</time></trkpt><trkpt lat="44.4104137" lon="10.9215833"><ele>197.0</ele><time>2026-03-28T10:20:19.96Z</time></trkpt><trkpt lat="44.4102806" lon="10.9214427"><ele>197.0</ele><time>2026-03-28T10:20:20.956Z</time></trkpt><trkpt lat="44.410164" lon="10.9212541"><ele>196.66666666666669</ele><time>2026-03-28T10:20:21.965Z</time></trkpt><trkpt lat="44.4100617" lon="10.9209808"><ele>196.33333333333331</ele><time>2026-03-28T10:20:22.989Z</time></trkpt><trkpt lat="44.4099732" lon="10.920736"><ele>196.0</ele><time>2026-03-28T10:20:23.98Z</time></trkpt><trkpt lat="44.4098714" lon="10.920575"><ele>196.0</ele><time>2026-03-28T10:20:24.965Z</time></trkpt><trkpt lat="44.4097577" lon="10.9204386"><ele>196.0</ele><time>2026-03-28T10:20:25.982Z</time></trkpt><trkpt lat="44.4096052" lon="10.9203636"><ele>196.0</ele><time>2026-03-28T10:20:26.966Z</time></trkpt><trkpt lat="44.4094282" lon="10.9203248"><ele>194.33333333333331</ele><time>2026-03-28T10:20:27.988Z</time></trkpt><trkpt lat="44.4092412" lon="10.9203769"><ele>192.66666666666666</ele><time>2026-03-28T10:20:28.976Z</time></trkpt><trkpt lat="44.4090227" lon="10.9204933"><ele>191.0</ele><time>2026-03-28T10:20:29.998Z</time></trkpt><trkpt lat="44.4088514" lon="10.9205278"><ele>192.33333333333331</ele><time>2026-03-28T10:20:30.96Z</time></trkpt><trkpt lat="44.4086656" lon="10.9205645"><ele>193.66666666666666</ele><time>2026-03-28T10:20:31.973Z</time></trkpt><trkpt lat="44.4085046" lon="10.9206105"><ele>195.0</ele><time>2026-03-28T10:20:32.971Z</time></trkpt><trkpt lat="44.4083411" lon="10.9206472"><ele>195.0</ele><time>2026-03-28T10:20:33.985Z</time></trkpt><trkpt lat="44.4081854" lon="10.9206556"><ele>195.0</ele><time>2026-03-28T10:20:34.984Z</time></trkpt><trkpt lat="44.4080324" lon="10.9206518"><ele>195.0</ele><time>2026-03-28T10:20:35.965Z</time></trkpt><trkpt lat="44.4078761" lon="10.9206387"><ele>194.8</ele><time>2026-03-28T10:20:36.979Z</time></trkpt><trkpt lat="44.4077576" lon="10.9206407"><ele>194.6</ele><time>2026-03-28T10:20:37.966Z</time></trkpt><trkpt lat="44.4076879" lon="10.9206764"><ele>194.39999999999998</ele><time>2026-03-28T10:20:38.975Z</time></trkpt><trkpt lat="44.4076192" lon="10.9206986"><ele>194.2</ele><time>2026-03-28T10:20:39.971Z</time></trkpt><trkpt lat="44.4075064" lon="10.9206916"><ele>194.0</ele><time>2026-03-28T10:20:41.01Z</time></trkpt><trkpt lat="44.4074243" lon="10.9206594"><ele>194.0</ele><time>2026-03-28T10:20:41.963Z</time></trkpt><trkpt lat="44.4072951" lon="10.9205926"><ele>194.0</ele><time>2026-03-28T10:20:42.981Z</time></trkpt><trkpt lat="44.407163" lon="10.920519"><ele>194.0</ele><time>2026-03-28T10:20:43.958Z</time></trkpt><trkpt lat="44.4070172" lon="10.9204299"><ele>194.0</ele><time>2026-03-28T10:20:44.971Z</time></trkpt><trkpt lat="44.4068526" lon="10.9203456"><ele>191.66666666666669</ele><time>2026-03-28T10:20:45.976Z</time></trkpt><trkpt lat="44.4066623" lon="10.9202732"><ele>189.33333333333334</ele><time>2026-03-28T10:20:46.978Z</time></trkpt><trkpt lat="44.406456" lon="10.920214"><ele>187.0</ele><time>2026-03-28T10:20:47.968Z</time></trkpt><trkpt lat="44.4062586" lon="10.9201687"><ele>186.33333333333334</ele><time>2026-03-28T10:20:48.969Z</time></trkpt><trkpt lat="44.4060759" lon="10.9201351"><ele>185.66666666666666</ele><time>2026-03-28T10:20:49.973Z</time></trkpt><trkpt lat="44.4059048" lon="10.9201118"><ele>185.0</ele><time>2026-03-28T10:20:50.967Z</time></trkpt><trkpt lat="44.405727" lon="10.9200935"><ele>185.0</ele><time>2026-03-28T10:20:51.982Z</time></trkpt><trkpt lat="44.4055419" lon="10.9200894"><ele>185.0</ele><time>2026-03-28T10:20:52.974Z</time></trkpt><trkpt lat="44.4053587" lon="10.9201067"><ele>185.0</ele><time>2026-03-28T10:20:53.97Z</time></trkpt><trkpt lat="44.4051882" lon="10.9201395"><ele>185.25</ele><time>2026-03-28T10:20:54.964Z</time></trkpt><trkpt lat="44.4050329" lon="10.9201645"><ele>185.5</ele><time>2026-03-28T10:20:55.978Z</time></trkpt><trkpt lat="44.4048983" lon="10.9201874"><ele>185.75</ele><time>2026-03-28T10:20:56.975Z</time></trkpt><trkpt lat="44.4047831" lon="10.9202055"><ele>186.0</ele><time>2026-03-28T10:20:57.977Z</time></trkpt><trkpt lat="44.4046831" lon="10.9202226"><ele>186.4</ele><time>2026-03-28T10:20:58.971Z</time></trkpt><trkpt lat="44.4045886" lon="10.9202385"><ele>186.8</ele><time>2026-03-28T10:20:59.987Z</time></trkpt><trkpt lat="44.404501" lon="10.9202704"><ele>187.20000000000002</ele><time>2026-03-28T10:21:00.977Z</time></trkpt><trkpt lat="44.4044203" lon="10.9203098"><ele>187.60000000000002</ele><time>2026-03-28T10:21:01.977Z</time></trkpt><trkpt lat="44.404338" lon="10.9203681"><ele>188.0</ele><time>2026-03-28T10:21:02.984Z</time></trkpt><trkpt lat="44.4042582" lon="10.9204428"><ele>188.0</ele><time>2026-03-28T10:21:03.973Z</time></trkpt><trkpt lat="44.4041722" lon="10.9205236"><ele>188.0</ele><time>2026-03-28T10:21:04.975Z</time></trkpt><trkpt lat="44.4040796" lon="10.9206129"><ele>188.0</ele><time>2026-03-28T10:21:05.967Z</time></trkpt><trkpt lat="44.4039852" lon="10.9207114"><ele>188.0</ele><time>2026-03-28T10:21:06.978Z</time></trkpt><trkpt lat="44.4038823" lon="10.9208203"><ele>187.75</ele><time>2026-03-28T10:21:07.958Z</time></trkpt><trkpt lat="44.4037749" lon="10.9209422"><ele>187.5</ele><time>2026-03-28T10:21:08.982Z</time></trkpt><trkpt lat="44.4036701" lon="10.9210469"><ele>187.25</ele><time>2026-03-28T10:21:09.969Z</time></trkpt><trkpt lat="44.4035583" lon="10.9211322"><ele>187.0</ele><time>2026-03-28T10:21:10.979Z</time></trkpt><trkpt lat="44.4034593" lon="10.9211722"><ele>187.0</ele><time>2026-03-28T10:21:11.981Z</time></trkpt><trkpt lat="44.4033354" lon="10.921201"><ele>187.0</ele><time>2026-03-28T10:21:12.981Z</time></trkpt><trkpt lat="44.4031859" lon="10.9212133"><ele>187.0</ele><time>2026-03-28T10:21:13.978Z</time></trkpt><trkpt lat="44.4029912" lon="10.9212159"><ele>185.5</ele><time>2026-03-28T10:21:14.989Z</time></trkpt><trkpt lat="44.4027564" lon="10.9212174"><ele>184.0</ele><time>2026-03-28T10:21:15.981Z</time></trkpt><trkpt lat="44.4025159" lon="10.9212186"><ele>184.0</ele><time>2026-03-28T10:21:16.971Z</time></trkpt><trkpt lat="44.4022783" lon="10.9212284"><ele>184.0</ele><time>2026-03-28T10:21:17.975Z</time></trkpt><trkpt lat="44.4020595" lon="10.9212513"><ele>184.33333333333334</ele><time>2026-03-28T10:21:18.976Z</time></trkpt><trkpt lat="44.4018613" lon="10.9212692"><ele>184.66666666666666</ele><time>2026-03-28T10:21:19.974Z</time></trkpt><trkpt lat="44.4016874" lon="10.9212865"><ele>185.0</ele><time>2026-03-28T10:21:20.96Z</time></trkpt><trkpt lat="44.4015315" lon="10.9213087"><ele>185.0</ele><time>2026-03-28T10:21:21.972Z</time></trkpt><trkpt lat="44.4014028" lon="10.9213172"><ele>185.0</ele><time>2026-03-28T10:21:22.977Z</time></trkpt><trkpt lat="44.4012766" lon="10.9213178"><ele>185.0</ele><time>2026-03-28T10:21:23.982Z</time></trkpt><trkpt lat="44.4011574" lon="10.9212933"><ele>185.0</ele><time>2026-03-28T10:21:24.977Z</time></trkpt><trkpt lat="44.401037" lon="10.9212498"><ele>185.0</ele><time>2026-03-28T10:21:25.96Z</time></trkpt><trkpt lat="44.4009138" lon="10.9211919"><ele>185.0</ele><time>2026-03-28T10:21:26.962Z</time></trkpt><trkpt lat="44.4007853" lon="10.9211204"><ele>185.0</ele><time>2026-03-28T10:21:27.982Z</time></trkpt><trkpt lat="44.4006609" lon="10.9210513"><ele>185.0</ele><time>2026-03-28T10:21:28.97Z</time></trkpt><trkpt lat="44.4005358" lon="10.9209833"><ele>185.0</ele><time>2026-03-28T10:21:29.979Z</time></trkpt><trkpt lat="44.4004237" lon="10.9209207"><ele>185.0</ele><time>2026-03-28T10:21:30.951Z</time></trkpt><trkpt lat="44.4003163" lon="10.9208558"><ele>185.0</ele><time>2026-03-28T10:21:31.971Z</time></trkpt><trkpt lat="44.4002064" lon="10.9207896"><ele>185.0</ele><time>2026-03-28T10:21:32.98Z</time></trkpt><trkpt lat="44.4000981" lon="10.9207135"><ele>186.0</ele><time>2026-03-28T10:21:33.975Z</time></trkpt><trkpt lat="44.3999949" lon="10.9206249"><ele>187.0</ele><time>2026-03-28T10:21:34.965Z</time></trkpt><trkpt lat="44.3998931" lon="10.9205194"><ele>188.0</ele><time>2026-03-28T10:21:35.979Z</time></trkpt><trkpt lat="44.3997941" lon="10.9204124"><ele>189.0</ele><time>2026-03-28T10:21:36.964Z</time></trkpt><trkpt lat="44.3996859" lon="10.9203069"><ele>189.0</ele><time>2026-03-28T10:21:37.991Z</time></trkpt><trkpt lat="44.3995668" lon="10.9202149"><ele>189.0</ele><time>2026-03-28T10:21:38.958Z</time></trkpt><trkpt lat="44.3994318" lon="10.9201329"><ele>189.0</ele><time>2026-03-28T10:21:39.968Z</time></trkpt><trkpt lat="44.3992927" lon="10.9200554"><ele>189.0</ele><time>2026-03-28T10:21:40.983Z</time></trkpt><trkpt lat="44.3991595" lon="10.9199901"><ele>189.0</ele><time>2026-03-28T10:21:41.964Z</time></trkpt><trkpt lat="44.3990322" lon="10.9199286"><ele>189.0</ele><time>2026-03-28T10:21:42.987Z</time></trkpt><trkpt lat="44.3989149" lon="10.9198733"><ele>189.0</ele><time>2026-03-28T10:21:43.984Z</time></trkpt><trkpt lat="44.3988017" lon="10.919821"><ele>189.0</ele><time>2026-03-28T10:21:44.967Z</time></trkpt><trkpt lat="44.3986884" lon="10.9197736"><ele>189.0</ele><time>2026-03-28T10:21:45.996Z</time></trkpt><trkpt lat="44.3985804" lon="10.9197289"><ele>189.0</ele><time>2026-03-28T10:21:46.967Z</time></trkpt><trkpt lat="44.3984609" lon="10.9196753"><ele>189.0</ele><time>2026-03-28T10:21:47.975Z</time></trkpt><trkpt lat="44.3983342" lon="10.9196206"><ele>189.0</ele><time>2026-03-28T10:21:48.979Z</time></trkpt><trkpt lat="44.398204" lon="10.9195663"><ele>189.0</ele><time>2026-03-28T10:21:49.981Z</time></trkpt><trkpt lat="44.3980769" lon="10.9195122"><ele>189.0</ele><time>2026-03-28T10:21:50.968Z</time></trkpt><trkpt lat="44.3979459" lon="10.9194624"><ele>189.0</ele><time>2026-03-28T10:21:51.992Z</time></trkpt><trkpt lat="44.3978194" lon="10.9194265"><ele>189.0</ele><time>2026-03-28T10:21:52.991Z</time></trkpt><trkpt lat="44.3976981" lon="10.9194176"><ele>189.5</ele><time>2026-03-28T10:21:53.981Z</time></trkpt><trkpt lat="44.3975752" lon="10.9194262"><ele>190.0</ele><time>2026-03-28T10:21:54.977Z</time></trkpt><trkpt lat="44.3974542" lon="10.9194468"><ele>190.5</ele><time>2026-03-28T10:21:55.973Z</time></trkpt><trkpt lat="44.3973309" lon="10.919475"><ele>191.0</ele><time>2026-03-28T10:21:56.981Z</time></trkpt><trkpt lat="44.3972012" lon="10.9195026"><ele>191.5</ele><time>2026-03-28T10:21:57.973Z</time></trkpt><trkpt lat="44.397065" lon="10.9195189"><ele>192.0</ele><time>2026-03-28T10:21:58.975Z</time></trkpt><trkpt lat="44.3969268" lon="10.9195213"><ele>192.5</ele><time>2026-03-28T10:21:59.973Z</time></trkpt><trkpt lat="44.3967824" lon="10.9195068"><ele>193.0</ele><time>2026-03-28T10:22:00.992Z</time></trkpt><trkpt lat="44.3966392" lon="10.9194802"><ele>193.0</ele><time>2026-03-28T10:22:01.979Z</time></trkpt><trkpt lat="44.396499" lon="10.9194368"><ele>193.0</ele><time>2026-03-28T10:22:02.972Z</time></trkpt><trkpt lat="44.3963542" lon="10.9193713"><ele>193.0</ele><time>2026-03-28T10:22:03.989Z</time></trkpt><trkpt lat="44.3962212" lon="10.9192945"><ele>193.0</ele><time>2026-03-28T10:22:04.973Z</time></trkpt><trkpt lat="44.3960966" lon="10.9192203"><ele>196.0</ele><time>2026-03-28T10:22:05.989Z</time></trkpt><trkpt lat="44.3959866" lon="10.9191564"><ele>199.0</ele><time>2026-03-28T10:22:06.985Z</time></trkpt><trkpt lat="44.3958862" lon="10.9190972"><ele>202.0</ele><time>2026-03-28T10:22:07.953Z</time></trkpt><trkpt lat="44.3957775" lon="10.9190296"><ele>205.0</ele><time>2026-03-28T10:22:08.979Z</time></trkpt><trkpt lat="44.3956676" lon="10.9189633"><ele>205.0</ele><time>2026-03-28T10:22:09.963Z</time></trkpt><trkpt lat="44.395541" lon="10.9188855"><ele>205.0</ele><time>2026-03-28T10:22:11.001Z</time></trkpt><trkpt lat="44.3954168" lon="10.9188084"><ele>205.0</ele><time>2026-03-28T10:22:11.983Z</time></trkpt><trkpt lat="44.3952943" lon="10.91873"><ele>205.0</ele><time>2026-03-28T10:22:12.982Z</time></trkpt><trkpt lat="44.3951659" lon="10.9186629"><ele>204.0</ele><time>2026-03-28T10:22:13.972Z</time></trkpt><trkpt lat="44.3950305" lon="10.9186025"><ele>203.0</ele><time>2026-03-28T10:22:14.982Z</time></trkpt><trkpt lat="44.3948964" lon="10.918551"><ele>202.0</ele><time>2026-03-28T10:22:15.973Z</time></trkpt><trkpt lat="44.3947588" lon="10.9185013"><ele>201.0</ele><time>2026-03-28T10:22:16.976Z</time></trkpt><trkpt lat="44.3946242" lon="10.9184519"><ele>199.75</ele><time>2026-03-28T10:22:17.981Z</time></trkpt><trkpt lat="44.3944885" lon="10.9184034"><ele>198.5</ele><time>2026-03-28T10:22:18.983Z</time></trkpt><trkpt lat="44.3943532" lon="10.918358"><ele>197.25</ele><time>2026-03-28T10:22:19.988Z</time></trkpt><trkpt lat="44.3942168" lon="10.9183156"><ele>196.0</ele><time>2026-03-28T10:22:20.975Z</time></trkpt><trkpt lat="44.3940848" lon="10.9182705"><ele>198.75</ele><time>2026-03-28T10:22:21.987Z</time></trkpt><trkpt lat="44.3939565" lon="10.9182254"><ele>201.5</ele><time>2026-03-28T10:22:22.98Z</time></trkpt><trkpt lat="44.3938287" lon="10.9181817"><ele>204.25</ele><time>2026-03-28T10:22:23.956Z</time></trkpt><trkpt lat="44.3936938" lon="10.9181357"><ele>207.0</ele><time>2026-03-28T10:22:24.978Z</time></trkpt><trkpt lat="44.3935585" lon="10.918089"><ele>207.0</ele><time>2026-03-28T10:22:25.983Z</time></trkpt><trkpt lat="44.3934223" lon="10.9180435"><ele>207.0</ele><time>2026-03-28T10:22:26.993Z</time></trkpt><trkpt lat="44.3932883" lon="10.9179992"><ele>207.0</ele><time>2026-03-28T10:22:27.992Z</time></trkpt><trkpt lat="44.393157" lon="10.9179551"><ele>207.0</ele><time>2026-03-28T10:22:28.961Z</time></trkpt><trkpt lat="44.3930158" lon="10.9179086"><ele>205.5</ele><time>2026-03-28T10:22:29.989Z</time></trkpt><trkpt lat="44.3928814" lon="10.9178609"><ele>204.0</ele><time>2026-03-28T10:22:30.97Z</time></trkpt><trkpt lat="44.3927492" lon="10.9178098"><ele>202.5</ele><time>2026-03-28T10:22:31.977Z</time></trkpt><trkpt lat="44.3926082" lon="10.9177632"><ele>201.0</ele><time>2026-03-28T10:22:32.994Z</time></trkpt><trkpt lat="44.3924549" lon="10.9177104"><ele>201.0</ele><time>2026-03-28T10:22:33.978Z</time></trkpt><trkpt lat="44.3922709" lon="10.9176429"><ele>201.0</ele><time>2026-03-28T10:22:34.983Z</time></trkpt><trkpt lat="44.3920688" lon="10.9175626"><ele>201.0</ele><time>2026-03-28T10:22:35.959Z</time></trkpt><trkpt lat="44.391849" lon="10.9174715"><ele>204.0</ele><time>2026-03-28T10:22:36.978Z</time></trkpt><trkpt lat="44.3916212" lon="10.9173793"><ele>207.0</ele><time>2026-03-28T10:22:37.965Z</time></trkpt><trkpt lat="44.3913617" lon="10.9172768"><ele>203.0</ele><time>2026-03-28T10:22:38.98Z</time></trkpt><trkpt lat="44.3910824" lon="10.9171625"><ele>199.0</ele><time>2026-03-28T10:22:39.985Z</time></trkpt><trkpt lat="44.390796" lon="10.9170393"><ele>199.0</ele><time>2026-03-28T10:22:40.975Z</time></trkpt><trkpt lat="44.3905156" lon="10.9169148"><ele>199.0</ele><time>2026-03-28T10:22:41.976Z</time></trkpt><trkpt lat="44.3902584" lon="10.9168012"><ele>199.5</ele><time>2026-03-28T10:22:42.975Z</time></trkpt><trkpt lat="44.3900184" lon="10.916678"><ele>200.0</ele><time>2026-03-28T10:22:43.987Z</time></trkpt><trkpt lat="44.3897988" lon="10.9165632"><ele>197.0</ele><time>2026-03-28T10:22:44.973Z</time></trkpt><trkpt lat="44.3895856" lon="10.9164506"><ele>194.0</ele><time>2026-03-28T10:22:45.967Z</time></trkpt><trkpt lat="44.3893767" lon="10.9163414"><ele>194.0</ele><time>2026-03-28T10:22:46.973Z</time></trkpt><trkpt lat="44.3891754" lon="10.9162287"><ele>194.0</ele><time>2026-03-28T10:22:47.992Z</time></trkpt><trkpt lat="44.3889954" lon="10.9161113"><ele>194.0</ele><time>2026-03-28T10:22:48.967Z</time></trkpt><trkpt lat="44.3888088" lon="10.9159706"><ele>194.33333333333334</ele><time>2026-03-28T10:22:49.978Z</time></trkpt><trkpt lat="44.3886243" lon="10.9158096"><ele>194.66666666666669</ele><time>2026-03-28T10:22:50.99Z</time></trkpt><trkpt lat="44.3884375" lon="10.9156393"><ele>195.0</ele><time>2026-03-28T10:22:51.985Z</time></trkpt><trkpt lat="44.3882526" lon="10.9154687"><ele>195.0</ele><time>2026-03-28T10:22:52.972Z</time></trkpt><trkpt lat="44.3880561" lon="10.9152906"><ele>195.0</ele><time>2026-03-28T10:22:53.984Z</time></trkpt><trkpt lat="44.3878612" lon="10.9151096"><ele>195.0</ele><time>2026-03-28T10:22:55.004Z</time></trkpt><trkpt lat="44.3876785" lon="10.9149402"><ele>195.0</ele><time>2026-03-28T10:22:55.969Z</time></trkpt><trkpt lat="44.3874856" lon="10.9147645"><ele>195.0</ele><time>2026-03-28T10:22:56.994Z</time></trkpt><trkpt lat="44.3873025" lon="10.9145954"><ele>194.66666666666669</ele><time>2026-03-28T10:22:57.984Z</time></trkpt><trkpt lat="44.3871177" lon="10.9144268"><ele>194.33333333333334</ele><time>2026-03-28T10:22:58.994Z</time></trkpt><trkpt lat="44.386939" lon="10.9142638"><ele>194.0</ele><time>2026-03-28T10:22:59.969Z</time></trkpt><trkpt lat="44.386752" lon="10.9140917"><ele>194.0</ele><time>2026-03-28T10:23:00.971Z</time></trkpt><trkpt lat="44.3865629" lon="10.9139203"><ele>194.0</ele><time>2026-03-28T10:23:01.979Z</time></trkpt><trkpt lat="44.386376" lon="10.9137502"><ele>194.0</ele><time>2026-03-28T10:23:02.97Z</time></trkpt><trkpt lat="44.3861889" lon="10.9135757"><ele>194.0</ele><time>2026-03-28T10:23:03.98Z</time></trkpt><trkpt lat="44.3860061" lon="10.9134075"><ele>194.0</ele><time>2026-03-28T10:23:04.973Z</time></trkpt><trkpt lat="44.3858234" lon="10.9132386"><ele>194.0</ele><time>2026-03-28T10:23:05.991Z</time></trkpt><trkpt lat="44.3856534" lon="10.9130813"><ele>195.0</ele><time>2026-03-28T10:23:06.965Z</time></trkpt><trkpt lat="44.3854816" lon="10.9129323"><ele>196.0</ele><time>2026-03-28T10:23:07.979Z</time></trkpt><trkpt lat="44.3853102" lon="10.9128173"><ele>197.0</ele><time>2026-03-28T10:23:08.983Z</time></trkpt><trkpt lat="44.3851318" lon="10.9127221"><ele>197.0</ele><time>2026-03-28T10:23:09.971Z</time></trkpt><trkpt lat="44.3849414" lon="10.9126424"><ele>197.0</ele><time>2026-03-28T10:23:10.972Z</time></trkpt><trkpt lat="44.384749" lon="10.9125788"><ele>197.0</ele><time>2026-03-28T10:23:11.976Z</time></trkpt><trkpt lat="44.3845587" lon="10.9125243"><ele>199.0</ele><time>2026-03-28T10:23:12.988Z</time></trkpt><trkpt lat="44.3843781" lon="10.9124706"><ele>201.0</ele><time>2026-03-28T10:23:13.986Z</time></trkpt><trkpt lat="44.384201" lon="10.9124196"><ele>203.0</ele><time>2026-03-28T10:23:14.968Z</time></trkpt><trkpt lat="44.3840159" lon="10.9123654"><ele>201.66666666666669</ele><time>2026-03-28T10:23:15.992Z</time></trkpt><trkpt lat="44.3838372" lon="10.9123124"><ele>200.33333333333331</ele><time>2026-03-28T10:23:16.977Z</time></trkpt><trkpt lat="44.3836573" lon="10.9122587"><ele>199.0</ele><time>2026-03-28T10:23:17.97Z</time></trkpt><trkpt lat="44.3834686" lon="10.9122064"><ele>199.0</ele><time>2026-03-28T10:23:18.984Z</time></trkpt><trkpt lat="44.3832763" lon="10.9121581"><ele>199.0</ele><time>2026-03-28T10:23:19.979Z</time></trkpt><trkpt lat="44.383079" lon="10.9121174"><ele>199.0</ele><time>2026-03-28T10:23:20.974Z</time></trkpt><trkpt lat="44.3828803" lon="10.9121009"><ele>200.0</ele><time>2026-03-28T10:23:21.956Z</time></trkpt><trkpt lat="44.3826698" lon="10.9121043"><ele>201.0</ele><time>2026-03-28T10:23:22.969Z</time></trkpt><trkpt lat="44.3824639" lon="10.9121232"><ele>202.0</ele><time>2026-03-28T10:23:23.955Z</time></trkpt><trkpt lat="44.3822494" lon="10.9121493"><ele>203.66666666666666</ele><time>2026-03-28T10:23:24.97Z</time></trkpt><trkpt lat="44.3820344" lon="10.9121887"><ele>205.33333333333331</ele><time>2026-03-28T10:23:25.974Z</time></trkpt><trkpt lat="44.3818284" lon="10.9122385"><ele>207.0</ele><time>2026-03-28T10:23:26.967Z</time></trkpt><trkpt lat="44.3816302" lon="10.9122959"><ele>207.0</ele><time>2026-03-28T10:23:27.97Z</time></trkpt><trkpt lat="44.3814439" lon="10.9123525"><ele>207.0</ele><time>2026-03-28T10:23:28.972Z</time></trkpt><trkpt lat="44.3812645" lon="10.9124095"><ele>207.0</ele><time>2026-03-28T10:23:29.971Z</time></trkpt><trkpt lat="44.3810855" lon="10.9124616"><ele>208.66666666666669</ele><time>2026-03-28T10:23:30.972Z</time></trkpt><trkpt lat="44.3809024" lon="10.9125138"><ele>210.33333333333334</ele><time>2026-03-28T10:23:31.986Z</time></trkpt><trkpt lat="44.3807233" lon="10.912571"><ele>212.0</ele><time>2026-03-28T10:23:32.987Z</time></trkpt><trkpt lat="44.3805443" lon="10.9126369"><ele>210.0</ele><time>2026-03-28T10:23:33.982Z</time></trkpt><trkpt lat="44.3803668" lon="10.912707"><ele>208.0</ele><time>2026-03-28T10:23:34.97Z</time></trkpt><trkpt lat="44.3801883" lon="10.9127809"><ele>206.0</ele><time>2026-03-28T10:23:35.98Z</time></trkpt><trkpt lat="44.3800148" lon="10.9128649"><ele>206.0</ele><time>2026-03-28T10:23:36.977Z</time></trkpt><trkpt lat="44.3798434" lon="10.912979"><ele>206.0</ele><time>2026-03-28T10:23:37.973Z</time></trkpt><trkpt lat="44.3796756" lon="10.9131244"><ele>206.0</ele><time>2026-03-28T10:23:38.967Z</time></trkpt><trkpt lat="44.3795066" lon="10.913285"><ele>207.0</ele><time>2026-03-28T10:23:39.985Z</time></trkpt><trkpt lat="44.3793422" lon="10.9134514"><ele>208.0</ele><time>2026-03-28T10:23:40.978Z</time></trkpt><trkpt lat="44.379184" lon="10.9136227"><ele>209.0</ele><time>2026-03-28T10:23:41.976Z</time></trkpt><trkpt lat="44.3790314" lon="10.913791"><ele>209.0</ele><time>2026-03-28T10:23:42.96Z</time></trkpt><trkpt lat="44.378878" lon="10.9139623"><ele>209.0</ele><time>2026-03-28T10:23:43.974Z</time></trkpt><trkpt lat="44.3787309" lon="10.9141299"><ele>209.0</ele><time>2026-03-28T10:23:44.967Z</time></trkpt><trkpt lat="44.3785849" lon="10.9142953"><ele>210.0</ele><time>2026-03-28T10:23:45.96Z</time></trkpt><trkpt lat="44.3784364" lon="10.9144646"><ele>211.0</ele><time>2026-03-28T10:23:46.994Z</time></trkpt><trkpt lat="44.3782989" lon="10.9146207"><ele>212.0</ele><time>2026-03-28T10:23:47.975Z</time></trkpt><trkpt lat="44.3781647" lon="10.9147722"><ele>212.0</ele><time>2026-03-28T10:23:48.987Z</time></trkpt><trkpt lat="44.3780415" lon="10.9148981"><ele>212.0</ele><time>2026-03-28T10:23:49.981Z</time></trkpt><trkpt lat="44.3779133" lon="10.9150096"><ele>212.0</ele><time>2026-03-28T10:23:50.981Z</time></trkpt><trkpt lat="44.3777916" lon="10.9151052"><ele>212.0</ele><time>2026-03-28T10:23:52.001Z</time></trkpt><trkpt lat="44.3776777" lon="10.9151835"><ele>212.5</ele><time>2026-03-28T10:23:52.979Z</time></trkpt><trkpt lat="44.3775606" lon="10.9152599"><ele>213.0</ele><time>2026-03-28T10:23:53.971Z</time></trkpt><trkpt lat="44.3774301" lon="10.9153365"><ele>213.5</ele><time>2026-03-28T10:23:54.989Z</time></trkpt><trkpt lat="44.3772919" lon="10.9154032"><ele>214.0</ele><time>2026-03-28T10:23:55.97Z</time></trkpt><trkpt lat="44.3771374" lon="10.9154673"><ele>215.0</ele><time>2026-03-28T10:23:56.974Z</time></trkpt><trkpt lat="44.3769953" lon="10.9155259"><ele>216.0</ele><time>2026-03-28T10:23:57.965Z</time></trkpt><trkpt lat="44.3768592" lon="10.9155761"><ele>217.0</ele><time>2026-03-28T10:23:58.974Z</time></trkpt><trkpt lat="44.3767416" lon="10.9156188"><ele>218.0</ele><time>2026-03-28T10:23:59.986Z</time></trkpt><trkpt lat="44.3766422" lon="10.9156446"><ele>218.0</ele><time>2026-03-28T10:24:00.976Z</time></trkpt><trkpt lat="44.3765492" lon="10.9156588"><ele>218.0</ele><time>2026-03-28T10:24:01.979Z</time></trkpt><trkpt lat="44.3764673" lon="10.9156573"><ele>218.0</ele><time>2026-03-28T10:24:02.961Z</time></trkpt><trkpt lat="44.3763763" lon="10.9156404"><ele>218.0</ele><time>2026-03-28T10:24:03.972Z</time></trkpt><trkpt lat="44.3762772" lon="10.9156094"><ele>218.0</ele><time>2026-03-28T10:24:04.969Z</time></trkpt><trkpt lat="44.3761825" lon="10.9155554"><ele>216.25</ele><time>2026-03-28T10:24:05.991Z</time></trkpt><trkpt lat="44.3761025" lon="10.9154743"><ele>214.5</ele><time>2026-03-28T10:24:06.977Z</time></trkpt><trkpt lat="44.376014" lon="10.9153697"><ele>212.75</ele><time>2026-03-28T10:24:07.963Z</time></trkpt><trkpt lat="44.3759255" lon="10.915254"><ele>211.0</ele><time>2026-03-28T10:24:08.969Z</time></trkpt><trkpt lat="44.3758394" lon="10.9151498"><ele>211.60000000000002</ele><time>2026-03-28T10:24:09.977Z</time></trkpt><trkpt lat="44.3757566" lon="10.9150524"><ele>212.2</ele><time>2026-03-28T10:24:10.974Z</time></trkpt><trkpt lat="44.3756717" lon="10.9149641"><ele>212.79999999999998</ele><time>2026-03-28T10:24:11.968Z</time></trkpt><trkpt lat="44.3755828" lon="10.9148884"><ele>213.39999999999998</ele><time>2026-03-28T10:24:12.975Z</time></trkpt><trkpt lat="44.3754896" lon="10.9148306"><ele>214.0</ele><time>2026-03-28T10:24:13.973Z</time></trkpt><trkpt lat="44.3753856" lon="10.9147895"><ele>214.0</ele><time>2026-03-28T10:24:14.983Z</time></trkpt><trkpt lat="44.3752598" lon="10.9147387"><ele>214.0</ele><time>2026-03-28T10:24:15.969Z</time></trkpt><trkpt lat="44.3751041" lon="10.9146648"><ele>214.0</ele><time>2026-03-28T10:24:16.966Z</time></trkpt><trkpt lat="44.3749176" lon="10.9145594"><ele>214.0</ele><time>2026-03-28T10:24:17.99Z</time></trkpt><trkpt lat="44.3747203" lon="10.9144384"><ele>214.0</ele><time>2026-03-28T10:24:18.981Z</time></trkpt><trkpt lat="44.3745349" lon="10.914324"><ele>214.0</ele><time>2026-03-28T10:24:19.97Z</time></trkpt><trkpt lat="44.374361" lon="10.9142189"><ele>214.66666666666666</ele><time>2026-03-28T10:24:20.99Z</time></trkpt><trkpt lat="44.3742017" lon="10.9141269"><ele>215.33333333333331</ele><time>2026-03-28T10:24:21.978Z</time></trkpt><trkpt lat="44.3740367" lon="10.9140559"><ele>216.0</ele><time>2026-03-28T10:24:22.972Z</time></trkpt><trkpt lat="44.3738482" lon="10.9140063"><ele>216.0</ele><time>2026-03-28T10:24:23.98Z</time></trkpt><trkpt lat="44.3736487" lon="10.91398"><ele>216.0</ele><time>2026-03-28T10:24:24.982Z</time></trkpt><trkpt lat="44.3734285" lon="10.9139992"><ele>216.0</ele><time>2026-03-28T10:24:25.973Z</time></trkpt><trkpt lat="44.3731803" lon="10.9140519"><ele>217.5</ele><time>2026-03-28T10:24:26.967Z</time></trkpt><trkpt lat="44.3729076" lon="10.9141227"><ele>219.0</ele><time>2026-03-28T10:24:27.964Z</time></trkpt><trkpt lat="44.3726232" lon="10.9141767"><ele>219.0</ele><time>2026-03-28T10:24:28.973Z</time></trkpt><trkpt lat="44.3723483" lon="10.9142288"><ele>219.0</ele><time>2026-03-28T10:24:29.969Z</time></trkpt><trkpt lat="44.3720861" lon="10.9142757"><ele>214.0</ele><time>2026-03-28T10:24:30.971Z</time></trkpt><trkpt lat="44.3718433" lon="10.9143015"><ele>209.0</ele><time>2026-03-28T10:24:31.976Z</time></trkpt><trkpt lat="44.3716142" lon="10.9143088"><ele>209.0</ele><time>2026-03-28T10:24:32.983Z</time></trkpt><trkpt lat="44.3714039" lon="10.9143045"><ele>209.0</ele><time>2026-03-28T10:24:33.972Z</time></trkpt><trkpt lat="44.3711994" lon="10.9142902"><ele>209.0</ele><time>2026-03-28T10:24:34.989Z</time></trkpt><trkpt lat="44.3710152" lon="10.914276"><ele>209.66666666666669</ele><time>2026-03-28T10:24:35.976Z</time></trkpt><trkpt lat="44.3708391" lon="10.9142613"><ele>210.33333333333331</ele><time>2026-03-28T10:24:36.974Z</time></trkpt><trkpt lat="44.3706711" lon="10.9142468"><ele>211.0</ele><time>2026-03-28T10:24:37.983Z</time></trkpt><trkpt lat="44.3705135" lon="10.9142363"><ele>211.33333333333331</ele><time>2026-03-28T10:24:38.969Z</time></trkpt><trkpt lat="44.3703629" lon="10.9142392"><ele>211.66666666666669</ele><time>2026-03-28T10:24:39.98Z</time></trkpt><trkpt lat="44.3702132" lon="10.9142626"><ele>212.0</ele><time>2026-03-28T10:24:40.983Z</time></trkpt><trkpt lat="44.3700668" lon="10.9143023"><ele>212.0</ele><time>2026-03-28T10:24:41.972Z</time></trkpt><trkpt lat="44.3699175" lon="10.9143532"><ele>212.0</ele><time>2026-03-28T10:24:42.978Z</time></trkpt><trkpt lat="44.3697685" lon="10.9144095"><ele>212.0</ele><time>2026-03-28T10:24:43.978Z</time></trkpt><trkpt lat="44.36962" lon="10.9144686"><ele>213.0</ele><time>2026-03-28T10:24:44.973Z</time></trkpt><trkpt lat="44.3694662" lon="10.9145291"><ele>214.0</ele><time>2026-03-28T10:24:45.997Z</time></trkpt><trkpt lat="44.3693268" lon="10.9145872"><ele>215.0</ele><time>2026-03-28T10:24:46.981Z</time></trkpt><trkpt lat="44.3691865" lon="10.9146431"><ele>215.0</ele><time>2026-03-28T10:24:47.968Z</time></trkpt><trkpt lat="44.3690468" lon="10.9146978"><ele>215.0</ele><time>2026-03-28T10:24:48.971Z</time></trkpt><trkpt lat="44.3689111" lon="10.9147516"><ele>215.0</ele><time>2026-03-28T10:24:49.957Z</time></trkpt><trkpt lat="44.3687631" lon="10.9148085"><ele>215.0</ele><time>2026-03-28T10:24:50.967Z</time></trkpt><trkpt lat="44.3686089" lon="10.9148711"><ele>217.0</ele><time>2026-03-28T10:24:51.958Z</time></trkpt><trkpt lat="44.3684503" lon="10.9149385"><ele>219.0</ele><time>2026-03-28T10:24:52.961Z</time></trkpt><trkpt lat="44.368286" lon="10.9150112"><ele>221.0</ele><time>2026-03-28T10:24:53.98Z</time></trkpt><trkpt lat="44.3681148" lon="10.9150871"><ele>217.66666666666669</ele><time>2026-03-28T10:24:54.986Z</time></trkpt><trkpt lat="44.3679471" lon="10.9151646"><ele>214.33333333333331</ele><time>2026-03-28T10:24:55.97Z</time></trkpt><trkpt lat="44.3677712" lon="10.9152516"><ele>211.0</ele><time>2026-03-28T10:24:56.966Z</time></trkpt><trkpt lat="44.3675926" lon="10.9153413"><ele>211.0</ele><time>2026-03-28T10:24:57.967Z</time></trkpt><trkpt lat="44.3674087" lon="10.9154324"><ele>211.0</ele><time>2026-03-28T10:24:58.969Z</time></trkpt><trkpt lat="44.3672173" lon="10.915524"><ele>211.0</ele><time>2026-03-28T10:24:59.984Z</time></trkpt><trkpt lat="44.3670271" lon="10.9156158"><ele>212.33333333333331</ele><time>2026-03-28T10:25:00.979Z</time></trkpt><trkpt lat="44.366839" lon="10.9157081"><ele>213.66666666666669</ele><time>2026-03-28T10:25:01.977Z</time></trkpt><trkpt lat="44.3666458" lon="10.9158026"><ele>215.0</ele><time>2026-03-28T10:25:02.974Z</time></trkpt><trkpt lat="44.3664447" lon="10.9158964"><ele>216.0</ele><time>2026-03-28T10:25:03.99Z</time></trkpt><trkpt lat="44.3662478" lon="10.9159836"><ele>217.0</ele><time>2026-03-28T10:25:04.983Z</time></trkpt><trkpt lat="44.3660453" lon="10.9160708"><ele>218.0</ele><time>2026-03-28T10:25:05.98Z</time></trkpt><trkpt lat="44.3658388" lon="10.9161536"><ele>218.0</ele><time>2026-03-28T10:25:06.991Z</time></trkpt><trkpt lat="44.365633" lon="10.9162256"><ele>218.0</ele><time>2026-03-28T10:25:07.984Z</time></trkpt><trkpt lat="44.3654334" lon="10.9162943"><ele>218.0</ele><time>2026-03-28T10:25:08.981Z</time></trkpt><trkpt lat="44.365238" lon="10.9163583"><ele>220.0</ele><time>2026-03-28T10:25:09.989Z</time></trkpt><trkpt lat="44.365046" lon="10.916423"><ele>222.0</ele><time>2026-03-28T10:25:10.984Z</time></trkpt><trkpt lat="44.36486" lon="10.916481"><ele>224.0</ele><time>2026-03-28T10:25:11.975Z</time></trkpt><trkpt lat="44.3646728" lon="10.9165383"><ele>228.66666666666669</ele><time>2026-03-28T10:25:12.974Z</time></trkpt><trkpt lat="44.364486" lon="10.9165972"><ele>233.33333333333331</ele><time>2026-03-28T10:25:13.972Z</time></trkpt><trkpt lat="44.3642946" lon="10.9166565"><ele>238.0</ele><time>2026-03-28T10:25:14.995Z</time></trkpt><trkpt lat="44.3641078" lon="10.9167148"><ele>235.66666666666666</ele><time>2026-03-28T10:25:15.971Z</time></trkpt><trkpt lat="44.3639147" lon="10.9167777"><ele>233.33333333333331</ele><time>2026-03-28T10:25:16.969Z</time></trkpt><trkpt lat="44.3637138" lon="10.9168385"><ele>231.0</ele><time>2026-03-28T10:25:17.977Z</time></trkpt><trkpt lat="44.3635159" lon="10.9168967"><ele>231.0</ele><time>2026-03-28T10:25:18.985Z</time></trkpt><trkpt lat="44.3633196" lon="10.9169351"><ele>231.0</ele><time>2026-03-28T10:25:19.967Z</time></trkpt><trkpt lat="44.3631101" lon="10.9169501"><ele>231.0</ele><time>2026-03-28T10:25:20.975Z</time></trkpt><trkpt lat="44.3628958" lon="10.9169421"><ele>231.33333333333331</ele><time>2026-03-28T10:25:21.974Z</time></trkpt><trkpt lat="44.3626824" lon="10.9169218"><ele>231.66666666666666</ele><time>2026-03-28T10:25:22.976Z</time></trkpt><trkpt lat="44.3624767" lon="10.9168963"><ele>232.0</ele><time>2026-03-28T10:25:23.963Z</time></trkpt><trkpt lat="44.3622731" lon="10.9168687"><ele>232.0</ele><time>2026-03-28T10:25:24.984Z</time></trkpt><trkpt lat="44.3620883" lon="10.9168542"><ele>232.0</ele><time>2026-03-28T10:25:25.967Z</time></trkpt><trkpt lat="44.3619183" lon="10.9168699"><ele>232.0</ele><time>2026-03-28T10:25:26.977Z</time></trkpt><trkpt lat="44.3617542" lon="10.9169275"><ele>232.0</ele><time>2026-03-28T10:25:27.966Z</time></trkpt><trkpt lat="44.3615935" lon="10.9170301"><ele>232.0</ele><time>2026-03-28T10:25:28.98Z</time></trkpt><trkpt lat="44.3614359" lon="10.9171773"><ele>232.0</ele><time>2026-03-28T10:25:29.991Z</time></trkpt><trkpt lat="44.3612848" lon="10.9173637"><ele>235.66666666666666</ele><time>2026-03-28T10:25:30.987Z</time></trkpt><trkpt lat="44.3611346" lon="10.9175659"><ele>239.33333333333331</ele><time>2026-03-28T10:25:31.985Z</time></trkpt><trkpt lat="44.3609796" lon="10.9177605"><ele>243.0</ele><time>2026-03-28T10:25:32.972Z</time></trkpt><trkpt lat="44.360821" lon="10.9179486"><ele>243.0</ele><time>2026-03-28T10:25:33.982Z</time></trkpt><trkpt lat="44.3606652" lon="10.9181261"><ele>243.0</ele><time>2026-03-28T10:25:34.968Z</time></trkpt><trkpt lat="44.3605106" lon="10.9182946"><ele>243.0</ele><time>2026-03-28T10:25:35.97Z</time></trkpt><trkpt lat="44.3603614" lon="10.918456"><ele>241.66666666666669</ele><time>2026-03-28T10:25:36.969Z</time></trkpt><trkpt lat="44.360216" lon="10.9186169"><ele>240.33333333333334</ele><time>2026-03-28T10:25:37.968Z</time></trkpt><trkpt lat="44.360069" lon="10.9187732"><ele>239.0</ele><time>2026-03-28T10:25:38.969Z</time></trkpt><trkpt lat="44.3599169" lon="10.9189237"><ele>239.0</ele><time>2026-03-28T10:25:39.975Z</time></trkpt><trkpt lat="44.3597603" lon="10.9190476"><ele>239.0</ele><time>2026-03-28T10:25:40.972Z</time></trkpt><trkpt lat="44.3595924" lon="10.9191558"><ele>239.0</ele><time>2026-03-28T10:25:41.988Z</time></trkpt><trkpt lat="44.3594153" lon="10.9192516"><ele>236.33333333333334</ele><time>2026-03-28T10:25:42.985Z</time></trkpt><trkpt lat="44.3592315" lon="10.9193441"><ele>233.66666666666669</ele><time>2026-03-28T10:25:43.981Z</time></trkpt><trkpt lat="44.3590459" lon="10.9194435"><ele>231.0</ele><time>2026-03-28T10:25:45.003Z</time></trkpt><trkpt lat="44.3588775" lon="10.91955"><ele>235.66666666666669</ele><time>2026-03-28T10:25:45.972Z</time></trkpt><trkpt lat="44.358712" lon="10.9196729"><ele>240.33333333333334</ele><time>2026-03-28T10:25:46.958Z</time></trkpt><trkpt lat="44.3585531" lon="10.9198174"><ele>245.0</ele><time>2026-03-28T10:25:47.964Z</time></trkpt><trkpt lat="44.3584021" lon="10.9199738"><ele>242.0</ele><time>2026-03-28T10:25:48.974Z</time></trkpt><trkpt lat="44.358251" lon="10.9201356"><ele>239.0</ele><time>2026-03-28T10:25:49.99Z</time></trkpt><trkpt lat="44.3581058" lon="10.9202885"><ele>236.0</ele><time>2026-03-28T10:25:50.971Z</time></trkpt><trkpt lat="44.3579589" lon="10.9204367"><ele>236.0</ele><time>2026-03-28T10:25:51.964Z</time></trkpt><trkpt lat="44.3578108" lon="10.9205779"><ele>236.0</ele><time>2026-03-28T10:25:52.984Z</time></trkpt><trkpt lat="44.3576651" lon="10.9206931"><ele>236.0</ele><time>2026-03-28T10:25:53.983Z</time></trkpt><trkpt lat="44.3575186" lon="10.9207704"><ele>236.0</ele><time>2026-03-28T10:25:54.979Z</time></trkpt><trkpt lat="44.3573509" lon="10.9208345"><ele>236.0</ele><time>2026-03-28T10:25:55.985Z</time></trkpt><trkpt lat="44.3571759" lon="10.920908"><ele>236.0</ele><time>2026-03-28T10:25:56.974Z</time></trkpt><trkpt lat="44.3569993" lon="10.9210073"><ele>233.0</ele><time>2026-03-28T10:25:57.963Z</time></trkpt><trkpt lat="44.3568013" lon="10.921126"><ele>230.0</ele><time>2026-03-28T10:25:58.983Z</time></trkpt><trkpt lat="44.3566123" lon="10.9212383"><ele>227.0</ele><time>2026-03-28T10:25:59.979Z</time></trkpt><trkpt lat="44.3564249" lon="10.9213457"><ele>228.33333333333334</ele><time>2026-03-28T10:26:00.978Z</time></trkpt><trkpt lat="44.3562449" lon="10.9214423"><ele>229.66666666666669</ele><time>2026-03-28T10:26:01.98Z</time></trkpt><trkpt lat="44.3560679" lon="10.9215108"><ele>231.0</ele><time>2026-03-28T10:26:02.967Z</time></trkpt><trkpt lat="44.3558932" lon="10.9215473"><ele>231.0</ele><time>2026-03-28T10:26:03.982Z</time></trkpt><trkpt lat="44.355721" lon="10.9215345"><ele>231.0</ele><time>2026-03-28T10:26:04.975Z</time></trkpt><trkpt lat="44.3555306" lon="10.921486"><ele>231.0</ele><time>2026-03-28T10:26:05.991Z</time></trkpt><trkpt lat="44.355343" lon="10.9214111"><ele>228.0</ele><time>2026-03-28T10:26:06.977Z</time></trkpt><trkpt lat="44.3551589" lon="10.9213187"><ele>225.0</ele><time>2026-03-28T10:26:07.965Z</time></trkpt><trkpt lat="44.3549746" lon="10.9212242"><ele>222.0</ele><time>2026-03-28T10:26:08.974Z</time></trkpt><trkpt lat="44.3547937" lon="10.9211327"><ele>221.66666666666669</ele><time>2026-03-28T10:26:09.975Z</time></trkpt><trkpt lat="44.3546144" lon="10.9210508"><ele>221.33333333333334</ele><time>2026-03-28T10:26:10.973Z</time></trkpt><trkpt lat="44.3544253" lon="10.920998"><ele>221.0</ele><time>2026-03-28T10:26:11.97Z</time></trkpt><trkpt lat="44.3542213" lon="10.9209934"><ele>221.0</ele><time>2026-03-28T10:26:12.962Z</time></trkpt><trkpt lat="44.3539996" lon="10.9210356"><ele>221.0</ele><time>2026-03-28T10:26:13.971Z</time></trkpt><trkpt lat="44.3537827" lon="10.9210831"><ele>221.0</ele><time>2026-03-28T10:26:14.979Z</time></trkpt><trkpt lat="44.353571" lon="10.9211407"><ele>223.0</ele><time>2026-03-28T10:26:15.985Z</time></trkpt><trkpt lat="44.3533732" lon="10.9211934"><ele>225.0</ele><time>2026-03-28T10:26:16.981Z</time></trkpt><trkpt lat="44.3531938" lon="10.9212534"><ele>227.0</ele><time>2026-03-28T10:26:17.975Z</time></trkpt><trkpt lat="44.3530221" lon="10.9213133"><ele>231.0</ele><time>2026-03-28T10:26:18.971Z</time></trkpt><trkpt lat="44.3528516" lon="10.9213764"><ele>235.0</ele><time>2026-03-28T10:26:19.961Z</time></trkpt><trkpt lat="44.3526709" lon="10.9214399"><ele>239.0</ele><time>2026-03-28T10:26:20.981Z</time></trkpt><trkpt lat="44.3524944" lon="10.9215012"><ele>239.0</ele><time>2026-03-28T10:26:21.98Z</time></trkpt><trkpt lat="44.3523113" lon="10.9215699"><ele>239.0</ele><time>2026-03-28T10:26:22.978Z</time></trkpt><trkpt lat="44.3521268" lon="10.9216814"><ele>239.0</ele><time>2026-03-28T10:26:23.983Z</time></trkpt><trkpt lat="44.3519424" lon="10.9218263"><ele>238.33333333333334</ele><time>2026-03-28T10:26:24.968Z</time></trkpt><trkpt lat="44.3517656" lon="10.9220042"><ele>237.66666666666669</ele><time>2026-03-28T10:26:25.984Z</time></trkpt><trkpt lat="44.3516102" lon="10.9221966"><ele>237.0</ele><time>2026-03-28T10:26:26.981Z</time></trkpt><trkpt lat="44.3514723" lon="10.9223797"><ele>235.33333333333331</ele><time>2026-03-28T10:26:27.974Z</time></trkpt><trkpt lat="44.35134" lon="10.9225305"><ele>233.66666666666666</ele><time>2026-03-28T10:26:28.965Z</time></trkpt><trkpt lat="44.3511882" lon="10.922649"><ele>232.0</ele><time>2026-03-28T10:26:29.971Z</time></trkpt><trkpt lat="44.3510164" lon="10.9227526"><ele>232.0</ele><time>2026-03-28T10:26:30.994Z</time></trkpt><trkpt lat="44.3508476" lon="10.9228479"><ele>232.0</ele><time>2026-03-28T10:26:31.972Z</time></trkpt><trkpt lat="44.3506684" lon="10.9229447"><ele>232.0</ele><time>2026-03-28T10:26:32.983Z</time></trkpt><trkpt lat="44.3504823" lon="10.9230457"><ele>235.0</ele><time>2026-03-28T10:26:34.003Z</time></trkpt><trkpt lat="44.3502979" lon="10.923145"><ele>238.0</ele><time>2026-03-28T10:26:34.989Z</time></trkpt><trkpt lat="44.3501227" lon="10.9232305"><ele>241.0</ele><time>2026-03-28T10:26:35.974Z</time></trkpt><trkpt lat="44.3499594" lon="10.923305"><ele>241.0</ele><time>2026-03-28T10:26:36.968Z</time></trkpt><trkpt lat="44.3498054" lon="10.9233904"><ele>241.0</ele><time>2026-03-28T10:26:38Z</time></trkpt><trkpt lat="44.3496876" lon="10.9235033"><ele>241.0</ele><time>2026-03-28T10:26:38.979Z</time></trkpt><trkpt lat="44.3495654" lon="10.9236628"><ele>241.0</ele><time>2026-03-28T10:26:39.978Z</time></trkpt><trkpt lat="44.3494461" lon="10.9238416"><ele>241.0</ele><time>2026-03-28T10:26:40.983Z</time></trkpt><trkpt lat="44.3493235" lon="10.9240325"><ele>241.0</ele><time>2026-03-28T10:26:42.009Z</time></trkpt><trkpt lat="44.3491967" lon="10.9241924"><ele>240.0</ele><time>2026-03-28T10:26:42.972Z</time></trkpt><trkpt lat="44.3490393" lon="10.9243318"><ele>239.0</ele><time>2026-03-28T10:26:43.964Z</time></trkpt><trkpt lat="44.3488459" lon="10.9244585"><ele>238.0</ele><time>2026-03-28T10:26:44.995Z</time></trkpt><trkpt lat="44.3486519" lon="10.9245779"><ele>238.0</ele><time>2026-03-28T10:26:45.991Z</time></trkpt><trkpt lat="44.3484545" lon="10.9247026"><ele>238.0</ele><time>2026-03-28T10:26:47.01Z</time></trkpt><trkpt lat="44.3482554" lon="10.9248089"><ele>238.0</ele><time>2026-03-28T10:26:47.975Z</time></trkpt><trkpt lat="44.348061" lon="10.9249105"><ele>240.33333333333331</ele><time>2026-03-28T10:26:48.964Z</time></trkpt><trkpt lat="44.347874" lon="10.9250091"><ele>242.66666666666669</ele><time>2026-03-28T10:26:49.99Z</time></trkpt><trkpt lat="44.347703" lon="10.9250939"><ele>245.0</ele><time>2026-03-28T10:26:50.98Z</time></trkpt><trkpt lat="44.3475299" lon="10.9251606"><ele>240.0</ele><time>2026-03-28T10:26:51.973Z</time></trkpt><trkpt lat="44.3473406" lon="10.9252148"><ele>235.0</ele><time>2026-03-28T10:26:52.981Z</time></trkpt><trkpt lat="44.3471131" lon="10.9251571"><ele>230.0</ele><time>2026-03-28T10:26:53.971Z</time></trkpt><trkpt lat="44.3468576" lon="10.9251115"><ele>229.0</ele><time>2026-03-28T10:26:54.981Z</time></trkpt><trkpt lat="44.3466346" lon="10.9250944"><ele>228.0</ele><time>2026-03-28T10:26:55.969Z</time></trkpt><trkpt lat="44.3464348" lon="10.9250713"><ele>227.0</ele><time>2026-03-28T10:26:56.96Z</time></trkpt><trkpt lat="44.3462502" lon="10.9250388"><ele>230.33333333333334</ele><time>2026-03-28T10:26:57.966Z</time></trkpt><trkpt lat="44.3460718" lon="10.9249809"><ele>233.66666666666669</ele><time>2026-03-28T10:26:58.958Z</time></trkpt><trkpt lat="44.3458923" lon="10.9248872"><ele>237.0</ele><time>2026-03-28T10:26:59.982Z</time></trkpt><trkpt lat="44.3457126" lon="10.9247547"><ele>234.0</ele><time>2026-03-28T10:27:00.988Z</time></trkpt><trkpt lat="44.3455341" lon="10.9245753"><ele>231.0</ele><time>2026-03-28T10:27:01.976Z</time></trkpt><trkpt lat="44.34536" lon="10.9243974"><ele>228.0</ele><time>2026-03-28T10:27:02.974Z</time></trkpt><trkpt lat="44.3451931" lon="10.9242367"><ele>231.33333333333331</ele><time>2026-03-28T10:27:03.987Z</time></trkpt><trkpt lat="44.3450304" lon="10.9241075"><ele>234.66666666666666</ele><time>2026-03-28T10:27:04.982Z</time></trkpt><trkpt lat="44.3448501" lon="10.9240062"><ele>238.0</ele><time>2026-03-28T10:27:05.991Z</time></trkpt><trkpt lat="44.3446587" lon="10.9239453"><ele>238.0</ele><time>2026-03-28T10:27:06.995Z</time></trkpt><trkpt lat="44.3444667" lon="10.9239132"><ele>238.0</ele><time>2026-03-28T10:27:07.983Z</time></trkpt><trkpt lat="44.3442803" lon="10.9239062"><ele>238.0</ele><time>2026-03-28T10:27:08.99Z</time></trkpt><trkpt lat="44.3441123" lon="10.9239233"><ele>238.0</ele><time>2026-03-28T10:27:09.983Z</time></trkpt><trkpt lat="44.3439624" lon="10.9239592"><ele>238.0</ele><time>2026-03-28T10:27:10.97Z</time></trkpt><trkpt lat="44.3438321" lon="10.9240084"><ele>238.0</ele><time>2026-03-28T10:27:11.988Z</time></trkpt><trkpt lat="44.3437225" lon="10.9240444"><ele>238.0</ele><time>2026-03-28T10:27:12.966Z</time></trkpt><trkpt lat="44.3436052" lon="10.9240737"><ele>239.0</ele><time>2026-03-28T10:27:13.989Z</time></trkpt><trkpt lat="44.3434704" lon="10.924074"><ele>240.0</ele><time>2026-03-28T10:27:14.989Z</time></trkpt><trkpt lat="44.3433191" lon="10.9240371"><ele>241.0</ele><time>2026-03-28T10:27:15.991Z</time></trkpt><trkpt lat="44.3431533" lon="10.923975"><ele>239.66666666666666</ele><time>2026-03-28T10:27:16.981Z</time></trkpt><trkpt lat="44.3429803" lon="10.9239121"><ele>238.33333333333331</ele><time>2026-03-28T10:27:17.965Z</time></trkpt><trkpt lat="44.3427902" lon="10.9238454"><ele>237.0</ele><time>2026-03-28T10:27:18.989Z</time></trkpt><trkpt lat="44.3426078" lon="10.9237857"><ele>237.0</ele><time>2026-03-28T10:27:19.978Z</time></trkpt><trkpt lat="44.3424242" lon="10.9237317"><ele>237.0</ele><time>2026-03-28T10:27:20.985Z</time></trkpt><trkpt lat="44.3422486" lon="10.9236787"><ele>237.0</ele><time>2026-03-28T10:27:21.982Z</time></trkpt><trkpt lat="44.3420823" lon="10.9236298"><ele>236.66666666666669</ele><time>2026-03-28T10:27:22.99Z</time></trkpt><trkpt lat="44.3419188" lon="10.9236105"><ele>236.33333333333334</ele><time>2026-03-28T10:27:23.979Z</time></trkpt><trkpt lat="44.3417421" lon="10.9236443"><ele>236.0</ele><time>2026-03-28T10:27:24.991Z</time></trkpt><trkpt lat="44.3415585" lon="10.9237342"><ele>239.0</ele><time>2026-03-28T10:27:25.989Z</time></trkpt><trkpt lat="44.3413716" lon="10.9238545"><ele>242.0</ele><time>2026-03-28T10:27:26.989Z</time></trkpt><trkpt lat="44.3411912" lon="10.9239779"><ele>245.0</ele><time>2026-03-28T10:27:27.986Z</time></trkpt><trkpt lat="44.3410149" lon="10.9240886"><ele>245.0</ele><time>2026-03-28T10:27:28.99Z</time></trkpt><trkpt lat="44.3408444" lon="10.9241981"><ele>245.0</ele><time>2026-03-28T10:27:29.983Z</time></trkpt><trkpt lat="44.3406785" lon="10.9242958"><ele>245.0</ele><time>2026-03-28T10:27:30.977Z</time></trkpt><trkpt lat="44.3405144" lon="10.9243938"><ele>243.66666666666669</ele><time>2026-03-28T10:27:31.988Z</time></trkpt><trkpt lat="44.340353" lon="10.924488"><ele>242.33333333333331</ele><time>2026-03-28T10:27:32.976Z</time></trkpt><trkpt lat="44.34018" lon="10.9245877"><ele>241.0</ele><time>2026-03-28T10:27:33.987Z</time></trkpt><trkpt lat="44.3399906" lon="10.9246862"><ele>241.0</ele><time>2026-03-28T10:27:34.985Z</time></trkpt><trkpt lat="44.3397845" lon="10.9247859"><ele>241.0</ele><time>2026-03-28T10:27:35.998Z</time></trkpt><trkpt lat="44.3395624" lon="10.924896"><ele>243.0</ele><time>2026-03-28T10:27:36.989Z</time></trkpt><trkpt lat="44.3393519" lon="10.925016"><ele>245.0</ele><time>2026-03-28T10:27:37.967Z</time></trkpt><trkpt lat="44.3391509" lon="10.9251506"><ele>243.33333333333334</ele><time>2026-03-28T10:27:38.981Z</time></trkpt><trkpt lat="44.3389706" lon="10.925288"><ele>241.66666666666669</ele><time>2026-03-28T10:27:39.979Z</time></trkpt><trkpt lat="44.338796" lon="10.9254132"><ele>240.0</ele><time>2026-03-28T10:27:40.968Z</time></trkpt><trkpt lat="44.3386102" lon="10.925522"><ele>240.0</ele><time>2026-03-28T10:27:41.984Z</time></trkpt><trkpt lat="44.3384217" lon="10.9256074"><ele>240.0</ele><time>2026-03-28T10:27:42.98Z</time></trkpt><trkpt lat="44.3382157" lon="10.9256759"><ele>240.0</ele><time>2026-03-28T10:27:43.978Z</time></trkpt><trkpt lat="44.3380069" lon="10.9257326"><ele>240.66666666666669</ele><time>2026-03-28T10:27:44.965Z</time></trkpt><trkpt lat="44.3377914" lon="10.9257846"><ele>241.33333333333334</ele><time>2026-03-28T10:27:45.987Z</time></trkpt><trkpt lat="44.3375849" lon="10.9258338"><ele>242.0</ele><time>2026-03-28T10:27:46.98Z</time></trkpt><trkpt lat="44.3373785" lon="10.9258875"><ele>239.66666666666669</ele><time>2026-03-28T10:27:48.006Z</time></trkpt><trkpt lat="44.3371869" lon="10.9259345"><ele>237.33333333333331</ele><time>2026-03-28T10:27:48.964Z</time></trkpt><trkpt lat="44.336988" lon="10.9259773"><ele>235.0</ele><time>2026-03-28T10:27:49.986Z</time></trkpt><trkpt lat="44.3367932" lon="10.9260177"><ele>235.0</ele><time>2026-03-28T10:27:50.98Z</time></trkpt><trkpt lat="44.3365971" lon="10.9260683"><ele>235.0</ele><time>2026-03-28T10:27:51.964Z</time></trkpt><trkpt lat="44.3363895" lon="10.9261451"><ele>235.0</ele><time>2026-03-28T10:27:52.986Z</time></trkpt><trkpt lat="44.3361953" lon="10.9262488"><ele>237.66666666666666</ele><time>2026-03-28T10:27:53.966Z</time></trkpt><trkpt lat="44.3360045" lon="10.9263707"><ele>240.33333333333331</ele><time>2026-03-28T10:27:54.968Z</time></trkpt><trkpt lat="44.3358201" lon="10.9265041"><ele>243.0</ele><time>2026-03-28T10:27:55.987Z</time></trkpt><trkpt lat="44.3356525" lon="10.9266357"><ele>243.33333333333331</ele><time>2026-03-28T10:27:56.978Z</time></trkpt><trkpt lat="44.3354932" lon="10.9267776"><ele>243.66666666666666</ele><time>2026-03-28T10:27:57.975Z</time></trkpt><trkpt lat="44.3353386" lon="10.9269344"><ele>244.0</ele><time>2026-03-28T10:27:58.991Z</time></trkpt><trkpt lat="44.3352005" lon="10.9270981"><ele>244.0</ele><time>2026-03-28T10:27:59.972Z</time></trkpt><trkpt lat="44.3350625" lon="10.9272765"><ele>244.0</ele><time>2026-03-28T10:28:00.972Z</time></trkpt><trkpt lat="44.3349247" lon="10.9274603"><ele>244.0</ele><time>2026-03-28T10:28:02.002Z</time></trkpt><trkpt lat="44.3347982" lon="10.9276307"><ele>243.5</ele><time>2026-03-28T10:28:03.004Z</time></trkpt><trkpt lat="44.3346808" lon="10.9277684"><ele>243.0</ele><time>2026-03-28T10:28:03.985Z</time></trkpt><trkpt lat="44.3345576" lon="10.9278698"><ele>242.5</ele><time>2026-03-28T10:28:04.988Z</time></trkpt><trkpt lat="44.3344171" lon="10.9279428"><ele>242.0</ele><time>2026-03-28T10:28:05.978Z</time></trkpt><trkpt lat="44.3342631" lon="10.9279807"><ele>242.0</ele><time>2026-03-28T10:28:06.963Z</time></trkpt><trkpt lat="44.3340734" lon="10.927982"><ele>242.0</ele><time>2026-03-28T10:28:07.971Z</time></trkpt><trkpt lat="44.3338683" lon="10.9279729"><ele>242.0</ele><time>2026-03-28T10:28:08.984Z</time></trkpt><trkpt lat="44.3336716" lon="10.9279618"><ele>242.66666666666669</ele><time>2026-03-28T10:28:09.982Z</time></trkpt><trkpt lat="44.3334815" lon="10.9279525"><ele>243.33333333333331</ele><time>2026-03-28T10:28:10.99Z</time></trkpt><trkpt lat="44.3333105" lon="10.9279421"><ele>244.0</ele><time>2026-03-28T10:28:11.993Z</time></trkpt><trkpt lat="44.3331555" lon="10.9279369"><ele>244.75</ele><time>2026-03-28T10:28:12.98Z</time></trkpt><trkpt lat="44.3330075" lon="10.9279375"><ele>245.5</ele><time>2026-03-28T10:28:13.987Z</time></trkpt><trkpt lat="44.3328661" lon="10.9279595"><ele>246.25</ele><time>2026-03-28T10:28:14.97Z</time></trkpt><trkpt lat="44.3327186" lon="10.9280065"><ele>247.0</ele><time>2026-03-28T10:28:15.981Z</time></trkpt><trkpt lat="44.3325645" lon="10.9280732"><ele>247.0</ele><time>2026-03-28T10:28:16.987Z</time></trkpt><trkpt lat="44.3324071" lon="10.9281566"><ele>247.0</ele><time>2026-03-28T10:28:17.979Z</time></trkpt><trkpt lat="44.3322444" lon="10.9282416"><ele>247.0</ele><time>2026-03-28T10:28:18.977Z</time></trkpt><trkpt lat="44.3320752" lon="10.9283237"><ele>244.0</ele><time>2026-03-28T10:28:19.983Z</time></trkpt><trkpt lat="44.3319054" lon="10.9283948"><ele>241.0</ele><time>2026-03-28T10:28:20.983Z</time></trkpt><trkpt lat="44.3317328" lon="10.9284497"><ele>238.0</ele><time>2026-03-28T10:28:21.99Z</time></trkpt><trkpt lat="44.3315586" lon="10.9284952"><ele>238.0</ele><time>2026-03-28T10:28:22.984Z</time></trkpt><trkpt lat="44.331391" lon="10.9285385"><ele>238.0</ele><time>2026-03-28T10:28:23.984Z</time></trkpt><trkpt lat="44.3312286" lon="10.9285755"><ele>238.0</ele><time>2026-03-28T10:28:24.98Z</time></trkpt><trkpt lat="44.3310735" lon="10.9286127"><ele>238.33333333333331</ele><time>2026-03-28T10:28:25.985Z</time></trkpt><trkpt lat="44.3309223" lon="10.9286502"><ele>238.66666666666669</ele><time>2026-03-28T10:28:26.973Z</time></trkpt><trkpt lat="44.3307636" lon="10.9286819"><ele>239.0</ele><time>2026-03-28T10:28:27.998Z</time></trkpt><trkpt lat="44.3306072" lon="10.9286903"><ele>239.0</ele><time>2026-03-28T10:28:28.967Z</time></trkpt><trkpt lat="44.3304351" lon="10.9286878"><ele>239.0</ele><time>2026-03-28T10:28:29.98Z</time></trkpt><trkpt lat="44.3302592" lon="10.9286754"><ele>239.0</ele><time>2026-03-28T10:28:30.979Z</time></trkpt><trkpt lat="44.3300798" lon="10.9286225"><ele>239.0</ele><time>2026-03-28T10:28:31.983Z</time></trkpt><trkpt lat="44.3298988" lon="10.9285306"><ele>239.0</ele><time>2026-03-28T10:28:32.982Z</time></trkpt><trkpt lat="44.3297217" lon="10.9284375"><ele>239.0</ele><time>2026-03-28T10:28:33.958Z</time></trkpt><trkpt lat="44.3295288" lon="10.9283184"><ele>240.33333333333334</ele><time>2026-03-28T10:28:34.964Z</time></trkpt><trkpt lat="44.329352" lon="10.9282298"><ele>241.66666666666669</ele><time>2026-03-28T10:28:35.964Z</time></trkpt><trkpt lat="44.3291785" lon="10.9281494"><ele>243.0</ele><time>2026-03-28T10:28:36.971Z</time></trkpt><trkpt lat="44.3290093" lon="10.9280705"><ele>242.66666666666669</ele><time>2026-03-28T10:28:37.975Z</time></trkpt><trkpt lat="44.3288426" lon="10.9279909"><ele>242.33333333333334</ele><time>2026-03-28T10:28:38.967Z</time></trkpt><trkpt lat="44.3286712" lon="10.9279105"><ele>242.0</ele><time>2026-03-28T10:28:39.991Z</time></trkpt><trkpt lat="44.3285087" lon="10.9278302"><ele>242.0</ele><time>2026-03-28T10:28:40.975Z</time></trkpt><trkpt lat="44.3283525" lon="10.9277372"><ele>242.0</ele><time>2026-03-28T10:28:41.99Z</time></trkpt><trkpt lat="44.3282066" lon="10.9276337"><ele>242.0</ele><time>2026-03-28T10:28:42.985Z</time></trkpt><trkpt lat="44.3280657" lon="10.9275194"><ele>242.66666666666669</ele><time>2026-03-28T10:28:43.989Z</time></trkpt><trkpt lat="44.3279271" lon="10.9274021"><ele>243.33333333333331</ele><time>2026-03-28T10:28:44.99Z</time></trkpt><trkpt lat="44.3277843" lon="10.9272775"><ele>244.0</ele><time>2026-03-28T10:28:45.98Z</time></trkpt><trkpt lat="44.3276394" lon="10.927153"><ele>244.0</ele><time>2026-03-28T10:28:46.982Z</time></trkpt><trkpt lat="44.3274931" lon="10.9270288"><ele>244.0</ele><time>2026-03-28T10:28:47.99Z</time></trkpt><trkpt lat="44.3273584" lon="10.9269113"><ele>244.0</ele><time>2026-03-28T10:28:48.965Z</time></trkpt><trkpt lat="44.3272268" lon="10.9267947"><ele>244.25</ele><time>2026-03-28T10:28:49.982Z</time></trkpt><trkpt lat="44.3271035" lon="10.9266851"><ele>244.5</ele><time>2026-03-28T10:28:50.968Z</time></trkpt><trkpt lat="44.3269763" lon="10.9265727"><ele>244.75</ele><time>2026-03-28T10:28:51.979Z</time></trkpt><trkpt lat="44.3268496" lon="10.9264579"><ele>245.0</ele><time>2026-03-28T10:28:52.977Z</time></trkpt><trkpt lat="44.3267146" lon="10.9263346"><ele>245.0</ele><time>2026-03-28T10:28:53.983Z</time></trkpt><trkpt lat="44.3265744" lon="10.9262088"><ele>245.0</ele><time>2026-03-28T10:28:54.992Z</time></trkpt><trkpt lat="44.326436" lon="10.9260879"><ele>245.0</ele><time>2026-03-28T10:28:55.979Z</time></trkpt><trkpt lat="44.3262853" lon="10.9259848"><ele>245.33333333333334</ele><time>2026-03-28T10:28:57.002Z</time></trkpt><trkpt lat="44.3261366" lon="10.9259267"><ele>245.66666666666669</ele><time>2026-03-28T10:28:57.993Z</time></trkpt><trkpt lat="44.3259731" lon="10.9259053"><ele>246.0</ele><time>2026-03-28T10:28:58.976Z</time></trkpt><trkpt lat="44.3258" lon="10.9259247"><ele>246.0</ele><time>2026-03-28T10:28:59.979Z</time></trkpt><trkpt lat="44.3256302" lon="10.9259499"><ele>246.0</ele><time>2026-03-28T10:29:00.978Z</time></trkpt><trkpt lat="44.3254587" lon="10.9259856"><ele>246.0</ele><time>2026-03-28T10:29:01.987Z</time></trkpt><trkpt lat="44.3252968" lon="10.9260155"><ele>246.33333333333331</ele><time>2026-03-28T10:29:02.974Z</time></trkpt><trkpt lat="44.3251382" lon="10.9260465"><ele>246.66666666666666</ele><time>2026-03-28T10:29:03.971Z</time></trkpt><trkpt lat="44.3249879" lon="10.9260628"><ele>247.0</ele><time>2026-03-28T10:29:04.975Z</time></trkpt><trkpt lat="44.3248319" lon="10.9260568"><ele>247.0</ele><time>2026-03-28T10:29:05.984Z</time></trkpt><trkpt lat="44.3246725" lon="10.9260296"><ele>247.0</ele><time>2026-03-28T10:29:06.987Z</time></trkpt><trkpt lat="44.3245021" lon="10.925997"><ele>247.0</ele><time>2026-03-28T10:29:07.998Z</time></trkpt><trkpt lat="44.3243304" lon="10.925963"><ele>247.0</ele><time>2026-03-28T10:29:08.99Z</time></trkpt><trkpt lat="44.3241643" lon="10.9259344"><ele>247.0</ele><time>2026-03-28T10:29:09.981Z</time></trkpt><trkpt lat="44.3240063" lon="10.9259217"><ele>247.0</ele><time>2026-03-28T10:29:10.984Z</time></trkpt><trkpt lat="44.323853" lon="10.925926"><ele>247.0</ele><time>2026-03-28T10:29:11.974Z</time></trkpt><trkpt lat="44.3236982" lon="10.9259426"><ele>247.0</ele><time>2026-03-28T10:29:12.979Z</time></trkpt><trkpt lat="44.3235441" lon="10.9259663"><ele>247.0</ele><time>2026-03-28T10:29:13.975Z</time></trkpt><trkpt lat="44.3233846" lon="10.9259942"><ele>247.0</ele><time>2026-03-28T10:29:14.969Z</time></trkpt><trkpt lat="44.3232242" lon="10.9260284"><ele>247.0</ele><time>2026-03-28T10:29:15.983Z</time></trkpt><trkpt lat="44.323062" lon="10.9260565"><ele>247.0</ele><time>2026-03-28T10:29:16.988Z</time></trkpt><trkpt lat="44.3228958" lon="10.9260695"><ele>246.66666666666666</ele><time>2026-03-28T10:29:17.964Z</time></trkpt><trkpt lat="44.322713" lon="10.9260545"><ele>246.33333333333331</ele><time>2026-03-28T10:29:18.967Z</time></trkpt><trkpt lat="44.322521" lon="10.9260098"><ele>246.0</ele><time>2026-03-28T10:29:19.99Z</time></trkpt><trkpt lat="44.3223422" lon="10.9259515"><ele>248.33333333333331</ele><time>2026-03-28T10:29:20.973Z</time></trkpt><trkpt lat="44.3221714" lon="10.9258923"><ele>250.66666666666666</ele><time>2026-03-28T10:29:21.989Z</time></trkpt><trkpt lat="44.3220227" lon="10.9258317"><ele>253.0</ele><time>2026-03-28T10:29:22.995Z</time></trkpt><trkpt lat="44.3218902" lon="10.925758"><ele>253.0</ele><time>2026-03-28T10:29:23.987Z</time></trkpt><trkpt lat="44.3217683" lon="10.9256635"><ele>253.0</ele><time>2026-03-28T10:29:24.994Z</time></trkpt><trkpt lat="44.3216427" lon="10.9255461"><ele>253.0</ele><time>2026-03-28T10:29:25.981Z</time></trkpt><trkpt lat="44.3215065" lon="10.9254102"><ele>251.66666666666666</ele><time>2026-03-28T10:29:26.975Z</time></trkpt><trkpt lat="44.3213573" lon="10.9252581"><ele>250.33333333333331</ele><time>2026-03-28T10:29:27.973Z</time></trkpt><trkpt lat="44.32121" lon="10.9251033"><ele>249.0</ele><time>2026-03-28T10:29:28.985Z</time></trkpt><trkpt lat="44.3210646" lon="10.9249462"><ele>251.66666666666669</ele><time>2026-03-28T10:29:29.978Z</time></trkpt><trkpt lat="44.3209234" lon="10.9247871"><ele>254.33333333333334</ele><time>2026-03-28T10:29:30.99Z</time></trkpt><trkpt lat="44.3208002" lon="10.9246333"><ele>257.0</ele><time>2026-03-28T10:29:31.975Z</time></trkpt><trkpt lat="44.3206833" lon="10.9244737"><ele>257.0</ele><time>2026-03-28T10:29:32.982Z</time></trkpt><trkpt lat="44.3205699" lon="10.9243153"><ele>257.0</ele><time>2026-03-28T10:29:33.985Z</time></trkpt><trkpt lat="44.3204591" lon="10.9241644"><ele>257.0</ele><time>2026-03-28T10:29:34.982Z</time></trkpt><trkpt lat="44.3203478" lon="10.9240149"><ele>257.6666666666667</ele><time>2026-03-28T10:29:35.992Z</time></trkpt><trkpt lat="44.3202355" lon="10.9238666"><ele>258.3333333333333</ele><time>2026-03-28T10:29:36.991Z</time></trkpt><trkpt lat="44.3201254" lon="10.9237066"><ele>259.0</ele><time>2026-03-28T10:29:37.996Z</time></trkpt><trkpt lat="44.3200229" lon="10.9235466"><ele>257.3333333333333</ele><time>2026-03-28T10:29:38.984Z</time></trkpt><trkpt lat="44.3199235" lon="10.9233817"><ele>255.66666666666669</ele><time>2026-03-28T10:29:39.983Z</time></trkpt><trkpt lat="44.319822" lon="10.9232126"><ele>254.0</ele><time>2026-03-28T10:29:40.992Z</time></trkpt><trkpt lat="44.3197215" lon="10.9230416"><ele>254.0</ele><time>2026-03-28T10:29:41.994Z</time></trkpt><trkpt lat="44.3196201" lon="10.9228629"><ele>254.0</ele><time>2026-03-28T10:29:42.989Z</time></trkpt><trkpt lat="44.3195201" lon="10.9226773"><ele>254.0</ele><time>2026-03-28T10:29:43.999Z</time></trkpt><trkpt lat="44.3194264" lon="10.9225034"><ele>256.75</ele><time>2026-03-28T10:29:44.985Z</time></trkpt><trkpt lat="44.3193252" lon="10.9223421"><ele>259.5</ele><time>2026-03-28T10:29:45.983Z</time></trkpt><trkpt lat="44.3192127" lon="10.9222069"><ele>262.25</ele><time>2026-03-28T10:29:46.981Z</time></trkpt><trkpt lat="44.3190933" lon="10.9220928"><ele>265.0</ele><time>2026-03-28T10:29:47.977Z</time></trkpt><trkpt lat="44.3189603" lon="10.9219773"><ele>265.66666666666663</ele><time>2026-03-28T10:29:48.995Z</time></trkpt><trkpt lat="44.3188368" lon="10.9218612"><ele>266.3333333333333</ele><time>2026-03-28T10:29:49.973Z</time></trkpt><trkpt lat="44.3187048" lon="10.9217352"><ele>267.0</ele><time>2026-03-28T10:29:50.993Z</time></trkpt><trkpt lat="44.3185793" lon="10.9215936"><ele>267.0</ele><time>2026-03-28T10:29:51.98Z</time></trkpt><trkpt lat="44.3184504" lon="10.9214232"><ele>267.0</ele><time>2026-03-28T10:29:53.005Z</time></trkpt><trkpt lat="44.3183268" lon="10.9212513"><ele>267.0</ele><time>2026-03-28T10:29:53.988Z</time></trkpt><trkpt lat="44.3181983" lon="10.921082"><ele>269.0</ele><time>2026-03-28T10:29:54.988Z</time></trkpt><trkpt lat="44.3180585" lon="10.9209333"><ele>271.0</ele><time>2026-03-28T10:29:55.972Z</time></trkpt><trkpt lat="44.3179057" lon="10.9208093"><ele>273.0</ele><time>2026-03-28T10:29:56.966Z</time></trkpt><trkpt lat="44.3177411" lon="10.9207007"><ele>273.0</ele><time>2026-03-28T10:29:57.982Z</time></trkpt><trkpt lat="44.3175782" lon="10.9206031"><ele>273.0</ele><time>2026-03-28T10:29:58.983Z</time></trkpt><trkpt lat="44.3174206" lon="10.9205119"><ele>273.0</ele><time>2026-03-28T10:29:59.985Z</time></trkpt><trkpt lat="44.317266" lon="10.9204268"><ele>271.0</ele><time>2026-03-28T10:30:00.977Z</time></trkpt><trkpt lat="44.317114" lon="10.9203437"><ele>269.0</ele><time>2026-03-28T10:30:01.986Z</time></trkpt><trkpt lat="44.3169655" lon="10.9202637"><ele>267.0</ele><time>2026-03-28T10:30:02.975Z</time></trkpt><trkpt lat="44.3168145" lon="10.9201819"><ele>267.0</ele><time>2026-03-28T10:30:03.975Z</time></trkpt><trkpt lat="44.3166602" lon="10.9200943"><ele>267.0</ele><time>2026-03-28T10:30:04.995Z</time></trkpt><trkpt lat="44.3165129" lon="10.9200036"><ele>267.0</ele><time>2026-03-28T10:30:05.986Z</time></trkpt><trkpt lat="44.3163681" lon="10.9199047"><ele>270.6666666666667</ele><time>2026-03-28T10:30:06.981Z</time></trkpt><trkpt lat="44.3162312" lon="10.9197894"><ele>274.33333333333337</ele><time>2026-03-28T10:30:07.979Z</time></trkpt><trkpt lat="44.3161049" lon="10.9196563"><ele>278.0</ele><time>2026-03-28T10:30:08.975Z</time></trkpt><trkpt lat="44.3159848" lon="10.9195033"><ele>278.0</ele><time>2026-03-28T10:30:09.989Z</time></trkpt><trkpt lat="44.3158647" lon="10.9193287"><ele>278.0</ele><time>2026-03-28T10:30:10.986Z</time></trkpt><trkpt lat="44.3157453" lon="10.9191502"><ele>278.0</ele><time>2026-03-28T10:30:11.977Z</time></trkpt><trkpt lat="44.3156226" lon="10.9189636"><ele>275.6666666666667</ele><time>2026-03-28T10:30:12.982Z</time></trkpt><trkpt lat="44.3155047" lon="10.9187791"><ele>273.3333333333333</ele><time>2026-03-28T10:30:13.965Z</time></trkpt><trkpt lat="44.3153913" lon="10.9186013"><ele>271.0</ele><time>2026-03-28T10:30:14.966Z</time></trkpt><trkpt lat="44.3152831" lon="10.9184304"><ele>273.5</ele><time>2026-03-28T10:30:15.994Z</time></trkpt><trkpt lat="44.3151845" lon="10.9182767"><ele>276.0</ele><time>2026-03-28T10:30:16.992Z</time></trkpt><trkpt lat="44.31509" lon="10.9181315"><ele>278.5</ele><time>2026-03-28T10:30:17.99Z</time></trkpt><trkpt lat="44.3149973" lon="10.917982"><ele>281.0</ele><time>2026-03-28T10:30:18.977Z</time></trkpt><trkpt lat="44.3149021" lon="10.9178196"><ele>281.0</ele><time>2026-03-28T10:30:19.991Z</time></trkpt><trkpt lat="44.3148113" lon="10.9176495"><ele>281.0</ele><time>2026-03-28T10:30:20.99Z</time></trkpt><trkpt lat="44.3147247" lon="10.917479"><ele>281.0</ele><time>2026-03-28T10:30:21.996Z</time></trkpt><trkpt lat="44.3146489" lon="10.917315"><ele>281.0</ele><time>2026-03-28T10:30:22.985Z</time></trkpt><trkpt lat="44.3145818" lon="10.9171423"><ele>281.0</ele><time>2026-03-28T10:30:23.998Z</time></trkpt><trkpt lat="44.3145264" lon="10.9169737"><ele>281.0</ele><time>2026-03-28T10:30:24.974Z</time></trkpt><trkpt lat="44.3144755" lon="10.9167824"><ele>281.0</ele><time>2026-03-28T10:30:25.982Z</time></trkpt><trkpt lat="44.3144546" lon="10.9166035"><ele>281.0</ele><time>2026-03-28T10:30:27.003Z</time></trkpt><trkpt lat="44.3144626" lon="10.9164386"><ele>281.0</ele><time>2026-03-28T10:30:27.972Z</time></trkpt><trkpt lat="44.3144932" lon="10.9162905"><ele>281.0</ele><time>2026-03-28T10:30:28.979Z</time></trkpt><trkpt lat="44.3145434" lon="10.9161453"><ele>281.0</ele><time>2026-03-28T10:30:29.981Z</time></trkpt><trkpt lat="44.3146011" lon="10.9160097"><ele>281.0</ele><time>2026-03-28T10:30:30.977Z</time></trkpt><trkpt lat="44.3146703" lon="10.9158859"><ele>284.0</ele><time>2026-03-28T10:30:31.963Z</time></trkpt><trkpt lat="44.3147404" lon="10.9157648"><ele>287.0</ele><time>2026-03-28T10:30:32.994Z</time></trkpt><trkpt lat="44.3147901" lon="10.9156512"><ele>290.0</ele><time>2026-03-28T10:30:33.981Z</time></trkpt><trkpt lat="44.3148201" lon="10.915537"><ele>293.0</ele><time>2026-03-28T10:30:34.989Z</time></trkpt><trkpt lat="44.3148447" lon="10.9154203"><ele>296.0</ele><time>2026-03-28T10:30:35.966Z</time></trkpt><trkpt lat="44.3148591" lon="10.915291"><ele>296.0</ele><time>2026-03-28T10:30:36.972Z</time></trkpt><trkpt lat="44.3148647" lon="10.9151495"><ele>296.0</ele><time>2026-03-28T10:30:37.986Z</time></trkpt><trkpt lat="44.3148606" lon="10.9150019"><ele>296.0</ele><time>2026-03-28T10:30:38.985Z</time></trkpt><trkpt lat="44.314847" lon="10.9148536"><ele>296.0</ele><time>2026-03-28T10:30:39.985Z</time></trkpt><trkpt lat="44.3148178" lon="10.9147027"><ele>296.0</ele><time>2026-03-28T10:30:40.978Z</time></trkpt><trkpt lat="44.314778" lon="10.9145402"><ele>292.75</ele><time>2026-03-28T10:30:41.977Z</time></trkpt><trkpt lat="44.3147261" lon="10.9143683"><ele>289.5</ele><time>2026-03-28T10:30:42.981Z</time></trkpt><trkpt lat="44.3146419" lon="10.9141968"><ele>286.25</ele><time>2026-03-28T10:30:43.989Z</time></trkpt><trkpt lat="44.314549" lon="10.9140212"><ele>283.0</ele><time>2026-03-28T10:30:44.977Z</time></trkpt><trkpt lat="44.3144408" lon="10.9138558"><ele>283.0</ele><time>2026-03-28T10:30:45.989Z</time></trkpt><trkpt lat="44.3143233" lon="10.9137129"><ele>283.0</ele><time>2026-03-28T10:30:46.982Z</time></trkpt><trkpt lat="44.3142066" lon="10.9135925"><ele>283.0</ele><time>2026-03-28T10:30:47.988Z</time></trkpt><trkpt lat="44.3140986" lon="10.9134807"><ele>283.0</ele><time>2026-03-28T10:30:48.992Z</time></trkpt><trkpt lat="44.3139996" lon="10.9133677"><ele>281.25</ele><time>2026-03-28T10:30:49.982Z</time></trkpt><trkpt lat="44.3139091" lon="10.9132453"><ele>279.5</ele><time>2026-03-28T10:30:50.979Z</time></trkpt><trkpt lat="44.3138238" lon="10.9131117"><ele>277.75</ele><time>2026-03-28T10:30:51.982Z</time></trkpt><trkpt lat="44.3137384" lon="10.9129585"><ele>276.0</ele><time>2026-03-28T10:30:52.983Z</time></trkpt><trkpt lat="44.3136554" lon="10.9128084"><ele>276.0</ele><time>2026-03-28T10:30:53.973Z</time></trkpt><trkpt lat="44.3135757" lon="10.9126636"><ele>276.0</ele><time>2026-03-28T10:30:54.979Z</time></trkpt><trkpt lat="44.3134915" lon="10.9125406"><ele>276.0</ele><time>2026-03-28T10:30:55.975Z</time></trkpt><trkpt lat="44.3133915" lon="10.9124484"><ele>276.0</ele><time>2026-03-28T10:30:56.976Z</time></trkpt><trkpt lat="44.3132881" lon="10.9124048"><ele>275.6</ele><time>2026-03-28T10:30:57.986Z</time></trkpt><trkpt lat="44.3131771" lon="10.912385"><ele>275.20000000000005</ele><time>2026-03-28T10:30:58.99Z</time></trkpt><trkpt lat="44.3130625" lon="10.9123763"><ele>274.79999999999995</ele><time>2026-03-28T10:30:59.985Z</time></trkpt><trkpt lat="44.3129575" lon="10.9123654"><ele>274.4</ele><time>2026-03-28T10:31:00.986Z</time></trkpt><trkpt lat="44.31285" lon="10.9123347"><ele>274.0</ele><time>2026-03-28T10:31:01.978Z</time></trkpt><trkpt lat="44.3127376" lon="10.9122765"><ele>274.0</ele><time>2026-03-28T10:31:02.988Z</time></trkpt><trkpt lat="44.3126219" lon="10.9121869"><ele>274.0</ele><time>2026-03-28T10:31:03.989Z</time></trkpt><trkpt lat="44.3125037" lon="10.9120816"><ele>274.0</ele><time>2026-03-28T10:31:04.981Z</time></trkpt><trkpt lat="44.3123847" lon="10.9119756"><ele>274.0</ele><time>2026-03-28T10:31:05.995Z</time></trkpt><trkpt lat="44.3122704" lon="10.9118799"><ele>274.75</ele><time>2026-03-28T10:31:06.996Z</time></trkpt><trkpt lat="44.3121584" lon="10.9118124"><ele>275.5</ele><time>2026-03-28T10:31:07.99Z</time></trkpt><trkpt lat="44.3120515" lon="10.91177"><ele>276.25</ele><time>2026-03-28T10:31:08.977Z</time></trkpt><trkpt lat="44.3119418" lon="10.9117347"><ele>277.0</ele><time>2026-03-28T10:31:09.977Z</time></trkpt><trkpt lat="44.3118312" lon="10.9116927"><ele>277.0</ele><time>2026-03-28T10:31:10.987Z</time></trkpt><trkpt lat="44.3117196" lon="10.9116372"><ele>277.0</ele><time>2026-03-28T10:31:12Z</time></trkpt><trkpt lat="44.3116142" lon="10.9115599"><ele>277.0</ele><time>2026-03-28T10:31:12.969Z</time></trkpt><trkpt lat="44.311507" lon="10.911454"><ele>277.0</ele><time>2026-03-28T10:31:13.973Z</time></trkpt><trkpt lat="44.3114064" lon="10.9113172"><ele>273.3333333333333</ele><time>2026-03-28T10:31:14.96Z</time></trkpt><trkpt lat="44.3113103" lon="10.9111427"><ele>269.6666666666667</ele><time>2026-03-28T10:31:15.981Z</time></trkpt><trkpt lat="44.311227" lon="10.9109532"><ele>266.0</ele><time>2026-03-28T10:31:16.977Z</time></trkpt><trkpt lat="44.3111544" lon="10.9107568"><ele>266.0</ele><time>2026-03-28T10:31:17.996Z</time></trkpt><trkpt lat="44.3110927" lon="10.9105628"><ele>266.0</ele><time>2026-03-28T10:31:18.981Z</time></trkpt><trkpt lat="44.3110441" lon="10.9103518"><ele>266.0</ele><time>2026-03-28T10:31:19.99Z</time></trkpt><trkpt lat="44.3110159" lon="10.9101255"><ele>266.6666666666667</ele><time>2026-03-28T10:31:20.989Z</time></trkpt><trkpt lat="44.3110038" lon="10.9099042"><ele>267.3333333333333</ele><time>2026-03-28T10:31:21.985Z</time></trkpt><trkpt lat="44.3109936" lon="10.9096943"><ele>268.0</ele><time>2026-03-28T10:31:22.975Z</time></trkpt><trkpt lat="44.3109672" lon="10.9094788"><ele>268.0</ele><time>2026-03-28T10:31:23.975Z</time></trkpt><trkpt lat="44.3109266" lon="10.9092651"><ele>268.0</ele><time>2026-03-28T10:31:24.967Z</time></trkpt><trkpt lat="44.3108763" lon="10.9090518"><ele>268.0</ele><time>2026-03-28T10:31:25.992Z</time></trkpt><trkpt lat="44.310826" lon="10.9088524"><ele>268.0</ele><time>2026-03-28T10:31:26.976Z</time></trkpt><trkpt lat="44.3107749" lon="10.9086528"><ele>268.0</ele><time>2026-03-28T10:31:27.984Z</time></trkpt><trkpt lat="44.3107233" lon="10.9084638"><ele>268.0</ele><time>2026-03-28T10:31:28.997Z</time></trkpt><trkpt lat="44.3106549" lon="10.9082915"><ele>268.0</ele><time>2026-03-28T10:31:29.971Z</time></trkpt><trkpt lat="44.3105681" lon="10.9081468"><ele>268.0</ele><time>2026-03-28T10:31:30.984Z</time></trkpt><trkpt lat="44.3104421" lon="10.9079964"><ele>268.0</ele><time>2026-03-28T10:31:31.962Z</time></trkpt><trkpt lat="44.3102918" lon="10.9078561"><ele>268.0</ele><time>2026-03-28T10:31:32.982Z</time></trkpt><trkpt lat="44.3101399" lon="10.9077253"><ele>268.0</ele><time>2026-03-28T10:31:33.972Z</time></trkpt><trkpt lat="44.3099869" lon="10.9076025"><ele>268.0</ele><time>2026-03-28T10:31:34.974Z</time></trkpt><trkpt lat="44.3098358" lon="10.9074827"><ele>268.0</ele><time>2026-03-28T10:31:35.989Z</time></trkpt><trkpt lat="44.3096897" lon="10.9073679"><ele>267.3333333333333</ele><time>2026-03-28T10:31:36.998Z</time></trkpt><trkpt lat="44.3095499" lon="10.9072641"><ele>266.6666666666667</ele><time>2026-03-28T10:31:37.962Z</time></trkpt><trkpt lat="44.3094062" lon="10.9071546"><ele>266.0</ele><time>2026-03-28T10:31:38.973Z</time></trkpt><trkpt lat="44.3092525" lon="10.9070342"><ele>266.0</ele><time>2026-03-28T10:31:39.98Z</time></trkpt><trkpt lat="44.3090886" lon="10.9069041"><ele>266.0</ele><time>2026-03-28T10:31:40.981Z</time></trkpt><trkpt lat="44.3089252" lon="10.9067781"><ele>266.0</ele><time>2026-03-28T10:31:41.955Z</time></trkpt><trkpt lat="44.3087464" lon="10.9066478"><ele>266.33333333333337</ele><time>2026-03-28T10:31:42.984Z</time></trkpt><trkpt lat="44.3085609" lon="10.9065147"><ele>266.6666666666667</ele><time>2026-03-28T10:31:43.992Z</time></trkpt><trkpt lat="44.3083697" lon="10.9063745"><ele>267.0</ele><time>2026-03-28T10:31:44.983Z</time></trkpt><trkpt lat="44.3081732" lon="10.9062198"><ele>266.0</ele><time>2026-03-28T10:31:45.995Z</time></trkpt><trkpt lat="44.3079757" lon="10.9060611"><ele>265.0</ele><time>2026-03-28T10:31:46.975Z</time></trkpt><trkpt lat="44.307777" lon="10.905896"><ele>268.0</ele><time>2026-03-28T10:31:47.977Z</time></trkpt><trkpt lat="44.3075876" lon="10.9057379"><ele>271.0</ele><time>2026-03-28T10:31:48.985Z</time></trkpt><trkpt lat="44.3074102" lon="10.9055933"><ele>274.0</ele><time>2026-03-28T10:31:49.988Z</time></trkpt><trkpt lat="44.3072456" lon="10.9054663"><ele>274.0</ele><time>2026-03-28T10:31:50.982Z</time></trkpt><trkpt lat="44.3070921" lon="10.9053369"><ele>274.0</ele><time>2026-03-28T10:31:51.986Z</time></trkpt><trkpt lat="44.3069543" lon="10.9051991"><ele>274.0</ele><time>2026-03-28T10:31:52.976Z</time></trkpt><trkpt lat="44.3068311" lon="10.9050351"><ele>274.0</ele><time>2026-03-28T10:31:53.977Z</time></trkpt><trkpt lat="44.3067255" lon="10.9048436"><ele>274.0</ele><time>2026-03-28T10:31:54.972Z</time></trkpt><trkpt lat="44.3066356" lon="10.9046177"><ele>274.0</ele><time>2026-03-28T10:31:55.974Z</time></trkpt><trkpt lat="44.3065561" lon="10.9043621"><ele>272.3333333333333</ele><time>2026-03-28T10:31:56.981Z</time></trkpt><trkpt lat="44.3064788" lon="10.9040893"><ele>270.6666666666667</ele><time>2026-03-28T10:31:57.972Z</time></trkpt><trkpt lat="44.306381" lon="10.9038094"><ele>269.0</ele><time>2026-03-28T10:31:58.975Z</time></trkpt><trkpt lat="44.306258" lon="10.9035115"><ele>271.0</ele><time>2026-03-28T10:31:59.975Z</time></trkpt><trkpt lat="44.3061201" lon="10.9032102"><ele>273.0</ele><time>2026-03-28T10:32:00.999Z</time></trkpt><trkpt lat="44.3059847" lon="10.9029305"><ele>273.0</ele><time>2026-03-28T10:32:01.977Z</time></trkpt><trkpt lat="44.3058445" lon="10.902661"><ele>273.0</ele><time>2026-03-28T10:32:02.98Z</time></trkpt><trkpt lat="44.3057206" lon="10.9024011"><ele>272.6666666666667</ele><time>2026-03-28T10:32:03.996Z</time></trkpt><trkpt lat="44.3056194" lon="10.9021319"><ele>272.33333333333337</ele><time>2026-03-28T10:32:04.974Z</time></trkpt><trkpt lat="44.305533" lon="10.9018373"><ele>272.0</ele><time>2026-03-28T10:32:05.978Z</time></trkpt><trkpt lat="44.3054541" lon="10.9015363"><ele>272.0</ele><time>2026-03-28T10:32:06.973Z</time></trkpt><trkpt lat="44.3053753" lon="10.9012312"><ele>272.0</ele><time>2026-03-28T10:32:07.969Z</time></trkpt><trkpt lat="44.3052916" lon="10.900912"><ele>275.0</ele><time>2026-03-28T10:32:08.991Z</time></trkpt><trkpt lat="44.3052115" lon="10.9006024"><ele>278.0</ele><time>2026-03-28T10:32:09.986Z</time></trkpt><trkpt lat="44.3051262" lon="10.9003129"><ele>280.33333333333337</ele><time>2026-03-28T10:32:10.974Z</time></trkpt><trkpt lat="44.3050328" lon="10.9000354"><ele>282.6666666666667</ele><time>2026-03-28T10:32:11.965Z</time></trkpt><trkpt lat="44.3049359" lon="10.899767"><ele>285.0</ele><time>2026-03-28T10:32:12.977Z</time></trkpt><trkpt lat="44.304851" lon="10.8995018"><ele>287.0</ele><time>2026-03-28T10:32:13.975Z</time></trkpt><trkpt lat="44.3047861" lon="10.8992365"><ele>289.0</ele><time>2026-03-28T10:32:14.982Z</time></trkpt><trkpt lat="44.3047302" lon="10.8989687"><ele>291.0</ele><time>2026-03-28T10:32:15.978Z</time></trkpt><trkpt lat="44.3046768" lon="10.8987022"><ele>286.6666666666667</ele><time>2026-03-28T10:32:16.98Z</time></trkpt><trkpt lat="44.3046115" lon="10.898443"><ele>282.33333333333337</ele><time>2026-03-28T10:32:17.98Z</time></trkpt><trkpt lat="44.3045364" lon="10.8981915"><ele>278.0</ele><time>2026-03-28T10:32:18.988Z</time></trkpt><trkpt lat="44.3044536" lon="10.8979477"><ele>278.0</ele><time>2026-03-28T10:32:19.998Z</time></trkpt><trkpt lat="44.304371" lon="10.8977083"><ele>278.0</ele><time>2026-03-28T10:32:20.989Z</time></trkpt><trkpt lat="44.3042907" lon="10.8974625"><ele>278.0</ele><time>2026-03-28T10:32:21.977Z</time></trkpt><trkpt lat="44.3042102" lon="10.8971959"><ele>280.0</ele><time>2026-03-28T10:32:22.988Z</time></trkpt><trkpt lat="44.3041351" lon="10.896908"><ele>282.0</ele><time>2026-03-28T10:32:23.993Z</time></trkpt><trkpt lat="44.3040701" lon="10.8966063"><ele>284.0</ele><time>2026-03-28T10:32:24.98Z</time></trkpt><trkpt lat="44.3040122" lon="10.8962906"><ele>285.6666666666667</ele><time>2026-03-28T10:32:25.975Z</time></trkpt><trkpt lat="44.3039582" lon="10.8959733"><ele>287.3333333333333</ele><time>2026-03-28T10:32:27.008Z</time></trkpt><trkpt lat="44.3039124" lon="10.8956903"><ele>289.0</ele><time>2026-03-28T10:32:27.982Z</time></trkpt><trkpt lat="44.3038616" lon="10.8954161"><ele>285.0</ele><time>2026-03-28T10:32:28.98Z</time></trkpt><trkpt lat="44.3037919" lon="10.8951615"><ele>281.0</ele><time>2026-03-28T10:32:29.98Z</time></trkpt><trkpt lat="44.3036932" lon="10.8949295"><ele>277.0</ele><time>2026-03-28T10:32:30.987Z</time></trkpt><trkpt lat="44.3035687" lon="10.89473"><ele>277.0</ele><time>2026-03-28T10:32:31.991Z</time></trkpt><trkpt lat="44.3034245" lon="10.8945435"><ele>277.0</ele><time>2026-03-28T10:32:32.974Z</time></trkpt><trkpt lat="44.303268" lon="10.8943493"><ele>277.0</ele><time>2026-03-28T10:32:33.986Z</time></trkpt><trkpt lat="44.303107" lon="10.8941536"><ele>278.0</ele><time>2026-03-28T10:32:34.981Z</time></trkpt><trkpt lat="44.302937" lon="10.8939634"><ele>279.0</ele><time>2026-03-28T10:32:35.982Z</time></trkpt><trkpt lat="44.3027566" lon="10.893782"><ele>280.0</ele><time>2026-03-28T10:32:36.985Z</time></trkpt><trkpt lat="44.3025743" lon="10.8936061"><ele>280.0</ele><time>2026-03-28T10:32:37.967Z</time></trkpt><trkpt lat="44.3023819" lon="10.8934245"><ele>280.0</ele><time>2026-03-28T10:32:38.993Z</time></trkpt><trkpt lat="44.3021946" lon="10.893247"><ele>279.3333333333333</ele><time>2026-03-28T10:32:39.998Z</time></trkpt><trkpt lat="44.3020129" lon="10.8930754"><ele>278.6666666666667</ele><time>2026-03-28T10:32:40.969Z</time></trkpt><trkpt lat="44.3018244" lon="10.8928937"><ele>278.0</ele><time>2026-03-28T10:32:41.988Z</time></trkpt><trkpt lat="44.3016406" lon="10.8927171"><ele>279.6666666666667</ele><time>2026-03-28T10:32:42.997Z</time></trkpt><trkpt lat="44.3014599" lon="10.8925508"><ele>281.3333333333333</ele><time>2026-03-28T10:32:43.99Z</time></trkpt><trkpt lat="44.3012722" lon="10.8924052"><ele>283.0</ele><time>2026-03-28T10:32:44.977Z</time></trkpt><trkpt lat="44.3010748" lon="10.8922777"><ele>283.0</ele><time>2026-03-28T10:32:45.974Z</time></trkpt><trkpt lat="44.3008712" lon="10.8921699"><ele>283.0</ele><time>2026-03-28T10:32:46.989Z</time></trkpt><trkpt lat="44.3006707" lon="10.8920866"><ele>283.0</ele><time>2026-03-28T10:32:47.972Z</time></trkpt><trkpt lat="44.3004587" lon="10.892023"><ele>283.66666666666663</ele><time>2026-03-28T10:32:48.975Z</time></trkpt><trkpt lat="44.3002402" lon="10.891978"><ele>284.3333333333333</ele><time>2026-03-28T10:32:49.997Z</time></trkpt><trkpt lat="44.3000245" lon="10.8919564"><ele>285.0</ele><time>2026-03-28T10:32:50.993Z</time></trkpt><trkpt lat="44.2998034" lon="10.8919531"><ele>284.3333333333333</ele><time>2026-03-28T10:32:51.995Z</time></trkpt><trkpt lat="44.299585" lon="10.8919615"><ele>283.66666666666663</ele><time>2026-03-28T10:32:52.978Z</time></trkpt><trkpt lat="44.2993691" lon="10.8919661"><ele>283.0</ele><time>2026-03-28T10:32:53.972Z</time></trkpt><trkpt lat="44.2991515" lon="10.8919677"><ele>283.0</ele><time>2026-03-28T10:32:54.989Z</time></trkpt><trkpt lat="44.2989379" lon="10.8919713"><ele>283.0</ele><time>2026-03-28T10:32:55.982Z</time></trkpt><trkpt lat="44.2987304" lon="10.8919742"><ele>283.0</ele><time>2026-03-28T10:32:56.975Z</time></trkpt><trkpt lat="44.2985316" lon="10.8919773"><ele>283.0</ele><time>2026-03-28T10:32:57.978Z</time></trkpt><trkpt lat="44.2983387" lon="10.8919732"><ele>283.0</ele><time>2026-03-28T10:32:58.974Z</time></trkpt><trkpt lat="44.2981535" lon="10.8919522"><ele>283.0</ele><time>2026-03-28T10:32:59.976Z</time></trkpt><trkpt lat="44.2979771" lon="10.8919124"><ele>283.66666666666663</ele><time>2026-03-28T10:33:00.967Z</time></trkpt><trkpt lat="44.2977975" lon="10.8918471"><ele>284.3333333333333</ele><time>2026-03-28T10:33:01.984Z</time></trkpt><trkpt lat="44.2976164" lon="10.8917638"><ele>285.0</ele><time>2026-03-28T10:33:02.993Z</time></trkpt><trkpt lat="44.2974399" lon="10.8916597"><ele>285.3333333333333</ele><time>2026-03-28T10:33:03.978Z</time></trkpt><trkpt lat="44.2972696" lon="10.891531"><ele>285.66666666666663</ele><time>2026-03-28T10:33:04.984Z</time></trkpt><trkpt lat="44.2971074" lon="10.891376"><ele>286.0</ele><time>2026-03-28T10:33:05.983Z</time></trkpt><trkpt lat="44.296956" lon="10.8912012"><ele>286.0</ele><time>2026-03-28T10:33:06.978Z</time></trkpt><trkpt lat="44.2968083" lon="10.8910216"><ele>286.0</ele><time>2026-03-28T10:33:07.983Z</time></trkpt><trkpt lat="44.2966607" lon="10.8908592"><ele>286.0</ele><time>2026-03-28T10:33:08.971Z</time></trkpt><trkpt lat="44.2965115" lon="10.8907334"><ele>286.3333333333333</ele><time>2026-03-28T10:33:09.969Z</time></trkpt><trkpt lat="44.2963505" lon="10.8906474"><ele>286.6666666666667</ele><time>2026-03-28T10:33:11.002Z</time></trkpt><trkpt lat="44.2961972" lon="10.8905935"><ele>287.0</ele><time>2026-03-28T10:33:11.977Z</time></trkpt><trkpt lat="44.296047" lon="10.8905479"><ele>287.0</ele><time>2026-03-28T10:33:12.991Z</time></trkpt><trkpt lat="44.2959138" lon="10.8905058"><ele>287.0</ele><time>2026-03-28T10:33:13.972Z</time></trkpt><trkpt lat="44.2957878" lon="10.8904567"><ele>287.0</ele><time>2026-03-28T10:33:14.98Z</time></trkpt><trkpt lat="44.2956744" lon="10.8903786"><ele>287.0</ele><time>2026-03-28T10:33:15.988Z</time></trkpt><trkpt lat="44.2955712" lon="10.8902506"><ele>286.33333333333337</ele><time>2026-03-28T10:33:16.972Z</time></trkpt><trkpt lat="44.2955021" lon="10.890099"><ele>285.6666666666667</ele><time>2026-03-28T10:33:17.964Z</time></trkpt><trkpt lat="44.2954423" lon="10.889877"><ele>285.0</ele><time>2026-03-28T10:33:18.999Z</time></trkpt><trkpt lat="44.2954015" lon="10.8896424"><ele>285.0</ele><time>2026-03-28T10:33:19.995Z</time></trkpt><trkpt lat="44.295371" lon="10.8894166"><ele>285.0</ele><time>2026-03-28T10:33:20.967Z</time></trkpt><trkpt lat="44.2953384" lon="10.8891957"><ele>285.0</ele><time>2026-03-28T10:33:21.988Z</time></trkpt><trkpt lat="44.295296" lon="10.8889794"><ele>286.6666666666667</ele><time>2026-03-28T10:33:22.987Z</time></trkpt><trkpt lat="44.2952553" lon="10.8887614"><ele>288.33333333333337</ele><time>2026-03-28T10:33:23.997Z</time></trkpt><trkpt lat="44.2952191" lon="10.8885609"><ele>290.0</ele><time>2026-03-28T10:33:24.981Z</time></trkpt><trkpt lat="44.2951798" lon="10.8883484"><ele>291.6666666666667</ele><time>2026-03-28T10:33:25.989Z</time></trkpt><trkpt lat="44.2951308" lon="10.8881373"><ele>293.3333333333333</ele><time>2026-03-28T10:33:26.971Z</time></trkpt><trkpt lat="44.2950644" lon="10.8879303"><ele>295.0</ele><time>2026-03-28T10:33:27.979Z</time></trkpt><trkpt lat="44.2949834" lon="10.8877384"><ele>294.66666666666663</ele><time>2026-03-28T10:33:28.972Z</time></trkpt><trkpt lat="44.2948797" lon="10.8875592"><ele>294.3333333333333</ele><time>2026-03-28T10:33:29.998Z</time></trkpt><trkpt lat="44.294766" lon="10.887389"><ele>294.0</ele><time>2026-03-28T10:33:30.981Z</time></trkpt><trkpt lat="44.2946386" lon="10.8872092"><ele>293.3333333333333</ele><time>2026-03-28T10:33:31.993Z</time></trkpt><trkpt lat="44.2945205" lon="10.8870375"><ele>292.66666666666663</ele><time>2026-03-28T10:33:32.983Z</time></trkpt><trkpt lat="44.2944084" lon="10.8868699"><ele>292.0</ele><time>2026-03-28T10:33:33.966Z</time></trkpt><trkpt lat="44.2943058" lon="10.8867162"><ele>292.0</ele><time>2026-03-28T10:33:34.958Z</time></trkpt><trkpt lat="44.2942024" lon="10.8865611"><ele>292.0</ele><time>2026-03-28T10:33:35.985Z</time></trkpt><trkpt lat="44.2941022" lon="10.886412"><ele>292.0</ele><time>2026-03-28T10:33:36.998Z</time></trkpt><trkpt lat="44.2939912" lon="10.886266"><ele>292.0</ele><time>2026-03-28T10:33:37.971Z</time></trkpt><trkpt lat="44.2938533" lon="10.8861323"><ele>292.0</ele><time>2026-03-28T10:33:38.969Z</time></trkpt><trkpt lat="44.2936669" lon="10.8859746"><ele>292.0</ele><time>2026-03-28T10:33:39.973Z</time></trkpt><trkpt lat="44.2934427" lon="10.8857968"><ele>292.0</ele><time>2026-03-28T10:33:40.991Z</time></trkpt><trkpt lat="44.2932137" lon="10.8856115"><ele>292.0</ele><time>2026-03-28T10:33:41.977Z</time></trkpt><trkpt lat="44.2929746" lon="10.8854232"><ele>289.0</ele><time>2026-03-28T10:33:42.99Z</time></trkpt><trkpt lat="44.2927446" lon="10.8852594"><ele>286.0</ele><time>2026-03-28T10:33:43.99Z</time></trkpt><trkpt lat="44.2925318" lon="10.8851521"><ele>287.66666666666663</ele><time>2026-03-28T10:33:44.985Z</time></trkpt><trkpt lat="44.2923428" lon="10.8850926"><ele>289.3333333333333</ele><time>2026-03-28T10:33:45.982Z</time></trkpt><trkpt lat="44.2921779" lon="10.8850599"><ele>291.0</ele><time>2026-03-28T10:33:46.98Z</time></trkpt><trkpt lat="44.2920291" lon="10.8850456"><ele>291.0</ele><time>2026-03-28T10:33:47.98Z</time></trkpt><trkpt lat="44.2918963" lon="10.8850324"><ele>291.0</ele><time>2026-03-28T10:33:48.989Z</time></trkpt><trkpt lat="44.2917672" lon="10.8850161"><ele>291.0</ele><time>2026-03-28T10:33:49.978Z</time></trkpt><trkpt lat="44.2916467" lon="10.8849841"><ele>291.0</ele><time>2026-03-28T10:33:50.977Z</time></trkpt><trkpt lat="44.2915209" lon="10.8849522"><ele>293.75</ele><time>2026-03-28T10:33:51.981Z</time></trkpt><trkpt lat="44.2913975" lon="10.8849354"><ele>296.5</ele><time>2026-03-28T10:33:52.985Z</time></trkpt><trkpt lat="44.2912699" lon="10.8849338"><ele>299.25</ele><time>2026-03-28T10:33:53.977Z</time></trkpt><trkpt lat="44.2911361" lon="10.8849547"><ele>302.0</ele><time>2026-03-28T10:33:54.988Z</time></trkpt><trkpt lat="44.2909976" lon="10.8850034"><ele>302.0</ele><time>2026-03-28T10:33:55.989Z</time></trkpt><trkpt lat="44.2908525" lon="10.8850801"><ele>302.0</ele><time>2026-03-28T10:33:56.972Z</time></trkpt><trkpt lat="44.2906898" lon="10.8851761"><ele>302.0</ele><time>2026-03-28T10:33:57.974Z</time></trkpt><trkpt lat="44.2905247" lon="10.8852778"><ele>299.6666666666667</ele><time>2026-03-28T10:33:58.974Z</time></trkpt><trkpt lat="44.2903615" lon="10.8853819"><ele>297.3333333333333</ele><time>2026-03-28T10:33:59.985Z</time></trkpt><trkpt lat="44.2902013" lon="10.8854748"><ele>295.0</ele><time>2026-03-28T10:34:00.975Z</time></trkpt><trkpt lat="44.2900287" lon="10.8855416"><ele>295.0</ele><time>2026-03-28T10:34:01.972Z</time></trkpt><trkpt lat="44.2898462" lon="10.8855691"><ele>295.0</ele><time>2026-03-28T10:34:02.992Z</time></trkpt><trkpt lat="44.2896572" lon="10.8855575"><ele>295.0</ele><time>2026-03-28T10:34:03.973Z</time></trkpt><trkpt lat="44.28946" lon="10.885485"><ele>294.3333333333333</ele><time>2026-03-28T10:34:05.006Z</time></trkpt><trkpt lat="44.2892903" lon="10.8853791"><ele>293.6666666666667</ele><time>2026-03-28T10:34:05.982Z</time></trkpt><trkpt lat="44.2891292" lon="10.8852387"><ele>293.0</ele><time>2026-03-28T10:34:06.988Z</time></trkpt><trkpt lat="44.2889889" lon="10.8850674"><ele>292.6666666666667</ele><time>2026-03-28T10:34:07.982Z</time></trkpt><trkpt lat="44.2888736" lon="10.8848721"><ele>292.3333333333333</ele><time>2026-03-28T10:34:08.974Z</time></trkpt><trkpt lat="44.2887691" lon="10.8846424"><ele>292.0</ele><time>2026-03-28T10:34:09.971Z</time></trkpt><trkpt lat="44.2886657" lon="10.8843802"><ele>294.3333333333333</ele><time>2026-03-28T10:34:10.983Z</time></trkpt><trkpt lat="44.2885667" lon="10.8841174"><ele>296.6666666666667</ele><time>2026-03-28T10:34:11.977Z</time></trkpt><trkpt lat="44.2884917" lon="10.8838507"><ele>299.0</ele><time>2026-03-28T10:34:12.995Z</time></trkpt><trkpt lat="44.2884488" lon="10.8835848"><ele>301.0</ele><time>2026-03-28T10:34:13.994Z</time></trkpt><trkpt lat="44.2884353" lon="10.8833332"><ele>303.0</ele><time>2026-03-28T10:34:14.977Z</time></trkpt><trkpt lat="44.2884409" lon="10.8830569"><ele>305.0</ele><time>2026-03-28T10:34:15.989Z</time></trkpt><trkpt lat="44.2884529" lon="10.8827816"><ele>304.6666666666667</ele><time>2026-03-28T10:34:16.977Z</time></trkpt><trkpt lat="44.2884628" lon="10.8825157"><ele>304.3333333333333</ele><time>2026-03-28T10:34:17.974Z</time></trkpt><trkpt lat="44.2884734" lon="10.882272"><ele>304.0</ele><time>2026-03-28T10:34:18.975Z</time></trkpt><trkpt lat="44.2884703" lon="10.8820541"><ele>304.0</ele><time>2026-03-28T10:34:19.963Z</time></trkpt><trkpt lat="44.2884353" lon="10.8818436"><ele>304.0</ele><time>2026-03-28T10:34:20.977Z</time></trkpt><trkpt lat="44.2883591" lon="10.8816484"><ele>304.0</ele><time>2026-03-28T10:34:21.975Z</time></trkpt><trkpt lat="44.2882495" lon="10.8814899"><ele>302.0</ele><time>2026-03-28T10:34:22.983Z</time></trkpt><trkpt lat="44.2880849" lon="10.881302"><ele>300.0</ele><time>2026-03-28T10:34:23.984Z</time></trkpt><trkpt lat="44.2878928" lon="10.8811076"><ele>301.0</ele><time>2026-03-28T10:34:24.979Z</time></trkpt><trkpt lat="44.2876715" lon="10.8809125"><ele>302.0</ele><time>2026-03-28T10:34:25.976Z</time></trkpt><trkpt lat="44.2874303" lon="10.8806865"><ele>300.0</ele><time>2026-03-28T10:34:26.998Z</time></trkpt><trkpt lat="44.2871807" lon="10.8804341"><ele>298.0</ele><time>2026-03-28T10:34:27.994Z</time></trkpt><trkpt lat="44.2869289" lon="10.8801627"><ele>299.0</ele><time>2026-03-28T10:34:28.995Z</time></trkpt><trkpt lat="44.2866892" lon="10.8799043"><ele>300.0</ele><time>2026-03-28T10:34:30.004Z</time></trkpt><trkpt lat="44.2864813" lon="10.8796721"><ele>299.5</ele><time>2026-03-28T10:34:30.986Z</time></trkpt><trkpt lat="44.286278" lon="10.8794691"><ele>299.0</ele><time>2026-03-28T10:34:31.978Z</time></trkpt><trkpt lat="44.2860506" lon="10.8793139"><ele>300.0</ele><time>2026-03-28T10:34:32.979Z</time></trkpt><trkpt lat="44.2858094" lon="10.8792021"><ele>301.0</ele><time>2026-03-28T10:34:33.974Z</time></trkpt><trkpt lat="44.2855247" lon="10.8790892"><ele>301.0</ele><time>2026-03-28T10:34:34.998Z</time></trkpt><trkpt lat="44.2852256" lon="10.8789715"><ele>301.0</ele><time>2026-03-28T10:34:36Z</time></trkpt><trkpt lat="44.2849161" lon="10.87885"><ele>300.0</ele><time>2026-03-28T10:34:36.999Z</time></trkpt><trkpt lat="44.2846154" lon="10.8787297"><ele>299.0</ele><time>2026-03-28T10:34:37.987Z</time></trkpt><trkpt lat="44.2843208" lon="10.878609"><ele>299.0</ele><time>2026-03-28T10:34:38.995Z</time></trkpt><trkpt lat="44.284043" lon="10.8784873"><ele>299.0</ele><time>2026-03-28T10:34:40Z</time></trkpt><trkpt lat="44.2837695" lon="10.8783661"><ele>302.0</ele><time>2026-03-28T10:34:41.001Z</time></trkpt><trkpt lat="44.2835069" lon="10.8782358"><ele>305.0</ele><time>2026-03-28T10:34:41.989Z</time></trkpt><trkpt lat="44.2832415" lon="10.8780889"><ele>302.5</ele><time>2026-03-28T10:34:42.99Z</time></trkpt><trkpt lat="44.2829717" lon="10.8779333"><ele>300.0</ele><time>2026-03-28T10:34:43.993Z</time></trkpt><trkpt lat="44.2827056" lon="10.8777829"><ele>300.0</ele><time>2026-03-28T10:34:44.982Z</time></trkpt><trkpt lat="44.2824396" lon="10.877629"><ele>300.0</ele><time>2026-03-28T10:34:45.975Z</time></trkpt><trkpt lat="44.2821622" lon="10.8774753"><ele>303.5</ele><time>2026-03-28T10:34:46.995Z</time></trkpt><trkpt lat="44.2818903" lon="10.8773241"><ele>307.0</ele><time>2026-03-28T10:34:47.996Z</time></trkpt><trkpt lat="44.2816161" lon="10.8771675"><ele>304.0</ele><time>2026-03-28T10:34:48.999Z</time></trkpt><trkpt lat="44.2813472" lon="10.8770177"><ele>301.0</ele><time>2026-03-28T10:34:49.991Z</time></trkpt><trkpt lat="44.2810785" lon="10.8768717"><ele>302.5</ele><time>2026-03-28T10:34:50.99Z</time></trkpt><trkpt lat="44.280821" lon="10.8767351"><ele>304.0</ele><time>2026-03-28T10:34:51.991Z</time></trkpt><trkpt lat="44.2805787" lon="10.876607"><ele>304.0</ele><time>2026-03-28T10:34:52.988Z</time></trkpt><trkpt lat="44.2803538" lon="10.8764896"><ele>304.0</ele><time>2026-03-28T10:34:53.981Z</time></trkpt><trkpt lat="44.2801443" lon="10.8763678"><ele>304.0</ele><time>2026-03-28T10:34:54.99Z</time></trkpt><trkpt lat="44.2799584" lon="10.8762178"><ele>304.0</ele><time>2026-03-28T10:34:55.989Z</time></trkpt><trkpt lat="44.2797898" lon="10.8760165"><ele>304.0</ele><time>2026-03-28T10:34:56.989Z</time></trkpt><trkpt lat="44.2796308" lon="10.8757749"><ele>304.5</ele><time>2026-03-28T10:34:57.978Z</time></trkpt><trkpt lat="44.2794899" lon="10.875482"><ele>305.0</ele><time>2026-03-28T10:34:58.991Z</time></trkpt><trkpt lat="44.2793947" lon="10.875167"><ele>308.0</ele><time>2026-03-28T10:34:59.984Z</time></trkpt><trkpt lat="44.2793057" lon="10.8748382"><ele>311.0</ele><time>2026-03-28T10:35:00.978Z</time></trkpt><trkpt lat="44.2792134" lon="10.8745299"><ele>309.0</ele><time>2026-03-28T10:35:01.973Z</time></trkpt><trkpt lat="44.2790887" lon="10.8742344"><ele>307.0</ele><time>2026-03-28T10:35:02.976Z</time></trkpt><trkpt lat="44.2789161" lon="10.8739421"><ele>307.0</ele><time>2026-03-28T10:35:03.98Z</time></trkpt><trkpt lat="44.2787168" lon="10.8736719"><ele>307.0</ele><time>2026-03-28T10:35:04.975Z</time></trkpt><trkpt lat="44.2784909" lon="10.8733952"><ele>307.0</ele><time>2026-03-28T10:35:05.995Z</time></trkpt><trkpt lat="44.2782643" lon="10.8731262"><ele>307.0</ele><time>2026-03-28T10:35:06.992Z</time></trkpt><trkpt lat="44.2780415" lon="10.8728599"><ele>309.5</ele><time>2026-03-28T10:35:07.985Z</time></trkpt><trkpt lat="44.2778275" lon="10.8725968"><ele>312.0</ele><time>2026-03-28T10:35:08.96Z</time></trkpt><trkpt lat="44.2776118" lon="10.8723353"><ele>312.0</ele><time>2026-03-28T10:35:09.96Z</time></trkpt><trkpt lat="44.2773956" lon="10.872066"><ele>312.0</ele><time>2026-03-28T10:35:10.975Z</time></trkpt><trkpt lat="44.2771812" lon="10.8718032"><ele>311.5</ele><time>2026-03-28T10:35:11.983Z</time></trkpt><trkpt lat="44.2769719" lon="10.8715461"><ele>311.0</ele><time>2026-03-28T10:35:12.978Z</time></trkpt><trkpt lat="44.2767548" lon="10.8712822"><ele>311.0</ele><time>2026-03-28T10:35:13.995Z</time></trkpt><trkpt lat="44.2765427" lon="10.8710245"><ele>311.0</ele><time>2026-03-28T10:35:14.993Z</time></trkpt><trkpt lat="44.2763352" lon="10.8707707"><ele>312.5</ele><time>2026-03-28T10:35:15.981Z</time></trkpt><trkpt lat="44.2761283" lon="10.87051"><ele>314.0</ele><time>2026-03-28T10:35:16.99Z</time></trkpt><trkpt lat="44.2759291" lon="10.8702588"><ele>314.5</ele><time>2026-03-28T10:35:17.988Z</time></trkpt><trkpt lat="44.2757376" lon="10.8700147"><ele>315.0</ele><time>2026-03-28T10:35:18.993Z</time></trkpt><trkpt lat="44.2755587" lon="10.8697892"><ele>315.0</ele><time>2026-03-28T10:35:19.992Z</time></trkpt><trkpt lat="44.2753785" lon="10.8695921"><ele>315.0</ele><time>2026-03-28T10:35:20.98Z</time></trkpt><trkpt lat="44.2751728" lon="10.8694316"><ele>315.0</ele><time>2026-03-28T10:35:21.976Z</time></trkpt><trkpt lat="44.2749281" lon="10.8693182"><ele>315.0</ele><time>2026-03-28T10:35:22.988Z</time></trkpt><trkpt lat="44.2746554" lon="10.8692364"><ele>318.5</ele><time>2026-03-28T10:35:23.996Z</time></trkpt><trkpt lat="44.2743729" lon="10.8691508"><ele>322.0</ele><time>2026-03-28T10:35:24.981Z</time></trkpt><trkpt lat="44.274073" lon="10.8690315"><ele>320.5</ele><time>2026-03-28T10:35:25.999Z</time></trkpt><trkpt lat="44.273782" lon="10.8688994"><ele>319.0</ele><time>2026-03-28T10:35:26.981Z</time></trkpt><trkpt lat="44.2735047" lon="10.8687629"><ele>319.0</ele><time>2026-03-28T10:35:27.982Z</time></trkpt><trkpt lat="44.2732531" lon="10.8686208"><ele>319.0</ele><time>2026-03-28T10:35:28.976Z</time></trkpt><trkpt lat="44.2730376" lon="10.8684682"><ele>320.0</ele><time>2026-03-28T10:35:29.978Z</time></trkpt><trkpt lat="44.2728319" lon="10.8682793"><ele>321.0</ele><time>2026-03-28T10:35:30.986Z</time></trkpt><trkpt lat="44.2726446" lon="10.8680795"><ele>321.0</ele><time>2026-03-28T10:35:31.962Z</time></trkpt><trkpt lat="44.2724612" lon="10.867846"><ele>321.0</ele><time>2026-03-28T10:35:32.978Z</time></trkpt><trkpt lat="44.2722939" lon="10.8675754"><ele>321.0</ele><time>2026-03-28T10:35:33.987Z</time></trkpt><trkpt lat="44.2721307" lon="10.8672847"><ele>321.0</ele><time>2026-03-28T10:35:35Z</time></trkpt><trkpt lat="44.2719659" lon="10.8670059"><ele>328.0</ele><time>2026-03-28T10:35:35.983Z</time></trkpt><trkpt lat="44.2717709" lon="10.8667579"><ele>335.0</ele><time>2026-03-28T10:35:36.984Z</time></trkpt><trkpt lat="44.2715537" lon="10.8665549"><ele>328.0</ele><time>2026-03-28T10:35:37.977Z</time></trkpt><trkpt lat="44.2713303" lon="10.8663923"><ele>321.0</ele><time>2026-03-28T10:35:38.986Z</time></trkpt><trkpt lat="44.2711306" lon="10.8662486"><ele>321.0</ele><time>2026-03-28T10:35:39.997Z</time></trkpt><trkpt lat="44.2709647" lon="10.8660965"><ele>321.0</ele><time>2026-03-28T10:35:40.988Z</time></trkpt><trkpt lat="44.2708358" lon="10.8659202"><ele>321.0</ele><time>2026-03-28T10:35:41.972Z</time></trkpt><trkpt lat="44.2707302" lon="10.8656848"><ele>322.0</ele><time>2026-03-28T10:35:42.994Z</time></trkpt><trkpt lat="44.2706297" lon="10.8654005"><ele>323.0</ele><time>2026-03-28T10:35:43.985Z</time></trkpt><trkpt lat="44.2705246" lon="10.8650658"><ele>323.0</ele><time>2026-03-28T10:35:44.98Z</time></trkpt><trkpt lat="44.2704297" lon="10.8647144"><ele>323.0</ele><time>2026-03-28T10:35:45.993Z</time></trkpt><trkpt lat="44.2703554" lon="10.8643818"><ele>325.0</ele><time>2026-03-28T10:35:46.986Z</time></trkpt><trkpt lat="44.2703026" lon="10.8640436"><ele>327.0</ele><time>2026-03-28T10:35:47.98Z</time></trkpt><trkpt lat="44.2702687" lon="10.8636967"><ele>327.5</ele><time>2026-03-28T10:35:48.972Z</time></trkpt><trkpt lat="44.2702329" lon="10.8633313"><ele>328.0</ele><time>2026-03-28T10:35:49.993Z</time></trkpt><trkpt lat="44.2702002" lon="10.8629975"><ele>328.0</ele><time>2026-03-28T10:35:50.988Z</time></trkpt><trkpt lat="44.2701569" lon="10.8626943"><ele>328.0</ele><time>2026-03-28T10:35:51.977Z</time></trkpt><trkpt lat="44.2700854" lon="10.8624072"><ele>328.0</ele><time>2026-03-28T10:35:52.984Z</time></trkpt><trkpt lat="44.2699735" lon="10.8621305"><ele>327.0</ele><time>2026-03-28T10:35:53.991Z</time></trkpt><trkpt lat="44.2698235" lon="10.8618584"><ele>326.0</ele><time>2026-03-28T10:35:54.987Z</time></trkpt><trkpt lat="44.2696545" lon="10.8615686"><ele>326.0</ele><time>2026-03-28T10:35:55.988Z</time></trkpt><trkpt lat="44.2695001" lon="10.8612982"><ele>326.0</ele><time>2026-03-28T10:35:56.99Z</time></trkpt><trkpt lat="44.2693639" lon="10.8610752"><ele>330.33333333333337</ele><time>2026-03-28T10:35:57.985Z</time></trkpt><trkpt lat="44.2692334" lon="10.8608885"><ele>334.6666666666667</ele><time>2026-03-28T10:35:58.974Z</time></trkpt><trkpt lat="44.2690917" lon="10.8607484"><ele>339.0</ele><time>2026-03-28T10:35:59.986Z</time></trkpt><trkpt lat="44.2689526" lon="10.8606891"><ele>334.3333333333333</ele><time>2026-03-28T10:36:00.977Z</time></trkpt><trkpt lat="44.2687963" lon="10.8606855"><ele>329.66666666666663</ele><time>2026-03-28T10:36:01.989Z</time></trkpt><trkpt lat="44.2686202" lon="10.8607397"><ele>325.0</ele><time>2026-03-28T10:36:02.981Z</time></trkpt><trkpt lat="44.2684399" lon="10.8608359"><ele>325.0</ele><time>2026-03-28T10:36:03.983Z</time></trkpt><trkpt lat="44.2682552" lon="10.8609439"><ele>325.0</ele><time>2026-03-28T10:36:04.988Z</time></trkpt><trkpt lat="44.2680785" lon="10.8610426"><ele>325.0</ele><time>2026-03-28T10:36:05.974Z</time></trkpt><trkpt lat="44.2678963" lon="10.8611444"><ele>323.3333333333333</ele><time>2026-03-28T10:36:06.982Z</time></trkpt><trkpt lat="44.2677186" lon="10.8612373"><ele>321.6666666666667</ele><time>2026-03-28T10:36:08Z</time></trkpt><trkpt lat="44.2675423" lon="10.8613291"><ele>320.0</ele><time>2026-03-28T10:36:08.996Z</time></trkpt><trkpt lat="44.2673556" lon="10.8614301"><ele>326.0</ele><time>2026-03-28T10:36:09.997Z</time></trkpt><trkpt lat="44.2671652" lon="10.8615314"><ele>332.0</ele><time>2026-03-28T10:36:10.99Z</time></trkpt><trkpt lat="44.2669821" lon="10.8616255"><ele>338.0</ele><time>2026-03-28T10:36:11.976Z</time></trkpt><trkpt lat="44.2668132" lon="10.8617164"><ele>337.6666666666667</ele><time>2026-03-28T10:36:12.974Z</time></trkpt><trkpt lat="44.2666592" lon="10.8618156"><ele>337.3333333333333</ele><time>2026-03-28T10:36:13.978Z</time></trkpt><trkpt lat="44.2665203" lon="10.8619279"><ele>337.0</ele><time>2026-03-28T10:36:14.979Z</time></trkpt><trkpt lat="44.2663877" lon="10.8620435"><ele>337.0</ele><time>2026-03-28T10:36:15.98Z</time></trkpt><trkpt lat="44.2662608" lon="10.8621605"><ele>337.0</ele><time>2026-03-28T10:36:16.992Z</time></trkpt><trkpt lat="44.2661425" lon="10.862271"><ele>337.0</ele><time>2026-03-28T10:36:17.965Z</time></trkpt><trkpt lat="44.2660138" lon="10.8623867"><ele>337.0</ele><time>2026-03-28T10:36:18.99Z</time></trkpt><trkpt lat="44.2658875" lon="10.862494"><ele>337.0</ele><time>2026-03-28T10:36:19.968Z</time></trkpt><trkpt lat="44.2657503" lon="10.8625878"><ele>337.0</ele><time>2026-03-28T10:36:20.984Z</time></trkpt><trkpt lat="44.2656049" lon="10.8626579"><ele>337.0</ele><time>2026-03-28T10:36:21.987Z</time></trkpt><trkpt lat="44.2654495" lon="10.8627034"><ele>335.3333333333333</ele><time>2026-03-28T10:36:22.979Z</time></trkpt><trkpt lat="44.2652701" lon="10.8627295"><ele>333.6666666666667</ele><time>2026-03-28T10:36:23.995Z</time></trkpt><trkpt lat="44.2650858" lon="10.8627336"><ele>332.0</ele><time>2026-03-28T10:36:24.975Z</time></trkpt><trkpt lat="44.2648797" lon="10.8627324"><ele>331.6666666666667</ele><time>2026-03-28T10:36:25.994Z</time></trkpt><trkpt lat="44.2646627" lon="10.8627333"><ele>331.3333333333333</ele><time>2026-03-28T10:36:27.001Z</time></trkpt><trkpt lat="44.2644412" lon="10.8627374"><ele>331.0</ele><time>2026-03-28T10:36:27.988Z</time></trkpt><trkpt lat="44.2642174" lon="10.8627378"><ele>331.0</ele><time>2026-03-28T10:36:28.989Z</time></trkpt><trkpt lat="44.2639985" lon="10.8627402"><ele>331.0</ele><time>2026-03-28T10:36:29.977Z</time></trkpt><trkpt lat="44.2637804" lon="10.8627396"><ele>331.0</ele><time>2026-03-28T10:36:30.978Z</time></trkpt><trkpt lat="44.2635719" lon="10.8627448"><ele>332.0</ele><time>2026-03-28T10:36:31.956Z</time></trkpt><trkpt lat="44.2633543" lon="10.862779"><ele>333.0</ele><time>2026-03-28T10:36:32.98Z</time></trkpt><trkpt lat="44.2631349" lon="10.8628425"><ele>334.0</ele><time>2026-03-28T10:36:33.969Z</time></trkpt><trkpt lat="44.2629138" lon="10.8629352"><ele>335.0</ele><time>2026-03-28T10:36:34.979Z</time></trkpt><trkpt lat="44.2627029" lon="10.8630417"><ele>336.0</ele><time>2026-03-28T10:36:35.987Z</time></trkpt><trkpt lat="44.2625036" lon="10.8631435"><ele>337.0</ele><time>2026-03-28T10:36:37.007Z</time></trkpt><trkpt lat="44.2623232" lon="10.8632281"><ele>338.3333333333333</ele><time>2026-03-28T10:36:37.982Z</time></trkpt><trkpt lat="44.26214" lon="10.8633106"><ele>339.6666666666667</ele><time>2026-03-28T10:36:38.979Z</time></trkpt><trkpt lat="44.261956" lon="10.8633899"><ele>341.0</ele><time>2026-03-28T10:36:39.979Z</time></trkpt><trkpt lat="44.2617766" lon="10.8634663"><ele>341.33333333333337</ele><time>2026-03-28T10:36:40.991Z</time></trkpt><trkpt lat="44.2616058" lon="10.8635416"><ele>341.6666666666667</ele><time>2026-03-28T10:36:41.991Z</time></trkpt><trkpt lat="44.261446" lon="10.8636348"><ele>342.0</ele><time>2026-03-28T10:36:42.997Z</time></trkpt><trkpt lat="44.2613062" lon="10.863747"><ele>342.0</ele><time>2026-03-28T10:36:43.97Z</time></trkpt><trkpt lat="44.2611649" lon="10.8638968"><ele>342.0</ele><time>2026-03-28T10:36:44.994Z</time></trkpt><trkpt lat="44.2610298" lon="10.8640753"><ele>342.0</ele><time>2026-03-28T10:36:45.986Z</time></trkpt><trkpt lat="44.2609015" lon="10.8642785"><ele>343.0</ele><time>2026-03-28T10:36:46.975Z</time></trkpt><trkpt lat="44.2607725" lon="10.8645046"><ele>344.0</ele><time>2026-03-28T10:36:47.995Z</time></trkpt><trkpt lat="44.260643" lon="10.8647296"><ele>345.0</ele><time>2026-03-28T10:36:48.985Z</time></trkpt><trkpt lat="44.2605144" lon="10.8649427"><ele>341.6666666666667</ele><time>2026-03-28T10:36:49.983Z</time></trkpt><trkpt lat="44.2603923" lon="10.8651264"><ele>338.33333333333337</ele><time>2026-03-28T10:36:50.986Z</time></trkpt><trkpt lat="44.2602665" lon="10.8652707"><ele>335.0</ele><time>2026-03-28T10:36:51.965Z</time></trkpt><trkpt lat="44.260115" lon="10.8653932"><ele>335.0</ele><time>2026-03-28T10:36:52.992Z</time></trkpt><trkpt lat="44.2599377" lon="10.8655047"><ele>335.0</ele><time>2026-03-28T10:36:53.988Z</time></trkpt><trkpt lat="44.259726" lon="10.8656253"><ele>335.0</ele><time>2026-03-28T10:36:54.987Z</time></trkpt><trkpt lat="44.2594904" lon="10.8657696"><ele>335.0</ele><time>2026-03-28T10:36:55.993Z</time></trkpt><trkpt lat="44.2592567" lon="10.8659142"><ele>335.0</ele><time>2026-03-28T10:36:56.99Z</time></trkpt><trkpt lat="44.2590376" lon="10.8660445"><ele>335.6666666666667</ele><time>2026-03-28T10:36:57.985Z</time></trkpt><trkpt lat="44.2588399" lon="10.8661526"><ele>336.3333333333333</ele><time>2026-03-28T10:36:58.986Z</time></trkpt><trkpt lat="44.2586552" lon="10.8662379"><ele>337.0</ele><time>2026-03-28T10:36:59.984Z</time></trkpt><trkpt lat="44.2584856" lon="10.866272"><ele>337.0</ele><time>2026-03-28T10:37:00.982Z</time></trkpt><trkpt lat="44.2583132" lon="10.8662669"><ele>337.0</ele><time>2026-03-28T10:37:01.979Z</time></trkpt><trkpt lat="44.258147" lon="10.8662197"><ele>337.0</ele><time>2026-03-28T10:37:02.986Z</time></trkpt><trkpt lat="44.2579818" lon="10.8661273"><ele>337.3333333333333</ele><time>2026-03-28T10:37:03.975Z</time></trkpt><trkpt lat="44.2578025" lon="10.8659971"><ele>337.6666666666667</ele><time>2026-03-28T10:37:04.993Z</time></trkpt><trkpt lat="44.2576325" lon="10.8658765"><ele>338.0</ele><time>2026-03-28T10:37:05.992Z</time></trkpt><trkpt lat="44.2574662" lon="10.8657892"><ele>342.33333333333337</ele><time>2026-03-28T10:37:06.977Z</time></trkpt><trkpt lat="44.257278" lon="10.8657421"><ele>346.6666666666667</ele><time>2026-03-28T10:37:07.988Z</time></trkpt><trkpt lat="44.2570661" lon="10.8657442"><ele>351.0</ele><time>2026-03-28T10:37:08.97Z</time></trkpt><trkpt lat="44.2568201" lon="10.8657808"><ele>351.0</ele><time>2026-03-28T10:37:09.988Z</time></trkpt><trkpt lat="44.2565594" lon="10.865819"><ele>351.0</ele><time>2026-03-28T10:37:10.968Z</time></trkpt><trkpt lat="44.2562937" lon="10.8658418"><ele>352.0</ele><time>2026-03-28T10:37:11.977Z</time></trkpt><trkpt lat="44.2560415" lon="10.865844"><ele>353.0</ele><time>2026-03-28T10:37:13.001Z</time></trkpt><trkpt lat="44.2558188" lon="10.865825"><ele>351.6666666666667</ele><time>2026-03-28T10:37:13.982Z</time></trkpt><trkpt lat="44.2556011" lon="10.8657782"><ele>350.3333333333333</ele><time>2026-03-28T10:37:14.989Z</time></trkpt><trkpt lat="44.2553928" lon="10.8657227"><ele>349.0</ele><time>2026-03-28T10:37:15.982Z</time></trkpt><trkpt lat="44.2551862" lon="10.8656514"><ele>349.0</ele><time>2026-03-28T10:37:16.973Z</time></trkpt><trkpt lat="44.2549736" lon="10.8655589"><ele>349.0</ele><time>2026-03-28T10:37:17.979Z</time></trkpt><trkpt lat="44.2547602" lon="10.8654442"><ele>347.66666666666663</ele><time>2026-03-28T10:37:18.986Z</time></trkpt><trkpt lat="44.2545555" lon="10.8653114"><ele>346.3333333333333</ele><time>2026-03-28T10:37:19.991Z</time></trkpt><trkpt lat="44.2543676" lon="10.865149"><ele>345.0</ele><time>2026-03-28T10:37:20.978Z</time></trkpt><trkpt lat="44.25418" lon="10.8649391"><ele>345.5</ele><time>2026-03-28T10:37:21.991Z</time></trkpt><trkpt lat="44.2539975" lon="10.8647115"><ele>346.0</ele><time>2026-03-28T10:37:23.005Z</time></trkpt><trkpt lat="44.2538239" lon="10.8644985"><ele>346.0</ele><time>2026-03-28T10:37:23.995Z</time></trkpt><trkpt lat="44.2536517" lon="10.8643059"><ele>346.0</ele><time>2026-03-28T10:37:24.989Z</time></trkpt><trkpt lat="44.2534721" lon="10.8641285"><ele>346.0</ele><time>2026-03-28T10:37:25.972Z</time></trkpt><trkpt lat="44.2532871" lon="10.8639577"><ele>348.0</ele><time>2026-03-28T10:37:26.977Z</time></trkpt><trkpt lat="44.2531004" lon="10.8637968"><ele>350.0</ele><time>2026-03-28T10:37:27.979Z</time></trkpt><trkpt lat="44.2529117" lon="10.8636378"><ele>352.0</ele><time>2026-03-28T10:37:28.986Z</time></trkpt><trkpt lat="44.2527239" lon="10.8634973"><ele>356.66666666666663</ele><time>2026-03-28T10:37:29.969Z</time></trkpt><trkpt lat="44.2525302" lon="10.8633798"><ele>361.3333333333333</ele><time>2026-03-28T10:37:30.975Z</time></trkpt><trkpt lat="44.252328" lon="10.8632886"><ele>366.0</ele><time>2026-03-28T10:37:31.987Z</time></trkpt><trkpt lat="44.252122" lon="10.8632099"><ele>366.0</ele><time>2026-03-28T10:37:32.981Z</time></trkpt><trkpt lat="44.2519151" lon="10.8631177"><ele>366.0</ele><time>2026-03-28T10:37:33.992Z</time></trkpt><trkpt lat="44.2517133" lon="10.8629911"><ele>366.0</ele><time>2026-03-28T10:37:34.997Z</time></trkpt><trkpt lat="44.251506" lon="10.8628294"><ele>368.0</ele><time>2026-03-28T10:37:35.98Z</time></trkpt><trkpt lat="44.2513074" lon="10.8626598"><ele>370.0</ele><time>2026-03-28T10:37:36.984Z</time></trkpt><trkpt lat="44.2511251" lon="10.862497"><ele>372.0</ele><time>2026-03-28T10:37:37.98Z</time></trkpt><trkpt lat="44.2509498" lon="10.8623418"><ele>372.0</ele><time>2026-03-28T10:37:39.003Z</time></trkpt><trkpt lat="44.2507909" lon="10.8622017"><ele>372.0</ele><time>2026-03-28T10:37:39.984Z</time></trkpt><trkpt lat="44.2506364" lon="10.8620404"><ele>372.0</ele><time>2026-03-28T10:37:40.992Z</time></trkpt><trkpt lat="44.250497" lon="10.8618487"><ele>371.3333333333333</ele><time>2026-03-28T10:37:41.987Z</time></trkpt><trkpt lat="44.2503636" lon="10.8616305"><ele>370.66666666666663</ele><time>2026-03-28T10:37:42.985Z</time></trkpt><trkpt lat="44.2502327" lon="10.8614029"><ele>370.0</ele><time>2026-03-28T10:37:43.966Z</time></trkpt><trkpt lat="44.2501035" lon="10.8611737"><ele>370.0</ele><time>2026-03-28T10:37:44.985Z</time></trkpt><trkpt lat="44.249971" lon="10.8609533"><ele>370.0</ele><time>2026-03-28T10:37:45.979Z</time></trkpt><trkpt lat="44.2498375" lon="10.8607245"><ele>370.0</ele><time>2026-03-28T10:37:47.006Z</time></trkpt><trkpt lat="44.2497167" lon="10.8605049"><ele>370.0</ele><time>2026-03-28T10:37:47.994Z</time></trkpt><trkpt lat="44.2496078" lon="10.8602654"><ele>370.0</ele><time>2026-03-28T10:37:49.002Z</time></trkpt><trkpt lat="44.2495286" lon="10.860006"><ele>370.0</ele><time>2026-03-28T10:37:49.973Z</time></trkpt><trkpt lat="44.2494576" lon="10.8597074"><ele>370.0</ele><time>2026-03-28T10:37:50.979Z</time></trkpt><trkpt lat="44.24939" lon="10.859377"><ele>370.0</ele><time>2026-03-28T10:37:51.984Z</time></trkpt><trkpt lat="44.2493269" lon="10.8590557"><ele>375.0</ele><time>2026-03-28T10:37:52.973Z</time></trkpt><trkpt lat="44.2492512" lon="10.8587416"><ele>380.0</ele><time>2026-03-28T10:37:53.987Z</time></trkpt><trkpt lat="44.2491546" lon="10.8584503"><ele>376.5</ele><time>2026-03-28T10:37:54.981Z</time></trkpt><trkpt lat="44.2490367" lon="10.8581624"><ele>373.0</ele><time>2026-03-28T10:37:55.995Z</time></trkpt><trkpt lat="44.2489193" lon="10.8578817"><ele>378.5</ele><time>2026-03-28T10:37:56.993Z</time></trkpt><trkpt lat="44.2488008" lon="10.8576009"><ele>384.0</ele><time>2026-03-28T10:37:57.978Z</time></trkpt><trkpt lat="44.2486735" lon="10.8573269"><ele>384.0</ele><time>2026-03-28T10:37:58.99Z</time></trkpt><trkpt lat="44.2485402" lon="10.8570822"><ele>384.0</ele><time>2026-03-28T10:37:59.981Z</time></trkpt><trkpt lat="44.2483936" lon="10.856844"><ele>384.0</ele><time>2026-03-28T10:38:00.992Z</time></trkpt><trkpt lat="44.2482411" lon="10.8566332"><ele>386.0</ele><time>2026-03-28T10:38:01.976Z</time></trkpt><trkpt lat="44.2480649" lon="10.856437"><ele>388.0</ele><time>2026-03-28T10:38:02.988Z</time></trkpt><trkpt lat="44.2478545" lon="10.8562513"><ele>388.0</ele><time>2026-03-28T10:38:04.001Z</time></trkpt><trkpt lat="44.2476203" lon="10.856072"><ele>388.0</ele><time>2026-03-28T10:38:04.984Z</time></trkpt><trkpt lat="44.2473591" lon="10.8558817"><ele>391.0</ele><time>2026-03-28T10:38:05.976Z</time></trkpt><trkpt lat="44.2470752" lon="10.8556746"><ele>394.0</ele><time>2026-03-28T10:38:06.994Z</time></trkpt><trkpt lat="44.2467854" lon="10.8554529"><ele>394.0</ele><time>2026-03-28T10:38:07.985Z</time></trkpt><trkpt lat="44.2464782" lon="10.8552138"><ele>394.0</ele><time>2026-03-28T10:38:09.006Z</time></trkpt><trkpt lat="44.2461803" lon="10.8549872"><ele>396.0</ele><time>2026-03-28T10:38:09.973Z</time></trkpt><trkpt lat="44.24587" lon="10.8547515"><ele>398.0</ele><time>2026-03-28T10:38:10.987Z</time></trkpt><trkpt lat="44.2455729" lon="10.8545289"><ele>398.0</ele><time>2026-03-28T10:38:11.984Z</time></trkpt><trkpt lat="44.2452918" lon="10.8543222"><ele>398.0</ele><time>2026-03-28T10:38:12.973Z</time></trkpt><trkpt lat="44.2450245" lon="10.8541241"><ele>405.0</ele><time>2026-03-28T10:38:13.97Z</time></trkpt><trkpt lat="44.2447558" lon="10.8539356"><ele>412.0</ele><time>2026-03-28T10:38:14.99Z</time></trkpt><trkpt lat="44.2444857" lon="10.8537805"><ele>412.0</ele><time>2026-03-28T10:38:15.986Z</time></trkpt><trkpt lat="44.2442027" lon="10.8536434"><ele>412.0</ele><time>2026-03-28T10:38:16.991Z</time></trkpt><trkpt lat="44.2439127" lon="10.8535271"><ele>416.0</ele><time>2026-03-28T10:38:17.99Z</time></trkpt><trkpt lat="44.2436267" lon="10.8534145"><ele>420.0</ele><time>2026-03-28T10:38:18.997Z</time></trkpt><trkpt lat="44.2433595" lon="10.853311"><ele>417.0</ele><time>2026-03-28T10:38:20.007Z</time></trkpt><trkpt lat="44.2431166" lon="10.8532132"><ele>414.0</ele><time>2026-03-28T10:38:20.999Z</time></trkpt><trkpt lat="44.2428855" lon="10.8531068"><ele>414.0</ele><time>2026-03-28T10:38:21.998Z</time></trkpt><trkpt lat="44.2426796" lon="10.8529727"><ele>414.0</ele><time>2026-03-28T10:38:22.979Z</time></trkpt><trkpt lat="44.2424905" lon="10.8527917"><ele>413.0</ele><time>2026-03-28T10:38:23.975Z</time></trkpt><trkpt lat="44.2423014" lon="10.8525612"><ele>412.0</ele><time>2026-03-28T10:38:24.981Z</time></trkpt><trkpt lat="44.2421191" lon="10.8522835"><ele>412.0</ele><time>2026-03-28T10:38:25.977Z</time></trkpt><trkpt lat="44.2419316" lon="10.8519617"><ele>412.0</ele><time>2026-03-28T10:38:27.001Z</time></trkpt><trkpt lat="44.2417515" lon="10.8516464"><ele>413.5</ele><time>2026-03-28T10:38:27.981Z</time></trkpt><trkpt lat="44.2415468" lon="10.8513343"><ele>415.0</ele><time>2026-03-28T10:38:28.976Z</time></trkpt><trkpt lat="44.2413171" lon="10.851036"><ele>423.0</ele><time>2026-03-28T10:38:29.989Z</time></trkpt><trkpt lat="44.2410605" lon="10.850769"><ele>431.0</ele><time>2026-03-28T10:38:30.99Z</time></trkpt><trkpt lat="44.2407957" lon="10.8505277"><ele>434.0</ele><time>2026-03-28T10:38:31.991Z</time></trkpt><trkpt lat="44.2405567" lon="10.8503095"><ele>437.0</ele><time>2026-03-28T10:38:32.981Z</time></trkpt><trkpt lat="44.2403464" lon="10.8501053"><ele>437.0</ele><time>2026-03-28T10:38:33.991Z</time></trkpt><trkpt lat="44.2401574" lon="10.8499041"><ele>437.0</ele><time>2026-03-28T10:38:34.985Z</time></trkpt><trkpt lat="44.2400051" lon="10.8496823"><ele>437.0</ele><time>2026-03-28T10:38:35.991Z</time></trkpt><trkpt lat="44.2398955" lon="10.8494381"><ele>437.0</ele><time>2026-03-28T10:38:36.969Z</time></trkpt><trkpt lat="44.2398151" lon="10.8491598"><ele>437.0</ele><time>2026-03-28T10:38:37.98Z</time></trkpt><trkpt lat="44.2397691" lon="10.8488579"><ele>435.5</ele><time>2026-03-28T10:38:38.966Z</time></trkpt><trkpt lat="44.2397459" lon="10.84852"><ele>434.0</ele><time>2026-03-28T10:38:39.978Z</time></trkpt><trkpt lat="44.2397364" lon="10.8481575"><ele>434.0</ele><time>2026-03-28T10:38:40.996Z</time></trkpt><trkpt lat="44.2397281" lon="10.8478222"><ele>434.0</ele><time>2026-03-28T10:38:41.979Z</time></trkpt><trkpt lat="44.2397101" lon="10.8475096"><ele>437.3333333333333</ele><time>2026-03-28T10:38:42.989Z</time></trkpt><trkpt lat="44.2396716" lon="10.8472221"><ele>440.66666666666663</ele><time>2026-03-28T10:38:43.986Z</time></trkpt><trkpt lat="44.2396017" lon="10.8469605"><ele>444.0</ele><time>2026-03-28T10:38:44.986Z</time></trkpt><trkpt lat="44.2394895" lon="10.8467268"><ele>445.0</ele><time>2026-03-28T10:38:45.985Z</time></trkpt><trkpt lat="44.2393259" lon="10.8465207"><ele>446.0</ele><time>2026-03-28T10:38:47.004Z</time></trkpt><trkpt lat="44.2391283" lon="10.8463687"><ele>447.0</ele><time>2026-03-28T10:38:47.97Z</time></trkpt><trkpt lat="44.2388802" lon="10.8462388"><ele>447.0</ele><time>2026-03-28T10:38:48.998Z</time></trkpt><trkpt lat="44.238612" lon="10.846136"><ele>447.0</ele><time>2026-03-28T10:38:49.975Z</time></trkpt><trkpt lat="44.2383247" lon="10.8460346"><ele>453.5</ele><time>2026-03-28T10:38:50.976Z</time></trkpt><trkpt lat="44.2380492" lon="10.8459295"><ele>460.0</ele><time>2026-03-28T10:38:51.978Z</time></trkpt><trkpt lat="44.237803" lon="10.8458233"><ele>460.0</ele><time>2026-03-28T10:38:52.979Z</time></trkpt><trkpt lat="44.2375823" lon="10.8457032"><ele>460.0</ele><time>2026-03-28T10:38:53.986Z</time></trkpt><trkpt lat="44.2373791" lon="10.8455496"><ele>461.0</ele><time>2026-03-28T10:38:54.998Z</time></trkpt><trkpt lat="44.2371875" lon="10.8453538"><ele>462.0</ele><time>2026-03-28T10:38:55.989Z</time></trkpt><trkpt lat="44.2369993" lon="10.8451221"><ele>462.0</ele><time>2026-03-28T10:38:56.976Z</time></trkpt><trkpt lat="44.236805" lon="10.8448507"><ele>462.0</ele><time>2026-03-28T10:38:57.996Z</time></trkpt><trkpt lat="44.2365952" lon="10.8445632"><ele>463.5</ele><time>2026-03-28T10:38:58.989Z</time></trkpt><trkpt lat="44.2363946" lon="10.8442906"><ele>465.0</ele><time>2026-03-28T10:39:00.019Z</time></trkpt><trkpt lat="44.2362333" lon="10.8440642"><ele>465.0</ele><time>2026-03-28T10:39:00.974Z</time></trkpt><trkpt lat="44.2360913" lon="10.8438315"><ele>465.0</ele><time>2026-03-28T10:39:01.977Z</time></trkpt><trkpt lat="44.2359793" lon="10.8435799"><ele>465.0</ele><time>2026-03-28T10:39:02.985Z</time></trkpt><trkpt lat="44.2358925" lon="10.8433244"><ele>467.66666666666663</ele><time>2026-03-28T10:39:03.975Z</time></trkpt><trkpt lat="44.2358302" lon="10.8430592"><ele>470.3333333333333</ele><time>2026-03-28T10:39:04.977Z</time></trkpt><trkpt lat="44.2357885" lon="10.8427825"><ele>473.0</ele><time>2026-03-28T10:39:05.979Z</time></trkpt><trkpt lat="44.2357669" lon="10.842491"><ele>474.0</ele><time>2026-03-28T10:39:06.983Z</time></trkpt><trkpt lat="44.2357655" lon="10.8421961"><ele>475.0</ele><time>2026-03-28T10:39:07.969Z</time></trkpt><trkpt lat="44.2357879" lon="10.8419054"><ele>476.0</ele><time>2026-03-28T10:39:08.981Z</time></trkpt><trkpt lat="44.2358391" lon="10.8416215"><ele>476.0</ele><time>2026-03-28T10:39:09.988Z</time></trkpt><trkpt lat="44.2359142" lon="10.8413444"><ele>476.0</ele><time>2026-03-28T10:39:10.972Z</time></trkpt><trkpt lat="44.2360029" lon="10.8410497"><ele>476.0</ele><time>2026-03-28T10:39:11.984Z</time></trkpt><trkpt lat="44.2360932" lon="10.8407469"><ele>475.0</ele><time>2026-03-28T10:39:13.001Z</time></trkpt><trkpt lat="44.2361753" lon="10.8404731"><ele>474.0</ele><time>2026-03-28T10:39:13.974Z</time></trkpt><trkpt lat="44.2362551" lon="10.8402058"><ele>473.0</ele><time>2026-03-28T10:39:14.978Z</time></trkpt><trkpt lat="44.236318" lon="10.8399541"><ele>472.66666666666663</ele><time>2026-03-28T10:39:15.983Z</time></trkpt><trkpt lat="44.2363555" lon="10.8397043"><ele>472.33333333333337</ele><time>2026-03-28T10:39:16.973Z</time></trkpt><trkpt lat="44.2363696" lon="10.8394478"><ele>472.0</ele><time>2026-03-28T10:39:17.963Z</time></trkpt><trkpt lat="44.2363491" lon="10.8391645"><ele>472.0</ele><time>2026-03-28T10:39:18.989Z</time></trkpt><trkpt lat="44.2362929" lon="10.8388904"><ele>472.0</ele><time>2026-03-28T10:39:19.993Z</time></trkpt><trkpt lat="44.2362049" lon="10.8386136"><ele>472.0</ele><time>2026-03-28T10:39:20.994Z</time></trkpt><trkpt lat="44.2360812" lon="10.8383508"><ele>476.0</ele><time>2026-03-28T10:39:21.977Z</time></trkpt><trkpt lat="44.2359101" lon="10.8381183"><ele>480.0</ele><time>2026-03-28T10:39:22.994Z</time></trkpt><trkpt lat="44.2357268" lon="10.8379003"><ele>480.33333333333337</ele><time>2026-03-28T10:39:23.971Z</time></trkpt><trkpt lat="44.235542" lon="10.8376816"><ele>480.6666666666667</ele><time>2026-03-28T10:39:25.005Z</time></trkpt><trkpt lat="44.2354122" lon="10.8374785"><ele>481.0</ele><time>2026-03-28T10:39:25.97Z</time></trkpt><trkpt lat="44.235319" lon="10.837267"><ele>481.0</ele><time>2026-03-28T10:39:26.986Z</time></trkpt><trkpt lat="44.2352825" lon="10.8370809"><ele>481.0</ele><time>2026-03-28T10:39:27.995Z</time></trkpt><trkpt lat="44.2352634" lon="10.83686"><ele>481.0</ele><time>2026-03-28T10:39:28.983Z</time></trkpt><trkpt lat="44.2352793" lon="10.8366074"><ele>482.6666666666667</ele><time>2026-03-28T10:39:29.995Z</time></trkpt><trkpt lat="44.2353281" lon="10.8363508"><ele>484.33333333333337</ele><time>2026-03-28T10:39:30.969Z</time></trkpt><trkpt lat="44.2353962" lon="10.8360495"><ele>486.0</ele><time>2026-03-28T10:39:31.978Z</time></trkpt><trkpt lat="44.2354748" lon="10.8357468"><ele>486.66666666666663</ele><time>2026-03-28T10:39:32.977Z</time></trkpt><trkpt lat="44.2355554" lon="10.8354651"><ele>487.3333333333333</ele><time>2026-03-28T10:39:33.981Z</time></trkpt><trkpt lat="44.2356187" lon="10.8352187"><ele>488.0</ele><time>2026-03-28T10:39:34.982Z</time></trkpt><trkpt lat="44.2356435" lon="10.8349913"><ele>489.66666666666663</ele><time>2026-03-28T10:39:36.004Z</time></trkpt><trkpt lat="44.2356269" lon="10.8347757"><ele>491.33333333333337</ele><time>2026-03-28T10:39:37.008Z</time></trkpt><trkpt lat="44.2355708" lon="10.8345845"><ele>493.0</ele><time>2026-03-28T10:39:37.993Z</time></trkpt><trkpt lat="44.2354743" lon="10.8344099"><ele>498.0</ele><time>2026-03-28T10:39:38.976Z</time></trkpt><trkpt lat="44.2353282" lon="10.8342468"><ele>503.0</ele><time>2026-03-28T10:39:40.001Z</time></trkpt><trkpt lat="44.2351501" lon="10.834114"><ele>508.0</ele><time>2026-03-28T10:39:40.987Z</time></trkpt><trkpt lat="44.2349699" lon="10.8339847"><ele>508.0</ele><time>2026-03-28T10:39:41.982Z</time></trkpt><trkpt lat="44.2348149" lon="10.8338472"><ele>508.0</ele><time>2026-03-28T10:39:42.979Z</time></trkpt><trkpt lat="44.2346788" lon="10.8336746"><ele>508.0</ele><time>2026-03-28T10:39:44.001Z</time></trkpt><trkpt lat="44.2345784" lon="10.8334739"><ele>507.0</ele><time>2026-03-28T10:39:44.989Z</time></trkpt><trkpt lat="44.2344831" lon="10.8332126"><ele>506.0</ele><time>2026-03-28T10:39:45.979Z</time></trkpt><trkpt lat="44.2343928" lon="10.8329091"><ele>505.0</ele><time>2026-03-28T10:39:46.988Z</time></trkpt><trkpt lat="44.2343127" lon="10.8325961"><ele>507.33333333333337</ele><time>2026-03-28T10:39:47.985Z</time></trkpt><trkpt lat="44.2342458" lon="10.8322923"><ele>509.66666666666663</ele><time>2026-03-28T10:39:48.989Z</time></trkpt><trkpt lat="44.2341818" lon="10.8319997"><ele>512.0</ele><time>2026-03-28T10:39:49.999Z</time></trkpt><trkpt lat="44.2341293" lon="10.8317336"><ele>515.6666666666666</ele><time>2026-03-28T10:39:50.991Z</time></trkpt><trkpt lat="44.2340805" lon="10.8314758"><ele>519.3333333333334</ele><time>2026-03-28T10:39:51.986Z</time></trkpt><trkpt lat="44.2340439" lon="10.8312319"><ele>523.0</ele><time>2026-03-28T10:39:52.99Z</time></trkpt><trkpt lat="44.2339913" lon="10.830977"><ele>521.3333333333334</ele><time>2026-03-28T10:39:53.99Z</time></trkpt><trkpt lat="44.2339369" lon="10.830717"><ele>519.6666666666666</ele><time>2026-03-28T10:39:55.001Z</time></trkpt><trkpt lat="44.23388" lon="10.8304702"><ele>518.0</ele><time>2026-03-28T10:39:55.986Z</time></trkpt><trkpt lat="44.2338198" lon="10.8302198"><ele>517.6666666666666</ele><time>2026-03-28T10:39:56.993Z</time></trkpt><trkpt lat="44.2337554" lon="10.8299804"><ele>517.3333333333334</ele><time>2026-03-28T10:39:57.977Z</time></trkpt><trkpt lat="44.2336849" lon="10.8297349"><ele>517.0</ele><time>2026-03-28T10:39:58.989Z</time></trkpt><trkpt lat="44.2336112" lon="10.8295056"><ele>518.6666666666667</ele><time>2026-03-28T10:39:59.974Z</time></trkpt><trkpt lat="44.2335268" lon="10.8292796"><ele>520.3333333333334</ele><time>2026-03-28T10:40:00.98Z</time></trkpt><trkpt lat="44.2334374" lon="10.8290769"><ele>522.0</ele><time>2026-03-28T10:40:01.977Z</time></trkpt><trkpt lat="44.2333324" lon="10.828883"><ele>522.0</ele><time>2026-03-28T10:40:02.983Z</time></trkpt><trkpt lat="44.2332316" lon="10.8286989"><ele>522.0</ele><time>2026-03-28T10:40:04.003Z</time></trkpt><trkpt lat="44.2331503" lon="10.828527"><ele>522.0</ele><time>2026-03-28T10:40:04.98Z</time></trkpt><trkpt lat="44.2330856" lon="10.8283354"><ele>519.6666666666666</ele><time>2026-03-28T10:40:05.992Z</time></trkpt><trkpt lat="44.233049" lon="10.8281271"><ele>517.3333333333333</ele><time>2026-03-28T10:40:06.989Z</time></trkpt><trkpt lat="44.2330229" lon="10.8278903"><ele>515.0</ele><time>2026-03-28T10:40:07.989Z</time></trkpt><trkpt lat="44.232998" lon="10.827622"><ele>515.0</ele><time>2026-03-28T10:40:08.993Z</time></trkpt><trkpt lat="44.2329661" lon="10.8273331"><ele>515.0</ele><time>2026-03-28T10:40:09.982Z</time></trkpt><trkpt lat="44.2329277" lon="10.8270456"><ele>515.0</ele><time>2026-03-28T10:40:10.972Z</time></trkpt><trkpt lat="44.2328844" lon="10.8267664"><ele>516.6666666666666</ele><time>2026-03-28T10:40:11.974Z</time></trkpt><trkpt lat="44.2328361" lon="10.8264949"><ele>518.3333333333334</ele><time>2026-03-28T10:40:12.995Z</time></trkpt><trkpt lat="44.2327889" lon="10.8262429"><ele>520.0</ele><time>2026-03-28T10:40:13.995Z</time></trkpt><trkpt lat="44.2327426" lon="10.8259908"><ele>521.3333333333334</ele><time>2026-03-28T10:40:15.006Z</time></trkpt><trkpt lat="44.2326999" lon="10.8257552"><ele>522.6666666666666</ele><time>2026-03-28T10:40:15.986Z</time></trkpt><trkpt lat="44.2326553" lon="10.8255296"><ele>524.0</ele><time>2026-03-28T10:40:16.991Z</time></trkpt><trkpt lat="44.2326012" lon="10.8253213"><ele>523.6666666666666</ele><time>2026-03-28T10:40:17.987Z</time></trkpt><trkpt lat="44.2325181" lon="10.8251298"><ele>523.3333333333334</ele><time>2026-03-28T10:40:18.983Z</time></trkpt><trkpt lat="44.2324076" lon="10.8249556"><ele>523.0</ele><time>2026-03-28T10:40:19.987Z</time></trkpt><trkpt lat="44.2322667" lon="10.8247986"><ele>523.0</ele><time>2026-03-28T10:40:20.992Z</time></trkpt><trkpt lat="44.2321003" lon="10.8246506"><ele>523.0</ele><time>2026-03-28T10:40:22.013Z</time></trkpt><trkpt lat="44.2319316" lon="10.8245162"><ele>523.0</ele><time>2026-03-28T10:40:22.983Z</time></trkpt><trkpt lat="44.2317602" lon="10.8243771"><ele>522.3333333333334</ele><time>2026-03-28T10:40:23.972Z</time></trkpt><trkpt lat="44.2315864" lon="10.8242374"><ele>521.6666666666666</ele><time>2026-03-28T10:40:24.973Z</time></trkpt><trkpt lat="44.2314124" lon="10.8240976"><ele>521.0</ele><time>2026-03-28T10:40:25.987Z</time></trkpt><trkpt lat="44.2312467" lon="10.823962"><ele>521.0</ele><time>2026-03-28T10:40:26.984Z</time></trkpt><trkpt lat="44.2310832" lon="10.8238246"><ele>521.0</ele><time>2026-03-28T10:40:28.005Z</time></trkpt><trkpt lat="44.2309311" lon="10.8236946"><ele>521.0</ele><time>2026-03-28T10:40:29.004Z</time></trkpt><trkpt lat="44.2307902" lon="10.8235753"><ele>520.0</ele><time>2026-03-28T10:40:29.976Z</time></trkpt><trkpt lat="44.2306376" lon="10.8234504"><ele>519.0</ele><time>2026-03-28T10:40:30.99Z</time></trkpt><trkpt lat="44.2304806" lon="10.8233236"><ele>518.0</ele><time>2026-03-28T10:40:31.982Z</time></trkpt><trkpt lat="44.2303149" lon="10.8231895"><ele>518.0</ele><time>2026-03-28T10:40:32.984Z</time></trkpt><trkpt lat="44.2301516" lon="10.8230463"><ele>518.0</ele><time>2026-03-28T10:40:33.977Z</time></trkpt><trkpt lat="44.2299842" lon="10.8229002"><ele>518.0</ele><time>2026-03-28T10:40:34.985Z</time></trkpt><trkpt lat="44.2298229" lon="10.822762"><ele>515.3333333333333</ele><time>2026-03-28T10:40:35.977Z</time></trkpt><trkpt lat="44.2296726" lon="10.8226383"><ele>512.6666666666666</ele><time>2026-03-28T10:40:36.994Z</time></trkpt><trkpt lat="44.2295444" lon="10.8225335"><ele>510.0</ele><time>2026-03-28T10:40:37.979Z</time></trkpt><trkpt lat="44.2294434" lon="10.8224193"><ele>510.0</ele><time>2026-03-28T10:40:38.983Z</time></trkpt><trkpt lat="44.2293692" lon="10.8222592"><ele>510.0</ele><time>2026-03-28T10:40:40.004Z</time></trkpt><trkpt lat="44.2293157" lon="10.8220534"><ele>510.0</ele><time>2026-03-28T10:40:40.999Z</time></trkpt><trkpt lat="44.229272" lon="10.8218183"><ele>510.0</ele><time>2026-03-28T10:40:41.985Z</time></trkpt><trkpt lat="44.2292316" lon="10.8215668"><ele>510.0</ele><time>2026-03-28T10:40:42.979Z</time></trkpt><trkpt lat="44.2291744" lon="10.8213344"><ele>510.0</ele><time>2026-03-28T10:40:43.982Z</time></trkpt><trkpt lat="44.2290758" lon="10.8211181"><ele>506.0</ele><time>2026-03-28T10:40:44.995Z</time></trkpt><trkpt lat="44.2289318" lon="10.8209046"><ele>502.0</ele><time>2026-03-28T10:40:45.987Z</time></trkpt><trkpt lat="44.2287669" lon="10.8207112"><ele>498.0</ele><time>2026-03-28T10:40:46.974Z</time></trkpt><trkpt lat="44.2286007" lon="10.8205239"><ele>498.0</ele><time>2026-03-28T10:40:48.005Z</time></trkpt><trkpt lat="44.2284631" lon="10.8203526"><ele>498.0</ele><time>2026-03-28T10:40:48.987Z</time></trkpt><trkpt lat="44.2283483" lon="10.8201706"><ele>498.0</ele><time>2026-03-28T10:40:49.994Z</time></trkpt><trkpt lat="44.2282505" lon="10.8199596"><ele>497.66666666666663</ele><time>2026-03-28T10:40:50.985Z</time></trkpt><trkpt lat="44.2281627" lon="10.8197224"><ele>497.3333333333333</ele><time>2026-03-28T10:40:51.983Z</time></trkpt><trkpt lat="44.2280884" lon="10.8194881"><ele>497.0</ele><time>2026-03-28T10:40:52.98Z</time></trkpt><trkpt lat="44.2280106" lon="10.8192436"><ele>497.0</ele><time>2026-03-28T10:40:53.995Z</time></trkpt><trkpt lat="44.2279283" lon="10.8190107"><ele>497.0</ele><time>2026-03-28T10:40:54.997Z</time></trkpt><trkpt lat="44.227833" lon="10.8187925"><ele>497.0</ele><time>2026-03-28T10:40:55.985Z</time></trkpt><trkpt lat="44.2277067" lon="10.8185821"><ele>499.66666666666663</ele><time>2026-03-28T10:40:56.997Z</time></trkpt><trkpt lat="44.2275786" lon="10.8183864"><ele>502.33333333333337</ele><time>2026-03-28T10:40:57.982Z</time></trkpt><trkpt lat="44.2274449" lon="10.8181841"><ele>505.0</ele><time>2026-03-28T10:40:59.007Z</time></trkpt><trkpt lat="44.2273292" lon="10.8179721"><ele>500.5</ele><time>2026-03-28T10:40:59.977Z</time></trkpt><trkpt lat="44.2272165" lon="10.8177118"><ele>496.0</ele><time>2026-03-28T10:41:00.981Z</time></trkpt><trkpt lat="44.2271028" lon="10.8174199"><ele>496.0</ele><time>2026-03-28T10:41:02.003Z</time></trkpt><trkpt lat="44.2269901" lon="10.8171283"><ele>496.0</ele><time>2026-03-28T10:41:02.994Z</time></trkpt><trkpt lat="44.2268801" lon="10.8168548"><ele>498.0</ele><time>2026-03-28T10:41:03.997Z</time></trkpt><trkpt lat="44.2267789" lon="10.8166035"><ele>500.0</ele><time>2026-03-28T10:41:05.008Z</time></trkpt><trkpt lat="44.226696" lon="10.816385"><ele>502.0</ele><time>2026-03-28T10:41:05.983Z</time></trkpt><trkpt lat="44.2266155" lon="10.8161661"><ele>503.6666666666667</ele><time>2026-03-28T10:41:06.994Z</time></trkpt><trkpt lat="44.2265383" lon="10.8159529"><ele>505.33333333333337</ele><time>2026-03-28T10:41:07.991Z</time></trkpt><trkpt lat="44.2264562" lon="10.8157414"><ele>507.0</ele><time>2026-03-28T10:41:08.998Z</time></trkpt><trkpt lat="44.2263651" lon="10.8155317"><ele>503.66666666666663</ele><time>2026-03-28T10:41:09.988Z</time></trkpt><trkpt lat="44.2262523" lon="10.8153222"><ele>500.3333333333333</ele><time>2026-03-28T10:41:10.986Z</time></trkpt><trkpt lat="44.2261097" lon="10.8151124"><ele>497.0</ele><time>2026-03-28T10:41:11.997Z</time></trkpt><trkpt lat="44.2259522" lon="10.8149063"><ele>497.0</ele><time>2026-03-28T10:41:13.007Z</time></trkpt><trkpt lat="44.2257933" lon="10.814712"><ele>497.0</ele><time>2026-03-28T10:41:13.982Z</time></trkpt><trkpt lat="44.2256332" lon="10.8145196"><ele>497.0</ele><time>2026-03-28T10:41:14.979Z</time></trkpt><trkpt lat="44.2254661" lon="10.8143309"><ele>497.0</ele><time>2026-03-28T10:41:16.002Z</time></trkpt><trkpt lat="44.2253075" lon="10.8141771"><ele>497.0</ele><time>2026-03-28T10:41:16.979Z</time></trkpt><trkpt lat="44.2251246" lon="10.8140556"><ele>497.0</ele><time>2026-03-28T10:41:18Z</time></trkpt><trkpt lat="44.2249255" lon="10.8139853"><ele>498.0</ele><time>2026-03-28T10:41:18.983Z</time></trkpt><trkpt lat="44.2246893" lon="10.8139377"><ele>499.0</ele><time>2026-03-28T10:41:19.997Z</time></trkpt><trkpt lat="44.2244671" lon="10.8139066"><ele>499.0</ele><time>2026-03-28T10:41:21.022Z</time></trkpt><trkpt lat="44.2242773" lon="10.8138739"><ele>499.0</ele><time>2026-03-28T10:41:21.989Z</time></trkpt><trkpt lat="44.2241151" lon="10.8138082"><ele>499.0</ele><time>2026-03-28T10:41:22.98Z</time></trkpt><trkpt lat="44.2239794" lon="10.8137143"><ele>498.75</ele><time>2026-03-28T10:41:23.972Z</time></trkpt><trkpt lat="44.2238707" lon="10.8136037"><ele>498.5</ele><time>2026-03-28T10:41:24.995Z</time></trkpt><trkpt lat="44.2237731" lon="10.8134631"><ele>498.25</ele><time>2026-03-28T10:41:25.998Z</time></trkpt><trkpt lat="44.2236854" lon="10.813292"><ele>498.0</ele><time>2026-03-28T10:41:27.002Z</time></trkpt><trkpt lat="44.2235912" lon="10.8130587"><ele>498.0</ele><time>2026-03-28T10:41:27.991Z</time></trkpt><trkpt lat="44.2235122" lon="10.8128229"><ele>498.0</ele><time>2026-03-28T10:41:28.99Z</time></trkpt><trkpt lat="44.2234484" lon="10.8126249"><ele>498.0</ele><time>2026-03-28T10:41:29.984Z</time></trkpt><trkpt lat="44.2233835" lon="10.8124349"><ele>497.0</ele><time>2026-03-28T10:41:30.984Z</time></trkpt><trkpt lat="44.2233136" lon="10.8122578"><ele>496.0</ele><time>2026-03-28T10:41:31.991Z</time></trkpt><trkpt lat="44.2232404" lon="10.8121167"><ele>495.0</ele><time>2026-03-28T10:41:32.973Z</time></trkpt><trkpt lat="44.2231351" lon="10.8119858"><ele>494.0</ele><time>2026-03-28T10:41:33.99Z</time></trkpt><trkpt lat="44.2229991" lon="10.8118946"><ele>494.0</ele><time>2026-03-28T10:41:34.992Z</time></trkpt><trkpt lat="44.2228458" lon="10.8118574"><ele>494.0</ele><time>2026-03-28T10:41:35.99Z</time></trkpt><trkpt lat="44.2226733" lon="10.8118412"><ele>494.0</ele><time>2026-03-28T10:41:36.992Z</time></trkpt><trkpt lat="44.2225044" lon="10.8118238"><ele>500.0</ele><time>2026-03-28T10:41:37.991Z</time></trkpt><trkpt lat="44.2223524" lon="10.8117993"><ele>506.0</ele><time>2026-03-28T10:41:38.985Z</time></trkpt><trkpt lat="44.2221942" lon="10.8117666"><ele>512.0</ele><time>2026-03-28T10:41:40.02Z</time></trkpt><trkpt lat="44.2220491" lon="10.811733"><ele>512.0</ele><time>2026-03-28T10:41:40.977Z</time></trkpt><trkpt lat="44.2219" lon="10.8116979"><ele>512.0</ele><time>2026-03-28T10:41:41.989Z</time></trkpt><trkpt lat="44.2217529" lon="10.8116666"><ele>512.0</ele><time>2026-03-28T10:41:43.018Z</time></trkpt><trkpt lat="44.22162" lon="10.811637"><ele>512.0</ele><time>2026-03-28T10:41:43.975Z</time></trkpt><trkpt lat="44.2214782" lon="10.8115982"><ele>511.0</ele><time>2026-03-28T10:41:44.993Z</time></trkpt><trkpt lat="44.2213397" lon="10.8115416"><ele>510.0</ele><time>2026-03-28T10:41:46.007Z</time></trkpt><trkpt lat="44.2212026" lon="10.8114586"><ele>509.0</ele><time>2026-03-28T10:41:46.978Z</time></trkpt><trkpt lat="44.2210649" lon="10.8113365"><ele>509.0</ele><time>2026-03-28T10:41:47.977Z</time></trkpt><trkpt lat="44.2209217" lon="10.8111802"><ele>509.0</ele><time>2026-03-28T10:41:48.978Z</time></trkpt><trkpt lat="44.2207818" lon="10.811004"><ele>509.0</ele><time>2026-03-28T10:41:49.979Z</time></trkpt><trkpt lat="44.220648" lon="10.810831"><ele>510.0</ele><time>2026-03-28T10:41:50.984Z</time></trkpt><trkpt lat="44.2205204" lon="10.8106709"><ele>511.0</ele><time>2026-03-28T10:41:51.991Z</time></trkpt><trkpt lat="44.2204046" lon="10.8105246"><ele>512.0</ele><time>2026-03-28T10:41:52.967Z</time></trkpt><trkpt lat="44.2202895" lon="10.8103809"><ele>512.0</ele><time>2026-03-28T10:41:53.997Z</time></trkpt><trkpt lat="44.2201882" lon="10.8102492"><ele>512.0</ele><time>2026-03-28T10:41:54.994Z</time></trkpt><trkpt lat="44.2200881" lon="10.8101184"><ele>512.0</ele><time>2026-03-28T10:41:56.012Z</time></trkpt><trkpt lat="44.2199875" lon="10.8099895"><ele>512.0</ele><time>2026-03-28T10:41:57.007Z</time></trkpt><trkpt lat="44.2198853" lon="10.8098622"><ele>512.25</ele><time>2026-03-28T10:41:57.989Z</time></trkpt><trkpt lat="44.2197816" lon="10.8097299"><ele>512.5</ele><time>2026-03-28T10:41:58.994Z</time></trkpt><trkpt lat="44.2196794" lon="10.8095907"><ele>512.75</ele><time>2026-03-28T10:41:59.995Z</time></trkpt><trkpt lat="44.2195886" lon="10.8094434"><ele>513.0</ele><time>2026-03-28T10:42:00.978Z</time></trkpt><trkpt lat="44.2194999" lon="10.8092781"><ele>513.6666666666666</ele><time>2026-03-28T10:42:01.99Z</time></trkpt><trkpt lat="44.2194201" lon="10.8090895"><ele>514.3333333333333</ele><time>2026-03-28T10:42:02.993Z</time></trkpt><trkpt lat="44.2193534" lon="10.8088847"><ele>515.0</ele><time>2026-03-28T10:42:03.977Z</time></trkpt><trkpt lat="44.2192966" lon="10.808681"><ele>515.5</ele><time>2026-03-28T10:42:04.982Z</time></trkpt><trkpt lat="44.2192487" lon="10.8084888"><ele>516.0</ele><time>2026-03-28T10:42:05.989Z</time></trkpt><trkpt lat="44.2192037" lon="10.8083172"><ele>516.5</ele><time>2026-03-28T10:42:06.983Z</time></trkpt><trkpt lat="44.2191629" lon="10.8081685"><ele>517.0</ele><time>2026-03-28T10:42:07.996Z</time></trkpt><trkpt lat="44.2191288" lon="10.8080454"><ele>517.0</ele><time>2026-03-28T10:42:08.988Z</time></trkpt><trkpt lat="44.2191022" lon="10.8079422"><ele>517.0</ele><time>2026-03-28T10:42:10.015Z</time></trkpt><trkpt lat="44.2190557" lon="10.807806"><ele>517.0</ele><time>2026-03-28T10:42:11.987Z</time></trkpt><trkpt lat="44.2190203" lon="10.8076703"><ele>517.0</ele><time>2026-03-28T10:42:13.977Z</time></trkpt><trkpt lat="44.2189606" lon="10.807532"><ele>517.0</ele><time>2026-03-28T10:42:15.991Z</time></trkpt><trkpt lat="44.2188406" lon="10.8075313"><ele>514.25</ele><time>2026-03-28T10:42:17.97Z</time></trkpt><trkpt lat="44.218783" lon="10.8076136"><ele>511.5</ele><time>2026-03-28T10:42:18.975Z</time></trkpt><trkpt lat="44.2187279" lon="10.8077444"><ele>508.75</ele><time>2026-03-28T10:42:19.968Z</time></trkpt><trkpt lat="44.2186481" lon="10.8078925"><ele>506.0</ele><time>2026-03-28T10:42:20.976Z</time></trkpt><trkpt lat="44.2185903" lon="10.8080493"><ele>506.0</ele><time>2026-03-28T10:42:21.995Z</time></trkpt><trkpt lat="44.2185463" lon="10.8082302"><ele>506.0</ele><time>2026-03-28T10:42:22.992Z</time></trkpt><trkpt lat="44.2185244" lon="10.8084159"><ele>506.0</ele><time>2026-03-28T10:42:23.976Z</time></trkpt><trkpt lat="44.218518" lon="10.8086152"><ele>506.0</ele><time>2026-03-28T10:42:24.983Z</time></trkpt><trkpt lat="44.218522" lon="10.8088179"><ele>505.5</ele><time>2026-03-28T10:42:25.987Z</time></trkpt><trkpt lat="44.2185381" lon="10.8090283"><ele>505.0</ele><time>2026-03-28T10:42:27.011Z</time></trkpt><trkpt lat="44.2185662" lon="10.8092272"><ele>504.5</ele><time>2026-03-28T10:42:27.991Z</time></trkpt><trkpt lat="44.2186028" lon="10.809431"><ele>504.0</ele><time>2026-03-28T10:42:28.979Z</time></trkpt><trkpt lat="44.2186407" lon="10.8096192"><ele>503.4</ele><time>2026-03-28T10:42:29.99Z</time></trkpt><trkpt lat="44.2186725" lon="10.8097981"><ele>502.79999999999995</ele><time>2026-03-28T10:42:30.986Z</time></trkpt><trkpt lat="44.218695" lon="10.8099253"><ele>502.20000000000005</ele><time>2026-03-28T10:42:31.978Z</time></trkpt><trkpt lat="44.2186919" lon="10.8100198"><ele>501.6</ele><time>2026-03-28T10:42:32.981Z</time></trkpt><trkpt lat="44.2186105" lon="10.8099741"><ele>501.0</ele><time>2026-03-28T10:42:35.982Z</time></trkpt><trkpt lat="44.2185859" lon="10.8098638"><ele>501.0</ele><time>2026-03-28T10:42:36.988Z</time></trkpt><trkpt lat="44.2185974" lon="10.8097219"><ele>501.0</ele><time>2026-03-28T10:42:37.981Z</time></trkpt><trkpt lat="44.2185999" lon="10.80955"><ele>501.0</ele><time>2026-03-28T10:42:38.989Z</time></trkpt><trkpt lat="44.2185631" lon="10.8093799"><ele>501.0</ele><time>2026-03-28T10:42:39.99Z</time></trkpt><trkpt lat="44.2184942" lon="10.8092219"><ele>501.6</ele><time>2026-03-28T10:42:40.986Z</time></trkpt><trkpt lat="44.2184107" lon="10.8090844"><ele>502.20000000000005</ele><time>2026-03-28T10:42:41.997Z</time></trkpt><trkpt lat="44.218319" lon="10.8089657"><ele>502.79999999999995</ele><time>2026-03-28T10:42:42.989Z</time></trkpt><trkpt lat="44.2182318" lon="10.8089062"><ele>503.4</ele><time>2026-03-28T10:42:43.988Z</time></trkpt><trkpt lat="44.2181511" lon="10.8089103"><ele>504.0</ele><time>2026-03-28T10:42:44.97Z</time></trkpt><trkpt lat="44.2180847" lon="10.8089722"><ele>499.5</ele><time>2026-03-28T10:42:45.994Z</time></trkpt><trkpt lat="44.2180478" lon="10.8090921"><ele>495.0</ele><time>2026-03-28T10:42:46.984Z</time></trkpt><trkpt lat="44.2180546" lon="10.8092606"><ele>490.5</ele><time>2026-03-28T10:42:47.983Z</time></trkpt><trkpt lat="44.2180844" lon="10.8094581"><ele>486.0</ele><time>2026-03-28T10:42:48.971Z</time></trkpt><trkpt lat="44.2181026" lon="10.80967"><ele>484.0</ele><time>2026-03-28T10:42:49.991Z</time></trkpt><trkpt lat="44.2180945" lon="10.8098919"><ele>482.0</ele><time>2026-03-28T10:42:50.991Z</time></trkpt><trkpt lat="44.2180702" lon="10.8101059"><ele>480.0</ele><time>2026-03-28T10:42:51.976Z</time></trkpt><trkpt lat="44.2180355" lon="10.8103069"><ele>479.4</ele><time>2026-03-28T10:42:52.977Z</time></trkpt><trkpt lat="44.2180042" lon="10.8104861"><ele>478.8</ele><time>2026-03-28T10:42:53.993Z</time></trkpt><trkpt lat="44.217988" lon="10.8106392"><ele>478.20000000000005</ele><time>2026-03-28T10:42:54.977Z</time></trkpt><trkpt lat="44.2180003" lon="10.8107696"><ele>477.6</ele><time>2026-03-28T10:42:55.999Z</time></trkpt><trkpt lat="44.2180501" lon="10.8108773"><ele>477.0</ele><time>2026-03-28T10:42:56.974Z</time></trkpt><trkpt lat="44.2181376" lon="10.8109769"><ele>478.75</ele><time>2026-03-28T10:42:57.994Z</time></trkpt><trkpt lat="44.218246" lon="10.8110764"><ele>480.5</ele><time>2026-03-28T10:42:58.966Z</time></trkpt><trkpt lat="44.2183735" lon="10.8111927"><ele>482.25</ele><time>2026-03-28T10:42:59.989Z</time></trkpt><trkpt lat="44.2185045" lon="10.8113208"><ele>484.0</ele><time>2026-03-28T10:43:01.001Z</time></trkpt><trkpt lat="44.2186409" lon="10.8114557"><ele>484.0</ele><time>2026-03-28T10:43:01.993Z</time></trkpt><trkpt lat="44.2187879" lon="10.8116023"><ele>484.0</ele><time>2026-03-28T10:43:02.984Z</time></trkpt><trkpt lat="44.2189246" lon="10.8117719"><ele>484.0</ele><time>2026-03-28T10:43:03.975Z</time></trkpt><trkpt lat="44.2190482" lon="10.8119817"><ele>482.6666666666667</ele><time>2026-03-28T10:43:05Z</time></trkpt><trkpt lat="44.2191557" lon="10.8122049"><ele>481.33333333333337</ele><time>2026-03-28T10:43:05.987Z</time></trkpt><trkpt lat="44.2192461" lon="10.8124309"><ele>480.0</ele><time>2026-03-28T10:43:06.99Z</time></trkpt><trkpt lat="44.2193118" lon="10.8126437"><ele>475.66666666666663</ele><time>2026-03-28T10:43:07.981Z</time></trkpt><trkpt lat="44.2193783" lon="10.8128453"><ele>471.3333333333333</ele><time>2026-03-28T10:43:08.997Z</time></trkpt><trkpt lat="44.219461" lon="10.8130284"><ele>467.0</ele><time>2026-03-28T10:43:09.986Z</time></trkpt><trkpt lat="44.2195791" lon="10.8131988"><ele>467.0</ele><time>2026-03-28T10:43:10.984Z</time></trkpt><trkpt lat="44.2197294" lon="10.8133662"><ele>467.0</ele><time>2026-03-28T10:43:11.995Z</time></trkpt><trkpt lat="44.2198918" lon="10.8135255"><ele>467.0</ele><time>2026-03-28T10:43:12.99Z</time></trkpt><trkpt lat="44.2200561" lon="10.8136694"><ele>468.0</ele><time>2026-03-28T10:43:13.987Z</time></trkpt><trkpt lat="44.2202077" lon="10.8138022"><ele>469.0</ele><time>2026-03-28T10:43:14.98Z</time></trkpt><trkpt lat="44.2203446" lon="10.813917"><ele>470.0</ele><time>2026-03-28T10:43:15.986Z</time></trkpt><trkpt lat="44.2204443" lon="10.8140265"><ele>470.0</ele><time>2026-03-28T10:43:16.987Z</time></trkpt><trkpt lat="44.2205247" lon="10.8141385"><ele>470.0</ele><time>2026-03-28T10:43:17.975Z</time></trkpt><trkpt lat="44.22057" lon="10.8142589"><ele>470.0</ele><time>2026-03-28T10:43:18.984Z</time></trkpt><trkpt lat="44.2205888" lon="10.8143992"><ele>470.0</ele><time>2026-03-28T10:43:20.011Z</time></trkpt><trkpt lat="44.2205787" lon="10.8145536"><ele>470.0</ele><time>2026-03-28T10:43:20.994Z</time></trkpt><trkpt lat="44.2205433" lon="10.8147404"><ele>467.3333333333333</ele><time>2026-03-28T10:43:21.983Z</time></trkpt><trkpt lat="44.2204879" lon="10.8149607"><ele>464.66666666666663</ele><time>2026-03-28T10:43:22.995Z</time></trkpt><trkpt lat="44.2204313" lon="10.815181"><ele>462.0</ele><time>2026-03-28T10:43:23.986Z</time></trkpt><trkpt lat="44.2203699" lon="10.8154123"><ele>461.33333333333337</ele><time>2026-03-28T10:43:24.987Z</time></trkpt><trkpt lat="44.2203131" lon="10.815643"><ele>460.6666666666667</ele><time>2026-03-28T10:43:25.982Z</time></trkpt><trkpt lat="44.2202551" lon="10.815869"><ele>460.0</ele><time>2026-03-28T10:43:26.986Z</time></trkpt><trkpt lat="44.2201988" lon="10.816079"><ele>461.75</ele><time>2026-03-28T10:43:27.986Z</time></trkpt><trkpt lat="44.2201481" lon="10.8162672"><ele>463.5</ele><time>2026-03-28T10:43:29Z</time></trkpt><trkpt lat="44.220099" lon="10.816425"><ele>465.25</ele><time>2026-03-28T10:43:30.001Z</time></trkpt><trkpt lat="44.2200351" lon="10.8165526"><ele>467.0</ele><time>2026-03-28T10:43:30.999Z</time></trkpt><trkpt lat="44.2199496" lon="10.8166548"><ele>467.0</ele><time>2026-03-28T10:43:32.006Z</time></trkpt><trkpt lat="44.2198565" lon="10.816706"><ele>467.0</ele><time>2026-03-28T10:43:32.989Z</time></trkpt><trkpt lat="44.2197333" lon="10.8167099"><ele>467.0</ele><time>2026-03-28T10:43:33.989Z</time></trkpt><trkpt lat="44.2195792" lon="10.8166763"><ele>467.0</ele><time>2026-03-28T10:43:34.999Z</time></trkpt><trkpt lat="44.2194268" lon="10.8166336"><ele>470.0</ele><time>2026-03-28T10:43:35.978Z</time></trkpt><trkpt lat="44.2192893" lon="10.8165756"><ele>473.0</ele><time>2026-03-28T10:43:36.978Z</time></trkpt><trkpt lat="44.2191646" lon="10.8164792"><ele>476.0</ele><time>2026-03-28T10:43:37.985Z</time></trkpt><trkpt lat="44.2190507" lon="10.8163291"><ele>479.0</ele><time>2026-03-28T10:43:38.991Z</time></trkpt><trkpt lat="44.2189499" lon="10.8161399"><ele>481.3333333333333</ele><time>2026-03-28T10:43:39.986Z</time></trkpt><trkpt lat="44.2188478" lon="10.8159276"><ele>483.66666666666663</ele><time>2026-03-28T10:43:40.982Z</time></trkpt><trkpt lat="44.2187722" lon="10.8157076"><ele>486.0</ele><time>2026-03-28T10:43:41.998Z</time></trkpt><trkpt lat="44.2187181" lon="10.8154968"><ele>486.0</ele><time>2026-03-28T10:43:42.997Z</time></trkpt><trkpt lat="44.2186528" lon="10.8153078"><ele>486.0</ele><time>2026-03-28T10:43:44.005Z</time></trkpt><trkpt lat="44.2185561" lon="10.8151444"><ele>486.0</ele><time>2026-03-28T10:43:44.992Z</time></trkpt><trkpt lat="44.2184143" lon="10.815016"><ele>487.33333333333337</ele><time>2026-03-28T10:43:45.998Z</time></trkpt><trkpt lat="44.2182623" lon="10.8148991"><ele>488.6666666666667</ele><time>2026-03-28T10:43:46.991Z</time></trkpt><trkpt lat="44.2181199" lon="10.8147795"><ele>490.0</ele><time>2026-03-28T10:43:47.982Z</time></trkpt><trkpt lat="44.2180059" lon="10.8146261"><ele>490.0</ele><time>2026-03-28T10:43:48.976Z</time></trkpt><trkpt lat="44.2179088" lon="10.8144782"><ele>490.0</ele><time>2026-03-28T10:43:49.973Z</time></trkpt><trkpt lat="44.2178234" lon="10.8143522"><ele>490.0</ele><time>2026-03-28T10:43:50.998Z</time></trkpt><trkpt lat="44.2177482" lon="10.8142789"><ele>490.0</ele><time>2026-03-28T10:43:51.991Z</time></trkpt><trkpt lat="44.2176792" lon="10.8142696"><ele>490.0</ele><time>2026-03-28T10:43:52.976Z</time></trkpt><trkpt lat="44.2176017" lon="10.8144047"><ele>490.0</ele><time>2026-03-28T10:43:54.983Z</time></trkpt><trkpt lat="44.2176239" lon="10.8145065"><ele>490.0</ele><time>2026-03-28T10:43:55.99Z</time></trkpt><trkpt lat="44.2176891" lon="10.8146091"><ele>490.0</ele><time>2026-03-28T10:43:56.987Z</time></trkpt><trkpt lat="44.2177616" lon="10.814728"><ele>490.0</ele><time>2026-03-28T10:43:57.984Z</time></trkpt><trkpt lat="44.2178458" lon="10.8148618"><ele>490.0</ele><time>2026-03-28T10:43:58.983Z</time></trkpt><trkpt lat="44.2179059" lon="10.8150159"><ele>489.0</ele><time>2026-03-28T10:43:59.985Z</time></trkpt><trkpt lat="44.2179717" lon="10.8151928"><ele>488.0</ele><time>2026-03-28T10:44:01.006Z</time></trkpt><trkpt lat="44.2180389" lon="10.8153722"><ele>487.0</ele><time>2026-03-28T10:44:01.976Z</time></trkpt><trkpt lat="44.2181324" lon="10.8155512"><ele>486.0</ele><time>2026-03-28T10:44:02.99Z</time></trkpt><trkpt lat="44.2182472" lon="10.8157212"><ele>486.0</ele><time>2026-03-28T10:44:03.999Z</time></trkpt><trkpt lat="44.218366" lon="10.8158839"><ele>486.0</ele><time>2026-03-28T10:44:04.972Z</time></trkpt><trkpt lat="44.2184841" lon="10.8160506"><ele>486.0</ele><time>2026-03-28T10:44:05.974Z</time></trkpt><trkpt lat="44.2186033" lon="10.8162235"><ele>490.66666666666663</ele><time>2026-03-28T10:44:06.99Z</time></trkpt><trkpt lat="44.2187178" lon="10.8163879"><ele>495.3333333333333</ele><time>2026-03-28T10:44:07.992Z</time></trkpt><trkpt lat="44.2188182" lon="10.8165561"><ele>500.0</ele><time>2026-03-28T10:44:08.983Z</time></trkpt><trkpt lat="44.2189124" lon="10.816745"><ele>497.0</ele><time>2026-03-28T10:44:09.994Z</time></trkpt><trkpt lat="44.2189943" lon="10.8169574"><ele>494.0</ele><time>2026-03-28T10:44:10.999Z</time></trkpt><trkpt lat="44.2190619" lon="10.817177"><ele>491.0</ele><time>2026-03-28T10:44:11.994Z</time></trkpt><trkpt lat="44.2191247" lon="10.817391"><ele>491.0</ele><time>2026-03-28T10:44:12.989Z</time></trkpt><trkpt lat="44.2191873" lon="10.8175781"><ele>491.0</ele><time>2026-03-28T10:44:13.989Z</time></trkpt><trkpt lat="44.2192622" lon="10.8177482"><ele>491.0</ele><time>2026-03-28T10:44:14.995Z</time></trkpt><trkpt lat="44.2193579" lon="10.8178958"><ele>491.0</ele><time>2026-03-28T10:44:15.995Z</time></trkpt><trkpt lat="44.2194738" lon="10.8180303"><ele>494.66666666666663</ele><time>2026-03-28T10:44:16.986Z</time></trkpt><trkpt lat="44.219598" lon="10.8181799"><ele>498.33333333333337</ele><time>2026-03-28T10:44:17.99Z</time></trkpt><trkpt lat="44.2197149" lon="10.8183578"><ele>502.0</ele><time>2026-03-28T10:44:18.988Z</time></trkpt><trkpt lat="44.219829" lon="10.8185682"><ele>502.33333333333337</ele><time>2026-03-28T10:44:20.011Z</time></trkpt><trkpt lat="44.219928" lon="10.8187754"><ele>502.66666666666663</ele><time>2026-03-28T10:44:20.978Z</time></trkpt><trkpt lat="44.2200212" lon="10.8189789"><ele>503.0</ele><time>2026-03-28T10:44:21.998Z</time></trkpt><trkpt lat="44.220098" lon="10.8191503"><ele>503.0</ele><time>2026-03-28T10:44:22.983Z</time></trkpt><trkpt lat="44.2201873" lon="10.8193031"><ele>503.0</ele><time>2026-03-28T10:44:24Z</time></trkpt><trkpt lat="44.2202911" lon="10.8194135"><ele>503.0</ele><time>2026-03-28T10:44:24.997Z</time></trkpt><trkpt lat="44.2204149" lon="10.8194848"><ele>503.0</ele><time>2026-03-28T10:44:25.999Z</time></trkpt><trkpt lat="44.2205371" lon="10.819557"><ele>503.0</ele><time>2026-03-28T10:44:26.98Z</time></trkpt><trkpt lat="44.2206455" lon="10.8196641"><ele>503.0</ele><time>2026-03-28T10:44:27.978Z</time></trkpt><trkpt lat="44.2207287" lon="10.8198099"><ele>503.0</ele><time>2026-03-28T10:44:28.978Z</time></trkpt><trkpt lat="44.2207841" lon="10.8199893"><ele>503.0</ele><time>2026-03-28T10:44:29.992Z</time></trkpt><trkpt lat="44.2208358" lon="10.820208"><ele>503.66666666666663</ele><time>2026-03-28T10:44:30.999Z</time></trkpt><trkpt lat="44.2208899" lon="10.8204477"><ele>504.33333333333337</ele><time>2026-03-28T10:44:32.001Z</time></trkpt><trkpt lat="44.220947" lon="10.8206721"><ele>505.0</ele><time>2026-03-28T10:44:32.984Z</time></trkpt><trkpt lat="44.2210027" lon="10.820912"><ele>505.25</ele><time>2026-03-28T10:44:33.993Z</time></trkpt><trkpt lat="44.2210513" lon="10.8211213"><ele>505.5</ele><time>2026-03-28T10:44:34.981Z</time></trkpt><trkpt lat="44.2210915" lon="10.8212999"><ele>505.75</ele><time>2026-03-28T10:44:35.98Z</time></trkpt><trkpt lat="44.2211071" lon="10.8214633"><ele>506.0</ele><time>2026-03-28T10:44:36.975Z</time></trkpt><trkpt lat="44.2210937" lon="10.8216226"><ele>506.0</ele><time>2026-03-28T10:44:37.978Z</time></trkpt><trkpt lat="44.2210554" lon="10.8217897"><ele>506.0</ele><time>2026-03-28T10:44:38.994Z</time></trkpt><trkpt lat="44.2210032" lon="10.8219597"><ele>506.0</ele><time>2026-03-28T10:44:39.978Z</time></trkpt><trkpt lat="44.2209371" lon="10.8221357"><ele>506.0</ele><time>2026-03-28T10:44:40.996Z</time></trkpt><trkpt lat="44.2208583" lon="10.822303"><ele>504.0</ele><time>2026-03-28T10:44:41.995Z</time></trkpt><trkpt lat="44.2207712" lon="10.8224468"><ele>502.0</ele><time>2026-03-28T10:44:42.986Z</time></trkpt><trkpt lat="44.2206873" lon="10.8225791"><ele>500.0</ele><time>2026-03-28T10:44:43.992Z</time></trkpt><trkpt lat="44.2206284" lon="10.8227088"><ele>498.0</ele><time>2026-03-28T10:44:44.99Z</time></trkpt><trkpt lat="44.2206031" lon="10.8228399"><ele>498.0</ele><time>2026-03-28T10:44:45.985Z</time></trkpt><trkpt lat="44.2206203" lon="10.8229696"><ele>498.0</ele><time>2026-03-28T10:44:46.995Z</time></trkpt><trkpt lat="44.2206802" lon="10.8231239"><ele>498.0</ele><time>2026-03-28T10:44:47.998Z</time></trkpt><trkpt lat="44.220786" lon="10.8232526"><ele>498.0</ele><time>2026-03-28T10:44:49.003Z</time></trkpt><trkpt lat="44.2209259" lon="10.8233652"><ele>498.0</ele><time>2026-03-28T10:44:49.986Z</time></trkpt><trkpt lat="44.2210876" lon="10.8234526"><ele>498.0</ele><time>2026-03-28T10:44:50.996Z</time></trkpt><trkpt lat="44.2212457" lon="10.8235414"><ele>498.0</ele><time>2026-03-28T10:44:51.975Z</time></trkpt><trkpt lat="44.2214019" lon="10.8236576"><ele>500.33333333333337</ele><time>2026-03-28T10:44:52.975Z</time></trkpt><trkpt lat="44.2215543" lon="10.8238039"><ele>502.6666666666667</ele><time>2026-03-28T10:44:53.969Z</time></trkpt><trkpt lat="44.221703" lon="10.8239648"><ele>505.0</ele><time>2026-03-28T10:44:55.006Z</time></trkpt><trkpt lat="44.2218319" lon="10.8241237"><ele>505.0</ele><time>2026-03-28T10:44:55.996Z</time></trkpt><trkpt lat="44.2219402" lon="10.8242588"><ele>505.0</ele><time>2026-03-28T10:44:56.974Z</time></trkpt><trkpt lat="44.2220783" lon="10.8244774"><ele>505.0</ele><time>2026-03-28T10:44:58.31Z</time></trkpt><trkpt lat="44.2220782" lon="10.8247193"><ele>506.0</ele><time>2026-03-28T10:45:00.05Z</time></trkpt><trkpt lat="44.2220778" lon="10.8248824"><ele>507.0</ele><time>2026-03-28T10:45:01.081Z</time></trkpt><trkpt lat="44.2220444" lon="10.825018"><ele>508.0</ele><time>2026-03-28T10:45:02.057Z</time></trkpt><trkpt lat="44.2219803" lon="10.8251332"><ele>509.0</ele><time>2026-03-28T10:45:03.044Z</time></trkpt><trkpt lat="44.2219032" lon="10.8252358"><ele>510.0</ele><time>2026-03-28T10:45:04.032Z</time></trkpt><trkpt lat="44.2218379" lon="10.8253613"><ele>511.25</ele><time>2026-03-28T10:45:05.037Z</time></trkpt><trkpt lat="44.2218099" lon="10.8255202"><ele>512.5</ele><time>2026-03-28T10:45:06.039Z</time></trkpt><trkpt lat="44.2218281" lon="10.8257109"><ele>513.75</ele><time>2026-03-28T10:45:07.033Z</time></trkpt><trkpt lat="44.2218776" lon="10.825922"><ele>515.0</ele><time>2026-03-28T10:45:08.064Z</time></trkpt><trkpt lat="44.2219232" lon="10.8261195"><ele>515.5</ele><time>2026-03-28T10:45:09.05Z</time></trkpt><trkpt lat="44.2219509" lon="10.8263088"><ele>516.0</ele><time>2026-03-28T10:45:10.028Z</time></trkpt><trkpt lat="44.2219662" lon="10.8264823"><ele>516.5</ele><time>2026-03-28T10:45:10.98Z</time></trkpt><trkpt lat="44.2219829" lon="10.8267194"><ele>517.0</ele><time>2026-03-28T10:45:12.297Z</time></trkpt><trkpt lat="44.2219495" lon="10.8269702"><ele>517.75</ele><time>2026-03-28T10:45:14.029Z</time></trkpt><trkpt lat="44.2219797" lon="10.8271057"><ele>518.5</ele><time>2026-03-28T10:45:15.04Z</time></trkpt><trkpt lat="44.222053" lon="10.8272218"><ele>519.25</ele><time>2026-03-28T10:45:16.042Z</time></trkpt><trkpt lat="44.2221617" lon="10.8273245"><ele>520.0</ele><time>2026-03-28T10:45:17.041Z</time></trkpt><trkpt lat="44.2222966" lon="10.8274178"><ele>517.6666666666667</ele><time>2026-03-28T10:45:18.03Z</time></trkpt><trkpt lat="44.2224338" lon="10.8275076"><ele>515.3333333333334</ele><time>2026-03-28T10:45:18.974Z</time></trkpt><trkpt lat="44.2225999" lon="10.8276108"><ele>513.0</ele><time>2026-03-28T10:45:19.987Z</time></trkpt><trkpt lat="44.222816" lon="10.8277397"><ele>513.0</ele><time>2026-03-28T10:45:21.311Z</time></trkpt><trkpt lat="44.222949" lon="10.8277698"><ele>513.0</ele><time>2026-03-28T10:45:22.052Z</time></trkpt><trkpt lat="44.2231156" lon="10.8278519"><ele>513.0</ele><time>2026-03-28T10:45:23.038Z</time></trkpt><trkpt lat="44.223272" lon="10.8279446"><ele>510.75</ele><time>2026-03-28T10:45:24.034Z</time></trkpt><trkpt lat="44.2234143" lon="10.8280457"><ele>508.5</ele><time>2026-03-28T10:45:25.031Z</time></trkpt><trkpt lat="44.2235343" lon="10.8281474"><ele>506.25</ele><time>2026-03-28T10:45:26.034Z</time></trkpt><trkpt lat="44.223632" lon="10.8282677"><ele>504.0</ele><time>2026-03-28T10:45:27.044Z</time></trkpt><trkpt lat="44.2237074" lon="10.8283997"><ele>505.5</ele><time>2026-03-28T10:45:28.033Z</time></trkpt><trkpt lat="44.2237617" lon="10.8285579"><ele>507.0</ele><time>2026-03-28T10:45:29.055Z</time></trkpt><trkpt lat="44.2237922" lon="10.8287468"><ele>508.5</ele><time>2026-03-28T10:45:30.054Z</time></trkpt><trkpt lat="44.2238085" lon="10.828961"><ele>510.0</ele><time>2026-03-28T10:45:31.026Z</time></trkpt><trkpt lat="44.2238347" lon="10.8292106"><ele>508.33333333333337</ele><time>2026-03-28T10:45:32.042Z</time></trkpt><trkpt lat="44.2238702" lon="10.8294542"><ele>506.6666666666667</ele><time>2026-03-28T10:45:33.056Z</time></trkpt><trkpt lat="44.2238966" lon="10.8296907"><ele>505.0</ele><time>2026-03-28T10:45:34.043Z</time></trkpt><trkpt lat="44.2239008" lon="10.82992"><ele>505.0</ele><time>2026-03-28T10:45:35.036Z</time></trkpt><trkpt lat="44.2238874" lon="10.8301373"><ele>505.0</ele><time>2026-03-28T10:45:36.049Z</time></trkpt><trkpt lat="44.2238631" lon="10.8303349"><ele>505.0</ele><time>2026-03-28T10:45:37.046Z</time></trkpt><trkpt lat="44.2238276" lon="10.8305192"><ele>505.0</ele><time>2026-03-28T10:45:38.048Z</time></trkpt><trkpt lat="44.2237785" lon="10.8307022"><ele>504.25</ele><time>2026-03-28T10:45:39.06Z</time></trkpt><trkpt lat="44.223724" lon="10.8308767"><ele>503.5</ele><time>2026-03-28T10:45:40.037Z</time></trkpt><trkpt lat="44.2236709" lon="10.8310633"><ele>502.75</ele><time>2026-03-28T10:45:41.052Z</time></trkpt><trkpt lat="44.2236275" lon="10.8312462"><ele>502.0</ele><time>2026-03-28T10:45:42.047Z</time></trkpt><trkpt lat="44.2236017" lon="10.8314266"><ele>501.75</ele><time>2026-03-28T10:45:43.045Z</time></trkpt><trkpt lat="44.2236051" lon="10.831596"><ele>501.5</ele><time>2026-03-28T10:45:44.037Z</time></trkpt><trkpt lat="44.2236316" lon="10.8317619"><ele>501.25</ele><time>2026-03-28T10:45:45.085Z</time></trkpt><trkpt lat="44.2236737" lon="10.8318987"><ele>501.0</ele><time>2026-03-28T10:45:46.03Z</time></trkpt><trkpt lat="44.2237389" lon="10.8320303"><ele>502.25</ele><time>2026-03-28T10:45:47.049Z</time></trkpt><trkpt lat="44.223828" lon="10.8321339"><ele>503.5</ele><time>2026-03-28T10:45:48.057Z</time></trkpt><trkpt lat="44.2239409" lon="10.8321914"><ele>504.75</ele><time>2026-03-28T10:45:49.044Z</time></trkpt><trkpt lat="44.2240729" lon="10.8321943"><ele>506.0</ele><time>2026-03-28T10:45:50.035Z</time></trkpt><trkpt lat="44.2242281" lon="10.8321445"><ele>502.0</ele><time>2026-03-28T10:45:51.052Z</time></trkpt><trkpt lat="44.2243922" lon="10.8320629"><ele>498.0</ele><time>2026-03-28T10:45:52.04Z</time></trkpt><trkpt lat="44.2245508" lon="10.8319771"><ele>494.0</ele><time>2026-03-28T10:45:53.042Z</time></trkpt><trkpt lat="44.2246933" lon="10.8319036"><ele>491.75</ele><time>2026-03-28T10:45:54.053Z</time></trkpt><trkpt lat="44.2248294" lon="10.8318519"><ele>489.5</ele><time>2026-03-28T10:45:55.088Z</time></trkpt><trkpt lat="44.2249432" lon="10.8318322"><ele>487.25</ele><time>2026-03-28T10:45:56.043Z</time></trkpt><trkpt lat="44.2250517" lon="10.8318443"><ele>485.0</ele><time>2026-03-28T10:45:57.029Z</time></trkpt><trkpt lat="44.2251596" lon="10.8318916"><ele>485.0</ele><time>2026-03-28T10:45:58.048Z</time></trkpt><trkpt lat="44.2252649" lon="10.8319608"><ele>485.0</ele><time>2026-03-28T10:45:59.037Z</time></trkpt><trkpt lat="44.2253631" lon="10.8320474"><ele>485.0</ele><time>2026-03-28T10:46:00.035Z</time></trkpt><trkpt lat="44.2254436" lon="10.832148"><ele>485.0</ele><time>2026-03-28T10:46:01.047Z</time></trkpt><trkpt lat="44.2254934" lon="10.8322574"><ele>485.0</ele><time>2026-03-28T10:46:02.064Z</time></trkpt><trkpt lat="44.2255046" lon="10.8323769"><ele>485.0</ele><time>2026-03-28T10:46:03.047Z</time></trkpt><trkpt lat="44.2254826" lon="10.832523"><ele>485.0</ele><time>2026-03-28T10:46:04.048Z</time></trkpt><trkpt lat="44.225436" lon="10.8327017"><ele>485.0</ele><time>2026-03-28T10:46:05.066Z</time></trkpt><trkpt lat="44.225392" lon="10.8328763"><ele>485.0</ele><time>2026-03-28T10:46:06.036Z</time></trkpt><trkpt lat="44.2253578" lon="10.8330412"><ele>485.5</ele><time>2026-03-28T10:46:07.033Z</time></trkpt><trkpt lat="44.2253511" lon="10.83319"><ele>486.0</ele><time>2026-03-28T10:46:08.024Z</time></trkpt><trkpt lat="44.2253876" lon="10.8333256"><ele>486.5</ele><time>2026-03-28T10:46:09.031Z</time></trkpt><trkpt lat="44.2254757" lon="10.833435"><ele>487.0</ele><time>2026-03-28T10:46:10.047Z</time></trkpt><trkpt lat="44.2256044" lon="10.8334988"><ele>485.25</ele><time>2026-03-28T10:46:11.035Z</time></trkpt><trkpt lat="44.2257528" lon="10.8335183"><ele>483.5</ele><time>2026-03-28T10:46:12.044Z</time></trkpt><trkpt lat="44.2258822" lon="10.8335366"><ele>481.75</ele><time>2026-03-28T10:46:13.055Z</time></trkpt><trkpt lat="44.2259925" lon="10.8335863"><ele>480.0</ele><time>2026-03-28T10:46:14.038Z</time></trkpt><trkpt lat="44.2260883" lon="10.833681"><ele>480.0</ele><time>2026-03-28T10:46:15.051Z</time></trkpt><trkpt lat="44.2261748" lon="10.8338272"><ele>480.0</ele><time>2026-03-28T10:46:16.035Z</time></trkpt><trkpt lat="44.2262634" lon="10.8340171"><ele>480.0</ele><time>2026-03-28T10:46:17.043Z</time></trkpt><trkpt lat="44.2263489" lon="10.8342146"><ele>481.0</ele><time>2026-03-28T10:46:18.031Z</time></trkpt><trkpt lat="44.2264177" lon="10.8344042"><ele>482.0</ele><time>2026-03-28T10:46:19.055Z</time></trkpt><trkpt lat="44.2264506" lon="10.8345805"><ele>483.0</ele><time>2026-03-28T10:46:20.032Z</time></trkpt><trkpt lat="44.2264564" lon="10.8347724"><ele>484.0</ele><time>2026-03-28T10:46:21.041Z</time></trkpt><trkpt lat="44.2264543" lon="10.8349639"><ele>482.75</ele><time>2026-03-28T10:46:22.055Z</time></trkpt><trkpt lat="44.2264737" lon="10.8351376"><ele>481.5</ele><time>2026-03-28T10:46:23.042Z</time></trkpt><trkpt lat="44.2265342" lon="10.8352998"><ele>480.25</ele><time>2026-03-28T10:46:24.026Z</time></trkpt><trkpt lat="44.2266335" lon="10.8354648"><ele>479.0</ele><time>2026-03-28T10:46:25.054Z</time></trkpt><trkpt lat="44.2267317" lon="10.8356268"><ele>479.0</ele><time>2026-03-28T10:46:26.06Z</time></trkpt><trkpt lat="44.2268028" lon="10.8357933"><ele>479.0</ele><time>2026-03-28T10:46:27.038Z</time></trkpt><trkpt lat="44.2268511" lon="10.8359937"><ele>479.0</ele><time>2026-03-28T10:46:28.048Z</time></trkpt><trkpt lat="44.226885" lon="10.8362221"><ele>482.3333333333333</ele><time>2026-03-28T10:46:29.057Z</time></trkpt><trkpt lat="44.2269179" lon="10.8364398"><ele>485.66666666666663</ele><time>2026-03-28T10:46:30.046Z</time></trkpt><trkpt lat="44.2269686" lon="10.8366433"><ele>489.0</ele><time>2026-03-28T10:46:31.053Z</time></trkpt><trkpt lat="44.2270534" lon="10.8368197"><ele>491.5</ele><time>2026-03-28T10:46:32.035Z</time></trkpt><trkpt lat="44.2271679" lon="10.8369665"><ele>494.0</ele><time>2026-03-28T10:46:33.026Z</time></trkpt><trkpt lat="44.227289" lon="10.8371"><ele>496.5</ele><time>2026-03-28T10:46:34.101Z</time></trkpt><trkpt lat="44.2273713" lon="10.8372162"><ele>499.0</ele><time>2026-03-28T10:46:35.033Z</time></trkpt><trkpt lat="44.2274276" lon="10.8373526"><ele>492.5</ele><time>2026-03-28T10:46:36.053Z</time></trkpt><trkpt lat="44.2274512" lon="10.837505"><ele>486.0</ele><time>2026-03-28T10:46:37.049Z</time></trkpt><trkpt lat="44.2274684" lon="10.837677"><ele>479.5</ele><time>2026-03-28T10:46:38.053Z</time></trkpt><trkpt lat="44.2274893" lon="10.8378484"><ele>473.0</ele><time>2026-03-28T10:46:39.045Z</time></trkpt><trkpt lat="44.2274921" lon="10.8380045"><ele>473.0</ele><time>2026-03-28T10:46:40.057Z</time></trkpt><trkpt lat="44.2274763" lon="10.8381328"><ele>472.99999999999994</ele><time>2026-03-28T10:46:41.042Z</time></trkpt><trkpt lat="44.2274473" lon="10.8382604"><ele>472.99999999999994</ele><time>2026-03-28T10:46:42.044Z</time></trkpt><trkpt lat="44.2273989" lon="10.8384087"><ele>473.0</ele><time>2026-03-28T10:46:43.051Z</time></trkpt><trkpt lat="44.2273356" lon="10.8385695"><ele>473.0</ele><time>2026-03-28T10:46:44.047Z</time></trkpt><trkpt lat="44.2272696" lon="10.8387317"><ele>475.5</ele><time>2026-03-28T10:46:45.034Z</time></trkpt><trkpt lat="44.2271997" lon="10.8389064"><ele>478.0</ele><time>2026-03-28T10:46:46.076Z</time></trkpt><trkpt lat="44.2271354" lon="10.839072"><ele>480.5</ele><time>2026-03-28T10:46:47.042Z</time></trkpt><trkpt lat="44.2270671" lon="10.8392409"><ele>483.0</ele><time>2026-03-28T10:46:48.05Z</time></trkpt><trkpt lat="44.2270067" lon="10.8393918"><ele>483.0</ele><time>2026-03-28T10:46:49.033Z</time></trkpt><trkpt lat="44.2269595" lon="10.8395486"><ele>483.0</ele><time>2026-03-28T10:46:50.038Z</time></trkpt><trkpt lat="44.2269403" lon="10.8397221"><ele>483.0</ele><time>2026-03-28T10:46:51.049Z</time></trkpt><trkpt lat="44.2269517" lon="10.8399174"><ele>483.0</ele><time>2026-03-28T10:46:52.073Z</time></trkpt><trkpt lat="44.2269743" lon="10.8401108"><ele>483.5</ele><time>2026-03-28T10:46:53.038Z</time></trkpt><trkpt lat="44.2269871" lon="10.8403131"><ele>484.0</ele><time>2026-03-28T10:46:54.045Z</time></trkpt><trkpt lat="44.2269781" lon="10.8405046"><ele>484.5</ele><time>2026-03-28T10:46:55.055Z</time></trkpt><trkpt lat="44.2269444" lon="10.8406937"><ele>485.0</ele><time>2026-03-28T10:46:56.047Z</time></trkpt><trkpt lat="44.2268893" lon="10.8408964"><ele>484.66666666666663</ele><time>2026-03-28T10:46:57.033Z</time></trkpt><trkpt lat="44.2268285" lon="10.8411381"><ele>484.33333333333337</ele><time>2026-03-28T10:46:58.064Z</time></trkpt><trkpt lat="44.2267778" lon="10.8413899"><ele>484.0</ele><time>2026-03-28T10:46:59.045Z</time></trkpt><trkpt lat="44.2267345" lon="10.8416318"><ele>481.6666666666667</ele><time>2026-03-28T10:47:00.032Z</time></trkpt><trkpt lat="44.2266926" lon="10.8418639"><ele>479.33333333333337</ele><time>2026-03-28T10:47:01.053Z</time></trkpt><trkpt lat="44.2266513" lon="10.8420731"><ele>477.0</ele><time>2026-03-28T10:47:02.048Z</time></trkpt><trkpt lat="44.2266116" lon="10.8422685"><ele>477.0</ele><time>2026-03-28T10:47:03.049Z</time></trkpt><trkpt lat="44.22658" lon="10.8424488"><ele>477.0</ele><time>2026-03-28T10:47:04.057Z</time></trkpt><trkpt lat="44.2265744" lon="10.842614"><ele>477.0</ele><time>2026-03-28T10:47:05.029Z</time></trkpt><trkpt lat="44.2266023" lon="10.8427778"><ele>477.0</ele><time>2026-03-28T10:47:06.035Z</time></trkpt><trkpt lat="44.2266625" lon="10.8429367"><ele>476.75</ele><time>2026-03-28T10:47:07.038Z</time></trkpt><trkpt lat="44.2267418" lon="10.8430955"><ele>476.5</ele><time>2026-03-28T10:47:08.031Z</time></trkpt><trkpt lat="44.22681" lon="10.8432625"><ele>476.25</ele><time>2026-03-28T10:47:09.043Z</time></trkpt><trkpt lat="44.2268596" lon="10.8434497"><ele>476.0</ele><time>2026-03-28T10:47:10.05Z</time></trkpt><trkpt lat="44.2268873" lon="10.8436583"><ele>475.66666666666663</ele><time>2026-03-28T10:47:11.042Z</time></trkpt><trkpt lat="44.2269002" lon="10.8438877"><ele>475.33333333333337</ele><time>2026-03-28T10:47:12.045Z</time></trkpt><trkpt lat="44.2269074" lon="10.8441199"><ele>475.0</ele><time>2026-03-28T10:47:13.04Z</time></trkpt><trkpt lat="44.2269185" lon="10.8443437"><ele>475.0</ele><time>2026-03-28T10:47:14.029Z</time></trkpt><trkpt lat="44.2269438" lon="10.8445557"><ele>475.0</ele><time>2026-03-28T10:47:15.038Z</time></trkpt><trkpt lat="44.2269977" lon="10.8447404"><ele>475.0</ele><time>2026-03-28T10:47:16.027Z</time></trkpt><trkpt lat="44.2270874" lon="10.8448967"><ele>475.0</ele><time>2026-03-28T10:47:17.044Z</time></trkpt><trkpt lat="44.227206" lon="10.8450281"><ele>472.0</ele><time>2026-03-28T10:47:18.049Z</time></trkpt><trkpt lat="44.2273373" lon="10.8451609"><ele>469.0</ele><time>2026-03-28T10:47:19.043Z</time></trkpt><trkpt lat="44.2274677" lon="10.8453245"><ele>466.0</ele><time>2026-03-28T10:47:20.03Z</time></trkpt><trkpt lat="44.2275898" lon="10.8455137"><ele>466.0</ele><time>2026-03-28T10:47:21.038Z</time></trkpt><trkpt lat="44.2276892" lon="10.8456874"><ele>466.0</ele><time>2026-03-28T10:47:22.049Z</time></trkpt><trkpt lat="44.2277628" lon="10.8458376"><ele>466.0</ele><time>2026-03-28T10:47:23.043Z</time></trkpt><trkpt lat="44.2278086" lon="10.8459806"><ele>466.0</ele><time>2026-03-28T10:47:24.041Z</time></trkpt><trkpt lat="44.2278223" lon="10.8461203"><ele>463.75</ele><time>2026-03-28T10:47:25.043Z</time></trkpt><trkpt lat="44.2278026" lon="10.846258"><ele>461.5</ele><time>2026-03-28T10:47:26.034Z</time></trkpt><trkpt lat="44.2277492" lon="10.8463923"><ele>459.25</ele><time>2026-03-28T10:47:27.023Z</time></trkpt><trkpt lat="44.2276632" lon="10.8465303"><ele>457.0</ele><time>2026-03-28T10:47:28.026Z</time></trkpt><trkpt lat="44.2275608" lon="10.8466679"><ele>454.5</ele><time>2026-03-28T10:47:29.02Z</time></trkpt><trkpt lat="44.2274566" lon="10.8468075"><ele>452.0</ele><time>2026-03-28T10:47:30.047Z</time></trkpt><trkpt lat="44.227359" lon="10.8469298"><ele>449.5</ele><time>2026-03-28T10:47:31.037Z</time></trkpt><trkpt lat="44.2272563" lon="10.8470334"><ele>447.0</ele><time>2026-03-28T10:47:32.053Z</time></trkpt><trkpt lat="44.2271424" lon="10.8471108"><ele>447.0</ele><time>2026-03-28T10:47:33.041Z</time></trkpt><trkpt lat="44.2270211" lon="10.8471558"><ele>447.0</ele><time>2026-03-28T10:47:34.039Z</time></trkpt><trkpt lat="44.2268936" lon="10.8471744"><ele>447.0</ele><time>2026-03-28T10:47:35.036Z</time></trkpt><trkpt lat="44.2267568" lon="10.8471738"><ele>447.0</ele><time>2026-03-28T10:47:36.048Z</time></trkpt><trkpt lat="44.2266243" lon="10.8471706"><ele>447.0</ele><time>2026-03-28T10:47:37.054Z</time></trkpt><trkpt lat="44.2265029" lon="10.8471849"><ele>447.0</ele><time>2026-03-28T10:47:38.043Z</time></trkpt><trkpt lat="44.2263896" lon="10.8472295"><ele>447.0</ele><time>2026-03-28T10:47:39.052Z</time></trkpt><trkpt lat="44.2262884" lon="10.847309"><ele>447.0</ele><time>2026-03-28T10:47:40.029Z</time></trkpt><trkpt lat="44.2261953" lon="10.8474378"><ele>445.66666666666663</ele><time>2026-03-28T10:47:41.038Z</time></trkpt><trkpt lat="44.2261147" lon="10.8476114"><ele>444.3333333333333</ele><time>2026-03-28T10:47:42.061Z</time></trkpt><trkpt lat="44.2260333" lon="10.8478"><ele>443.0</ele><time>2026-03-28T10:47:43.054Z</time></trkpt><trkpt lat="44.2259383" lon="10.8479922"><ele>443.0</ele><time>2026-03-28T10:47:44.088Z</time></trkpt><trkpt lat="44.2258521" lon="10.8481476"><ele>443.0</ele><time>2026-03-28T10:47:45.036Z</time></trkpt><trkpt lat="44.225751" lon="10.8482901"><ele>443.0</ele><time>2026-03-28T10:47:46.044Z</time></trkpt><trkpt lat="44.2256387" lon="10.8484149"><ele>443.0</ele><time>2026-03-28T10:47:47.037Z</time></trkpt><trkpt lat="44.2255132" lon="10.8485352"><ele>441.75</ele><time>2026-03-28T10:47:48.064Z</time></trkpt><trkpt lat="44.2253849" lon="10.8486438"><ele>440.5</ele><time>2026-03-28T10:47:49.055Z</time></trkpt><trkpt lat="44.2252606" lon="10.8487438"><ele>439.25</ele><time>2026-03-28T10:47:50.038Z</time></trkpt><trkpt lat="44.2251374" lon="10.848829"><ele>438.0</ele><time>2026-03-28T10:47:51.047Z</time></trkpt><trkpt lat="44.2250175" lon="10.8488858"><ele>438.0</ele><time>2026-03-28T10:47:52.045Z</time></trkpt><trkpt lat="44.224891" lon="10.8489084"><ele>438.0</ele><time>2026-03-28T10:47:53.047Z</time></trkpt><trkpt lat="44.2247656" lon="10.848901"><ele>438.0</ele><time>2026-03-28T10:47:54.056Z</time></trkpt><trkpt lat="44.2246502" lon="10.8489112"><ele>438.0</ele><time>2026-03-28T10:47:55.035Z</time></trkpt><trkpt lat="44.2245347" lon="10.8489722"><ele>438.33333333333337</ele><time>2026-03-28T10:47:56.039Z</time></trkpt><trkpt lat="44.2244163" lon="10.8490826"><ele>438.6666666666667</ele><time>2026-03-28T10:47:57.041Z</time></trkpt><trkpt lat="44.2242798" lon="10.8491983"><ele>439.0</ele><time>2026-03-28T10:47:58.049Z</time></trkpt><trkpt lat="44.2241304" lon="10.8492946"><ele>438.5</ele><time>2026-03-28T10:47:59.06Z</time></trkpt><trkpt lat="44.2239896" lon="10.8493722"><ele>438.0</ele><time>2026-03-28T10:48:00.039Z</time></trkpt><trkpt lat="44.2238483" lon="10.8494411"><ele>437.5</ele><time>2026-03-28T10:48:01.062Z</time></trkpt><trkpt lat="44.2237215" lon="10.84951"><ele>437.0</ele><time>2026-03-28T10:48:02.049Z</time></trkpt><trkpt lat="44.2236081" lon="10.8496061"><ele>437.0</ele><time>2026-03-28T10:48:03.047Z</time></trkpt><trkpt lat="44.2234923" lon="10.849729"><ele>437.0</ele><time>2026-03-28T10:48:04.047Z</time></trkpt><trkpt lat="44.2233781" lon="10.8498751"><ele>437.0</ele><time>2026-03-28T10:48:05.046Z</time></trkpt><trkpt lat="44.2232641" lon="10.8500497"><ele>435.3333333333333</ele><time>2026-03-28T10:48:06.045Z</time></trkpt><trkpt lat="44.2231478" lon="10.850256"><ele>433.66666666666663</ele><time>2026-03-28T10:48:07.065Z</time></trkpt><trkpt lat="44.2230362" lon="10.8504702"><ele>432.0</ele><time>2026-03-28T10:48:08.06Z</time></trkpt><trkpt lat="44.2229276" lon="10.8506751"><ele>432.0</ele><time>2026-03-28T10:48:09.05Z</time></trkpt><trkpt lat="44.2228154" lon="10.8508591"><ele>432.0</ele><time>2026-03-28T10:48:10.042Z</time></trkpt><trkpt lat="44.2226945" lon="10.8510197"><ele>432.0</ele><time>2026-03-28T10:48:11.056Z</time></trkpt><trkpt lat="44.2225774" lon="10.8511565"><ele>432.0</ele><time>2026-03-28T10:48:12.037Z</time></trkpt><trkpt lat="44.2224643" lon="10.8512879"><ele>432.0</ele><time>2026-03-28T10:48:13.048Z</time></trkpt><trkpt lat="44.22237" lon="10.8514221"><ele>432.0</ele><time>2026-03-28T10:48:14.056Z</time></trkpt><trkpt lat="44.2223109" lon="10.8515718"><ele>432.0</ele><time>2026-03-28T10:48:15.031Z</time></trkpt><trkpt lat="44.2222847" lon="10.8517649"><ele>428.0</ele><time>2026-03-28T10:48:16.057Z</time></trkpt><trkpt lat="44.2222954" lon="10.8519754"><ele>424.0</ele><time>2026-03-28T10:48:17.05Z</time></trkpt><trkpt lat="44.2223236" lon="10.8521885"><ele>420.0</ele><time>2026-03-28T10:48:18.044Z</time></trkpt><trkpt lat="44.2223634" lon="10.8524198"><ele>422.66666666666663</ele><time>2026-03-28T10:48:19.053Z</time></trkpt><trkpt lat="44.2224046" lon="10.8526516"><ele>425.3333333333333</ele><time>2026-03-28T10:48:20.047Z</time></trkpt><trkpt lat="44.2224436" lon="10.852871"><ele>428.0</ele><time>2026-03-28T10:48:21.057Z</time></trkpt><trkpt lat="44.2224856" lon="10.853067"><ele>428.0</ele><time>2026-03-28T10:48:22.039Z</time></trkpt><trkpt lat="44.2225392" lon="10.8532487"><ele>428.0</ele><time>2026-03-28T10:48:23.045Z</time></trkpt><trkpt lat="44.2226126" lon="10.8534133"><ele>428.0</ele><time>2026-03-28T10:48:24.047Z</time></trkpt><trkpt lat="44.2226986" lon="10.8535645"><ele>428.0</ele><time>2026-03-28T10:48:25.045Z</time></trkpt><trkpt lat="44.2227693" lon="10.853709"><ele>430.59999999999997</ele><time>2026-03-28T10:48:26.041Z</time></trkpt><trkpt lat="44.2228099" lon="10.8538621"><ele>433.19999999999993</ele><time>2026-03-28T10:48:27.052Z</time></trkpt><trkpt lat="44.2228322" lon="10.8540298"><ele>435.8</ele><time>2026-03-28T10:48:28.056Z</time></trkpt><trkpt lat="44.2228419" lon="10.8541742"><ele>438.4</ele><time>2026-03-28T10:48:29.029Z</time></trkpt><trkpt lat="44.2228341" lon="10.8542974"><ele>441.0</ele><time>2026-03-28T10:48:30.046Z</time></trkpt><trkpt lat="44.2227992" lon="10.8543827"><ele>441.0</ele><time>2026-03-28T10:48:31.066Z</time></trkpt><trkpt lat="44.2226821" lon="10.8544066"><ele>441.0</ele><time>2026-03-28T10:48:33.046Z</time></trkpt><trkpt lat="44.2226314" lon="10.8543447"><ele>441.0</ele><time>2026-03-28T10:48:34.053Z</time></trkpt><trkpt lat="44.2226155" lon="10.8542407"><ele>441.0</ele><time>2026-03-28T10:48:35.048Z</time></trkpt><trkpt lat="44.2226288" lon="10.8540977"><ele>441.0</ele><time>2026-03-28T10:48:36.047Z</time></trkpt><trkpt lat="44.2226434" lon="10.8539357"><ele>441.0</ele><time>2026-03-28T10:48:37.068Z</time></trkpt><trkpt lat="44.2226191" lon="10.8537886"><ele>441.0</ele><time>2026-03-28T10:48:38.039Z</time></trkpt><trkpt lat="44.2225561" lon="10.853656"><ele>441.0</ele><time>2026-03-28T10:48:39.057Z</time></trkpt><trkpt lat="44.2224632" lon="10.8535746"><ele>441.0</ele><time>2026-03-28T10:48:40.034Z</time></trkpt><trkpt lat="44.2223427" lon="10.8535452"><ele>441.75</ele><time>2026-03-28T10:48:41.038Z</time></trkpt><trkpt lat="44.2222178" lon="10.8535706"><ele>442.5</ele><time>2026-03-28T10:48:42.066Z</time></trkpt><trkpt lat="44.2221073" lon="10.8536417"><ele>443.25</ele><time>2026-03-28T10:48:43.043Z</time></trkpt><trkpt lat="44.2220109" lon="10.8537615"><ele>444.0</ele><time>2026-03-28T10:48:44.04Z</time></trkpt><trkpt lat="44.2219113" lon="10.853887"><ele>444.0</ele><time>2026-03-28T10:48:45.062Z</time></trkpt><trkpt lat="44.2217986" lon="10.8539863"><ele>444.0</ele><time>2026-03-28T10:48:46.061Z</time></trkpt><trkpt lat="44.221688" lon="10.8540753"><ele>444.0</ele><time>2026-03-28T10:48:47.069Z</time></trkpt><trkpt lat="44.221596" lon="10.8541813"><ele>444.0</ele><time>2026-03-28T10:48:48.05Z</time></trkpt><trkpt lat="44.2215118" lon="10.8542891"><ele>445.79999999999995</ele><time>2026-03-28T10:48:49.055Z</time></trkpt><trkpt lat="44.2214195" lon="10.8543654"><ele>447.59999999999997</ele><time>2026-03-28T10:48:50.054Z</time></trkpt><trkpt lat="44.2213172" lon="10.8544031"><ele>449.4</ele><time>2026-03-28T10:48:51.044Z</time></trkpt><trkpt lat="44.2212067" lon="10.8544094"><ele>451.2</ele><time>2026-03-28T10:48:52.047Z</time></trkpt><trkpt lat="44.2210861" lon="10.8543962"><ele>453.0</ele><time>2026-03-28T10:48:53.04Z</time></trkpt><trkpt lat="44.220958" lon="10.8543701"><ele>453.0</ele><time>2026-03-28T10:48:54.047Z</time></trkpt><trkpt lat="44.220829" lon="10.8543199"><ele>453.0</ele><time>2026-03-28T10:48:55.037Z</time></trkpt><trkpt lat="44.2206991" lon="10.8542358"><ele>453.0</ele><time>2026-03-28T10:48:56.051Z</time></trkpt><trkpt lat="44.2205774" lon="10.8541365"><ele>453.0</ele><time>2026-03-28T10:48:57.047Z</time></trkpt><trkpt lat="44.2204553" lon="10.8540429"><ele>453.0</ele><time>2026-03-28T10:48:57.994Z</time></trkpt><trkpt lat="44.2203258" lon="10.8539577"><ele>453.0</ele><time>2026-03-28T10:48:58.996Z</time></trkpt><trkpt lat="44.2201937" lon="10.8539081"><ele>453.0</ele><time>2026-03-28T10:48:59.978Z</time></trkpt><trkpt lat="44.2200722" lon="10.8538739"><ele>453.0</ele><time>2026-03-28T10:49:00.988Z</time></trkpt><trkpt lat="44.2199586" lon="10.8538744"><ele>453.0</ele><time>2026-03-28T10:49:01.991Z</time></trkpt><trkpt lat="44.2198666" lon="10.8539149"><ele>452.99999999999994</ele><time>2026-03-28T10:49:02.986Z</time></trkpt><trkpt lat="44.2197971" lon="10.8540096"><ele>452.99999999999994</ele><time>2026-03-28T10:49:03.999Z</time></trkpt><trkpt lat="44.219768" lon="10.854111"><ele>453.0</ele><time>2026-03-28T10:49:04.984Z</time></trkpt><trkpt lat="44.2198196" lon="10.8542344"><ele>453.0</ele><time>2026-03-28T10:49:05.987Z</time></trkpt><trkpt lat="44.2199237" lon="10.8543385"><ele>454.5</ele><time>2026-03-28T10:49:06.989Z</time></trkpt><trkpt lat="44.2200385" lon="10.8544074"><ele>456.0</ele><time>2026-03-28T10:49:08.009Z</time></trkpt><trkpt lat="44.2201398" lon="10.854493"><ele>457.5</ele><time>2026-03-28T10:49:09.021Z</time></trkpt><trkpt lat="44.2202045" lon="10.8546086"><ele>459.0</ele><time>2026-03-28T10:49:09.996Z</time></trkpt><trkpt lat="44.2202504" lon="10.8547622"><ele>459.0</ele><time>2026-03-28T10:49:10.992Z</time></trkpt><trkpt lat="44.2202872" lon="10.8549429"><ele>459.0</ele><time>2026-03-28T10:49:12.001Z</time></trkpt><trkpt lat="44.2203447" lon="10.8551087"><ele>459.0</ele><time>2026-03-28T10:49:12.986Z</time></trkpt><trkpt lat="44.2204365" lon="10.8552407"><ele>459.0</ele><time>2026-03-28T10:49:13.993Z</time></trkpt><trkpt lat="44.2205432" lon="10.8553375"><ele>459.0</ele><time>2026-03-28T10:49:14.983Z</time></trkpt><trkpt lat="44.2206536" lon="10.8553998"><ele>459.0</ele><time>2026-03-28T10:49:15.996Z</time></trkpt><trkpt lat="44.2207689" lon="10.8554771"><ele>459.0</ele><time>2026-03-28T10:49:17.331Z</time></trkpt><trkpt lat="44.2208098" lon="10.8556433"><ele>459.0</ele><time>2026-03-28T10:49:19.032Z</time></trkpt><trkpt lat="44.2207778" lon="10.8557423"><ele>459.0</ele><time>2026-03-28T10:49:20.048Z</time></trkpt><trkpt lat="44.2207047" lon="10.8558141"><ele>459.0</ele><time>2026-03-28T10:49:21.068Z</time></trkpt><trkpt lat="44.2206026" lon="10.8558428"><ele>459.0</ele><time>2026-03-28T10:49:22.027Z</time></trkpt><trkpt lat="44.2204679" lon="10.8558339"><ele>459.0</ele><time>2026-03-28T10:49:23.053Z</time></trkpt><trkpt lat="44.2203197" lon="10.8557817"><ele>461.0</ele><time>2026-03-28T10:49:24.047Z</time></trkpt><trkpt lat="44.2201739" lon="10.8556988"><ele>463.0</ele><time>2026-03-28T10:49:25.04Z</time></trkpt><trkpt lat="44.2200317" lon="10.8556071"><ele>465.0</ele><time>2026-03-28T10:49:26.047Z</time></trkpt><trkpt lat="44.2198959" lon="10.8555254"><ele>467.25</ele><time>2026-03-28T10:49:27.053Z</time></trkpt><trkpt lat="44.2197646" lon="10.8554684"><ele>469.5</ele><time>2026-03-28T10:49:28.041Z</time></trkpt><trkpt lat="44.2196313" lon="10.8554241"><ele>471.75</ele><time>2026-03-28T10:49:29.046Z</time></trkpt><trkpt lat="44.2195033" lon="10.8553533"><ele>474.0</ele><time>2026-03-28T10:49:30.053Z</time></trkpt><trkpt lat="44.2193923" lon="10.855238"><ele>473.33333333333337</ele><time>2026-03-28T10:49:31.043Z</time></trkpt><trkpt lat="44.2192881" lon="10.8550922"><ele>472.6666666666667</ele><time>2026-03-28T10:49:32.055Z</time></trkpt><trkpt lat="44.2191616" lon="10.8549658"><ele>472.0</ele><time>2026-03-28T10:49:33.061Z</time></trkpt><trkpt lat="44.2190303" lon="10.8548561"><ele>473.25</ele><time>2026-03-28T10:49:34.046Z</time></trkpt><trkpt lat="44.2189004" lon="10.8547557"><ele>474.5</ele><time>2026-03-28T10:49:35.052Z</time></trkpt><trkpt lat="44.2187636" lon="10.8546772"><ele>475.75</ele><time>2026-03-28T10:49:36.077Z</time></trkpt><trkpt lat="44.2186268" lon="10.8546303"><ele>477.0</ele><time>2026-03-28T10:49:37.058Z</time></trkpt><trkpt lat="44.2184812" lon="10.8546038"><ele>477.0</ele><time>2026-03-28T10:49:38.053Z</time></trkpt><trkpt lat="44.2183299" lon="10.8545885"><ele>477.0</ele><time>2026-03-28T10:49:39.055Z</time></trkpt><trkpt lat="44.2181779" lon="10.8545743"><ele>477.0</ele><time>2026-03-28T10:49:40.046Z</time></trkpt><trkpt lat="44.2180308" lon="10.8545562"><ele>477.6</ele><time>2026-03-28T10:49:41.043Z</time></trkpt><trkpt lat="44.217896" lon="10.8545363"><ele>478.20000000000005</ele><time>2026-03-28T10:49:42.057Z</time></trkpt><trkpt lat="44.2177811" lon="10.8545215"><ele>478.8</ele><time>2026-03-28T10:49:43.053Z</time></trkpt><trkpt lat="44.217683" lon="10.8545164"><ele>479.4</ele><time>2026-03-28T10:49:43.999Z</time></trkpt><trkpt lat="44.2175944" lon="10.8545346"><ele>480.0</ele><time>2026-03-28T10:49:44.986Z</time></trkpt><trkpt lat="44.2175462" lon="10.8545947"><ele>480.0</ele><time>2026-03-28T10:49:45.988Z</time></trkpt><trkpt lat="44.2175403" lon="10.8546901"><ele>480.0</ele><time>2026-03-28T10:49:47.035Z</time></trkpt><trkpt lat="44.2175641" lon="10.8547805"><ele>480.0</ele><time>2026-03-28T10:49:47.983Z</time></trkpt><trkpt lat="44.2176238" lon="10.8548527"><ele>480.0</ele><time>2026-03-28T10:49:48.99Z</time></trkpt><trkpt lat="44.2177065" lon="10.8548891"><ele>480.0</ele><time>2026-03-28T10:49:49.962Z</time></trkpt><trkpt lat="44.2178217" lon="10.854874"><ele>480.0</ele><time>2026-03-28T10:49:50.99Z</time></trkpt><trkpt lat="44.2179556" lon="10.8548145"><ele>480.0</ele><time>2026-03-28T10:49:51.993Z</time></trkpt><trkpt lat="44.2180792" lon="10.854789"><ele>480.0</ele><time>2026-03-28T10:49:52.995Z</time></trkpt><trkpt lat="44.2182147" lon="10.8547698"><ele>480.0</ele><time>2026-03-28T10:49:54.328Z</time></trkpt><trkpt lat="44.2183324" lon="10.855101"><ele>481.66666666666663</ele><time>2026-03-28T10:49:56.05Z</time></trkpt><trkpt lat="44.2183886" lon="10.8553163"><ele>483.3333333333333</ele><time>2026-03-28T10:49:57.051Z</time></trkpt><trkpt lat="44.2184517" lon="10.85552"><ele>485.0</ele><time>2026-03-28T10:49:58.057Z</time></trkpt><trkpt lat="44.2185166" lon="10.8557111"><ele>485.0</ele><time>2026-03-28T10:49:59.048Z</time></trkpt><trkpt lat="44.218586" lon="10.8558945"><ele>485.0</ele><time>2026-03-28T10:50:00.036Z</time></trkpt><trkpt lat="44.2186702" lon="10.856082"><ele>485.0</ele><time>2026-03-28T10:50:01.059Z</time></trkpt><trkpt lat="44.2187678" lon="10.8562703"><ele>487.3333333333333</ele><time>2026-03-28T10:50:02.041Z</time></trkpt><trkpt lat="44.218871" lon="10.8564709"><ele>489.66666666666663</ele><time>2026-03-28T10:50:03.073Z</time></trkpt><trkpt lat="44.2189683" lon="10.8566425"><ele>492.0</ele><time>2026-03-28T10:50:04.05Z</time></trkpt><trkpt lat="44.2190629" lon="10.8567899"><ele>492.0</ele><time>2026-03-28T10:50:05.025Z</time></trkpt><trkpt lat="44.2191525" lon="10.8569279"><ele>492.0</ele><time>2026-03-28T10:50:06.045Z</time></trkpt><trkpt lat="44.2192257" lon="10.8570547"><ele>492.0</ele><time>2026-03-28T10:50:07.037Z</time></trkpt><trkpt lat="44.2192793" lon="10.8571846"><ele>492.0</ele><time>2026-03-28T10:50:08.03Z</time></trkpt><trkpt lat="44.2193217" lon="10.857312"><ele>492.0</ele><time>2026-03-28T10:50:09.014Z</time></trkpt><trkpt lat="44.219334" lon="10.857433"><ele>492.0</ele><time>2026-03-28T10:50:09.974Z</time></trkpt><trkpt lat="44.219316" lon="10.8575569"><ele>492.0</ele><time>2026-03-28T10:50:11.007Z</time></trkpt><trkpt lat="44.2192755" lon="10.8576337"><ele>492.0</ele><time>2026-03-28T10:50:11.97Z</time></trkpt><trkpt lat="44.2192052" lon="10.8576703"><ele>492.0</ele><time>2026-03-28T10:50:12.982Z</time></trkpt><trkpt lat="44.2191377" lon="10.8576619"><ele>492.0</ele><time>2026-03-28T10:50:13.979Z</time></trkpt><trkpt lat="44.2190331" lon="10.8576083"><ele>496.0</ele><time>2026-03-28T10:50:14.986Z</time></trkpt><trkpt lat="44.2188531" lon="10.8574594"><ele>500.0</ele><time>2026-03-28T10:50:16.024Z</time></trkpt><trkpt lat="44.2186359" lon="10.8572931"><ele>500.0</ele><time>2026-03-28T10:50:17.008Z</time></trkpt><trkpt lat="44.2184384" lon="10.8571514"><ele>500.0</ele><time>2026-03-28T10:50:18.027Z</time></trkpt><trkpt lat="44.218275" lon="10.8570388"><ele>500.0</ele><time>2026-03-28T10:50:18.98Z</time></trkpt><trkpt lat="44.2181432" lon="10.8569465"><ele>500.0</ele><time>2026-03-28T10:50:19.983Z</time></trkpt><trkpt lat="44.2180121" lon="10.856855"><ele>500.0</ele><time>2026-03-28T10:50:20.986Z</time></trkpt><trkpt lat="44.2178844" lon="10.8567725"><ele>500.0</ele><time>2026-03-28T10:50:21.977Z</time></trkpt><trkpt lat="44.2177438" lon="10.8567087"><ele>500.0</ele><time>2026-03-28T10:50:22.997Z</time></trkpt><trkpt lat="44.2176027" lon="10.856681"><ele>500.0</ele><time>2026-03-28T10:50:23.98Z</time></trkpt><trkpt lat="44.2174648" lon="10.8566921"><ele>500.0</ele><time>2026-03-28T10:50:24.97Z</time></trkpt><trkpt lat="44.2173384" lon="10.8567503"><ele>500.0</ele><time>2026-03-28T10:50:25.994Z</time></trkpt><trkpt lat="44.2172255" lon="10.8568602"><ele>500.0</ele><time>2026-03-28T10:50:26.999Z</time></trkpt><trkpt lat="44.2171302" lon="10.8569858"><ele>502.0</ele><time>2026-03-28T10:50:27.986Z</time></trkpt><trkpt lat="44.217047" lon="10.8571515"><ele>504.0</ele><time>2026-03-28T10:50:28.987Z</time></trkpt><trkpt lat="44.2169656" lon="10.857311"><ele>506.0</ele><time>2026-03-28T10:50:29.994Z</time></trkpt><trkpt lat="44.2168792" lon="10.8574251"><ele>508.0</ele><time>2026-03-28T10:50:30.989Z</time></trkpt><trkpt lat="44.2167695" lon="10.8574944"><ele>508.0</ele><time>2026-03-28T10:50:31.99Z</time></trkpt><trkpt lat="44.2166388" lon="10.8575303"><ele>508.0</ele><time>2026-03-28T10:50:32.989Z</time></trkpt><trkpt lat="44.2165067" lon="10.8575476"><ele>508.0</ele><time>2026-03-28T10:50:33.973Z</time></trkpt><trkpt lat="44.2163469" lon="10.857552"><ele>508.0</ele><time>2026-03-28T10:50:35.011Z</time></trkpt><trkpt lat="44.2161996" lon="10.8575576"><ele>507.75</ele><time>2026-03-28T10:50:35.979Z</time></trkpt><trkpt lat="44.2160502" lon="10.8575822"><ele>507.5</ele><time>2026-03-28T10:50:36.981Z</time></trkpt><trkpt lat="44.2159104" lon="10.8576444"><ele>507.25</ele><time>2026-03-28T10:50:37.975Z</time></trkpt><trkpt lat="44.2157754" lon="10.8577401"><ele>507.0</ele><time>2026-03-28T10:50:38.987Z</time></trkpt><trkpt lat="44.2156546" lon="10.8578578"><ele>508.0</ele><time>2026-03-28T10:50:40.025Z</time></trkpt><trkpt lat="44.2155668" lon="10.8579872"><ele>509.0</ele><time>2026-03-28T10:50:40.992Z</time></trkpt><trkpt lat="44.215509" lon="10.8581391"><ele>510.0</ele><time>2026-03-28T10:50:41.987Z</time></trkpt><trkpt lat="44.2154607" lon="10.8583128"><ele>511.0</ele><time>2026-03-28T10:50:42.998Z</time></trkpt><trkpt lat="44.2153904" lon="10.858469"><ele>514.0</ele><time>2026-03-28T10:50:43.998Z</time></trkpt><trkpt lat="44.2153004" lon="10.8586099"><ele>517.0</ele><time>2026-03-28T10:50:44.992Z</time></trkpt><trkpt lat="44.2151659" lon="10.8587423"><ele>520.0</ele><time>2026-03-28T10:50:45.993Z</time></trkpt><trkpt lat="44.2150252" lon="10.8588698"><ele>520.0</ele><time>2026-03-28T10:50:46.995Z</time></trkpt><trkpt lat="44.2149119" lon="10.8590019"><ele>520.0</ele><time>2026-03-28T10:50:48.005Z</time></trkpt><trkpt lat="44.2148172" lon="10.8591613"><ele>520.0</ele><time>2026-03-28T10:50:48.995Z</time></trkpt><trkpt lat="44.2147611" lon="10.8593185"><ele>520.0</ele><time>2026-03-28T10:50:49.986Z</time></trkpt><trkpt lat="44.2147327" lon="10.8594745"><ele>519.75</ele><time>2026-03-28T10:50:50.989Z</time></trkpt><trkpt lat="44.2147298" lon="10.8596293"><ele>519.5</ele><time>2026-03-28T10:50:51.995Z</time></trkpt><trkpt lat="44.2147589" lon="10.8597853"><ele>519.25</ele><time>2026-03-28T10:50:52.981Z</time></trkpt><trkpt lat="44.2148429" lon="10.8599386"><ele>519.0</ele><time>2026-03-28T10:50:53.991Z</time></trkpt><trkpt lat="44.2149162" lon="10.8600949"><ele>521.25</ele><time>2026-03-28T10:50:54.997Z</time></trkpt><trkpt lat="44.2149466" lon="10.8602482"><ele>523.5</ele><time>2026-03-28T10:50:55.994Z</time></trkpt><trkpt lat="44.2149564" lon="10.8604387"><ele>525.75</ele><time>2026-03-28T10:50:56.988Z</time></trkpt><trkpt lat="44.2149439" lon="10.8606599"><ele>528.0</ele><time>2026-03-28T10:50:57.989Z</time></trkpt><trkpt lat="44.214934" lon="10.8608754"><ele>529.75</ele><time>2026-03-28T10:50:58.985Z</time></trkpt><trkpt lat="44.2149067" lon="10.8610628"><ele>531.5</ele><time>2026-03-28T10:51:00.021Z</time></trkpt><trkpt lat="44.2148754" lon="10.8612219"><ele>533.25</ele><time>2026-03-28T10:51:00.98Z</time></trkpt><trkpt lat="44.2148339" lon="10.8613623"><ele>535.0</ele><time>2026-03-28T10:51:01.984Z</time></trkpt><trkpt lat="44.2147818" lon="10.8614733"><ele>535.8</ele><time>2026-03-28T10:51:02.987Z</time></trkpt><trkpt lat="44.2147211" lon="10.861558"><ele>536.6</ele><time>2026-03-28T10:51:03.993Z</time></trkpt><trkpt lat="44.2146551" lon="10.861605"><ele>537.4</ele><time>2026-03-28T10:51:04.986Z</time></trkpt><trkpt lat="44.2145704" lon="10.8616248"><ele>538.2</ele><time>2026-03-28T10:51:06.003Z</time></trkpt><trkpt lat="44.2144531" lon="10.8616129"><ele>539.0</ele><time>2026-03-28T10:51:07.002Z</time></trkpt><trkpt lat="44.2143373" lon="10.861597"><ele>539.0</ele><time>2026-03-28T10:51:08.004Z</time></trkpt><trkpt lat="44.2142293" lon="10.8615647"><ele>539.0</ele><time>2026-03-28T10:51:08.971Z</time></trkpt><trkpt lat="44.2141279" lon="10.861488"><ele>539.0</ele><time>2026-03-28T10:51:09.988Z</time></trkpt><trkpt lat="44.2140413" lon="10.8613523"><ele>539.0</ele><time>2026-03-28T10:51:10.992Z</time></trkpt><trkpt lat="44.2139562" lon="10.8611473"><ele>543.6666666666666</ele><time>2026-03-28T10:51:12.009Z</time></trkpt><trkpt lat="44.2138833" lon="10.8608916"><ele>548.3333333333334</ele><time>2026-03-28T10:51:13.022Z</time></trkpt><trkpt lat="44.2138309" lon="10.860614"><ele>553.0</ele><time>2026-03-28T10:51:14.002Z</time></trkpt><trkpt lat="44.2137778" lon="10.8603418"><ele>552.3333333333334</ele><time>2026-03-28T10:51:14.982Z</time></trkpt><trkpt lat="44.2137128" lon="10.8600947"><ele>551.6666666666666</ele><time>2026-03-28T10:51:15.986Z</time></trkpt><trkpt lat="44.2136585" lon="10.8598736"><ele>551.0</ele><time>2026-03-28T10:51:16.997Z</time></trkpt><trkpt lat="44.213645" lon="10.8596832"><ele>551.0</ele><time>2026-03-28T10:51:17.999Z</time></trkpt><trkpt lat="44.2136164" lon="10.8595119"><ele>551.0</ele><time>2026-03-28T10:51:19.003Z</time></trkpt><trkpt lat="44.2135838" lon="10.8593515"><ele>551.0</ele><time>2026-03-28T10:51:20.007Z</time></trkpt><trkpt lat="44.2135404" lon="10.8592296"><ele>551.0</ele><time>2026-03-28T10:51:20.984Z</time></trkpt><trkpt lat="44.213467" lon="10.8591302"><ele>551.0</ele><time>2026-03-28T10:51:21.985Z</time></trkpt><trkpt lat="44.2133644" lon="10.8590324"><ele>547.25</ele><time>2026-03-28T10:51:22.99Z</time></trkpt><trkpt lat="44.2132421" lon="10.8589521"><ele>543.5</ele><time>2026-03-28T10:51:23.99Z</time></trkpt><trkpt lat="44.2131222" lon="10.858884"><ele>539.75</ele><time>2026-03-28T10:51:25.004Z</time></trkpt><trkpt lat="44.213017" lon="10.8588488"><ele>536.0</ele><time>2026-03-28T10:51:25.998Z</time></trkpt><trkpt lat="44.212907" lon="10.8588502"><ele>536.0</ele><time>2026-03-28T10:51:27.001Z</time></trkpt><trkpt lat="44.2128194" lon="10.8588938"><ele>536.0</ele><time>2026-03-28T10:51:27.998Z</time></trkpt><trkpt lat="44.2127673" lon="10.859007"><ele>536.0</ele><time>2026-03-28T10:51:28.995Z</time></trkpt><trkpt lat="44.2126917" lon="10.859197"><ele>536.0</ele><time>2026-03-28T10:51:29.992Z</time></trkpt><trkpt lat="44.2126104" lon="10.859412"><ele>537.5</ele><time>2026-03-28T10:51:31.022Z</time></trkpt><trkpt lat="44.21253" lon="10.8595955"><ele>539.0</ele><time>2026-03-28T10:51:32Z</time></trkpt><trkpt lat="44.2124476" lon="10.8597536"><ele>540.5</ele><time>2026-03-28T10:51:32.985Z</time></trkpt><trkpt lat="44.212349" lon="10.8598982"><ele>542.0</ele><time>2026-03-28T10:51:33.978Z</time></trkpt><trkpt lat="44.212216" lon="10.8600505"><ele>548.6666666666666</ele><time>2026-03-28T10:51:35.009Z</time></trkpt><trkpt lat="44.2120766" lon="10.8601716"><ele>555.3333333333334</ele><time>2026-03-28T10:51:35.993Z</time></trkpt><trkpt lat="44.2119346" lon="10.8602896"><ele>562.0</ele><time>2026-03-28T10:51:37.001Z</time></trkpt><trkpt lat="44.211802" lon="10.8603849"><ele>562.0</ele><time>2026-03-28T10:51:37.985Z</time></trkpt><trkpt lat="44.211663" lon="10.8604554"><ele>562.0</ele><time>2026-03-28T10:51:38.985Z</time></trkpt><trkpt lat="44.2115167" lon="10.8605159"><ele>562.0</ele><time>2026-03-28T10:51:39.99Z</time></trkpt><trkpt lat="44.2113675" lon="10.860574"><ele>559.6666666666667</ele><time>2026-03-28T10:51:40.994Z</time></trkpt><trkpt lat="44.2112205" lon="10.8606362"><ele>557.3333333333334</ele><time>2026-03-28T10:51:42Z</time></trkpt><trkpt lat="44.2110674" lon="10.8607059"><ele>555.0</ele><time>2026-03-28T10:51:42.984Z</time></trkpt><trkpt lat="44.2109034" lon="10.8607815"><ele>555.0</ele><time>2026-03-28T10:51:44.013Z</time></trkpt><trkpt lat="44.2107564" lon="10.8608483"><ele>555.0</ele><time>2026-03-28T10:51:44.976Z</time></trkpt><trkpt lat="44.2106117" lon="10.8609211"><ele>555.0</ele><time>2026-03-28T10:51:45.979Z</time></trkpt><trkpt lat="44.2104797" lon="10.8609989"><ele>558.5</ele><time>2026-03-28T10:51:46.994Z</time></trkpt><trkpt lat="44.2103712" lon="10.8610921"><ele>562.0</ele><time>2026-03-28T10:51:47.994Z</time></trkpt><trkpt lat="44.2102813" lon="10.8612055"><ele>565.5</ele><time>2026-03-28T10:51:48.995Z</time></trkpt><trkpt lat="44.2102271" lon="10.861336"><ele>569.0</ele><time>2026-03-28T10:51:49.997Z</time></trkpt><trkpt lat="44.2101676" lon="10.8614359"><ele>569.0</ele><time>2026-03-28T10:51:50.977Z</time></trkpt><trkpt lat="44.2101078" lon="10.8614777"><ele>569.0</ele><time>2026-03-28T10:51:51.976Z</time></trkpt><trkpt lat="44.2100364" lon="10.8614665"><ele>569.0</ele><time>2026-03-28T10:51:52.986Z</time></trkpt><trkpt lat="44.2099584" lon="10.8614148"><ele>569.0</ele><time>2026-03-28T10:51:53.989Z</time></trkpt><trkpt lat="44.2098602" lon="10.8613305"><ele>569.0</ele><time>2026-03-28T10:51:54.993Z</time></trkpt><trkpt lat="44.2097338" lon="10.8612178"><ele>568.3333333333333</ele><time>2026-03-28T10:51:55.992Z</time></trkpt><trkpt lat="44.2095767" lon="10.8610772"><ele>567.6666666666666</ele><time>2026-03-28T10:51:57.004Z</time></trkpt><trkpt lat="44.2094059" lon="10.8609533"><ele>567.0</ele><time>2026-03-28T10:51:57.997Z</time></trkpt><trkpt lat="44.2092249" lon="10.8608259"><ele>567.0</ele><time>2026-03-28T10:51:58.993Z</time></trkpt><trkpt lat="44.2090632" lon="10.8606975"><ele>567.0</ele><time>2026-03-28T10:52:00.025Z</time></trkpt><trkpt lat="44.2089305" lon="10.8605682"><ele>567.0</ele><time>2026-03-28T10:52:00.999Z</time></trkpt><trkpt lat="44.2088024" lon="10.86043"><ele>568.25</ele><time>2026-03-28T10:52:01.996Z</time></trkpt><trkpt lat="44.2086706" lon="10.860285"><ele>569.5</ele><time>2026-03-28T10:52:03.01Z</time></trkpt><trkpt lat="44.2085481" lon="10.8601635"><ele>570.75</ele><time>2026-03-28T10:52:04.001Z</time></trkpt><trkpt lat="44.2084458" lon="10.8600722"><ele>572.0</ele><time>2026-03-28T10:52:05.001Z</time></trkpt><trkpt lat="44.2083627" lon="10.8600121"><ele>572.0</ele><time>2026-03-28T10:52:05.985Z</time></trkpt><trkpt lat="44.2082288" lon="10.8600257"><ele>572.0</ele><time>2026-03-28T10:52:08.002Z</time></trkpt><trkpt lat="44.2081744" lon="10.8601022"><ele>572.0</ele><time>2026-03-28T10:52:08.991Z</time></trkpt><trkpt lat="44.2081584" lon="10.8602441"><ele>572.0</ele><time>2026-03-28T10:52:09.975Z</time></trkpt><trkpt lat="44.2081708" lon="10.8604405"><ele>572.0</ele><time>2026-03-28T10:52:10.996Z</time></trkpt><trkpt lat="44.2081716" lon="10.8606148"><ele>572.0</ele><time>2026-03-28T10:52:11.98Z</time></trkpt><trkpt lat="44.2081459" lon="10.8607881"><ele>572.0</ele><time>2026-03-28T10:52:13.009Z</time></trkpt><trkpt lat="44.208077" lon="10.860943"><ele>572.0</ele><time>2026-03-28T10:52:13.995Z</time></trkpt><trkpt lat="44.2079733" lon="10.8611176"><ele>571.6666666666666</ele><time>2026-03-28T10:52:14.987Z</time></trkpt><trkpt lat="44.207847" lon="10.8612968"><ele>571.3333333333334</ele><time>2026-03-28T10:52:16.003Z</time></trkpt><trkpt lat="44.2077371" lon="10.8614648"><ele>571.0</ele><time>2026-03-28T10:52:17.005Z</time></trkpt><trkpt lat="44.2076455" lon="10.8616423"><ele>571.0</ele><time>2026-03-28T10:52:18.017Z</time></trkpt><trkpt lat="44.2075767" lon="10.8617907"><ele>571.0</ele><time>2026-03-28T10:52:19.014Z</time></trkpt><trkpt lat="44.2075016" lon="10.861914"><ele>571.0</ele><time>2026-03-28T10:52:19.998Z</time></trkpt><trkpt lat="44.2074013" lon="10.8620066"><ele>571.0</ele><time>2026-03-28T10:52:20.99Z</time></trkpt><trkpt lat="44.2072828" lon="10.8620862"><ele>571.0</ele><time>2026-03-28T10:52:22Z</time></trkpt><trkpt lat="44.2071781" lon="10.8621596"><ele>571.0</ele><time>2026-03-28T10:52:22.986Z</time></trkpt><trkpt lat="44.2070996" lon="10.8622496"><ele>571.0</ele><time>2026-03-28T10:52:23.988Z</time></trkpt><trkpt lat="44.2070415" lon="10.8623892"><ele>571.0</ele><time>2026-03-28T10:52:24.99Z</time></trkpt><trkpt lat="44.2069974" lon="10.8625915"><ele>574.3333333333334</ele><time>2026-03-28T10:52:25.996Z</time></trkpt><trkpt lat="44.2069596" lon="10.8628215"><ele>577.6666666666666</ele><time>2026-03-28T10:52:26.999Z</time></trkpt><trkpt lat="44.2069136" lon="10.8630483"><ele>581.0</ele><time>2026-03-28T10:52:27.99Z</time></trkpt><trkpt lat="44.2068464" lon="10.863265"><ele>581.0</ele><time>2026-03-28T10:52:28.984Z</time></trkpt><trkpt lat="44.2067689" lon="10.8634416"><ele>581.0</ele><time>2026-03-28T10:52:29.988Z</time></trkpt><trkpt lat="44.2066828" lon="10.8635867"><ele>581.0</ele><time>2026-03-28T10:52:30.99Z</time></trkpt><trkpt lat="44.2065864" lon="10.8637107"><ele>581.0</ele><time>2026-03-28T10:52:31.989Z</time></trkpt><trkpt lat="44.2064735" lon="10.8638261"><ele>583.0</ele><time>2026-03-28T10:52:33.019Z</time></trkpt><trkpt lat="44.2063708" lon="10.8639196"><ele>585.0</ele><time>2026-03-28T10:52:33.989Z</time></trkpt><trkpt lat="44.2062703" lon="10.8639839"><ele>587.0</ele><time>2026-03-28T10:52:34.992Z</time></trkpt><trkpt lat="44.2061834" lon="10.8640072"><ele>589.0</ele><time>2026-03-28T10:52:35.988Z</time></trkpt><trkpt lat="44.2061025" lon="10.8639815"><ele>591.0</ele><time>2026-03-28T10:52:36.986Z</time></trkpt><trkpt lat="44.2060005" lon="10.8639133"><ele>591.0</ele><time>2026-03-28T10:52:37.995Z</time></trkpt><trkpt lat="44.2058989" lon="10.8637996"><ele>591.0</ele><time>2026-03-28T10:52:39Z</time></trkpt><trkpt lat="44.2058142" lon="10.8636578"><ele>591.0</ele><time>2026-03-28T10:52:39.982Z</time></trkpt><trkpt lat="44.2057146" lon="10.8635254"><ele>591.0</ele><time>2026-03-28T10:52:40.993Z</time></trkpt><trkpt lat="44.2056093" lon="10.8634442"><ele>590.75</ele><time>2026-03-28T10:52:41.99Z</time></trkpt><trkpt lat="44.2054893" lon="10.8634009"><ele>590.5</ele><time>2026-03-28T10:52:42.993Z</time></trkpt><trkpt lat="44.2053766" lon="10.8633997"><ele>590.25</ele><time>2026-03-28T10:52:43.99Z</time></trkpt><trkpt lat="44.2052602" lon="10.8634583"><ele>590.0</ele><time>2026-03-28T10:52:44.994Z</time></trkpt><trkpt lat="44.2051518" lon="10.8635882"><ele>590.0</ele><time>2026-03-28T10:52:46Z</time></trkpt><trkpt lat="44.2050385" lon="10.863743"><ele>590.0</ele><time>2026-03-28T10:52:46.973Z</time></trkpt><trkpt lat="44.2049262" lon="10.8639259"><ele>590.0</ele><time>2026-03-28T10:52:47.996Z</time></trkpt><trkpt lat="44.2048586" lon="10.8641892"><ele>590.3333333333333</ele><time>2026-03-28T10:52:48.987Z</time></trkpt><trkpt lat="44.2048178" lon="10.8643882"><ele>590.6666666666666</ele><time>2026-03-28T10:52:49.982Z</time></trkpt><trkpt lat="44.2047882" lon="10.8645863"><ele>591.0</ele><time>2026-03-28T10:52:50.977Z</time></trkpt><trkpt lat="44.2047648" lon="10.8648208"><ele>591.0</ele><time>2026-03-28T10:52:51.986Z</time></trkpt><trkpt lat="44.2047431" lon="10.8650759"><ele>591.0</ele><time>2026-03-28T10:52:53.018Z</time></trkpt><trkpt lat="44.2047315" lon="10.8652901"><ele>591.0</ele><time>2026-03-28T10:52:54.002Z</time></trkpt><trkpt lat="44.2047255" lon="10.8654704"><ele>592.5</ele><time>2026-03-28T10:52:54.996Z</time></trkpt><trkpt lat="44.2047058" lon="10.8656097"><ele>594.0</ele><time>2026-03-28T10:52:55.988Z</time></trkpt><trkpt lat="44.2046716" lon="10.8657005"><ele>595.5</ele><time>2026-03-28T10:52:56.977Z</time></trkpt><trkpt lat="44.2046169" lon="10.8657679"><ele>597.0</ele><time>2026-03-28T10:52:57.982Z</time></trkpt><trkpt lat="44.2045408" lon="10.8658002"><ele>598.5</ele><time>2026-03-28T10:52:58.988Z</time></trkpt><trkpt lat="44.2044319" lon="10.8657891"><ele>600.0</ele><time>2026-03-28T10:52:59.984Z</time></trkpt><trkpt lat="44.2042698" lon="10.8657287"><ele>600.0</ele><time>2026-03-28T10:53:00.993Z</time></trkpt><trkpt lat="44.2041048" lon="10.8656377"><ele>600.0</ele><time>2026-03-28T10:53:01.993Z</time></trkpt><trkpt lat="44.2039567" lon="10.8655556"><ele>600.0</ele><time>2026-03-28T10:53:02.983Z</time></trkpt><trkpt lat="44.203816" lon="10.8654803"><ele>599.5</ele><time>2026-03-28T10:53:03.999Z</time></trkpt><trkpt lat="44.2036879" lon="10.865401"><ele>599.0</ele><time>2026-03-28T10:53:04.998Z</time></trkpt><trkpt lat="44.2035785" lon="10.8653025"><ele>598.5</ele><time>2026-03-28T10:53:05.997Z</time></trkpt><trkpt lat="44.2034947" lon="10.8651949"><ele>598.0</ele><time>2026-03-28T10:53:06.992Z</time></trkpt><trkpt lat="44.2034335" lon="10.8650978"><ele>598.0</ele><time>2026-03-28T10:53:07.989Z</time></trkpt><trkpt lat="44.2033817" lon="10.8650382"><ele>598.0</ele><time>2026-03-28T10:53:08.979Z</time></trkpt><trkpt lat="44.2032512" lon="10.8650398"><ele>598.0</ele><time>2026-03-28T10:53:10.999Z</time></trkpt><trkpt lat="44.2031869" lon="10.8651368"><ele>598.0</ele><time>2026-03-28T10:53:11.993Z</time></trkpt><trkpt lat="44.203113" lon="10.8652841"><ele>598.0</ele><time>2026-03-28T10:53:12.997Z</time></trkpt><trkpt lat="44.2030373" lon="10.8654551"><ele>600.6666666666667</ele><time>2026-03-28T10:53:13.998Z</time></trkpt><trkpt lat="44.2029561" lon="10.865648"><ele>603.3333333333334</ele><time>2026-03-28T10:53:14.984Z</time></trkpt><trkpt lat="44.2028747" lon="10.865846"><ele>606.0</ele><time>2026-03-28T10:53:15.999Z</time></trkpt><trkpt lat="44.2027969" lon="10.8660111"><ele>608.0</ele><time>2026-03-28T10:53:16.993Z</time></trkpt><trkpt lat="44.2027131" lon="10.8661634"><ele>610.0</ele><time>2026-03-28T10:53:18.008Z</time></trkpt><trkpt lat="44.2026173" lon="10.8662924"><ele>612.0</ele><time>2026-03-28T10:53:18.992Z</time></trkpt><trkpt lat="44.2025105" lon="10.8664097"><ele>614.0</ele><time>2026-03-28T10:53:19.989Z</time></trkpt><trkpt lat="44.2023706" lon="10.8665625"><ele>614.3333333333333</ele><time>2026-03-28T10:53:21.317Z</time></trkpt><trkpt lat="44.2021377" lon="10.8666596"><ele>614.6666666666666</ele><time>2026-03-28T10:53:23.05Z</time></trkpt><trkpt lat="44.2020055" lon="10.8666665"><ele>615.0</ele><time>2026-03-28T10:53:24.051Z</time></trkpt><trkpt lat="44.2018588" lon="10.8666272"><ele>615.0</ele><time>2026-03-28T10:53:25.042Z</time></trkpt><trkpt lat="44.2017137" lon="10.8665683"><ele>615.0</ele><time>2026-03-28T10:53:26.042Z</time></trkpt><trkpt lat="44.2015678" lon="10.8665398"><ele>615.0</ele><time>2026-03-28T10:53:27.045Z</time></trkpt><trkpt lat="44.2014055" lon="10.8665602"><ele>615.3333333333334</ele><time>2026-03-28T10:53:28.053Z</time></trkpt><trkpt lat="44.2012328" lon="10.8666158"><ele>615.6666666666667</ele><time>2026-03-28T10:53:29.055Z</time></trkpt><trkpt lat="44.201079" lon="10.8666764"><ele>616.0</ele><time>2026-03-28T10:53:30.046Z</time></trkpt><trkpt lat="44.2009396" lon="10.8667366"><ele>617.0</ele><time>2026-03-28T10:53:31.05Z</time></trkpt><trkpt lat="44.2008178" lon="10.8668069"><ele>618.0</ele><time>2026-03-28T10:53:32.052Z</time></trkpt><trkpt lat="44.2007191" lon="10.8669085"><ele>619.0</ele><time>2026-03-28T10:53:33.055Z</time></trkpt><trkpt lat="44.2006408" lon="10.8670388"><ele>620.0</ele><time>2026-03-28T10:53:34.053Z</time></trkpt><trkpt lat="44.2005785" lon="10.8671793"><ele>620.0</ele><time>2026-03-28T10:53:35.045Z</time></trkpt><trkpt lat="44.2005105" lon="10.8673051"><ele>620.0</ele><time>2026-03-28T10:53:36.05Z</time></trkpt><trkpt lat="44.2004174" lon="10.867415"><ele>620.0</ele><time>2026-03-28T10:53:37.053Z</time></trkpt><trkpt lat="44.2003031" lon="10.8675008"><ele>620.0</ele><time>2026-03-28T10:53:38.06Z</time></trkpt><trkpt lat="44.2001898" lon="10.8675582"><ele>620.0</ele><time>2026-03-28T10:53:39.051Z</time></trkpt><trkpt lat="44.2000799" lon="10.8675842"><ele>620.0</ele><time>2026-03-28T10:53:40.048Z</time></trkpt><trkpt lat="44.199964" lon="10.8675721"><ele>620.0</ele><time>2026-03-28T10:53:41.05Z</time></trkpt><trkpt lat="44.1998471" lon="10.8675173"><ele>620.0</ele><time>2026-03-28T10:53:42.039Z</time></trkpt><trkpt lat="44.1997242" lon="10.8674089"><ele>623.5</ele><time>2026-03-28T10:53:43.049Z</time></trkpt><trkpt lat="44.19961" lon="10.8672685"><ele>627.0</ele><time>2026-03-28T10:53:44.05Z</time></trkpt><trkpt lat="44.1995041" lon="10.8671256"><ele>630.5</ele><time>2026-03-28T10:53:45.044Z</time></trkpt><trkpt lat="44.1993932" lon="10.8669882"><ele>634.0</ele><time>2026-03-28T10:53:46.064Z</time></trkpt><trkpt lat="44.1992804" lon="10.8668888"><ele>634.0</ele><time>2026-03-28T10:53:47.057Z</time></trkpt><trkpt lat="44.1991612" lon="10.8668333"><ele>634.0</ele><time>2026-03-28T10:53:48.041Z</time></trkpt><trkpt lat="44.1990385" lon="10.8668065"><ele>634.0</ele><time>2026-03-28T10:53:49.047Z</time></trkpt><trkpt lat="44.1989202" lon="10.8668057"><ele>634.0</ele><time>2026-03-28T10:53:50.051Z</time></trkpt><trkpt lat="44.1988014" lon="10.866825"><ele>634.25</ele><time>2026-03-28T10:53:51.051Z</time></trkpt><trkpt lat="44.1986811" lon="10.8668578"><ele>634.5</ele><time>2026-03-28T10:53:52.054Z</time></trkpt><trkpt lat="44.1985618" lon="10.8669146"><ele>634.75</ele><time>2026-03-28T10:53:53.038Z</time></trkpt><trkpt lat="44.1984364" lon="10.8669918"><ele>635.0</ele><time>2026-03-28T10:53:54.06Z</time></trkpt><trkpt lat="44.1983244" lon="10.8671161"><ele>635.0</ele><time>2026-03-28T10:53:55.049Z</time></trkpt><trkpt lat="44.1982212" lon="10.8672697"><ele>635.0</ele><time>2026-03-28T10:53:56.054Z</time></trkpt><trkpt lat="44.198136" lon="10.8674558"><ele>635.0</ele><time>2026-03-28T10:53:57.049Z</time></trkpt><trkpt lat="44.1980671" lon="10.8676843"><ele>634.3333333333333</ele><time>2026-03-28T10:53:58.072Z</time></trkpt><trkpt lat="44.1980118" lon="10.8679251"><ele>633.6666666666666</ele><time>2026-03-28T10:53:59.054Z</time></trkpt><trkpt lat="44.1979682" lon="10.8681543"><ele>633.0</ele><time>2026-03-28T10:54:00.036Z</time></trkpt><trkpt lat="44.1979253" lon="10.868372"><ele>636.5</ele><time>2026-03-28T10:54:01.053Z</time></trkpt><trkpt lat="44.1978748" lon="10.8685699"><ele>640.0</ele><time>2026-03-28T10:54:02.04Z</time></trkpt><trkpt lat="44.1978174" lon="10.8687592"><ele>643.5</ele><time>2026-03-28T10:54:03.046Z</time></trkpt><trkpt lat="44.1977577" lon="10.8689256"><ele>647.0</ele><time>2026-03-28T10:54:04.038Z</time></trkpt><trkpt lat="44.1977002" lon="10.8690812"><ele>647.0</ele><time>2026-03-28T10:54:05.048Z</time></trkpt><trkpt lat="44.1976603" lon="10.8692391"><ele>647.0</ele><time>2026-03-28T10:54:06.053Z</time></trkpt><trkpt lat="44.1976486" lon="10.8693903"><ele>647.0</ele><time>2026-03-28T10:54:07.038Z</time></trkpt><trkpt lat="44.1976566" lon="10.869526"><ele>647.0</ele><time>2026-03-28T10:54:08.056Z</time></trkpt><trkpt lat="44.1976543" lon="10.8696343"><ele>647.0</ele><time>2026-03-28T10:54:09.046Z</time></trkpt><trkpt lat="44.1976237" lon="10.8697173"><ele>650.0</ele><time>2026-03-28T10:54:10.034Z</time></trkpt><trkpt lat="44.1975634" lon="10.8697623"><ele>653.0</ele><time>2026-03-28T10:54:11.039Z</time></trkpt><trkpt lat="44.1974944" lon="10.8697404"><ele>656.0</ele><time>2026-03-28T10:54:12.061Z</time></trkpt><trkpt lat="44.1974336" lon="10.8696541"><ele>659.0</ele><time>2026-03-28T10:54:13.051Z</time></trkpt><trkpt lat="44.1973819" lon="10.8695154"><ele>662.0</ele><time>2026-03-28T10:54:14.048Z</time></trkpt><trkpt lat="44.1973245" lon="10.8693503"><ele>663.75</ele><time>2026-03-28T10:54:15.056Z</time></trkpt><trkpt lat="44.1972443" lon="10.8691858"><ele>665.5</ele><time>2026-03-28T10:54:16.074Z</time></trkpt><trkpt lat="44.1971499" lon="10.8690482"><ele>667.25</ele><time>2026-03-28T10:54:17.057Z</time></trkpt><trkpt lat="44.1970493" lon="10.8689289"><ele>669.0</ele><time>2026-03-28T10:54:18.041Z</time></trkpt><trkpt lat="44.1969494" lon="10.8688068"><ele>669.0</ele><time>2026-03-28T10:54:19.05Z</time></trkpt><trkpt lat="44.1968402" lon="10.8687013"><ele>669.0</ele><time>2026-03-28T10:54:20.045Z</time></trkpt><trkpt lat="44.196715" lon="10.8686294"><ele>669.0</ele><time>2026-03-28T10:54:21.06Z</time></trkpt><trkpt lat="44.1965855" lon="10.8685775"><ele>669.0</ele><time>2026-03-28T10:54:22.068Z</time></trkpt><trkpt lat="44.1964619" lon="10.8685292"><ele>669.75</ele><time>2026-03-28T10:54:23.035Z</time></trkpt><trkpt lat="44.1963288" lon="10.8684755"><ele>670.5</ele><time>2026-03-28T10:54:24.07Z</time></trkpt><trkpt lat="44.1962034" lon="10.8684288"><ele>671.25</ele><time>2026-03-28T10:54:25.045Z</time></trkpt><trkpt lat="44.1960714" lon="10.8683974"><ele>672.0</ele><time>2026-03-28T10:54:26.051Z</time></trkpt><trkpt lat="44.195941" lon="10.8683945"><ele>668.4000000000001</ele><time>2026-03-28T10:54:27.059Z</time></trkpt><trkpt lat="44.1958273" lon="10.8684046"><ele>664.8000000000001</ele><time>2026-03-28T10:54:28.032Z</time></trkpt><trkpt lat="44.1957254" lon="10.8684062"><ele>661.2</ele><time>2026-03-28T10:54:28.992Z</time></trkpt><trkpt lat="44.1956232" lon="10.8683799"><ele>657.6</ele><time>2026-03-28T10:54:29.975Z</time></trkpt><trkpt lat="44.1955201" lon="10.8683101"><ele>654.0</ele><time>2026-03-28T10:54:30.988Z</time></trkpt><trkpt lat="44.1954301" lon="10.8682216"><ele>652.3333333333334</ele><time>2026-03-28T10:54:31.991Z</time></trkpt><trkpt lat="44.1953582" lon="10.8681544"><ele>650.6666666666666</ele><time>2026-03-28T10:54:32.991Z</time></trkpt><trkpt lat="44.1952857" lon="10.8681298"><ele>649.0</ele><time>2026-03-28T10:54:33.996Z</time></trkpt><trkpt lat="44.195216" lon="10.8681545"><ele>647.3333333333333</ele><time>2026-03-28T10:54:34.995Z</time></trkpt><trkpt lat="44.1951742" lon="10.8682484"><ele>645.6666666666666</ele><time>2026-03-28T10:54:35.988Z</time></trkpt><trkpt lat="44.1951664" lon="10.8683714"><ele>644.0</ele><time>2026-03-28T10:54:36.991Z</time></trkpt><trkpt lat="44.1951897" lon="10.8685175"><ele>644.0</ele><time>2026-03-28T10:54:37.99Z</time></trkpt><trkpt lat="44.1952458" lon="10.8686878"><ele>644.0</ele><time>2026-03-28T10:54:39.006Z</time></trkpt><trkpt lat="44.1953575" lon="10.8689632"><ele>644.0</ele><time>2026-03-28T10:54:40.346Z</time></trkpt><trkpt lat="44.1953815" lon="10.8692265"><ele>644.5</ele><time>2026-03-28T10:54:42.048Z</time></trkpt><trkpt lat="44.1954218" lon="10.8694006"><ele>645.0</ele><time>2026-03-28T10:54:43.052Z</time></trkpt><trkpt lat="44.1954753" lon="10.8695671"><ele>645.5</ele><time>2026-03-28T10:54:44.04Z</time></trkpt><trkpt lat="44.1955098" lon="10.8697572"><ele>646.0</ele><time>2026-03-28T10:54:45.061Z</time></trkpt><trkpt lat="44.1955698" lon="10.8699351"><ele>648.0</ele><time>2026-03-28T10:54:46.041Z</time></trkpt><trkpt lat="44.195649" lon="10.8701181"><ele>650.0</ele><time>2026-03-28T10:54:47.05Z</time></trkpt><trkpt lat="44.1957331" lon="10.8702934"><ele>652.0</ele><time>2026-03-28T10:54:48.039Z</time></trkpt><trkpt lat="44.1958043" lon="10.8704608"><ele>654.0</ele><time>2026-03-28T10:54:49.034Z</time></trkpt><trkpt lat="44.1958488" lon="10.8706219"><ele>655.4000000000001</ele><time>2026-03-28T10:54:50.027Z</time></trkpt><trkpt lat="44.1958624" lon="10.8707738"><ele>656.8</ele><time>2026-03-28T10:54:51.029Z</time></trkpt><trkpt lat="44.195842" lon="10.8709093"><ele>658.2</ele><time>2026-03-28T10:54:52.038Z</time></trkpt><trkpt lat="44.1957833" lon="10.8710392"><ele>659.5999999999999</ele><time>2026-03-28T10:54:53.043Z</time></trkpt><trkpt lat="44.1956929" lon="10.8711606"><ele>661.0</ele><time>2026-03-28T10:54:54.038Z</time></trkpt><trkpt lat="44.1955957" lon="10.8712745"><ele>661.0</ele><time>2026-03-28T10:54:55.053Z</time></trkpt><trkpt lat="44.1955169" lon="10.871387"><ele>661.0</ele><time>2026-03-28T10:54:56.058Z</time></trkpt><trkpt lat="44.1954543" lon="10.8715138"><ele>661.0</ele><time>2026-03-28T10:54:57.062Z</time></trkpt><trkpt lat="44.1954054" lon="10.871663"><ele>661.0</ele><time>2026-03-28T10:54:58.064Z</time></trkpt><trkpt lat="44.1953708" lon="10.8718236"><ele>663.0</ele><time>2026-03-28T10:54:59.047Z</time></trkpt><trkpt lat="44.1953453" lon="10.8719981"><ele>665.0</ele><time>2026-03-28T10:55:00.036Z</time></trkpt><trkpt lat="44.1953363" lon="10.8721848"><ele>667.0</ele><time>2026-03-28T10:55:01.057Z</time></trkpt><trkpt lat="44.1953339" lon="10.8723654"><ele>669.0</ele><time>2026-03-28T10:55:02.058Z</time></trkpt><trkpt lat="44.1953181" lon="10.872538"><ele>671.0</ele><time>2026-03-28T10:55:03.043Z</time></trkpt><trkpt lat="44.1952736" lon="10.8726928"><ele>673.0</ele><time>2026-03-28T10:55:04.036Z</time></trkpt><trkpt lat="44.1952004" lon="10.8728306"><ele>675.0</ele><time>2026-03-28T10:55:05.058Z</time></trkpt><trkpt lat="44.1951081" lon="10.8729443"><ele>677.0</ele><time>2026-03-28T10:55:06.044Z</time></trkpt><trkpt lat="44.1950179" lon="10.8730571"><ele>677.0</ele><time>2026-03-28T10:55:07.065Z</time></trkpt><trkpt lat="44.1949483" lon="10.8731872"><ele>677.0</ele><time>2026-03-28T10:55:08.056Z</time></trkpt><trkpt lat="44.194905" lon="10.8733399"><ele>677.0</ele><time>2026-03-28T10:55:09.052Z</time></trkpt><trkpt lat="44.1948896" lon="10.8735026"><ele>677.0</ele><time>2026-03-28T10:55:10.049Z</time></trkpt><trkpt lat="44.1949066" lon="10.8736625"><ele>677.8</ele><time>2026-03-28T10:55:11.035Z</time></trkpt><trkpt lat="44.1949597" lon="10.8738174"><ele>678.6</ele><time>2026-03-28T10:55:12.055Z</time></trkpt><trkpt lat="44.1950324" lon="10.8739472"><ele>679.4</ele><time>2026-03-28T10:55:13.041Z</time></trkpt><trkpt lat="44.1950892" lon="10.8740685"><ele>680.1999999999999</ele><time>2026-03-28T10:55:14.048Z</time></trkpt><trkpt lat="44.1951115" lon="10.8741882"><ele>681.0</ele><time>2026-03-28T10:55:15.05Z</time></trkpt><trkpt lat="44.1950984" lon="10.8743104"><ele>683.25</ele><time>2026-03-28T10:55:16.056Z</time></trkpt><trkpt lat="44.1950472" lon="10.8744187"><ele>685.5</ele><time>2026-03-28T10:55:17.054Z</time></trkpt><trkpt lat="44.1949649" lon="10.874492"><ele>687.75</ele><time>2026-03-28T10:55:18.032Z</time></trkpt><trkpt lat="44.1948446" lon="10.8745268"><ele>690.0</ele><time>2026-03-28T10:55:19.064Z</time></trkpt><trkpt lat="44.1947079" lon="10.8745198"><ele>690.5</ele><time>2026-03-28T10:55:20.049Z</time></trkpt><trkpt lat="44.1945571" lon="10.8744908"><ele>691.0</ele><time>2026-03-28T10:55:21.077Z</time></trkpt><trkpt lat="44.1944193" lon="10.8744637"><ele>691.5</ele><time>2026-03-28T10:55:22.055Z</time></trkpt><trkpt lat="44.1942978" lon="10.8744713"><ele>692.0</ele><time>2026-03-28T10:55:23.049Z</time></trkpt><trkpt lat="44.1941936" lon="10.8745235"><ele>692.0</ele><time>2026-03-28T10:55:24.034Z</time></trkpt><trkpt lat="44.1940961" lon="10.8746269"><ele>692.0</ele><time>2026-03-28T10:55:25.043Z</time></trkpt><trkpt lat="44.1940118" lon="10.8747746"><ele>692.0</ele><time>2026-03-28T10:55:26.037Z</time></trkpt><trkpt lat="44.1939267" lon="10.8749435"><ele>692.0</ele><time>2026-03-28T10:55:27.052Z</time></trkpt><trkpt lat="44.1938423" lon="10.8751134"><ele>691.3333333333333</ele><time>2026-03-28T10:55:28.051Z</time></trkpt><trkpt lat="44.1937638" lon="10.8752951"><ele>690.6666666666666</ele><time>2026-03-28T10:55:29.048Z</time></trkpt><trkpt lat="44.193692" lon="10.8754848"><ele>690.0</ele><time>2026-03-28T10:55:30.053Z</time></trkpt><trkpt lat="44.1936182" lon="10.8756719"><ele>690.0</ele><time>2026-03-28T10:55:31.043Z</time></trkpt><trkpt lat="44.1935379" lon="10.8758525"><ele>690.0</ele><time>2026-03-28T10:55:32.04Z</time></trkpt><trkpt lat="44.1934573" lon="10.8760155"><ele>690.0</ele><time>2026-03-28T10:55:33.051Z</time></trkpt><trkpt lat="44.1933815" lon="10.8761601"><ele>690.0</ele><time>2026-03-28T10:55:34.06Z</time></trkpt><trkpt lat="44.1933111" lon="10.8762981"><ele>690.0</ele><time>2026-03-28T10:55:35.064Z</time></trkpt><trkpt lat="44.1932456" lon="10.8764366"><ele>690.0</ele><time>2026-03-28T10:55:36.056Z</time></trkpt><trkpt lat="44.1931833" lon="10.8765748"><ele>690.0</ele><time>2026-03-28T10:55:37.031Z</time></trkpt><trkpt lat="44.1931239" lon="10.8767284"><ele>690.0</ele><time>2026-03-28T10:55:38.053Z</time></trkpt><trkpt lat="44.1930774" lon="10.8768907"><ele>692.25</ele><time>2026-03-28T10:55:39.049Z</time></trkpt><trkpt lat="44.1930469" lon="10.8770665"><ele>694.5</ele><time>2026-03-28T10:55:40.053Z</time></trkpt><trkpt lat="44.1930205" lon="10.8772291"><ele>696.75</ele><time>2026-03-28T10:55:41.049Z</time></trkpt><trkpt lat="44.1929843" lon="10.87737"><ele>699.0</ele><time>2026-03-28T10:55:42.061Z</time></trkpt><trkpt lat="44.1929329" lon="10.877488"><ele>699.0</ele><time>2026-03-28T10:55:43.055Z</time></trkpt><trkpt lat="44.19286" lon="10.8775932"><ele>699.0</ele><time>2026-03-28T10:55:44.056Z</time></trkpt><trkpt lat="44.1927629" lon="10.87768"><ele>699.0</ele><time>2026-03-28T10:55:45.053Z</time></trkpt><trkpt lat="44.1926503" lon="10.8777542"><ele>699.0</ele><time>2026-03-28T10:55:46.036Z</time></trkpt><trkpt lat="44.1925423" lon="10.8778074"><ele>700.5</ele><time>2026-03-28T10:55:47.054Z</time></trkpt><trkpt lat="44.1924489" lon="10.8778241"><ele>702.0</ele><time>2026-03-28T10:55:48.059Z</time></trkpt><trkpt lat="44.1923707" lon="10.8778132"><ele>703.5</ele><time>2026-03-28T10:55:49.052Z</time></trkpt><trkpt lat="44.1923015" lon="10.8777806"><ele>705.0</ele><time>2026-03-28T10:55:50.03Z</time></trkpt><trkpt lat="44.1922302" lon="10.877723"><ele>706.5</ele><time>2026-03-28T10:55:51.05Z</time></trkpt><trkpt lat="44.1921525" lon="10.8776379"><ele>708.0</ele><time>2026-03-28T10:55:52.045Z</time></trkpt><trkpt lat="44.1920638" lon="10.8775437"><ele>708.0</ele><time>2026-03-28T10:55:53.059Z</time></trkpt><trkpt lat="44.1919765" lon="10.877464"><ele>708.0</ele><time>2026-03-28T10:55:53.985Z</time></trkpt><trkpt lat="44.1918724" lon="10.8774024"><ele>708.0</ele><time>2026-03-28T10:55:54.994Z</time></trkpt><trkpt lat="44.1917614" lon="10.8773796"><ele>708.0</ele><time>2026-03-28T10:55:55.98Z</time></trkpt><trkpt lat="44.191649" lon="10.8773991"><ele>708.0</ele><time>2026-03-28T10:55:56.98Z</time></trkpt><trkpt lat="44.1915196" lon="10.8774754"><ele>709.8</ele><time>2026-03-28T10:55:58.007Z</time></trkpt><trkpt lat="44.1914125" lon="10.8775643"><ele>711.5999999999999</ele><time>2026-03-28T10:55:59.009Z</time></trkpt><trkpt lat="44.191323" lon="10.8776108"><ele>713.4000000000001</ele><time>2026-03-28T10:55:59.999Z</time></trkpt><trkpt lat="44.1912213" lon="10.8775905"><ele>715.2</ele><time>2026-03-28T10:56:00.984Z</time></trkpt><trkpt lat="44.1911174" lon="10.8775221"><ele>717.0</ele><time>2026-03-28T10:56:01.983Z</time></trkpt><trkpt lat="44.1910015" lon="10.8774231"><ele>717.0</ele><time>2026-03-28T10:56:02.993Z</time></trkpt><trkpt lat="44.1908898" lon="10.8773439"><ele>717.0</ele><time>2026-03-28T10:56:03.991Z</time></trkpt><trkpt lat="44.1907628" lon="10.8772906"><ele>717.0</ele><time>2026-03-28T10:56:05.015Z</time></trkpt><trkpt lat="44.1906328" lon="10.8772697"><ele>717.0</ele><time>2026-03-28T10:56:05.978Z</time></trkpt><trkpt lat="44.190488" lon="10.877258"><ele>718.75</ele><time>2026-03-28T10:56:06.991Z</time></trkpt><trkpt lat="44.19036" lon="10.8772287"><ele>720.5</ele><time>2026-03-28T10:56:07.984Z</time></trkpt><trkpt lat="44.1902428" lon="10.877169"><ele>722.25</ele><time>2026-03-28T10:56:08.999Z</time></trkpt><trkpt lat="44.1901432" lon="10.8770763"><ele>724.0</ele><time>2026-03-28T10:56:09.997Z</time></trkpt><trkpt lat="44.1900674" lon="10.876953"><ele>724.0</ele><time>2026-03-28T10:56:10.975Z</time></trkpt><trkpt lat="44.190007" lon="10.8768045"><ele>724.0</ele><time>2026-03-28T10:56:11.985Z</time></trkpt><trkpt lat="44.1899557" lon="10.8766458"><ele>724.0</ele><time>2026-03-28T10:56:12.993Z</time></trkpt><trkpt lat="44.1898943" lon="10.8765053"><ele>724.0</ele><time>2026-03-28T10:56:13.984Z</time></trkpt><trkpt lat="44.1898128" lon="10.8764031"><ele>723.0</ele><time>2026-03-28T10:56:15.005Z</time></trkpt><trkpt lat="44.1897135" lon="10.8763567"><ele>722.0</ele><time>2026-03-28T10:56:15.995Z</time></trkpt><trkpt lat="44.1896007" lon="10.8763676"><ele>721.0</ele><time>2026-03-28T10:56:17.006Z</time></trkpt><trkpt lat="44.1894812" lon="10.8764286"><ele>720.0</ele><time>2026-03-28T10:56:17.998Z</time></trkpt><trkpt lat="44.1893647" lon="10.8765277"><ele>720.0</ele><time>2026-03-28T10:56:18.993Z</time></trkpt><trkpt lat="44.1892453" lon="10.8766406"><ele>720.0</ele><time>2026-03-28T10:56:19.996Z</time></trkpt><trkpt lat="44.1891171" lon="10.8767379"><ele>720.0</ele><time>2026-03-28T10:56:20.991Z</time></trkpt><trkpt lat="44.1889753" lon="10.8768079"><ele>720.0</ele><time>2026-03-28T10:56:21.984Z</time></trkpt><trkpt lat="44.1888352" lon="10.8768619"><ele>724.25</ele><time>2026-03-28T10:56:22.992Z</time></trkpt><trkpt lat="44.1886974" lon="10.8768923"><ele>728.5</ele><time>2026-03-28T10:56:23.999Z</time></trkpt><trkpt lat="44.188565" lon="10.8768912"><ele>732.75</ele><time>2026-03-28T10:56:24.995Z</time></trkpt><trkpt lat="44.1884295" lon="10.8768686"><ele>737.0</ele><time>2026-03-28T10:56:26.015Z</time></trkpt><trkpt lat="44.1883025" lon="10.8768246"><ele>737.0</ele><time>2026-03-28T10:56:26.998Z</time></trkpt><trkpt lat="44.1881814" lon="10.8767876"><ele>737.0</ele><time>2026-03-28T10:56:27.991Z</time></trkpt><trkpt lat="44.1880739" lon="10.8767878"><ele>737.0</ele><time>2026-03-28T10:56:28.989Z</time></trkpt><trkpt lat="44.1879663" lon="10.8768204"><ele>737.0</ele><time>2026-03-28T10:56:29.995Z</time></trkpt><trkpt lat="44.1878619" lon="10.8768819"><ele>736.75</ele><time>2026-03-28T10:56:30.993Z</time></trkpt><trkpt lat="44.1877586" lon="10.8769606"><ele>736.5</ele><time>2026-03-28T10:56:31.987Z</time></trkpt><trkpt lat="44.1876489" lon="10.877055"><ele>736.25</ele><time>2026-03-28T10:56:33.007Z</time></trkpt><trkpt lat="44.1875476" lon="10.8771585"><ele>736.0</ele><time>2026-03-28T10:56:33.991Z</time></trkpt><trkpt lat="44.1874562" lon="10.8772974"><ele>736.0</ele><time>2026-03-28T10:56:34.993Z</time></trkpt><trkpt lat="44.1873629" lon="10.877438"><ele>736.0</ele><time>2026-03-28T10:56:35.999Z</time></trkpt><trkpt lat="44.1872676" lon="10.8775438"><ele>736.0</ele><time>2026-03-28T10:56:36.981Z</time></trkpt><trkpt lat="44.1871573" lon="10.8776116"><ele>736.0</ele><time>2026-03-28T10:56:37.985Z</time></trkpt><trkpt lat="44.1870302" lon="10.8776368"><ele>736.0</ele><time>2026-03-28T10:56:38.995Z</time></trkpt><trkpt lat="44.1868843" lon="10.8776188"><ele>736.0</ele><time>2026-03-28T10:56:40.022Z</time></trkpt><trkpt lat="44.1867683" lon="10.8775827"><ele>736.0</ele><time>2026-03-28T10:56:40.977Z</time></trkpt><trkpt lat="44.1866564" lon="10.877546"><ele>736.0</ele><time>2026-03-28T10:56:41.992Z</time></trkpt><trkpt lat="44.1865555" lon="10.8775206"><ele>737.8</ele><time>2026-03-28T10:56:42.996Z</time></trkpt><trkpt lat="44.186472" lon="10.8775145"><ele>739.5999999999999</ele><time>2026-03-28T10:56:43.974Z</time></trkpt><trkpt lat="44.1863955" lon="10.877512"><ele>741.4</ele><time>2026-03-28T10:56:44.991Z</time></trkpt><trkpt lat="44.1863261" lon="10.8775015"><ele>743.2</ele><time>2026-03-28T10:56:46.004Z</time></trkpt><trkpt lat="44.1862202" lon="10.8772954"><ele>745.0</ele><time>2026-03-28T10:56:46.986Z</time></trkpt><trkpt lat="44.1860874" lon="10.8767569"><ele>745.0</ele><time>2026-03-28T10:56:48.006Z</time></trkpt><trkpt lat="44.1860167" lon="10.8765201"><ele>745.0</ele><time>2026-03-28T10:56:48.985Z</time></trkpt><trkpt lat="44.1859553" lon="10.8762464"><ele>745.0</ele><time>2026-03-28T10:56:50.011Z</time></trkpt><trkpt lat="44.1859159" lon="10.8759867"><ele>745.5</ele><time>2026-03-28T10:56:51.002Z</time></trkpt><trkpt lat="44.1858516" lon="10.8755688"><ele>746.0</ele><time>2026-03-28T10:56:51.99Z</time></trkpt><trkpt lat="44.1858515" lon="10.8753033"><ele>745.25</ele><time>2026-03-28T10:56:52.992Z</time></trkpt><trkpt lat="44.1858591" lon="10.8751032"><ele>744.5</ele><time>2026-03-28T10:56:53.989Z</time></trkpt><trkpt lat="44.1858546" lon="10.8749218"><ele>743.75</ele><time>2026-03-28T10:56:54.99Z</time></trkpt><trkpt lat="44.1858155" lon="10.8747846"><ele>743.0</ele><time>2026-03-28T10:56:55.987Z</time></trkpt><trkpt lat="44.1857548" lon="10.8746553"><ele>743.0</ele><time>2026-03-28T10:56:56.985Z</time></trkpt><trkpt lat="44.1857077" lon="10.8745237"><ele>743.0</ele><time>2026-03-28T10:56:58.002Z</time></trkpt><trkpt lat="44.1857096" lon="10.8743873"><ele>743.0</ele><time>2026-03-28T10:56:58.999Z</time></trkpt><trkpt lat="44.1857502" lon="10.8742394"><ele>743.0</ele><time>2026-03-28T10:57:00.033Z</time></trkpt><trkpt lat="44.1858091" lon="10.8740941"><ele>743.0</ele><time>2026-03-28T10:57:01.005Z</time></trkpt><trkpt lat="44.1859029" lon="10.873955"><ele>743.8</ele><time>2026-03-28T10:57:02.022Z</time></trkpt><trkpt lat="44.1860034" lon="10.8738375"><ele>744.5999999999999</ele><time>2026-03-28T10:57:02.998Z</time></trkpt><trkpt lat="44.1860843" lon="10.8737244"><ele>745.4000000000001</ele><time>2026-03-28T10:57:04.021Z</time></trkpt><trkpt lat="44.1861275" lon="10.8736135"><ele>746.2</ele><time>2026-03-28T10:57:04.985Z</time></trkpt><trkpt lat="44.1861123" lon="10.8735076"><ele>747.0</ele><time>2026-03-28T10:57:05.999Z</time></trkpt><trkpt lat="44.1860657" lon="10.8734403"><ele>747.0</ele><time>2026-03-28T10:57:06.992Z</time></trkpt><trkpt lat="44.1860003" lon="10.8734151"><ele>747.0</ele><time>2026-03-28T10:57:07.986Z</time></trkpt><trkpt lat="44.1859236" lon="10.8734323"><ele>747.0</ele><time>2026-03-28T10:57:09.001Z</time></trkpt><trkpt lat="44.1858543" lon="10.8735097"><ele>747.0</ele><time>2026-03-28T10:57:09.994Z</time></trkpt><trkpt lat="44.1858012" lon="10.8736301"><ele>747.0</ele><time>2026-03-28T10:57:10.984Z</time></trkpt><trkpt lat="44.1857612" lon="10.8737995"><ele>747.0</ele><time>2026-03-28T10:57:11.997Z</time></trkpt><trkpt lat="44.1857188" lon="10.8739681"><ele>747.0</ele><time>2026-03-28T10:57:12.995Z</time></trkpt><trkpt lat="44.185667" lon="10.87412"><ele>747.0</ele><time>2026-03-28T10:57:13.994Z</time></trkpt><trkpt lat="44.1855807" lon="10.874237"><ele>747.0</ele><time>2026-03-28T10:57:15.011Z</time></trkpt><trkpt lat="44.185456" lon="10.8743181"><ele>750.0</ele><time>2026-03-28T10:57:16Z</time></trkpt><trkpt lat="44.1853319" lon="10.8744011"><ele>753.0</ele><time>2026-03-28T10:57:16.996Z</time></trkpt><trkpt lat="44.185231" lon="10.8744877"><ele>756.0</ele><time>2026-03-28T10:57:17.992Z</time></trkpt><trkpt lat="44.1851683" lon="10.8746112"><ele>759.0</ele><time>2026-03-28T10:57:18.986Z</time></trkpt><trkpt lat="44.1851383" lon="10.8747569"><ele>759.0</ele><time>2026-03-28T10:57:19.995Z</time></trkpt><trkpt lat="44.1851573" lon="10.8749305"><ele>759.0</ele><time>2026-03-28T10:57:20.996Z</time></trkpt><trkpt lat="44.1852027" lon="10.8751435"><ele>759.0</ele><time>2026-03-28T10:57:22.008Z</time></trkpt><trkpt lat="44.185248" lon="10.8753625"><ele>759.0</ele><time>2026-03-28T10:57:22.984Z</time></trkpt><trkpt lat="44.1852941" lon="10.8755738"><ele>760.5</ele><time>2026-03-28T10:57:24.008Z</time></trkpt><trkpt lat="44.1853261" lon="10.8757613"><ele>762.0</ele><time>2026-03-28T10:57:24.994Z</time></trkpt><trkpt lat="44.1853554" lon="10.8759369"><ele>763.5</ele><time>2026-03-28T10:57:25.991Z</time></trkpt><trkpt lat="44.1853723" lon="10.8760999"><ele>765.0</ele><time>2026-03-28T10:57:26.991Z</time></trkpt><trkpt lat="44.1853627" lon="10.8762432"><ele>765.0</ele><time>2026-03-28T10:57:27.996Z</time></trkpt><trkpt lat="44.1853307" lon="10.8763783"><ele>765.0</ele><time>2026-03-28T10:57:28.985Z</time></trkpt><trkpt lat="44.1852761" lon="10.8765099"><ele>765.0</ele><time>2026-03-28T10:57:29.997Z</time></trkpt><trkpt lat="44.1852139" lon="10.8766278"><ele>765.0</ele><time>2026-03-28T10:57:31Z</time></trkpt><trkpt lat="44.1851597" lon="10.8767234"><ele>765.0</ele><time>2026-03-28T10:57:32.004Z</time></trkpt><trkpt lat="44.1851167" lon="10.8767995"><ele>765.0</ele><time>2026-03-28T10:57:32.978Z</time></trkpt><trkpt lat="44.1850389" lon="10.8768532"><ele>765.0</ele><time>2026-03-28T10:57:34.994Z</time></trkpt><trkpt lat="44.1849904" lon="10.8767768"><ele>765.0</ele><time>2026-03-28T10:57:36.991Z</time></trkpt><trkpt lat="44.1850295" lon="10.8765905"><ele>765.0</ele><time>2026-03-28T10:57:38.99Z</time></trkpt><trkpt lat="44.1850766" lon="10.8764583"><ele>765.0</ele><time>2026-03-28T10:57:39.997Z</time></trkpt><trkpt lat="44.1851126" lon="10.8763372"><ele>765.0</ele><time>2026-03-28T10:57:40.992Z</time></trkpt><trkpt lat="44.1851249" lon="10.8762153"><ele>765.0</ele><time>2026-03-28T10:57:41.986Z</time></trkpt><trkpt lat="44.1851132" lon="10.8760941"><ele>765.0</ele><time>2026-03-28T10:57:42.988Z</time></trkpt><trkpt lat="44.1850728" lon="10.8759737"><ele>765.0</ele><time>2026-03-28T10:57:43.991Z</time></trkpt><trkpt lat="44.1850148" lon="10.8758578"><ele>765.0</ele><time>2026-03-28T10:57:45.007Z</time></trkpt><trkpt lat="44.1849418" lon="10.8757482"><ele>765.2</ele><time>2026-03-28T10:57:45.991Z</time></trkpt><trkpt lat="44.1848666" lon="10.8756368"><ele>765.4</ele><time>2026-03-28T10:57:46.991Z</time></trkpt><trkpt lat="44.1847977" lon="10.8755415"><ele>765.5999999999999</ele><time>2026-03-28T10:57:47.993Z</time></trkpt><trkpt lat="44.1847336" lon="10.8754639"><ele>765.8</ele><time>2026-03-28T10:57:48.974Z</time></trkpt><trkpt lat="44.1846562" lon="10.8753989"><ele>766.0</ele><time>2026-03-28T10:57:50Z</time></trkpt><trkpt lat="44.184577" lon="10.8753474"><ele>767.5</ele><time>2026-03-28T10:57:50.991Z</time></trkpt><trkpt lat="44.1844898" lon="10.8753078"><ele>769.0</ele><time>2026-03-28T10:57:51.985Z</time></trkpt><trkpt lat="44.1843965" lon="10.8752795"><ele>770.5</ele><time>2026-03-28T10:57:52.993Z</time></trkpt><trkpt lat="44.1842478" lon="10.8753644"><ele>772.0</ele><time>2026-03-28T10:57:54.009Z</time></trkpt><trkpt lat="44.1841063" lon="10.8754011"><ele>772.0</ele><time>2026-03-28T10:57:54.99Z</time></trkpt><trkpt lat="44.1839977" lon="10.8753792"><ele>772.0</ele><time>2026-03-28T10:57:55.986Z</time></trkpt><trkpt lat="44.183916" lon="10.8753051"><ele>772.0</ele><time>2026-03-28T10:57:56.989Z</time></trkpt><trkpt lat="44.1837958" lon="10.8751723"><ele>772.0</ele><time>2026-03-28T10:57:58Z</time></trkpt><trkpt lat="44.1836539" lon="10.8749908"><ele>772.5</ele><time>2026-03-28T10:57:59.004Z</time></trkpt><trkpt lat="44.1835431" lon="10.8748563"><ele>773.0</ele><time>2026-03-28T10:57:59.995Z</time></trkpt><trkpt lat="44.1834368" lon="10.8747476"><ele>773.5</ele><time>2026-03-28T10:58:00.993Z</time></trkpt><trkpt lat="44.1833428" lon="10.8746785"><ele>774.0</ele><time>2026-03-28T10:58:01.99Z</time></trkpt><trkpt lat="44.1832522" lon="10.8746423"><ele>774.25</ele><time>2026-03-28T10:58:02.989Z</time></trkpt><trkpt lat="44.1831384" lon="10.8746361"><ele>774.5</ele><time>2026-03-28T10:58:04.011Z</time></trkpt><trkpt lat="44.1830132" lon="10.8746592"><ele>774.75</ele><time>2026-03-28T10:58:05.022Z</time></trkpt><trkpt lat="44.1828858" lon="10.874723"><ele>775.0</ele><time>2026-03-28T10:58:06Z</time></trkpt><trkpt lat="44.1827615" lon="10.8748185"><ele>775.0</ele><time>2026-03-28T10:58:06.99Z</time></trkpt><trkpt lat="44.1826441" lon="10.874911"><ele>775.0</ele><time>2026-03-28T10:58:08.014Z</time></trkpt><trkpt lat="44.1825472" lon="10.8749602"><ele>775.0</ele><time>2026-03-28T10:58:08.986Z</time></trkpt><trkpt lat="44.1824592" lon="10.8749706"><ele>775.0</ele><time>2026-03-28T10:58:09.997Z</time></trkpt><trkpt lat="44.18238" lon="10.8749508"><ele>775.0</ele><time>2026-03-28T10:58:10.988Z</time></trkpt><trkpt lat="44.1823067" lon="10.8749121"><ele>778.6</ele><time>2026-03-28T10:58:11.993Z</time></trkpt><trkpt lat="44.1822321" lon="10.8748586"><ele>782.2</ele><time>2026-03-28T10:58:12.989Z</time></trkpt><trkpt lat="44.1821647" lon="10.8747821"><ele>785.8</ele><time>2026-03-28T10:58:13.993Z</time></trkpt><trkpt lat="44.182115" lon="10.8746739"><ele>789.4</ele><time>2026-03-28T10:58:14.991Z</time></trkpt><trkpt lat="44.1820985" lon="10.8745352"><ele>793.0</ele><time>2026-03-28T10:58:16.005Z</time></trkpt><trkpt lat="44.1820906" lon="10.8743812"><ele>791.0</ele><time>2026-03-28T10:58:16.992Z</time></trkpt><trkpt lat="44.1820685" lon="10.8742563"><ele>789.0</ele><time>2026-03-28T10:58:18.013Z</time></trkpt><trkpt lat="44.1820076" lon="10.874153"><ele>787.0</ele><time>2026-03-28T10:58:19.012Z</time></trkpt><trkpt lat="44.181917" lon="10.8740936"><ele>785.0</ele><time>2026-03-28T10:58:19.994Z</time></trkpt><trkpt lat="44.1817948" lon="10.8740695"><ele>783.0</ele><time>2026-03-28T10:58:20.983Z</time></trkpt><trkpt lat="44.1816758" lon="10.8740308"><ele>783.0</ele><time>2026-03-28T10:58:21.988Z</time></trkpt><trkpt lat="44.1815622" lon="10.873964"><ele>783.0</ele><time>2026-03-28T10:58:22.995Z</time></trkpt><trkpt lat="44.1814493" lon="10.8738239"><ele>783.0</ele><time>2026-03-28T10:58:23.976Z</time></trkpt><trkpt lat="44.1813301" lon="10.8736858"><ele>783.0</ele><time>2026-03-28T10:58:24.991Z</time></trkpt><trkpt lat="44.1812194" lon="10.8735896"><ele>783.75</ele><time>2026-03-28T10:58:25.983Z</time></trkpt><trkpt lat="44.1810785" lon="10.873549"><ele>784.5</ele><time>2026-03-28T10:58:26.991Z</time></trkpt><trkpt lat="44.1809462" lon="10.8735717"><ele>785.25</ele><time>2026-03-28T10:58:27.999Z</time></trkpt><trkpt lat="44.1808064" lon="10.8736087"><ele>786.0</ele><time>2026-03-28T10:58:28.995Z</time></trkpt><trkpt lat="44.1806767" lon="10.87361"><ele>784.0</ele><time>2026-03-28T10:58:29.985Z</time></trkpt><trkpt lat="44.1805653" lon="10.8735723"><ele>782.0</ele><time>2026-03-28T10:58:30.99Z</time></trkpt><trkpt lat="44.1804679" lon="10.8734763"><ele>780.0</ele><time>2026-03-28T10:58:31.992Z</time></trkpt><trkpt lat="44.1803902" lon="10.8733275"><ele>778.0</ele><time>2026-03-28T10:58:32.997Z</time></trkpt><trkpt lat="44.1803106" lon="10.8731318"><ele>778.0</ele><time>2026-03-28T10:58:33.999Z</time></trkpt><trkpt lat="44.1802411" lon="10.8729568"><ele>778.0</ele><time>2026-03-28T10:58:34.986Z</time></trkpt><trkpt lat="44.1801621" lon="10.8728059"><ele>778.0</ele><time>2026-03-28T10:58:35.991Z</time></trkpt><trkpt lat="44.1800566" lon="10.8726887"><ele>778.0</ele><time>2026-03-28T10:58:36.983Z</time></trkpt><trkpt lat="44.1799465" lon="10.8726005"><ele>777.5999999999999</ele><time>2026-03-28T10:58:37.985Z</time></trkpt><trkpt lat="44.1798383" lon="10.8725365"><ele>777.1999999999999</ele><time>2026-03-28T10:58:38.988Z</time></trkpt><trkpt lat="44.1797431" lon="10.8724771"><ele>776.8</ele><time>2026-03-28T10:58:40.002Z</time></trkpt><trkpt lat="44.1796693" lon="10.872402"><ele>776.4</ele><time>2026-03-28T10:58:40.992Z</time></trkpt><trkpt lat="44.1796245" lon="10.8722938"><ele>776.0</ele><time>2026-03-28T10:58:41.99Z</time></trkpt><trkpt lat="44.1796098" lon="10.8721513"><ele>776.0</ele><time>2026-03-28T10:58:43.005Z</time></trkpt><trkpt lat="44.1796185" lon="10.8720034"><ele>776.0</ele><time>2026-03-28T10:58:43.994Z</time></trkpt><trkpt lat="44.1796114" lon="10.8718604"><ele>776.0</ele><time>2026-03-28T10:58:44.992Z</time></trkpt><trkpt lat="44.1795737" lon="10.8717413"><ele>776.0</ele><time>2026-03-28T10:58:45.99Z</time></trkpt><trkpt lat="44.179498" lon="10.8716388"><ele>776.0</ele><time>2026-03-28T10:58:46.986Z</time></trkpt><trkpt lat="44.1793814" lon="10.8715579"><ele>778.25</ele><time>2026-03-28T10:58:47.992Z</time></trkpt><trkpt lat="44.179267" lon="10.8714655"><ele>780.5</ele><time>2026-03-28T10:58:48.988Z</time></trkpt><trkpt lat="44.179167" lon="10.8713535"><ele>782.75</ele><time>2026-03-28T10:58:49.994Z</time></trkpt><trkpt lat="44.1790866" lon="10.8712163"><ele>785.0</ele><time>2026-03-28T10:58:50.997Z</time></trkpt><trkpt lat="44.1790348" lon="10.8710586"><ele>783.25</ele><time>2026-03-28T10:58:51.994Z</time></trkpt><trkpt lat="44.1790104" lon="10.8708898"><ele>781.5</ele><time>2026-03-28T10:58:52.991Z</time></trkpt><trkpt lat="44.1789792" lon="10.8707071"><ele>779.75</ele><time>2026-03-28T10:58:54.008Z</time></trkpt><trkpt lat="44.1789376" lon="10.870539"><ele>778.0</ele><time>2026-03-28T10:58:54.993Z</time></trkpt><trkpt lat="44.1788818" lon="10.8703782"><ele>778.0</ele><time>2026-03-28T10:58:55.998Z</time></trkpt><trkpt lat="44.1788092" lon="10.8702264"><ele>778.0</ele><time>2026-03-28T10:58:56.998Z</time></trkpt><trkpt lat="44.1787207" lon="10.8700952"><ele>778.0</ele><time>2026-03-28T10:58:57.988Z</time></trkpt><trkpt lat="44.1786021" lon="10.8699936"><ele>778.0</ele><time>2026-03-28T10:58:59.013Z</time></trkpt><trkpt lat="44.1784744" lon="10.8699124"><ele>779.3333333333333</ele><time>2026-03-28T10:58:59.991Z</time></trkpt><trkpt lat="44.1783332" lon="10.8698256"><ele>780.6666666666667</ele><time>2026-03-28T10:59:00.996Z</time></trkpt><trkpt lat="44.1781926" lon="10.8697324"><ele>782.0</ele><time>2026-03-28T10:59:01.999Z</time></trkpt><trkpt lat="44.1780595" lon="10.8696247"><ele>782.3333333333334</ele><time>2026-03-28T10:59:02.995Z</time></trkpt><trkpt lat="44.1779316" lon="10.8694899"><ele>782.6666666666667</ele><time>2026-03-28T10:59:03.995Z</time></trkpt><trkpt lat="44.1778194" lon="10.8693357"><ele>783.0</ele><time>2026-03-28T10:59:04.989Z</time></trkpt><trkpt lat="44.177725" lon="10.8691557"><ele>783.0</ele><time>2026-03-28T10:59:06.009Z</time></trkpt><trkpt lat="44.1776416" lon="10.868973"><ele>783.0</ele><time>2026-03-28T10:59:07Z</time></trkpt><trkpt lat="44.1775712" lon="10.8687984"><ele>783.0</ele><time>2026-03-28T10:59:07.98Z</time></trkpt><trkpt lat="44.1774952" lon="10.8686456"><ele>783.0</ele><time>2026-03-28T10:59:08.996Z</time></trkpt><trkpt lat="44.1774012" lon="10.8685175"><ele>784.25</ele><time>2026-03-28T10:59:09.999Z</time></trkpt><trkpt lat="44.1772985" lon="10.8684174"><ele>785.5</ele><time>2026-03-28T10:59:10.994Z</time></trkpt><trkpt lat="44.1771854" lon="10.8683189"><ele>786.75</ele><time>2026-03-28T10:59:11.999Z</time></trkpt><trkpt lat="44.1770718" lon="10.8682164"><ele>788.0</ele><time>2026-03-28T10:59:12.994Z</time></trkpt><trkpt lat="44.1769647" lon="10.8681062"><ele>788.0</ele><time>2026-03-28T10:59:13.994Z</time></trkpt><trkpt lat="44.1768622" lon="10.8679957"><ele>788.0</ele><time>2026-03-28T10:59:14.998Z</time></trkpt><trkpt lat="44.1767555" lon="10.8678854"><ele>788.0</ele><time>2026-03-28T10:59:15.99Z</time></trkpt><trkpt lat="44.1766445" lon="10.8677963"><ele>788.0</ele><time>2026-03-28T10:59:17.002Z</time></trkpt><trkpt lat="44.1765301" lon="10.8677341"><ele>786.75</ele><time>2026-03-28T10:59:18.001Z</time></trkpt><trkpt lat="44.1764083" lon="10.8676997"><ele>785.5</ele><time>2026-03-28T10:59:19.006Z</time></trkpt><trkpt lat="44.1762755" lon="10.86769"><ele>784.25</ele><time>2026-03-28T10:59:20.001Z</time></trkpt><trkpt lat="44.1761249" lon="10.8676968"><ele>783.0</ele><time>2026-03-28T10:59:20.99Z</time></trkpt><trkpt lat="44.1759724" lon="10.8677122"><ele>783.0</ele><time>2026-03-28T10:59:21.993Z</time></trkpt><trkpt lat="44.1758219" lon="10.8677254"><ele>783.0</ele><time>2026-03-28T10:59:23.002Z</time></trkpt><trkpt lat="44.1756808" lon="10.8677353"><ele>783.0</ele><time>2026-03-28T10:59:24.003Z</time></trkpt><trkpt lat="44.1755515" lon="10.8677417"><ele>783.0</ele><time>2026-03-28T10:59:24.986Z</time></trkpt><trkpt lat="44.175419" lon="10.8677538"><ele>784.4</ele><time>2026-03-28T10:59:26.008Z</time></trkpt><trkpt lat="44.175298" lon="10.8677679"><ele>785.8</ele><time>2026-03-28T10:59:27Z</time></trkpt><trkpt lat="44.1751861" lon="10.8677849"><ele>787.2</ele><time>2026-03-28T10:59:28.003Z</time></trkpt><trkpt lat="44.1750876" lon="10.8677978"><ele>788.6</ele><time>2026-03-28T10:59:28.998Z</time></trkpt><trkpt lat="44.1750009" lon="10.8677985"><ele>790.0</ele><time>2026-03-28T10:59:29.992Z</time></trkpt><trkpt lat="44.1749146" lon="10.8677785"><ele>788.6</ele><time>2026-03-28T10:59:31.005Z</time></trkpt><trkpt lat="44.1748376" lon="10.8677253"><ele>787.2</ele><time>2026-03-28T10:59:32.002Z</time></trkpt><trkpt lat="44.1747683" lon="10.8676319"><ele>785.8</ele><time>2026-03-28T10:59:33.006Z</time></trkpt><trkpt lat="44.1746861" lon="10.8675077"><ele>784.4</ele><time>2026-03-28T10:59:33.993Z</time></trkpt><trkpt lat="44.1745801" lon="10.8673678"><ele>783.0</ele><time>2026-03-28T10:59:34.995Z</time></trkpt><trkpt lat="44.1744588" lon="10.8672518"><ele>787.6666666666667</ele><time>2026-03-28T10:59:35.984Z</time></trkpt><trkpt lat="44.1743204" lon="10.8671863"><ele>792.3333333333334</ele><time>2026-03-28T10:59:36.973Z</time></trkpt><trkpt lat="44.1741693" lon="10.8671313"><ele>797.0</ele><time>2026-03-28T10:59:37.981Z</time></trkpt><trkpt lat="44.1740211" lon="10.8670837"><ele>797.25</ele><time>2026-03-28T10:59:39.015Z</time></trkpt><trkpt lat="44.1739145" lon="10.8670205"><ele>797.5</ele><time>2026-03-28T10:59:40.01Z</time></trkpt><trkpt lat="44.1738082" lon="10.8669463"><ele>797.75</ele><time>2026-03-28T10:59:40.992Z</time></trkpt><trkpt lat="44.173701" lon="10.8668691"><ele>798.0</ele><time>2026-03-28T10:59:41.988Z</time></trkpt><trkpt lat="44.1735983" lon="10.8668185"><ele>800.6666666666666</ele><time>2026-03-28T10:59:42.995Z</time></trkpt><trkpt lat="44.1734866" lon="10.8667754"><ele>803.3333333333333</ele><time>2026-03-28T10:59:44.015Z</time></trkpt><trkpt lat="44.1733821" lon="10.8667517"><ele>806.0</ele><time>2026-03-28T10:59:45.013Z</time></trkpt><trkpt lat="44.1732935" lon="10.8667493"><ele>808.6666666666666</ele><time>2026-03-28T10:59:46.004Z</time></trkpt><trkpt lat="44.1732224" lon="10.8667687"><ele>811.3333333333333</ele><time>2026-03-28T10:59:47.001Z</time></trkpt><trkpt lat="44.1731614" lon="10.8667952"><ele>814.0</ele><time>2026-03-28T10:59:48.006Z</time></trkpt><trkpt lat="44.1730623" lon="10.8668781"><ele>815.9999999999999</ele><time>2026-03-28T10:59:50.015Z</time></trkpt><trkpt lat="44.1729793" lon="10.8669652"><ele>818.0</ele><time>2026-03-28T10:59:51.999Z</time></trkpt><trkpt lat="44.1729178" lon="10.8670036"><ele>820.0</ele><time>2026-03-28T10:59:53.997Z</time></trkpt><trkpt lat="44.1728983" lon="10.8671289"><ele>822.0</ele><time>2026-03-28T11:01:42.979Z</time></trkpt><trkpt lat="44.1728705" lon="10.8672813"><ele>823.9999999999999</ele><time>2026-03-28T11:01:45.001Z</time></trkpt><trkpt lat="44.1728613" lon="10.8673701"><ele>826.0</ele><time>2026-03-28T11:01:46.003Z</time></trkpt><trkpt lat="44.172854" lon="10.8674716"><ele>826.0</ele><time>2026-03-28T11:01:47.002Z</time></trkpt><trkpt lat="44.1728451" lon="10.8675947"><ele>826.0</ele><time>2026-03-28T11:01:48Z</time></trkpt><trkpt lat="44.1728326" lon="10.8677339"><ele>826.0</ele><time>2026-03-28T11:01:49.003Z</time></trkpt><trkpt lat="44.1728174" lon="10.8678763"><ele>826.0</ele><time>2026-03-28T11:01:49.994Z</time></trkpt><trkpt lat="44.1727987" lon="10.8680388"><ele>826.0</ele><time>2026-03-28T11:01:50.983Z</time></trkpt><trkpt lat="44.172768" lon="10.8682654"><ele>824.3333333333333</ele><time>2026-03-28T11:01:52.305Z</time></trkpt><trkpt lat="44.1727554" lon="10.8685608"><ele>822.6666666666667</ele><time>2026-03-28T11:01:53.979Z</time></trkpt><trkpt lat="44.1727516" lon="10.8687462"><ele>821.0</ele><time>2026-03-28T11:01:55.005Z</time></trkpt><trkpt lat="44.1727663" lon="10.8689221"><ele>821.0</ele><time>2026-03-28T11:01:56.003Z</time></trkpt><trkpt lat="44.1728007" lon="10.869076"><ele>821.0</ele><time>2026-03-28T11:01:56.986Z</time></trkpt><trkpt lat="44.1728299" lon="10.8692172"><ele>821.0</ele><time>2026-03-28T11:01:57.986Z</time></trkpt><trkpt lat="44.1728337" lon="10.8693436"><ele>821.0</ele><time>2026-03-28T11:01:58.991Z</time></trkpt><trkpt lat="44.1728107" lon="10.8694447"><ele>821.0</ele><time>2026-03-28T11:01:59.985Z</time></trkpt><trkpt lat="44.1727679" lon="10.8695221"><ele>819.8</ele><time>2026-03-28T11:02:00.997Z</time></trkpt><trkpt lat="44.1727052" lon="10.8695667"><ele>818.5999999999999</ele><time>2026-03-28T11:02:02.005Z</time></trkpt><trkpt lat="44.1726145" lon="10.8695975"><ele>817.4</ele><time>2026-03-28T11:02:03.001Z</time></trkpt><trkpt lat="44.1725072" lon="10.8696223"><ele>816.2</ele><time>2026-03-28T11:02:04.009Z</time></trkpt><trkpt lat="44.1724118" lon="10.8696704"><ele>815.0</ele><time>2026-03-28T11:02:04.994Z</time></trkpt><trkpt lat="44.1723354" lon="10.8697499"><ele>816.75</ele><time>2026-03-28T11:02:05.995Z</time></trkpt><trkpt lat="44.1722908" lon="10.8698602"><ele>818.5</ele><time>2026-03-28T11:02:06.986Z</time></trkpt><trkpt lat="44.1722697" lon="10.8700011"><ele>820.25</ele><time>2026-03-28T11:02:07.991Z</time></trkpt><trkpt lat="44.1722704" lon="10.8701798"><ele>822.0</ele><time>2026-03-28T11:02:09.025Z</time></trkpt><trkpt lat="44.1722842" lon="10.8703655"><ele>822.0</ele><time>2026-03-28T11:02:09.989Z</time></trkpt><trkpt lat="44.1722989" lon="10.8705572"><ele>822.0</ele><time>2026-03-28T11:02:11.021Z</time></trkpt><trkpt lat="44.1723125" lon="10.8707169"><ele>822.0</ele><time>2026-03-28T11:02:11.975Z</time></trkpt><trkpt lat="44.1723173" lon="10.870845"><ele>822.0</ele><time>2026-03-28T11:02:13.003Z</time></trkpt><trkpt lat="44.1723087" lon="10.8709342"><ele>822.0</ele><time>2026-03-28T11:02:13.993Z</time></trkpt><trkpt lat="44.1722343" lon="10.8709986"><ele>822.0</ele><time>2026-03-28T11:02:15.991Z</time></trkpt><trkpt lat="44.1721049" lon="10.8709403"><ele>822.0</ele><time>2026-03-28T11:02:18.005Z</time></trkpt><trkpt lat="44.1720164" lon="10.8708933"><ele>822.0</ele><time>2026-03-28T11:02:18.994Z</time></trkpt><trkpt lat="44.171915" lon="10.8708535"><ele>822.0</ele><time>2026-03-28T11:02:20.01Z</time></trkpt><trkpt lat="44.1718124" lon="10.8708292"><ele>822.0</ele><time>2026-03-28T11:02:21.002Z</time></trkpt><trkpt lat="44.1717167" lon="10.8708221"><ele>822.0</ele><time>2026-03-28T11:02:22.002Z</time></trkpt><trkpt lat="44.1716332" lon="10.8708379"><ele>822.0</ele><time>2026-03-28T11:02:22.999Z</time></trkpt><trkpt lat="44.171543" lon="10.8708759"><ele>822.0</ele><time>2026-03-28T11:02:23.993Z</time></trkpt><trkpt lat="44.1714464" lon="10.8709398"><ele>822.0</ele><time>2026-03-28T11:02:24.999Z</time></trkpt><trkpt lat="44.1713561" lon="10.8710093"><ele>822.0</ele><time>2026-03-28T11:02:25.995Z</time></trkpt><trkpt lat="44.1712694" lon="10.8710766"><ele>820.6666666666666</ele><time>2026-03-28T11:02:26.997Z</time></trkpt><trkpt lat="44.171188" lon="10.8711491"><ele>819.3333333333333</ele><time>2026-03-28T11:02:27.987Z</time></trkpt><trkpt lat="44.1711113" lon="10.871217"><ele>818.0</ele><time>2026-03-28T11:02:28.997Z</time></trkpt><trkpt lat="44.1710415" lon="10.8712802"><ele>816.6666666666666</ele><time>2026-03-28T11:02:29.999Z</time></trkpt><trkpt lat="44.1709785" lon="10.8713387"><ele>815.3333333333333</ele><time>2026-03-28T11:02:30.994Z</time></trkpt><trkpt lat="44.1709223" lon="10.8713983"><ele>814.0</ele><time>2026-03-28T11:02:32.001Z</time></trkpt><trkpt lat="44.1708701" lon="10.8714582"><ele>813.9999999999999</ele><time>2026-03-28T11:02:33.001Z</time></trkpt><trkpt lat="44.1708144" lon="10.8715155"><ele>814.0</ele><time>2026-03-28T11:02:33.995Z</time></trkpt><trkpt lat="44.1707543" lon="10.871573"><ele>814.0</ele><time>2026-03-28T11:02:34.996Z</time></trkpt><trkpt lat="44.170687" lon="10.871638"><ele>814.0</ele><time>2026-03-28T11:02:35.999Z</time></trkpt><trkpt lat="44.170625" lon="10.8717137"><ele>813.9999999999999</ele><time>2026-03-28T11:02:37.005Z</time></trkpt><trkpt lat="44.1705739" lon="10.8717914"><ele>814.0</ele><time>2026-03-28T11:02:37.992Z</time></trkpt><trkpt lat="44.1705297" lon="10.8718847"><ele>814.9999999999999</ele><time>2026-03-28T11:02:39.011Z</time></trkpt><trkpt lat="44.1705073" lon="10.8719852"><ele>816.0</ele><time>2026-03-28T11:02:40.028Z</time></trkpt><trkpt lat="44.1705029" lon="10.8720882"><ele>817.0</ele><time>2026-03-28T11:02:41Z</time></trkpt><trkpt lat="44.1705166" lon="10.8721927"><ele>818.0</ele><time>2026-03-28T11:02:41.998Z</time></trkpt><trkpt lat="44.1705416" lon="10.8722956"><ele>818.9999999999999</ele><time>2026-03-28T11:02:42.989Z</time></trkpt><trkpt lat="44.1705764" lon="10.8723952"><ele>820.0</ele><time>2026-03-28T11:02:43.981Z</time></trkpt><trkpt lat="44.1706198" lon="10.8724896"><ele>819.9999999999999</ele><time>2026-03-28T11:02:44.996Z</time></trkpt><trkpt lat="44.1706615" lon="10.8725822"><ele>820.0</ele><time>2026-03-28T11:02:46.013Z</time></trkpt><trkpt lat="44.170694" lon="10.8726832"><ele>820.0</ele><time>2026-03-28T11:02:46.985Z</time></trkpt><trkpt lat="44.1707158" lon="10.8727872"><ele>820.0</ele><time>2026-03-28T11:02:47.98Z</time></trkpt><trkpt lat="44.1707289" lon="10.8728946"><ele>819.9999999999999</ele><time>2026-03-28T11:02:49.001Z</time></trkpt><trkpt lat="44.1707382" lon="10.8730047"><ele>820.0</ele><time>2026-03-28T11:02:49.998Z</time></trkpt><trkpt lat="44.1707457" lon="10.8731137"><ele>819.0</ele><time>2026-03-28T11:02:50.985Z</time></trkpt><trkpt lat="44.1707528" lon="10.8732245"><ele>818.0</ele><time>2026-03-28T11:02:52.007Z</time></trkpt><trkpt lat="44.1707479" lon="10.8733364"><ele>817.0</ele><time>2026-03-28T11:02:53.017Z</time></trkpt><trkpt lat="44.1707411" lon="10.8734246"><ele>816.0</ele><time>2026-03-28T11:02:53.986Z</time></trkpt><trkpt lat="44.1707065" lon="10.8735847"><ele>815.0</ele><time>2026-03-28T11:02:55.988Z</time></trkpt><trkpt lat="44.1706485" lon="10.8737094"><ele>815.0</ele><time>2026-03-28T11:02:58.03Z</time></trkpt><trkpt lat="44.170602" lon="10.8737775"><ele>815.0</ele><time>2026-03-28T11:03:00.005Z</time></trkpt><trkpt lat="44.1705423" lon="10.8738076"><ele>815.0</ele><time>2026-03-28T11:03:12.01Z</time></trkpt><trkpt lat="44.1704921" lon="10.8738629"><ele>815.0</ele><time>2026-03-28T11:03:22.988Z</time></trkpt><trkpt lat="44.1705268" lon="10.8737573"><ele>815.0</ele><time>2026-03-28T11:04:00.002Z</time></trkpt><trkpt lat="44.1704585" lon="10.8737763"><ele>815.0</ele><time>2026-03-28T11:05:11.016Z</time></trkpt><trkpt lat="44.1705101" lon="10.8737259"><ele>815.0</ele><time>2026-03-28T11:05:24.072Z</time></trkpt><trkpt lat="44.1705864" lon="10.8737222"><ele>815.0</ele><time>2026-03-28T11:07:49.03Z</time></trkpt><trkpt lat="44.1705945" lon="10.8736336"><ele>815.0</ele><time>2026-03-28T11:07:59.018Z</time></trkpt><trkpt lat="44.1706488" lon="10.8735752"><ele>815.0</ele><time>2026-03-28T11:08:09.023Z</time></trkpt><trkpt lat="44.1706345" lon="10.8734815"><ele>815.0</ele><time>2026-03-28T11:08:19.072Z</time></trkpt><trkpt lat="44.1706014" lon="10.8735821"><ele>815.0</ele><time>2026-03-28T11:12:43.083Z</time></trkpt><trkpt lat="44.1706599" lon="10.8735495"><ele>815.0</ele><time>2026-03-28T11:19:37.085Z</time></trkpt><trkpt lat="44.1706352" lon="10.8736314"><ele>815.0</ele><time>2026-03-28T11:20:07.062Z</time></trkpt><trkpt lat="44.1706682" lon="10.8735555"><ele>815.0000000000001</ele><time>2026-03-28T11:21:17.08Z</time></trkpt><trkpt lat="44.1706214" lon="10.8736559"><ele>815.0</ele><time>2026-03-28T11:23:06.096Z</time></trkpt><trkpt lat="44.1706747" lon="10.8735249"><ele>815.0</ele><time>2026-03-28T11:23:15.075Z</time></trkpt><trkpt lat="44.1707058" lon="10.8734399"><ele>815.0</ele><time>2026-03-28T11:23:26.072Z</time></trkpt><trkpt lat="44.1707296" lon="10.873352"><ele>815.0000000000001</ele><time>2026-03-28T11:23:29.075Z</time></trkpt><trkpt lat="44.1707272" lon="10.8732578"><ele>815.0</ele><time>2026-03-28T11:23:37.08Z</time></trkpt><trkpt lat="44.1707297" lon="10.8733485"><ele>815.0000000000001</ele><time>2026-03-28T11:24:25.095Z</time></trkpt><trkpt lat="44.1707723" lon="10.8734148"><ele>815.0</ele><time>2026-03-28T11:25:28.002Z</time></trkpt><trkpt lat="44.1707177" lon="10.8734604"><ele>815.0</ele><time>2026-03-28T11:26:04.101Z</time></trkpt><trkpt lat="44.1706256" lon="10.8735668"><ele>815.0</ele><time>2026-03-28T11:32:34.104Z</time></trkpt><trkpt lat="44.1706707" lon="10.8734844"><ele>815.0000000000001</ele><time>2026-03-28T11:43:18.091Z</time></trkpt><trkpt lat="44.1705903" lon="10.8734717"><ele>815.0</ele><time>2026-03-28T11:44:08.101Z</time></trkpt><trkpt lat="44.17061" lon="10.8735577"><ele>815.0</ele><time>2026-03-28T11:45:06.064Z</time></trkpt><trkpt lat="44.1705618" lon="10.8736143"><ele>815.0</ele><time>2026-03-28T11:46:25.109Z</time></trkpt><trkpt lat="44.1705132" lon="10.8736719"><ele>815.0</ele><time>2026-03-28T11:48:03.113Z</time></trkpt><trkpt lat="44.1704756" lon="10.8737504"><ele>815.0</ele><time>2026-03-28T11:48:29.122Z</time></trkpt><trkpt lat="44.1705074" lon="10.873673"><ele>815.0</ele><time>2026-03-28T11:50:04.11Z</time></trkpt><trkpt lat="44.1705773" lon="10.8736519"><ele>815.0</ele><time>2026-03-28T11:50:34.126Z</time></trkpt><trkpt lat="44.1705012" lon="10.8736933"><ele>815.0</ele><time>2026-03-28T11:50:49.104Z</time></trkpt><trkpt lat="44.1704976" lon="10.8737966"><ele>815.0</ele><time>2026-03-28T11:51:43.109Z</time></trkpt><trkpt lat="44.1704651" lon="10.8738785"><ele>815.0</ele><time>2026-03-28T11:52:16.121Z</time></trkpt><trkpt lat="44.1705051" lon="10.8738097"><ele>815.0</ele><time>2026-03-28T11:52:27.124Z</time></trkpt><trkpt lat="44.1705123" lon="10.8737191"><ele>815.0</ele><time>2026-03-28T11:52:51.107Z</time></trkpt><trkpt lat="44.1705736" lon="10.8736877"><ele>815.0</ele><time>2026-03-28T11:53:22.119Z</time></trkpt><trkpt lat="44.1705535" lon="10.8737718"><ele>815.0</ele><time>2026-03-28T11:55:17.11Z</time></trkpt><trkpt lat="44.1705245" lon="10.8736881"><ele>815.0</ele><time>2026-03-28T11:56:23.044Z</time></trkpt><trkpt lat="44.17057" lon="10.8735916"><ele>815.0</ele><time>2026-03-28T12:02:20.064Z</time></trkpt><trkpt lat="44.170545" lon="10.8735088"><ele>815.0</ele><time>2026-03-28T12:02:37.792Z</time></trkpt><trkpt lat="44.1706221" lon="10.8734949"><ele>815.0</ele><time>2026-03-28T12:04:11.992Z</time></trkpt><trkpt lat="44.1706874" lon="10.8734983"><ele>815.0</ele><time>2026-03-28T12:04:16.265Z</time></trkpt><trkpt lat="44.1706811" lon="10.8735939"><ele>815.0</ele><time>2026-03-28T12:04:29.756Z</time></trkpt><trkpt lat="44.1706274" lon="10.8736649"><ele>815.0</ele><time>2026-03-28T12:04:33.63Z</time></trkpt><trkpt lat="44.1705771" lon="10.8737386"><ele>815.0</ele><time>2026-03-28T12:04:40.071Z</time></trkpt><trkpt lat="44.1705576" lon="10.8736519"><ele>815.0</ele><time>2026-03-28T12:05:24.058Z</time></trkpt><trkpt lat="44.1704978" lon="10.8736894"><ele>815.0</ele><time>2026-03-28T12:05:51.06Z</time></trkpt><trkpt lat="44.1705657" lon="10.8736812"><ele>815.0</ele><time>2026-03-28T12:06:45.077Z</time></trkpt><trkpt lat="44.1705601" lon="10.8735818"><ele>815.0</ele><time>2026-03-28T12:06:50.122Z</time></trkpt><trkpt lat="44.1704995" lon="10.8736209"><ele>815.0</ele><time>2026-03-28T12:07:33.107Z</time></trkpt><trkpt lat="44.1705698" lon="10.8736408"><ele>815.0</ele><time>2026-03-28T12:09:07.093Z</time></trkpt><trkpt lat="44.1705531" lon="10.8737384"><ele>815.0</ele><time>2026-03-28T12:09:17.069Z</time></trkpt><trkpt lat="44.1705015" lon="10.8738265"><ele>815.0000000000001</ele><time>2026-03-28T12:11:28.07Z</time></trkpt><trkpt lat="44.1704988" lon="10.8739523"><ele>815.0</ele><time>2026-03-28T12:11:36.031Z</time></trkpt><trkpt lat="44.1704811" lon="10.8740394"><ele>815.0</ele><time>2026-03-28T12:11:37.037Z</time></trkpt><trkpt lat="44.1704529" lon="10.8741376"><ele>815.0</ele><time>2026-03-28T12:11:38.053Z</time></trkpt><trkpt lat="44.1703949" lon="10.8742293"><ele>815.0000000000001</ele><time>2026-03-28T12:11:39.046Z</time></trkpt><trkpt lat="44.1703453" lon="10.8743158"><ele>815.0</ele><time>2026-03-28T12:11:40.069Z</time></trkpt><trkpt lat="44.170271" lon="10.8744349"><ele>813.4</ele><time>2026-03-28T12:11:42.042Z</time></trkpt><trkpt lat="44.1702112" lon="10.8745496"><ele>811.8</ele><time>2026-03-28T12:11:44.048Z</time></trkpt><trkpt lat="44.1701349" lon="10.8746969"><ele>810.2</ele><time>2026-03-28T12:11:46.033Z</time></trkpt><trkpt lat="44.17009" lon="10.8747882"><ele>808.6</ele><time>2026-03-28T12:11:47.05Z</time></trkpt><trkpt lat="44.1700423" lon="10.8748836"><ele>807.0</ele><time>2026-03-28T12:11:48.051Z</time></trkpt><trkpt lat="44.1699931" lon="10.8749811"><ele>807.0</ele><time>2026-03-28T12:11:49.042Z</time></trkpt><trkpt lat="44.1699344" lon="10.8750809"><ele>807.0</ele><time>2026-03-28T12:11:50.054Z</time></trkpt><trkpt lat="44.169875" lon="10.8751809"><ele>807.0</ele><time>2026-03-28T12:11:51.053Z</time></trkpt><trkpt lat="44.169818" lon="10.8752763"><ele>807.0</ele><time>2026-03-28T12:11:52.052Z</time></trkpt><trkpt lat="44.1697638" lon="10.8753699"><ele>807.0</ele><time>2026-03-28T12:11:53.053Z</time></trkpt><trkpt lat="44.1697141" lon="10.8754539"><ele>807.0</ele><time>2026-03-28T12:11:54.029Z</time></trkpt><trkpt lat="44.1696645" lon="10.8755357"><ele>806.6</ele><time>2026-03-28T12:11:55.039Z</time></trkpt><trkpt lat="44.169612" lon="10.8756183"><ele>806.2</ele><time>2026-03-28T12:11:56.063Z</time></trkpt><trkpt lat="44.1695602" lon="10.8757017"><ele>805.8</ele><time>2026-03-28T12:11:57.049Z</time></trkpt><trkpt lat="44.1695009" lon="10.8757972"><ele>805.4</ele><time>2026-03-28T12:11:58.033Z</time></trkpt><trkpt lat="44.169433" lon="10.8759036"><ele>805.0</ele><time>2026-03-28T12:11:59.056Z</time></trkpt><trkpt lat="44.1693608" lon="10.8760168"><ele>803.4999999999999</ele><time>2026-03-28T12:12:00.039Z</time></trkpt><trkpt lat="44.1692888" lon="10.8761246"><ele>802.0</ele><time>2026-03-28T12:12:01.045Z</time></trkpt><trkpt lat="44.1692235" lon="10.8762193"><ele>800.5</ele><time>2026-03-28T12:12:02.041Z</time></trkpt><trkpt lat="44.1691616" lon="10.8763031"><ele>799.0</ele><time>2026-03-28T12:12:03.04Z</time></trkpt><trkpt lat="44.1691033" lon="10.8763815"><ele>797.4999999999999</ele><time>2026-03-28T12:12:04.045Z</time></trkpt><trkpt lat="44.169047" lon="10.876459"><ele>796.0</ele><time>2026-03-28T12:12:05.065Z</time></trkpt><trkpt lat="44.16899" lon="10.8765343"><ele>796.0</ele><time>2026-03-28T12:12:06.051Z</time></trkpt><trkpt lat="44.168929" lon="10.8766069"><ele>796.0</ele><time>2026-03-28T12:12:07.048Z</time></trkpt><trkpt lat="44.1688615" lon="10.8766833"><ele>796.0</ele><time>2026-03-28T12:12:08.064Z</time></trkpt><trkpt lat="44.1687911" lon="10.8767584"><ele>796.0</ele><time>2026-03-28T12:12:09.051Z</time></trkpt><trkpt lat="44.1687113" lon="10.8768355"><ele>796.0</ele><time>2026-03-28T12:12:10.037Z</time></trkpt><trkpt lat="44.1686251" lon="10.8769108"><ele>793.4</ele><time>2026-03-28T12:12:11.049Z</time></trkpt><trkpt lat="44.1685436" lon="10.8769773"><ele>790.8</ele><time>2026-03-28T12:12:12.046Z</time></trkpt><trkpt lat="44.1684655" lon="10.8770377"><ele>788.1999999999999</ele><time>2026-03-28T12:12:13.045Z</time></trkpt><trkpt lat="44.1683855" lon="10.8770969"><ele>785.5999999999999</ele><time>2026-03-28T12:12:14.041Z</time></trkpt><trkpt lat="44.1683005" lon="10.87716"><ele>783.0</ele><time>2026-03-28T12:12:15.053Z</time></trkpt><trkpt lat="44.1682112" lon="10.8772241"><ele>783.4</ele><time>2026-03-28T12:12:16.045Z</time></trkpt><trkpt lat="44.1681197" lon="10.8772908"><ele>783.8</ele><time>2026-03-28T12:12:17.055Z</time></trkpt><trkpt lat="44.1680391" lon="10.8773491"><ele>784.2</ele><time>2026-03-28T12:12:18.042Z</time></trkpt><trkpt lat="44.1679578" lon="10.8774108"><ele>784.6</ele><time>2026-03-28T12:12:19.055Z</time></trkpt><trkpt lat="44.1678805" lon="10.8774812"><ele>785.0</ele><time>2026-03-28T12:12:20.045Z</time></trkpt><trkpt lat="44.1678034" lon="10.8775782"><ele>783.2</ele><time>2026-03-28T12:12:21.039Z</time></trkpt><trkpt lat="44.1677328" lon="10.8776934"><ele>781.4</ele><time>2026-03-28T12:12:22.044Z</time></trkpt><trkpt lat="44.167666" lon="10.8778142"><ele>779.5999999999999</ele><time>2026-03-28T12:12:23.045Z</time></trkpt><trkpt lat="44.1676061" lon="10.8779286"><ele>777.8</ele><time>2026-03-28T12:12:24.045Z</time></trkpt><trkpt lat="44.1675498" lon="10.8780396"><ele>776.0</ele><time>2026-03-28T12:12:25.047Z</time></trkpt><trkpt lat="44.1674945" lon="10.8781442"><ele>776.0</ele><time>2026-03-28T12:12:26.029Z</time></trkpt><trkpt lat="44.1674341" lon="10.878252"><ele>776.0</ele><time>2026-03-28T12:12:27.049Z</time></trkpt><trkpt lat="44.1673716" lon="10.8783567"><ele>776.0</ele><time>2026-03-28T12:12:28.035Z</time></trkpt><trkpt lat="44.1673077" lon="10.8784579"><ele>776.0</ele><time>2026-03-28T12:12:29.047Z</time></trkpt><trkpt lat="44.1672453" lon="10.8785416"><ele>776.0</ele><time>2026-03-28T12:12:30.038Z</time></trkpt><trkpt lat="44.167181" lon="10.8785992"><ele>773.6666666666667</ele><time>2026-03-28T12:12:31.043Z</time></trkpt><trkpt lat="44.1671067" lon="10.8786396"><ele>771.3333333333334</ele><time>2026-03-28T12:12:32.04Z</time></trkpt><trkpt lat="44.1670288" lon="10.878657"><ele>769.0</ele><time>2026-03-28T12:12:33.045Z</time></trkpt><trkpt lat="44.1669519" lon="10.8786584"><ele>766.6666666666667</ele><time>2026-03-28T12:12:34.04Z</time></trkpt><trkpt lat="44.1668766" lon="10.8786486"><ele>764.3333333333334</ele><time>2026-03-28T12:12:35.051Z</time></trkpt><trkpt lat="44.1668099" lon="10.8786286"><ele>762.0</ele><time>2026-03-28T12:12:36.045Z</time></trkpt><trkpt lat="44.166714" lon="10.8786045"><ele>762.0</ele><time>2026-03-28T12:12:38.048Z</time></trkpt><trkpt lat="44.1666657" lon="10.8786977"><ele>762.0</ele><time>2026-03-28T12:12:40.039Z</time></trkpt><trkpt lat="44.1667382" lon="10.8788666"><ele>762.0</ele><time>2026-03-28T12:12:42.04Z</time></trkpt><trkpt lat="44.1668274" lon="10.8789546"><ele>762.0</ele><time>2026-03-28T12:12:43.046Z</time></trkpt><trkpt lat="44.166943" lon="10.8789954"><ele>762.0</ele><time>2026-03-28T12:12:44.038Z</time></trkpt><trkpt lat="44.1670526" lon="10.8790195"><ele>762.0</ele><time>2026-03-28T12:12:45.053Z</time></trkpt><trkpt lat="44.1671467" lon="10.8790372"><ele>762.0</ele><time>2026-03-28T12:12:46.043Z</time></trkpt><trkpt lat="44.1672317" lon="10.8790545"><ele>762.0</ele><time>2026-03-28T12:12:47.043Z</time></trkpt><trkpt lat="44.1673061" lon="10.8790815"><ele>762.0</ele><time>2026-03-28T12:12:48.052Z</time></trkpt><trkpt lat="44.1673723" lon="10.8791228"><ele>762.0</ele><time>2026-03-28T12:12:49.041Z</time></trkpt><trkpt lat="44.167444" lon="10.8791724"><ele>762.1428571428571</ele><time>2026-03-28T12:12:50.061Z</time></trkpt><trkpt lat="44.1675149" lon="10.8792225"><ele>762.2857142857143</ele><time>2026-03-28T12:12:51.056Z</time></trkpt><trkpt lat="44.1675818" lon="10.8792751"><ele>762.4285714285714</ele><time>2026-03-28T12:12:52.051Z</time></trkpt><trkpt lat="44.1676382" lon="10.8793269"><ele>762.5714285714286</ele><time>2026-03-28T12:12:53.056Z</time></trkpt><trkpt lat="44.1676905" lon="10.8793844"><ele>762.7142857142858</ele><time>2026-03-28T12:12:54.048Z</time></trkpt><trkpt lat="44.1677501" lon="10.8794448"><ele>762.8571428571429</ele><time>2026-03-28T12:12:55.064Z</time></trkpt><trkpt lat="44.1677977" lon="10.8795159"><ele>763.0</ele><time>2026-03-28T12:12:56.047Z</time></trkpt><trkpt lat="44.1678387" lon="10.8795997"><ele>761.5</ele><time>2026-03-28T12:12:57.074Z</time></trkpt><trkpt lat="44.1678859" lon="10.8796776"><ele>760.0</ele><time>2026-03-28T12:12:58.058Z</time></trkpt><trkpt lat="44.1679369" lon="10.8797408"><ele>758.5</ele><time>2026-03-28T12:12:59.042Z</time></trkpt><trkpt lat="44.1679967" lon="10.8797878"><ele>757.0</ele><time>2026-03-28T12:13:00.036Z</time></trkpt><trkpt lat="44.1680697" lon="10.8798165"><ele>755.5</ele><time>2026-03-28T12:13:01.052Z</time></trkpt><trkpt lat="44.1681517" lon="10.8798369"><ele>754.0</ele><time>2026-03-28T12:13:02.039Z</time></trkpt><trkpt lat="44.1682459" lon="10.8798439"><ele>754.0</ele><time>2026-03-28T12:13:03.041Z</time></trkpt><trkpt lat="44.1683493" lon="10.8798481"><ele>754.0</ele><time>2026-03-28T12:13:04.054Z</time></trkpt><trkpt lat="44.1684559" lon="10.8798521"><ele>754.0</ele><time>2026-03-28T12:13:05.05Z</time></trkpt><trkpt lat="44.1685653" lon="10.8798611"><ele>754.0</ele><time>2026-03-28T12:13:06.054Z</time></trkpt><trkpt lat="44.1686626" lon="10.8798798"><ele>754.0</ele><time>2026-03-28T12:13:07.053Z</time></trkpt><trkpt lat="44.1687507" lon="10.8799067"><ele>754.0</ele><time>2026-03-28T12:13:08.038Z</time></trkpt><trkpt lat="44.168834" lon="10.8799427"><ele>754.0</ele><time>2026-03-28T12:13:09.044Z</time></trkpt><trkpt lat="44.1689118" lon="10.8799904"><ele>754.0</ele><time>2026-03-28T12:13:10.055Z</time></trkpt><trkpt lat="44.1689926" lon="10.8800487"><ele>754.0</ele><time>2026-03-28T12:13:11.042Z</time></trkpt><trkpt lat="44.1690761" lon="10.8801218"><ele>754.0</ele><time>2026-03-28T12:13:12.057Z</time></trkpt><trkpt lat="44.1691565" lon="10.8802078"><ele>751.4000000000001</ele><time>2026-03-28T12:13:13.033Z</time></trkpt><trkpt lat="44.1692368" lon="10.8803204"><ele>748.8</ele><time>2026-03-28T12:13:14.059Z</time></trkpt><trkpt lat="44.1692905" lon="10.8804535"><ele>746.2</ele><time>2026-03-28T12:13:15.036Z</time></trkpt><trkpt lat="44.1693252" lon="10.880596"><ele>743.5999999999999</ele><time>2026-03-28T12:13:16.035Z</time></trkpt><trkpt lat="44.1693315" lon="10.8807394"><ele>741.0</ele><time>2026-03-28T12:13:17.034Z</time></trkpt><trkpt lat="44.1693257" lon="10.8809143"><ele>739.1999999999999</ele><time>2026-03-28T12:13:18.062Z</time></trkpt><trkpt lat="44.1692888" lon="10.8810749"><ele>737.4</ele><time>2026-03-28T12:13:19.058Z</time></trkpt><trkpt lat="44.1692661" lon="10.881217"><ele>735.6</ele><time>2026-03-28T12:13:20.051Z</time></trkpt><trkpt lat="44.1692514" lon="10.8813661"><ele>733.8</ele><time>2026-03-28T12:13:21.052Z</time></trkpt><trkpt lat="44.1692619" lon="10.8814999"><ele>732.0</ele><time>2026-03-28T12:13:22.045Z</time></trkpt><trkpt lat="44.1692974" lon="10.8816312"><ele>732.0</ele><time>2026-03-28T12:13:23.059Z</time></trkpt><trkpt lat="44.1693536" lon="10.8817302"><ele>732.0</ele><time>2026-03-28T12:13:24.051Z</time></trkpt><trkpt lat="44.1694438" lon="10.8818037"><ele>732.0</ele><time>2026-03-28T12:13:25.05Z</time></trkpt><trkpt lat="44.1695388" lon="10.8818801"><ele>732.0</ele><time>2026-03-28T12:13:26.044Z</time></trkpt><trkpt lat="44.169627" lon="10.8819633"><ele>732.0</ele><time>2026-03-28T12:13:27.037Z</time></trkpt><trkpt lat="44.1697063" lon="10.8820589"><ele>732.0</ele><time>2026-03-28T12:13:28.057Z</time></trkpt><trkpt lat="44.1697799" lon="10.8821529"><ele>732.0</ele><time>2026-03-28T12:13:29.064Z</time></trkpt><trkpt lat="44.1698345" lon="10.8822576"><ele>732.0</ele><time>2026-03-28T12:13:30.044Z</time></trkpt><trkpt lat="44.1698765" lon="10.882387"><ele>732.0</ele><time>2026-03-28T12:13:31.052Z</time></trkpt><trkpt lat="44.1699056" lon="10.8825238"><ele>732.0</ele><time>2026-03-28T12:13:32.046Z</time></trkpt><trkpt lat="44.1699378" lon="10.882662"><ele>730.3333333333334</ele><time>2026-03-28T12:13:33.059Z</time></trkpt><trkpt lat="44.1699703" lon="10.8827883"><ele>728.6666666666666</ele><time>2026-03-28T12:13:34.048Z</time></trkpt><trkpt lat="44.1700051" lon="10.8829043"><ele>727.0</ele><time>2026-03-28T12:13:35.052Z</time></trkpt><trkpt lat="44.1700424" lon="10.8830067"><ele>725.3333333333333</ele><time>2026-03-28T12:13:36.042Z</time></trkpt><trkpt lat="44.1700868" lon="10.8831053"><ele>723.6666666666666</ele><time>2026-03-28T12:13:37.049Z</time></trkpt><trkpt lat="44.1701388" lon="10.8831849"><ele>722.0</ele><time>2026-03-28T12:13:38.054Z</time></trkpt><trkpt lat="44.1702076" lon="10.8832671"><ele>722.0</ele><time>2026-03-28T12:13:39.048Z</time></trkpt><trkpt lat="44.1702869" lon="10.8833452"><ele>722.0</ele><time>2026-03-28T12:13:40.048Z</time></trkpt><trkpt lat="44.1703856" lon="10.8833731"><ele>722.0</ele><time>2026-03-28T12:13:41.049Z</time></trkpt><trkpt lat="44.1704852" lon="10.8833489"><ele>722.0</ele><time>2026-03-28T12:13:42.03Z</time></trkpt><trkpt lat="44.1705906" lon="10.8832946"><ele>722.0</ele><time>2026-03-28T12:13:43.056Z</time></trkpt><trkpt lat="44.170694" lon="10.8832073"><ele>720.25</ele><time>2026-03-28T12:13:44.05Z</time></trkpt><trkpt lat="44.170778" lon="10.8830941"><ele>718.5</ele><time>2026-03-28T12:13:45.051Z</time></trkpt><trkpt lat="44.1708651" lon="10.8829645"><ele>716.75</ele><time>2026-03-28T12:13:46.055Z</time></trkpt><trkpt lat="44.1709462" lon="10.8828499"><ele>715.0</ele><time>2026-03-28T12:13:47.05Z</time></trkpt><trkpt lat="44.1710295" lon="10.8827523"><ele>715.0</ele><time>2026-03-28T12:13:48.041Z</time></trkpt><trkpt lat="44.1711172" lon="10.8826735"><ele>715.0</ele><time>2026-03-28T12:13:49.064Z</time></trkpt><trkpt lat="44.1712006" lon="10.882631"><ele>715.0</ele><time>2026-03-28T12:13:50.07Z</time></trkpt><trkpt lat="44.1712909" lon="10.8826057"><ele>715.0</ele><time>2026-03-28T12:13:51.044Z</time></trkpt><trkpt lat="44.1713851" lon="10.8825837"><ele>715.0</ele><time>2026-03-28T12:13:52.052Z</time></trkpt><trkpt lat="44.171473" lon="10.8825625"><ele>715.3333333333334</ele><time>2026-03-28T12:13:53.053Z</time></trkpt><trkpt lat="44.1715574" lon="10.8825455"><ele>715.6666666666667</ele><time>2026-03-28T12:13:54.045Z</time></trkpt><trkpt lat="44.1716428" lon="10.8825372"><ele>716.0</ele><time>2026-03-28T12:13:55.025Z</time></trkpt><trkpt lat="44.1717206" lon="10.8825366"><ele>716.3333333333334</ele><time>2026-03-28T12:13:56.045Z</time></trkpt><trkpt lat="44.1717848" lon="10.8825418"><ele>716.6666666666666</ele><time>2026-03-28T12:13:57.04Z</time></trkpt><trkpt lat="44.1718477" lon="10.8825546"><ele>717.0</ele><time>2026-03-28T12:13:58.034Z</time></trkpt><trkpt lat="44.171952" lon="10.8825866"><ele>715.0</ele><time>2026-03-28T12:14:00.036Z</time></trkpt><trkpt lat="44.171954" lon="10.8826828"><ele>713.0</ele><time>2026-03-28T12:14:03.044Z</time></trkpt><trkpt lat="44.1718153" lon="10.8827423"><ele>711.0</ele><time>2026-03-28T12:14:05.045Z</time></trkpt><trkpt lat="44.1717322" lon="10.8827737"><ele>709.0</ele><time>2026-03-28T12:14:06.046Z</time></trkpt><trkpt lat="44.1716478" lon="10.8828134"><ele>707.0</ele><time>2026-03-28T12:14:07.042Z</time></trkpt><trkpt lat="44.1715663" lon="10.8828822"><ele>708.6</ele><time>2026-03-28T12:14:08.046Z</time></trkpt><trkpt lat="44.1714953" lon="10.8829746"><ele>710.2</ele><time>2026-03-28T12:14:09.051Z</time></trkpt><trkpt lat="44.1714311" lon="10.8830817"><ele>711.8</ele><time>2026-03-28T12:14:10.059Z</time></trkpt><trkpt lat="44.1713652" lon="10.8831815"><ele>713.4</ele><time>2026-03-28T12:14:11.047Z</time></trkpt><trkpt lat="44.1712936" lon="10.8832803"><ele>715.0</ele><time>2026-03-28T12:14:12.041Z</time></trkpt><trkpt lat="44.1712141" lon="10.883383"><ele>712.6</ele><time>2026-03-28T12:14:13.055Z</time></trkpt><trkpt lat="44.1711344" lon="10.8834785"><ele>710.2</ele><time>2026-03-28T12:14:14.053Z</time></trkpt><trkpt lat="44.1710553" lon="10.8835668"><ele>707.8</ele><time>2026-03-28T12:14:15.034Z</time></trkpt><trkpt lat="44.170974" lon="10.8836588"><ele>705.4</ele><time>2026-03-28T12:14:16.033Z</time></trkpt><trkpt lat="44.1708939" lon="10.8837505"><ele>703.0</ele><time>2026-03-28T12:14:17.052Z</time></trkpt><trkpt lat="44.1708125" lon="10.8838436"><ele>703.0</ele><time>2026-03-28T12:14:18.045Z</time></trkpt><trkpt lat="44.1707274" lon="10.8839394"><ele>703.0</ele><time>2026-03-28T12:14:19.053Z</time></trkpt><trkpt lat="44.170639" lon="10.8840394"><ele>703.0</ele><time>2026-03-28T12:14:20.053Z</time></trkpt><trkpt lat="44.1705471" lon="10.8841396"><ele>703.0</ele><time>2026-03-28T12:14:21.049Z</time></trkpt><trkpt lat="44.1704545" lon="10.884245"><ele>701.5999999999999</ele><time>2026-03-28T12:14:22.046Z</time></trkpt><trkpt lat="44.1703644" lon="10.88436"><ele>700.1999999999999</ele><time>2026-03-28T12:14:23.033Z</time></trkpt><trkpt lat="44.1702889" lon="10.8844779"><ele>698.8</ele><time>2026-03-28T12:14:24.047Z</time></trkpt><trkpt lat="44.1702251" lon="10.8845946"><ele>697.4</ele><time>2026-03-28T12:14:25.051Z</time></trkpt><trkpt lat="44.1701607" lon="10.8847014"><ele>696.0</ele><time>2026-03-28T12:14:26.056Z</time></trkpt><trkpt lat="44.1700972" lon="10.8847789"><ele>696.0</ele><time>2026-03-28T12:14:27.042Z</time></trkpt><trkpt lat="44.1700197" lon="10.8848377"><ele>696.0</ele><time>2026-03-28T12:14:28.046Z</time></trkpt><trkpt lat="44.1699177" lon="10.8848666"><ele>696.0</ele><time>2026-03-28T12:14:29.049Z</time></trkpt><trkpt lat="44.1698047" lon="10.88486"><ele>696.0</ele><time>2026-03-28T12:14:30.062Z</time></trkpt><trkpt lat="44.16969" lon="10.8848274"><ele>696.0</ele><time>2026-03-28T12:14:31.052Z</time></trkpt><trkpt lat="44.1695908" lon="10.8848064"><ele>696.0</ele><time>2026-03-28T12:14:32.044Z</time></trkpt><trkpt lat="44.1694974" lon="10.8848023"><ele>696.0</ele><time>2026-03-28T12:14:33.038Z</time></trkpt><trkpt lat="44.1693979" lon="10.8848298"><ele>696.0</ele><time>2026-03-28T12:14:34.036Z</time></trkpt><trkpt lat="44.1693222" lon="10.8849102"><ele>696.0</ele><time>2026-03-28T12:14:35.045Z</time></trkpt><trkpt lat="44.1692681" lon="10.8850114"><ele>696.0</ele><time>2026-03-28T12:14:36.038Z</time></trkpt><trkpt lat="44.1692145" lon="10.8850639"><ele>696.0</ele><time>2026-03-28T12:14:37.055Z</time></trkpt><trkpt lat="44.1691184" lon="10.885053"><ele>696.0</ele><time>2026-03-28T12:14:39.052Z</time></trkpt><trkpt lat="44.1690628" lon="10.8849877"><ele>696.0</ele><time>2026-03-28T12:14:40.041Z</time></trkpt><trkpt lat="44.1689956" lon="10.8848927"><ele>696.0</ele><time>2026-03-28T12:14:41.053Z</time></trkpt><trkpt lat="44.1689388" lon="10.8847312"><ele>696.0</ele><time>2026-03-28T12:14:42.07Z</time></trkpt><trkpt lat="44.1688912" lon="10.884549"><ele>696.0</ele><time>2026-03-28T12:14:43.041Z</time></trkpt><trkpt lat="44.1688416" lon="10.8843791"><ele>692.5999999999999</ele><time>2026-03-28T12:14:44.052Z</time></trkpt><trkpt lat="44.1687987" lon="10.8842111"><ele>689.2</ele><time>2026-03-28T12:14:45.042Z</time></trkpt><trkpt lat="44.1687625" lon="10.8840663"><ele>685.8</ele><time>2026-03-28T12:14:46.044Z</time></trkpt><trkpt lat="44.1687384" lon="10.883934"><ele>682.4000000000001</ele><time>2026-03-28T12:14:47.053Z</time></trkpt><trkpt lat="44.1687185" lon="10.883813"><ele>679.0</ele><time>2026-03-28T12:14:48.046Z</time></trkpt><trkpt lat="44.1686825" lon="10.8837046"><ele>679.0</ele><time>2026-03-28T12:14:49.054Z</time></trkpt><trkpt lat="44.1686198" lon="10.8836128"><ele>679.0</ele><time>2026-03-28T12:14:50.05Z</time></trkpt><trkpt lat="44.1685427" lon="10.8835364"><ele>679.0</ele><time>2026-03-28T12:14:51.035Z</time></trkpt><trkpt lat="44.1684542" lon="10.8834575"><ele>679.0</ele><time>2026-03-28T12:14:52.052Z</time></trkpt><trkpt lat="44.1683583" lon="10.8833683"><ele>679.0</ele><time>2026-03-28T12:14:53.05Z</time></trkpt><trkpt lat="44.1682572" lon="10.8832781"><ele>680.5</ele><time>2026-03-28T12:14:54.046Z</time></trkpt><trkpt lat="44.1681469" lon="10.8832025"><ele>682.0</ele><time>2026-03-28T12:14:55.047Z</time></trkpt><trkpt lat="44.1680349" lon="10.8831491"><ele>683.5</ele><time>2026-03-28T12:14:56.057Z</time></trkpt><trkpt lat="44.1679195" lon="10.8831095"><ele>685.0</ele><time>2026-03-28T12:14:57.04Z</time></trkpt><trkpt lat="44.1678021" lon="10.8830967"><ele>685.0</ele><time>2026-03-28T12:14:58.043Z</time></trkpt><trkpt lat="44.167681" lon="10.8831105"><ele>685.0</ele><time>2026-03-28T12:14:59.045Z</time></trkpt><trkpt lat="44.1675712" lon="10.8831402"><ele>685.0</ele><time>2026-03-28T12:15:00.041Z</time></trkpt><trkpt lat="44.1674718" lon="10.8831817"><ele>685.0</ele><time>2026-03-28T12:15:01.039Z</time></trkpt><trkpt lat="44.1673802" lon="10.8832346"><ele>685.0</ele><time>2026-03-28T12:15:02.043Z</time></trkpt><trkpt lat="44.1672952" lon="10.8833018"><ele>686.6</ele><time>2026-03-28T12:15:03.063Z</time></trkpt><trkpt lat="44.1672157" lon="10.8833759"><ele>688.2</ele><time>2026-03-28T12:15:04.053Z</time></trkpt><trkpt lat="44.1671352" lon="10.8834514"><ele>689.8</ele><time>2026-03-28T12:15:05.055Z</time></trkpt><trkpt lat="44.1670499" lon="10.8835247"><ele>691.4</ele><time>2026-03-28T12:15:06.051Z</time></trkpt><trkpt lat="44.1669571" lon="10.8835922"><ele>693.0</ele><time>2026-03-28T12:15:07.061Z</time></trkpt><trkpt lat="44.1668608" lon="10.88364"><ele>691.5999999999999</ele><time>2026-03-28T12:15:08.075Z</time></trkpt><trkpt lat="44.1667592" lon="10.8836714"><ele>690.1999999999999</ele><time>2026-03-28T12:15:09.033Z</time></trkpt><trkpt lat="44.1666552" lon="10.8836841"><ele>688.8</ele><time>2026-03-28T12:15:10.05Z</time></trkpt><trkpt lat="44.1665541" lon="10.8836847"><ele>687.4</ele><time>2026-03-28T12:15:11.051Z</time></trkpt><trkpt lat="44.166461" lon="10.8836883"><ele>686.0</ele><time>2026-03-28T12:15:12.054Z</time></trkpt><trkpt lat="44.1663739" lon="10.8837101"><ele>686.0</ele><time>2026-03-28T12:15:13.054Z</time></trkpt><trkpt lat="44.1662834" lon="10.8837559"><ele>686.0</ele><time>2026-03-28T12:15:14.047Z</time></trkpt><trkpt lat="44.1661944" lon="10.8838241"><ele>686.0</ele><time>2026-03-28T12:15:15.053Z</time></trkpt><trkpt lat="44.1661071" lon="10.8838949"><ele>686.0</ele><time>2026-03-28T12:15:16.03Z</time></trkpt><trkpt lat="44.1660184" lon="10.8839691"><ele>686.0</ele><time>2026-03-28T12:15:17.059Z</time></trkpt><trkpt lat="44.1659322" lon="10.8840378"><ele>686.0</ele><time>2026-03-28T12:15:18.044Z</time></trkpt><trkpt lat="44.1658475" lon="10.8841123"><ele>686.0</ele><time>2026-03-28T12:15:19.068Z</time></trkpt><trkpt lat="44.1657639" lon="10.8841866"><ele>686.0</ele><time>2026-03-28T12:15:20.051Z</time></trkpt><trkpt lat="44.1656816" lon="10.8842627"><ele>686.0</ele><time>2026-03-28T12:15:21.063Z</time></trkpt><trkpt lat="44.1656272" lon="10.8843347"><ele>686.0</ele><time>2026-03-28T12:15:22.05Z</time></trkpt><trkpt lat="44.1655762" lon="10.8844268"><ele>693.1999999999999</ele><time>2026-03-28T12:15:23.05Z</time></trkpt><trkpt lat="44.1655542" lon="10.8845313"><ele>700.4</ele><time>2026-03-28T12:15:24.05Z</time></trkpt><trkpt lat="44.1655567" lon="10.8846513"><ele>707.6</ele><time>2026-03-28T12:15:25.044Z</time></trkpt><trkpt lat="44.1655806" lon="10.8847842"><ele>714.8</ele><time>2026-03-28T12:15:26.046Z</time></trkpt><trkpt lat="44.1656149" lon="10.8849264"><ele>722.0</ele><time>2026-03-28T12:15:27.046Z</time></trkpt><trkpt lat="44.1656311" lon="10.8850695"><ele>719.4000000000001</ele><time>2026-03-28T12:15:28.061Z</time></trkpt><trkpt lat="44.1656222" lon="10.8852074"><ele>716.8000000000001</ele><time>2026-03-28T12:15:29.039Z</time></trkpt><trkpt lat="44.1655978" lon="10.8853265"><ele>714.2</ele><time>2026-03-28T12:15:30.053Z</time></trkpt><trkpt lat="44.1655441" lon="10.8854425"><ele>711.6</ele><time>2026-03-28T12:15:31.053Z</time></trkpt><trkpt lat="44.1654815" lon="10.8855603"><ele>709.0</ele><time>2026-03-28T12:15:32.044Z</time></trkpt><trkpt lat="44.1654179" lon="10.8856883"><ele>709.0</ele><time>2026-03-28T12:15:33.071Z</time></trkpt><trkpt lat="44.1653589" lon="10.885819"><ele>709.0</ele><time>2026-03-28T12:15:34.055Z</time></trkpt><trkpt lat="44.1653006" lon="10.8859512"><ele>709.0</ele><time>2026-03-28T12:15:35.052Z</time></trkpt><trkpt lat="44.1652445" lon="10.8860736"><ele>709.0</ele><time>2026-03-28T12:15:36.053Z</time></trkpt><trkpt lat="44.1651949" lon="10.8861834"><ele>709.0</ele><time>2026-03-28T12:15:37.046Z</time></trkpt><trkpt lat="44.1651369" lon="10.8862921"><ele>710.5</ele><time>2026-03-28T12:15:38.025Z</time></trkpt><trkpt lat="44.1650627" lon="10.8863961"><ele>712.0</ele><time>2026-03-28T12:15:39.051Z</time></trkpt><trkpt lat="44.1649822" lon="10.8864977"><ele>713.5</ele><time>2026-03-28T12:15:40.043Z</time></trkpt><trkpt lat="44.1649018" lon="10.8866162"><ele>715.0</ele><time>2026-03-28T12:15:41.061Z</time></trkpt><trkpt lat="44.1648345" lon="10.8867539"><ele>708.25</ele><time>2026-03-28T12:15:42.045Z</time></trkpt><trkpt lat="44.164783" lon="10.8869179"><ele>701.5</ele><time>2026-03-28T12:15:43.038Z</time></trkpt><trkpt lat="44.1647374" lon="10.8870926"><ele>694.75</ele><time>2026-03-28T12:15:44.055Z</time></trkpt><trkpt lat="44.1646831" lon="10.8872554"><ele>688.0</ele><time>2026-03-28T12:15:45.034Z</time></trkpt><trkpt lat="44.1646233" lon="10.8874129"><ele>688.0</ele><time>2026-03-28T12:15:46.053Z</time></trkpt><trkpt lat="44.1645565" lon="10.8875424"><ele>688.0</ele><time>2026-03-28T12:15:47.047Z</time></trkpt><trkpt lat="44.1644733" lon="10.8876527"><ele>688.0</ele><time>2026-03-28T12:15:48.044Z</time></trkpt><trkpt lat="44.1643902" lon="10.8877396"><ele>688.0</ele><time>2026-03-28T12:15:49.047Z</time></trkpt><trkpt lat="44.1643036" lon="10.8878069"><ele>688.0</ele><time>2026-03-28T12:15:50.065Z</time></trkpt><trkpt lat="44.1642208" lon="10.8878655"><ele>690.4</ele><time>2026-03-28T12:15:51.052Z</time></trkpt><trkpt lat="44.1641407" lon="10.8879355"><ele>692.8</ele><time>2026-03-28T12:15:52.037Z</time></trkpt><trkpt lat="44.164067" lon="10.888039"><ele>695.2</ele><time>2026-03-28T12:15:53.044Z</time></trkpt><trkpt lat="44.1639969" lon="10.8881611"><ele>697.6</ele><time>2026-03-28T12:15:54.069Z</time></trkpt><trkpt lat="44.1639358" lon="10.888291"><ele>700.0</ele><time>2026-03-28T12:15:55.043Z</time></trkpt><trkpt lat="44.1638913" lon="10.8884295"><ele>700.0</ele><time>2026-03-28T12:15:56.051Z</time></trkpt><trkpt lat="44.1638666" lon="10.8885627"><ele>700.0</ele><time>2026-03-28T12:15:57.047Z</time></trkpt><trkpt lat="44.1638571" lon="10.8887072"><ele>700.0</ele><time>2026-03-28T12:15:58.057Z</time></trkpt><trkpt lat="44.1638531" lon="10.8888497"><ele>700.0</ele><time>2026-03-28T12:15:59.042Z</time></trkpt><trkpt lat="44.1638634" lon="10.8889905"><ele>700.0</ele><time>2026-03-28T12:16:00.044Z</time></trkpt><trkpt lat="44.1638984" lon="10.8891173"><ele>700.0</ele><time>2026-03-28T12:16:01.054Z</time></trkpt><trkpt lat="44.1639553" lon="10.8892266"><ele>700.0</ele><time>2026-03-28T12:16:02.036Z</time></trkpt><trkpt lat="44.1640333" lon="10.8893316"><ele>700.0</ele><time>2026-03-28T12:16:03.04Z</time></trkpt><trkpt lat="44.1641063" lon="10.8894451"><ele>700.0</ele><time>2026-03-28T12:16:04.048Z</time></trkpt><trkpt lat="44.1641679" lon="10.8895661"><ele>700.0</ele><time>2026-03-28T12:16:05.074Z</time></trkpt><trkpt lat="44.1642051" lon="10.8896847"><ele>694.8</ele><time>2026-03-28T12:16:06.056Z</time></trkpt><trkpt lat="44.1642266" lon="10.8898165"><ele>689.6</ele><time>2026-03-28T12:16:07.042Z</time></trkpt><trkpt lat="44.1642421" lon="10.8899607"><ele>684.4000000000001</ele><time>2026-03-28T12:16:08.053Z</time></trkpt><trkpt lat="44.164264" lon="10.8900882"><ele>679.2</ele><time>2026-03-28T12:16:09.045Z</time></trkpt><trkpt lat="44.1643058" lon="10.8902245"><ele>674.0</ele><time>2026-03-28T12:16:10.024Z</time></trkpt><trkpt lat="44.1643705" lon="10.8903768"><ele>674.0</ele><time>2026-03-28T12:16:11.059Z</time></trkpt><trkpt lat="44.164433" lon="10.8905228"><ele>674.0</ele><time>2026-03-28T12:16:12.047Z</time></trkpt><trkpt lat="44.1644945" lon="10.8906754"><ele>674.0</ele><time>2026-03-28T12:16:13.052Z</time></trkpt><trkpt lat="44.1645392" lon="10.8908262"><ele>674.0</ele><time>2026-03-28T12:16:14.049Z</time></trkpt><trkpt lat="44.16456" lon="10.890989"><ele>673.0</ele><time>2026-03-28T12:16:15.069Z</time></trkpt><trkpt lat="44.1645511" lon="10.8911463"><ele>672.0</ele><time>2026-03-28T12:16:16.042Z</time></trkpt><trkpt lat="44.1645227" lon="10.8913074"><ele>671.0</ele><time>2026-03-28T12:16:17.054Z</time></trkpt><trkpt lat="44.1644951" lon="10.8914548"><ele>670.0</ele><time>2026-03-28T12:16:18.057Z</time></trkpt><trkpt lat="44.1644902" lon="10.8915965"><ele>669.0</ele><time>2026-03-28T12:16:19.049Z</time></trkpt><trkpt lat="44.1645067" lon="10.8917319"><ele>668.1666666666666</ele><time>2026-03-28T12:16:20.078Z</time></trkpt><trkpt lat="44.1645298" lon="10.8918511"><ele>667.3333333333334</ele><time>2026-03-28T12:16:21.045Z</time></trkpt><trkpt lat="44.1645555" lon="10.8919717"><ele>666.5</ele><time>2026-03-28T12:16:22.054Z</time></trkpt><trkpt lat="44.1645768" lon="10.8920905"><ele>665.6666666666667</ele><time>2026-03-28T12:16:23.056Z</time></trkpt><trkpt lat="44.1645989" lon="10.8922056"><ele>664.8333333333334</ele><time>2026-03-28T12:16:24.042Z</time></trkpt><trkpt lat="44.1646236" lon="10.8923227"><ele>664.0</ele><time>2026-03-28T12:16:25.041Z</time></trkpt><trkpt lat="44.1646525" lon="10.8924382"><ele>664.0</ele><time>2026-03-28T12:16:26.031Z</time></trkpt><trkpt lat="44.1646821" lon="10.89256"><ele>664.0</ele><time>2026-03-28T12:16:27.069Z</time></trkpt><trkpt lat="44.1647079" lon="10.8926771"><ele>664.0</ele><time>2026-03-28T12:16:28.04Z</time></trkpt><trkpt lat="44.1647333" lon="10.8928078"><ele>664.0</ele><time>2026-03-28T12:16:29.067Z</time></trkpt><trkpt lat="44.1647453" lon="10.8929357"><ele>664.0</ele><time>2026-03-28T12:16:30.04Z</time></trkpt><trkpt lat="44.1647457" lon="10.8930696"><ele>662.4000000000001</ele><time>2026-03-28T12:16:31.052Z</time></trkpt><trkpt lat="44.1647291" lon="10.8931905"><ele>660.8</ele><time>2026-03-28T12:16:32.043Z</time></trkpt><trkpt lat="44.1646831" lon="10.8932984"><ele>659.2</ele><time>2026-03-28T12:16:33.052Z</time></trkpt><trkpt lat="44.1646165" lon="10.8933897"><ele>657.5999999999999</ele><time>2026-03-28T12:16:34.042Z</time></trkpt><trkpt lat="44.1645389" lon="10.8934821"><ele>656.0</ele><time>2026-03-28T12:16:35.058Z</time></trkpt><trkpt lat="44.1644574" lon="10.8935629"><ele>654.0</ele><time>2026-03-28T12:16:36.05Z</time></trkpt><trkpt lat="44.1643664" lon="10.8936428"><ele>652.0</ele><time>2026-03-28T12:16:37.051Z</time></trkpt><trkpt lat="44.1642695" lon="10.8937091"><ele>650.0</ele><time>2026-03-28T12:16:38.057Z</time></trkpt><trkpt lat="44.1641777" lon="10.8937524"><ele>648.0</ele><time>2026-03-28T12:16:39.051Z</time></trkpt><trkpt lat="44.1640904" lon="10.8937869"><ele>646.0</ele><time>2026-03-28T12:16:40.042Z</time></trkpt><trkpt lat="44.1640133" lon="10.8938069"><ele>646.0</ele><time>2026-03-28T12:16:41.048Z</time></trkpt><trkpt lat="44.1639437" lon="10.8938315"><ele>646.0</ele><time>2026-03-28T12:16:42.048Z</time></trkpt><trkpt lat="44.1638754" lon="10.8938517"><ele>646.0</ele><time>2026-03-28T12:16:43.068Z</time></trkpt><trkpt lat="44.1637571" lon="10.893889"><ele>646.0</ele><time>2026-03-28T12:16:45.057Z</time></trkpt><trkpt lat="44.1636514" lon="10.8939173"><ele>646.0</ele><time>2026-03-28T12:16:47.051Z</time></trkpt><trkpt lat="44.1635345" lon="10.8939572"><ele>646.0</ele><time>2026-03-28T12:16:49.055Z</time></trkpt><trkpt lat="44.1634171" lon="10.8940018"><ele>646.0</ele><time>2026-03-28T12:16:51.052Z</time></trkpt><trkpt lat="44.1632998" lon="10.8940374"><ele>646.0</ele><time>2026-03-28T12:16:53.043Z</time></trkpt><trkpt lat="44.1631945" lon="10.8940715"><ele>646.0</ele><time>2026-03-28T12:16:55.04Z</time></trkpt><trkpt lat="44.163088" lon="10.8941052"><ele>645.8333333333334</ele><time>2026-03-28T12:16:57.058Z</time></trkpt><trkpt lat="44.162979" lon="10.8941359"><ele>645.6666666666667</ele><time>2026-03-28T12:16:59.047Z</time></trkpt><trkpt lat="44.1628586" lon="10.8941735"><ele>645.5</ele><time>2026-03-28T12:17:01.073Z</time></trkpt><trkpt lat="44.1627941" lon="10.8941901"><ele>645.3333333333334</ele><time>2026-03-28T12:17:02.039Z</time></trkpt><trkpt lat="44.1627233" lon="10.8942085"><ele>645.1666666666666</ele><time>2026-03-28T12:17:03.064Z</time></trkpt><trkpt lat="44.1626511" lon="10.8942218"><ele>645.0</ele><time>2026-03-28T12:17:04.048Z</time></trkpt><trkpt lat="44.1625827" lon="10.8942417"><ele>643.2</ele><time>2026-03-28T12:17:05.032Z</time></trkpt><trkpt lat="44.1624767" lon="10.8942814"><ele>641.4</ele><time>2026-03-28T12:17:07.049Z</time></trkpt><trkpt lat="44.1623787" lon="10.8943294"><ele>639.6</ele><time>2026-03-28T12:17:09.04Z</time></trkpt><trkpt lat="44.1622617" lon="10.8943656"><ele>637.8</ele><time>2026-03-28T12:17:11.058Z</time></trkpt><trkpt lat="44.1621989" lon="10.8943847"><ele>636.0</ele><time>2026-03-28T12:17:12.044Z</time></trkpt><trkpt lat="44.1621353" lon="10.8944029"><ele>635.5</ele><time>2026-03-28T12:17:13.056Z</time></trkpt><trkpt lat="44.1620659" lon="10.894425"><ele>635.0</ele><time>2026-03-28T12:17:14.051Z</time></trkpt><trkpt lat="44.1619939" lon="10.8944374"><ele>634.5</ele><time>2026-03-28T12:17:15.075Z</time></trkpt><trkpt lat="44.1619314" lon="10.8944512"><ele>634.0</ele><time>2026-03-28T12:17:16.064Z</time></trkpt><trkpt lat="44.1618072" lon="10.8944846"><ele>633.5</ele><time>2026-03-28T12:17:18.065Z</time></trkpt><trkpt lat="44.1617398" lon="10.8944935"><ele>633.0</ele><time>2026-03-28T12:17:19.07Z</time></trkpt><trkpt lat="44.161669" lon="10.8945064"><ele>633.0</ele><time>2026-03-28T12:17:20.052Z</time></trkpt><trkpt lat="44.1615914" lon="10.8945004"><ele>633.0</ele><time>2026-03-28T12:17:21.064Z</time></trkpt><trkpt lat="44.1615135" lon="10.894494"><ele>633.0</ele><time>2026-03-28T12:17:22.043Z</time></trkpt><trkpt lat="44.1614344" lon="10.8944716"><ele>633.0</ele><time>2026-03-28T12:17:23.038Z</time></trkpt><trkpt lat="44.1613588" lon="10.8944403"><ele>633.0</ele><time>2026-03-28T12:17:24.051Z</time></trkpt><trkpt lat="44.1612999" lon="10.8944093"><ele>633.0</ele><time>2026-03-28T12:17:25.064Z</time></trkpt><trkpt lat="44.1612417" lon="10.8943737"><ele>633.0</ele><time>2026-03-28T12:17:26.055Z</time></trkpt><trkpt lat="44.1611357" lon="10.8943004"><ele>634.0</ele><time>2026-03-28T12:17:28.04Z</time></trkpt><trkpt lat="44.1610252" lon="10.8942269"><ele>635.0</ele><time>2026-03-28T12:17:30.066Z</time></trkpt><trkpt lat="44.1609326" lon="10.8941691"><ele>636.0</ele><time>2026-03-28T12:17:32.061Z</time></trkpt><trkpt lat="44.1608525" lon="10.8941149"><ele>637.0</ele><time>2026-03-28T12:17:34.052Z</time></trkpt><trkpt lat="44.1607661" lon="10.8940566"><ele>638.0</ele><time>2026-03-28T12:17:36.05Z</time></trkpt><trkpt lat="44.1606694" lon="10.8940001"><ele>635.8</ele><time>2026-03-28T12:17:38.052Z</time></trkpt><trkpt lat="44.1606006" lon="10.8939679"><ele>633.5999999999999</ele><time>2026-03-28T12:17:40.056Z</time></trkpt><trkpt lat="44.1604972" lon="10.8939184"><ele>631.4000000000001</ele><time>2026-03-28T12:17:42.05Z</time></trkpt><trkpt lat="44.1604169" lon="10.8938668"><ele>629.2</ele><time>2026-03-28T12:17:43.079Z</time></trkpt><trkpt lat="44.1603361" lon="10.8938263"><ele>627.0</ele><time>2026-03-28T12:17:44.061Z</time></trkpt><trkpt lat="44.1602344" lon="10.8937825"><ele>627.0</ele><time>2026-03-28T12:17:45.059Z</time></trkpt><trkpt lat="44.1601309" lon="10.893746"><ele>627.0</ele><time>2026-03-28T12:17:46.043Z</time></trkpt><trkpt lat="44.1600267" lon="10.8937177"><ele>627.0</ele><time>2026-03-28T12:17:47.036Z</time></trkpt><trkpt lat="44.1599172" lon="10.8936902"><ele>627.0</ele><time>2026-03-28T12:17:48.043Z</time></trkpt><trkpt lat="44.1598054" lon="10.8936695"><ele>627.0</ele><time>2026-03-28T12:17:49.046Z</time></trkpt><trkpt lat="44.1596844" lon="10.8936576"><ele>625.5</ele><time>2026-03-28T12:17:50.042Z</time></trkpt><trkpt lat="44.1595601" lon="10.8936507"><ele>624.0</ele><time>2026-03-28T12:17:51.051Z</time></trkpt><trkpt lat="44.159433" lon="10.8936463"><ele>622.5</ele><time>2026-03-28T12:17:52.05Z</time></trkpt><trkpt lat="44.1593086" lon="10.8936471"><ele>621.0</ele><time>2026-03-28T12:17:53.069Z</time></trkpt><trkpt lat="44.1591933" lon="10.8936447"><ele>621.0</ele><time>2026-03-28T12:17:54.066Z</time></trkpt><trkpt lat="44.1590906" lon="10.8936434"><ele>621.0</ele><time>2026-03-28T12:17:55.047Z</time></trkpt><trkpt lat="44.1589868" lon="10.8936518"><ele>621.0</ele><time>2026-03-28T12:17:56.044Z</time></trkpt><trkpt lat="44.1588941" lon="10.8936769"><ele>621.0</ele><time>2026-03-28T12:17:57.048Z</time></trkpt><trkpt lat="44.1588039" lon="10.8937346"><ele>621.0</ele><time>2026-03-28T12:17:58.049Z</time></trkpt><trkpt lat="44.158705" lon="10.8938151"><ele>622.75</ele><time>2026-03-28T12:17:59.052Z</time></trkpt><trkpt lat="44.1585999" lon="10.8938991"><ele>624.5</ele><time>2026-03-28T12:18:00.041Z</time></trkpt><trkpt lat="44.1584826" lon="10.8939912"><ele>626.25</ele><time>2026-03-28T12:18:01.051Z</time></trkpt><trkpt lat="44.1583653" lon="10.8940698"><ele>628.0</ele><time>2026-03-28T12:18:02.042Z</time></trkpt><trkpt lat="44.1582457" lon="10.8941316"><ele>628.4</ele><time>2026-03-28T12:18:03.05Z</time></trkpt><trkpt lat="44.1581185" lon="10.8941725"><ele>628.8</ele><time>2026-03-28T12:18:04.056Z</time></trkpt><trkpt lat="44.158006" lon="10.8941951"><ele>629.2</ele><time>2026-03-28T12:18:05.051Z</time></trkpt><trkpt lat="44.1579025" lon="10.8942161"><ele>629.6</ele><time>2026-03-28T12:18:06.06Z</time></trkpt><trkpt lat="44.1578086" lon="10.8942439"><ele>630.0</ele><time>2026-03-28T12:18:07.049Z</time></trkpt><trkpt lat="44.1577231" lon="10.8942943"><ele>630.4</ele><time>2026-03-28T12:18:08.059Z</time></trkpt><trkpt lat="44.157658" lon="10.8943726"><ele>630.8</ele><time>2026-03-28T12:18:09.042Z</time></trkpt><trkpt lat="44.1576003" lon="10.8944913"><ele>631.2</ele><time>2026-03-28T12:18:10.052Z</time></trkpt><trkpt lat="44.1575408" lon="10.894618"><ele>631.6</ele><time>2026-03-28T12:18:11.034Z</time></trkpt><trkpt lat="44.1574606" lon="10.8947467"><ele>632.0</ele><time>2026-03-28T12:18:12.061Z</time></trkpt><trkpt lat="44.1573616" lon="10.8948649"><ele>632.0</ele><time>2026-03-28T12:18:13.061Z</time></trkpt><trkpt lat="44.1572587" lon="10.8949803"><ele>632.0</ele><time>2026-03-28T12:18:14.056Z</time></trkpt><trkpt lat="44.1571594" lon="10.8950814"><ele>632.0</ele><time>2026-03-28T12:18:15.05Z</time></trkpt><trkpt lat="44.157069" lon="10.8951676"><ele>632.0</ele><time>2026-03-28T12:18:16.042Z</time></trkpt><trkpt lat="44.1569879" lon="10.8952674"><ele>629.0</ele><time>2026-03-28T12:18:17.044Z</time></trkpt><trkpt lat="44.1569153" lon="10.8953837"><ele>626.0</ele><time>2026-03-28T12:18:18.053Z</time></trkpt><trkpt lat="44.15686" lon="10.8955302"><ele>623.0</ele><time>2026-03-28T12:18:19.058Z</time></trkpt><trkpt lat="44.1568096" lon="10.8956919"><ele>620.0</ele><time>2026-03-28T12:18:20.038Z</time></trkpt><trkpt lat="44.1567629" lon="10.8958556"><ele>617.5</ele><time>2026-03-28T12:18:21.059Z</time></trkpt><trkpt lat="44.1567179" lon="10.8960265"><ele>615.0</ele><time>2026-03-28T12:18:22.048Z</time></trkpt><trkpt lat="44.1566747" lon="10.8961979"><ele>612.5</ele><time>2026-03-28T12:18:23.066Z</time></trkpt><trkpt lat="44.1566399" lon="10.896372"><ele>610.0</ele><time>2026-03-28T12:18:24.053Z</time></trkpt><trkpt lat="44.1566144" lon="10.896539"><ele>610.0</ele><time>2026-03-28T12:18:25.041Z</time></trkpt><trkpt lat="44.1565982" lon="10.8966986"><ele>610.0</ele><time>2026-03-28T12:18:26.037Z</time></trkpt><trkpt lat="44.156593" lon="10.8968503"><ele>610.0</ele><time>2026-03-28T12:18:27.041Z</time></trkpt><trkpt lat="44.1566009" lon="10.8969893"><ele>610.0</ele><time>2026-03-28T12:18:28.046Z</time></trkpt><trkpt lat="44.156626" lon="10.8971266"><ele>610.0</ele><time>2026-03-28T12:18:29.054Z</time></trkpt><trkpt lat="44.1566567" lon="10.8972482"><ele>608.3333333333334</ele><time>2026-03-28T12:18:30.059Z</time></trkpt><trkpt lat="44.1566739" lon="10.8973676"><ele>606.6666666666667</ele><time>2026-03-28T12:18:31.071Z</time></trkpt><trkpt lat="44.1566648" lon="10.8974769"><ele>605.0</ele><time>2026-03-28T12:18:32.058Z</time></trkpt><trkpt lat="44.1566221" lon="10.8975579"><ele>603.3333333333334</ele><time>2026-03-28T12:18:33.057Z</time></trkpt><trkpt lat="44.1565423" lon="10.8976172"><ele>601.6666666666666</ele><time>2026-03-28T12:18:34.052Z</time></trkpt><trkpt lat="44.156434" lon="10.8976612"><ele>600.0</ele><time>2026-03-28T12:18:35.055Z</time></trkpt><trkpt lat="44.1563172" lon="10.8976944"><ele>597.6</ele><time>2026-03-28T12:18:36.061Z</time></trkpt><trkpt lat="44.1562043" lon="10.897739"><ele>595.2</ele><time>2026-03-28T12:18:37.052Z</time></trkpt><trkpt lat="44.1560866" lon="10.8977862"><ele>592.8</ele><time>2026-03-28T12:18:38.05Z</time></trkpt><trkpt lat="44.155986" lon="10.8978105"><ele>590.4</ele><time>2026-03-28T12:18:39.065Z</time></trkpt><trkpt lat="44.1558923" lon="10.8978206"><ele>588.0</ele><time>2026-03-28T12:18:40.049Z</time></trkpt><trkpt lat="44.1558037" lon="10.8978182"><ele>588.0</ele><time>2026-03-28T12:18:41.059Z</time></trkpt><trkpt lat="44.1557179" lon="10.8977992"><ele>588.0</ele><time>2026-03-28T12:18:42.058Z</time></trkpt><trkpt lat="44.1556389" lon="10.8977686"><ele>588.0</ele><time>2026-03-28T12:18:43.071Z</time></trkpt><trkpt lat="44.1555642" lon="10.8977498"><ele>588.0</ele><time>2026-03-28T12:18:44.054Z</time></trkpt><trkpt lat="44.1554966" lon="10.8977682"><ele>588.0</ele><time>2026-03-28T12:18:45.044Z</time></trkpt><trkpt lat="44.1554563" lon="10.8978409"><ele>588.0</ele><time>2026-03-28T12:18:46.055Z</time></trkpt><trkpt lat="44.1554553" lon="10.8979453"><ele>588.0</ele><time>2026-03-28T12:18:47.05Z</time></trkpt><trkpt lat="44.155497" lon="10.8980383"><ele>588.0</ele><time>2026-03-28T12:18:48.06Z</time></trkpt><trkpt lat="44.1555893" lon="10.8980993"><ele>588.0</ele><time>2026-03-28T12:18:49.067Z</time></trkpt><trkpt lat="44.1557044" lon="10.8981323"><ele>588.0</ele><time>2026-03-28T12:18:50.033Z</time></trkpt><trkpt lat="44.1558247" lon="10.8981536"><ele>588.0</ele><time>2026-03-28T12:18:51.05Z</time></trkpt><trkpt lat="44.1559349" lon="10.8981567"><ele>588.0</ele><time>2026-03-28T12:18:52.068Z</time></trkpt><trkpt lat="44.1560396" lon="10.8981624"><ele>588.0</ele><time>2026-03-28T12:18:53.064Z</time></trkpt><trkpt lat="44.156145" lon="10.8981708"><ele>588.0</ele><time>2026-03-28T12:18:54.055Z</time></trkpt><trkpt lat="44.1562513" lon="10.8981816"><ele>588.0</ele><time>2026-03-28T12:18:55.059Z</time></trkpt><trkpt lat="44.1563522" lon="10.8981973"><ele>588.0</ele><time>2026-03-28T12:18:56.051Z</time></trkpt><trkpt lat="44.1564541" lon="10.8982109"><ele>587.8</ele><time>2026-03-28T12:18:57.049Z</time></trkpt><trkpt lat="44.1565618" lon="10.8982428"><ele>587.5999999999999</ele><time>2026-03-28T12:18:58.066Z</time></trkpt><trkpt lat="44.1566612" lon="10.898293"><ele>587.4000000000001</ele><time>2026-03-28T12:18:59.042Z</time></trkpt><trkpt lat="44.1567596" lon="10.8983528"><ele>587.2</ele><time>2026-03-28T12:19:00.037Z</time></trkpt><trkpt lat="44.1568566" lon="10.8984145"><ele>587.0</ele><time>2026-03-28T12:19:01.042Z</time></trkpt><trkpt lat="44.1569551" lon="10.8984547"><ele>587.0</ele><time>2026-03-28T12:19:02.052Z</time></trkpt><trkpt lat="44.1570569" lon="10.8984329"><ele>587.0</ele><time>2026-03-28T12:19:03.048Z</time></trkpt><trkpt lat="44.1571661" lon="10.8983749"><ele>587.0</ele><time>2026-03-28T12:19:04.051Z</time></trkpt><trkpt lat="44.1572749" lon="10.8983129"><ele>587.0</ele><time>2026-03-28T12:19:05.052Z</time></trkpt><trkpt lat="44.1573797" lon="10.8982645"><ele>587.0</ele><time>2026-03-28T12:19:06.049Z</time></trkpt><trkpt lat="44.157484" lon="10.89824"><ele>585.4</ele><time>2026-03-28T12:19:07.045Z</time></trkpt><trkpt lat="44.1575823" lon="10.8982169"><ele>583.8000000000001</ele><time>2026-03-28T12:19:08.056Z</time></trkpt><trkpt lat="44.1576563" lon="10.8981495"><ele>582.2</ele><time>2026-03-28T12:19:09.06Z</time></trkpt><trkpt lat="44.1577091" lon="10.8980404"><ele>580.6</ele><time>2026-03-28T12:19:10.034Z</time></trkpt><trkpt lat="44.1577415" lon="10.8978792"><ele>579.0</ele><time>2026-03-28T12:19:11.039Z</time></trkpt><trkpt lat="44.157755" lon="10.8976941"><ele>580.75</ele><time>2026-03-28T12:19:12.062Z</time></trkpt><trkpt lat="44.1577531" lon="10.8975214"><ele>582.5</ele><time>2026-03-28T12:19:13.035Z</time></trkpt><trkpt lat="44.1577542" lon="10.8973512"><ele>584.25</ele><time>2026-03-28T12:19:14.043Z</time></trkpt><trkpt lat="44.1577709" lon="10.8971929"><ele>586.0</ele><time>2026-03-28T12:19:15.051Z</time></trkpt><trkpt lat="44.1578105" lon="10.8970453"><ele>586.0</ele><time>2026-03-28T12:19:16.062Z</time></trkpt><trkpt lat="44.1578668" lon="10.8969081"><ele>586.0</ele><time>2026-03-28T12:19:17.055Z</time></trkpt><trkpt lat="44.1579373" lon="10.8967737"><ele>586.0</ele><time>2026-03-28T12:19:18.054Z</time></trkpt><trkpt lat="44.158021" lon="10.896646"><ele>586.0</ele><time>2026-03-28T12:19:19.058Z</time></trkpt><trkpt lat="44.1581085" lon="10.8965308"><ele>586.2</ele><time>2026-03-28T12:19:20.047Z</time></trkpt><trkpt lat="44.1581991" lon="10.8964332"><ele>586.4000000000001</ele><time>2026-03-28T12:19:21.064Z</time></trkpt><trkpt lat="44.1582875" lon="10.8963456"><ele>586.6</ele><time>2026-03-28T12:19:22.071Z</time></trkpt><trkpt lat="44.1583776" lon="10.8962732"><ele>586.8000000000001</ele><time>2026-03-28T12:19:23.041Z</time></trkpt><trkpt lat="44.1584726" lon="10.8962008"><ele>587.0</ele><time>2026-03-28T12:19:24.075Z</time></trkpt><trkpt lat="44.1585643" lon="10.8961406"><ele>584.8000000000001</ele><time>2026-03-28T12:19:25.053Z</time></trkpt><trkpt lat="44.1586555" lon="10.8961096"><ele>582.6</ele><time>2026-03-28T12:19:26.04Z</time></trkpt><trkpt lat="44.1587513" lon="10.896106"><ele>580.4000000000001</ele><time>2026-03-28T12:19:27.051Z</time></trkpt><trkpt lat="44.1588505" lon="10.8961377"><ele>578.2</ele><time>2026-03-28T12:19:28.052Z</time></trkpt><trkpt lat="44.1589543" lon="10.8962132"><ele>576.0</ele><time>2026-03-28T12:19:29.047Z</time></trkpt><trkpt lat="44.1590543" lon="10.8963256"><ele>574.5</ele><time>2026-03-28T12:19:30.057Z</time></trkpt><trkpt lat="44.1591342" lon="10.8964575"><ele>573.0</ele><time>2026-03-28T12:19:31.038Z</time></trkpt><trkpt lat="44.1591933" lon="10.8966202"><ele>571.5</ele><time>2026-03-28T12:19:32.053Z</time></trkpt><trkpt lat="44.1592263" lon="10.8967893"><ele>570.0</ele><time>2026-03-28T12:19:33.047Z</time></trkpt><trkpt lat="44.1592603" lon="10.8969593"><ele>567.8</ele><time>2026-03-28T12:19:34.057Z</time></trkpt><trkpt lat="44.1593111" lon="10.8971064"><ele>565.6</ele><time>2026-03-28T12:19:35.055Z</time></trkpt><trkpt lat="44.1593907" lon="10.897231"><ele>563.4</ele><time>2026-03-28T12:19:36.063Z</time></trkpt><trkpt lat="44.1594778" lon="10.8973127"><ele>561.2</ele><time>2026-03-28T12:19:37.05Z</time></trkpt><trkpt lat="44.15958" lon="10.8973587"><ele>559.0</ele><time>2026-03-28T12:19:38.051Z</time></trkpt><trkpt lat="44.159689" lon="10.8973742"><ele>559.0</ele><time>2026-03-28T12:19:39.067Z</time></trkpt><trkpt lat="44.1597987" lon="10.8973677"><ele>559.0</ele><time>2026-03-28T12:19:40.06Z</time></trkpt><trkpt lat="44.1599086" lon="10.8973559"><ele>559.0</ele><time>2026-03-28T12:19:41.07Z</time></trkpt><trkpt lat="44.1600058" lon="10.8973674"><ele>559.0</ele><time>2026-03-28T12:19:42.052Z</time></trkpt><trkpt lat="44.1600895" lon="10.8974224"><ele>559.0</ele><time>2026-03-28T12:19:43.046Z</time></trkpt><trkpt lat="44.1601539" lon="10.8975216"><ele>555.25</ele><time>2026-03-28T12:19:44.049Z</time></trkpt><trkpt lat="44.1601987" lon="10.8976638"><ele>551.5</ele><time>2026-03-28T12:19:45.051Z</time></trkpt><trkpt lat="44.1602208" lon="10.8978257"><ele>547.75</ele><time>2026-03-28T12:19:46.034Z</time></trkpt><trkpt lat="44.1602534" lon="10.8979949"><ele>544.0</ele><time>2026-03-28T12:19:47.025Z</time></trkpt><trkpt lat="44.1603083" lon="10.8981464"><ele>544.0</ele><time>2026-03-28T12:19:48.028Z</time></trkpt><trkpt lat="44.160393" lon="10.8982773"><ele>544.0</ele><time>2026-03-28T12:19:49.041Z</time></trkpt><trkpt lat="44.1604969" lon="10.8983884"><ele>544.0</ele><time>2026-03-28T12:19:50.044Z</time></trkpt><trkpt lat="44.1606117" lon="10.898482"><ele>544.0</ele><time>2026-03-28T12:19:51.039Z</time></trkpt><trkpt lat="44.1607701" lon="10.8985962"><ele>542.6666666666667</ele><time>2026-03-28T12:19:52.362Z</time></trkpt><trkpt lat="44.1609922" lon="10.8986895"><ele>541.3333333333334</ele><time>2026-03-28T12:19:54.108Z</time></trkpt><trkpt lat="44.1611214" lon="10.8987228"><ele>540.0</ele><time>2026-03-28T12:19:55.119Z</time></trkpt><trkpt lat="44.16125" lon="10.8987417"><ele>540.0</ele><time>2026-03-28T12:19:56.089Z</time></trkpt><trkpt lat="44.1613906" lon="10.8987456"><ele>540.0</ele><time>2026-03-28T12:19:57.094Z</time></trkpt><trkpt lat="44.1615336" lon="10.8987409"><ele>540.0</ele><time>2026-03-28T12:19:58.125Z</time></trkpt><trkpt lat="44.1616668" lon="10.8987261"><ele>540.0</ele><time>2026-03-28T12:19:59.101Z</time></trkpt><trkpt lat="44.1617979" lon="10.8987064"><ele>540.25</ele><time>2026-03-28T12:20:00.096Z</time></trkpt><trkpt lat="44.1619224" lon="10.8986996"><ele>540.5</ele><time>2026-03-28T12:20:01.089Z</time></trkpt><trkpt lat="44.1620467" lon="10.8987262"><ele>540.75</ele><time>2026-03-28T12:20:02.105Z</time></trkpt><trkpt lat="44.1621727" lon="10.8987923"><ele>541.0</ele><time>2026-03-28T12:20:03.097Z</time></trkpt><trkpt lat="44.1622953" lon="10.8988784"><ele>540.0</ele><time>2026-03-28T12:20:04.045Z</time></trkpt><trkpt lat="44.1624274" lon="10.899"><ele>539.0</ele><time>2026-03-28T12:20:05.05Z</time></trkpt><trkpt lat="44.1625612" lon="10.8991045"><ele>538.0</ele><time>2026-03-28T12:20:06.063Z</time></trkpt><trkpt lat="44.1627138" lon="10.8991816"><ele>538.0</ele><time>2026-03-28T12:20:07.046Z</time></trkpt><trkpt lat="44.1628843" lon="10.8992291"><ele>538.0</ele><time>2026-03-28T12:20:08.048Z</time></trkpt><trkpt lat="44.1630445" lon="10.899236"><ele>538.0</ele><time>2026-03-28T12:20:09.061Z</time></trkpt><trkpt lat="44.1631912" lon="10.8992361"><ele>538.3333333333334</ele><time>2026-03-28T12:20:10.059Z</time></trkpt><trkpt lat="44.1633387" lon="10.8992408"><ele>538.6666666666666</ele><time>2026-03-28T12:20:11.053Z</time></trkpt><trkpt lat="44.1634917" lon="10.8992449"><ele>539.0</ele><time>2026-03-28T12:20:12.057Z</time></trkpt><trkpt lat="44.1636437" lon="10.8992572"><ele>533.0</ele><time>2026-03-28T12:20:13.051Z</time></trkpt><trkpt lat="44.1638067" lon="10.8992756"><ele>527.0</ele><time>2026-03-28T12:20:14.069Z</time></trkpt><trkpt lat="44.1639704" lon="10.8993052"><ele>521.0</ele><time>2026-03-28T12:20:15.078Z</time></trkpt><trkpt lat="44.1641317" lon="10.8993436"><ele>521.0</ele><time>2026-03-28T12:20:16.064Z</time></trkpt><trkpt lat="44.1642908" lon="10.8994023"><ele>521.0</ele><time>2026-03-28T12:20:17.051Z</time></trkpt><trkpt lat="44.1644457" lon="10.8994684"><ele>521.0</ele><time>2026-03-28T12:20:18.051Z</time></trkpt><trkpt lat="44.1646036" lon="10.8995373"><ele>521.0</ele><time>2026-03-28T12:20:19.054Z</time></trkpt><trkpt lat="44.1647564" lon="10.8995965"><ele>521.0</ele><time>2026-03-28T12:20:20.049Z</time></trkpt><trkpt lat="44.1649035" lon="10.8996601"><ele>521.0</ele><time>2026-03-28T12:20:21.041Z</time></trkpt><trkpt lat="44.1650505" lon="10.8997325"><ele>519.75</ele><time>2026-03-28T12:20:22.06Z</time></trkpt><trkpt lat="44.1651837" lon="10.8998134"><ele>518.5</ele><time>2026-03-28T12:20:23.052Z</time></trkpt><trkpt lat="44.165313" lon="10.8999081"><ele>517.25</ele><time>2026-03-28T12:20:24.048Z</time></trkpt><trkpt lat="44.1654448" lon="10.9000208"><ele>516.0</ele><time>2026-03-28T12:20:25.062Z</time></trkpt><trkpt lat="44.1655732" lon="10.9001414"><ele>517.0</ele><time>2026-03-28T12:20:26.053Z</time></trkpt><trkpt lat="44.1657035" lon="10.900266"><ele>518.0</ele><time>2026-03-28T12:20:27.067Z</time></trkpt><trkpt lat="44.1658247" lon="10.9003834"><ele>519.0</ele><time>2026-03-28T12:20:28.039Z</time></trkpt><trkpt lat="44.1659521" lon="10.9005123"><ele>519.0</ele><time>2026-03-28T12:20:29.069Z</time></trkpt><trkpt lat="44.1660725" lon="10.9006397"><ele>519.0</ele><time>2026-03-28T12:20:30.06Z</time></trkpt><trkpt lat="44.1661927" lon="10.9007753"><ele>519.0</ele><time>2026-03-28T12:20:31.058Z</time></trkpt><trkpt lat="44.1663085" lon="10.9009052"><ele>516.75</ele><time>2026-03-28T12:20:32.055Z</time></trkpt><trkpt lat="44.1664163" lon="10.901027"><ele>514.5</ele><time>2026-03-28T12:20:33.038Z</time></trkpt><trkpt lat="44.1665171" lon="10.9011449"><ele>512.25</ele><time>2026-03-28T12:20:34.07Z</time></trkpt><trkpt lat="44.1666041" lon="10.9012478"><ele>510.0</ele><time>2026-03-28T12:20:35.07Z</time></trkpt><trkpt lat="44.16668" lon="10.9013392"><ele>510.0</ele><time>2026-03-28T12:20:36.062Z</time></trkpt><trkpt lat="44.1667522" lon="10.9014158"><ele>510.0</ele><time>2026-03-28T12:20:37.045Z</time></trkpt><trkpt lat="44.1668254" lon="10.901473"><ele>510.0</ele><time>2026-03-28T12:20:38.039Z</time></trkpt><trkpt lat="44.1669036" lon="10.9015047"><ele>510.0</ele><time>2026-03-28T12:20:39.046Z</time></trkpt><trkpt lat="44.1669862" lon="10.9015139"><ele>510.0</ele><time>2026-03-28T12:20:40.06Z</time></trkpt><trkpt lat="44.16709" lon="10.9015349"><ele>510.0</ele><time>2026-03-28T12:20:41.052Z</time></trkpt><trkpt lat="44.1671971" lon="10.9015"><ele>510.0</ele><time>2026-03-28T12:20:42.049Z</time></trkpt><trkpt lat="44.1672569" lon="10.9013821"><ele>510.0</ele><time>2026-03-28T12:20:43.045Z</time></trkpt><trkpt lat="44.1672776" lon="10.9011419"><ele>510.0</ele><time>2026-03-28T12:20:44.044Z</time></trkpt><trkpt lat="44.1673449" lon="10.9009703"><ele>510.0</ele><time>2026-03-28T12:20:45.047Z</time></trkpt><trkpt lat="44.1674077" lon="10.9007782"><ele>510.0</ele><time>2026-03-28T12:20:46.057Z</time></trkpt><trkpt lat="44.1675216" lon="10.9007137"><ele>510.0</ele><time>2026-03-28T12:20:47.044Z</time></trkpt><trkpt lat="44.1676534" lon="10.9006771"><ele>510.0</ele><time>2026-03-28T12:20:48.05Z</time></trkpt><trkpt lat="44.1677991" lon="10.9006958"><ele>510.0</ele><time>2026-03-28T12:20:49.049Z</time></trkpt><trkpt lat="44.1679272" lon="10.9006772"><ele>510.0</ele><time>2026-03-28T12:20:50.038Z</time></trkpt><trkpt lat="44.1680409" lon="10.9006262"><ele>510.0</ele><time>2026-03-28T12:20:51.046Z</time></trkpt><trkpt lat="44.1681485" lon="10.9005318"><ele>510.0</ele><time>2026-03-28T12:20:52.056Z</time></trkpt><trkpt lat="44.1682405" lon="10.9004078"><ele>510.0</ele><time>2026-03-28T12:20:53.043Z</time></trkpt><trkpt lat="44.1683108" lon="10.900251"><ele>509.5</ele><time>2026-03-28T12:20:54.038Z</time></trkpt><trkpt lat="44.1683828" lon="10.9001098"><ele>509.0</ele><time>2026-03-28T12:20:55.037Z</time></trkpt><trkpt lat="44.1684635" lon="10.899994"><ele>508.5</ele><time>2026-03-28T12:20:56.052Z</time></trkpt><trkpt lat="44.1685496" lon="10.8999186"><ele>508.0</ele><time>2026-03-28T12:20:57.062Z</time></trkpt><trkpt lat="44.1686564" lon="10.899867"><ele>508.0</ele><time>2026-03-28T12:20:58.069Z</time></trkpt><trkpt lat="44.1687837" lon="10.899872"><ele>508.0</ele><time>2026-03-28T12:20:59.044Z</time></trkpt><trkpt lat="44.1689412" lon="10.8998699"><ele>508.0</ele><time>2026-03-28T12:21:00.035Z</time></trkpt><trkpt lat="44.1691018" lon="10.899822"><ele>508.0</ele><time>2026-03-28T12:21:01.049Z</time></trkpt><trkpt lat="44.1692245" lon="10.8997614"><ele>505.5</ele><time>2026-03-28T12:21:02.07Z</time></trkpt><trkpt lat="44.1693223" lon="10.8996833"><ele>503.0</ele><time>2026-03-28T12:21:03.061Z</time></trkpt><trkpt lat="44.1694223" lon="10.8996001"><ele>500.5</ele><time>2026-03-28T12:21:04.075Z</time></trkpt><trkpt lat="44.1695165" lon="10.8994998"><ele>498.0</ele><time>2026-03-28T12:21:05.033Z</time></trkpt><trkpt lat="44.1696133" lon="10.8993742"><ele>503.0</ele><time>2026-03-28T12:21:06.046Z</time></trkpt><trkpt lat="44.1696949" lon="10.8992255"><ele>508.0</ele><time>2026-03-28T12:21:07.055Z</time></trkpt><trkpt lat="44.1697512" lon="10.8990546"><ele>513.0</ele><time>2026-03-28T12:21:08.039Z</time></trkpt><trkpt lat="44.1697935" lon="10.8988811"><ele>518.0</ele><time>2026-03-28T12:21:09.054Z</time></trkpt><trkpt lat="44.1698324" lon="10.8987262"><ele>514.0</ele><time>2026-03-28T12:21:10.054Z</time></trkpt><trkpt lat="44.1698738" lon="10.8985797"><ele>509.99999999999994</ele><time>2026-03-28T12:21:11.053Z</time></trkpt><trkpt lat="44.1699147" lon="10.8984683"><ele>505.99999999999994</ele><time>2026-03-28T12:21:12.055Z</time></trkpt><trkpt lat="44.1699666" lon="10.898396"><ele>502.0</ele><time>2026-03-28T12:21:13.045Z</time></trkpt><trkpt lat="44.1700524" lon="10.898324"><ele>498.0</ele><time>2026-03-28T12:21:14.053Z</time></trkpt><trkpt lat="44.1701739" lon="10.8982808"><ele>498.0</ele><time>2026-03-28T12:21:15.054Z</time></trkpt><trkpt lat="44.1702998" lon="10.8982704"><ele>498.0</ele><time>2026-03-28T12:21:16.051Z</time></trkpt><trkpt lat="44.1704271" lon="10.8983016"><ele>498.0</ele><time>2026-03-28T12:21:17.054Z</time></trkpt><trkpt lat="44.170532" lon="10.8983743"><ele>498.0</ele><time>2026-03-28T12:21:18.049Z</time></trkpt><trkpt lat="44.1706371" lon="10.8984983"><ele>493.66666666666663</ele><time>2026-03-28T12:21:19.055Z</time></trkpt><trkpt lat="44.1707182" lon="10.8986662"><ele>489.3333333333333</ele><time>2026-03-28T12:21:20.047Z</time></trkpt><trkpt lat="44.1707751" lon="10.8988617"><ele>485.0</ele><time>2026-03-28T12:21:21.05Z</time></trkpt><trkpt lat="44.170827" lon="10.8990658"><ele>485.0</ele><time>2026-03-28T12:21:22.054Z</time></trkpt><trkpt lat="44.170908" lon="10.8992386"><ele>485.0</ele><time>2026-03-28T12:21:23.056Z</time></trkpt><trkpt lat="44.171009" lon="10.8993631"><ele>485.0</ele><time>2026-03-28T12:21:24.052Z</time></trkpt><trkpt lat="44.1711162" lon="10.8994313"><ele>485.0</ele><time>2026-03-28T12:21:25.051Z</time></trkpt><trkpt lat="44.1712652" lon="10.8994457"><ele>483.0</ele><time>2026-03-28T12:21:26.052Z</time></trkpt><trkpt lat="44.1714205" lon="10.8994691"><ele>481.0</ele><time>2026-03-28T12:21:27.045Z</time></trkpt><trkpt lat="44.1715842" lon="10.8994929"><ele>479.0</ele><time>2026-03-28T12:21:28.039Z</time></trkpt><trkpt lat="44.1717466" lon="10.8995248"><ele>478.5</ele><time>2026-03-28T12:21:29.061Z</time></trkpt><trkpt lat="44.1718752" lon="10.8995901"><ele>478.0</ele><time>2026-03-28T12:21:30.051Z</time></trkpt><trkpt lat="44.1719802" lon="10.8996627"><ele>477.5</ele><time>2026-03-28T12:21:31.053Z</time></trkpt><trkpt lat="44.1720869" lon="10.899759"><ele>477.0</ele><time>2026-03-28T12:21:32.055Z</time></trkpt><trkpt lat="44.1721882" lon="10.8998809"><ele>477.0</ele><time>2026-03-28T12:21:33.052Z</time></trkpt><trkpt lat="44.1722742" lon="10.9000308"><ele>477.0</ele><time>2026-03-28T12:21:34.049Z</time></trkpt><trkpt lat="44.1723385" lon="10.9002138"><ele>477.0</ele><time>2026-03-28T12:21:35.061Z</time></trkpt><trkpt lat="44.1723739" lon="10.9004165"><ele>477.0</ele><time>2026-03-28T12:21:36.046Z</time></trkpt><trkpt lat="44.1723851" lon="10.9006243"><ele>476.75</ele><time>2026-03-28T12:21:37.049Z</time></trkpt><trkpt lat="44.1723803" lon="10.9008275"><ele>476.5</ele><time>2026-03-28T12:21:38.056Z</time></trkpt><trkpt lat="44.1723657" lon="10.9010222"><ele>476.25</ele><time>2026-03-28T12:21:39.032Z</time></trkpt><trkpt lat="44.1723599" lon="10.9012111"><ele>476.0</ele><time>2026-03-28T12:21:40.053Z</time></trkpt><trkpt lat="44.1723417" lon="10.9014201"><ele>476.0</ele><time>2026-03-28T12:21:41.052Z</time></trkpt><trkpt lat="44.1723198" lon="10.9016427"><ele>476.0</ele><time>2026-03-28T12:21:42.054Z</time></trkpt><trkpt lat="44.1723025" lon="10.9018651"><ele>476.0</ele><time>2026-03-28T12:21:43.047Z</time></trkpt><trkpt lat="44.1723091" lon="10.9020809"><ele>477.75</ele><time>2026-03-28T12:21:44.039Z</time></trkpt><trkpt lat="44.1723422" lon="10.9022828"><ele>479.5</ele><time>2026-03-28T12:21:45.057Z</time></trkpt><trkpt lat="44.1723912" lon="10.9024755"><ele>481.25</ele><time>2026-03-28T12:21:46.054Z</time></trkpt><trkpt lat="44.1724499" lon="10.9026737"><ele>483.0</ele><time>2026-03-28T12:21:47.056Z</time></trkpt><trkpt lat="44.1725081" lon="10.9028705"><ele>484.75</ele><time>2026-03-28T12:21:48.052Z</time></trkpt><trkpt lat="44.172563" lon="10.9030669"><ele>486.5</ele><time>2026-03-28T12:21:49.042Z</time></trkpt><trkpt lat="44.172607" lon="10.9032463"><ele>488.25</ele><time>2026-03-28T12:21:50.056Z</time></trkpt><trkpt lat="44.1726206" lon="10.9034059"><ele>490.0</ele><time>2026-03-28T12:21:51.047Z</time></trkpt><trkpt lat="44.1726013" lon="10.9035535"><ele>490.5</ele><time>2026-03-28T12:21:52.052Z</time></trkpt><trkpt lat="44.1725497" lon="10.903702"><ele>491.0</ele><time>2026-03-28T12:21:53.054Z</time></trkpt><trkpt lat="44.1724613" lon="10.9038239"><ele>491.5</ele><time>2026-03-28T12:21:54.053Z</time></trkpt><trkpt lat="44.1723414" lon="10.9039405"><ele>492.0</ele><time>2026-03-28T12:21:55.047Z</time></trkpt><trkpt lat="44.1722196" lon="10.9040586"><ele>489.66666666666663</ele><time>2026-03-28T12:21:56.047Z</time></trkpt><trkpt lat="44.1721018" lon="10.9041985"><ele>487.3333333333333</ele><time>2026-03-28T12:21:57.051Z</time></trkpt><trkpt lat="44.1719985" lon="10.9043586"><ele>485.0</ele><time>2026-03-28T12:21:58.047Z</time></trkpt><trkpt lat="44.1719053" lon="10.904529"><ele>485.0</ele><time>2026-03-28T12:21:59.046Z</time></trkpt><trkpt lat="44.1718161" lon="10.9047044"><ele>485.0</ele><time>2026-03-28T12:22:00.047Z</time></trkpt><trkpt lat="44.1717338" lon="10.9048704"><ele>485.0</ele><time>2026-03-28T12:22:01.066Z</time></trkpt><trkpt lat="44.1716761" lon="10.9050332"><ele>485.0</ele><time>2026-03-28T12:22:02.039Z</time></trkpt><trkpt lat="44.1716394" lon="10.9052129"><ele>486.66666666666663</ele><time>2026-03-28T12:22:03.053Z</time></trkpt><trkpt lat="44.171634" lon="10.9054086"><ele>488.33333333333337</ele><time>2026-03-28T12:22:04.046Z</time></trkpt><trkpt lat="44.171665" lon="10.9056196"><ele>490.0</ele><time>2026-03-28T12:22:05.055Z</time></trkpt><trkpt lat="44.1717116" lon="10.9058362"><ele>490.6666666666667</ele><time>2026-03-28T12:22:06.045Z</time></trkpt><trkpt lat="44.1717472" lon="10.9060768"><ele>491.33333333333337</ele><time>2026-03-28T12:22:07.049Z</time></trkpt><trkpt lat="44.1717601" lon="10.9063247"><ele>492.0</ele><time>2026-03-28T12:22:08.049Z</time></trkpt><trkpt lat="44.1717558" lon="10.9065688"><ele>490.33333333333337</ele><time>2026-03-28T12:22:09.071Z</time></trkpt><trkpt lat="44.1717558" lon="10.9067904"><ele>488.6666666666667</ele><time>2026-03-28T12:22:10.051Z</time></trkpt><trkpt lat="44.1717736" lon="10.9070141"><ele>487.0</ele><time>2026-03-28T12:22:11.056Z</time></trkpt><trkpt lat="44.1718053" lon="10.9072443"><ele>487.0</ele><time>2026-03-28T12:22:12.065Z</time></trkpt><trkpt lat="44.1718462" lon="10.9074706"><ele>487.0</ele><time>2026-03-28T12:22:13.068Z</time></trkpt><trkpt lat="44.1718878" lon="10.9076954"><ele>487.0</ele><time>2026-03-28T12:22:14.036Z</time></trkpt><trkpt lat="44.1719345" lon="10.9079405"><ele>484.0</ele><time>2026-03-28T12:22:15.071Z</time></trkpt><trkpt lat="44.1719807" lon="10.9081745"><ele>481.0</ele><time>2026-03-28T12:22:16.047Z</time></trkpt><trkpt lat="44.1720305" lon="10.90841"><ele>478.0</ele><time>2026-03-28T12:22:17.041Z</time></trkpt><trkpt lat="44.1720969" lon="10.9086487"><ele>475.6666666666667</ele><time>2026-03-28T12:22:18.055Z</time></trkpt><trkpt lat="44.172178" lon="10.9088799"><ele>473.33333333333337</ele><time>2026-03-28T12:22:19.077Z</time></trkpt><trkpt lat="44.1722628" lon="10.909089"><ele>471.0</ele><time>2026-03-28T12:22:20.064Z</time></trkpt><trkpt lat="44.172339" lon="10.9092751"><ele>473.66666666666663</ele><time>2026-03-28T12:22:21.046Z</time></trkpt><trkpt lat="44.1724234" lon="10.9094628"><ele>476.3333333333333</ele><time>2026-03-28T12:22:22.074Z</time></trkpt><trkpt lat="44.1725044" lon="10.9096411"><ele>479.0</ele><time>2026-03-28T12:22:23.034Z</time></trkpt><trkpt lat="44.1725911" lon="10.9098333"><ele>479.0</ele><time>2026-03-28T12:22:24.043Z</time></trkpt><trkpt lat="44.1726773" lon="10.9100213"><ele>479.0</ele><time>2026-03-28T12:22:25.046Z</time></trkpt><trkpt lat="44.172756" lon="10.9102116"><ele>479.0</ele><time>2026-03-28T12:22:26.063Z</time></trkpt><trkpt lat="44.1728322" lon="10.9103986"><ele>476.66666666666663</ele><time>2026-03-28T12:22:27.048Z</time></trkpt><trkpt lat="44.172893" lon="10.9106171"><ele>474.33333333333337</ele><time>2026-03-28T12:22:28.068Z</time></trkpt><trkpt lat="44.1729231" lon="10.9108536"><ele>472.0</ele><time>2026-03-28T12:22:29.085Z</time></trkpt><trkpt lat="44.1729136" lon="10.9110738"><ele>472.0</ele><time>2026-03-28T12:22:30.054Z</time></trkpt><trkpt lat="44.1728919" lon="10.9113279"><ele>472.0</ele><time>2026-03-28T12:22:31.047Z</time></trkpt><trkpt lat="44.1728613" lon="10.9115742"><ele>472.0</ele><time>2026-03-28T12:22:32.044Z</time></trkpt><trkpt lat="44.1728368" lon="10.9117906"><ele>474.5</ele><time>2026-03-28T12:22:33.055Z</time></trkpt><trkpt lat="44.1728076" lon="10.9119901"><ele>477.0</ele><time>2026-03-28T12:22:34.052Z</time></trkpt><trkpt lat="44.1727614" lon="10.9121595"><ele>479.5</ele><time>2026-03-28T12:22:35.051Z</time></trkpt><trkpt lat="44.1726782" lon="10.9123228"><ele>482.0</ele><time>2026-03-28T12:22:36.058Z</time></trkpt><trkpt lat="44.1725742" lon="10.9124463"><ele>482.0</ele><time>2026-03-28T12:22:37.041Z</time></trkpt><trkpt lat="44.172474" lon="10.9125466"><ele>482.0</ele><time>2026-03-28T12:22:38.039Z</time></trkpt><trkpt lat="44.1723932" lon="10.9126659"><ele>482.0</ele><time>2026-03-28T12:22:39.055Z</time></trkpt><trkpt lat="44.1723478" lon="10.9128125"><ele>482.0</ele><time>2026-03-28T12:22:40.04Z</time></trkpt><trkpt lat="44.1723351" lon="10.913015"><ele>484.3333333333333</ele><time>2026-03-28T12:22:41.074Z</time></trkpt><trkpt lat="44.1723653" lon="10.9132082"><ele>486.66666666666663</ele><time>2026-03-28T12:22:42.049Z</time></trkpt><trkpt lat="44.1724248" lon="10.9134335"><ele>489.0</ele><time>2026-03-28T12:22:43.04Z</time></trkpt><trkpt lat="44.1724928" lon="10.9136638"><ele>489.0</ele><time>2026-03-28T12:22:44.034Z</time></trkpt><trkpt lat="44.1725626" lon="10.9139076"><ele>489.0</ele><time>2026-03-28T12:22:45.04Z</time></trkpt><trkpt lat="44.1726252" lon="10.9141299"><ele>489.0</ele><time>2026-03-28T12:22:46.041Z</time></trkpt><trkpt lat="44.1726906" lon="10.9143417"><ele>489.0</ele><time>2026-03-28T12:22:47.062Z</time></trkpt><trkpt lat="44.1727559" lon="10.914539"><ele>489.0</ele><time>2026-03-28T12:22:48.04Z</time></trkpt><trkpt lat="44.1728255" lon="10.9147333"><ele>489.0</ele><time>2026-03-28T12:22:49.043Z</time></trkpt><trkpt lat="44.172911" lon="10.9149179"><ele>491.5</ele><time>2026-03-28T12:22:50.034Z</time></trkpt><trkpt lat="44.1730082" lon="10.9150803"><ele>494.0</ele><time>2026-03-28T12:22:51.033Z</time></trkpt><trkpt lat="44.1731101" lon="10.915232"><ele>496.5</ele><time>2026-03-28T12:22:52.047Z</time></trkpt><trkpt lat="44.1731988" lon="10.9153726"><ele>499.0</ele><time>2026-03-28T12:22:53.053Z</time></trkpt><trkpt lat="44.1732667" lon="10.9155174"><ele>499.0</ele><time>2026-03-28T12:22:54.045Z</time></trkpt><trkpt lat="44.173307" lon="10.9156634"><ele>499.0</ele><time>2026-03-28T12:22:55.034Z</time></trkpt><trkpt lat="44.1733261" lon="10.91584"><ele>499.0</ele><time>2026-03-28T12:22:56.05Z</time></trkpt><trkpt lat="44.1733268" lon="10.9160334"><ele>499.0</ele><time>2026-03-28T12:22:57.044Z</time></trkpt><trkpt lat="44.1733204" lon="10.9162284"><ele>499.25</ele><time>2026-03-28T12:22:58.045Z</time></trkpt><trkpt lat="44.1733038" lon="10.9164266"><ele>499.5</ele><time>2026-03-28T12:22:59.053Z</time></trkpt><trkpt lat="44.1732995" lon="10.9166234"><ele>499.75</ele><time>2026-03-28T12:23:00.054Z</time></trkpt><trkpt lat="44.1733081" lon="10.9168369"><ele>500.0</ele><time>2026-03-28T12:23:01.047Z</time></trkpt><trkpt lat="44.1733301" lon="10.9170436"><ele>499.0</ele><time>2026-03-28T12:23:02.045Z</time></trkpt><trkpt lat="44.1733604" lon="10.9172478"><ele>498.0</ele><time>2026-03-28T12:23:03.042Z</time></trkpt><trkpt lat="44.1733943" lon="10.9174444"><ele>497.0</ele><time>2026-03-28T12:23:04.051Z</time></trkpt><trkpt lat="44.1734278" lon="10.9176296"><ele>496.0</ele><time>2026-03-28T12:23:05.053Z</time></trkpt><trkpt lat="44.1734628" lon="10.9178022"><ele>493.0</ele><time>2026-03-28T12:23:06.043Z</time></trkpt><trkpt lat="44.1735165" lon="10.9179553"><ele>490.0</ele><time>2026-03-28T12:23:07.056Z</time></trkpt><trkpt lat="44.1735946" lon="10.9180785"><ele>487.0</ele><time>2026-03-28T12:23:08.045Z</time></trkpt><trkpt lat="44.1737155" lon="10.9182056"><ele>484.0</ele><time>2026-03-28T12:23:09.049Z</time></trkpt><trkpt lat="44.1738288" lon="10.9183174"><ele>482.75</ele><time>2026-03-28T12:23:10.063Z</time></trkpt><trkpt lat="44.1739183" lon="10.918441"><ele>481.5</ele><time>2026-03-28T12:23:11.064Z</time></trkpt><trkpt lat="44.1739841" lon="10.9185921"><ele>480.25</ele><time>2026-03-28T12:23:12.055Z</time></trkpt><trkpt lat="44.1740213" lon="10.9187622"><ele>479.0</ele><time>2026-03-28T12:23:13.053Z</time></trkpt><trkpt lat="44.1740326" lon="10.9189392"><ele>479.0</ele><time>2026-03-28T12:23:14.045Z</time></trkpt><trkpt lat="44.1740095" lon="10.9191193"><ele>479.0</ele><time>2026-03-28T12:23:15.053Z</time></trkpt><trkpt lat="44.1739564" lon="10.9192982"><ele>479.0</ele><time>2026-03-28T12:23:16.048Z</time></trkpt><trkpt lat="44.1738842" lon="10.9194681"><ele>479.0</ele><time>2026-03-28T12:23:17.053Z</time></trkpt><trkpt lat="44.1738228" lon="10.9196458"><ele>479.5</ele><time>2026-03-28T12:23:18.054Z</time></trkpt><trkpt lat="44.1737948" lon="10.9198352"><ele>480.0</ele><time>2026-03-28T12:23:19.054Z</time></trkpt><trkpt lat="44.1738069" lon="10.920042"><ele>480.5</ele><time>2026-03-28T12:23:20.048Z</time></trkpt><trkpt lat="44.1738607" lon="10.920221"><ele>481.0</ele><time>2026-03-28T12:23:21.055Z</time></trkpt><trkpt lat="44.1739476" lon="10.9203758"><ele>485.6666666666667</ele><time>2026-03-28T12:23:22.053Z</time></trkpt><trkpt lat="44.1740702" lon="10.9205106"><ele>490.33333333333337</ele><time>2026-03-28T12:23:23.041Z</time></trkpt><trkpt lat="44.1742167" lon="10.920591"><ele>495.0</ele><time>2026-03-28T12:23:24.041Z</time></trkpt><trkpt lat="44.1743804" lon="10.9206425"><ele>495.0</ele><time>2026-03-28T12:23:25.05Z</time></trkpt><trkpt lat="44.1745396" lon="10.9206878"><ele>495.0</ele><time>2026-03-28T12:23:26.04Z</time></trkpt><trkpt lat="44.1746911" lon="10.9207567"><ele>495.0</ele><time>2026-03-28T12:23:27.053Z</time></trkpt><trkpt lat="44.1748302" lon="10.9208713"><ele>492.33333333333337</ele><time>2026-03-28T12:23:28.049Z</time></trkpt><trkpt lat="44.1749768" lon="10.9210103"><ele>489.6666666666667</ele><time>2026-03-28T12:23:29.066Z</time></trkpt><trkpt lat="44.1751146" lon="10.9211411"><ele>487.0</ele><time>2026-03-28T12:23:30.05Z</time></trkpt><trkpt lat="44.1752547" lon="10.9212709"><ele>487.0</ele><time>2026-03-28T12:23:31.068Z</time></trkpt><trkpt lat="44.175379" lon="10.9213876"><ele>487.0</ele><time>2026-03-28T12:23:32.043Z</time></trkpt><trkpt lat="44.1754831" lon="10.9215108"><ele>487.0</ele><time>2026-03-28T12:23:33.059Z</time></trkpt><trkpt lat="44.175548" lon="10.9216547"><ele>487.0</ele><time>2026-03-28T12:23:34.055Z</time></trkpt><trkpt lat="44.175574" lon="10.9218353"><ele>484.75</ele><time>2026-03-28T12:23:35.06Z</time></trkpt><trkpt lat="44.1755686" lon="10.9220348"><ele>482.5</ele><time>2026-03-28T12:23:36.06Z</time></trkpt><trkpt lat="44.1755469" lon="10.922237"><ele>480.25</ele><time>2026-03-28T12:23:37.067Z</time></trkpt><trkpt lat="44.17554" lon="10.9224469"><ele>478.0</ele><time>2026-03-28T12:23:38.062Z</time></trkpt><trkpt lat="44.1755632" lon="10.9226363"><ele>476.0</ele><time>2026-03-28T12:23:39.034Z</time></trkpt><trkpt lat="44.1756218" lon="10.9228294"><ele>474.0</ele><time>2026-03-28T12:23:40.044Z</time></trkpt><trkpt lat="44.1757036" lon="10.9230064"><ele>472.0</ele><time>2026-03-28T12:23:41.052Z</time></trkpt><trkpt lat="44.1757695" lon="10.9231767"><ele>470.0</ele><time>2026-03-28T12:23:42.063Z</time></trkpt><trkpt lat="44.175805" lon="10.9233516"><ele>470.66666666666663</ele><time>2026-03-28T12:23:43.054Z</time></trkpt><trkpt lat="44.1757939" lon="10.9235451"><ele>471.33333333333337</ele><time>2026-03-28T12:23:44.053Z</time></trkpt><trkpt lat="44.1757449" lon="10.9237793"><ele>472.0</ele><time>2026-03-28T12:23:45.045Z</time></trkpt><trkpt lat="44.1756752" lon="10.9240243"><ele>471.0</ele><time>2026-03-28T12:23:46.05Z</time></trkpt><trkpt lat="44.1756072" lon="10.9242428"><ele>470.0</ele><time>2026-03-28T12:23:47.057Z</time></trkpt><trkpt lat="44.175548" lon="10.9244139"><ele>469.0</ele><time>2026-03-28T12:23:48.051Z</time></trkpt><trkpt lat="44.1755183" lon="10.9245395"><ele>468.0</ele><time>2026-03-28T12:23:49.062Z</time></trkpt><trkpt lat="44.1754852" lon="10.9246615"><ele>468.0</ele><time>2026-03-28T12:23:50.058Z</time></trkpt><trkpt lat="44.1754665" lon="10.9247795"><ele>467.99999999999994</ele><time>2026-03-28T12:23:51.051Z</time></trkpt><trkpt lat="44.1754723" lon="10.9248904"><ele>467.99999999999994</ele><time>2026-03-28T12:23:52.054Z</time></trkpt><trkpt lat="44.1754974" lon="10.9249884"><ele>468.0</ele><time>2026-03-28T12:23:53.066Z</time></trkpt><trkpt lat="44.1754831" lon="10.9250769"><ele>468.0</ele><time>2026-03-28T12:23:54.047Z</time></trkpt><trkpt lat="44.1756041" lon="10.9252195"><ele>469.0</ele><time>2026-03-28T12:23:56.057Z</time></trkpt><trkpt lat="44.1757539" lon="10.925303"><ele>470.0</ele><time>2026-03-28T12:23:57.045Z</time></trkpt><trkpt lat="44.1760442" lon="10.9253786"><ele>470.0</ele><time>2026-03-28T12:23:58.058Z</time></trkpt><trkpt lat="44.1763388" lon="10.9254511"><ele>470.0</ele><time>2026-03-28T12:23:59.043Z</time></trkpt><trkpt lat="44.1764849" lon="10.9255163"><ele>473.25</ele><time>2026-03-28T12:24:00.047Z</time></trkpt><trkpt lat="44.1766093" lon="10.9255846"><ele>476.5</ele><time>2026-03-28T12:24:01.06Z</time></trkpt><trkpt lat="44.1767079" lon="10.9256621"><ele>479.75</ele><time>2026-03-28T12:24:02.049Z</time></trkpt><trkpt lat="44.1767883" lon="10.925758"><ele>483.0</ele><time>2026-03-28T12:24:03.052Z</time></trkpt><trkpt lat="44.1768498" lon="10.9258864"><ele>481.25</ele><time>2026-03-28T12:24:04.056Z</time></trkpt><trkpt lat="44.176875" lon="10.9260617"><ele>479.5</ele><time>2026-03-28T12:24:05.06Z</time></trkpt><trkpt lat="44.1768741" lon="10.9262534"><ele>477.75</ele><time>2026-03-28T12:24:06.041Z</time></trkpt><trkpt lat="44.1768897" lon="10.9264556"><ele>476.0</ele><time>2026-03-28T12:24:07.057Z</time></trkpt><trkpt lat="44.1769375" lon="10.9266372"><ele>475.0</ele><time>2026-03-28T12:24:08.057Z</time></trkpt><trkpt lat="44.1770183" lon="10.926804"><ele>474.0</ele><time>2026-03-28T12:24:09.061Z</time></trkpt><trkpt lat="44.1771118" lon="10.926953"><ele>473.0</ele><time>2026-03-28T12:24:10.066Z</time></trkpt><trkpt lat="44.1771762" lon="10.9270944"><ele>472.0</ele><time>2026-03-28T12:24:11.066Z</time></trkpt><trkpt lat="44.1772121" lon="10.9272515"><ele>472.0</ele><time>2026-03-28T12:24:12.046Z</time></trkpt><trkpt lat="44.1772185" lon="10.9274309"><ele>472.0</ele><time>2026-03-28T12:24:13.04Z</time></trkpt><trkpt lat="44.1772076" lon="10.9276365"><ele>472.0</ele><time>2026-03-28T12:24:14.047Z</time></trkpt><trkpt lat="44.1771711" lon="10.9278466"><ele>472.0</ele><time>2026-03-28T12:24:15.034Z</time></trkpt><trkpt lat="44.1771115" lon="10.9280504"><ele>473.75</ele><time>2026-03-28T12:24:16.05Z</time></trkpt><trkpt lat="44.1770388" lon="10.9282483"><ele>475.5</ele><time>2026-03-28T12:24:17.059Z</time></trkpt><trkpt lat="44.1769766" lon="10.9284342"><ele>477.25</ele><time>2026-03-28T12:24:18.063Z</time></trkpt><trkpt lat="44.1769388" lon="10.9285913"><ele>479.0</ele><time>2026-03-28T12:24:19.054Z</time></trkpt><trkpt lat="44.1769353" lon="10.9287777"><ele>479.0</ele><time>2026-03-28T12:24:20.062Z</time></trkpt><trkpt lat="44.1769325" lon="10.9290262"><ele>479.0</ele><time>2026-03-28T12:24:21.382Z</time></trkpt><trkpt lat="44.1771579" lon="10.9292907"><ele>481.0</ele><time>2026-03-28T12:24:23.099Z</time></trkpt><trkpt lat="44.1772784" lon="10.9294396"><ele>483.0</ele><time>2026-03-28T12:24:24.098Z</time></trkpt><trkpt lat="44.1774064" lon="10.9295905"><ele>485.0</ele><time>2026-03-28T12:24:25.112Z</time></trkpt><trkpt lat="44.1775361" lon="10.9297416"><ele>485.0</ele><time>2026-03-28T12:24:26.118Z</time></trkpt><trkpt lat="44.1776585" lon="10.929884"><ele>485.0</ele><time>2026-03-28T12:24:27.067Z</time></trkpt><trkpt lat="44.1777716" lon="10.9300192"><ele>485.0</ele><time>2026-03-28T12:24:28.04Z</time></trkpt><trkpt lat="44.1778733" lon="10.9301529"><ele>485.0</ele><time>2026-03-28T12:24:29.056Z</time></trkpt><trkpt lat="44.1779564" lon="10.9303103"><ele>480.66666666666663</ele><time>2026-03-28T12:24:30.034Z</time></trkpt><trkpt lat="44.1780171" lon="10.9305083"><ele>476.33333333333337</ele><time>2026-03-28T12:24:31.05Z</time></trkpt><trkpt lat="44.1780616" lon="10.9307285"><ele>472.0</ele><time>2026-03-28T12:24:32.051Z</time></trkpt><trkpt lat="44.1780973" lon="10.9309517"><ele>472.0</ele><time>2026-03-28T12:24:33.068Z</time></trkpt><trkpt lat="44.1781424" lon="10.9311461"><ele>472.0</ele><time>2026-03-28T12:24:34.053Z</time></trkpt><trkpt lat="44.1782107" lon="10.9313163"><ele>472.0</ele><time>2026-03-28T12:24:35.059Z</time></trkpt><trkpt lat="44.1783006" lon="10.9314651"><ele>472.0</ele><time>2026-03-28T12:24:36.045Z</time></trkpt><trkpt lat="44.1784072" lon="10.9316028"><ele>473.75</ele><time>2026-03-28T12:24:37.049Z</time></trkpt><trkpt lat="44.1785152" lon="10.9317302"><ele>475.5</ele><time>2026-03-28T12:24:38.063Z</time></trkpt><trkpt lat="44.1786003" lon="10.9318638"><ele>477.25</ele><time>2026-03-28T12:24:39.049Z</time></trkpt><trkpt lat="44.1786499" lon="10.932028"><ele>479.0</ele><time>2026-03-28T12:24:40.049Z</time></trkpt><trkpt lat="44.1786613" lon="10.9322254"><ele>479.0</ele><time>2026-03-28T12:24:41.04Z</time></trkpt><trkpt lat="44.1786448" lon="10.932449"><ele>479.0</ele><time>2026-03-28T12:24:42.056Z</time></trkpt><trkpt lat="44.1786178" lon="10.9326715"><ele>479.0</ele><time>2026-03-28T12:24:43.042Z</time></trkpt><trkpt lat="44.1785866" lon="10.9329021"><ele>476.66666666666663</ele><time>2026-03-28T12:24:44.058Z</time></trkpt><trkpt lat="44.178587" lon="10.9331208"><ele>474.33333333333337</ele><time>2026-03-28T12:24:45.049Z</time></trkpt><trkpt lat="44.1786132" lon="10.933333"><ele>472.0</ele><time>2026-03-28T12:24:46.05Z</time></trkpt><trkpt lat="44.1786659" lon="10.9335348"><ele>468.6666666666667</ele><time>2026-03-28T12:24:47.054Z</time></trkpt><trkpt lat="44.1787434" lon="10.9337315"><ele>465.33333333333337</ele><time>2026-03-28T12:24:48.051Z</time></trkpt><trkpt lat="44.1788444" lon="10.9339126"><ele>462.0</ele><time>2026-03-28T12:24:49.059Z</time></trkpt><trkpt lat="44.1789499" lon="10.9340848"><ele>465.33333333333337</ele><time>2026-03-28T12:24:50.067Z</time></trkpt><trkpt lat="44.1790443" lon="10.9342479"><ele>468.6666666666667</ele><time>2026-03-28T12:24:51.055Z</time></trkpt><trkpt lat="44.1791293" lon="10.9344286"><ele>472.0</ele><time>2026-03-28T12:24:52.059Z</time></trkpt><trkpt lat="44.1792059" lon="10.934613"><ele>472.0</ele><time>2026-03-28T12:24:53.054Z</time></trkpt><trkpt lat="44.1792808" lon="10.9348004"><ele>472.0</ele><time>2026-03-28T12:24:54.076Z</time></trkpt><trkpt lat="44.1793495" lon="10.9349729"><ele>472.0</ele><time>2026-03-28T12:24:55.039Z</time></trkpt><trkpt lat="44.1794232" lon="10.9351549"><ele>472.0</ele><time>2026-03-28T12:24:56.064Z</time></trkpt><trkpt lat="44.1795066" lon="10.9353179"><ele>471.6666666666667</ele><time>2026-03-28T12:24:57.057Z</time></trkpt><trkpt lat="44.179604" lon="10.9354666"><ele>471.33333333333337</ele><time>2026-03-28T12:24:58.044Z</time></trkpt><trkpt lat="44.1797211" lon="10.935596"><ele>471.0</ele><time>2026-03-28T12:24:59.048Z</time></trkpt><trkpt lat="44.1798578" lon="10.9357112"><ele>471.33333333333337</ele><time>2026-03-28T12:25:00.04Z</time></trkpt><trkpt lat="44.1800143" lon="10.9358136"><ele>471.6666666666667</ele><time>2026-03-28T12:25:01.061Z</time></trkpt><trkpt lat="44.180168" lon="10.9359087"><ele>472.0</ele><time>2026-03-28T12:25:02.049Z</time></trkpt><trkpt lat="44.1803238" lon="10.9360062"><ele>472.0</ele><time>2026-03-28T12:25:03.067Z</time></trkpt><trkpt lat="44.1804732" lon="10.9361004"><ele>472.0</ele><time>2026-03-28T12:25:04.05Z</time></trkpt><trkpt lat="44.1806185" lon="10.9361889"><ele>472.0</ele><time>2026-03-28T12:25:05.058Z</time></trkpt><trkpt lat="44.18075" lon="10.9362701"><ele>473.0</ele><time>2026-03-28T12:25:06.053Z</time></trkpt><trkpt lat="44.1808589" lon="10.9363482"><ele>474.00000000000006</ele><time>2026-03-28T12:25:07.06Z</time></trkpt><trkpt lat="44.1809399" lon="10.9364421"><ele>475.00000000000006</ele><time>2026-03-28T12:25:08.042Z</time></trkpt><trkpt lat="44.1809833" lon="10.9365638"><ele>476.0</ele><time>2026-03-28T12:25:09.041Z</time></trkpt><trkpt lat="44.180991" lon="10.9367169"><ele>477.0</ele><time>2026-03-28T12:25:10.068Z</time></trkpt><trkpt lat="44.180957" lon="10.9368739"><ele>477.0</ele><time>2026-03-28T12:25:11.063Z</time></trkpt><trkpt lat="44.1808839" lon="10.9370337"><ele>477.0</ele><time>2026-03-28T12:25:12.056Z</time></trkpt><trkpt lat="44.1807779" lon="10.9371971"><ele>477.0</ele><time>2026-03-28T12:25:13.05Z</time></trkpt><trkpt lat="44.1806662" lon="10.9373536"><ele>475.0</ele><time>2026-03-28T12:25:14.043Z</time></trkpt><trkpt lat="44.1805637" lon="10.9375038"><ele>473.0</ele><time>2026-03-28T12:25:15.058Z</time></trkpt><trkpt lat="44.1804736" lon="10.937638"><ele>471.0</ele><time>2026-03-28T12:25:16.047Z</time></trkpt><trkpt lat="44.1804051" lon="10.9377805"><ele>469.0</ele><time>2026-03-28T12:25:17.046Z</time></trkpt><trkpt lat="44.1803661" lon="10.9379317"><ele>467.25</ele><time>2026-03-28T12:25:18.035Z</time></trkpt><trkpt lat="44.1803547" lon="10.9381047"><ele>465.5</ele><time>2026-03-28T12:25:19.053Z</time></trkpt><trkpt lat="44.180374" lon="10.9382885"><ele>463.75</ele><time>2026-03-28T12:25:20.058Z</time></trkpt><trkpt lat="44.1804261" lon="10.9384631"><ele>462.0</ele><time>2026-03-28T12:25:21.042Z</time></trkpt><trkpt lat="44.1805102" lon="10.9386198"><ele>461.0</ele><time>2026-03-28T12:25:22.042Z</time></trkpt><trkpt lat="44.1806271" lon="10.9387541"><ele>460.0</ele><time>2026-03-28T12:25:23.045Z</time></trkpt><trkpt lat="44.1807618" lon="10.9388697"><ele>459.0</ele><time>2026-03-28T12:25:24.047Z</time></trkpt><trkpt lat="44.1809048" lon="10.9389798"><ele>458.0</ele><time>2026-03-28T12:25:25.046Z</time></trkpt><trkpt lat="44.1810471" lon="10.9390925"><ele>457.0</ele><time>2026-03-28T12:25:26.061Z</time></trkpt><trkpt lat="44.1811806" lon="10.9392006"><ele>456.0</ele><time>2026-03-28T12:25:27.059Z</time></trkpt><trkpt lat="44.1813125" lon="10.9393038"><ele>456.0</ele><time>2026-03-28T12:25:28.043Z</time></trkpt><trkpt lat="44.1814384" lon="10.9394035"><ele>456.0</ele><time>2026-03-28T12:25:29.034Z</time></trkpt><trkpt lat="44.1815675" lon="10.9395069"><ele>456.0</ele><time>2026-03-28T12:25:30.053Z</time></trkpt><trkpt lat="44.1816909" lon="10.9396167"><ele>456.0</ele><time>2026-03-28T12:25:31.058Z</time></trkpt><trkpt lat="44.1818011" lon="10.9397367"><ele>457.0</ele><time>2026-03-28T12:25:32.051Z</time></trkpt><trkpt lat="44.1819046" lon="10.9398803"><ele>458.0</ele><time>2026-03-28T12:25:33.077Z</time></trkpt><trkpt lat="44.1819923" lon="10.9400266"><ele>459.0</ele><time>2026-03-28T12:25:34.048Z</time></trkpt><trkpt lat="44.1820855" lon="10.9401578"><ele>460.0</ele><time>2026-03-28T12:25:35.057Z</time></trkpt><trkpt lat="44.1821863" lon="10.9402501"><ele>459.0</ele><time>2026-03-28T12:25:36.055Z</time></trkpt><trkpt lat="44.1822891" lon="10.9403144"><ele>458.0</ele><time>2026-03-28T12:25:37.044Z</time></trkpt><trkpt lat="44.182393" lon="10.9403698"><ele>457.0</ele><time>2026-03-28T12:25:38.057Z</time></trkpt><trkpt lat="44.1824835" lon="10.9404575"><ele>456.0</ele><time>2026-03-28T12:25:39.064Z</time></trkpt><trkpt lat="44.1825603" lon="10.9405791"><ele>456.0</ele><time>2026-03-28T12:25:40.05Z</time></trkpt><trkpt lat="44.1826063" lon="10.9407454"><ele>456.0</ele><time>2026-03-28T12:25:41.044Z</time></trkpt><trkpt lat="44.1826181" lon="10.940965"><ele>456.0</ele><time>2026-03-28T12:25:42.043Z</time></trkpt><trkpt lat="44.1826107" lon="10.9412022"><ele>454.33333333333337</ele><time>2026-03-28T12:25:43.042Z</time></trkpt><trkpt lat="44.1825934" lon="10.9414385"><ele>452.6666666666667</ele><time>2026-03-28T12:25:44.068Z</time></trkpt><trkpt lat="44.1825788" lon="10.9416547"><ele>451.0</ele><time>2026-03-28T12:25:45.047Z</time></trkpt><trkpt lat="44.1825603" lon="10.9418717"><ele>449.75</ele><time>2026-03-28T12:25:46.051Z</time></trkpt><trkpt lat="44.1825439" lon="10.9420813"><ele>448.5</ele><time>2026-03-28T12:25:47.053Z</time></trkpt><trkpt lat="44.1825293" lon="10.9422748"><ele>447.25</ele><time>2026-03-28T12:25:48.048Z</time></trkpt><trkpt lat="44.182518" lon="10.942467"><ele>446.0</ele><time>2026-03-28T12:25:49.054Z</time></trkpt><trkpt lat="44.1825041" lon="10.942654"><ele>445.0</ele><time>2026-03-28T12:25:50.067Z</time></trkpt><trkpt lat="44.1824909" lon="10.9428288"><ele>444.0</ele><time>2026-03-28T12:25:51.048Z</time></trkpt><trkpt lat="44.182483" lon="10.9429993"><ele>443.0</ele><time>2026-03-28T12:25:52.046Z</time></trkpt><trkpt lat="44.1824829" lon="10.9431521"><ele>442.0</ele><time>2026-03-28T12:25:53.064Z</time></trkpt><trkpt lat="44.1824939" lon="10.9432782"><ele>441.0</ele><time>2026-03-28T12:25:54.039Z</time></trkpt><trkpt lat="44.1825273" lon="10.9433789"><ele>441.0</ele><time>2026-03-28T12:25:55.037Z</time></trkpt><trkpt lat="44.1825909" lon="10.9434456"><ele>441.0</ele><time>2026-03-28T12:25:56.056Z</time></trkpt><trkpt lat="44.1826909" lon="10.94346"><ele>441.0</ele><time>2026-03-28T12:25:57.054Z</time></trkpt><trkpt lat="44.1827956" lon="10.9434119"><ele>441.0</ele><time>2026-03-28T12:25:58.048Z</time></trkpt><trkpt lat="44.1829037" lon="10.9433142"><ele>441.0</ele><time>2026-03-28T12:25:59.057Z</time></trkpt><trkpt lat="44.1830119" lon="10.9432108"><ele>441.0</ele><time>2026-03-28T12:26:00.064Z</time></trkpt><trkpt lat="44.1831043" lon="10.94313"><ele>441.0</ele><time>2026-03-28T12:26:01.045Z</time></trkpt><trkpt lat="44.1831975" lon="10.9430982"><ele>441.0</ele><time>2026-03-28T12:26:02.052Z</time></trkpt><trkpt lat="44.183272" lon="10.9431283"><ele>441.0</ele><time>2026-03-28T12:26:03.048Z</time></trkpt><trkpt lat="44.1833468" lon="10.9432076"><ele>441.0</ele><time>2026-03-28T12:26:04.05Z</time></trkpt><trkpt lat="44.1834035" lon="10.9433366"><ele>439.5</ele><time>2026-03-28T12:26:05.053Z</time></trkpt><trkpt lat="44.1834306" lon="10.9434994"><ele>438.0</ele><time>2026-03-28T12:26:06.046Z</time></trkpt><trkpt lat="44.183446" lon="10.9436776"><ele>436.5</ele><time>2026-03-28T12:26:07.052Z</time></trkpt><trkpt lat="44.1834687" lon="10.9438425"><ele>435.0</ele><time>2026-03-28T12:26:08.055Z</time></trkpt><trkpt lat="44.1835222" lon="10.9439933"><ele>435.0</ele><time>2026-03-28T12:26:09.043Z</time></trkpt><trkpt lat="44.1835992" lon="10.9441433"><ele>435.0</ele><time>2026-03-28T12:26:10.044Z</time></trkpt><trkpt lat="44.183679" lon="10.94429"><ele>435.0</ele><time>2026-03-28T12:26:11.055Z</time></trkpt><trkpt lat="44.1837617" lon="10.9444324"><ele>435.0</ele><time>2026-03-28T12:26:12.061Z</time></trkpt><trkpt lat="44.1838416" lon="10.9445562"><ele>433.25</ele><time>2026-03-28T12:26:13.048Z</time></trkpt><trkpt lat="44.1839366" lon="10.9446535"><ele>431.5</ele><time>2026-03-28T12:26:14.075Z</time></trkpt><trkpt lat="44.1840342" lon="10.9447102"><ele>429.75</ele><time>2026-03-28T12:26:15.047Z</time></trkpt><trkpt lat="44.1841456" lon="10.9447285"><ele>428.0</ele><time>2026-03-28T12:26:16.045Z</time></trkpt><trkpt lat="44.1842606" lon="10.9446991"><ele>427.25</ele><time>2026-03-28T12:26:17.05Z</time></trkpt><trkpt lat="44.1843709" lon="10.9446227"><ele>426.5</ele><time>2026-03-28T12:26:18.049Z</time></trkpt><trkpt lat="44.1844784" lon="10.944512"><ele>425.75</ele><time>2026-03-28T12:26:19.056Z</time></trkpt><trkpt lat="44.1845859" lon="10.9443805"><ele>425.0</ele><time>2026-03-28T12:26:20.05Z</time></trkpt><trkpt lat="44.184689" lon="10.9442428"><ele>424.5</ele><time>2026-03-28T12:26:21.05Z</time></trkpt><trkpt lat="44.1847877" lon="10.9441025"><ele>424.0</ele><time>2026-03-28T12:26:22.065Z</time></trkpt><trkpt lat="44.1848694" lon="10.9439792"><ele>423.5</ele><time>2026-03-28T12:26:23.054Z</time></trkpt><trkpt lat="44.1849432" lon="10.9438651"><ele>423.0</ele><time>2026-03-28T12:26:24.048Z</time></trkpt><trkpt lat="44.1850185" lon="10.9437611"><ele>423.0</ele><time>2026-03-28T12:26:25.059Z</time></trkpt><trkpt lat="44.1850978" lon="10.9436682"><ele>423.0</ele><time>2026-03-28T12:26:26.053Z</time></trkpt><trkpt lat="44.1851944" lon="10.9436033"><ele>423.0</ele><time>2026-03-28T12:26:27.063Z</time></trkpt><trkpt lat="44.1853013" lon="10.9435724"><ele>423.0</ele><time>2026-03-28T12:26:28.052Z</time></trkpt><trkpt lat="44.1854372" lon="10.9435805"><ele>423.0</ele><time>2026-03-28T12:26:29.067Z</time></trkpt><trkpt lat="44.1855774" lon="10.9436295"><ele>423.0</ele><time>2026-03-28T12:26:30.054Z</time></trkpt><trkpt lat="44.1857258" lon="10.9437156"><ele>423.0</ele><time>2026-03-28T12:26:31.083Z</time></trkpt><trkpt lat="44.185847" lon="10.9438232"><ele>423.0</ele><time>2026-03-28T12:26:32.044Z</time></trkpt><trkpt lat="44.1859628" lon="10.9439433"><ele>423.0</ele><time>2026-03-28T12:26:33.062Z</time></trkpt><trkpt lat="44.1860638" lon="10.9440692"><ele>423.0</ele><time>2026-03-28T12:26:34.053Z</time></trkpt><trkpt lat="44.186157" lon="10.9441938"><ele>423.0</ele><time>2026-03-28T12:26:35.044Z</time></trkpt><trkpt lat="44.1862499" lon="10.9443267"><ele>423.0</ele><time>2026-03-28T12:26:36.062Z</time></trkpt><trkpt lat="44.1863401" lon="10.9444611"><ele>424.25</ele><time>2026-03-28T12:26:37.052Z</time></trkpt><trkpt lat="44.1864286" lon="10.9446035"><ele>425.5</ele><time>2026-03-28T12:26:38.06Z</time></trkpt><trkpt lat="44.1865186" lon="10.9447446"><ele>426.75</ele><time>2026-03-28T12:26:39.056Z</time></trkpt><trkpt lat="44.1866113" lon="10.9448897"><ele>428.0</ele><time>2026-03-28T12:26:40.065Z</time></trkpt><trkpt lat="44.1867047" lon="10.9450411"><ele>427.0</ele><time>2026-03-28T12:26:41.054Z</time></trkpt><trkpt lat="44.1867935" lon="10.945204"><ele>426.0</ele><time>2026-03-28T12:26:42.057Z</time></trkpt><trkpt lat="44.1868759" lon="10.9453764"><ele>425.0</ele><time>2026-03-28T12:26:43.045Z</time></trkpt><trkpt lat="44.1869557" lon="10.945556"><ele>424.0</ele><time>2026-03-28T12:26:44.052Z</time></trkpt><trkpt lat="44.187027" lon="10.945745"><ele>422.33333333333337</ele><time>2026-03-28T12:26:45.059Z</time></trkpt><trkpt lat="44.1870979" lon="10.9459335"><ele>420.66666666666663</ele><time>2026-03-28T12:26:46.066Z</time></trkpt><trkpt lat="44.1871708" lon="10.9461149"><ele>419.0</ele><time>2026-03-28T12:26:47.053Z</time></trkpt><trkpt lat="44.1872434" lon="10.9462983"><ele>419.0</ele><time>2026-03-28T12:26:48.054Z</time></trkpt><trkpt lat="44.1873132" lon="10.9464802"><ele>419.0</ele><time>2026-03-28T12:26:49.064Z</time></trkpt><trkpt lat="44.1873764" lon="10.9466566"><ele>419.0</ele><time>2026-03-28T12:26:50.055Z</time></trkpt><trkpt lat="44.1874333" lon="10.9468347"><ele>419.0</ele><time>2026-03-28T12:26:51.059Z</time></trkpt><trkpt lat="44.1874831" lon="10.947018"><ele>422.0</ele><time>2026-03-28T12:26:52.052Z</time></trkpt><trkpt lat="44.1875176" lon="10.9472117"><ele>425.0</ele><time>2026-03-28T12:26:53.058Z</time></trkpt><trkpt lat="44.1875397" lon="10.9474001"><ele>428.0</ele><time>2026-03-28T12:26:54.044Z</time></trkpt><trkpt lat="44.1875458" lon="10.9475935"><ele>431.0</ele><time>2026-03-28T12:26:55.038Z</time></trkpt><trkpt lat="44.1875481" lon="10.9477984"><ele>431.25</ele><time>2026-03-28T12:26:56.089Z</time></trkpt><trkpt lat="44.1875425" lon="10.9479912"><ele>431.5</ele><time>2026-03-28T12:26:57.048Z</time></trkpt><trkpt lat="44.1875229" lon="10.9482068"><ele>431.75</ele><time>2026-03-28T12:26:58.063Z</time></trkpt><trkpt lat="44.1874911" lon="10.9484107"><ele>432.0</ele><time>2026-03-28T12:26:59.042Z</time></trkpt><trkpt lat="44.1874574" lon="10.9486177"><ele>431.5</ele><time>2026-03-28T12:27:00.047Z</time></trkpt><trkpt lat="44.187431" lon="10.9488154"><ele>431.0</ele><time>2026-03-28T12:27:01.069Z</time></trkpt><trkpt lat="44.1874239" lon="10.9489937"><ele>430.5</ele><time>2026-03-28T12:27:02.04Z</time></trkpt><trkpt lat="44.187437" lon="10.9491574"><ele>430.0</ele><time>2026-03-28T12:27:03.064Z</time></trkpt><trkpt lat="44.1874895" lon="10.9492956"><ele>426.5</ele><time>2026-03-28T12:27:04.055Z</time></trkpt><trkpt lat="44.1875641" lon="10.9494392"><ele>423.0</ele><time>2026-03-28T12:27:05.064Z</time></trkpt><trkpt lat="44.1876534" lon="10.9495904"><ele>419.5</ele><time>2026-03-28T12:27:06.053Z</time></trkpt><trkpt lat="44.1877656" lon="10.9497601"><ele>416.0</ele><time>2026-03-28T12:27:07.069Z</time></trkpt><trkpt lat="44.1878793" lon="10.9499362"><ele>414.0</ele><time>2026-03-28T12:27:08.054Z</time></trkpt><trkpt lat="44.1879997" lon="10.9501208"><ele>412.0</ele><time>2026-03-28T12:27:09.065Z</time></trkpt><trkpt lat="44.1881123" lon="10.9503002"><ele>410.0</ele><time>2026-03-28T12:27:10.074Z</time></trkpt><trkpt lat="44.188218" lon="10.9504698"><ele>410.75</ele><time>2026-03-28T12:27:11.072Z</time></trkpt><trkpt lat="44.1883097" lon="10.9506168"><ele>411.5</ele><time>2026-03-28T12:27:12.059Z</time></trkpt><trkpt lat="44.1883875" lon="10.9507463"><ele>412.25</ele><time>2026-03-28T12:27:13.047Z</time></trkpt><trkpt lat="44.1884559" lon="10.9508609"><ele>413.0</ele><time>2026-03-28T12:27:14.044Z</time></trkpt><trkpt lat="44.1885236" lon="10.9509543"><ele>413.0</ele><time>2026-03-28T12:27:15.04Z</time></trkpt><trkpt lat="44.188595" lon="10.9510177"><ele>413.0</ele><time>2026-03-28T12:27:16.041Z</time></trkpt><trkpt lat="44.1886793" lon="10.9510474"><ele>413.0</ele><time>2026-03-28T12:27:17.042Z</time></trkpt><trkpt lat="44.188777" lon="10.951017"><ele>413.0</ele><time>2026-03-28T12:27:18.06Z</time></trkpt><trkpt lat="44.1889179" lon="10.9509569"><ele>413.0</ele><time>2026-03-28T12:27:19.053Z</time></trkpt><trkpt lat="44.1890575" lon="10.9508495"><ele>415.3333333333333</ele><time>2026-03-28T12:27:20.069Z</time></trkpt><trkpt lat="44.1891634" lon="10.9506785"><ele>417.66666666666663</ele><time>2026-03-28T12:27:21.063Z</time></trkpt><trkpt lat="44.1892788" lon="10.9505296"><ele>420.0</ele><time>2026-03-28T12:27:22.041Z</time></trkpt><trkpt lat="44.1893854" lon="10.9503983"><ele>420.0</ele><time>2026-03-28T12:27:23.041Z</time></trkpt><trkpt lat="44.1894696" lon="10.9502341"><ele>420.0</ele><time>2026-03-28T12:27:24.05Z</time></trkpt><trkpt lat="44.1895409" lon="10.9500684"><ele>420.0</ele><time>2026-03-28T12:27:25.035Z</time></trkpt><trkpt lat="44.1895974" lon="10.9498995"><ele>420.0</ele><time>2026-03-28T12:27:26.058Z</time></trkpt><trkpt lat="44.1896459" lon="10.9497519"><ele>419.25</ele><time>2026-03-28T12:27:27.056Z</time></trkpt><trkpt lat="44.1897049" lon="10.949617"><ele>418.5</ele><time>2026-03-28T12:27:28.064Z</time></trkpt><trkpt lat="44.1897876" lon="10.9494973"><ele>417.75</ele><time>2026-03-28T12:27:29.06Z</time></trkpt><trkpt lat="44.1898841" lon="10.949411"><ele>417.0</ele><time>2026-03-28T12:27:30.049Z</time></trkpt><trkpt lat="44.1899965" lon="10.9493635"><ele>417.0</ele><time>2026-03-28T12:27:31.054Z</time></trkpt><trkpt lat="44.1901129" lon="10.9493496"><ele>417.0</ele><time>2026-03-28T12:27:32.062Z</time></trkpt><trkpt lat="44.1902273" lon="10.9493569"><ele>417.0</ele><time>2026-03-28T12:27:33.051Z</time></trkpt><trkpt lat="44.1903436" lon="10.949419"><ele>417.0</ele><time>2026-03-28T12:27:34.064Z</time></trkpt><trkpt lat="44.190445" lon="10.949511"><ele>417.0</ele><time>2026-03-28T12:27:35.047Z</time></trkpt><trkpt lat="44.1905338" lon="10.9496303"><ele>417.0</ele><time>2026-03-28T12:27:36.067Z</time></trkpt><trkpt lat="44.1905962" lon="10.9497554"><ele>417.0</ele><time>2026-03-28T12:27:37.071Z</time></trkpt><trkpt lat="44.1906456" lon="10.9498994"><ele>417.0</ele><time>2026-03-28T12:27:38.051Z</time></trkpt><trkpt lat="44.190666" lon="10.9500732"><ele>419.0</ele><time>2026-03-28T12:27:39.056Z</time></trkpt><trkpt lat="44.1906808" lon="10.9502787"><ele>421.0</ele><time>2026-03-28T12:27:40.055Z</time></trkpt><trkpt lat="44.1906855" lon="10.9504947"><ele>423.0</ele><time>2026-03-28T12:27:41.051Z</time></trkpt><trkpt lat="44.1906891" lon="10.9507118"><ele>423.33333333333337</ele><time>2026-03-28T12:27:42.049Z</time></trkpt><trkpt lat="44.1906834" lon="10.950949"><ele>423.6666666666667</ele><time>2026-03-28T12:27:43.042Z</time></trkpt><trkpt lat="44.1906674" lon="10.9511913"><ele>424.0</ele><time>2026-03-28T12:27:44.057Z</time></trkpt><trkpt lat="44.1906467" lon="10.9514232"><ele>419.75</ele><time>2026-03-28T12:27:45.058Z</time></trkpt><trkpt lat="44.1906207" lon="10.9516409"><ele>415.5</ele><time>2026-03-28T12:27:46.058Z</time></trkpt><trkpt lat="44.1905925" lon="10.9518337"><ele>411.25</ele><time>2026-03-28T12:27:47.043Z</time></trkpt><trkpt lat="44.1905556" lon="10.9520184"><ele>407.0</ele><time>2026-03-28T12:27:48.045Z</time></trkpt><trkpt lat="44.1905108" lon="10.9521871"><ele>407.0</ele><time>2026-03-28T12:27:49.041Z</time></trkpt><trkpt lat="44.1904535" lon="10.9523341"><ele>407.0</ele><time>2026-03-28T12:27:50.044Z</time></trkpt><trkpt lat="44.1903835" lon="10.9524662"><ele>407.0</ele><time>2026-03-28T12:27:51.07Z</time></trkpt><trkpt lat="44.1903178" lon="10.9525876"><ele>407.0</ele><time>2026-03-28T12:27:52.042Z</time></trkpt><trkpt lat="44.1902616" lon="10.9527101"><ele>406.99999999999994</ele><time>2026-03-28T12:27:53.05Z</time></trkpt><trkpt lat="44.1902161" lon="10.9528279"><ele>407.0</ele><time>2026-03-28T12:27:54.055Z</time></trkpt><trkpt lat="44.1901809" lon="10.9529423"><ele>407.0</ele><time>2026-03-28T12:27:55.071Z</time></trkpt><trkpt lat="44.1901588" lon="10.9530415"><ele>407.0</ele><time>2026-03-28T12:27:56.058Z</time></trkpt><trkpt lat="44.1901419" lon="10.9531286"><ele>406.99999999999994</ele><time>2026-03-28T12:27:57.046Z</time></trkpt><trkpt lat="44.1901592" lon="10.9532521"><ele>407.0</ele><time>2026-03-28T12:27:59.042Z</time></trkpt><trkpt lat="44.1902783" lon="10.953296"><ele>407.0</ele><time>2026-03-28T12:28:01.051Z</time></trkpt><trkpt lat="44.1903685" lon="10.953299"><ele>407.0</ele><time>2026-03-28T12:28:02.062Z</time></trkpt><trkpt lat="44.1904831" lon="10.9533057"><ele>407.0</ele><time>2026-03-28T12:28:03.059Z</time></trkpt><trkpt lat="44.1906023" lon="10.9533403"><ele>407.0</ele><time>2026-03-28T12:28:04.047Z</time></trkpt><trkpt lat="44.1907229" lon="10.9533694"><ele>407.0</ele><time>2026-03-28T12:28:05.055Z</time></trkpt><trkpt lat="44.1908307" lon="10.9533915"><ele>406.6</ele><time>2026-03-28T12:28:06.052Z</time></trkpt><trkpt lat="44.1909292" lon="10.9533879"><ele>406.20000000000005</ele><time>2026-03-28T12:28:07.072Z</time></trkpt><trkpt lat="44.1910244" lon="10.9533617"><ele>405.8</ele><time>2026-03-28T12:28:08.054Z</time></trkpt><trkpt lat="44.1911197" lon="10.9533106"><ele>405.4</ele><time>2026-03-28T12:28:09.063Z</time></trkpt><trkpt lat="44.1912299" lon="10.9532391"><ele>405.0</ele><time>2026-03-28T12:28:10.058Z</time></trkpt><trkpt lat="44.1913541" lon="10.9531634"><ele>407.75</ele><time>2026-03-28T12:28:11.055Z</time></trkpt><trkpt lat="44.1914806" lon="10.9530944"><ele>410.5</ele><time>2026-03-28T12:28:12.071Z</time></trkpt><trkpt lat="44.1915993" lon="10.9530293"><ele>413.25</ele><time>2026-03-28T12:28:13.066Z</time></trkpt><trkpt lat="44.191711" lon="10.9529725"><ele>416.0</ele><time>2026-03-28T12:28:14.06Z</time></trkpt><trkpt lat="44.191806" lon="10.9529042"><ele>416.0</ele><time>2026-03-28T12:28:15.061Z</time></trkpt><trkpt lat="44.1919044" lon="10.9528261"><ele>416.0</ele><time>2026-03-28T12:28:16.053Z</time></trkpt><trkpt lat="44.192002" lon="10.9527459"><ele>416.0</ele><time>2026-03-28T12:28:17.066Z</time></trkpt><trkpt lat="44.1920957" lon="10.9526902"><ele>416.0</ele><time>2026-03-28T12:28:18.068Z</time></trkpt><trkpt lat="44.1922031" lon="10.9526638"><ele>416.0</ele><time>2026-03-28T12:28:19.055Z</time></trkpt><trkpt lat="44.1923078" lon="10.9526533"><ele>416.16666666666663</ele><time>2026-03-28T12:28:20.056Z</time></trkpt><trkpt lat="44.1924007" lon="10.95264"><ele>416.3333333333333</ele><time>2026-03-28T12:28:21.053Z</time></trkpt><trkpt lat="44.192471" lon="10.9526047"><ele>416.5</ele><time>2026-03-28T12:28:22.043Z</time></trkpt><trkpt lat="44.1925063" lon="10.9525311"><ele>416.66666666666663</ele><time>2026-03-28T12:28:23.056Z</time></trkpt><trkpt lat="44.1924872" lon="10.9523657"><ele>416.8333333333333</ele><time>2026-03-28T12:28:25.057Z</time></trkpt><trkpt lat="44.1924167" lon="10.952289"><ele>417.0</ele><time>2026-03-28T12:28:26.038Z</time></trkpt><trkpt lat="44.1923429" lon="10.9522955"><ele>416.75</ele><time>2026-03-28T12:28:27.038Z</time></trkpt><trkpt lat="44.1922576" lon="10.9523477"><ele>416.5</ele><time>2026-03-28T12:28:28.047Z</time></trkpt><trkpt lat="44.1921663" lon="10.9524307"><ele>416.25</ele><time>2026-03-28T12:28:29.042Z</time></trkpt><trkpt lat="44.1920609" lon="10.9525274"><ele>416.0</ele><time>2026-03-28T12:28:30.067Z</time></trkpt><trkpt lat="44.1919509" lon="10.9526033"><ele>416.0</ele><time>2026-03-28T12:28:31.045Z</time></trkpt><trkpt lat="44.1918442" lon="10.952663"><ele>416.0</ele><time>2026-03-28T12:28:32.04Z</time></trkpt><trkpt lat="44.191738" lon="10.9527113"><ele>416.0</ele><time>2026-03-28T12:28:33.049Z</time></trkpt><trkpt lat="44.1916402" lon="10.9527519"><ele>416.0</ele><time>2026-03-28T12:28:34.059Z</time></trkpt><trkpt lat="44.1915435" lon="10.9527769"><ele>416.0</ele><time>2026-03-28T12:28:35.064Z</time></trkpt><trkpt lat="44.1914442" lon="10.9527858"><ele>416.0</ele><time>2026-03-28T12:28:36.053Z</time></trkpt><trkpt lat="44.1913629" lon="10.9527532"><ele>416.0</ele><time>2026-03-28T12:28:37.036Z</time></trkpt><trkpt lat="44.1912865" lon="10.9526714"><ele>416.0</ele><time>2026-03-28T12:28:38.051Z</time></trkpt><trkpt lat="44.191233" lon="10.9525453"><ele>416.0</ele><time>2026-03-28T12:28:39.06Z</time></trkpt><trkpt lat="44.1911957" lon="10.9523902"><ele>416.0</ele><time>2026-03-28T12:28:40.053Z</time></trkpt><trkpt lat="44.1911678" lon="10.9521988"><ele>417.4</ele><time>2026-03-28T12:28:41.064Z</time></trkpt><trkpt lat="44.1911552" lon="10.9520334"><ele>418.8</ele><time>2026-03-28T12:28:42.043Z</time></trkpt><trkpt lat="44.1911545" lon="10.9518904"><ele>420.2</ele><time>2026-03-28T12:28:43.055Z</time></trkpt><trkpt lat="44.1911772" lon="10.9517982"><ele>421.59999999999997</ele><time>2026-03-28T12:28:44.054Z</time></trkpt><trkpt lat="44.1912656" lon="10.9517585"><ele>423.0</ele><time>2026-03-28T12:28:46.047Z</time></trkpt><trkpt lat="44.1913316" lon="10.9517704"><ele>423.0</ele><time>2026-03-28T12:28:47.058Z</time></trkpt><trkpt lat="44.1914112" lon="10.951815"><ele>423.0</ele><time>2026-03-28T12:28:48.055Z</time></trkpt><trkpt lat="44.1915028" lon="10.9518596"><ele>423.0</ele><time>2026-03-28T12:28:49.052Z</time></trkpt><trkpt lat="44.1915944" lon="10.9518878"><ele>423.0</ele><time>2026-03-28T12:28:50.053Z</time></trkpt><trkpt lat="44.1916755" lon="10.9518817"><ele>423.0</ele><time>2026-03-28T12:28:51.052Z</time></trkpt><trkpt lat="44.191753" lon="10.9518416"><ele>423.0</ele><time>2026-03-28T12:28:52.047Z</time></trkpt><trkpt lat="44.1918343" lon="10.9517501"><ele>428.25</ele><time>2026-03-28T12:28:53.04Z</time></trkpt><trkpt lat="44.1918824" lon="10.951611"><ele>433.5</ele><time>2026-03-28T12:28:54.049Z</time></trkpt><trkpt lat="44.1919241" lon="10.9514345"><ele>438.75</ele><time>2026-03-28T12:28:55.045Z</time></trkpt><trkpt lat="44.1919621" lon="10.9512593"><ele>444.0</ele><time>2026-03-28T12:28:56.046Z</time></trkpt><trkpt lat="44.1920019" lon="10.9510755"><ele>444.0</ele><time>2026-03-28T12:28:57.047Z</time></trkpt><trkpt lat="44.1920437" lon="10.9508871"><ele>444.0</ele><time>2026-03-28T12:28:58.044Z</time></trkpt><trkpt lat="44.1921049" lon="10.9507146"><ele>444.0</ele><time>2026-03-28T12:28:59.052Z</time></trkpt><trkpt lat="44.1921793" lon="10.9505618"><ele>444.0</ele><time>2026-03-28T12:29:00.03Z</time></trkpt><trkpt lat="44.1922734" lon="10.9504204"><ele>445.0</ele><time>2026-03-28T12:29:01.062Z</time></trkpt><trkpt lat="44.1923714" lon="10.9502998"><ele>446.0</ele><time>2026-03-28T12:29:02.041Z</time></trkpt><trkpt lat="44.1924784" lon="10.9501779"><ele>447.0</ele><time>2026-03-28T12:29:03.055Z</time></trkpt><trkpt lat="44.192585" lon="10.9500572"><ele>448.0</ele><time>2026-03-28T12:29:04.053Z</time></trkpt><trkpt lat="44.1926929" lon="10.9499379"><ele>450.4</ele><time>2026-03-28T12:29:05.061Z</time></trkpt><trkpt lat="44.1927868" lon="10.949819"><ele>452.79999999999995</ele><time>2026-03-28T12:29:06.054Z</time></trkpt><trkpt lat="44.1928683" lon="10.9497043"><ele>455.2</ele><time>2026-03-28T12:29:07.057Z</time></trkpt><trkpt lat="44.1929376" lon="10.9495952"><ele>457.6</ele><time>2026-03-28T12:29:08.053Z</time></trkpt><trkpt lat="44.1930022" lon="10.9494889"><ele>460.0</ele><time>2026-03-28T12:29:09.051Z</time></trkpt><trkpt lat="44.1930592" lon="10.9493856"><ele>460.0</ele><time>2026-03-28T12:29:10.059Z</time></trkpt><trkpt lat="44.193119" lon="10.9492841"><ele>460.0</ele><time>2026-03-28T12:29:11.063Z</time></trkpt><trkpt lat="44.1931807" lon="10.9491666"><ele>460.0</ele><time>2026-03-28T12:29:12.058Z</time></trkpt><trkpt lat="44.1932517" lon="10.9490383"><ele>460.0</ele><time>2026-03-28T12:29:13.066Z</time></trkpt><trkpt lat="44.1933294" lon="10.9489005"><ele>460.0</ele><time>2026-03-28T12:29:14.073Z</time></trkpt><trkpt lat="44.1934095" lon="10.9487612"><ele>461.75</ele><time>2026-03-28T12:29:15.057Z</time></trkpt><trkpt lat="44.1934968" lon="10.9486142"><ele>463.5</ele><time>2026-03-28T12:29:16.083Z</time></trkpt><trkpt lat="44.1935808" lon="10.9484716"><ele>465.25</ele><time>2026-03-28T12:29:17.06Z</time></trkpt><trkpt lat="44.193663" lon="10.948331"><ele>467.0</ele><time>2026-03-28T12:29:18.068Z</time></trkpt><trkpt lat="44.1937371" lon="10.9481954"><ele>468.25</ele><time>2026-03-28T12:29:19.072Z</time></trkpt><trkpt lat="44.1938124" lon="10.9480606"><ele>469.5</ele><time>2026-03-28T12:29:20.061Z</time></trkpt><trkpt lat="44.1938855" lon="10.9479211"><ele>470.75</ele><time>2026-03-28T12:29:21.069Z</time></trkpt><trkpt lat="44.1939545" lon="10.9477887"><ele>472.0</ele><time>2026-03-28T12:29:22.06Z</time></trkpt><trkpt lat="44.1940199" lon="10.9476581"><ele>474.8</ele><time>2026-03-28T12:29:23.049Z</time></trkpt><trkpt lat="44.1940829" lon="10.947527"><ele>477.6</ele><time>2026-03-28T12:29:24.073Z</time></trkpt><trkpt lat="44.1941401" lon="10.9474029"><ele>480.40000000000003</ele><time>2026-03-28T12:29:25.058Z</time></trkpt><trkpt lat="44.1941993" lon="10.9472771"><ele>483.20000000000005</ele><time>2026-03-28T12:29:26.071Z</time></trkpt><trkpt lat="44.1942714" lon="10.9471469"><ele>486.0</ele><time>2026-03-28T12:29:27.063Z</time></trkpt><trkpt lat="44.1943509" lon="10.947012"><ele>486.0</ele><time>2026-03-28T12:29:28.054Z</time></trkpt><trkpt lat="44.1944383" lon="10.9468776"><ele>486.0</ele><time>2026-03-28T12:29:29.042Z</time></trkpt><trkpt lat="44.1945339" lon="10.9467401"><ele>486.0</ele><time>2026-03-28T12:29:30.064Z</time></trkpt><trkpt lat="44.1946299" lon="10.9466057"><ele>486.0</ele><time>2026-03-28T12:29:31.056Z</time></trkpt><trkpt lat="44.1947268" lon="10.9464659"><ele>487.66666666666663</ele><time>2026-03-28T12:29:32.06Z</time></trkpt><trkpt lat="44.1948183" lon="10.9462963"><ele>489.3333333333333</ele><time>2026-03-28T12:29:33.053Z</time></trkpt><trkpt lat="44.1948967" lon="10.9461075"><ele>491.0</ele><time>2026-03-28T12:29:34.053Z</time></trkpt><trkpt lat="44.1949621" lon="10.9459083"><ele>496.0</ele><time>2026-03-28T12:29:35.067Z</time></trkpt><trkpt lat="44.1950245" lon="10.9457086"><ele>501.0</ele><time>2026-03-28T12:29:36.066Z</time></trkpt><trkpt lat="44.1950859" lon="10.9455015"><ele>506.0</ele><time>2026-03-28T12:29:37.036Z</time></trkpt><trkpt lat="44.1951574" lon="10.9452682"><ele>506.0</ele><time>2026-03-28T12:29:38.058Z</time></trkpt><trkpt lat="44.1952225" lon="10.945066"><ele>506.0</ele><time>2026-03-28T12:29:39.072Z</time></trkpt><trkpt lat="44.1952857" lon="10.9448958"><ele>506.0</ele><time>2026-03-28T12:29:40.082Z</time></trkpt><trkpt lat="44.1953397" lon="10.9447533"><ele>506.0</ele><time>2026-03-28T12:29:41.068Z</time></trkpt><trkpt lat="44.1953846" lon="10.9446369"><ele>506.8333333333333</ele><time>2026-03-28T12:29:42.065Z</time></trkpt><trkpt lat="44.1954211" lon="10.9445364"><ele>507.66666666666663</ele><time>2026-03-28T12:29:43.065Z</time></trkpt><trkpt lat="44.1954536" lon="10.9444413"><ele>508.5</ele><time>2026-03-28T12:29:44.066Z</time></trkpt><trkpt lat="44.1954851" lon="10.9443488"><ele>509.33333333333337</ele><time>2026-03-28T12:29:45.059Z</time></trkpt><trkpt lat="44.1955184" lon="10.9442539"><ele>510.1666666666667</ele><time>2026-03-28T12:29:46.051Z</time></trkpt><trkpt lat="44.1955567" lon="10.9441535"><ele>511.0</ele><time>2026-03-28T12:29:47.059Z</time></trkpt><trkpt lat="44.195594" lon="10.9440455"><ele>512.4</ele><time>2026-03-28T12:29:48.051Z</time></trkpt><trkpt lat="44.1956305" lon="10.9439339"><ele>513.8</ele><time>2026-03-28T12:29:49.044Z</time></trkpt><trkpt lat="44.1956583" lon="10.9438177"><ele>515.1999999999999</ele><time>2026-03-28T12:29:50.049Z</time></trkpt><trkpt lat="44.1956657" lon="10.9437021"><ele>516.6</ele><time>2026-03-28T12:29:51.067Z</time></trkpt><trkpt lat="44.1956427" lon="10.9435717"><ele>518.0</ele><time>2026-03-28T12:29:52.06Z</time></trkpt><trkpt lat="44.1955825" lon="10.9434353"><ele>519.6666666666666</ele><time>2026-03-28T12:29:53.059Z</time></trkpt><trkpt lat="44.1954896" lon="10.9432724"><ele>521.3333333333334</ele><time>2026-03-28T12:29:54.057Z</time></trkpt><trkpt lat="44.195388" lon="10.9430763"><ele>523.0</ele><time>2026-03-28T12:29:55.052Z</time></trkpt><trkpt lat="44.1952764" lon="10.942839"><ele>523.0</ele><time>2026-03-28T12:29:56.048Z</time></trkpt><trkpt lat="44.1951651" lon="10.9426026"><ele>523.0</ele><time>2026-03-28T12:29:57.065Z</time></trkpt><trkpt lat="44.1950575" lon="10.9424004"><ele>523.0</ele><time>2026-03-28T12:29:58.068Z</time></trkpt><trkpt lat="44.1949514" lon="10.9422125"><ele>523.25</ele><time>2026-03-28T12:29:59.057Z</time></trkpt><trkpt lat="44.1948557" lon="10.9420409"><ele>523.5</ele><time>2026-03-28T12:30:00.044Z</time></trkpt><trkpt lat="44.1947932" lon="10.9418608"><ele>523.75</ele><time>2026-03-28T12:30:01.043Z</time></trkpt><trkpt lat="44.1947499" lon="10.9416618"><ele>524.0</ele><time>2026-03-28T12:30:02.061Z</time></trkpt><trkpt lat="44.1947392" lon="10.9414656"><ele>524.0</ele><time>2026-03-28T12:30:03.056Z</time></trkpt><trkpt lat="44.1947661" lon="10.9412945"><ele>524.0</ele><time>2026-03-28T12:30:04.054Z</time></trkpt><trkpt lat="44.1948185" lon="10.9411287"><ele>524.0</ele><time>2026-03-28T12:30:05.063Z</time></trkpt><trkpt lat="44.1948909" lon="10.9409823"><ele>524.0</ele><time>2026-03-28T12:30:06.032Z</time></trkpt><trkpt lat="44.1949666" lon="10.940829"><ele>528.25</ele><time>2026-03-28T12:30:07.061Z</time></trkpt><trkpt lat="44.1950287" lon="10.9406812"><ele>532.5</ele><time>2026-03-28T12:30:08.048Z</time></trkpt><trkpt lat="44.1950831" lon="10.9405217"><ele>536.75</ele><time>2026-03-28T12:30:09.049Z</time></trkpt><trkpt lat="44.1951334" lon="10.9403539"><ele>541.0</ele><time>2026-03-28T12:30:10.055Z</time></trkpt><trkpt lat="44.1951834" lon="10.9401877"><ele>543.0</ele><time>2026-03-28T12:30:11.045Z</time></trkpt><trkpt lat="44.1952369" lon="10.9400068"><ele>545.0</ele><time>2026-03-28T12:30:12.06Z</time></trkpt><trkpt lat="44.1952954" lon="10.9398411"><ele>547.0</ele><time>2026-03-28T12:30:13.05Z</time></trkpt><trkpt lat="44.1953619" lon="10.9396878"><ele>549.0</ele><time>2026-03-28T12:30:14.055Z</time></trkpt><trkpt lat="44.195438" lon="10.939549"><ele>549.0</ele><time>2026-03-28T12:30:15.04Z</time></trkpt><trkpt lat="44.195511" lon="10.9394116"><ele>549.0</ele><time>2026-03-28T12:30:16.046Z</time></trkpt><trkpt lat="44.1955697" lon="10.9392761"><ele>549.0</ele><time>2026-03-28T12:30:17.054Z</time></trkpt><trkpt lat="44.1956212" lon="10.939133"><ele>549.0</ele><time>2026-03-28T12:30:18.066Z</time></trkpt><trkpt lat="44.1956657" lon="10.9389989"><ele>551.4</ele><time>2026-03-28T12:30:19.085Z</time></trkpt><trkpt lat="44.1957" lon="10.9388886"><ele>553.8</ele><time>2026-03-28T12:30:20.059Z</time></trkpt><trkpt lat="44.1957397" lon="10.9387703"><ele>556.2</ele><time>2026-03-28T12:30:21.047Z</time></trkpt><trkpt lat="44.1957802" lon="10.9386439"><ele>558.6</ele><time>2026-03-28T12:30:22.046Z</time></trkpt><trkpt lat="44.1958185" lon="10.9385085"><ele>561.0</ele><time>2026-03-28T12:30:23.061Z</time></trkpt><trkpt lat="44.1958644" lon="10.9383573"><ele>562.0</ele><time>2026-03-28T12:30:24.046Z</time></trkpt><trkpt lat="44.1959093" lon="10.9381996"><ele>563.0</ele><time>2026-03-28T12:30:25.041Z</time></trkpt><trkpt lat="44.19595" lon="10.9380484"><ele>564.0</ele><time>2026-03-28T12:30:26.062Z</time></trkpt><trkpt lat="44.1959706" lon="10.9379051"><ele>565.0</ele><time>2026-03-28T12:30:27.06Z</time></trkpt><trkpt lat="44.195971" lon="10.9377718"><ele>566.0</ele><time>2026-03-28T12:30:28.054Z</time></trkpt><trkpt lat="44.1959473" lon="10.93766"><ele>566.0</ele><time>2026-03-28T12:30:29.074Z</time></trkpt><trkpt lat="44.1959182" lon="10.9375725"><ele>566.0</ele><time>2026-03-28T12:30:30.05Z</time></trkpt><trkpt lat="44.1959054" lon="10.9374788"><ele>566.0</ele><time>2026-03-28T12:30:32.06Z</time></trkpt><trkpt lat="44.195988" lon="10.9374405"><ele>566.0</ele><time>2026-03-28T12:30:35.067Z</time></trkpt><trkpt lat="44.196107" lon="10.9374937"><ele>566.0</ele><time>2026-03-28T12:30:37.057Z</time></trkpt><trkpt lat="44.1961747" lon="10.9375241"><ele>566.0</ele><time>2026-03-28T12:30:38.038Z</time></trkpt><trkpt lat="44.1962508" lon="10.9375536"><ele>566.0</ele><time>2026-03-28T12:30:39.071Z</time></trkpt><trkpt lat="44.1963226" lon="10.9375782"><ele>566.0</ele><time>2026-03-28T12:30:40.075Z</time></trkpt><trkpt lat="44.1963972" lon="10.937607"><ele>566.0</ele><time>2026-03-28T12:30:41.067Z</time></trkpt><trkpt lat="44.1964751" lon="10.9376313"><ele>566.0</ele><time>2026-03-28T12:30:42.057Z</time></trkpt><trkpt lat="44.1965502" lon="10.9376579"><ele>566.0</ele><time>2026-03-28T12:30:43.047Z</time></trkpt><trkpt lat="44.1966372" lon="10.9376888"><ele>566.0</ele><time>2026-03-28T12:30:44.063Z</time></trkpt><trkpt lat="44.1967239" lon="10.9377184"><ele>567.0</ele><time>2026-03-28T12:30:45.076Z</time></trkpt><trkpt lat="44.1968095" lon="10.9377443"><ele>568.0</ele><time>2026-03-28T12:30:46.067Z</time></trkpt><trkpt lat="44.1968974" lon="10.9377727"><ele>569.0</ele><time>2026-03-28T12:30:47.05Z</time></trkpt><trkpt lat="44.1969869" lon="10.9377998"><ele>570.0</ele><time>2026-03-28T12:30:48.04Z</time></trkpt><trkpt lat="44.1970831" lon="10.9378325"><ele>571.0</ele><time>2026-03-28T12:30:49.058Z</time></trkpt><trkpt lat="44.1971695" lon="10.9378607"><ele>571.0</ele><time>2026-03-28T12:30:50.041Z</time></trkpt><trkpt lat="44.1972519" lon="10.937883"><ele>571.0</ele><time>2026-03-28T12:30:51.062Z</time></trkpt><trkpt lat="44.1973252" lon="10.9379067"><ele>571.0</ele><time>2026-03-28T12:30:52.06Z</time></trkpt><trkpt lat="44.1973942" lon="10.9379334"><ele>571.0</ele><time>2026-03-28T12:30:53.059Z</time></trkpt><trkpt lat="44.1975079" lon="10.9379705"><ele>571.0</ele><time>2026-03-28T12:30:55.067Z</time></trkpt><trkpt lat="44.1976033" lon="10.9380076"><ele>571.0</ele><time>2026-03-28T12:30:57.079Z</time></trkpt><trkpt lat="44.1976771" lon="10.938028"><ele>572.1666666666667</ele><time>2026-03-28T12:30:59.067Z</time></trkpt><trkpt lat="44.1977293" lon="10.9380815"><ele>573.3333333333334</ele><time>2026-03-28T12:31:01.04Z</time></trkpt><trkpt lat="44.1976597" lon="10.9380046"><ele>574.5</ele><time>2026-03-28T12:31:13.054Z</time></trkpt><trkpt lat="44.1975958" lon="10.9379922"><ele>575.6666666666666</ele><time>2026-03-28T12:31:14.054Z</time></trkpt><trkpt lat="44.1975246" lon="10.9379743"><ele>576.8333333333333</ele><time>2026-03-28T12:31:15.066Z</time></trkpt><trkpt lat="44.1974502" lon="10.937958"><ele>578.0</ele><time>2026-03-28T12:31:16.051Z</time></trkpt><trkpt lat="44.1973674" lon="10.9379372"><ele>576.6</ele><time>2026-03-28T12:31:17.062Z</time></trkpt><trkpt lat="44.197287" lon="10.9379251"><ele>575.1999999999999</ele><time>2026-03-28T12:31:18.052Z</time></trkpt><trkpt lat="44.1971984" lon="10.9379014"><ele>573.8</ele><time>2026-03-28T12:31:19.072Z</time></trkpt><trkpt lat="44.1971034" lon="10.937875"><ele>572.4</ele><time>2026-03-28T12:31:20.072Z</time></trkpt><trkpt lat="44.1970074" lon="10.9378444"><ele>571.0</ele><time>2026-03-28T12:31:21.069Z</time></trkpt><trkpt lat="44.1969071" lon="10.9378097"><ele>571.0</ele><time>2026-03-28T12:31:22.071Z</time></trkpt><trkpt lat="44.1968066" lon="10.9377738"><ele>571.0</ele><time>2026-03-28T12:31:23.046Z</time></trkpt><trkpt lat="44.1966997" lon="10.9377345"><ele>571.0</ele><time>2026-03-28T12:31:24.051Z</time></trkpt><trkpt lat="44.1965957" lon="10.9376947"><ele>571.0</ele><time>2026-03-28T12:31:25.061Z</time></trkpt><trkpt lat="44.196489" lon="10.9376569"><ele>571.0</ele><time>2026-03-28T12:31:26.065Z</time></trkpt><trkpt lat="44.1963797" lon="10.937618"><ele>571.8</ele><time>2026-03-28T12:31:27.061Z</time></trkpt><trkpt lat="44.1962683" lon="10.9375675"><ele>572.6</ele><time>2026-03-28T12:31:28.07Z</time></trkpt><trkpt lat="44.1961641" lon="10.9375297"><ele>573.4</ele><time>2026-03-28T12:31:29.053Z</time></trkpt><trkpt lat="44.196064" lon="10.9374972"><ele>574.2</ele><time>2026-03-28T12:31:30.054Z</time></trkpt><trkpt lat="44.1959764" lon="10.9374669"><ele>575.0</ele><time>2026-03-28T12:31:31.045Z</time></trkpt><trkpt lat="44.1959101" lon="10.9374337"><ele>575.0</ele><time>2026-03-28T12:31:32.068Z</time></trkpt><trkpt lat="44.1958187" lon="10.9373576"><ele>575.0</ele><time>2026-03-28T12:31:34.067Z</time></trkpt><trkpt lat="44.1958582" lon="10.9372479"><ele>575.0</ele><time>2026-03-28T12:31:37.07Z</time></trkpt><trkpt lat="44.1959756" lon="10.9372306"><ele>575.0</ele><time>2026-03-28T12:31:39.062Z</time></trkpt><trkpt lat="44.1960554" lon="10.9372271"><ele>575.0</ele><time>2026-03-28T12:31:40.06Z</time></trkpt><trkpt lat="44.1961369" lon="10.9372225"><ele>575.0</ele><time>2026-03-28T12:31:41.056Z</time></trkpt><trkpt lat="44.1962253" lon="10.9372161"><ele>575.0</ele><time>2026-03-28T12:31:42.047Z</time></trkpt><trkpt lat="44.1963147" lon="10.9372185"><ele>575.0</ele><time>2026-03-28T12:31:43.045Z</time></trkpt><trkpt lat="44.1964101" lon="10.9372232"><ele>575.0</ele><time>2026-03-28T12:31:44.066Z</time></trkpt><trkpt lat="44.1964998" lon="10.9372304"><ele>575.0</ele><time>2026-03-28T12:31:45.066Z</time></trkpt><trkpt lat="44.1965901" lon="10.9372334"><ele>576.2</ele><time>2026-03-28T12:31:46.054Z</time></trkpt><trkpt lat="44.1966829" lon="10.9372377"><ele>577.4</ele><time>2026-03-28T12:31:47.07Z</time></trkpt><trkpt lat="44.1967699" lon="10.9372337"><ele>578.6</ele><time>2026-03-28T12:31:48.053Z</time></trkpt><trkpt lat="44.1968575" lon="10.9372218"><ele>579.8</ele><time>2026-03-28T12:31:49.046Z</time></trkpt><trkpt lat="44.1969529" lon="10.9371937"><ele>581.0</ele><time>2026-03-28T12:31:50.063Z</time></trkpt><trkpt lat="44.1970498" lon="10.9371558"><ele>581.0</ele><time>2026-03-28T12:31:51.064Z</time></trkpt><trkpt lat="44.1971439" lon="10.9371148"><ele>581.0</ele><time>2026-03-28T12:31:52.061Z</time></trkpt><trkpt lat="44.1972263" lon="10.9370548"><ele>581.0</ele><time>2026-03-28T12:31:53.055Z</time></trkpt><trkpt lat="44.1973102" lon="10.9369678"><ele>581.0</ele><time>2026-03-28T12:31:54.054Z</time></trkpt><trkpt lat="44.1974034" lon="10.9368608"><ele>581.0</ele><time>2026-03-28T12:31:55.052Z</time></trkpt><trkpt lat="44.197501" lon="10.9367417"><ele>582.8</ele><time>2026-03-28T12:31:56.072Z</time></trkpt><trkpt lat="44.1975952" lon="10.936625"><ele>584.6</ele><time>2026-03-28T12:31:57.081Z</time></trkpt><trkpt lat="44.1976803" lon="10.9365224"><ele>586.4</ele><time>2026-03-28T12:31:58.053Z</time></trkpt><trkpt lat="44.1977555" lon="10.9364293"><ele>588.2</ele><time>2026-03-28T12:31:59.067Z</time></trkpt><trkpt lat="44.197822" lon="10.9363493"><ele>590.0</ele><time>2026-03-28T12:32:00.053Z</time></trkpt><trkpt lat="44.1978869" lon="10.9362654"><ele>590.0</ele><time>2026-03-28T12:32:01.067Z</time></trkpt><trkpt lat="44.1979533" lon="10.9361876"><ele>590.0</ele><time>2026-03-28T12:32:02.054Z</time></trkpt><trkpt lat="44.1980288" lon="10.9361341"><ele>590.0</ele><time>2026-03-28T12:32:03.054Z</time></trkpt><trkpt lat="44.1981032" lon="10.9361171"><ele>590.0</ele><time>2026-03-28T12:32:04.053Z</time></trkpt><trkpt lat="44.1981811" lon="10.9361332"><ele>590.0</ele><time>2026-03-28T12:32:05.054Z</time></trkpt><trkpt lat="44.1982556" lon="10.936173"><ele>590.0</ele><time>2026-03-28T12:32:06.07Z</time></trkpt><trkpt lat="44.1983304" lon="10.936252"><ele>590.5</ele><time>2026-03-28T12:32:07.065Z</time></trkpt><trkpt lat="44.1984017" lon="10.9363616"><ele>591.0</ele><time>2026-03-28T12:32:08.066Z</time></trkpt><trkpt lat="44.1984639" lon="10.9364912"><ele>591.5</ele><time>2026-03-28T12:32:09.069Z</time></trkpt><trkpt lat="44.1985252" lon="10.9366296"><ele>592.0</ele><time>2026-03-28T12:32:10.058Z</time></trkpt><trkpt lat="44.1985864" lon="10.9367667"><ele>591.2</ele><time>2026-03-28T12:32:11.049Z</time></trkpt><trkpt lat="44.1986462" lon="10.9368982"><ele>590.4000000000001</ele><time>2026-03-28T12:32:12.07Z</time></trkpt><trkpt lat="44.1987077" lon="10.9370216"><ele>589.5999999999999</ele><time>2026-03-28T12:32:13.06Z</time></trkpt><trkpt lat="44.1987648" lon="10.9371499"><ele>588.8</ele><time>2026-03-28T12:32:14.076Z</time></trkpt><trkpt lat="44.1988257" lon="10.9372633"><ele>588.0</ele><time>2026-03-28T12:32:15.072Z</time></trkpt><trkpt lat="44.1988922" lon="10.9373514"><ele>588.0</ele><time>2026-03-28T12:32:16.075Z</time></trkpt><trkpt lat="44.1989762" lon="10.9373973"><ele>588.0</ele><time>2026-03-28T12:32:17.06Z</time></trkpt><trkpt lat="44.1990733" lon="10.9374049"><ele>588.0</ele><time>2026-03-28T12:32:18.063Z</time></trkpt><trkpt lat="44.1991767" lon="10.937368"><ele>588.0</ele><time>2026-03-28T12:32:19.05Z</time></trkpt><trkpt lat="44.1992963" lon="10.9373006"><ele>588.0</ele><time>2026-03-28T12:32:20.062Z</time></trkpt><trkpt lat="44.1994232" lon="10.9372375"><ele>588.5</ele><time>2026-03-28T12:32:21.071Z</time></trkpt><trkpt lat="44.1995617" lon="10.9371923"><ele>589.0</ele><time>2026-03-28T12:32:22.068Z</time></trkpt><trkpt lat="44.1997049" lon="10.9371836"><ele>589.5</ele><time>2026-03-28T12:32:23.059Z</time></trkpt><trkpt lat="44.1998559" lon="10.9371997"><ele>590.0</ele><time>2026-03-28T12:32:24.058Z</time></trkpt><trkpt lat="44.2000141" lon="10.9372321"><ele>590.0</ele><time>2026-03-28T12:32:25.062Z</time></trkpt><trkpt lat="44.2001667" lon="10.9372694"><ele>590.0</ele><time>2026-03-28T12:32:26.045Z</time></trkpt><trkpt lat="44.2003168" lon="10.9373182"><ele>590.0</ele><time>2026-03-28T12:32:27.056Z</time></trkpt><trkpt lat="44.2004584" lon="10.9373741"><ele>590.0</ele><time>2026-03-28T12:32:28.068Z</time></trkpt><trkpt lat="44.2005934" lon="10.9374397"><ele>590.0</ele><time>2026-03-28T12:32:29.053Z</time></trkpt><trkpt lat="44.2007401" lon="10.9375195"><ele>590.0</ele><time>2026-03-28T12:32:30.066Z</time></trkpt><trkpt lat="44.2008978" lon="10.9376122"><ele>589.0</ele><time>2026-03-28T12:32:31.064Z</time></trkpt><trkpt lat="44.2010473" lon="10.9376984"><ele>588.0</ele><time>2026-03-28T12:32:32.045Z</time></trkpt><trkpt lat="44.2011926" lon="10.9377798"><ele>587.0</ele><time>2026-03-28T12:32:33.068Z</time></trkpt><trkpt lat="44.2013177" lon="10.9378526"><ele>587.0</ele><time>2026-03-28T12:32:34.065Z</time></trkpt><trkpt lat="44.2014297" lon="10.9379318"><ele>587.0</ele><time>2026-03-28T12:32:35.062Z</time></trkpt><trkpt lat="44.2015215" lon="10.9380346"><ele>587.0</ele><time>2026-03-28T12:32:36.073Z</time></trkpt><trkpt lat="44.2015861" lon="10.9381684"><ele>587.0</ele><time>2026-03-28T12:32:37.053Z</time></trkpt><trkpt lat="44.2016515" lon="10.9383492"><ele>591.0</ele><time>2026-03-28T12:32:38.065Z</time></trkpt><trkpt lat="44.2017106" lon="10.9385305"><ele>595.0</ele><time>2026-03-28T12:32:39.039Z</time></trkpt><trkpt lat="44.2017683" lon="10.9387276"><ele>599.0</ele><time>2026-03-28T12:32:40.055Z</time></trkpt><trkpt lat="44.2018004" lon="10.9389259"><ele>603.0</ele><time>2026-03-28T12:32:41.064Z</time></trkpt><trkpt lat="44.2018048" lon="10.9391294"><ele>603.25</ele><time>2026-03-28T12:32:42.065Z</time></trkpt><trkpt lat="44.2018012" lon="10.9393355"><ele>603.5</ele><time>2026-03-28T12:32:43.055Z</time></trkpt><trkpt lat="44.2017923" lon="10.9395331"><ele>603.75</ele><time>2026-03-28T12:32:44.061Z</time></trkpt><trkpt lat="44.2017904" lon="10.9397183"><ele>604.0</ele><time>2026-03-28T12:32:45.054Z</time></trkpt><trkpt lat="44.2018002" lon="10.9398995"><ele>603.0</ele><time>2026-03-28T12:32:46.053Z</time></trkpt><trkpt lat="44.2018337" lon="10.9400829"><ele>602.0</ele><time>2026-03-28T12:32:47.056Z</time></trkpt><trkpt lat="44.2018973" lon="10.9402654"><ele>601.0</ele><time>2026-03-28T12:32:48.047Z</time></trkpt><trkpt lat="44.201988" lon="10.9404587"><ele>600.0</ele><time>2026-03-28T12:32:49.062Z</time></trkpt><trkpt lat="44.2020756" lon="10.9406508"><ele>600.0</ele><time>2026-03-28T12:32:50.062Z</time></trkpt><trkpt lat="44.2021419" lon="10.9408495"><ele>600.0</ele><time>2026-03-28T12:32:51.055Z</time></trkpt><trkpt lat="44.2021937" lon="10.9410345"><ele>600.0</ele><time>2026-03-28T12:32:52.039Z</time></trkpt><trkpt lat="44.2022543" lon="10.9412133"><ele>600.0</ele><time>2026-03-28T12:32:53.05Z</time></trkpt><trkpt lat="44.2023391" lon="10.9413702"><ele>602.0</ele><time>2026-03-28T12:32:54.041Z</time></trkpt><trkpt lat="44.2024455" lon="10.9415076"><ele>604.0</ele><time>2026-03-28T12:32:55.05Z</time></trkpt><trkpt lat="44.2025599" lon="10.9416333"><ele>606.0</ele><time>2026-03-28T12:32:56.053Z</time></trkpt><trkpt lat="44.2026746" lon="10.9417559"><ele>608.0</ele><time>2026-03-28T12:32:57.053Z</time></trkpt><trkpt lat="44.2027862" lon="10.9418809"><ele>608.0</ele><time>2026-03-28T12:32:58.06Z</time></trkpt><trkpt lat="44.2028826" lon="10.9420145"><ele>608.0</ele><time>2026-03-28T12:32:59.053Z</time></trkpt><trkpt lat="44.2029649" lon="10.9421734"><ele>608.0</ele><time>2026-03-28T12:33:00.06Z</time></trkpt><trkpt lat="44.2030305" lon="10.94235"><ele>608.0</ele><time>2026-03-28T12:33:01.055Z</time></trkpt><trkpt lat="44.2030857" lon="10.9425436"><ele>607.0</ele><time>2026-03-28T12:33:02.058Z</time></trkpt><trkpt lat="44.2031273" lon="10.9427432"><ele>606.0</ele><time>2026-03-28T12:33:03.048Z</time></trkpt><trkpt lat="44.2031608" lon="10.9429299"><ele>605.0</ele><time>2026-03-28T12:33:04.057Z</time></trkpt><trkpt lat="44.2031944" lon="10.9430904"><ele>604.0</ele><time>2026-03-28T12:33:05.074Z</time></trkpt><trkpt lat="44.2032404" lon="10.9432109"><ele>604.8333333333334</ele><time>2026-03-28T12:33:06.071Z</time></trkpt><trkpt lat="44.2032976" lon="10.9432936"><ele>605.6666666666667</ele><time>2026-03-28T12:33:07.05Z</time></trkpt><trkpt lat="44.2033587" lon="10.943352"><ele>606.5</ele><time>2026-03-28T12:33:08.063Z</time></trkpt><trkpt lat="44.2034218" lon="10.9433842"><ele>607.3333333333334</ele><time>2026-03-28T12:33:09.06Z</time></trkpt><trkpt lat="44.2035006" lon="10.9433894"><ele>608.1666666666666</ele><time>2026-03-28T12:33:10.072Z</time></trkpt><trkpt lat="44.203577" lon="10.9433787"><ele>609.0</ele><time>2026-03-28T12:33:11.063Z</time></trkpt><trkpt lat="44.2036677" lon="10.9433585"><ele>609.0</ele><time>2026-03-28T12:33:12.058Z</time></trkpt><trkpt lat="44.2038068" lon="10.943352"><ele>609.0</ele><time>2026-03-28T12:33:13.401Z</time></trkpt><trkpt lat="44.2039907" lon="10.9433894"><ele>609.0</ele><time>2026-03-28T12:33:15.098Z</time></trkpt><trkpt lat="44.2041016" lon="10.9434468"><ele>609.0</ele><time>2026-03-28T12:33:16.117Z</time></trkpt><trkpt lat="44.2042056" lon="10.9435204"><ele>610.25</ele><time>2026-03-28T12:33:17.116Z</time></trkpt><trkpt lat="44.2043104" lon="10.943601"><ele>611.5</ele><time>2026-03-28T12:33:18.105Z</time></trkpt><trkpt lat="44.2044207" lon="10.9436817"><ele>612.75</ele><time>2026-03-28T12:33:19.112Z</time></trkpt><trkpt lat="44.2045336" lon="10.9437487"><ele>614.0</ele><time>2026-03-28T12:33:20.107Z</time></trkpt><trkpt lat="44.20465" lon="10.9438025"><ele>614.0</ele><time>2026-03-28T12:33:21.12Z</time></trkpt><trkpt lat="44.2047613" lon="10.9438427"><ele>614.0</ele><time>2026-03-28T12:33:22.109Z</time></trkpt><trkpt lat="44.204874" lon="10.9438778"><ele>614.0</ele><time>2026-03-28T12:33:23.134Z</time></trkpt><trkpt lat="44.2049817" lon="10.9439102"><ele>614.0</ele><time>2026-03-28T12:33:24.132Z</time></trkpt><trkpt lat="44.2050837" lon="10.9439425"><ele>614.0</ele><time>2026-03-28T12:33:25.11Z</time></trkpt><trkpt lat="44.2051898" lon="10.9439782"><ele>616.5</ele><time>2026-03-28T12:33:26.136Z</time></trkpt><trkpt lat="44.2052951" lon="10.9440135"><ele>619.0</ele><time>2026-03-28T12:33:27.13Z</time></trkpt><trkpt lat="44.2054018" lon="10.9440479"><ele>621.5</ele><time>2026-03-28T12:33:28.093Z</time></trkpt><trkpt lat="44.2055144" lon="10.944083"><ele>624.0</ele><time>2026-03-28T12:33:29.064Z</time></trkpt><trkpt lat="44.205632" lon="10.9441204"><ele>626.75</ele><time>2026-03-28T12:33:30.065Z</time></trkpt><trkpt lat="44.2057512" lon="10.9441586"><ele>629.5</ele><time>2026-03-28T12:33:31.052Z</time></trkpt><trkpt lat="44.2058742" lon="10.9441881"><ele>632.25</ele><time>2026-03-28T12:33:32.057Z</time></trkpt><trkpt lat="44.2059967" lon="10.9442057"><ele>635.0</ele><time>2026-03-28T12:33:33.071Z</time></trkpt><trkpt lat="44.2061127" lon="10.9442084"><ele>635.0</ele><time>2026-03-28T12:33:34.071Z</time></trkpt><trkpt lat="44.2062213" lon="10.944205"><ele>635.0</ele><time>2026-03-28T12:33:35.062Z</time></trkpt><trkpt lat="44.2063277" lon="10.9442105"><ele>635.0</ele><time>2026-03-28T12:33:36.053Z</time></trkpt><trkpt lat="44.2064336" lon="10.9442358"><ele>635.0</ele><time>2026-03-28T12:33:37.074Z</time></trkpt><trkpt lat="44.2065343" lon="10.9442815"><ele>635.0</ele><time>2026-03-28T12:33:38.063Z</time></trkpt><trkpt lat="44.2066342" lon="10.9443499"><ele>633.25</ele><time>2026-03-28T12:33:39.053Z</time></trkpt><trkpt lat="44.2067351" lon="10.9444335"><ele>631.5</ele><time>2026-03-28T12:33:40.064Z</time></trkpt><trkpt lat="44.2068325" lon="10.9445194"><ele>629.75</ele><time>2026-03-28T12:33:41.061Z</time></trkpt><trkpt lat="44.2069317" lon="10.9446098"><ele>628.0</ele><time>2026-03-28T12:33:42.066Z</time></trkpt><trkpt lat="44.2070273" lon="10.9446995"><ele>628.0</ele><time>2026-03-28T12:33:43.053Z</time></trkpt><trkpt lat="44.2071249" lon="10.9447891"><ele>628.0</ele><time>2026-03-28T12:33:44.072Z</time></trkpt><trkpt lat="44.207222" lon="10.9448772"><ele>628.0</ele><time>2026-03-28T12:33:45.075Z</time></trkpt><trkpt lat="44.2073174" lon="10.9449614"><ele>628.0</ele><time>2026-03-28T12:33:46.081Z</time></trkpt><trkpt lat="44.2074154" lon="10.945049"><ele>628.25</ele><time>2026-03-28T12:33:47.086Z</time></trkpt><trkpt lat="44.2075169" lon="10.945142"><ele>628.5</ele><time>2026-03-28T12:33:48.07Z</time></trkpt><trkpt lat="44.2076154" lon="10.9452514"><ele>628.75</ele><time>2026-03-28T12:33:49.059Z</time></trkpt><trkpt lat="44.2077086" lon="10.9453888"><ele>629.0</ele><time>2026-03-28T12:33:50.054Z</time></trkpt><trkpt lat="44.2077876" lon="10.9455531"><ele>629.0</ele><time>2026-03-28T12:33:51.055Z</time></trkpt><trkpt lat="44.2078505" lon="10.9457378"><ele>629.0</ele><time>2026-03-28T12:33:52.056Z</time></trkpt><trkpt lat="44.2078941" lon="10.9459305"><ele>629.0</ele><time>2026-03-28T12:33:53.054Z</time></trkpt><trkpt lat="44.2079274" lon="10.9461153"><ele>629.0</ele><time>2026-03-28T12:33:54.048Z</time></trkpt><trkpt lat="44.2079764" lon="10.9462747"><ele>628.5</ele><time>2026-03-28T12:33:55.051Z</time></trkpt><trkpt lat="44.2080412" lon="10.9464165"><ele>628.0</ele><time>2026-03-28T12:33:56.059Z</time></trkpt><trkpt lat="44.2081203" lon="10.9465482"><ele>627.5</ele><time>2026-03-28T12:33:57.074Z</time></trkpt><trkpt lat="44.2082117" lon="10.9466694"><ele>627.0</ele><time>2026-03-28T12:33:58.058Z</time></trkpt><trkpt lat="44.2083138" lon="10.9467828"><ele>628.0</ele><time>2026-03-28T12:33:59.069Z</time></trkpt><trkpt lat="44.2084025" lon="10.9468866"><ele>629.0</ele><time>2026-03-28T12:34:00.046Z</time></trkpt><trkpt lat="44.2084829" lon="10.9469975"><ele>630.0</ele><time>2026-03-28T12:34:01.046Z</time></trkpt><trkpt lat="44.2085479" lon="10.9471115"><ele>631.0</ele><time>2026-03-28T12:34:02.046Z</time></trkpt><trkpt lat="44.2085927" lon="10.9472352"><ele>632.0</ele><time>2026-03-28T12:34:03.047Z</time></trkpt><trkpt lat="44.2086162" lon="10.9473718"><ele>632.0</ele><time>2026-03-28T12:34:04.074Z</time></trkpt><trkpt lat="44.2086267" lon="10.947514"><ele>632.0</ele><time>2026-03-28T12:34:05.06Z</time></trkpt><trkpt lat="44.2086337" lon="10.9476722"><ele>632.0</ele><time>2026-03-28T12:34:06.061Z</time></trkpt><trkpt lat="44.2086381" lon="10.9478418"><ele>632.0</ele><time>2026-03-28T12:34:07.07Z</time></trkpt><trkpt lat="44.2086408" lon="10.948015"><ele>632.0</ele><time>2026-03-28T12:34:08.067Z</time></trkpt><trkpt lat="44.2086388" lon="10.9481917"><ele>632.0</ele><time>2026-03-28T12:34:09.058Z</time></trkpt><trkpt lat="44.2086312" lon="10.9483729"><ele>632.0</ele><time>2026-03-28T12:34:10.086Z</time></trkpt><trkpt lat="44.2086211" lon="10.9485446"><ele>632.0</ele><time>2026-03-28T12:34:11.064Z</time></trkpt><trkpt lat="44.2086124" lon="10.9487158"><ele>632.5</ele><time>2026-03-28T12:34:12.052Z</time></trkpt><trkpt lat="44.2086033" lon="10.9488805"><ele>633.0</ele><time>2026-03-28T12:34:13.051Z</time></trkpt><trkpt lat="44.2086035" lon="10.9490453"><ele>633.5</ele><time>2026-03-28T12:34:14.065Z</time></trkpt><trkpt lat="44.2086206" lon="10.9491936"><ele>634.0</ele><time>2026-03-28T12:34:15.065Z</time></trkpt><trkpt lat="44.208656" lon="10.9493335"><ele>634.0</ele><time>2026-03-28T12:34:16.053Z</time></trkpt><trkpt lat="44.2087096" lon="10.9494758"><ele>634.0</ele><time>2026-03-28T12:34:17.053Z</time></trkpt><trkpt lat="44.2087713" lon="10.949613"><ele>634.0</ele><time>2026-03-28T12:34:18.059Z</time></trkpt><trkpt lat="44.2088416" lon="10.9497398"><ele>634.0</ele><time>2026-03-28T12:34:19.065Z</time></trkpt><trkpt lat="44.2089152" lon="10.9498649"><ele>634.0</ele><time>2026-03-28T12:34:20.055Z</time></trkpt><trkpt lat="44.2089882" lon="10.9499854"><ele>634.0</ele><time>2026-03-28T12:34:21.057Z</time></trkpt><trkpt lat="44.2090632" lon="10.9501038"><ele>634.0</ele><time>2026-03-28T12:34:22.055Z</time></trkpt><trkpt lat="44.2091436" lon="10.9502189"><ele>634.0</ele><time>2026-03-28T12:34:23.078Z</time></trkpt><trkpt lat="44.2092271" lon="10.9503258"><ele>636.75</ele><time>2026-03-28T12:34:24.063Z</time></trkpt><trkpt lat="44.2093084" lon="10.9504406"><ele>639.5</ele><time>2026-03-28T12:34:25.046Z</time></trkpt><trkpt lat="44.2093673" lon="10.9505795"><ele>642.25</ele><time>2026-03-28T12:34:26.033Z</time></trkpt><trkpt lat="44.2094051" lon="10.950738"><ele>645.0</ele><time>2026-03-28T12:34:27.06Z</time></trkpt><trkpt lat="44.2094129" lon="10.9509108"><ele>646.5</ele><time>2026-03-28T12:34:28.057Z</time></trkpt><trkpt lat="44.2094041" lon="10.9511021"><ele>648.0</ele><time>2026-03-28T12:34:29.071Z</time></trkpt><trkpt lat="44.2093839" lon="10.9512932"><ele>649.5</ele><time>2026-03-28T12:34:30.065Z</time></trkpt><trkpt lat="44.2093654" lon="10.9514809"><ele>651.0</ele><time>2026-03-28T12:34:31.069Z</time></trkpt><trkpt lat="44.2093429" lon="10.951653"><ele>650.1999999999999</ele><time>2026-03-28T12:34:32.053Z</time></trkpt><trkpt lat="44.209305" lon="10.9517963"><ele>649.4</ele><time>2026-03-28T12:34:33.07Z</time></trkpt><trkpt lat="44.2092425" lon="10.951911"><ele>648.6</ele><time>2026-03-28T12:34:34.058Z</time></trkpt><trkpt lat="44.209159" lon="10.951984"><ele>647.8</ele><time>2026-03-28T12:34:35.041Z</time></trkpt><trkpt lat="44.2090576" lon="10.9520211"><ele>647.0</ele><time>2026-03-28T12:34:36.066Z</time></trkpt><trkpt lat="44.2089507" lon="10.952054"><ele>647.0</ele><time>2026-03-28T12:34:37.053Z</time></trkpt><trkpt lat="44.2088458" lon="10.9521046"><ele>647.0</ele><time>2026-03-28T12:34:38.062Z</time></trkpt><trkpt lat="44.2087639" lon="10.9522013"><ele>647.0</ele><time>2026-03-28T12:34:39.054Z</time></trkpt><trkpt lat="44.2087066" lon="10.9523428"><ele>647.0</ele><time>2026-03-28T12:34:40.064Z</time></trkpt><trkpt lat="44.2086591" lon="10.9525258"><ele>648.6666666666666</ele><time>2026-03-28T12:34:41.062Z</time></trkpt><trkpt lat="44.2086115" lon="10.9527171"><ele>650.3333333333334</ele><time>2026-03-28T12:34:42.059Z</time></trkpt><trkpt lat="44.2085653" lon="10.9529285"><ele>652.0</ele><time>2026-03-28T12:34:43.051Z</time></trkpt><trkpt lat="44.2085227" lon="10.9531475"><ele>652.0</ele><time>2026-03-28T12:34:44.067Z</time></trkpt><trkpt lat="44.208483" lon="10.9533615"><ele>652.0</ele><time>2026-03-28T12:34:45.068Z</time></trkpt><trkpt lat="44.2084481" lon="10.9535689"><ele>652.0</ele><time>2026-03-28T12:34:46.066Z</time></trkpt><trkpt lat="44.2084197" lon="10.9537721"><ele>654.5</ele><time>2026-03-28T12:34:47.062Z</time></trkpt><trkpt lat="44.208388" lon="10.9539681"><ele>657.0</ele><time>2026-03-28T12:34:48.072Z</time></trkpt><trkpt lat="44.2083449" lon="10.9541538"><ele>659.5</ele><time>2026-03-28T12:34:49.067Z</time></trkpt><trkpt lat="44.2082796" lon="10.9543153"><ele>662.0</ele><time>2026-03-28T12:34:50.074Z</time></trkpt><trkpt lat="44.2081921" lon="10.9544668"><ele>661.75</ele><time>2026-03-28T12:34:51.056Z</time></trkpt><trkpt lat="44.2080935" lon="10.9546187"><ele>661.5</ele><time>2026-03-28T12:34:52.061Z</time></trkpt><trkpt lat="44.2079966" lon="10.9547772"><ele>661.25</ele><time>2026-03-28T12:34:53.076Z</time></trkpt><trkpt lat="44.2079035" lon="10.9549387"><ele>661.0</ele><time>2026-03-28T12:34:54.064Z</time></trkpt><trkpt lat="44.2078084" lon="10.9551108"><ele>664.6666666666667</ele><time>2026-03-28T12:34:55.092Z</time></trkpt><trkpt lat="44.2077166" lon="10.9552767"><ele>668.3333333333334</ele><time>2026-03-28T12:34:56.073Z</time></trkpt><trkpt lat="44.2076204" lon="10.9554406"><ele>672.0</ele><time>2026-03-28T12:34:57.069Z</time></trkpt><trkpt lat="44.2075204" lon="10.9555997"><ele>672.0</ele><time>2026-03-28T12:34:58.06Z</time></trkpt><trkpt lat="44.2074207" lon="10.9557639"><ele>672.0</ele><time>2026-03-28T12:34:59.059Z</time></trkpt><trkpt lat="44.2073237" lon="10.9559403"><ele>672.0</ele><time>2026-03-28T12:35:00.067Z</time></trkpt><trkpt lat="44.2072295" lon="10.9561137"><ele>671.0</ele><time>2026-03-28T12:35:01.063Z</time></trkpt><trkpt lat="44.2071405" lon="10.9562895"><ele>670.0</ele><time>2026-03-28T12:35:02.063Z</time></trkpt><trkpt lat="44.2070499" lon="10.9564607"><ele>669.0</ele><time>2026-03-28T12:35:03.067Z</time></trkpt><trkpt lat="44.2069589" lon="10.9566296"><ele>672.3333333333334</ele><time>2026-03-28T12:35:04.063Z</time></trkpt><trkpt lat="44.20687" lon="10.9568002"><ele>675.6666666666667</ele><time>2026-03-28T12:35:05.058Z</time></trkpt><trkpt lat="44.2067822" lon="10.956972"><ele>679.0</ele><time>2026-03-28T12:35:06.059Z</time></trkpt><trkpt lat="44.2066891" lon="10.9571395"><ele>679.0</ele><time>2026-03-28T12:35:07.054Z</time></trkpt><trkpt lat="44.2065756" lon="10.957287"><ele>679.0</ele><time>2026-03-28T12:35:08.061Z</time></trkpt><trkpt lat="44.2064443" lon="10.9573982"><ele>679.0</ele><time>2026-03-28T12:35:09.056Z</time></trkpt><trkpt lat="44.2063049" lon="10.9574737"><ele>678.0</ele><time>2026-03-28T12:35:10.055Z</time></trkpt><trkpt lat="44.2061799" lon="10.957522"><ele>677.0</ele><time>2026-03-28T12:35:11.052Z</time></trkpt><trkpt lat="44.2060819" lon="10.9575779"><ele>676.0</ele><time>2026-03-28T12:35:12.06Z</time></trkpt><trkpt lat="44.2060205" lon="10.9576581"><ele>675.0</ele><time>2026-03-28T12:35:13.038Z</time></trkpt><trkpt lat="44.2060017" lon="10.9577642"><ele>674.0</ele><time>2026-03-28T12:35:14.053Z</time></trkpt><trkpt lat="44.2060147" lon="10.9578963"><ele>674.0</ele><time>2026-03-28T12:35:15.047Z</time></trkpt><trkpt lat="44.2060547" lon="10.9580521"><ele>674.0</ele><time>2026-03-28T12:35:16.055Z</time></trkpt><trkpt lat="44.2061149" lon="10.9582208"><ele>674.0</ele><time>2026-03-28T12:35:17.072Z</time></trkpt><trkpt lat="44.2061431" lon="10.9583939"><ele>674.0</ele><time>2026-03-28T12:35:18.051Z</time></trkpt><trkpt lat="44.2061602" lon="10.9586039"><ele>674.25</ele><time>2026-03-28T12:35:19.055Z</time></trkpt><trkpt lat="44.2061517" lon="10.9588088"><ele>674.5</ele><time>2026-03-28T12:35:20.049Z</time></trkpt><trkpt lat="44.2061246" lon="10.9590054"><ele>674.75</ele><time>2026-03-28T12:35:21.049Z</time></trkpt><trkpt lat="44.2060994" lon="10.9591911"><ele>675.0</ele><time>2026-03-28T12:35:22.075Z</time></trkpt><trkpt lat="44.2060931" lon="10.9593483"><ele>675.25</ele><time>2026-03-28T12:35:23.043Z</time></trkpt><trkpt lat="44.2061169" lon="10.9594921"><ele>675.5</ele><time>2026-03-28T12:35:24.058Z</time></trkpt><trkpt lat="44.2061781" lon="10.9596259"><ele>675.75</ele><time>2026-03-28T12:35:25.056Z</time></trkpt><trkpt lat="44.206261" lon="10.9597637"><ele>676.0</ele><time>2026-03-28T12:35:26.054Z</time></trkpt><trkpt lat="44.20634" lon="10.9598895"><ele>676.0</ele><time>2026-03-28T12:35:27.057Z</time></trkpt><trkpt lat="44.2064092" lon="10.9600059"><ele>676.0</ele><time>2026-03-28T12:35:28.065Z</time></trkpt><trkpt lat="44.2064427" lon="10.9600973"><ele>676.0</ele><time>2026-03-28T12:35:29.062Z</time></trkpt><trkpt lat="44.2064532" lon="10.9601998"><ele>676.0</ele><time>2026-03-28T12:35:30.063Z</time></trkpt><trkpt lat="44.2064338" lon="10.9602915"><ele>676.0</ele><time>2026-03-28T12:35:31.036Z</time></trkpt><trkpt lat="44.206386" lon="10.9603909"><ele>676.0</ele><time>2026-03-28T12:35:32.057Z</time></trkpt><trkpt lat="44.2063197" lon="10.9604737"><ele>677.8</ele><time>2026-03-28T12:35:33.058Z</time></trkpt><trkpt lat="44.2062423" lon="10.9605525"><ele>679.5999999999999</ele><time>2026-03-28T12:35:34.075Z</time></trkpt><trkpt lat="44.2061568" lon="10.9606409"><ele>681.4</ele><time>2026-03-28T12:35:35.07Z</time></trkpt><trkpt lat="44.2060665" lon="10.9607291"><ele>683.2</ele><time>2026-03-28T12:35:36.053Z</time></trkpt><trkpt lat="44.2059686" lon="10.9608241"><ele>685.0</ele><time>2026-03-28T12:35:37.059Z</time></trkpt><trkpt lat="44.2058771" lon="10.9609152"><ele>684.0</ele><time>2026-03-28T12:35:38.054Z</time></trkpt><trkpt lat="44.2057927" lon="10.9610146"><ele>683.0</ele><time>2026-03-28T12:35:39.056Z</time></trkpt><trkpt lat="44.2057219" lon="10.9611436"><ele>682.0</ele><time>2026-03-28T12:35:40.073Z</time></trkpt><trkpt lat="44.205664" lon="10.9612925"><ele>681.0</ele><time>2026-03-28T12:35:41.06Z</time></trkpt><trkpt lat="44.2056072" lon="10.9614611"><ele>681.0</ele><time>2026-03-28T12:35:42.071Z</time></trkpt><trkpt lat="44.2055526" lon="10.9616174"><ele>681.0</ele><time>2026-03-28T12:35:43.062Z</time></trkpt><trkpt lat="44.2054974" lon="10.961781"><ele>681.0</ele><time>2026-03-28T12:35:44.057Z</time></trkpt><trkpt lat="44.2054463" lon="10.9619494"><ele>681.0</ele><time>2026-03-28T12:35:45.053Z</time></trkpt><trkpt lat="44.2054014" lon="10.962112"><ele>681.0</ele><time>2026-03-28T12:35:46.053Z</time></trkpt><trkpt lat="44.2053884" lon="10.9622517"><ele>681.0</ele><time>2026-03-28T12:35:47.062Z</time></trkpt><trkpt lat="44.2054015" lon="10.9624256"><ele>681.0</ele><time>2026-03-28T12:35:48.053Z</time></trkpt><trkpt lat="44.2054506" lon="10.9625538"><ele>681.0</ele><time>2026-03-28T12:35:49.06Z</time></trkpt><trkpt lat="44.2055228" lon="10.9626751"><ele>681.0</ele><time>2026-03-28T12:35:50.068Z</time></trkpt><trkpt lat="44.2056129" lon="10.9627875"><ele>685.0</ele><time>2026-03-28T12:35:51.067Z</time></trkpt><trkpt lat="44.2057175" lon="10.9629176"><ele>689.0</ele><time>2026-03-28T12:35:52.074Z</time></trkpt><trkpt lat="44.205814" lon="10.9630784"><ele>693.0</ele><time>2026-03-28T12:35:53.068Z</time></trkpt><trkpt lat="44.2058914" lon="10.9632494"><ele>697.0</ele><time>2026-03-28T12:35:54.054Z</time></trkpt><trkpt lat="44.2059154" lon="10.9634279"><ele>697.0</ele><time>2026-03-28T12:35:55.067Z</time></trkpt><trkpt lat="44.2059489" lon="10.9636039"><ele>697.0</ele><time>2026-03-28T12:35:56.036Z</time></trkpt><trkpt lat="44.2059794" lon="10.9637824"><ele>697.0</ele><time>2026-03-28T12:35:57.068Z</time></trkpt><trkpt lat="44.206017" lon="10.9639619"><ele>697.0</ele><time>2026-03-28T12:35:58.048Z</time></trkpt><trkpt lat="44.2060573" lon="10.9641544"><ele>697.25</ele><time>2026-03-28T12:35:59.065Z</time></trkpt><trkpt lat="44.2060996" lon="10.9643386"><ele>697.5</ele><time>2026-03-28T12:36:00.045Z</time></trkpt><trkpt lat="44.2061443" lon="10.9645309"><ele>697.75</ele><time>2026-03-28T12:36:01.058Z</time></trkpt><trkpt lat="44.2061899" lon="10.9647263"><ele>698.0</ele><time>2026-03-28T12:36:02.075Z</time></trkpt><trkpt lat="44.206234" lon="10.9649155"><ele>697.75</ele><time>2026-03-28T12:36:03.067Z</time></trkpt><trkpt lat="44.206275" lon="10.9651017"><ele>697.5</ele><time>2026-03-28T12:36:04.031Z</time></trkpt><trkpt lat="44.2063155" lon="10.9652962"><ele>697.25</ele><time>2026-03-28T12:36:05.058Z</time></trkpt><trkpt lat="44.2063537" lon="10.965472"><ele>697.0</ele><time>2026-03-28T12:36:06.067Z</time></trkpt><trkpt lat="44.2064105" lon="10.9656231"><ele>697.0</ele><time>2026-03-28T12:36:07.05Z</time></trkpt><trkpt lat="44.2064928" lon="10.9657715"><ele>697.0</ele><time>2026-03-28T12:36:08.068Z</time></trkpt><trkpt lat="44.2065836" lon="10.9659043"><ele>697.0</ele><time>2026-03-28T12:36:09.052Z</time></trkpt><trkpt lat="44.2066818" lon="10.9660361"><ele>697.0</ele><time>2026-03-28T12:36:10.061Z</time></trkpt><trkpt lat="44.206777" lon="10.9661653"><ele>696.75</ele><time>2026-03-28T12:36:11.055Z</time></trkpt><trkpt lat="44.2068739" lon="10.9663024"><ele>696.5</ele><time>2026-03-28T12:36:12.074Z</time></trkpt><trkpt lat="44.2069669" lon="10.9664436"><ele>696.25</ele><time>2026-03-28T12:36:13.07Z</time></trkpt><trkpt lat="44.2070632" lon="10.9665891"><ele>696.0</ele><time>2026-03-28T12:36:14.07Z</time></trkpt><trkpt lat="44.2071705" lon="10.9667351"><ele>696.0</ele><time>2026-03-28T12:36:15.056Z</time></trkpt><trkpt lat="44.2072997" lon="10.966881"><ele>696.0</ele><time>2026-03-28T12:36:16.058Z</time></trkpt><trkpt lat="44.2074439" lon="10.9670142"><ele>696.0</ele><time>2026-03-28T12:36:17.067Z</time></trkpt><trkpt lat="44.207586" lon="10.9671204"><ele>700.0</ele><time>2026-03-28T12:36:18.052Z</time></trkpt><trkpt lat="44.2077222" lon="10.9672136"><ele>704.0</ele><time>2026-03-28T12:36:19.054Z</time></trkpt><trkpt lat="44.2078307" lon="10.9673083"><ele>708.0</ele><time>2026-03-28T12:36:20.048Z</time></trkpt><trkpt lat="44.2079203" lon="10.9674209"><ele>712.0</ele><time>2026-03-28T12:36:21.056Z</time></trkpt><trkpt lat="44.2079548" lon="10.9675016"><ele>709.75</ele><time>2026-03-28T12:36:22.065Z</time></trkpt><trkpt lat="44.2079953" lon="10.9676347"><ele>707.5</ele><time>2026-03-28T12:36:23.058Z</time></trkpt><trkpt lat="44.2080437" lon="10.967772"><ele>705.25</ele><time>2026-03-28T12:36:24.051Z</time></trkpt><trkpt lat="44.2081168" lon="10.9678977"><ele>703.0</ele><time>2026-03-28T12:36:25.051Z</time></trkpt><trkpt lat="44.208201" lon="10.9680326"><ele>706.25</ele><time>2026-03-28T12:36:26.063Z</time></trkpt><trkpt lat="44.20828" lon="10.9681889"><ele>709.5</ele><time>2026-03-28T12:36:27.055Z</time></trkpt><trkpt lat="44.2083203" lon="10.9683568"><ele>712.75</ele><time>2026-03-28T12:36:28.054Z</time></trkpt><trkpt lat="44.2083399" lon="10.9685265"><ele>716.0</ele><time>2026-03-28T12:36:29.059Z</time></trkpt><trkpt lat="44.2083729" lon="10.968668"><ele>716.0</ele><time>2026-03-28T12:36:30.074Z</time></trkpt><trkpt lat="44.2084295" lon="10.9687752"><ele>716.0</ele><time>2026-03-28T12:36:31.047Z</time></trkpt><trkpt lat="44.208518" lon="10.9688932"><ele>716.0</ele><time>2026-03-28T12:36:32.072Z</time></trkpt><trkpt lat="44.2086341" lon="10.9690295"><ele>716.0</ele><time>2026-03-28T12:36:33.069Z</time></trkpt><trkpt lat="44.2087806" lon="10.969173"><ele>713.6666666666666</ele><time>2026-03-28T12:36:34.062Z</time></trkpt><trkpt lat="44.2089409" lon="10.9693138"><ele>711.3333333333334</ele><time>2026-03-28T12:36:35.069Z</time></trkpt><trkpt lat="44.2090861" lon="10.9694377"><ele>709.0</ele><time>2026-03-28T12:36:36.054Z</time></trkpt><trkpt lat="44.2092257" lon="10.9695624"><ele>711.5</ele><time>2026-03-28T12:36:37.048Z</time></trkpt><trkpt lat="44.2093404" lon="10.9697065"><ele>714.0</ele><time>2026-03-28T12:36:38.044Z</time></trkpt><trkpt lat="44.2094266" lon="10.9698483"><ele>716.5</ele><time>2026-03-28T12:36:39.058Z</time></trkpt><trkpt lat="44.2095024" lon="10.9699581"><ele>719.0</ele><time>2026-03-28T12:36:40.069Z</time></trkpt><trkpt lat="44.2096021" lon="10.9700328"><ele>719.0</ele><time>2026-03-28T12:36:41.074Z</time></trkpt><trkpt lat="44.2097148" lon="10.9700867"><ele>719.0</ele><time>2026-03-28T12:36:42.059Z</time></trkpt><trkpt lat="44.2098402" lon="10.9701266"><ele>719.0</ele><time>2026-03-28T12:36:43.063Z</time></trkpt><trkpt lat="44.2099753" lon="10.9701908"><ele>719.0</ele><time>2026-03-28T12:36:44.062Z</time></trkpt><trkpt lat="44.2101166" lon="10.9702864"><ele>723.0</ele><time>2026-03-28T12:36:45.062Z</time></trkpt><trkpt lat="44.2102485" lon="10.9703968"><ele>727.0</ele><time>2026-03-28T12:36:46.063Z</time></trkpt><trkpt lat="44.2103818" lon="10.9705029"><ele>731.0</ele><time>2026-03-28T12:36:47.063Z</time></trkpt><trkpt lat="44.2105238" lon="10.9705816"><ele>733.25</ele><time>2026-03-28T12:36:48.06Z</time></trkpt><trkpt lat="44.210663" lon="10.9706611"><ele>735.5</ele><time>2026-03-28T12:36:49.059Z</time></trkpt><trkpt lat="44.2108038" lon="10.9707259"><ele>737.75</ele><time>2026-03-28T12:36:50.071Z</time></trkpt><trkpt lat="44.2109435" lon="10.9707662"><ele>740.0</ele><time>2026-03-28T12:36:51.053Z</time></trkpt><trkpt lat="44.2111057" lon="10.9707918"><ele>740.0</ele><time>2026-03-28T12:36:52.087Z</time></trkpt><trkpt lat="44.2112609" lon="10.9707912"><ele>740.0</ele><time>2026-03-28T12:36:53.062Z</time></trkpt><trkpt lat="44.2114239" lon="10.9707667"><ele>740.0</ele><time>2026-03-28T12:36:54.063Z</time></trkpt><trkpt lat="44.2115817" lon="10.9707286"><ele>742.0</ele><time>2026-03-28T12:36:55.067Z</time></trkpt><trkpt lat="44.2117358" lon="10.9706797"><ele>744.0</ele><time>2026-03-28T12:36:56.057Z</time></trkpt><trkpt lat="44.2118833" lon="10.9706265"><ele>746.0</ele><time>2026-03-28T12:36:57.055Z</time></trkpt><trkpt lat="44.2120278" lon="10.9705777"><ele>746.0</ele><time>2026-03-28T12:36:58.049Z</time></trkpt><trkpt lat="44.2121746" lon="10.9705473"><ele>746.0</ele><time>2026-03-28T12:36:59.054Z</time></trkpt><trkpt lat="44.2123063" lon="10.9705395"><ele>746.0</ele><time>2026-03-28T12:37:00.039Z</time></trkpt><trkpt lat="44.2124351" lon="10.9705272"><ele>746.0</ele><time>2026-03-28T12:37:01.064Z</time></trkpt><trkpt lat="44.2125449" lon="10.9705038"><ele>747.5999999999999</ele><time>2026-03-28T12:37:02.056Z</time></trkpt><trkpt lat="44.2126495" lon="10.9704694"><ele>749.2</ele><time>2026-03-28T12:37:03.061Z</time></trkpt><trkpt lat="44.2127402" lon="10.970413"><ele>750.8</ele><time>2026-03-28T12:37:04.051Z</time></trkpt><trkpt lat="44.2128176" lon="10.970325"><ele>752.4000000000001</ele><time>2026-03-28T12:37:05.062Z</time></trkpt><trkpt lat="44.2128889" lon="10.9702001"><ele>754.0</ele><time>2026-03-28T12:37:06.052Z</time></trkpt><trkpt lat="44.2129378" lon="10.9700556"><ele>754.8000000000001</ele><time>2026-03-28T12:37:07.056Z</time></trkpt><trkpt lat="44.2129722" lon="10.9698917"><ele>755.6</ele><time>2026-03-28T12:37:08.058Z</time></trkpt><trkpt lat="44.2130081" lon="10.9697321"><ele>756.4</ele><time>2026-03-28T12:37:09.066Z</time></trkpt><trkpt lat="44.2130625" lon="10.9695791"><ele>757.2</ele><time>2026-03-28T12:37:10.052Z</time></trkpt><trkpt lat="44.2131215" lon="10.969506"><ele>758.0</ele><time>2026-03-28T12:37:11.064Z</time></trkpt><trkpt lat="44.2132149" lon="10.9693929"><ele>758.0</ele><time>2026-03-28T12:37:12.049Z</time></trkpt><trkpt lat="44.2133152" lon="10.9692879"><ele>758.0</ele><time>2026-03-28T12:37:13.058Z</time></trkpt><trkpt lat="44.2133909" lon="10.9691658"><ele>758.0</ele><time>2026-03-28T12:37:14.065Z</time></trkpt><trkpt lat="44.2134247" lon="10.9690239"><ele>758.0</ele><time>2026-03-28T12:37:15.045Z</time></trkpt><trkpt lat="44.2134452" lon="10.9688657"><ele>758.0</ele><time>2026-03-28T12:37:16.041Z</time></trkpt><trkpt lat="44.2134732" lon="10.9687053"><ele>758.0</ele><time>2026-03-28T12:37:17.056Z</time></trkpt><trkpt lat="44.2135278" lon="10.968575"><ele>758.0</ele><time>2026-03-28T12:37:18.047Z</time></trkpt><trkpt lat="44.2136198" lon="10.968465"><ele>758.0</ele><time>2026-03-28T12:37:19.054Z</time></trkpt><trkpt lat="44.2137271" lon="10.968412"><ele>759.6666666666666</ele><time>2026-03-28T12:37:20.058Z</time></trkpt><trkpt lat="44.2138535" lon="10.9683337"><ele>761.3333333333334</ele><time>2026-03-28T12:37:21.054Z</time></trkpt><trkpt lat="44.2140051" lon="10.9682565"><ele>763.0</ele><time>2026-03-28T12:37:22.063Z</time></trkpt><trkpt lat="44.2141538" lon="10.968178"><ele>763.0</ele><time>2026-03-28T12:37:23.056Z</time></trkpt><trkpt lat="44.2143027" lon="10.9680953"><ele>763.0</ele><time>2026-03-28T12:37:24.054Z</time></trkpt><trkpt lat="44.2144455" lon="10.9680105"><ele>763.0</ele><time>2026-03-28T12:37:25.05Z</time></trkpt><trkpt lat="44.2145889" lon="10.9679291"><ele>763.0</ele><time>2026-03-28T12:37:26.052Z</time></trkpt><trkpt lat="44.2147336" lon="10.9678455"><ele>763.0</ele><time>2026-03-28T12:37:27.067Z</time></trkpt><trkpt lat="44.2148717" lon="10.9677693"><ele>763.0</ele><time>2026-03-28T12:37:28.069Z</time></trkpt><trkpt lat="44.2150041" lon="10.9676928"><ele>763.0</ele><time>2026-03-28T12:37:29.066Z</time></trkpt><trkpt lat="44.2151352" lon="10.9676179"><ele>764.5</ele><time>2026-03-28T12:37:30.066Z</time></trkpt><trkpt lat="44.2152655" lon="10.9675613"><ele>766.0</ele><time>2026-03-28T12:37:31.051Z</time></trkpt><trkpt lat="44.2154056" lon="10.9675278"><ele>767.5</ele><time>2026-03-28T12:37:32.063Z</time></trkpt><trkpt lat="44.2155449" lon="10.9675268"><ele>769.0</ele><time>2026-03-28T12:37:33.073Z</time></trkpt><trkpt lat="44.2156883" lon="10.9675469"><ele>770.75</ele><time>2026-03-28T12:37:34.066Z</time></trkpt><trkpt lat="44.215827" lon="10.9675914"><ele>772.5</ele><time>2026-03-28T12:37:35.061Z</time></trkpt><trkpt lat="44.2159555" lon="10.9676561"><ele>774.25</ele><time>2026-03-28T12:37:36.068Z</time></trkpt><trkpt lat="44.2160719" lon="10.9677104"><ele>776.0</ele><time>2026-03-28T12:37:37.045Z</time></trkpt><trkpt lat="44.2161919" lon="10.9677413"><ele>776.0</ele><time>2026-03-28T12:37:38.058Z</time></trkpt><trkpt lat="44.216311" lon="10.9677323"><ele>776.0</ele><time>2026-03-28T12:37:39.044Z</time></trkpt><trkpt lat="44.2164415" lon="10.9676981"><ele>776.0</ele><time>2026-03-28T12:37:40.055Z</time></trkpt><trkpt lat="44.2165811" lon="10.9676534"><ele>776.0</ele><time>2026-03-28T12:37:41.062Z</time></trkpt><trkpt lat="44.2167268" lon="10.9676183"><ele>778.0</ele><time>2026-03-28T12:37:42.047Z</time></trkpt><trkpt lat="44.2168852" lon="10.9676041"><ele>780.0</ele><time>2026-03-28T12:37:43.054Z</time></trkpt><trkpt lat="44.217046" lon="10.9675956"><ele>782.0</ele><time>2026-03-28T12:37:44.059Z</time></trkpt><trkpt lat="44.2172092" lon="10.9675759"><ele>782.6666666666667</ele><time>2026-03-28T12:37:45.076Z</time></trkpt><trkpt lat="44.217372" lon="10.967558"><ele>783.3333333333333</ele><time>2026-03-28T12:37:46.051Z</time></trkpt><trkpt lat="44.2175342" lon="10.9675452"><ele>784.0</ele><time>2026-03-28T12:37:47.048Z</time></trkpt><trkpt lat="44.2176869" lon="10.9675389"><ele>782.75</ele><time>2026-03-28T12:37:48.058Z</time></trkpt><trkpt lat="44.2178206" lon="10.9675223"><ele>781.5</ele><time>2026-03-28T12:37:49.053Z</time></trkpt><trkpt lat="44.2179305" lon="10.9674753"><ele>780.25</ele><time>2026-03-28T12:37:50.052Z</time></trkpt><trkpt lat="44.218028" lon="10.9673945"><ele>779.0</ele><time>2026-03-28T12:37:51.073Z</time></trkpt><trkpt lat="44.2181142" lon="10.9672841"><ele>779.2</ele><time>2026-03-28T12:37:52.063Z</time></trkpt><trkpt lat="44.2181874" lon="10.9671575"><ele>779.4000000000001</ele><time>2026-03-28T12:37:53.063Z</time></trkpt><trkpt lat="44.2182415" lon="10.9670294"><ele>779.6</ele><time>2026-03-28T12:37:54.063Z</time></trkpt><trkpt lat="44.2182695" lon="10.9668985"><ele>779.8</ele><time>2026-03-28T12:37:55.048Z</time></trkpt><trkpt lat="44.2182738" lon="10.9667363"><ele>780.0</ele><time>2026-03-28T12:37:56.067Z</time></trkpt><trkpt lat="44.2182681" lon="10.9665672"><ele>780.5</ele><time>2026-03-28T12:37:57.062Z</time></trkpt><trkpt lat="44.2182732" lon="10.9663754"><ele>781.0</ele><time>2026-03-28T12:37:58.058Z</time></trkpt><trkpt lat="44.218291" lon="10.9661759"><ele>781.5</ele><time>2026-03-28T12:37:59.063Z</time></trkpt><trkpt lat="44.2183366" lon="10.9659882"><ele>782.0</ele><time>2026-03-28T12:38:00.048Z</time></trkpt><trkpt lat="44.2184178" lon="10.9658356"><ele>782.5</ele><time>2026-03-28T12:38:01.054Z</time></trkpt><trkpt lat="44.2185047" lon="10.9656804"><ele>783.0</ele><time>2026-03-28T12:38:02.052Z</time></trkpt><trkpt lat="44.2185928" lon="10.9655425"><ele>783.5</ele><time>2026-03-28T12:38:03.077Z</time></trkpt><trkpt lat="44.2186699" lon="10.9654246"><ele>784.0</ele><time>2026-03-28T12:38:04.076Z</time></trkpt><trkpt lat="44.2187151" lon="10.965301"><ele>784.0</ele><time>2026-03-28T12:38:05.076Z</time></trkpt><trkpt lat="44.2187356" lon="10.9651695"><ele>784.0</ele><time>2026-03-28T12:38:06.048Z</time></trkpt><trkpt lat="44.218737" lon="10.9650062"><ele>784.0</ele><time>2026-03-28T12:38:07.054Z</time></trkpt><trkpt lat="44.218716" lon="10.9648316"><ele>784.0</ele><time>2026-03-28T12:38:08.048Z</time></trkpt><trkpt lat="44.2186891" lon="10.9646505"><ele>785.25</ele><time>2026-03-28T12:38:09.049Z</time></trkpt><trkpt lat="44.2186701" lon="10.9644609"><ele>786.5</ele><time>2026-03-28T12:38:10.055Z</time></trkpt><trkpt lat="44.2186818" lon="10.9642742"><ele>787.75</ele><time>2026-03-28T12:38:11.037Z</time></trkpt><trkpt lat="44.2187224" lon="10.9640864"><ele>789.0</ele><time>2026-03-28T12:38:12.046Z</time></trkpt><trkpt lat="44.2187897" lon="10.9639273"><ele>789.75</ele><time>2026-03-28T12:38:13.053Z</time></trkpt><trkpt lat="44.2188687" lon="10.9637988"><ele>790.5</ele><time>2026-03-28T12:38:14.044Z</time></trkpt><trkpt lat="44.2189623" lon="10.9637106"><ele>791.25</ele><time>2026-03-28T12:38:15.055Z</time></trkpt><trkpt lat="44.2190696" lon="10.9636523"><ele>792.0</ele><time>2026-03-28T12:38:16.055Z</time></trkpt><trkpt lat="44.2191819" lon="10.9636266"><ele>791.0</ele><time>2026-03-28T12:38:17.072Z</time></trkpt><trkpt lat="44.2192923" lon="10.9636316"><ele>790.0</ele><time>2026-03-28T12:38:18.077Z</time></trkpt><trkpt lat="44.2193895" lon="10.9636333"><ele>789.0</ele><time>2026-03-28T12:38:19.061Z</time></trkpt><trkpt lat="44.2194695" lon="10.9636024"><ele>788.0</ele><time>2026-03-28T12:38:20.059Z</time></trkpt><trkpt lat="44.2195234" lon="10.9635339"><ele>787.0</ele><time>2026-03-28T12:38:21.067Z</time></trkpt><trkpt lat="44.21955" lon="10.9634312"><ele>786.0</ele><time>2026-03-28T12:38:22.066Z</time></trkpt><trkpt lat="44.2195818" lon="10.9633131"><ele>787.1999999999999</ele><time>2026-03-28T12:38:23.063Z</time></trkpt><trkpt lat="44.2196287" lon="10.9632021"><ele>788.4</ele><time>2026-03-28T12:38:24.049Z</time></trkpt><trkpt lat="44.2196793" lon="10.9630648"><ele>789.6</ele><time>2026-03-28T12:38:25.053Z</time></trkpt><trkpt lat="44.2197438" lon="10.9629413"><ele>790.8</ele><time>2026-03-28T12:38:26.049Z</time></trkpt><trkpt lat="44.2198239" lon="10.9628044"><ele>792.0</ele><time>2026-03-28T12:38:27.07Z</time></trkpt><trkpt lat="44.2199062" lon="10.9626565"><ele>796.3333333333333</ele><time>2026-03-28T12:38:28.061Z</time></trkpt><trkpt lat="44.2200015" lon="10.9624865"><ele>800.6666666666666</ele><time>2026-03-28T12:38:29.075Z</time></trkpt><trkpt lat="44.2201185" lon="10.9623342"><ele>805.0</ele><time>2026-03-28T12:38:30.043Z</time></trkpt><trkpt lat="44.2202571" lon="10.9621926"><ele>805.0</ele><time>2026-03-28T12:38:31.051Z</time></trkpt><trkpt lat="44.2203817" lon="10.962105"><ele>805.0</ele><time>2026-03-28T12:38:32.055Z</time></trkpt><trkpt lat="44.2204945" lon="10.9620738"><ele>805.0</ele><time>2026-03-28T12:38:33.07Z</time></trkpt><trkpt lat="44.2205947" lon="10.9620945"><ele>805.0</ele><time>2026-03-28T12:38:34.044Z</time></trkpt><trkpt lat="44.2207008" lon="10.9621629"><ele>805.5</ele><time>2026-03-28T12:38:35.061Z</time></trkpt><trkpt lat="44.2208074" lon="10.962279"><ele>806.0</ele><time>2026-03-28T12:38:36.06Z</time></trkpt><trkpt lat="44.2208993" lon="10.9624414"><ele>806.5</ele><time>2026-03-28T12:38:37.069Z</time></trkpt><trkpt lat="44.2209842" lon="10.9626316"><ele>807.0</ele><time>2026-03-28T12:38:38.063Z</time></trkpt><trkpt lat="44.2210588" lon="10.9627911"><ele>803.75</ele><time>2026-03-28T12:38:39.046Z</time></trkpt><trkpt lat="44.2211376" lon="10.9628897"><ele>800.5</ele><time>2026-03-28T12:38:40.063Z</time></trkpt><trkpt lat="44.2212316" lon="10.9629494"><ele>797.25</ele><time>2026-03-28T12:38:41.038Z</time></trkpt><trkpt lat="44.2213444" lon="10.9630018"><ele>794.0</ele><time>2026-03-28T12:38:42.064Z</time></trkpt><trkpt lat="44.221469" lon="10.9630521"><ele>796.25</ele><time>2026-03-28T12:38:43.072Z</time></trkpt><trkpt lat="44.2215756" lon="10.9630618"><ele>798.5</ele><time>2026-03-28T12:38:44.076Z</time></trkpt><trkpt lat="44.2216712" lon="10.9630286"><ele>800.75</ele><time>2026-03-28T12:38:45.061Z</time></trkpt><trkpt lat="44.2217827" lon="10.9629339"><ele>803.0</ele><time>2026-03-28T12:38:46.061Z</time></trkpt><trkpt lat="44.2218577" lon="10.9627956"><ele>803.0</ele><time>2026-03-28T12:38:47.056Z</time></trkpt><trkpt lat="44.2219436" lon="10.9626378"><ele>803.0</ele><time>2026-03-28T12:38:48.042Z</time></trkpt><trkpt lat="44.222058" lon="10.9624871"><ele>803.0</ele><time>2026-03-28T12:38:49.055Z</time></trkpt><trkpt lat="44.2221894" lon="10.9623748"><ele>803.6666666666667</ele><time>2026-03-28T12:38:50.054Z</time></trkpt><trkpt lat="44.2223308" lon="10.9623056"><ele>804.3333333333333</ele><time>2026-03-28T12:38:51.041Z</time></trkpt><trkpt lat="44.2224761" lon="10.9622424"><ele>805.0</ele><time>2026-03-28T12:38:52.055Z</time></trkpt><trkpt lat="44.222618" lon="10.9621629"><ele>805.0</ele><time>2026-03-28T12:38:53.059Z</time></trkpt><trkpt lat="44.2227599" lon="10.9620453"><ele>805.0</ele><time>2026-03-28T12:38:54.058Z</time></trkpt><trkpt lat="44.2229583" lon="10.9618482"><ele>805.0</ele><time>2026-03-28T12:38:55.4Z</time></trkpt><trkpt lat="44.22323" lon="10.9615873"><ele>806.6666666666666</ele><time>2026-03-28T12:38:57.133Z</time></trkpt><trkpt lat="44.2233739" lon="10.9614344"><ele>808.3333333333333</ele><time>2026-03-28T12:38:58.141Z</time></trkpt><trkpt lat="44.2235007" lon="10.9613072"><ele>810.0</ele><time>2026-03-28T12:38:59.116Z</time></trkpt><trkpt lat="44.2236208" lon="10.9612059"><ele>810.0</ele><time>2026-03-28T12:39:00.103Z</time></trkpt><trkpt lat="44.2237411" lon="10.9611379"><ele>810.0</ele><time>2026-03-28T12:39:01.127Z</time></trkpt><trkpt lat="44.2238483" lon="10.961102"><ele>810.0</ele><time>2026-03-28T12:39:02.1Z</time></trkpt><trkpt lat="44.2239507" lon="10.961074"><ele>810.0</ele><time>2026-03-28T12:39:03.118Z</time></trkpt><trkpt lat="44.2240421" lon="10.9610339"><ele>810.0</ele><time>2026-03-28T12:39:04.131Z</time></trkpt><trkpt lat="44.2241187" lon="10.9609706"><ele>808.8</ele><time>2026-03-28T12:39:05.108Z</time></trkpt><trkpt lat="44.2241857" lon="10.9608782"><ele>807.6</ele><time>2026-03-28T12:39:06.1Z</time></trkpt><trkpt lat="44.2242448" lon="10.9607782"><ele>806.4000000000001</ele><time>2026-03-28T12:39:07.043Z</time></trkpt><trkpt lat="44.2243032" lon="10.9606636"><ele>805.2</ele><time>2026-03-28T12:39:08.055Z</time></trkpt><trkpt lat="44.2243461" lon="10.9605518"><ele>804.0</ele><time>2026-03-28T12:39:09.061Z</time></trkpt><trkpt lat="44.2243477" lon="10.9604456"><ele>807.4000000000001</ele><time>2026-03-28T12:39:10.057Z</time></trkpt><trkpt lat="44.2242919" lon="10.9603334"><ele>810.8</ele><time>2026-03-28T12:39:11.064Z</time></trkpt><trkpt lat="44.2242166" lon="10.9602358"><ele>814.2</ele><time>2026-03-28T12:39:12.07Z</time></trkpt><trkpt lat="44.2241444" lon="10.9601369"><ele>817.5999999999999</ele><time>2026-03-28T12:39:13.059Z</time></trkpt><trkpt lat="44.2240981" lon="10.9600293"><ele>821.0</ele><time>2026-03-28T12:39:14.065Z</time></trkpt><trkpt lat="44.2240881" lon="10.95991"><ele>822.0</ele><time>2026-03-28T12:39:15.056Z</time></trkpt><trkpt lat="44.2241176" lon="10.9597954"><ele>823.0</ele><time>2026-03-28T12:39:16.054Z</time></trkpt><trkpt lat="44.2241701" lon="10.9596854"><ele>824.0</ele><time>2026-03-28T12:39:17.065Z</time></trkpt><trkpt lat="44.2242464" lon="10.9595891"><ele>825.0</ele><time>2026-03-28T12:39:18.063Z</time></trkpt><trkpt lat="44.2243374" lon="10.9595175"><ele>826.0</ele><time>2026-03-28T12:39:19.075Z</time></trkpt><trkpt lat="44.2244338" lon="10.9594458"><ele>826.0</ele><time>2026-03-28T12:39:20.088Z</time></trkpt><trkpt lat="44.2245211" lon="10.9593614"><ele>826.0</ele><time>2026-03-28T12:39:21.056Z</time></trkpt><trkpt lat="44.2245964" lon="10.9592497"><ele>826.0</ele><time>2026-03-28T12:39:22.064Z</time></trkpt><trkpt lat="44.2246508" lon="10.9591314"><ele>826.0</ele><time>2026-03-28T12:39:23.058Z</time></trkpt><trkpt lat="44.2247096" lon="10.9590203"><ele>826.0</ele><time>2026-03-28T12:39:24.063Z</time></trkpt><trkpt lat="44.2247736" lon="10.9589323"><ele>828.75</ele><time>2026-03-28T12:39:25.048Z</time></trkpt><trkpt lat="44.224868" lon="10.958882"><ele>831.5</ele><time>2026-03-28T12:39:26.058Z</time></trkpt><trkpt lat="44.224985" lon="10.9588725"><ele>834.25</ele><time>2026-03-28T12:39:27.067Z</time></trkpt><trkpt lat="44.2251091" lon="10.9588882"><ele>837.0</ele><time>2026-03-28T12:39:28.056Z</time></trkpt><trkpt lat="44.2252337" lon="10.9589071"><ele>837.0</ele><time>2026-03-28T12:39:29.059Z</time></trkpt><trkpt lat="44.225355" lon="10.9588926"><ele>837.0</ele><time>2026-03-28T12:39:30.07Z</time></trkpt><trkpt lat="44.225462" lon="10.958837"><ele>837.0</ele><time>2026-03-28T12:39:31.057Z</time></trkpt><trkpt lat="44.2255536" lon="10.9587513"><ele>837.0</ele><time>2026-03-28T12:39:32.051Z</time></trkpt><trkpt lat="44.2256276" lon="10.9586531"><ele>837.0</ele><time>2026-03-28T12:39:33.068Z</time></trkpt><trkpt lat="44.2256766" lon="10.9585342"><ele>837.0</ele><time>2026-03-28T12:39:34.059Z</time></trkpt><trkpt lat="44.2256998" lon="10.9583927"><ele>837.0</ele><time>2026-03-28T12:39:35.066Z</time></trkpt><trkpt lat="44.2256937" lon="10.9582273"><ele>837.0</ele><time>2026-03-28T12:39:36.054Z</time></trkpt><trkpt lat="44.2256731" lon="10.9580447"><ele>837.0</ele><time>2026-03-28T12:39:37.063Z</time></trkpt><trkpt lat="44.2256684" lon="10.9578437"><ele>837.0</ele><time>2026-03-28T12:39:38.068Z</time></trkpt><trkpt lat="44.2256741" lon="10.957632"><ele>837.0</ele><time>2026-03-28T12:39:39.068Z</time></trkpt><trkpt lat="44.2257104" lon="10.9573708"><ele>837.0</ele><time>2026-03-28T12:39:40.398Z</time></trkpt><trkpt lat="44.2257691" lon="10.9570653"><ele>837.0</ele><time>2026-03-28T12:39:42.119Z</time></trkpt><trkpt lat="44.2258087" lon="10.9569758"><ele>837.0</ele><time>2026-03-28T12:39:43.105Z</time></trkpt><trkpt lat="44.2258763" lon="10.9568617"><ele>837.0</ele><time>2026-03-28T12:39:44.116Z</time></trkpt><trkpt lat="44.2259591" lon="10.956751"><ele>837.0</ele><time>2026-03-28T12:39:45.117Z</time></trkpt><trkpt lat="44.2260606" lon="10.9566416"><ele>837.0</ele><time>2026-03-28T12:39:46.13Z</time></trkpt><trkpt lat="44.2261738" lon="10.9565338"><ele>838.0</ele><time>2026-03-28T12:39:47.112Z</time></trkpt><trkpt lat="44.2263031" lon="10.9564192"><ele>839.0</ele><time>2026-03-28T12:39:48.112Z</time></trkpt><trkpt lat="44.2264305" lon="10.9563038"><ele>840.0</ele><time>2026-03-28T12:39:49.114Z</time></trkpt><trkpt lat="44.2265514" lon="10.9561898"><ele>840.0</ele><time>2026-03-28T12:39:50.114Z</time></trkpt><trkpt lat="44.2266635" lon="10.956074"><ele>840.0</ele><time>2026-03-28T12:39:51.118Z</time></trkpt><trkpt lat="44.2267661" lon="10.955961"><ele>840.0</ele><time>2026-03-28T12:39:52.07Z</time></trkpt><trkpt lat="44.2268699" lon="10.9558426"><ele>840.0</ele><time>2026-03-28T12:39:53.051Z</time></trkpt><trkpt lat="44.2269716" lon="10.955737"><ele>840.8</ele><time>2026-03-28T12:39:54.054Z</time></trkpt><trkpt lat="44.2270776" lon="10.9556428"><ele>841.6</ele><time>2026-03-28T12:39:55.063Z</time></trkpt><trkpt lat="44.2271795" lon="10.9555756"><ele>842.4000000000001</ele><time>2026-03-28T12:39:56.057Z</time></trkpt><trkpt lat="44.2272795" lon="10.9555236"><ele>843.2</ele><time>2026-03-28T12:39:57.069Z</time></trkpt><trkpt lat="44.2273752" lon="10.9554838"><ele>844.0</ele><time>2026-03-28T12:39:58.063Z</time></trkpt><trkpt lat="44.2274812" lon="10.9554634"><ele>844.0</ele><time>2026-03-28T12:39:59.06Z</time></trkpt><trkpt lat="44.2275726" lon="10.9554879"><ele>844.0</ele><time>2026-03-28T12:40:00.05Z</time></trkpt><trkpt lat="44.2276575" lon="10.955547"><ele>844.0</ele><time>2026-03-28T12:40:01.051Z</time></trkpt><trkpt lat="44.2277346" lon="10.9556379"><ele>844.0</ele><time>2026-03-28T12:40:02.067Z</time></trkpt><trkpt lat="44.2277899" lon="10.9557702"><ele>844.0</ele><time>2026-03-28T12:40:03.064Z</time></trkpt><trkpt lat="44.2278204" lon="10.9559091"><ele>845.0</ele><time>2026-03-28T12:40:04.055Z</time></trkpt><trkpt lat="44.2278195" lon="10.9560472"><ele>846.0</ele><time>2026-03-28T12:40:05.06Z</time></trkpt><trkpt lat="44.2277711" lon="10.9561577"><ele>847.0</ele><time>2026-03-28T12:40:06.07Z</time></trkpt><trkpt lat="44.2276962" lon="10.9562846"><ele>848.0</ele><time>2026-03-28T12:40:07.056Z</time></trkpt><trkpt lat="44.2275969" lon="10.9564112"><ele>849.0</ele><time>2026-03-28T12:40:08.074Z</time></trkpt><trkpt lat="44.2274725" lon="10.956547"><ele>849.0</ele><time>2026-03-28T12:40:09.079Z</time></trkpt><trkpt lat="44.2273474" lon="10.9566766"><ele>849.0</ele><time>2026-03-28T12:40:10.052Z</time></trkpt><trkpt lat="44.2272137" lon="10.9568167"><ele>849.0</ele><time>2026-03-28T12:40:11.084Z</time></trkpt><trkpt lat="44.2270938" lon="10.9569403"><ele>848.25</ele><time>2026-03-28T12:40:12.036Z</time></trkpt><trkpt lat="44.2269756" lon="10.9570698"><ele>847.5</ele><time>2026-03-28T12:40:13.078Z</time></trkpt><trkpt lat="44.2268973" lon="10.957173"><ele>846.75</ele><time>2026-03-28T12:40:14.057Z</time></trkpt><trkpt lat="44.2268298" lon="10.9572945"><ele>846.0</ele><time>2026-03-28T12:40:15.054Z</time></trkpt><trkpt lat="44.2267806" lon="10.9574427"><ele>847.5999999999999</ele><time>2026-03-28T12:40:16.048Z</time></trkpt><trkpt lat="44.2267484" lon="10.9575885"><ele>849.2</ele><time>2026-03-28T12:40:17.051Z</time></trkpt><trkpt lat="44.2267277" lon="10.9577514"><ele>850.8000000000001</ele><time>2026-03-28T12:40:18.058Z</time></trkpt><trkpt lat="44.2267181" lon="10.9579025"><ele>852.4000000000001</ele><time>2026-03-28T12:40:19.054Z</time></trkpt><trkpt lat="44.2267308" lon="10.9580215"><ele>854.0</ele><time>2026-03-28T12:40:20.069Z</time></trkpt><trkpt lat="44.2267548" lon="10.958127"><ele>854.0000000000001</ele><time>2026-03-28T12:40:21.055Z</time></trkpt><trkpt lat="44.2267667" lon="10.9582337"><ele>854.0</ele><time>2026-03-28T12:40:22.062Z</time></trkpt><trkpt lat="44.2267583" lon="10.9583394"><ele>854.0</ele><time>2026-03-28T12:40:23.061Z</time></trkpt><trkpt lat="44.2267365" lon="10.9584348"><ele>854.0</ele><time>2026-03-28T12:40:24.058Z</time></trkpt><trkpt lat="44.2267313" lon="10.9585323"><ele>854.0000000000001</ele><time>2026-03-28T12:40:25.068Z</time></trkpt><trkpt lat="44.2267762" lon="10.9586542"><ele>854.0</ele><time>2026-03-28T12:40:27.058Z</time></trkpt><trkpt lat="44.2268374" lon="10.9586886"><ele>854.0</ele><time>2026-03-28T12:40:28.062Z</time></trkpt><trkpt lat="44.2269389" lon="10.9586056"><ele>854.0000000000001</ele><time>2026-03-28T12:40:30.069Z</time></trkpt><trkpt lat="44.2269617" lon="10.9584233"><ele>854.0000000000001</ele><time>2026-03-28T12:40:32.059Z</time></trkpt><trkpt lat="44.2269431" lon="10.9583018"><ele>854.0</ele><time>2026-03-28T12:40:33.065Z</time></trkpt><trkpt lat="44.2269161" lon="10.9581764"><ele>854.0</ele><time>2026-03-28T12:40:34.061Z</time></trkpt><trkpt lat="44.2268944" lon="10.9580462"><ele>854.0</ele><time>2026-03-28T12:40:35.052Z</time></trkpt><trkpt lat="44.2268886" lon="10.9579047"><ele>854.0000000000001</ele><time>2026-03-28T12:40:36.062Z</time></trkpt><trkpt lat="44.2268988" lon="10.9577935"><ele>854.0000000000001</ele><time>2026-03-28T12:40:37.076Z</time></trkpt><trkpt lat="44.2269425" lon="10.9576593"><ele>854.0</ele><time>2026-03-28T12:40:38.05Z</time></trkpt><trkpt lat="44.2270241" lon="10.9575101"><ele>854.0</ele><time>2026-03-28T12:40:39.067Z</time></trkpt><trkpt lat="44.2271204" lon="10.9573932"><ele>852.4000000000001</ele><time>2026-03-28T12:40:40.063Z</time></trkpt><trkpt lat="44.2272271" lon="10.9573162"><ele>850.8000000000001</ele><time>2026-03-28T12:40:41.053Z</time></trkpt><trkpt lat="44.2273137" lon="10.9572957"><ele>849.2</ele><time>2026-03-28T12:40:42.051Z</time></trkpt><trkpt lat="44.2274235" lon="10.9573138"><ele>847.5999999999999</ele><time>2026-03-28T12:40:43.052Z</time></trkpt><trkpt lat="44.2275232" lon="10.9573789"><ele>846.0</ele><time>2026-03-28T12:40:44.068Z</time></trkpt><trkpt lat="44.2275781" lon="10.9574694"><ele>853.5999999999999</ele><time>2026-03-28T12:40:45.068Z</time></trkpt><trkpt lat="44.2276431" lon="10.9575975"><ele>861.2</ele><time>2026-03-28T12:40:46.068Z</time></trkpt><trkpt lat="44.2277226" lon="10.9576906"><ele>868.8000000000001</ele><time>2026-03-28T12:40:47.068Z</time></trkpt><trkpt lat="44.2278136" lon="10.9577573"><ele>876.4000000000001</ele><time>2026-03-28T12:40:48.06Z</time></trkpt><trkpt lat="44.2279042" lon="10.9577974"><ele>884.0</ele><time>2026-03-28T12:40:49.066Z</time></trkpt><trkpt lat="44.2279932" lon="10.9577983"><ele>884.0</ele><time>2026-03-28T12:40:50.064Z</time></trkpt><trkpt lat="44.2280781" lon="10.9577731"><ele>884.0000000000001</ele><time>2026-03-28T12:40:51.078Z</time></trkpt><trkpt lat="44.2281758" lon="10.9577374"><ele>884.0000000000001</ele><time>2026-03-28T12:40:52.073Z</time></trkpt><trkpt lat="44.2282921" lon="10.9577069"><ele>884.0</ele><time>2026-03-28T12:40:53.05Z</time></trkpt><trkpt lat="44.2284237" lon="10.957691"><ele>884.0</ele><time>2026-03-28T12:40:54.06Z</time></trkpt><trkpt lat="44.2285496" lon="10.9576841"><ele>883.8000000000001</ele><time>2026-03-28T12:40:55.05Z</time></trkpt><trkpt lat="44.2286642" lon="10.9576389"><ele>883.6000000000001</ele><time>2026-03-28T12:40:56.064Z</time></trkpt><trkpt lat="44.2287386" lon="10.9575559"><ele>883.4</ele><time>2026-03-28T12:40:57.055Z</time></trkpt><trkpt lat="44.2288026" lon="10.9574466"><ele>883.2</ele><time>2026-03-28T12:40:58.063Z</time></trkpt><trkpt lat="44.228885" lon="10.9573342"><ele>883.0</ele><time>2026-03-28T12:40:59.054Z</time></trkpt><trkpt lat="44.2289898" lon="10.9572402"><ele>883.0</ele><time>2026-03-28T12:41:00.05Z</time></trkpt><trkpt lat="44.2291229" lon="10.9571624"><ele>883.0</ele><time>2026-03-28T12:41:01.063Z</time></trkpt><trkpt lat="44.2292685" lon="10.9571423"><ele>883.0</ele><time>2026-03-28T12:41:02.06Z</time></trkpt><trkpt lat="44.2294479" lon="10.9571411"><ele>883.0</ele><time>2026-03-28T12:41:03.063Z</time></trkpt><trkpt lat="44.2296202" lon="10.9571565"><ele>883.0</ele><time>2026-03-28T12:41:04.055Z</time></trkpt><trkpt lat="44.229761" lon="10.9571677"><ele>883.0</ele><time>2026-03-28T12:41:05.068Z</time></trkpt><trkpt lat="44.2298984" lon="10.9571471"><ele>884.75</ele><time>2026-03-28T12:41:06.057Z</time></trkpt><trkpt lat="44.2300192" lon="10.957096"><ele>886.5</ele><time>2026-03-28T12:41:07.056Z</time></trkpt><trkpt lat="44.2301493" lon="10.9570658"><ele>888.25</ele><time>2026-03-28T12:41:08.065Z</time></trkpt><trkpt lat="44.2302735" lon="10.9570821"><ele>890.0</ele><time>2026-03-28T12:41:09.043Z</time></trkpt><trkpt lat="44.2303565" lon="10.9571382"><ele>890.0</ele><time>2026-03-28T12:41:10.054Z</time></trkpt><trkpt lat="44.2304668" lon="10.9572334"><ele>890.0</ele><time>2026-03-28T12:41:11.047Z</time></trkpt><trkpt lat="44.2305889" lon="10.9573666"><ele>890.0</ele><time>2026-03-28T12:41:12.068Z</time></trkpt><trkpt lat="44.2307143" lon="10.9574773"><ele>890.0</ele><time>2026-03-28T12:41:13.056Z</time></trkpt><trkpt lat="44.2308569" lon="10.957549"><ele>892.6666666666667</ele><time>2026-03-28T12:41:14.064Z</time></trkpt><trkpt lat="44.2310015" lon="10.9575952"><ele>895.3333333333333</ele><time>2026-03-28T12:41:15.053Z</time></trkpt><trkpt lat="44.2311494" lon="10.9576629"><ele>898.0</ele><time>2026-03-28T12:41:16.072Z</time></trkpt><trkpt lat="44.2312873" lon="10.9577525"><ele>898.0</ele><time>2026-03-28T12:41:17.069Z</time></trkpt><trkpt lat="44.2314088" lon="10.9578492"><ele>898.0</ele><time>2026-03-28T12:41:18.055Z</time></trkpt><trkpt lat="44.231524" lon="10.9579297"><ele>898.0</ele><time>2026-03-28T12:41:19.066Z</time></trkpt><trkpt lat="44.2316395" lon="10.9579645"><ele>898.0</ele><time>2026-03-28T12:41:20.065Z</time></trkpt><trkpt lat="44.2317543" lon="10.9579628"><ele>898.0</ele><time>2026-03-28T12:41:21.045Z</time></trkpt><trkpt lat="44.2318464" lon="10.9579138"><ele>898.0</ele><time>2026-03-28T12:41:22.062Z</time></trkpt><trkpt lat="44.2319225" lon="10.9578313"><ele>898.0</ele><time>2026-03-28T12:41:23.073Z</time></trkpt><trkpt lat="44.2320011" lon="10.9577226"><ele>898.0</ele><time>2026-03-28T12:41:24.049Z</time></trkpt><trkpt lat="44.2320871" lon="10.9576321"><ele>898.0</ele><time>2026-03-28T12:41:25.056Z</time></trkpt><trkpt lat="44.2321853" lon="10.9575715"><ele>898.0</ele><time>2026-03-28T12:41:26.046Z</time></trkpt><trkpt lat="44.2322565" lon="10.9575775"><ele>898.0</ele><time>2026-03-28T12:41:27.067Z</time></trkpt><trkpt lat="44.2323752" lon="10.9576046"><ele>898.0</ele><time>2026-03-28T12:41:28.077Z</time></trkpt><trkpt lat="44.2324988" lon="10.9576511"><ele>898.0</ele><time>2026-03-28T12:41:29.055Z</time></trkpt><trkpt lat="44.2326463" lon="10.9577099"><ele>899.6666666666666</ele><time>2026-03-28T12:41:30.047Z</time></trkpt><trkpt lat="44.232792" lon="10.9577716"><ele>901.3333333333333</ele><time>2026-03-28T12:41:31.07Z</time></trkpt><trkpt lat="44.2329375" lon="10.9578333"><ele>903.0</ele><time>2026-03-28T12:41:32.062Z</time></trkpt><trkpt lat="44.233077" lon="10.9578913"><ele>902.25</ele><time>2026-03-28T12:41:33.053Z</time></trkpt><trkpt lat="44.2332149" lon="10.9579391"><ele>901.5</ele><time>2026-03-28T12:41:34.054Z</time></trkpt><trkpt lat="44.2333256" lon="10.9580055"><ele>900.75</ele><time>2026-03-28T12:41:35.054Z</time></trkpt><trkpt lat="44.2334517" lon="10.9580671"><ele>900.0</ele><time>2026-03-28T12:41:36.067Z</time></trkpt><trkpt lat="44.2335754" lon="10.9581233"><ele>900.0</ele><time>2026-03-28T12:41:37.057Z</time></trkpt><trkpt lat="44.2337096" lon="10.9581661"><ele>900.0</ele><time>2026-03-28T12:41:38.053Z</time></trkpt><trkpt lat="44.2338358" lon="10.9582036"><ele>900.0</ele><time>2026-03-28T12:41:39.049Z</time></trkpt><trkpt lat="44.2339696" lon="10.9582166"><ele>900.0</ele><time>2026-03-28T12:41:40.067Z</time></trkpt><trkpt lat="44.2341094" lon="10.9581922"><ele>899.6666666666667</ele><time>2026-03-28T12:41:41.059Z</time></trkpt><trkpt lat="44.2342583" lon="10.9581396"><ele>899.3333333333334</ele><time>2026-03-28T12:41:42.067Z</time></trkpt><trkpt lat="44.2344069" lon="10.9580815"><ele>899.0</ele><time>2026-03-28T12:41:43.055Z</time></trkpt><trkpt lat="44.2345605" lon="10.9580254"><ele>899.0</ele><time>2026-03-28T12:41:44.06Z</time></trkpt><trkpt lat="44.2347177" lon="10.9579771"><ele>899.0</ele><time>2026-03-28T12:41:45.069Z</time></trkpt><trkpt lat="44.2348684" lon="10.9579358"><ele>899.0</ele><time>2026-03-28T12:41:46.06Z</time></trkpt><trkpt lat="44.2350085" lon="10.9578999"><ele>899.0</ele><time>2026-03-28T12:41:47.065Z</time></trkpt><trkpt lat="44.2351324" lon="10.9578666"><ele>899.0000000000001</ele><time>2026-03-28T12:41:48.078Z</time></trkpt><trkpt lat="44.2352336" lon="10.957862"><ele>899.0000000000001</ele><time>2026-03-28T12:41:49.067Z</time></trkpt><trkpt lat="44.235333" lon="10.957887"><ele>899.0</ele><time>2026-03-28T12:41:50.054Z</time></trkpt><trkpt lat="44.2354276" lon="10.957944"><ele>899.0</ele><time>2026-03-28T12:41:51.054Z</time></trkpt><trkpt lat="44.2355085" lon="10.9580358"><ele>899.0</ele><time>2026-03-28T12:41:52.061Z</time></trkpt><trkpt lat="44.2355854" lon="10.9581446"><ele>899.0000000000001</ele><time>2026-03-28T12:41:53.065Z</time></trkpt><trkpt lat="44.2356664" lon="10.9582332"><ele>899.0000000000001</ele><time>2026-03-28T12:41:54.055Z</time></trkpt><trkpt lat="44.2357523" lon="10.9582985"><ele>899.0</ele><time>2026-03-28T12:41:55.06Z</time></trkpt><trkpt lat="44.2358352" lon="10.9583256"><ele>899.0</ele><time>2026-03-28T12:41:56.058Z</time></trkpt><trkpt lat="44.2359078" lon="10.9583072"><ele>898.8000000000001</ele><time>2026-03-28T12:41:57.069Z</time></trkpt><trkpt lat="44.235986" lon="10.958249"><ele>898.6000000000001</ele><time>2026-03-28T12:41:58.065Z</time></trkpt><trkpt lat="44.2360479" lon="10.9581417"><ele>898.4</ele><time>2026-03-28T12:41:59.068Z</time></trkpt><trkpt lat="44.2360797" lon="10.9579879"><ele>898.2</ele><time>2026-03-28T12:42:00.053Z</time></trkpt><trkpt lat="44.2360923" lon="10.957797"><ele>898.0</ele><time>2026-03-28T12:42:01.056Z</time></trkpt><trkpt lat="44.2361062" lon="10.9576058"><ele>895.0</ele><time>2026-03-28T12:42:02.071Z</time></trkpt><trkpt lat="44.2361401" lon="10.9574459"><ele>892.0</ele><time>2026-03-28T12:42:03.064Z</time></trkpt><trkpt lat="44.2362001" lon="10.9573055"><ele>889.0</ele><time>2026-03-28T12:42:04.054Z</time></trkpt><trkpt lat="44.2362833" lon="10.9571778"><ele>886.0</ele><time>2026-03-28T12:42:05.068Z</time></trkpt><trkpt lat="44.2363776" lon="10.9570462"><ele>887.0</ele><time>2026-03-28T12:42:06.066Z</time></trkpt><trkpt lat="44.2364805" lon="10.9569022"><ele>888.0</ele><time>2026-03-28T12:42:07.069Z</time></trkpt><trkpt lat="44.236591" lon="10.9567544"><ele>889.0</ele><time>2026-03-28T12:42:08.065Z</time></trkpt><trkpt lat="44.2366969" lon="10.9566288"><ele>890.0</ele><time>2026-03-28T12:42:09.066Z</time></trkpt><trkpt lat="44.2368021" lon="10.9565352"><ele>890.0</ele><time>2026-03-28T12:42:10.053Z</time></trkpt><trkpt lat="44.2368984" lon="10.9564932"><ele>890.0</ele><time>2026-03-28T12:42:11.049Z</time></trkpt><trkpt lat="44.2370111" lon="10.9564882"><ele>890.0</ele><time>2026-03-28T12:42:12.065Z</time></trkpt><trkpt lat="44.2371359" lon="10.9565043"><ele>890.0</ele><time>2026-03-28T12:42:13.062Z</time></trkpt><trkpt lat="44.2372677" lon="10.9565275"><ele>892.75</ele><time>2026-03-28T12:42:14.068Z</time></trkpt><trkpt lat="44.237395" lon="10.9565454"><ele>895.5</ele><time>2026-03-28T12:42:15.054Z</time></trkpt><trkpt lat="44.2375145" lon="10.9565317"><ele>898.25</ele><time>2026-03-28T12:42:16.05Z</time></trkpt><trkpt lat="44.2376308" lon="10.9564667"><ele>901.0</ele><time>2026-03-28T12:42:17.066Z</time></trkpt><trkpt lat="44.2377515" lon="10.956357"><ele>901.0</ele><time>2026-03-28T12:42:18.048Z</time></trkpt><trkpt lat="44.2378971" lon="10.956218"><ele>901.0</ele><time>2026-03-28T12:42:19.06Z</time></trkpt><trkpt lat="44.2380579" lon="10.9560405"><ele>901.0</ele><time>2026-03-28T12:42:20.081Z</time></trkpt><trkpt lat="44.2381986" lon="10.9558631"><ele>903.3333333333333</ele><time>2026-03-28T12:42:21.054Z</time></trkpt><trkpt lat="44.2383198" lon="10.9556765"><ele>905.6666666666667</ele><time>2026-03-28T12:42:22.071Z</time></trkpt><trkpt lat="44.2384221" lon="10.955501"><ele>908.0</ele><time>2026-03-28T12:42:23.049Z</time></trkpt><trkpt lat="44.2385174" lon="10.95532"><ele>908.0</ele><time>2026-03-28T12:42:24.072Z</time></trkpt><trkpt lat="44.2386065" lon="10.9551509"><ele>908.0</ele><time>2026-03-28T12:42:25.076Z</time></trkpt><trkpt lat="44.2386904" lon="10.9549859"><ele>908.0</ele><time>2026-03-28T12:42:26.061Z</time></trkpt><trkpt lat="44.2387763" lon="10.9548156"><ele>908.0</ele><time>2026-03-28T12:42:27.058Z</time></trkpt><trkpt lat="44.2388621" lon="10.9546339"><ele>905.3333333333334</ele><time>2026-03-28T12:42:28.072Z</time></trkpt><trkpt lat="44.2389451" lon="10.9544445"><ele>902.6666666666667</ele><time>2026-03-28T12:42:29.078Z</time></trkpt><trkpt lat="44.2390326" lon="10.9542558"><ele>900.0</ele><time>2026-03-28T12:42:30.063Z</time></trkpt><trkpt lat="44.2391426" lon="10.9540659"><ele>900.0</ele><time>2026-03-28T12:42:31.061Z</time></trkpt><trkpt lat="44.2392702" lon="10.9538894"><ele>900.0</ele><time>2026-03-28T12:42:32.068Z</time></trkpt><trkpt lat="44.239398" lon="10.9537355"><ele>900.0</ele><time>2026-03-28T12:42:33.065Z</time></trkpt><trkpt lat="44.2395191" lon="10.9535945"><ele>900.0</ele><time>2026-03-28T12:42:34.064Z</time></trkpt><trkpt lat="44.2396326" lon="10.9534562"><ele>900.0</ele><time>2026-03-28T12:42:35.076Z</time></trkpt><trkpt lat="44.2397353" lon="10.953329"><ele>900.0</ele><time>2026-03-28T12:42:36.07Z</time></trkpt><trkpt lat="44.2398279" lon="10.9531994"><ele>900.0</ele><time>2026-03-28T12:42:37.043Z</time></trkpt><trkpt lat="44.239911" lon="10.9530593"><ele>900.5</ele><time>2026-03-28T12:42:38.063Z</time></trkpt><trkpt lat="44.2399787" lon="10.9529192"><ele>901.0</ele><time>2026-03-28T12:42:39.062Z</time></trkpt><trkpt lat="44.2400521" lon="10.9527847"><ele>901.5</ele><time>2026-03-28T12:42:40.067Z</time></trkpt><trkpt lat="44.2401353" lon="10.952672"><ele>902.0</ele><time>2026-03-28T12:42:41.077Z</time></trkpt><trkpt lat="44.2402284" lon="10.9525794"><ele>900.5</ele><time>2026-03-28T12:42:42.055Z</time></trkpt><trkpt lat="44.2403376" lon="10.9524918"><ele>899.0</ele><time>2026-03-28T12:42:43.061Z</time></trkpt><trkpt lat="44.2404593" lon="10.9524213"><ele>897.5</ele><time>2026-03-28T12:42:44.062Z</time></trkpt><trkpt lat="44.2405797" lon="10.9523823"><ele>896.0</ele><time>2026-03-28T12:42:45.073Z</time></trkpt><trkpt lat="44.2406949" lon="10.9523719"><ele>896.0</ele><time>2026-03-28T12:42:46.057Z</time></trkpt><trkpt lat="44.2408065" lon="10.9523841"><ele>896.0</ele><time>2026-03-28T12:42:47.053Z</time></trkpt><trkpt lat="44.2409206" lon="10.952418"><ele>896.0</ele><time>2026-03-28T12:42:48.072Z</time></trkpt><trkpt lat="44.2410288" lon="10.9524672"><ele>896.0</ele><time>2026-03-28T12:42:49.056Z</time></trkpt><trkpt lat="44.2411444" lon="10.952519"><ele>898.5</ele><time>2026-03-28T12:42:50.067Z</time></trkpt><trkpt lat="44.2412631" lon="10.9525782"><ele>901.0</ele><time>2026-03-28T12:42:51.07Z</time></trkpt><trkpt lat="44.2413796" lon="10.9526424"><ele>903.5</ele><time>2026-03-28T12:42:52.06Z</time></trkpt><trkpt lat="44.2414975" lon="10.9527133"><ele>906.0</ele><time>2026-03-28T12:42:53.065Z</time></trkpt><trkpt lat="44.2416093" lon="10.9527895"><ele>906.0</ele><time>2026-03-28T12:42:54.05Z</time></trkpt><trkpt lat="44.2417224" lon="10.9528826"><ele>906.0</ele><time>2026-03-28T12:42:55.051Z</time></trkpt><trkpt lat="44.2418324" lon="10.9530007"><ele>906.0</ele><time>2026-03-28T12:42:56.054Z</time></trkpt><trkpt lat="44.2419366" lon="10.9531418"><ele>906.0</ele><time>2026-03-28T12:42:57.05Z</time></trkpt><trkpt lat="44.2420339" lon="10.9532946"><ele>905.0</ele><time>2026-03-28T12:42:58.074Z</time></trkpt><trkpt lat="44.2421167" lon="10.9534388"><ele>904.0</ele><time>2026-03-28T12:42:59.071Z</time></trkpt><trkpt lat="44.2421935" lon="10.9535675"><ele>903.0</ele><time>2026-03-28T12:43:00.044Z</time></trkpt><trkpt lat="44.2422706" lon="10.9536978"><ele>902.0</ele><time>2026-03-28T12:43:01.067Z</time></trkpt><trkpt lat="44.2423417" lon="10.9538163"><ele>902.0000000000001</ele><time>2026-03-28T12:43:02.077Z</time></trkpt><trkpt lat="44.2424061" lon="10.953926"><ele>902.0</ele><time>2026-03-28T12:43:03.073Z</time></trkpt><trkpt lat="44.2424635" lon="10.9540224"><ele>902.0</ele><time>2026-03-28T12:43:04.059Z</time></trkpt><trkpt lat="44.2425169" lon="10.9541165"><ele>902.0</ele><time>2026-03-28T12:43:05.088Z</time></trkpt><trkpt lat="44.2425638" lon="10.9541959"><ele>902.0000000000001</ele><time>2026-03-28T12:43:06.09Z</time></trkpt><trkpt lat="44.2426049" lon="10.9542631"><ele>902.0</ele><time>2026-03-28T12:43:07.067Z</time></trkpt><trkpt lat="44.2426695" lon="10.9543758"><ele>903.6666666666667</ele><time>2026-03-28T12:43:09.067Z</time></trkpt><trkpt lat="44.2427369" lon="10.9544885"><ele>905.3333333333334</ele><time>2026-03-28T12:43:11.057Z</time></trkpt><trkpt lat="44.2427795" lon="10.9545571"><ele>907.0</ele><time>2026-03-28T12:43:12.055Z</time></trkpt><trkpt lat="44.2428278" lon="10.9546434"><ele>908.6666666666667</ele><time>2026-03-28T12:43:13.061Z</time></trkpt><trkpt lat="44.2428737" lon="10.9547402"><ele>910.3333333333334</ele><time>2026-03-28T12:43:14.058Z</time></trkpt><trkpt lat="44.2429206" lon="10.9548503"><ele>912.0</ele><time>2026-03-28T12:43:15.068Z</time></trkpt><trkpt lat="44.2429668" lon="10.9549686"><ele>909.25</ele><time>2026-03-28T12:43:16.062Z</time></trkpt><trkpt lat="44.2430166" lon="10.9551109"><ele>906.5</ele><time>2026-03-28T12:43:17.062Z</time></trkpt><trkpt lat="44.2430669" lon="10.9552717"><ele>903.75</ele><time>2026-03-28T12:43:18.066Z</time></trkpt><trkpt lat="44.2431219" lon="10.9554456"><ele>901.0</ele><time>2026-03-28T12:43:19.075Z</time></trkpt><trkpt lat="44.2431806" lon="10.9556247"><ele>901.0</ele><time>2026-03-28T12:43:20.08Z</time></trkpt><trkpt lat="44.2432413" lon="10.9558096"><ele>901.0</ele><time>2026-03-28T12:43:21.069Z</time></trkpt><trkpt lat="44.2433031" lon="10.9560026"><ele>901.0</ele><time>2026-03-28T12:43:22.073Z</time></trkpt><trkpt lat="44.2433693" lon="10.9561913"><ele>901.0</ele><time>2026-03-28T12:43:23.082Z</time></trkpt><trkpt lat="44.2434532" lon="10.9563762"><ele>902.0</ele><time>2026-03-28T12:43:24.052Z</time></trkpt><trkpt lat="44.2435637" lon="10.9565508"><ele>903.0</ele><time>2026-03-28T12:43:25.042Z</time></trkpt><trkpt lat="44.2437037" lon="10.9567182"><ele>904.0</ele><time>2026-03-28T12:43:26.059Z</time></trkpt><trkpt lat="44.2438496" lon="10.9568715"><ele>903.0</ele><time>2026-03-28T12:43:27.054Z</time></trkpt><trkpt lat="44.2439916" lon="10.9570132"><ele>902.0</ele><time>2026-03-28T12:43:28.065Z</time></trkpt><trkpt lat="44.2441232" lon="10.9571431"><ele>901.0</ele><time>2026-03-28T12:43:29.057Z</time></trkpt><trkpt lat="44.244242" lon="10.9572614"><ele>901.0</ele><time>2026-03-28T12:43:30.05Z</time></trkpt><trkpt lat="44.2443543" lon="10.9573753"><ele>901.0</ele><time>2026-03-28T12:43:31.058Z</time></trkpt><trkpt lat="44.2444528" lon="10.9574802"><ele>901.0</ele><time>2026-03-28T12:43:32.055Z</time></trkpt><trkpt lat="44.2445511" lon="10.9575819"><ele>901.0</ele><time>2026-03-28T12:43:33.074Z</time></trkpt><trkpt lat="44.2446398" lon="10.9576753"><ele>900.0</ele><time>2026-03-28T12:43:34.076Z</time></trkpt><trkpt lat="44.2447266" lon="10.9577643"><ele>898.9999999999999</ele><time>2026-03-28T12:43:35.061Z</time></trkpt><trkpt lat="44.2448061" lon="10.9578496"><ele>897.9999999999999</ele><time>2026-03-28T12:43:36.065Z</time></trkpt><trkpt lat="44.244891" lon="10.9579381"><ele>897.0</ele><time>2026-03-28T12:43:37.079Z</time></trkpt><trkpt lat="44.2449811" lon="10.9580356"><ele>896.0</ele><time>2026-03-28T12:43:38.071Z</time></trkpt><trkpt lat="44.2450834" lon="10.9581411"><ele>896.0</ele><time>2026-03-28T12:43:39.081Z</time></trkpt><trkpt lat="44.2451882" lon="10.9582545"><ele>896.0</ele><time>2026-03-28T12:43:40.05Z</time></trkpt><trkpt lat="44.2452993" lon="10.9583751"><ele>896.0</ele><time>2026-03-28T12:43:41.064Z</time></trkpt><trkpt lat="44.2454069" lon="10.958486"><ele>896.0</ele><time>2026-03-28T12:43:42.065Z</time></trkpt><trkpt lat="44.2455215" lon="10.9585686"><ele>892.5</ele><time>2026-03-28T12:43:43.061Z</time></trkpt><trkpt lat="44.2456492" lon="10.958609"><ele>889.0</ele><time>2026-03-28T12:43:44.07Z</time></trkpt><trkpt lat="44.2457855" lon="10.9586189"><ele>885.5</ele><time>2026-03-28T12:43:45.07Z</time></trkpt><trkpt lat="44.2459255" lon="10.9585978"><ele>882.0</ele><time>2026-03-28T12:43:46.061Z</time></trkpt><trkpt lat="44.2460713" lon="10.9585629"><ele>882.0</ele><time>2026-03-28T12:43:47.076Z</time></trkpt><trkpt lat="44.2462034" lon="10.9585367"><ele>882.0</ele><time>2026-03-28T12:43:48.064Z</time></trkpt><trkpt lat="44.2463275" lon="10.9585089"><ele>882.0</ele><time>2026-03-28T12:43:49.058Z</time></trkpt><trkpt lat="44.2464403" lon="10.9584645"><ele>882.0</ele><time>2026-03-28T12:43:50.066Z</time></trkpt><trkpt lat="44.2465284" lon="10.9584003"><ele>880.25</ele><time>2026-03-28T12:43:51.054Z</time></trkpt><trkpt lat="44.2466085" lon="10.9583063"><ele>878.5</ele><time>2026-03-28T12:43:52.055Z</time></trkpt><trkpt lat="44.2466807" lon="10.9581891"><ele>876.75</ele><time>2026-03-28T12:43:53.071Z</time></trkpt><trkpt lat="44.2467544" lon="10.9580558"><ele>875.0</ele><time>2026-03-28T12:43:54.07Z</time></trkpt><trkpt lat="44.2468277" lon="10.9579305"><ele>875.0</ele><time>2026-03-28T12:43:55.068Z</time></trkpt><trkpt lat="44.2468983" lon="10.9578207"><ele>875.0</ele><time>2026-03-28T12:43:56.055Z</time></trkpt><trkpt lat="44.2469779" lon="10.9577399"><ele>875.0</ele><time>2026-03-28T12:43:57.083Z</time></trkpt><trkpt lat="44.2470641" lon="10.9577112"><ele>875.0</ele><time>2026-03-28T12:43:58.062Z</time></trkpt><trkpt lat="44.2471502" lon="10.9577293"><ele>875.0</ele><time>2026-03-28T12:43:59.062Z</time></trkpt><trkpt lat="44.2472391" lon="10.9577836"><ele>873.0</ele><time>2026-03-28T12:44:00.045Z</time></trkpt><trkpt lat="44.2473253" lon="10.9578786"><ele>871.0</ele><time>2026-03-28T12:44:01.057Z</time></trkpt><trkpt lat="44.2473937" lon="10.9580014"><ele>869.0</ele><time>2026-03-28T12:44:02.052Z</time></trkpt><trkpt lat="44.2474419" lon="10.9581623"><ele>867.0</ele><time>2026-03-28T12:44:03.052Z</time></trkpt><trkpt lat="44.247473" lon="10.9583385"><ele>865.6666666666666</ele><time>2026-03-28T12:44:04.065Z</time></trkpt><trkpt lat="44.2474948" lon="10.9584973"><ele>864.3333333333333</ele><time>2026-03-28T12:44:05.043Z</time></trkpt><trkpt lat="44.2475387" lon="10.9586157"><ele>863.0</ele><time>2026-03-28T12:44:06.058Z</time></trkpt><trkpt lat="44.2475936" lon="10.9586766"><ele>861.6666666666666</ele><time>2026-03-28T12:44:07.065Z</time></trkpt><trkpt lat="44.2476619" lon="10.9586856"><ele>860.3333333333333</ele><time>2026-03-28T12:44:08.058Z</time></trkpt><trkpt lat="44.2477401" lon="10.9586423"><ele>859.0</ele><time>2026-03-28T12:44:09.055Z</time></trkpt><trkpt lat="44.24782" lon="10.9585532"><ele>859.0</ele><time>2026-03-28T12:44:10.05Z</time></trkpt><trkpt lat="44.247894" lon="10.9584294"><ele>859.0</ele><time>2026-03-28T12:44:11.054Z</time></trkpt><trkpt lat="44.2479417" lon="10.9582872"><ele>859.0</ele><time>2026-03-28T12:44:12.043Z</time></trkpt><trkpt lat="44.2479535" lon="10.9581442"><ele>859.0</ele><time>2026-03-28T12:44:13.054Z</time></trkpt><trkpt lat="44.2479585" lon="10.957972"><ele>861.0</ele><time>2026-03-28T12:44:14.053Z</time></trkpt><trkpt lat="44.2479735" lon="10.9577944"><ele>863.0</ele><time>2026-03-28T12:44:15.056Z</time></trkpt><trkpt lat="44.2480024" lon="10.9576204"><ele>865.0</ele><time>2026-03-28T12:44:16.058Z</time></trkpt><trkpt lat="44.2480456" lon="10.9574803"><ele>867.0</ele><time>2026-03-28T12:44:17.038Z</time></trkpt><trkpt lat="44.2480765" lon="10.9573527"><ele>867.6</ele><time>2026-03-28T12:44:18.052Z</time></trkpt><trkpt lat="44.2481079" lon="10.9572506"><ele>868.2</ele><time>2026-03-28T12:44:19.064Z</time></trkpt><trkpt lat="44.248198" lon="10.9571828"><ele>868.8</ele><time>2026-03-28T12:44:21.052Z</time></trkpt><trkpt lat="44.2483049" lon="10.9572769"><ele>869.4</ele><time>2026-03-28T12:44:23.053Z</time></trkpt><trkpt lat="44.2483396" lon="10.9573788"><ele>870.0</ele><time>2026-03-28T12:44:24.066Z</time></trkpt><trkpt lat="44.2483691" lon="10.9574953"><ele>866.6</ele><time>2026-03-28T12:44:25.053Z</time></trkpt><trkpt lat="44.2484106" lon="10.9576112"><ele>863.2</ele><time>2026-03-28T12:44:26.056Z</time></trkpt><trkpt lat="44.2484739" lon="10.9577235"><ele>859.8</ele><time>2026-03-28T12:44:27.069Z</time></trkpt><trkpt lat="44.2485604" lon="10.957832"><ele>856.4</ele><time>2026-03-28T12:44:28.063Z</time></trkpt><trkpt lat="44.248664" lon="10.9579406"><ele>853.0</ele><time>2026-03-28T12:44:29.075Z</time></trkpt><trkpt lat="44.2487672" lon="10.9580564"><ele>853.0</ele><time>2026-03-28T12:44:30.066Z</time></trkpt><trkpt lat="44.2488706" lon="10.9581671"><ele>853.0</ele><time>2026-03-28T12:44:31.077Z</time></trkpt><trkpt lat="44.2489687" lon="10.9582494"><ele>853.0</ele><time>2026-03-28T12:44:32.055Z</time></trkpt><trkpt lat="44.2490731" lon="10.9583157"><ele>853.0</ele><time>2026-03-28T12:44:33.067Z</time></trkpt><trkpt lat="44.249168" lon="10.9583464"><ele>852.4</ele><time>2026-03-28T12:44:34.048Z</time></trkpt><trkpt lat="44.2492606" lon="10.9583291"><ele>851.8</ele><time>2026-03-28T12:44:35.071Z</time></trkpt><trkpt lat="44.2493446" lon="10.9582672"><ele>851.2</ele><time>2026-03-28T12:44:36.069Z</time></trkpt><trkpt lat="44.2494369" lon="10.9581548"><ele>850.6</ele><time>2026-03-28T12:44:37.071Z</time></trkpt><trkpt lat="44.2495288" lon="10.9580223"><ele>850.0</ele><time>2026-03-28T12:44:38.051Z</time></trkpt><trkpt lat="44.2496426" lon="10.9578843"><ele>850.0</ele><time>2026-03-28T12:44:39.055Z</time></trkpt><trkpt lat="44.2497845" lon="10.9577613"><ele>850.0</ele><time>2026-03-28T12:44:40.09Z</time></trkpt><trkpt lat="44.2499104" lon="10.9576757"><ele>850.0</ele><time>2026-03-28T12:44:41.065Z</time></trkpt><trkpt lat="44.2500178" lon="10.9575908"><ele>850.0</ele><time>2026-03-28T12:44:42.06Z</time></trkpt><trkpt lat="44.2501029" lon="10.9574939"><ele>850.4</ele><time>2026-03-28T12:44:43.084Z</time></trkpt><trkpt lat="44.2501503" lon="10.9573764"><ele>850.8</ele><time>2026-03-28T12:44:44.058Z</time></trkpt><trkpt lat="44.2501664" lon="10.9572237"><ele>851.2</ele><time>2026-03-28T12:44:45.071Z</time></trkpt><trkpt lat="44.2501678" lon="10.9570549"><ele>851.6</ele><time>2026-03-28T12:44:46.069Z</time></trkpt><trkpt lat="44.2501618" lon="10.9568912"><ele>852.0</ele><time>2026-03-28T12:44:47.057Z</time></trkpt><trkpt lat="44.250164" lon="10.9567323"><ele>852.6</ele><time>2026-03-28T12:44:48.071Z</time></trkpt><trkpt lat="44.2501839" lon="10.9565871"><ele>853.2</ele><time>2026-03-28T12:44:49.076Z</time></trkpt><trkpt lat="44.2502214" lon="10.9564692"><ele>853.8</ele><time>2026-03-28T12:44:50.055Z</time></trkpt><trkpt lat="44.2502773" lon="10.9563686"><ele>854.4</ele><time>2026-03-28T12:44:51.068Z</time></trkpt><trkpt lat="44.2503545" lon="10.9562964"><ele>855.0</ele><time>2026-03-28T12:44:52.061Z</time></trkpt><trkpt lat="44.2504359" lon="10.956257"><ele>855.0</ele><time>2026-03-28T12:44:53.067Z</time></trkpt><trkpt lat="44.2505117" lon="10.9562592"><ele>855.0</ele><time>2026-03-28T12:44:54.064Z</time></trkpt><trkpt lat="44.2505896" lon="10.9563283"><ele>855.0</ele><time>2026-03-28T12:44:55.067Z</time></trkpt><trkpt lat="44.2506675" lon="10.9564664"><ele>855.0</ele><time>2026-03-28T12:44:56.069Z</time></trkpt><trkpt lat="44.2507407" lon="10.9566415"><ele>855.0</ele><time>2026-03-28T12:44:57.07Z</time></trkpt><trkpt lat="44.2508186" lon="10.9568472"><ele>852.0</ele><time>2026-03-28T12:44:58.075Z</time></trkpt><trkpt lat="44.2508886" lon="10.9570635"><ele>849.0</ele><time>2026-03-28T12:44:59.051Z</time></trkpt><trkpt lat="44.2509497" lon="10.9572955"><ele>846.0</ele><time>2026-03-28T12:45:00.054Z</time></trkpt><trkpt lat="44.2510027" lon="10.9575213"><ele>844.0</ele><time>2026-03-28T12:45:01.053Z</time></trkpt><trkpt lat="44.2510485" lon="10.9577295"><ele>842.0</ele><time>2026-03-28T12:45:02.055Z</time></trkpt><trkpt lat="44.2510985" lon="10.9579266"><ele>840.0</ele><time>2026-03-28T12:45:03.071Z</time></trkpt><trkpt lat="44.2511488" lon="10.9581144"><ele>838.0</ele><time>2026-03-28T12:45:04.077Z</time></trkpt><trkpt lat="44.2512012" lon="10.9582951"><ele>839.75</ele><time>2026-03-28T12:45:05.073Z</time></trkpt><trkpt lat="44.2512592" lon="10.9584602"><ele>841.5</ele><time>2026-03-28T12:45:06.062Z</time></trkpt><trkpt lat="44.2513294" lon="10.958605"><ele>843.25</ele><time>2026-03-28T12:45:07.048Z</time></trkpt><trkpt lat="44.2514041" lon="10.9587366"><ele>845.0</ele><time>2026-03-28T12:45:08.061Z</time></trkpt><trkpt lat="44.2514685" lon="10.9588559"><ele>845.0</ele><time>2026-03-28T12:45:09.054Z</time></trkpt><trkpt lat="44.2515125" lon="10.9589767"><ele>845.0</ele><time>2026-03-28T12:45:10.069Z</time></trkpt><trkpt lat="44.2515335" lon="10.9590978"><ele>845.0</ele><time>2026-03-28T12:45:11.066Z</time></trkpt><trkpt lat="44.2515295" lon="10.9592347"><ele>845.0</ele><time>2026-03-28T12:45:12.054Z</time></trkpt><trkpt lat="44.2514975" lon="10.9593845"><ele>845.0</ele><time>2026-03-28T12:45:13.064Z</time></trkpt><trkpt lat="44.2514486" lon="10.9595409"><ele>840.5</ele><time>2026-03-28T12:45:14.062Z</time></trkpt><trkpt lat="44.2514092" lon="10.9597065"><ele>836.0</ele><time>2026-03-28T12:45:15.062Z</time></trkpt><trkpt lat="44.25139" lon="10.9598907"><ele>831.5</ele><time>2026-03-28T12:45:16.077Z</time></trkpt><trkpt lat="44.2513858" lon="10.9600815"><ele>827.0</ele><time>2026-03-28T12:45:17.067Z</time></trkpt><trkpt lat="44.2513878" lon="10.9602855"><ele>825.75</ele><time>2026-03-28T12:45:18.069Z</time></trkpt><trkpt lat="44.2513847" lon="10.9604945"><ele>824.5</ele><time>2026-03-28T12:45:19.064Z</time></trkpt><trkpt lat="44.2513785" lon="10.9607004"><ele>823.25</ele><time>2026-03-28T12:45:20.068Z</time></trkpt><trkpt lat="44.2513727" lon="10.9608957"><ele>822.0</ele><time>2026-03-28T12:45:21.084Z</time></trkpt><trkpt lat="44.2513694" lon="10.9610708"><ele>821.2</ele><time>2026-03-28T12:45:22.062Z</time></trkpt><trkpt lat="44.2513775" lon="10.96123"><ele>820.4000000000001</ele><time>2026-03-28T12:45:23.066Z</time></trkpt><trkpt lat="44.2514025" lon="10.9613814"><ele>819.5999999999999</ele><time>2026-03-28T12:45:24.058Z</time></trkpt><trkpt lat="44.2514408" lon="10.9615252"><ele>818.8</ele><time>2026-03-28T12:45:25.062Z</time></trkpt><trkpt lat="44.2514929" lon="10.9616553"><ele>818.0</ele><time>2026-03-28T12:45:26.077Z</time></trkpt><trkpt lat="44.2515619" lon="10.9617578"><ele>819.8</ele><time>2026-03-28T12:45:27.076Z</time></trkpt><trkpt lat="44.251646" lon="10.9618349"><ele>821.5999999999999</ele><time>2026-03-28T12:45:28.066Z</time></trkpt><trkpt lat="44.2517438" lon="10.9618869"><ele>823.4000000000001</ele><time>2026-03-28T12:45:29.061Z</time></trkpt><trkpt lat="44.2518465" lon="10.9619348"><ele>825.2</ele><time>2026-03-28T12:45:30.066Z</time></trkpt><trkpt lat="44.2519381" lon="10.9620038"><ele>827.0</ele><time>2026-03-28T12:45:31.077Z</time></trkpt><trkpt lat="44.2520068" lon="10.9620993"><ele>827.0</ele><time>2026-03-28T12:45:32.057Z</time></trkpt><trkpt lat="44.2520424" lon="10.9621994"><ele>827.0</ele><time>2026-03-28T12:45:33.056Z</time></trkpt><trkpt lat="44.2520538" lon="10.9623294"><ele>827.0</ele><time>2026-03-28T12:45:34.058Z</time></trkpt><trkpt lat="44.2520395" lon="10.9624715"><ele>827.0</ele><time>2026-03-28T12:45:35.061Z</time></trkpt><trkpt lat="44.2520222" lon="10.9626211"><ele>827.0</ele><time>2026-03-28T12:45:36.063Z</time></trkpt><trkpt lat="44.252" lon="10.9627747"><ele>826.0</ele><time>2026-03-28T12:45:37.064Z</time></trkpt><trkpt lat="44.2519907" lon="10.9629307"><ele>825.0</ele><time>2026-03-28T12:45:38.052Z</time></trkpt><trkpt lat="44.2519949" lon="10.9630993"><ele>824.0</ele><time>2026-03-28T12:45:39.07Z</time></trkpt><trkpt lat="44.2520119" lon="10.9632697"><ele>823.0</ele><time>2026-03-28T12:45:40.065Z</time></trkpt><trkpt lat="44.2520442" lon="10.9634494"><ele>821.25</ele><time>2026-03-28T12:45:41.072Z</time></trkpt><trkpt lat="44.2520921" lon="10.963654"><ele>819.5</ele><time>2026-03-28T12:45:42.072Z</time></trkpt><trkpt lat="44.2521574" lon="10.963814"><ele>817.75</ele><time>2026-03-28T12:45:43.06Z</time></trkpt><trkpt lat="44.2522397" lon="10.9639626"><ele>816.0</ele><time>2026-03-28T12:45:44.072Z</time></trkpt><trkpt lat="44.2523349" lon="10.9641005"><ele>817.0</ele><time>2026-03-28T12:45:45.066Z</time></trkpt><trkpt lat="44.2524276" lon="10.9642367"><ele>818.0</ele><time>2026-03-28T12:45:46.065Z</time></trkpt><trkpt lat="44.2525193" lon="10.964372"><ele>819.0</ele><time>2026-03-28T12:45:47.059Z</time></trkpt><trkpt lat="44.252614" lon="10.9645017"><ele>820.0</ele><time>2026-03-28T12:45:48.06Z</time></trkpt><trkpt lat="44.2527061" lon="10.9646329"><ele>820.0</ele><time>2026-03-28T12:45:49.059Z</time></trkpt><trkpt lat="44.2527815" lon="10.9647762"><ele>820.0</ele><time>2026-03-28T12:45:50.05Z</time></trkpt><trkpt lat="44.252854" lon="10.9649345"><ele>820.0</ele><time>2026-03-28T12:45:51.093Z</time></trkpt><trkpt lat="44.2529166" lon="10.9650778"><ele>820.0</ele><time>2026-03-28T12:45:52.064Z</time></trkpt><trkpt lat="44.2529846" lon="10.9652222"><ele>820.0</ele><time>2026-03-28T12:45:53.07Z</time></trkpt><trkpt lat="44.253061" lon="10.9653498"><ele>820.0</ele><time>2026-03-28T12:45:54.06Z</time></trkpt><trkpt lat="44.2531546" lon="10.965469"><ele>820.0</ele><time>2026-03-28T12:45:55.072Z</time></trkpt><trkpt lat="44.2532526" lon="10.9655787"><ele>820.0</ele><time>2026-03-28T12:45:56.061Z</time></trkpt><trkpt lat="44.2533563" lon="10.9656908"><ele>820.0</ele><time>2026-03-28T12:45:57.072Z</time></trkpt><trkpt lat="44.2534565" lon="10.9658014"><ele>820.0</ele><time>2026-03-28T12:45:58.061Z</time></trkpt><trkpt lat="44.2535613" lon="10.965923"><ele>820.0</ele><time>2026-03-28T12:45:59.091Z</time></trkpt><trkpt lat="44.2536588" lon="10.9660335"><ele>820.0</ele><time>2026-03-28T12:46:00.046Z</time></trkpt><trkpt lat="44.2537631" lon="10.9661581"><ele>821.0</ele><time>2026-03-28T12:46:01.072Z</time></trkpt><trkpt lat="44.2538747" lon="10.9662763"><ele>822.0</ele><time>2026-03-28T12:46:02.059Z</time></trkpt><trkpt lat="44.2539972" lon="10.9664021"><ele>823.0</ele><time>2026-03-28T12:46:03.054Z</time></trkpt><trkpt lat="44.2541222" lon="10.9665458"><ele>818.3333333333333</ele><time>2026-03-28T12:46:04.057Z</time></trkpt><trkpt lat="44.2542473" lon="10.9667101"><ele>813.6666666666667</ele><time>2026-03-28T12:46:05.077Z</time></trkpt><trkpt lat="44.254364" lon="10.9668806"><ele>809.0</ele><time>2026-03-28T12:46:06.066Z</time></trkpt><trkpt lat="44.2544762" lon="10.9670342"><ele>809.0</ele><time>2026-03-28T12:46:07.063Z</time></trkpt><trkpt lat="44.2545901" lon="10.9671798"><ele>809.0</ele><time>2026-03-28T12:46:08.046Z</time></trkpt><trkpt lat="44.2547097" lon="10.9673077"><ele>809.0</ele><time>2026-03-28T12:46:09.049Z</time></trkpt><trkpt lat="44.2548305" lon="10.9674175"><ele>809.0</ele><time>2026-03-28T12:46:10.072Z</time></trkpt><trkpt lat="44.2549438" lon="10.9675242"><ele>808.75</ele><time>2026-03-28T12:46:11.064Z</time></trkpt><trkpt lat="44.2550413" lon="10.9676564"><ele>808.5</ele><time>2026-03-28T12:46:12.076Z</time></trkpt><trkpt lat="44.2551124" lon="10.9678193"><ele>808.25</ele><time>2026-03-28T12:46:13.051Z</time></trkpt><trkpt lat="44.2551613" lon="10.9679927"><ele>808.0</ele><time>2026-03-28T12:46:14.056Z</time></trkpt><trkpt lat="44.2552017" lon="10.9681509"><ele>808.0</ele><time>2026-03-28T12:46:15.07Z</time></trkpt><trkpt lat="44.255253" lon="10.9682644"><ele>808.0</ele><time>2026-03-28T12:46:16.069Z</time></trkpt><trkpt lat="44.2553267" lon="10.9683206"><ele>808.0</ele><time>2026-03-28T12:46:17.062Z</time></trkpt><trkpt lat="44.2554308" lon="10.9683163"><ele>808.0</ele><time>2026-03-28T12:46:18.068Z</time></trkpt><trkpt lat="44.2555467" lon="10.9682523"><ele>808.0</ele><time>2026-03-28T12:46:19.062Z</time></trkpt><trkpt lat="44.2556904" lon="10.9681778"><ele>811.6666666666666</ele><time>2026-03-28T12:46:20.078Z</time></trkpt><trkpt lat="44.2558409" lon="10.9681353"><ele>815.3333333333333</ele><time>2026-03-28T12:46:21.054Z</time></trkpt><trkpt lat="44.2560024" lon="10.9681288"><ele>819.0</ele><time>2026-03-28T12:46:22.06Z</time></trkpt><trkpt lat="44.2561623" lon="10.9681662"><ele>819.0</ele><time>2026-03-28T12:46:23.054Z</time></trkpt><trkpt lat="44.2563276" lon="10.9682154"><ele>819.0</ele><time>2026-03-28T12:46:24.075Z</time></trkpt><trkpt lat="44.256485" lon="10.9682707"><ele>819.0</ele><time>2026-03-28T12:46:25.074Z</time></trkpt><trkpt lat="44.2566318" lon="10.9683234"><ele>816.25</ele><time>2026-03-28T12:46:26.076Z</time></trkpt><trkpt lat="44.2567514" lon="10.9683917"><ele>813.5</ele><time>2026-03-28T12:46:27.062Z</time></trkpt><trkpt lat="44.2568564" lon="10.9684879"><ele>810.75</ele><time>2026-03-28T12:46:28.054Z</time></trkpt><trkpt lat="44.2569321" lon="10.9686268"><ele>808.0</ele><time>2026-03-28T12:46:29.064Z</time></trkpt><trkpt lat="44.2570066" lon="10.9687853"><ele>808.0</ele><time>2026-03-28T12:46:30.067Z</time></trkpt><trkpt lat="44.257073" lon="10.9689606"><ele>808.0</ele><time>2026-03-28T12:46:31.054Z</time></trkpt><trkpt lat="44.2571498" lon="10.9691477"><ele>808.0</ele><time>2026-03-28T12:46:32.057Z</time></trkpt><trkpt lat="44.2572423" lon="10.9693357"><ele>809.6666666666666</ele><time>2026-03-28T12:46:33.063Z</time></trkpt><trkpt lat="44.2573406" lon="10.969521"><ele>811.3333333333333</ele><time>2026-03-28T12:46:34.063Z</time></trkpt><trkpt lat="44.2574353" lon="10.9697017"><ele>813.0</ele><time>2026-03-28T12:46:35.055Z</time></trkpt><trkpt lat="44.2575331" lon="10.9698896"><ele>808.3333333333333</ele><time>2026-03-28T12:46:36.076Z</time></trkpt><trkpt lat="44.2576252" lon="10.9700749"><ele>803.6666666666666</ele><time>2026-03-28T12:46:37.075Z</time></trkpt><trkpt lat="44.2577166" lon="10.970256"><ele>799.0</ele><time>2026-03-28T12:46:38.081Z</time></trkpt><trkpt lat="44.2578051" lon="10.9704331"><ele>799.0</ele><time>2026-03-28T12:46:39.074Z</time></trkpt><trkpt lat="44.257887" lon="10.9706138"><ele>799.0</ele><time>2026-03-28T12:46:40.074Z</time></trkpt><trkpt lat="44.2579698" lon="10.9707854"><ele>799.0</ele><time>2026-03-28T12:46:41.077Z</time></trkpt><trkpt lat="44.2580558" lon="10.9709452"><ele>799.0</ele><time>2026-03-28T12:46:42.067Z</time></trkpt><trkpt lat="44.2581497" lon="10.971086"><ele>798.75</ele><time>2026-03-28T12:46:43.068Z</time></trkpt><trkpt lat="44.2582591" lon="10.9711887"><ele>798.5</ele><time>2026-03-28T12:46:44.061Z</time></trkpt><trkpt lat="44.2583932" lon="10.9712517"><ele>798.25</ele><time>2026-03-28T12:46:45.068Z</time></trkpt><trkpt lat="44.2585296" lon="10.971322"><ele>798.0</ele><time>2026-03-28T12:46:46.054Z</time></trkpt><trkpt lat="44.2586607" lon="10.9714225"><ele>798.0</ele><time>2026-03-28T12:46:47.063Z</time></trkpt><trkpt lat="44.2587693" lon="10.9715612"><ele>798.0</ele><time>2026-03-28T12:46:48.07Z</time></trkpt><trkpt lat="44.2588584" lon="10.9717292"><ele>798.0</ele><time>2026-03-28T12:46:49.061Z</time></trkpt><trkpt lat="44.258937" lon="10.9719195"><ele>799.75</ele><time>2026-03-28T12:46:50.065Z</time></trkpt><trkpt lat="44.2590047" lon="10.9720986"><ele>801.5</ele><time>2026-03-28T12:46:51.071Z</time></trkpt><trkpt lat="44.2590653" lon="10.9722558"><ele>803.25</ele><time>2026-03-28T12:46:52.065Z</time></trkpt><trkpt lat="44.2591269" lon="10.9723889"><ele>805.0</ele><time>2026-03-28T12:46:53.061Z</time></trkpt><trkpt lat="44.2591981" lon="10.9724897"><ele>800.0</ele><time>2026-03-28T12:46:54.053Z</time></trkpt><trkpt lat="44.2592947" lon="10.9725509"><ele>795.0</ele><time>2026-03-28T12:46:55.056Z</time></trkpt><trkpt lat="44.2594192" lon="10.972573"><ele>790.0</ele><time>2026-03-28T12:46:56.074Z</time></trkpt><trkpt lat="44.2595639" lon="10.972596"><ele>785.0</ele><time>2026-03-28T12:46:57.08Z</time></trkpt><trkpt lat="44.2597154" lon="10.9726473"><ele>789.6666666666667</ele><time>2026-03-28T12:46:58.067Z</time></trkpt><trkpt lat="44.2598666" lon="10.9727358"><ele>794.3333333333333</ele><time>2026-03-28T12:46:59.048Z</time></trkpt><trkpt lat="44.260006" lon="10.9728481"><ele>799.0</ele><time>2026-03-28T12:47:00.052Z</time></trkpt><trkpt lat="44.2601374" lon="10.972958"><ele>799.0</ele><time>2026-03-28T12:47:01.053Z</time></trkpt><trkpt lat="44.2602559" lon="10.9730622"><ele>799.0</ele><time>2026-03-28T12:47:02.065Z</time></trkpt><trkpt lat="44.2603552" lon="10.9731665"><ele>799.0</ele><time>2026-03-28T12:47:03.071Z</time></trkpt><trkpt lat="44.2604299" lon="10.973283"><ele>799.0</ele><time>2026-03-28T12:47:04.052Z</time></trkpt><trkpt lat="44.260478" lon="10.9734139"><ele>796.75</ele><time>2026-03-28T12:47:05.05Z</time></trkpt><trkpt lat="44.2604997" lon="10.9735702"><ele>794.5</ele><time>2026-03-28T12:47:06.08Z</time></trkpt><trkpt lat="44.2604902" lon="10.9737344"><ele>792.25</ele><time>2026-03-28T12:47:07.07Z</time></trkpt><trkpt lat="44.2604563" lon="10.9739144"><ele>790.0</ele><time>2026-03-28T12:47:08.065Z</time></trkpt><trkpt lat="44.2604215" lon="10.9740977"><ele>787.3333333333333</ele><time>2026-03-28T12:47:09.062Z</time></trkpt><trkpt lat="44.2604128" lon="10.9742957"><ele>784.6666666666667</ele><time>2026-03-28T12:47:10.059Z</time></trkpt><trkpt lat="44.260447" lon="10.9745163"><ele>782.0</ele><time>2026-03-28T12:47:11.056Z</time></trkpt><trkpt lat="44.2605198" lon="10.9747362"><ele>782.0</ele><time>2026-03-28T12:47:12.063Z</time></trkpt><trkpt lat="44.260588" lon="10.9749457"><ele>782.0</ele><time>2026-03-28T12:47:13.07Z</time></trkpt><trkpt lat="44.2606547" lon="10.9751387"><ele>782.0</ele><time>2026-03-28T12:47:14.06Z</time></trkpt><trkpt lat="44.2607137" lon="10.9753206"><ele>784.0</ele><time>2026-03-28T12:47:15.069Z</time></trkpt><trkpt lat="44.2607746" lon="10.9754718"><ele>786.0</ele><time>2026-03-28T12:47:16.068Z</time></trkpt><trkpt lat="44.2608472" lon="10.9756116"><ele>788.0</ele><time>2026-03-28T12:47:17.07Z</time></trkpt><trkpt lat="44.2609266" lon="10.9757336"><ele>790.0</ele><time>2026-03-28T12:47:18.068Z</time></trkpt><trkpt lat="44.2610052" lon="10.9758423"><ele>789.25</ele><time>2026-03-28T12:47:19.05Z</time></trkpt><trkpt lat="44.2610847" lon="10.9759429"><ele>788.5</ele><time>2026-03-28T12:47:20.056Z</time></trkpt><trkpt lat="44.261173" lon="10.9760323"><ele>787.75</ele><time>2026-03-28T12:47:21.057Z</time></trkpt><trkpt lat="44.26128" lon="10.9761169"><ele>787.0</ele><time>2026-03-28T12:47:22.08Z</time></trkpt><trkpt lat="44.2614015" lon="10.9761873"><ele>789.0</ele><time>2026-03-28T12:47:23.065Z</time></trkpt><trkpt lat="44.2615394" lon="10.9762582"><ele>791.0</ele><time>2026-03-28T12:47:24.072Z</time></trkpt><trkpt lat="44.2616784" lon="10.9763195"><ele>793.0</ele><time>2026-03-28T12:47:25.063Z</time></trkpt><trkpt lat="44.2618171" lon="10.9763782"><ele>795.0</ele><time>2026-03-28T12:47:26.07Z</time></trkpt><trkpt lat="44.2619533" lon="10.9764349"><ele>795.0</ele><time>2026-03-28T12:47:27.072Z</time></trkpt><trkpt lat="44.2620854" lon="10.9764904"><ele>795.0</ele><time>2026-03-28T12:47:28.071Z</time></trkpt><trkpt lat="44.2622224" lon="10.9765478"><ele>795.0</ele><time>2026-03-28T12:47:29.079Z</time></trkpt><trkpt lat="44.2623594" lon="10.9766057"><ele>795.0</ele><time>2026-03-28T12:47:30.082Z</time></trkpt><trkpt lat="44.2624967" lon="10.9766618"><ele>794.25</ele><time>2026-03-28T12:47:31.058Z</time></trkpt><trkpt lat="44.2626425" lon="10.9767248"><ele>793.5</ele><time>2026-03-28T12:47:32.084Z</time></trkpt><trkpt lat="44.2627826" lon="10.976782"><ele>792.75</ele><time>2026-03-28T12:47:33.049Z</time></trkpt><trkpt lat="44.2629246" lon="10.9768501"><ele>792.0</ele><time>2026-03-28T12:47:34.068Z</time></trkpt><trkpt lat="44.2630538" lon="10.9769376"><ele>796.6666666666667</ele><time>2026-03-28T12:47:35.065Z</time></trkpt><trkpt lat="44.2631792" lon="10.9770549"><ele>801.3333333333334</ele><time>2026-03-28T12:47:36.079Z</time></trkpt><trkpt lat="44.2632846" lon="10.9771958"><ele>806.0</ele><time>2026-03-28T12:47:37.055Z</time></trkpt><trkpt lat="44.2633784" lon="10.9773754"><ele>805.3333333333334</ele><time>2026-03-28T12:47:38.054Z</time></trkpt><trkpt lat="44.2634632" lon="10.9775904"><ele>804.6666666666667</ele><time>2026-03-28T12:47:39.053Z</time></trkpt><trkpt lat="44.2635417" lon="10.9778302"><ele>804.0</ele><time>2026-03-28T12:47:40.073Z</time></trkpt><trkpt lat="44.2636124" lon="10.978047"><ele>804.0</ele><time>2026-03-28T12:47:41.058Z</time></trkpt><trkpt lat="44.2636835" lon="10.9782477"><ele>804.0</ele><time>2026-03-28T12:47:42.059Z</time></trkpt><trkpt lat="44.2637566" lon="10.978419"><ele>804.0</ele><time>2026-03-28T12:47:43.056Z</time></trkpt><trkpt lat="44.2638445" lon="10.9785674"><ele>804.0</ele><time>2026-03-28T12:47:44.056Z</time></trkpt><trkpt lat="44.2639558" lon="10.9786788"><ele>804.6666666666667</ele><time>2026-03-28T12:47:45.076Z</time></trkpt><trkpt lat="44.2640882" lon="10.9787604"><ele>805.3333333333334</ele><time>2026-03-28T12:47:46.058Z</time></trkpt><trkpt lat="44.2642353" lon="10.9788363"><ele>806.0</ele><time>2026-03-28T12:47:47.079Z</time></trkpt><trkpt lat="44.2643752" lon="10.9789067"><ele>806.0</ele><time>2026-03-28T12:47:48.051Z</time></trkpt><trkpt lat="44.2645154" lon="10.978967"><ele>806.0</ele><time>2026-03-28T12:47:49.06Z</time></trkpt><trkpt lat="44.2646451" lon="10.9790167"><ele>806.0</ele><time>2026-03-28T12:47:50.078Z</time></trkpt><trkpt lat="44.2647558" lon="10.9790586"><ele>806.0</ele><time>2026-03-28T12:47:51.054Z</time></trkpt><trkpt lat="44.2648463" lon="10.9791114"><ele>808.5999999999999</ele><time>2026-03-28T12:47:52.062Z</time></trkpt><trkpt lat="44.2649076" lon="10.9791934"><ele>811.2</ele><time>2026-03-28T12:47:53.068Z</time></trkpt><trkpt lat="44.2649343" lon="10.9792953"><ele>813.8</ele><time>2026-03-28T12:47:54.06Z</time></trkpt><trkpt lat="44.2649364" lon="10.9794351"><ele>816.4000000000001</ele><time>2026-03-28T12:47:55.065Z</time></trkpt><trkpt lat="44.2649029" lon="10.9795927"><ele>819.0</ele><time>2026-03-28T12:47:56.057Z</time></trkpt><trkpt lat="44.2648529" lon="10.9797607"><ele>819.0</ele><time>2026-03-28T12:47:57.074Z</time></trkpt><trkpt lat="44.2648108" lon="10.9799227"><ele>819.0</ele><time>2026-03-28T12:47:58.058Z</time></trkpt><trkpt lat="44.2647973" lon="10.9800807"><ele>819.0</ele><time>2026-03-28T12:47:59.07Z</time></trkpt><trkpt lat="44.2648213" lon="10.9802261"><ele>819.0</ele><time>2026-03-28T12:48:00.05Z</time></trkpt><trkpt lat="44.2648748" lon="10.9803729"><ele>816.75</ele><time>2026-03-28T12:48:01.055Z</time></trkpt><trkpt lat="44.2649572" lon="10.9805175"><ele>814.5</ele><time>2026-03-28T12:48:02.081Z</time></trkpt><trkpt lat="44.2650517" lon="10.9806357"><ele>812.25</ele><time>2026-03-28T12:48:03.063Z</time></trkpt><trkpt lat="44.265126" lon="10.9807297"><ele>810.0</ele><time>2026-03-28T12:48:04.075Z</time></trkpt><trkpt lat="44.265214" lon="10.9808002"><ele>810.8</ele><time>2026-03-28T12:48:05.079Z</time></trkpt><trkpt lat="44.2653244" lon="10.9808534"><ele>811.6</ele><time>2026-03-28T12:48:06.085Z</time></trkpt><trkpt lat="44.2654271" lon="10.9808976"><ele>812.4000000000001</ele><time>2026-03-28T12:48:07.056Z</time></trkpt><trkpt lat="44.2655254" lon="10.9809383"><ele>813.2</ele><time>2026-03-28T12:48:08.072Z</time></trkpt><trkpt lat="44.2656228" lon="10.9809763"><ele>814.0</ele><time>2026-03-28T12:48:09.065Z</time></trkpt><trkpt lat="44.2657023" lon="10.9810127"><ele>813.9999999999999</ele><time>2026-03-28T12:48:10.069Z</time></trkpt><trkpt lat="44.2657625" lon="10.9810397"><ele>814.0</ele><time>2026-03-28T12:48:11.062Z</time></trkpt><trkpt lat="44.2658634" lon="10.981087"><ele>814.0</ele><time>2026-03-28T12:48:13.073Z</time></trkpt><trkpt lat="44.2659326" lon="10.9811153"><ele>814.0</ele><time>2026-03-28T12:48:15.042Z</time></trkpt><trkpt lat="44.2660113" lon="10.9811465"><ele>813.9999999999999</ele><time>2026-03-28T12:48:50.059Z</time></trkpt><trkpt lat="44.2660969" lon="10.9811881"><ele>814.0</ele><time>2026-03-28T12:48:51.052Z</time></trkpt><trkpt lat="44.2661923" lon="10.9812467"><ele>814.0</ele><time>2026-03-28T12:48:52.056Z</time></trkpt><trkpt lat="44.2662757" lon="10.9813209"><ele>814.0</ele><time>2026-03-28T12:48:53.056Z</time></trkpt><trkpt lat="44.2663443" lon="10.9814022"><ele>814.0</ele><time>2026-03-28T12:48:54.05Z</time></trkpt><trkpt lat="44.2664141" lon="10.9814903"><ele>814.0</ele><time>2026-03-28T12:48:55.068Z</time></trkpt><trkpt lat="44.2664763" lon="10.981591"><ele>814.0</ele><time>2026-03-28T12:48:56.062Z</time></trkpt><trkpt lat="44.2665471" lon="10.9816788"><ele>815.0</ele><time>2026-03-28T12:48:57.06Z</time></trkpt><trkpt lat="44.2666218" lon="10.9817535"><ele>816.0</ele><time>2026-03-28T12:48:58.053Z</time></trkpt><trkpt lat="44.266701" lon="10.9818126"><ele>817.0</ele><time>2026-03-28T12:48:59.053Z</time></trkpt><trkpt lat="44.2667842" lon="10.9818675"><ele>818.0</ele><time>2026-03-28T12:49:00.044Z</time></trkpt><trkpt lat="44.2668776" lon="10.981925"><ele>819.0</ele><time>2026-03-28T12:49:01.072Z</time></trkpt><trkpt lat="44.2669715" lon="10.9819788"><ele>819.0</ele><time>2026-03-28T12:49:02.058Z</time></trkpt><trkpt lat="44.2670573" lon="10.9820545"><ele>819.0</ele><time>2026-03-28T12:49:03.078Z</time></trkpt><trkpt lat="44.2671295" lon="10.9821376"><ele>819.0</ele><time>2026-03-28T12:49:04.064Z</time></trkpt><trkpt lat="44.2671764" lon="10.9822419"><ele>819.0</ele><time>2026-03-28T12:49:05.068Z</time></trkpt><trkpt lat="44.2671993" lon="10.9823609"><ele>819.0</ele><time>2026-03-28T12:49:06.059Z</time></trkpt><trkpt lat="44.2672014" lon="10.9824953"><ele>818.8000000000001</ele><time>2026-03-28T12:49:07.049Z</time></trkpt><trkpt lat="44.2671904" lon="10.9826406"><ele>818.6</ele><time>2026-03-28T12:49:08.058Z</time></trkpt><trkpt lat="44.26718" lon="10.9827885"><ele>818.4</ele><time>2026-03-28T12:49:09.063Z</time></trkpt><trkpt lat="44.2671847" lon="10.9829535"><ele>818.2</ele><time>2026-03-28T12:49:10.062Z</time></trkpt><trkpt lat="44.2672089" lon="10.9831175"><ele>818.0</ele><time>2026-03-28T12:49:11.062Z</time></trkpt><trkpt lat="44.2672609" lon="10.9832805"><ele>822.0</ele><time>2026-03-28T12:49:12.074Z</time></trkpt><trkpt lat="44.2673301" lon="10.9834249"><ele>826.0</ele><time>2026-03-28T12:49:13.062Z</time></trkpt><trkpt lat="44.2674191" lon="10.9835851"><ele>830.0</ele><time>2026-03-28T12:49:14.057Z</time></trkpt><trkpt lat="44.2675084" lon="10.9837517"><ele>834.0</ele><time>2026-03-28T12:49:15.065Z</time></trkpt><trkpt lat="44.2675995" lon="10.9839327"><ele>834.0</ele><time>2026-03-28T12:49:16.052Z</time></trkpt><trkpt lat="44.2676881" lon="10.984122"><ele>834.0</ele><time>2026-03-28T12:49:17.07Z</time></trkpt><trkpt lat="44.2677701" lon="10.9843099"><ele>834.0</ele><time>2026-03-28T12:49:18.071Z</time></trkpt><trkpt lat="44.267844" lon="10.9844938"><ele>831.75</ele><time>2026-03-28T12:49:19.079Z</time></trkpt><trkpt lat="44.2679077" lon="10.9846745"><ele>829.5</ele><time>2026-03-28T12:49:20.06Z</time></trkpt><trkpt lat="44.26796" lon="10.9848648"><ele>827.25</ele><time>2026-03-28T12:49:21.051Z</time></trkpt><trkpt lat="44.268007" lon="10.9850685"><ele>825.0</ele><time>2026-03-28T12:49:22.076Z</time></trkpt><trkpt lat="44.2680451" lon="10.9852571"><ele>824.75</ele><time>2026-03-28T12:49:23.054Z</time></trkpt><trkpt lat="44.2680846" lon="10.985442"><ele>824.5</ele><time>2026-03-28T12:49:24.061Z</time></trkpt><trkpt lat="44.268117" lon="10.9856095"><ele>824.25</ele><time>2026-03-28T12:49:25.062Z</time></trkpt><trkpt lat="44.2681423" lon="10.9857534"><ele>824.0</ele><time>2026-03-28T12:49:26.061Z</time></trkpt><trkpt lat="44.2681628" lon="10.9858689"><ele>828.8333333333334</ele><time>2026-03-28T12:49:27.063Z</time></trkpt><trkpt lat="44.2681804" lon="10.985966"><ele>833.6666666666667</ele><time>2026-03-28T12:49:28.064Z</time></trkpt><trkpt lat="44.2681904" lon="10.9860655"><ele>838.5</ele><time>2026-03-28T12:49:29.079Z</time></trkpt><trkpt lat="44.2681835" lon="10.9861706"><ele>843.3333333333333</ele><time>2026-03-28T12:49:30.072Z</time></trkpt><trkpt lat="44.2681751" lon="10.9862953"><ele>848.1666666666666</ele><time>2026-03-28T12:49:31.074Z</time></trkpt><trkpt lat="44.2681675" lon="10.9864144"><ele>853.0</ele><time>2026-03-28T12:49:32.067Z</time></trkpt><trkpt lat="44.2681672" lon="10.9865434"><ele>853.0</ele><time>2026-03-28T12:49:33.063Z</time></trkpt><trkpt lat="44.2681858" lon="10.9866657"><ele>853.0</ele><time>2026-03-28T12:49:34.053Z</time></trkpt><trkpt lat="44.2682311" lon="10.9867998"><ele>853.0</ele><time>2026-03-28T12:49:35.073Z</time></trkpt><trkpt lat="44.2683" lon="10.9868872"><ele>853.0</ele><time>2026-03-28T12:49:36.071Z</time></trkpt><trkpt lat="44.2683957" lon="10.9869458"><ele>853.0</ele><time>2026-03-28T12:49:37.065Z</time></trkpt><trkpt lat="44.2685037" lon="10.9869637"><ele>851.75</ele><time>2026-03-28T12:49:38.065Z</time></trkpt><trkpt lat="44.2686164" lon="10.9869453"><ele>850.5</ele><time>2026-03-28T12:49:39.066Z</time></trkpt><trkpt lat="44.2687327" lon="10.9869136"><ele>849.25</ele><time>2026-03-28T12:49:40.056Z</time></trkpt><trkpt lat="44.2688552" lon="10.9868928"><ele>848.0</ele><time>2026-03-28T12:49:41.059Z</time></trkpt><trkpt lat="44.2689994" lon="10.9868971"><ele>848.0</ele><time>2026-03-28T12:49:42.081Z</time></trkpt><trkpt lat="44.2691464" lon="10.9869192"><ele>848.0</ele><time>2026-03-28T12:49:43.068Z</time></trkpt><trkpt lat="44.2692993" lon="10.9869455"><ele>848.0</ele><time>2026-03-28T12:49:44.071Z</time></trkpt><trkpt lat="44.2694473" lon="10.9869778"><ele>848.0</ele><time>2026-03-28T12:49:45.059Z</time></trkpt><trkpt lat="44.2695834" lon="10.9870095"><ele>848.0</ele><time>2026-03-28T12:49:46.055Z</time></trkpt><trkpt lat="44.2696906" lon="10.987047"><ele>848.0</ele><time>2026-03-28T12:49:47.067Z</time></trkpt><trkpt lat="44.2697755" lon="10.9870972"><ele>848.0</ele><time>2026-03-28T12:49:48.071Z</time></trkpt><trkpt lat="44.2698369" lon="10.9871698"><ele>848.0</ele><time>2026-03-28T12:49:49.052Z</time></trkpt><trkpt lat="44.2698698" lon="10.9872633"><ele>850.8333333333334</ele><time>2026-03-28T12:49:50.058Z</time></trkpt><trkpt lat="44.2698886" lon="10.9873777"><ele>853.6666666666667</ele><time>2026-03-28T12:49:51.06Z</time></trkpt><trkpt lat="44.2698983" lon="10.987502"><ele>856.5</ele><time>2026-03-28T12:49:52.064Z</time></trkpt><trkpt lat="44.2698988" lon="10.9876114"><ele>859.3333333333333</ele><time>2026-03-28T12:49:53.084Z</time></trkpt><trkpt lat="44.2699046" lon="10.9877301"><ele>862.1666666666666</ele><time>2026-03-28T12:49:55.061Z</time></trkpt><trkpt lat="44.2699549" lon="10.9878351"><ele>865.0</ele><time>2026-03-28T12:50:16.065Z</time></trkpt><trkpt lat="44.2700064" lon="10.9878923"><ele>864.9999999999999</ele><time>2026-03-28T12:50:17.069Z</time></trkpt><trkpt lat="44.2700662" lon="10.9879577"><ele>865.0</ele><time>2026-03-28T12:50:18.06Z</time></trkpt><trkpt lat="44.2701285" lon="10.9880318"><ele>865.0</ele><time>2026-03-28T12:50:19.052Z</time></trkpt><trkpt lat="44.2701915" lon="10.9881132"><ele>865.0</ele><time>2026-03-28T12:50:20.066Z</time></trkpt><trkpt lat="44.2702446" lon="10.9881953"><ele>864.9999999999999</ele><time>2026-03-28T12:50:21.07Z</time></trkpt><trkpt lat="44.270289" lon="10.9882856"><ele>865.0</ele><time>2026-03-28T12:50:22.07Z</time></trkpt><trkpt lat="44.2703169" lon="10.9883955"><ele>866.3333333333333</ele><time>2026-03-28T12:50:23.064Z</time></trkpt><trkpt lat="44.2703262" lon="10.9885219"><ele>867.6666666666666</ele><time>2026-03-28T12:50:24.064Z</time></trkpt><trkpt lat="44.2703131" lon="10.9886436"><ele>869.0</ele><time>2026-03-28T12:50:25.074Z</time></trkpt><trkpt lat="44.2702816" lon="10.9887512"><ele>870.3333333333333</ele><time>2026-03-28T12:50:26.053Z</time></trkpt><trkpt lat="44.2702284" lon="10.9888294"><ele>871.6666666666666</ele><time>2026-03-28T12:50:27.066Z</time></trkpt><trkpt lat="44.2701487" lon="10.9889004"><ele>873.0</ele><time>2026-03-28T12:50:28.054Z</time></trkpt><trkpt lat="44.2700599" lon="10.98896"><ele>873.0</ele><time>2026-03-28T12:50:29.071Z</time></trkpt><trkpt lat="44.2699731" lon="10.989008"><ele>873.0</ele><time>2026-03-28T12:50:30.075Z</time></trkpt><trkpt lat="44.2699055" lon="10.9890613"><ele>873.0</ele><time>2026-03-28T12:50:31.077Z</time></trkpt><trkpt lat="44.2698575" lon="10.9891234"><ele>873.0</ele><time>2026-03-28T12:50:32.066Z</time></trkpt><trkpt lat="44.2698398" lon="10.9892803"><ele>873.0</ele><time>2026-03-28T12:50:34.067Z</time></trkpt><trkpt lat="44.269877" lon="10.9893635"><ele>873.0</ele><time>2026-03-28T12:50:35.069Z</time></trkpt><trkpt lat="44.2699659" lon="10.9894547"><ele>870.25</ele><time>2026-03-28T12:50:36.081Z</time></trkpt><trkpt lat="44.2700785" lon="10.9895171"><ele>867.5</ele><time>2026-03-28T12:50:37.074Z</time></trkpt><trkpt lat="44.2702085" lon="10.9895751"><ele>864.75</ele><time>2026-03-28T12:50:38.057Z</time></trkpt><trkpt lat="44.2703554" lon="10.9896279"><ele>862.0</ele><time>2026-03-28T12:50:39.064Z</time></trkpt><trkpt lat="44.2705062" lon="10.9896635"><ele>865.0</ele><time>2026-03-28T12:50:40.067Z</time></trkpt><trkpt lat="44.2706594" lon="10.989688"><ele>868.0</ele><time>2026-03-28T12:50:41.058Z</time></trkpt><trkpt lat="44.2708065" lon="10.9897059"><ele>871.0</ele><time>2026-03-28T12:50:42.073Z</time></trkpt><trkpt lat="44.2709465" lon="10.9897219"><ele>874.0</ele><time>2026-03-28T12:50:43.077Z</time></trkpt><trkpt lat="44.2710724" lon="10.9897323"><ele>873.9999999999999</ele><time>2026-03-28T12:50:44.08Z</time></trkpt><trkpt lat="44.2711743" lon="10.9897404"><ele>874.0</ele><time>2026-03-28T12:50:45.064Z</time></trkpt><trkpt lat="44.2712722" lon="10.9897525"><ele>874.0</ele><time>2026-03-28T12:50:46.07Z</time></trkpt><trkpt lat="44.2713395" lon="10.9897918"><ele>874.0</ele><time>2026-03-28T12:50:47.054Z</time></trkpt><trkpt lat="44.2714032" lon="10.9898578"><ele>873.9999999999999</ele><time>2026-03-28T12:50:48.079Z</time></trkpt><trkpt lat="44.2714518" lon="10.9899471"><ele>874.0</ele><time>2026-03-28T12:50:49.062Z</time></trkpt><trkpt lat="44.2714776" lon="10.9900583"><ele>872.2</ele><time>2026-03-28T12:50:50.064Z</time></trkpt><trkpt lat="44.2714735" lon="10.990174"><ele>870.4000000000001</ele><time>2026-03-28T12:50:51.062Z</time></trkpt><trkpt lat="44.2714339" lon="10.9902873"><ele>868.6</ele><time>2026-03-28T12:50:52.083Z</time></trkpt><trkpt lat="44.2713699" lon="10.9903654"><ele>866.8</ele><time>2026-03-28T12:50:53.061Z</time></trkpt><trkpt lat="44.2712906" lon="10.990454"><ele>865.0</ele><time>2026-03-28T12:50:54.068Z</time></trkpt><trkpt lat="44.2712226" lon="10.990555"><ele>865.0</ele><time>2026-03-28T12:50:55.064Z</time></trkpt><trkpt lat="44.2711778" lon="10.9906733"><ele>865.0</ele><time>2026-03-28T12:50:56.069Z</time></trkpt><trkpt lat="44.2711651" lon="10.9908143"><ele>865.0</ele><time>2026-03-28T12:50:57.064Z</time></trkpt><trkpt lat="44.2711761" lon="10.9909564"><ele>865.0</ele><time>2026-03-28T12:50:58.069Z</time></trkpt><trkpt lat="44.2711956" lon="10.9911206"><ele>865.0</ele><time>2026-03-28T12:50:59.083Z</time></trkpt><trkpt lat="44.2712066" lon="10.9912915"><ele>867.2</ele><time>2026-03-28T12:51:00.061Z</time></trkpt><trkpt lat="44.2711896" lon="10.9914376"><ele>869.4</ele><time>2026-03-28T12:51:01.056Z</time></trkpt><trkpt lat="44.27115" lon="10.991568"><ele>871.5999999999999</ele><time>2026-03-28T12:51:02.072Z</time></trkpt><trkpt lat="44.2711021" lon="10.99168"><ele>873.8</ele><time>2026-03-28T12:51:03.072Z</time></trkpt><trkpt lat="44.2710477" lon="10.991768"><ele>876.0</ele><time>2026-03-28T12:51:04.061Z</time></trkpt><trkpt lat="44.2709686" lon="10.9918566"><ele>874.6666666666667</ele><time>2026-03-28T12:51:05.078Z</time></trkpt><trkpt lat="44.2708039" lon="10.9919389"><ele>873.3333333333334</ele><time>2026-03-28T12:51:06.083Z</time></trkpt><trkpt lat="44.2706577" lon="10.9920311"><ele>872.0</ele><time>2026-03-28T12:51:07.063Z</time></trkpt><trkpt lat="44.2705238" lon="10.992144"><ele>872.0</ele><time>2026-03-28T12:51:08.082Z</time></trkpt><trkpt lat="44.2704103" lon="10.9922458"><ele>872.0</ele><time>2026-03-28T12:51:09.079Z</time></trkpt><trkpt lat="44.270333" lon="10.9923362"><ele>872.0</ele><time>2026-03-28T12:51:10.067Z</time></trkpt><trkpt lat="44.2702787" lon="10.9924284"><ele>872.0</ele><time>2026-03-28T12:51:11.067Z</time></trkpt><trkpt lat="44.2702613" lon="10.9925226"><ele>872.0</ele><time>2026-03-28T12:51:12.077Z</time></trkpt><trkpt lat="44.2702974" lon="10.9926288"><ele>871.75</ele><time>2026-03-28T12:51:13.067Z</time></trkpt><trkpt lat="44.270377" lon="10.9927229"><ele>871.5</ele><time>2026-03-28T12:51:14.078Z</time></trkpt><trkpt lat="44.2704801" lon="10.9927943"><ele>871.25</ele><time>2026-03-28T12:51:15.058Z</time></trkpt><trkpt lat="44.2706186" lon="10.9928484"><ele>871.0</ele><time>2026-03-28T12:51:16.063Z</time></trkpt><trkpt lat="44.2707701" lon="10.9928746"><ele>871.0</ele><time>2026-03-28T12:51:17.075Z</time></trkpt><trkpt lat="44.2709074" lon="10.9929078"><ele>871.0</ele><time>2026-03-28T12:51:18.068Z</time></trkpt><trkpt lat="44.271038" lon="10.9929686"><ele>871.0</ele><time>2026-03-28T12:51:19.07Z</time></trkpt><trkpt lat="44.2711516" lon="10.9930512"><ele>871.0</ele><time>2026-03-28T12:51:20.073Z</time></trkpt><trkpt lat="44.2712648" lon="10.9931595"><ele>871.0</ele><time>2026-03-28T12:51:21.071Z</time></trkpt><trkpt lat="44.2713792" lon="10.9932737"><ele>871.0</ele><time>2026-03-28T12:51:22.062Z</time></trkpt><trkpt lat="44.2715077" lon="10.9933897"><ele>871.0</ele><time>2026-03-28T12:51:23.08Z</time></trkpt><trkpt lat="44.2716508" lon="10.993499"><ele>870.25</ele><time>2026-03-28T12:51:24.08Z</time></trkpt><trkpt lat="44.2717831" lon="10.9935955"><ele>869.5</ele><time>2026-03-28T12:51:25.064Z</time></trkpt><trkpt lat="44.2719068" lon="10.9936872"><ele>868.75</ele><time>2026-03-28T12:51:26.083Z</time></trkpt><trkpt lat="44.2720137" lon="10.993771"><ele>868.0</ele><time>2026-03-28T12:51:27.07Z</time></trkpt><trkpt lat="44.2721047" lon="10.9938307"><ele>868.0</ele><time>2026-03-28T12:51:28.067Z</time></trkpt><trkpt lat="44.2721962" lon="10.9938724"><ele>868.0</ele><time>2026-03-28T12:51:29.062Z</time></trkpt><trkpt lat="44.27228" lon="10.9938792"><ele>868.0</ele><time>2026-03-28T12:51:30.057Z</time></trkpt><trkpt lat="44.2723741" lon="10.9938577"><ele>868.0</ele><time>2026-03-28T12:51:31.069Z</time></trkpt><trkpt lat="44.2724664" lon="10.9938233"><ele>868.0</ele><time>2026-03-28T12:51:32.054Z</time></trkpt><trkpt lat="44.2725636" lon="10.9938097"><ele>870.25</ele><time>2026-03-28T12:51:33.058Z</time></trkpt><trkpt lat="44.272673" lon="10.9938449"><ele>872.5</ele><time>2026-03-28T12:51:34.075Z</time></trkpt><trkpt lat="44.2727949" lon="10.9939181"><ele>874.75</ele><time>2026-03-28T12:51:35.056Z</time></trkpt><trkpt lat="44.2729337" lon="10.9940119"><ele>877.0</ele><time>2026-03-28T12:51:36.067Z</time></trkpt><trkpt lat="44.2730831" lon="10.9940986"><ele>879.0</ele><time>2026-03-28T12:51:37.067Z</time></trkpt><trkpt lat="44.2732301" lon="10.9941724"><ele>881.0</ele><time>2026-03-28T12:51:38.076Z</time></trkpt><trkpt lat="44.2733635" lon="10.9942388"><ele>883.0</ele><time>2026-03-28T12:51:39.069Z</time></trkpt><trkpt lat="44.2734747" lon="10.9943238"><ele>885.0</ele><time>2026-03-28T12:51:40.057Z</time></trkpt><trkpt lat="44.2735716" lon="10.9944565"><ele>885.0</ele><time>2026-03-28T12:51:41.067Z</time></trkpt><trkpt lat="44.2736449" lon="10.9946199"><ele>885.0</ele><time>2026-03-28T12:51:42.058Z</time></trkpt><trkpt lat="44.2736918" lon="10.9948062"><ele>885.0</ele><time>2026-03-28T12:51:43.074Z</time></trkpt><trkpt lat="44.273716" lon="10.995024"><ele>885.0</ele><time>2026-03-28T12:51:44.075Z</time></trkpt><trkpt lat="44.273729" lon="10.9952554"><ele>885.25</ele><time>2026-03-28T12:51:45.082Z</time></trkpt><trkpt lat="44.2737238" lon="10.9954701"><ele>885.5</ele><time>2026-03-28T12:51:46.065Z</time></trkpt><trkpt lat="44.2737291" lon="10.9956616"><ele>885.75</ele><time>2026-03-28T12:51:47.055Z</time></trkpt><trkpt lat="44.273755" lon="10.9958114"><ele>886.0</ele><time>2026-03-28T12:51:48.075Z</time></trkpt><trkpt lat="44.2737884" lon="10.995953"><ele>886.0</ele><time>2026-03-28T12:51:49.067Z</time></trkpt><trkpt lat="44.2738179" lon="10.9960979"><ele>885.9999999999999</ele><time>2026-03-28T12:51:50.081Z</time></trkpt><trkpt lat="44.2738253" lon="10.9962248"><ele>885.9999999999999</ele><time>2026-03-28T12:51:51.063Z</time></trkpt><trkpt lat="44.2738083" lon="10.9963557"><ele>886.0</ele><time>2026-03-28T12:51:52.08Z</time></trkpt><trkpt lat="44.2737737" lon="10.9964836"><ele>886.0</ele><time>2026-03-28T12:51:53.043Z</time></trkpt><trkpt lat="44.2737368" lon="10.9966257"><ele>885.75</ele><time>2026-03-28T12:51:54.08Z</time></trkpt><trkpt lat="44.2737201" lon="10.9967666"><ele>885.5</ele><time>2026-03-28T12:51:55.061Z</time></trkpt><trkpt lat="44.2737321" lon="10.996912"><ele>885.25</ele><time>2026-03-28T12:51:56.081Z</time></trkpt><trkpt lat="44.2737684" lon="10.9970579"><ele>885.0</ele><time>2026-03-28T12:51:57.065Z</time></trkpt><trkpt lat="44.2738319" lon="10.9972325"><ele>885.0</ele><time>2026-03-28T12:51:58.057Z</time></trkpt><trkpt lat="44.2739054" lon="10.9974102"><ele>885.0</ele><time>2026-03-28T12:51:59.071Z</time></trkpt><trkpt lat="44.2739785" lon="10.997575"><ele>885.0</ele><time>2026-03-28T12:52:00.053Z</time></trkpt><trkpt lat="44.2740594" lon="10.9977264"><ele>885.0</ele><time>2026-03-28T12:52:01.071Z</time></trkpt><trkpt lat="44.2741473" lon="10.9978533"><ele>882.8</ele><time>2026-03-28T12:52:02.078Z</time></trkpt><trkpt lat="44.2742325" lon="10.9979653"><ele>880.6</ele><time>2026-03-28T12:52:03.077Z</time></trkpt><trkpt lat="44.2743117" lon="10.9980693"><ele>878.4000000000001</ele><time>2026-03-28T12:52:04.061Z</time></trkpt><trkpt lat="44.2743858" lon="10.998161"><ele>876.2</ele><time>2026-03-28T12:52:05.049Z</time></trkpt><trkpt lat="44.2744532" lon="10.9982487"><ele>874.0</ele><time>2026-03-28T12:52:06.067Z</time></trkpt><trkpt lat="44.2745155" lon="10.9983287"><ele>872.4999999999999</ele><time>2026-03-28T12:52:07.07Z</time></trkpt><trkpt lat="44.2745726" lon="10.9983987"><ele>871.0</ele><time>2026-03-28T12:52:08.06Z</time></trkpt><trkpt lat="44.2746272" lon="10.9984608"><ele>869.5</ele><time>2026-03-28T12:52:09.066Z</time></trkpt><trkpt lat="44.274668" lon="10.9985304"><ele>868.0</ele><time>2026-03-28T12:52:10.059Z</time></trkpt><trkpt lat="44.2746806" lon="10.9987084"><ele>866.4999999999999</ele><time>2026-03-28T12:52:12.074Z</time></trkpt><trkpt lat="44.2746459" lon="10.9987899"><ele>865.0</ele><time>2026-03-28T12:52:13.057Z</time></trkpt><trkpt lat="44.2745725" lon="10.9988482"><ele>865.0</ele><time>2026-03-28T12:52:14.068Z</time></trkpt><trkpt lat="44.2744814" lon="10.9988534"><ele>865.0</ele><time>2026-03-28T12:52:15.062Z</time></trkpt><trkpt lat="44.2743939" lon="10.9987929"><ele>865.0</ele><time>2026-03-28T12:52:16.075Z</time></trkpt><trkpt lat="44.2743039" lon="10.9986786"><ele>865.0</ele><time>2026-03-28T12:52:17.058Z</time></trkpt><trkpt lat="44.274223" lon="10.9985289"><ele>865.0</ele><time>2026-03-28T12:52:18.072Z</time></trkpt><trkpt lat="44.2741562" lon="10.9983772"><ele>866.8</ele><time>2026-03-28T12:52:19.084Z</time></trkpt><trkpt lat="44.2740933" lon="10.9982371"><ele>868.6</ele><time>2026-03-28T12:52:20.076Z</time></trkpt><trkpt lat="44.2740424" lon="10.9981257"><ele>870.4000000000001</ele><time>2026-03-28T12:52:21.062Z</time></trkpt><trkpt lat="44.2739898" lon="10.9980324"><ele>872.2</ele><time>2026-03-28T12:52:22.069Z</time></trkpt><trkpt lat="44.2739327" lon="10.9979791"><ele>874.0</ele><time>2026-03-28T12:52:23.057Z</time></trkpt><trkpt lat="44.2738322" lon="10.9979986"><ele>875.5</ele><time>2026-03-28T12:52:25.063Z</time></trkpt><trkpt lat="44.2737773" lon="10.9981529"><ele>877.0</ele><time>2026-03-28T12:52:27.07Z</time></trkpt><trkpt lat="44.27384" lon="10.9982983"><ele>878.5</ele><time>2026-03-28T12:52:29.074Z</time></trkpt><trkpt lat="44.2739185" lon="10.9983873"><ele>880.0</ele><time>2026-03-28T12:52:30.067Z</time></trkpt><trkpt lat="44.2739986" lon="10.9985151"><ele>876.25</ele><time>2026-03-28T12:52:31.07Z</time></trkpt><trkpt lat="44.2740602" lon="10.9986685"><ele>872.5</ele><time>2026-03-28T12:52:32.062Z</time></trkpt><trkpt lat="44.2740869" lon="10.9988603"><ele>868.75</ele><time>2026-03-28T12:52:33.073Z</time></trkpt><trkpt lat="44.2740973" lon="10.9990474"><ele>865.0</ele><time>2026-03-28T12:52:34.07Z</time></trkpt><trkpt lat="44.2740999" lon="10.9992322"><ele>862.4</ele><time>2026-03-28T12:52:35.086Z</time></trkpt><trkpt lat="44.2741095" lon="10.9993929"><ele>859.8</ele><time>2026-03-28T12:52:36.063Z</time></trkpt><trkpt lat="44.2741304" lon="10.9995319"><ele>857.2</ele><time>2026-03-28T12:52:37.071Z</time></trkpt><trkpt lat="44.2741735" lon="10.9996558"><ele>854.6</ele><time>2026-03-28T12:52:38.077Z</time></trkpt><trkpt lat="44.2742246" lon="10.9997713"><ele>852.0</ele><time>2026-03-28T12:52:39.066Z</time></trkpt><trkpt lat="44.2742811" lon="10.9998808"><ele>852.0</ele><time>2026-03-28T12:52:40.072Z</time></trkpt><trkpt lat="44.2743449" lon="10.9999731"><ele>852.0</ele><time>2026-03-28T12:52:41.068Z</time></trkpt><trkpt lat="44.2744199" lon="11.0000391"><ele>852.0</ele><time>2026-03-28T12:52:42.074Z</time></trkpt><trkpt lat="44.2745189" lon="11.0000706"><ele>852.0</ele><time>2026-03-28T12:52:43.074Z</time></trkpt><trkpt lat="44.2746147" lon="11.0000464"><ele>852.0</ele><time>2026-03-28T12:52:44.083Z</time></trkpt><trkpt lat="44.274715" lon="10.9999632"><ele>852.0</ele><time>2026-03-28T12:52:45.061Z</time></trkpt><trkpt lat="44.274814" lon="10.9998492"><ele>852.0</ele><time>2026-03-28T12:52:46.062Z</time></trkpt><trkpt lat="44.2749045" lon="10.9997328"><ele>852.0</ele><time>2026-03-28T12:52:47.06Z</time></trkpt><trkpt lat="44.2749851" lon="10.9996284"><ele>852.0</ele><time>2026-03-28T12:52:48.076Z</time></trkpt><trkpt lat="44.2750573" lon="10.9995369"><ele>852.0</ele><time>2026-03-28T12:52:49.062Z</time></trkpt><trkpt lat="44.2751436" lon="10.9994845"><ele>852.0</ele><time>2026-03-28T12:52:50.078Z</time></trkpt><trkpt lat="44.2752347" lon="10.9994926"><ele>852.0</ele><time>2026-03-28T12:52:51.082Z</time></trkpt><trkpt lat="44.2752806" lon="10.999556"><ele>852.0</ele><time>2026-03-28T12:52:52.071Z</time></trkpt><trkpt lat="44.2753513" lon="10.9996711"><ele>852.0</ele><time>2026-03-28T12:52:53.067Z</time></trkpt><trkpt lat="44.275407" lon="10.9998357"><ele>852.0</ele><time>2026-03-28T12:52:54.073Z</time></trkpt><trkpt lat="44.2754569" lon="11.0000126"><ele>852.0</ele><time>2026-03-28T12:52:55.084Z</time></trkpt><trkpt lat="44.2755072" lon="11.0001866"><ele>852.0</ele><time>2026-03-28T12:52:56.073Z</time></trkpt><trkpt lat="44.2755551" lon="11.0003648"><ele>852.0</ele><time>2026-03-28T12:52:57.072Z</time></trkpt><trkpt lat="44.2756035" lon="11.000533"><ele>851.25</ele><time>2026-03-28T12:52:58.065Z</time></trkpt><trkpt lat="44.2756611" lon="11.0006838"><ele>850.5</ele><time>2026-03-28T12:52:59.066Z</time></trkpt><trkpt lat="44.275725" lon="11.0008197"><ele>849.75</ele><time>2026-03-28T12:53:00.058Z</time></trkpt><trkpt lat="44.2757935" lon="11.0009472"><ele>849.0</ele><time>2026-03-28T12:53:01.079Z</time></trkpt><trkpt lat="44.2758635" lon="11.0010587"><ele>849.0</ele><time>2026-03-28T12:53:02.074Z</time></trkpt><trkpt lat="44.2759391" lon="11.0011393"><ele>849.0</ele><time>2026-03-28T12:53:03.054Z</time></trkpt><trkpt lat="44.2760331" lon="11.0011841"><ele>849.0</ele><time>2026-03-28T12:53:04.073Z</time></trkpt><trkpt lat="44.2761329" lon="11.0011875"><ele>849.0</ele><time>2026-03-28T12:53:05.065Z</time></trkpt><trkpt lat="44.2762451" lon="11.0011809"><ele>849.0</ele><time>2026-03-28T12:53:06.064Z</time></trkpt><trkpt lat="44.2763589" lon="11.0011918"><ele>849.4000000000001</ele><time>2026-03-28T12:53:07.063Z</time></trkpt><trkpt lat="44.2764648" lon="11.0012351"><ele>849.8</ele><time>2026-03-28T12:53:08.072Z</time></trkpt><trkpt lat="44.2765647" lon="11.0012821"><ele>850.2</ele><time>2026-03-28T12:53:09.053Z</time></trkpt><trkpt lat="44.2766611" lon="11.0013173"><ele>850.5999999999999</ele><time>2026-03-28T12:53:10.066Z</time></trkpt><trkpt lat="44.2767505" lon="11.0013024"><ele>851.0</ele><time>2026-03-28T12:53:11.072Z</time></trkpt><trkpt lat="44.276831" lon="11.001247"><ele>851.0</ele><time>2026-03-28T12:53:12.062Z</time></trkpt><trkpt lat="44.2769028" lon="11.0011558"><ele>851.0</ele><time>2026-03-28T12:53:13.067Z</time></trkpt><trkpt lat="44.2769722" lon="11.0010423"><ele>851.0</ele><time>2026-03-28T12:53:14.061Z</time></trkpt><trkpt lat="44.2770388" lon="11.0009195"><ele>851.0</ele><time>2026-03-28T12:53:15.062Z</time></trkpt><trkpt lat="44.2771108" lon="11.0007921"><ele>851.0</ele><time>2026-03-28T12:53:16.065Z</time></trkpt><trkpt lat="44.2771887" lon="11.000661"><ele>849.75</ele><time>2026-03-28T12:53:17.074Z</time></trkpt><trkpt lat="44.2772778" lon="11.0005306"><ele>848.5</ele><time>2026-03-28T12:53:18.091Z</time></trkpt><trkpt lat="44.2773657" lon="11.0004198"><ele>847.25</ele><time>2026-03-28T12:53:19.066Z</time></trkpt><trkpt lat="44.2774541" lon="11.0003116"><ele>846.0</ele><time>2026-03-28T12:53:20.078Z</time></trkpt><trkpt lat="44.27754" lon="11.0002253"><ele>846.0</ele><time>2026-03-28T12:53:21.071Z</time></trkpt><trkpt lat="44.2776193" lon="11.0001807"><ele>846.0</ele><time>2026-03-28T12:53:22.064Z</time></trkpt><trkpt lat="44.2777164" lon="11.0001707"><ele>846.0</ele><time>2026-03-28T12:53:23.065Z</time></trkpt><trkpt lat="44.277818" lon="11.0002076"><ele>846.0</ele><time>2026-03-28T12:53:24.062Z</time></trkpt><trkpt lat="44.2779117" lon="11.000285"><ele>846.0</ele><time>2026-03-28T12:53:25.074Z</time></trkpt><trkpt lat="44.2779823" lon="11.0004096"><ele>846.0</ele><time>2026-03-28T12:53:26.073Z</time></trkpt><trkpt lat="44.2780416" lon="11.0005589"><ele>846.0</ele><time>2026-03-28T12:53:27.065Z</time></trkpt><trkpt lat="44.2781057" lon="11.0006965"><ele>846.0</ele><time>2026-03-28T12:53:28.078Z</time></trkpt><trkpt lat="44.2781875" lon="11.0008001"><ele>846.0</ele><time>2026-03-28T12:53:29.083Z</time></trkpt><trkpt lat="44.2782841" lon="11.0008659"><ele>843.0</ele><time>2026-03-28T12:53:30.065Z</time></trkpt><trkpt lat="44.278387" lon="11.000886"><ele>840.0</ele><time>2026-03-28T12:53:31.068Z</time></trkpt><trkpt lat="44.2784872" lon="11.0008811"><ele>837.0</ele><time>2026-03-28T12:53:32.062Z</time></trkpt><trkpt lat="44.2785906" lon="11.0008719"><ele>834.0</ele><time>2026-03-28T12:53:33.07Z</time></trkpt><trkpt lat="44.2786915" lon="11.0008899"><ele>831.0</ele><time>2026-03-28T12:53:34.073Z</time></trkpt><trkpt lat="44.2787645" lon="11.000963"><ele>831.0</ele><time>2026-03-28T12:53:35.047Z</time></trkpt><trkpt lat="44.2788188" lon="11.0010866"><ele>831.0</ele><time>2026-03-28T12:53:36.08Z</time></trkpt><trkpt lat="44.2788612" lon="11.0012277"><ele>831.0</ele><time>2026-03-28T12:53:37.08Z</time></trkpt><trkpt lat="44.2789054" lon="11.0013663"><ele>831.0</ele><time>2026-03-28T12:53:38.075Z</time></trkpt><trkpt lat="44.2789607" lon="11.001488"><ele>831.0</ele><time>2026-03-28T12:53:39.075Z</time></trkpt><trkpt lat="44.2790308" lon="11.0015903"><ele>831.0</ele><time>2026-03-28T12:53:40.069Z</time></trkpt><trkpt lat="44.2791189" lon="11.0016619"><ele>831.0</ele><time>2026-03-28T12:53:41.074Z</time></trkpt><trkpt lat="44.2792197" lon="11.0016929"><ele>831.0</ele><time>2026-03-28T12:53:42.079Z</time></trkpt><trkpt lat="44.2793264" lon="11.0016856"><ele>831.0</ele><time>2026-03-28T12:53:43.071Z</time></trkpt><trkpt lat="44.2794304" lon="11.0016428"><ele>831.0</ele><time>2026-03-28T12:53:44.063Z</time></trkpt><trkpt lat="44.2795315" lon="11.0015894"><ele>831.0</ele><time>2026-03-28T12:53:45.076Z</time></trkpt><trkpt lat="44.2796142" lon="11.0015241"><ele>831.0</ele><time>2026-03-28T12:53:46.067Z</time></trkpt><trkpt lat="44.2796741" lon="11.001442"><ele>831.0</ele><time>2026-03-28T12:53:47.069Z</time></trkpt><trkpt lat="44.2797127" lon="11.0013352"><ele>831.0</ele><time>2026-03-28T12:53:48.069Z</time></trkpt><trkpt lat="44.2797384" lon="11.001207"><ele>831.0</ele><time>2026-03-28T12:53:49.059Z</time></trkpt><trkpt lat="44.2797589" lon="11.0010532"><ele>830.25</ele><time>2026-03-28T12:53:50.074Z</time></trkpt><trkpt lat="44.2797707" lon="11.0008878"><ele>829.5</ele><time>2026-03-28T12:53:51.059Z</time></trkpt><trkpt lat="44.2797722" lon="11.0007129"><ele>828.75</ele><time>2026-03-28T12:53:52.058Z</time></trkpt><trkpt lat="44.2797546" lon="11.0005316"><ele>828.0</ele><time>2026-03-28T12:53:53.077Z</time></trkpt><trkpt lat="44.2797152" lon="11.0003672"><ele>828.0</ele><time>2026-03-28T12:53:54.059Z</time></trkpt><trkpt lat="44.2796621" lon="11.0002206"><ele>828.0</ele><time>2026-03-28T12:53:55.068Z</time></trkpt><trkpt lat="44.2796042" lon="11.0001051"><ele>828.0</ele><time>2026-03-28T12:53:56.081Z</time></trkpt><trkpt lat="44.2795538" lon="11.000007"><ele>828.0</ele><time>2026-03-28T12:53:57.077Z</time></trkpt><trkpt lat="44.2795332" lon="10.999913"><ele>828.0</ele><time>2026-03-28T12:53:58.069Z</time></trkpt><trkpt lat="44.2795781" lon="10.9997836"><ele>828.0</ele><time>2026-03-28T12:54:00.053Z</time></trkpt><trkpt lat="44.2796511" lon="10.9997586"><ele>828.0</ele><time>2026-03-28T12:54:01.076Z</time></trkpt><trkpt lat="44.2797609" lon="10.9998058"><ele>828.0</ele><time>2026-03-28T12:54:02.414Z</time></trkpt><trkpt lat="44.279817" lon="11.0000143"><ele>828.0</ele><time>2026-03-28T12:54:04.13Z</time></trkpt><trkpt lat="44.2798459" lon="11.0001909"><ele>823.25</ele><time>2026-03-28T12:54:05.132Z</time></trkpt><trkpt lat="44.2798739" lon="11.0003709"><ele>818.5</ele><time>2026-03-28T12:54:06.132Z</time></trkpt><trkpt lat="44.2799011" lon="11.0005352"><ele>813.75</ele><time>2026-03-28T12:54:07.118Z</time></trkpt><trkpt lat="44.279933" lon="11.0006914"><ele>809.0</ele><time>2026-03-28T12:54:08.134Z</time></trkpt><trkpt lat="44.2799709" lon="11.0008296"><ele>810.1666666666667</ele><time>2026-03-28T12:54:09.135Z</time></trkpt><trkpt lat="44.2800182" lon="11.0009496"><ele>811.3333333333334</ele><time>2026-03-28T12:54:10.123Z</time></trkpt><trkpt lat="44.2800737" lon="11.0010567"><ele>812.5</ele><time>2026-03-28T12:54:11.142Z</time></trkpt><trkpt lat="44.2801298" lon="11.0011493"><ele>813.6666666666667</ele><time>2026-03-28T12:54:12.131Z</time></trkpt><trkpt lat="44.2801845" lon="11.0012354"><ele>814.8333333333334</ele><time>2026-03-28T12:54:13.131Z</time></trkpt><trkpt lat="44.2802356" lon="11.0013181"><ele>816.0</ele><time>2026-03-28T12:54:14.141Z</time></trkpt><trkpt lat="44.2802815" lon="11.0013926"><ele>816.0</ele><time>2026-03-28T12:54:15.123Z</time></trkpt><trkpt lat="44.2803212" lon="11.0014656"><ele>816.0</ele><time>2026-03-28T12:54:16.123Z</time></trkpt><trkpt lat="44.2803704" lon="11.0016188"><ele>816.0</ele><time>2026-03-28T12:54:18.128Z</time></trkpt><trkpt lat="44.2803643" lon="11.0017961"><ele>816.0</ele><time>2026-03-28T12:54:20.128Z</time></trkpt><trkpt lat="44.2803393" lon="11.0019097"><ele>816.0</ele><time>2026-03-28T12:54:21.117Z</time></trkpt><trkpt lat="44.2803019" lon="11.0020438"><ele>815.75</ele><time>2026-03-28T12:54:22.115Z</time></trkpt><trkpt lat="44.2802554" lon="11.0021797"><ele>815.5</ele><time>2026-03-28T12:54:23.118Z</time></trkpt><trkpt lat="44.2801967" lon="11.0023157"><ele>815.25</ele><time>2026-03-28T12:54:24.119Z</time></trkpt><trkpt lat="44.2801227" lon="11.0024495"><ele>815.0</ele><time>2026-03-28T12:54:25.115Z</time></trkpt><trkpt lat="44.2800399" lon="11.0025728"><ele>813.6</ele><time>2026-03-28T12:54:26.115Z</time></trkpt><trkpt lat="44.2799616" lon="11.0026777"><ele>812.2</ele><time>2026-03-28T12:54:27.12Z</time></trkpt><trkpt lat="44.2798864" lon="11.0027565"><ele>810.8</ele><time>2026-03-28T12:54:28.109Z</time></trkpt><trkpt lat="44.279811" lon="11.0028139"><ele>809.4</ele><time>2026-03-28T12:54:29.121Z</time></trkpt><trkpt lat="44.2797156" lon="11.0028601"><ele>808.0</ele><time>2026-03-28T12:54:30.114Z</time></trkpt><trkpt lat="44.2796132" lon="11.0028847"><ele>807.5999999999999</ele><time>2026-03-28T12:54:31.128Z</time></trkpt><trkpt lat="44.2795085" lon="11.0029049"><ele>807.1999999999999</ele><time>2026-03-28T12:54:32.109Z</time></trkpt><trkpt lat="44.2794069" lon="11.0029207"><ele>806.8</ele><time>2026-03-28T12:54:33.116Z</time></trkpt><trkpt lat="44.2793101" lon="11.0029238"><ele>806.4</ele><time>2026-03-28T12:54:34.133Z</time></trkpt><trkpt lat="44.2792235" lon="11.002913"><ele>806.0</ele><time>2026-03-28T12:54:35.115Z</time></trkpt><trkpt lat="44.2791412" lon="11.0028855"><ele>806.0</ele><time>2026-03-28T12:54:36.137Z</time></trkpt><trkpt lat="44.2790698" lon="11.0028402"><ele>806.0</ele><time>2026-03-28T12:54:37.11Z</time></trkpt><trkpt lat="44.2789972" lon="11.0027702"><ele>806.0</ele><time>2026-03-28T12:54:38.114Z</time></trkpt><trkpt lat="44.2789176" lon="11.002672"><ele>806.0</ele><time>2026-03-28T12:54:39.134Z</time></trkpt><trkpt lat="44.2788346" lon="11.0025562"><ele>806.0</ele><time>2026-03-28T12:54:40.143Z</time></trkpt><trkpt lat="44.278751" lon="11.002432"><ele>806.75</ele><time>2026-03-28T12:54:41.121Z</time></trkpt><trkpt lat="44.278658" lon="11.0022909"><ele>807.5</ele><time>2026-03-28T12:54:42.13Z</time></trkpt><trkpt lat="44.2785631" lon="11.0021437"><ele>808.25</ele><time>2026-03-28T12:54:43.128Z</time></trkpt><trkpt lat="44.2784737" lon="11.0020018"><ele>809.0</ele><time>2026-03-28T12:54:44.116Z</time></trkpt><trkpt lat="44.2783904" lon="11.0018724"><ele>809.0000000000001</ele><time>2026-03-28T12:54:45.128Z</time></trkpt><trkpt lat="44.2783163" lon="11.0017839"><ele>809.0</ele><time>2026-03-28T12:54:46.118Z</time></trkpt><trkpt lat="44.2782385" lon="11.001749"><ele>809.0</ele><time>2026-03-28T12:54:47.123Z</time></trkpt><trkpt lat="44.2781658" lon="11.0017658"><ele>809.0</ele><time>2026-03-28T12:54:48.114Z</time></trkpt><trkpt lat="44.2781093" lon="11.0018321"><ele>809.0000000000001</ele><time>2026-03-28T12:54:49.137Z</time></trkpt><trkpt lat="44.278083" lon="11.0019261"><ele>809.0</ele><time>2026-03-28T12:54:50.122Z</time></trkpt><trkpt lat="44.2780913" lon="11.0020172"><ele>809.0</ele><time>2026-03-28T12:54:51.125Z</time></trkpt><trkpt lat="44.2781331" lon="11.0021032"><ele>809.0</ele><time>2026-03-28T12:54:52.117Z</time></trkpt><trkpt lat="44.278209" lon="11.00219"><ele>809.0</ele><time>2026-03-28T12:54:53.115Z</time></trkpt><trkpt lat="44.278305" lon="11.0022824"><ele>809.0</ele><time>2026-03-28T12:54:54.118Z</time></trkpt><trkpt lat="44.2784041" lon="11.0023887"><ele>809.0</ele><time>2026-03-28T12:54:55.118Z</time></trkpt><trkpt lat="44.2784946" lon="11.0025091"><ele>806.0</ele><time>2026-03-28T12:54:56.122Z</time></trkpt><trkpt lat="44.2785717" lon="11.0026433"><ele>803.0</ele><time>2026-03-28T12:54:57.13Z</time></trkpt><trkpt lat="44.278629" lon="11.0027802"><ele>800.0</ele><time>2026-03-28T12:54:58.12Z</time></trkpt><trkpt lat="44.2786676" lon="11.0029228"><ele>797.0</ele><time>2026-03-28T12:54:59.128Z</time></trkpt><trkpt lat="44.2786833" lon="11.0030611"><ele>794.0</ele><time>2026-03-28T12:55:00.117Z</time></trkpt><trkpt lat="44.2786903" lon="11.0031893"><ele>794.0</ele><time>2026-03-28T12:55:01.119Z</time></trkpt><trkpt lat="44.2787082" lon="11.0033032"><ele>794.0</ele><time>2026-03-28T12:55:02.122Z</time></trkpt><trkpt lat="44.2787474" lon="11.0033968"><ele>794.0</ele><time>2026-03-28T12:55:03.116Z</time></trkpt><trkpt lat="44.2788149" lon="11.0034679"><ele>794.0</ele><time>2026-03-28T12:55:04.108Z</time></trkpt><trkpt lat="44.2789096" lon="11.0035226"><ele>794.0</ele><time>2026-03-28T12:55:05.127Z</time></trkpt><trkpt lat="44.2790163" lon="11.0035647"><ele>794.25</ele><time>2026-03-28T12:55:06.123Z</time></trkpt><trkpt lat="44.2791283" lon="11.0036045"><ele>794.5</ele><time>2026-03-28T12:55:07.119Z</time></trkpt><trkpt lat="44.2792356" lon="11.0036426"><ele>794.75</ele><time>2026-03-28T12:55:08.106Z</time></trkpt><trkpt lat="44.2793473" lon="11.0036827"><ele>795.0</ele><time>2026-03-28T12:55:09.139Z</time></trkpt><trkpt lat="44.2794608" lon="11.0037209"><ele>795.0</ele><time>2026-03-28T12:55:10.146Z</time></trkpt><trkpt lat="44.2795736" lon="11.0037586"><ele>795.0</ele><time>2026-03-28T12:55:11.129Z</time></trkpt><trkpt lat="44.2796876" lon="11.0038071"><ele>795.0</ele><time>2026-03-28T12:55:12.109Z</time></trkpt><trkpt lat="44.2798033" lon="11.0038806"><ele>795.0</ele><time>2026-03-28T12:55:13.136Z</time></trkpt><trkpt lat="44.2799079" lon="11.0039788"><ele>794.25</ele><time>2026-03-28T12:55:14.121Z</time></trkpt><trkpt lat="44.2800132" lon="11.0041067"><ele>793.5</ele><time>2026-03-28T12:55:15.109Z</time></trkpt><trkpt lat="44.2801214" lon="11.0042614"><ele>792.75</ele><time>2026-03-28T12:55:16.121Z</time></trkpt><trkpt lat="44.2802271" lon="11.0044073"><ele>792.0</ele><time>2026-03-28T12:55:17.133Z</time></trkpt><trkpt lat="44.2803226" lon="11.0045263"><ele>788.8</ele><time>2026-03-28T12:55:18.112Z</time></trkpt><trkpt lat="44.280412" lon="11.0046299"><ele>785.6</ele><time>2026-03-28T12:55:19.131Z</time></trkpt><trkpt lat="44.2804814" lon="11.0047283"><ele>782.4</ele><time>2026-03-28T12:55:20.114Z</time></trkpt><trkpt lat="44.2805306" lon="11.0048395"><ele>779.1999999999999</ele><time>2026-03-28T12:55:21.129Z</time></trkpt><trkpt lat="44.2805523" lon="11.0049647"><ele>776.0</ele><time>2026-03-28T12:55:22.123Z</time></trkpt><trkpt lat="44.2805601" lon="11.0051037"><ele>775.8</ele><time>2026-03-28T12:55:23.122Z</time></trkpt><trkpt lat="44.2805743" lon="11.0052417"><ele>775.5999999999999</ele><time>2026-03-28T12:55:24.109Z</time></trkpt><trkpt lat="44.2806051" lon="11.0053833"><ele>775.4</ele><time>2026-03-28T12:55:25.143Z</time></trkpt><trkpt lat="44.2806523" lon="11.0055076"><ele>775.2</ele><time>2026-03-28T12:55:26.121Z</time></trkpt><trkpt lat="44.2807157" lon="11.0056179"><ele>775.0</ele><time>2026-03-28T12:55:27.117Z</time></trkpt><trkpt lat="44.2807971" lon="11.0057015"><ele>773.0</ele><time>2026-03-28T12:55:28.117Z</time></trkpt><trkpt lat="44.280897" lon="11.0057409"><ele>771.0</ele><time>2026-03-28T12:55:29.112Z</time></trkpt><trkpt lat="44.2810185" lon="11.0057445"><ele>769.0</ele><time>2026-03-28T12:55:30.127Z</time></trkpt><trkpt lat="44.2811542" lon="11.0057415"><ele>767.0</ele><time>2026-03-28T12:55:31.118Z</time></trkpt><trkpt lat="44.2812984" lon="11.0057561"><ele>764.0</ele><time>2026-03-28T12:55:32.135Z</time></trkpt><trkpt lat="44.2814324" lon="11.0057721"><ele>761.0</ele><time>2026-03-28T12:55:33.122Z</time></trkpt><trkpt lat="44.2815668" lon="11.0057582"><ele>758.0</ele><time>2026-03-28T12:55:34.117Z</time></trkpt><trkpt lat="44.2816922" lon="11.0057194"><ele>755.0</ele><time>2026-03-28T12:55:35.113Z</time></trkpt><trkpt lat="44.2818097" lon="11.0056805"><ele>755.0</ele><time>2026-03-28T12:55:36.114Z</time></trkpt><trkpt lat="44.2819249" lon="11.0056612"><ele>755.0</ele><time>2026-03-28T12:55:37.107Z</time></trkpt><trkpt lat="44.2820445" lon="11.0056622"><ele>755.0</ele><time>2026-03-28T12:55:38.104Z</time></trkpt><trkpt lat="44.2821672" lon="11.0056859"><ele>755.0</ele><time>2026-03-28T12:55:39.126Z</time></trkpt><trkpt lat="44.2822799" lon="11.0057255"><ele>755.6</ele><time>2026-03-28T12:55:40.114Z</time></trkpt><trkpt lat="44.282385" lon="11.0057787"><ele>756.2</ele><time>2026-03-28T12:55:41.131Z</time></trkpt><trkpt lat="44.282476" lon="11.0058395"><ele>756.8</ele><time>2026-03-28T12:55:42.115Z</time></trkpt><trkpt lat="44.2825621" lon="11.0059124"><ele>757.4</ele><time>2026-03-28T12:55:43.135Z</time></trkpt><trkpt lat="44.2826399" lon="11.0059979"><ele>758.0</ele><time>2026-03-28T12:55:44.118Z</time></trkpt><trkpt lat="44.2827059" lon="11.0060938"><ele>758.0</ele><time>2026-03-28T12:55:45.111Z</time></trkpt><trkpt lat="44.2827574" lon="11.0061984"><ele>758.0</ele><time>2026-03-28T12:55:46.132Z</time></trkpt><trkpt lat="44.2827934" lon="11.0063007"><ele>758.0</ele><time>2026-03-28T12:55:47.122Z</time></trkpt><trkpt lat="44.2828234" lon="11.006399"><ele>758.0</ele><time>2026-03-28T12:55:48.123Z</time></trkpt><trkpt lat="44.2828556" lon="11.0064924"><ele>758.0</ele><time>2026-03-28T12:55:49.127Z</time></trkpt><trkpt lat="44.2828968" lon="11.0065775"><ele>758.0</ele><time>2026-03-28T12:55:50.113Z</time></trkpt><trkpt lat="44.282948" lon="11.0066529"><ele>756.5999999999999</ele><time>2026-03-28T12:55:51.135Z</time></trkpt><trkpt lat="44.283023" lon="11.0066981"><ele>755.1999999999999</ele><time>2026-03-28T12:55:52.106Z</time></trkpt><trkpt lat="44.283114" lon="11.006695"><ele>753.8</ele><time>2026-03-28T12:55:53.113Z</time></trkpt><trkpt lat="44.2832191" lon="11.0066454"><ele>752.4</ele><time>2026-03-28T12:55:54.128Z</time></trkpt><trkpt lat="44.283294" lon="11.0065635"><ele>751.0</ele><time>2026-03-28T12:55:55.073Z</time></trkpt><trkpt lat="44.283371" lon="11.0064551"><ele>751.0</ele><time>2026-03-28T12:55:56.067Z</time></trkpt><trkpt lat="44.2834617" lon="11.0063601"><ele>751.0</ele><time>2026-03-28T12:55:57.071Z</time></trkpt><trkpt lat="44.2835532" lon="11.0062862"><ele>751.0</ele><time>2026-03-28T12:55:58.075Z</time></trkpt><trkpt lat="44.2836726" lon="11.0061862"><ele>751.0</ele><time>2026-03-28T12:55:59.41Z</time></trkpt><trkpt lat="44.2838563" lon="11.0062431"><ele>751.6666666666667</ele><time>2026-03-28T12:56:01.129Z</time></trkpt><trkpt lat="44.2839474" lon="11.0062362"><ele>752.3333333333334</ele><time>2026-03-28T12:56:02.118Z</time></trkpt><trkpt lat="44.2840313" lon="11.0062089"><ele>753.0</ele><time>2026-03-28T12:56:03.111Z</time></trkpt><trkpt lat="44.2841099" lon="11.0061513"><ele>753.6666666666666</ele><time>2026-03-28T12:56:04.132Z</time></trkpt><trkpt lat="44.2841739" lon="11.0060698"><ele>754.3333333333333</ele><time>2026-03-28T12:56:05.12Z</time></trkpt><trkpt lat="44.2842287" lon="11.0059813"><ele>755.0</ele><time>2026-03-28T12:56:06.073Z</time></trkpt><trkpt lat="44.2842807" lon="11.0058819"><ele>752.4</ele><time>2026-03-28T12:56:07.045Z</time></trkpt><trkpt lat="44.2843401" lon="11.0057684"><ele>749.8</ele><time>2026-03-28T12:56:08.086Z</time></trkpt><trkpt lat="44.2843947" lon="11.0056576"><ele>747.2</ele><time>2026-03-28T12:56:09.062Z</time></trkpt><trkpt lat="44.2844449" lon="11.0055354"><ele>744.6</ele><time>2026-03-28T12:56:10.066Z</time></trkpt><trkpt lat="44.2844945" lon="11.0054265"><ele>742.0</ele><time>2026-03-28T12:56:11.076Z</time></trkpt><trkpt lat="44.2845508" lon="11.0053438"><ele>742.0</ele><time>2026-03-28T12:56:12.074Z</time></trkpt><trkpt lat="44.284625" lon="11.0052822"><ele>742.0</ele><time>2026-03-28T12:56:13.053Z</time></trkpt><trkpt lat="44.2847202" lon="11.0052415"><ele>742.0</ele><time>2026-03-28T12:56:14.063Z</time></trkpt><trkpt lat="44.2848189" lon="11.0052176"><ele>742.0</ele><time>2026-03-28T12:56:15.059Z</time></trkpt><trkpt lat="44.2849338" lon="11.0051575"><ele>742.0</ele><time>2026-03-28T12:56:16.073Z</time></trkpt><trkpt lat="44.2850643" lon="11.005059"><ele>739.6666666666667</ele><time>2026-03-28T12:56:17.086Z</time></trkpt><trkpt lat="44.285198" lon="11.0049254"><ele>737.3333333333334</ele><time>2026-03-28T12:56:18.077Z</time></trkpt><trkpt lat="44.2853394" lon="11.0047919"><ele>735.0</ele><time>2026-03-28T12:56:19.081Z</time></trkpt><trkpt lat="44.2854799" lon="11.0046771"><ele>737.75</ele><time>2026-03-28T12:56:20.082Z</time></trkpt><trkpt lat="44.2856136" lon="11.0045753"><ele>740.5</ele><time>2026-03-28T12:56:21.086Z</time></trkpt><trkpt lat="44.2857231" lon="11.0044852"><ele>743.25</ele><time>2026-03-28T12:56:22.068Z</time></trkpt><trkpt lat="44.2858171" lon="11.0043962"><ele>746.0</ele><time>2026-03-28T12:56:23.062Z</time></trkpt><trkpt lat="44.2858922" lon="11.0043067"><ele>746.0</ele><time>2026-03-28T12:56:24.073Z</time></trkpt><trkpt lat="44.2859532" lon="11.0042129"><ele>746.0</ele><time>2026-03-28T12:56:25.082Z</time></trkpt><trkpt lat="44.2860115" lon="11.0041148"><ele>746.0</ele><time>2026-03-28T12:56:26.076Z</time></trkpt><trkpt lat="44.2860665" lon="11.0040133"><ele>746.0</ele><time>2026-03-28T12:56:27.066Z</time></trkpt><trkpt lat="44.2861211" lon="11.0039202"><ele>746.0</ele><time>2026-03-28T12:56:28.083Z</time></trkpt><trkpt lat="44.2861782" lon="11.0038331"><ele>746.0</ele><time>2026-03-28T12:56:29.075Z</time></trkpt><trkpt lat="44.28624" lon="11.0037578"><ele>746.4</ele><time>2026-03-28T12:56:30.058Z</time></trkpt><trkpt lat="44.286312" lon="11.0036704"><ele>746.8</ele><time>2026-03-28T12:56:31.081Z</time></trkpt><trkpt lat="44.2863825" lon="11.003594"><ele>747.1999999999999</ele><time>2026-03-28T12:56:32.069Z</time></trkpt><trkpt lat="44.286453" lon="11.0035191"><ele>747.5999999999999</ele><time>2026-03-28T12:56:33.073Z</time></trkpt><trkpt lat="44.2865278" lon="11.0034539"><ele>748.0</ele><time>2026-03-28T12:56:34.07Z</time></trkpt><trkpt lat="44.2866065" lon="11.003393"><ele>748.0</ele><time>2026-03-28T12:56:35.069Z</time></trkpt><trkpt lat="44.2866935" lon="11.0033444"><ele>748.0</ele><time>2026-03-28T12:56:36.068Z</time></trkpt><trkpt lat="44.2867857" lon="11.0033196"><ele>748.0</ele><time>2026-03-28T12:56:37.085Z</time></trkpt><trkpt lat="44.2868766" lon="11.0033102"><ele>748.0</ele><time>2026-03-28T12:56:38.056Z</time></trkpt><trkpt lat="44.2869743" lon="11.0033086"><ele>748.0</ele><time>2026-03-28T12:56:39.064Z</time></trkpt><trkpt lat="44.2870728" lon="11.0033093"><ele>748.2</ele><time>2026-03-28T12:56:40.067Z</time></trkpt><trkpt lat="44.2871696" lon="11.003317"><ele>748.4</ele><time>2026-03-28T12:56:41.079Z</time></trkpt><trkpt lat="44.2872599" lon="11.0033255"><ele>748.6</ele><time>2026-03-28T12:56:42.08Z</time></trkpt><trkpt lat="44.2873491" lon="11.0033479"><ele>748.8000000000001</ele><time>2026-03-28T12:56:43.071Z</time></trkpt><trkpt lat="44.2874374" lon="11.0033788"><ele>749.0</ele><time>2026-03-28T12:56:44.085Z</time></trkpt><trkpt lat="44.2875183" lon="11.0034086"><ele>749.0</ele><time>2026-03-28T12:56:45.077Z</time></trkpt><trkpt lat="44.2875984" lon="11.0034291"><ele>749.0</ele><time>2026-03-28T12:56:46.049Z</time></trkpt><trkpt lat="44.2876809" lon="11.0034274"><ele>749.0</ele><time>2026-03-28T12:56:47.068Z</time></trkpt><trkpt lat="44.2877561" lon="11.003401"><ele>749.0</ele><time>2026-03-28T12:56:48.082Z</time></trkpt><trkpt lat="44.2878239" lon="11.0033601"><ele>749.0</ele><time>2026-03-28T12:56:49.079Z</time></trkpt><trkpt lat="44.287885" lon="11.0033196"><ele>749.0</ele><time>2026-03-28T12:56:50.061Z</time></trkpt><trkpt lat="44.2880045" lon="11.0033052"><ele>749.0</ele><time>2026-03-28T12:56:52.066Z</time></trkpt><trkpt lat="44.2880602" lon="11.0033538"><ele>749.0</ele><time>2026-03-28T12:56:53.055Z</time></trkpt><trkpt lat="44.288102" lon="11.0034353"><ele>749.0</ele><time>2026-03-28T12:56:54.063Z</time></trkpt><trkpt lat="44.2881214" lon="11.0035428"><ele>749.0</ele><time>2026-03-28T12:56:55.083Z</time></trkpt><trkpt lat="44.2881141" lon="11.003656"><ele>749.0</ele><time>2026-03-28T12:56:56.064Z</time></trkpt><trkpt lat="44.288098" lon="11.0037814"><ele>749.0</ele><time>2026-03-28T12:56:57.064Z</time></trkpt><trkpt lat="44.2880984" lon="11.0038912"><ele>747.3333333333333</ele><time>2026-03-28T12:56:58.052Z</time></trkpt><trkpt lat="44.2881048" lon="11.0040103"><ele>745.6666666666666</ele><time>2026-03-28T12:56:59.082Z</time></trkpt><trkpt lat="44.2881163" lon="11.0041235"><ele>744.0</ele><time>2026-03-28T12:57:00.063Z</time></trkpt><trkpt lat="44.2881298" lon="11.0042312"><ele>742.3333333333334</ele><time>2026-03-28T12:57:01.059Z</time></trkpt><trkpt lat="44.2881463" lon="11.00433"><ele>740.6666666666667</ele><time>2026-03-28T12:57:02.071Z</time></trkpt><trkpt lat="44.2881631" lon="11.0044222"><ele>739.0</ele><time>2026-03-28T12:57:03.076Z</time></trkpt><trkpt lat="44.2881964" lon="11.0045238"><ele>739.0</ele><time>2026-03-28T12:57:04.087Z</time></trkpt><trkpt lat="44.2882405" lon="11.0046228"><ele>739.0</ele><time>2026-03-28T12:57:05.074Z</time></trkpt><trkpt lat="44.2882997" lon="11.0047122"><ele>739.0</ele><time>2026-03-28T12:57:06.064Z</time></trkpt><trkpt lat="44.2883641" lon="11.004793"><ele>739.0</ele><time>2026-03-28T12:57:07.063Z</time></trkpt><trkpt lat="44.2884331" lon="11.0048772"><ele>739.0</ele><time>2026-03-28T12:57:08.068Z</time></trkpt><trkpt lat="44.2885113" lon="11.0049767"><ele>739.25</ele><time>2026-03-28T12:57:09.064Z</time></trkpt><trkpt lat="44.2886076" lon="11.0050874"><ele>739.5</ele><time>2026-03-28T12:57:10.074Z</time></trkpt><trkpt lat="44.2887163" lon="11.0051761"><ele>739.75</ele><time>2026-03-28T12:57:11.056Z</time></trkpt><trkpt lat="44.2888634" lon="11.0052354"><ele>740.0</ele><time>2026-03-28T12:57:12.081Z</time></trkpt><trkpt lat="44.289029" lon="11.0052706"><ele>740.0</ele><time>2026-03-28T12:57:13.069Z</time></trkpt><trkpt lat="44.289197" lon="11.0053195"><ele>740.0</ele><time>2026-03-28T12:57:14.05Z</time></trkpt><trkpt lat="44.2893613" lon="11.0053924"><ele>740.0</ele><time>2026-03-28T12:57:15.048Z</time></trkpt><trkpt lat="44.2895208" lon="11.0054743"><ele>740.0</ele><time>2026-03-28T12:57:16.062Z</time></trkpt><trkpt lat="44.2896725" lon="11.0055669"><ele>740.0</ele><time>2026-03-28T12:57:17.056Z</time></trkpt><trkpt lat="44.2898073" lon="11.0056725"><ele>740.0</ele><time>2026-03-28T12:57:18.092Z</time></trkpt><trkpt lat="44.2899397" lon="11.0057919"><ele>744.3333333333333</ele><time>2026-03-28T12:57:19.07Z</time></trkpt><trkpt lat="44.290072" lon="11.0059212"><ele>748.6666666666666</ele><time>2026-03-28T12:57:20.058Z</time></trkpt><trkpt lat="44.2902104" lon="11.0060459"><ele>753.0</ele><time>2026-03-28T12:57:21.071Z</time></trkpt><trkpt lat="44.2903227" lon="11.0061715"><ele>753.0</ele><time>2026-03-28T12:57:22.064Z</time></trkpt><trkpt lat="44.2904099" lon="11.0063075"><ele>753.0</ele><time>2026-03-28T12:57:23.067Z</time></trkpt><trkpt lat="44.2904926" lon="11.0064713"><ele>753.0</ele><time>2026-03-28T12:57:24.077Z</time></trkpt><trkpt lat="44.2905723" lon="11.0066532"><ele>753.0</ele><time>2026-03-28T12:57:25.07Z</time></trkpt><trkpt lat="44.2906538" lon="11.0068614"><ele>753.6666666666666</ele><time>2026-03-28T12:57:26.073Z</time></trkpt><trkpt lat="44.290729" lon="11.0070827"><ele>754.3333333333333</ele><time>2026-03-28T12:57:27.066Z</time></trkpt><trkpt lat="44.290804" lon="11.0073053"><ele>755.0</ele><time>2026-03-28T12:57:28.085Z</time></trkpt><trkpt lat="44.290879" lon="11.0075155"><ele>756.6666666666666</ele><time>2026-03-28T12:57:29.057Z</time></trkpt><trkpt lat="44.290969" lon="11.0077339"><ele>758.3333333333334</ele><time>2026-03-28T12:57:30.093Z</time></trkpt><trkpt lat="44.2910701" lon="11.0079374"><ele>760.0</ele><time>2026-03-28T12:57:31.068Z</time></trkpt><trkpt lat="44.2911903" lon="11.0081512"><ele>758.3333333333334</ele><time>2026-03-28T12:57:32.086Z</time></trkpt><trkpt lat="44.2913175" lon="11.0083809"><ele>756.6666666666666</ele><time>2026-03-28T12:57:33.111Z</time></trkpt><trkpt lat="44.2914296" lon="11.008585"><ele>755.0</ele><time>2026-03-28T12:57:34.075Z</time></trkpt><trkpt lat="44.2915407" lon="11.0087847"><ele>755.0</ele><time>2026-03-28T12:57:35.06Z</time></trkpt><trkpt lat="44.2916455" lon="11.0089795"><ele>755.0</ele><time>2026-03-28T12:57:36.085Z</time></trkpt><trkpt lat="44.2917386" lon="11.0091522"><ele>755.0</ele><time>2026-03-28T12:57:37.075Z</time></trkpt><trkpt lat="44.2918279" lon="11.0093058"><ele>757.0</ele><time>2026-03-28T12:57:38.087Z</time></trkpt><trkpt lat="44.2919015" lon="11.0094371"><ele>759.0</ele><time>2026-03-28T12:57:39.069Z</time></trkpt><trkpt lat="44.2919596" lon="11.00957"><ele>761.0</ele><time>2026-03-28T12:57:40.074Z</time></trkpt><trkpt lat="44.2920058" lon="11.0097343"><ele>763.0</ele><time>2026-03-28T12:57:41.053Z</time></trkpt><trkpt lat="44.2920129" lon="11.0098992"><ele>765.5</ele><time>2026-03-28T12:57:42.075Z</time></trkpt><trkpt lat="44.2920016" lon="11.0100715"><ele>768.0</ele><time>2026-03-28T12:57:43.063Z</time></trkpt><trkpt lat="44.292006" lon="11.0102743"><ele>770.5</ele><time>2026-03-28T12:57:44.066Z</time></trkpt><trkpt lat="44.2920397" lon="11.010478"><ele>773.0</ele><time>2026-03-28T12:57:45.07Z</time></trkpt><trkpt lat="44.2920929" lon="11.0106857"><ele>775.25</ele><time>2026-03-28T12:57:46.073Z</time></trkpt><trkpt lat="44.2921518" lon="11.010874"><ele>777.5</ele><time>2026-03-28T12:57:47.074Z</time></trkpt><trkpt lat="44.2922091" lon="11.0110375"><ele>779.75</ele><time>2026-03-28T12:57:48.076Z</time></trkpt><trkpt lat="44.2922882" lon="11.011163"><ele>782.0</ele><time>2026-03-28T12:57:49.067Z</time></trkpt><trkpt lat="44.2923952" lon="11.0112542"><ele>779.6</ele><time>2026-03-28T12:57:50.076Z</time></trkpt><trkpt lat="44.2925123" lon="11.0113078"><ele>777.2</ele><time>2026-03-28T12:57:51.071Z</time></trkpt><trkpt lat="44.29261" lon="11.0113549"><ele>774.8</ele><time>2026-03-28T12:57:52.055Z</time></trkpt><trkpt lat="44.2926747" lon="11.0114351"><ele>772.4</ele><time>2026-03-28T12:57:53.057Z</time></trkpt><trkpt lat="44.2927241" lon="11.011578"><ele>770.0</ele><time>2026-03-28T12:57:54.064Z</time></trkpt><trkpt lat="44.2927512" lon="11.011734"><ele>770.0</ele><time>2026-03-28T12:57:55.063Z</time></trkpt><trkpt lat="44.2927715" lon="11.0119168"><ele>770.0</ele><time>2026-03-28T12:57:56.073Z</time></trkpt><trkpt lat="44.2927926" lon="11.012129"><ele>770.0</ele><time>2026-03-28T12:57:57.064Z</time></trkpt><trkpt lat="44.292799" lon="11.0123697"><ele>770.0</ele><time>2026-03-28T12:57:58.059Z</time></trkpt><trkpt lat="44.2927864" lon="11.0126168"><ele>770.0</ele><time>2026-03-28T12:57:59.071Z</time></trkpt><trkpt lat="44.2927483" lon="11.0128324"><ele>770.0</ele><time>2026-03-28T12:58:00.065Z</time></trkpt><trkpt lat="44.2926916" lon="11.0130776"><ele>771.5</ele><time>2026-03-28T12:58:01.066Z</time></trkpt><trkpt lat="44.2926263" lon="11.0133377"><ele>773.0</ele><time>2026-03-28T12:58:02.082Z</time></trkpt><trkpt lat="44.2924566" lon="11.013814"><ele>773.0</ele><time>2026-03-28T12:58:03.075Z</time></trkpt><trkpt lat="44.2923838" lon="11.014084"><ele>773.0</ele><time>2026-03-28T12:58:04.07Z</time></trkpt><trkpt lat="44.2923423" lon="11.0143167"><ele>773.0</ele><time>2026-03-28T12:58:05.08Z</time></trkpt><trkpt lat="44.2923224" lon="11.0145005"><ele>775.0</ele><time>2026-03-28T12:58:06.076Z</time></trkpt><trkpt lat="44.2923169" lon="11.0146443"><ele>777.0</ele><time>2026-03-28T12:58:07.058Z</time></trkpt><trkpt lat="44.2923799" lon="11.014813"><ele>779.0</ele><time>2026-03-28T12:58:09.057Z</time></trkpt><trkpt lat="44.2924642" lon="11.0148914"><ele>781.0</ele><time>2026-03-28T12:58:10.066Z</time></trkpt><trkpt lat="44.2925833" lon="11.014973"><ele>780.6666666666666</ele><time>2026-03-28T12:58:11.097Z</time></trkpt><trkpt lat="44.2927053" lon="11.0150468"><ele>780.3333333333333</ele><time>2026-03-28T12:58:12.053Z</time></trkpt><trkpt lat="44.2928529" lon="11.0151098"><ele>780.0</ele><time>2026-03-28T12:58:13.073Z</time></trkpt><trkpt lat="44.2930111" lon="11.0151609"><ele>781.75</ele><time>2026-03-28T12:58:14.07Z</time></trkpt><trkpt lat="44.293158" lon="11.0152011"><ele>783.5</ele><time>2026-03-28T12:58:15.056Z</time></trkpt><trkpt lat="44.2932938" lon="11.0152413"><ele>785.25</ele><time>2026-03-28T12:58:16.065Z</time></trkpt><trkpt lat="44.2934147" lon="11.0152827"><ele>787.0</ele><time>2026-03-28T12:58:17.054Z</time></trkpt><trkpt lat="44.2935249" lon="11.0153525"><ele>787.0</ele><time>2026-03-28T12:58:18.073Z</time></trkpt><trkpt lat="44.2936404" lon="11.0154618"><ele>787.0</ele><time>2026-03-28T12:58:19.072Z</time></trkpt><trkpt lat="44.2937549" lon="11.0156078"><ele>787.0</ele><time>2026-03-28T12:58:20.074Z</time></trkpt><trkpt lat="44.2938634" lon="11.0157769"><ele>790.3333333333333</ele><time>2026-03-28T12:58:21.096Z</time></trkpt><trkpt lat="44.2939813" lon="11.0159564"><ele>793.6666666666667</ele><time>2026-03-28T12:58:22.068Z</time></trkpt><trkpt lat="44.2941195" lon="11.0161308"><ele>797.0</ele><time>2026-03-28T12:58:23.088Z</time></trkpt><trkpt lat="44.2942608" lon="11.0162828"><ele>797.0</ele><time>2026-03-28T12:58:24.068Z</time></trkpt><trkpt lat="44.2943994" lon="11.0164335"><ele>797.0</ele><time>2026-03-28T12:58:25.065Z</time></trkpt><trkpt lat="44.2945217" lon="11.016599"><ele>797.0</ele><time>2026-03-28T12:58:26.06Z</time></trkpt><trkpt lat="44.2946298" lon="11.016772"><ele>794.5</ele><time>2026-03-28T12:58:27.07Z</time></trkpt><trkpt lat="44.2947323" lon="11.0169436"><ele>792.0</ele><time>2026-03-28T12:58:28.065Z</time></trkpt><trkpt lat="44.2948357" lon="11.01709"><ele>789.5</ele><time>2026-03-28T12:58:29.063Z</time></trkpt><trkpt lat="44.2949479" lon="11.0172039"><ele>787.0</ele><time>2026-03-28T12:58:30.084Z</time></trkpt><trkpt lat="44.2950606" lon="11.0172599"><ele>787.0</ele><time>2026-03-28T12:58:31.061Z</time></trkpt><trkpt lat="44.2951854" lon="11.0172638"><ele>787.0</ele><time>2026-03-28T12:58:32.074Z</time></trkpt><trkpt lat="44.2952702" lon="11.0171948"><ele>787.0</ele><time>2026-03-28T12:58:33.077Z</time></trkpt><trkpt lat="44.2953679" lon="11.0170588"><ele>787.0</ele><time>2026-03-28T12:58:34.07Z</time></trkpt><trkpt lat="44.2954472" lon="11.0168651"><ele>789.6666666666666</ele><time>2026-03-28T12:58:35.063Z</time></trkpt><trkpt lat="44.2955192" lon="11.0166337"><ele>792.3333333333333</ele><time>2026-03-28T12:58:36.075Z</time></trkpt><trkpt lat="44.2956004" lon="11.0164099"><ele>795.0</ele><time>2026-03-28T12:58:37.081Z</time></trkpt><trkpt lat="44.2956811" lon="11.0161895"><ele>795.0</ele><time>2026-03-28T12:58:38.067Z</time></trkpt><trkpt lat="44.2957776" lon="11.0159447"><ele>795.0</ele><time>2026-03-28T12:58:39.066Z</time></trkpt><trkpt lat="44.2958718" lon="11.0157165"><ele>795.0</ele><time>2026-03-28T12:58:40.083Z</time></trkpt><trkpt lat="44.2959671" lon="11.0155083"><ele>801.3333333333333</ele><time>2026-03-28T12:58:41.068Z</time></trkpt><trkpt lat="44.2960668" lon="11.0153043"><ele>807.6666666666666</ele><time>2026-03-28T12:58:42.077Z</time></trkpt><trkpt lat="44.2961673" lon="11.0151135"><ele>814.0</ele><time>2026-03-28T12:58:43.06Z</time></trkpt><trkpt lat="44.2962689" lon="11.0149154"><ele>810.75</ele><time>2026-03-28T12:58:44.087Z</time></trkpt><trkpt lat="44.2963584" lon="11.0147496"><ele>807.5</ele><time>2026-03-28T12:58:45.064Z</time></trkpt><trkpt lat="44.2964568" lon="11.0146117"><ele>804.25</ele><time>2026-03-28T12:58:46.084Z</time></trkpt><trkpt lat="44.2965592" lon="11.0145193"><ele>801.0</ele><time>2026-03-28T12:58:47.075Z</time></trkpt><trkpt lat="44.2966726" lon="11.0144136"><ele>801.0</ele><time>2026-03-28T12:58:48.07Z</time></trkpt><trkpt lat="44.2967957" lon="11.0143046"><ele>801.0</ele><time>2026-03-28T12:58:49.08Z</time></trkpt><trkpt lat="44.2969086" lon="11.0141782"><ele>801.0</ele><time>2026-03-28T12:58:50.067Z</time></trkpt><trkpt lat="44.296996" lon="11.0140212"><ele>801.0</ele><time>2026-03-28T12:58:51.069Z</time></trkpt><trkpt lat="44.2970583" lon="11.013829"><ele>803.5</ele><time>2026-03-28T12:58:52.067Z</time></trkpt><trkpt lat="44.2970696" lon="11.0136434"><ele>806.0</ele><time>2026-03-28T12:58:53.065Z</time></trkpt><trkpt lat="44.2970612" lon="11.0134451"><ele>808.5</ele><time>2026-03-28T12:58:54.069Z</time></trkpt><trkpt lat="44.2970709" lon="11.0133071"><ele>811.0</ele><time>2026-03-28T12:58:55.088Z</time></trkpt><trkpt lat="44.297101" lon="11.0131888"><ele>812.0</ele><time>2026-03-28T12:58:56.081Z</time></trkpt><trkpt lat="44.2971388" lon="11.0131097"><ele>813.0</ele><time>2026-03-28T12:58:57.058Z</time></trkpt><trkpt lat="44.2972677" lon="11.0130209"><ele>814.0</ele><time>2026-03-28T12:58:58.075Z</time></trkpt><trkpt lat="44.2973438" lon="11.0130171"><ele>815.0</ele><time>2026-03-28T12:58:59.068Z</time></trkpt><trkpt lat="44.297521" lon="11.0131677"><ele>815.0</ele><time>2026-03-28T12:59:01.073Z</time></trkpt><trkpt lat="44.2976124" lon="11.0133067"><ele>815.0</ele><time>2026-03-28T12:59:02.06Z</time></trkpt><trkpt lat="44.2977225" lon="11.0134954"><ele>815.0</ele><time>2026-03-28T12:59:03.061Z</time></trkpt><trkpt lat="44.2978526" lon="11.0137122"><ele>816.0</ele><time>2026-03-28T12:59:04.085Z</time></trkpt><trkpt lat="44.2980046" lon="11.0139186"><ele>817.0</ele><time>2026-03-28T12:59:05.061Z</time></trkpt><trkpt lat="44.2981775" lon="11.0141206"><ele>818.0</ele><time>2026-03-28T12:59:06.075Z</time></trkpt><trkpt lat="44.2983578" lon="11.0142988"><ele>809.3333333333334</ele><time>2026-03-28T12:59:07.066Z</time></trkpt><trkpt lat="44.2985418" lon="11.0144672"><ele>800.6666666666667</ele><time>2026-03-28T12:59:08.07Z</time></trkpt><trkpt lat="44.2987149" lon="11.0146134"><ele>792.0</ele><time>2026-03-28T12:59:09.073Z</time></trkpt><trkpt lat="44.2988696" lon="11.0147273"><ele>791.25</ele><time>2026-03-28T12:59:10.079Z</time></trkpt><trkpt lat="44.298988" lon="11.0148141"><ele>790.5</ele><time>2026-03-28T12:59:11.068Z</time></trkpt><trkpt lat="44.2990719" lon="11.0149219"><ele>789.75</ele><time>2026-03-28T12:59:12.073Z</time></trkpt><trkpt lat="44.2991715" lon="11.0150031"><ele>789.0</ele><time>2026-03-28T12:59:13.054Z</time></trkpt><trkpt lat="44.2992925" lon="11.0150626"><ele>789.0</ele><time>2026-03-28T12:59:14.084Z</time></trkpt><trkpt lat="44.2994339" lon="11.015093"><ele>789.0</ele><time>2026-03-28T12:59:15.076Z</time></trkpt><trkpt lat="44.2995897" lon="11.0151128"><ele>789.0</ele><time>2026-03-28T12:59:16.072Z</time></trkpt><trkpt lat="44.2997366" lon="11.0151051"><ele>789.0</ele><time>2026-03-28T12:59:17.07Z</time></trkpt><trkpt lat="44.2998564" lon="11.0149522"><ele>799.0</ele><time>2026-03-28T12:59:18.068Z</time></trkpt><trkpt lat="44.2999738" lon="11.0149147"><ele>809.0</ele><time>2026-03-28T12:59:19.066Z</time></trkpt><trkpt lat="44.3000839" lon="11.0149024"><ele>819.0</ele><time>2026-03-28T12:59:20.07Z</time></trkpt><trkpt lat="44.3001755" lon="11.0148982"><ele>829.0</ele><time>2026-03-28T12:59:21.059Z</time></trkpt><trkpt lat="44.3002581" lon="11.0149046"><ele>839.0</ele><time>2026-03-28T12:59:22.067Z</time></trkpt><trkpt lat="44.3003189" lon="11.0149307"><ele>831.0</ele><time>2026-03-28T12:59:23.079Z</time></trkpt><trkpt lat="44.3003553" lon="11.0150299"><ele>823.0</ele><time>2026-03-28T12:59:25.08Z</time></trkpt><trkpt lat="44.3003001" lon="11.0151329"><ele>815.0</ele><time>2026-03-28T12:59:27.085Z</time></trkpt><trkpt lat="44.3002289" lon="11.0151988"><ele>807.0</ele><time>2026-03-28T12:59:28.068Z</time></trkpt><trkpt lat="44.3001214" lon="11.0152801"><ele>799.0</ele><time>2026-03-28T12:59:29.075Z</time></trkpt><trkpt lat="44.3000102" lon="11.0153664"><ele>799.0</ele><time>2026-03-28T12:59:30.079Z</time></trkpt><trkpt lat="44.2998944" lon="11.0154517"><ele>799.0</ele><time>2026-03-28T12:59:31.058Z</time></trkpt><trkpt lat="44.2997748" lon="11.0155489"><ele>799.0</ele><time>2026-03-28T12:59:32.081Z</time></trkpt><trkpt lat="44.2996689" lon="11.0156406"><ele>799.0</ele><time>2026-03-28T12:59:33.073Z</time></trkpt><trkpt lat="44.2996116" lon="11.0157273"><ele>796.6</ele><time>2026-03-28T12:59:34.08Z</time></trkpt><trkpt lat="44.299554" lon="11.015849"><ele>794.2</ele><time>2026-03-28T12:59:35.071Z</time></trkpt><trkpt lat="44.2995257" lon="11.0159907"><ele>791.8000000000001</ele><time>2026-03-28T12:59:36.07Z</time></trkpt><trkpt lat="44.2995221" lon="11.0161365"><ele>789.4000000000001</ele><time>2026-03-28T12:59:37.073Z</time></trkpt><trkpt lat="44.2995083" lon="11.0162601"><ele>787.0</ele><time>2026-03-28T12:59:38.072Z</time></trkpt><trkpt lat="44.2994744" lon="11.016339"><ele>787.0</ele><time>2026-03-28T12:59:39.079Z</time></trkpt><trkpt lat="44.2993501" lon="11.0164084"><ele>787.0</ele><time>2026-03-28T12:59:41.069Z</time></trkpt><trkpt lat="44.2992714" lon="11.0164202"><ele>787.0</ele><time>2026-03-28T12:59:42.078Z</time></trkpt><trkpt lat="44.299183" lon="11.0163953"><ele>787.0</ele><time>2026-03-28T12:59:43.062Z</time></trkpt><trkpt lat="44.2991052" lon="11.0163264"><ele>787.0</ele><time>2026-03-28T12:59:44.078Z</time></trkpt><trkpt lat="44.2989985" lon="11.0162014"><ele>783.5</ele><time>2026-03-28T12:59:45.389Z</time></trkpt><trkpt lat="44.298778" lon="11.015972"><ele>780.0</ele><time>2026-03-28T12:59:47.123Z</time></trkpt><trkpt lat="44.2986433" lon="11.015798"><ele>780.0</ele><time>2026-03-28T12:59:48.109Z</time></trkpt><trkpt lat="44.298512" lon="11.0156545"><ele>780.0</ele><time>2026-03-28T12:59:49.105Z</time></trkpt><trkpt lat="44.2983692" lon="11.015538"><ele>780.0</ele><time>2026-03-28T12:59:50.132Z</time></trkpt><trkpt lat="44.2982363" lon="11.0154456"><ele>780.0</ele><time>2026-03-28T12:59:51.111Z</time></trkpt><trkpt lat="44.2980908" lon="11.0153765"><ele>780.0</ele><time>2026-03-28T12:59:52.118Z</time></trkpt><trkpt lat="44.2979384" lon="11.0153296"><ele>780.0</ele><time>2026-03-28T12:59:53.142Z</time></trkpt><trkpt lat="44.297809" lon="11.0153134"><ele>780.0</ele><time>2026-03-28T12:59:54.117Z</time></trkpt><trkpt lat="44.2976912" lon="11.0153322"><ele>777.5</ele><time>2026-03-28T12:59:55.121Z</time></trkpt><trkpt lat="44.2975958" lon="11.0153809"><ele>775.0</ele><time>2026-03-28T12:59:56.06Z</time></trkpt><trkpt lat="44.2975082" lon="11.0154818"><ele>772.5</ele><time>2026-03-28T12:59:57.057Z</time></trkpt><trkpt lat="44.297433" lon="11.0156269"><ele>770.0</ele><time>2026-03-28T12:59:58.072Z</time></trkpt><trkpt lat="44.29737" lon="11.0157968"><ele>774.3333333333334</ele><time>2026-03-28T12:59:59.059Z</time></trkpt><trkpt lat="44.2973181" lon="11.015986"><ele>778.6666666666667</ele><time>2026-03-28T13:00:00.062Z</time></trkpt><trkpt lat="44.2972769" lon="11.0161974"><ele>783.0</ele><time>2026-03-28T13:00:01.067Z</time></trkpt><trkpt lat="44.2972677" lon="11.0164061"><ele>783.0</ele><time>2026-03-28T13:00:02.063Z</time></trkpt><trkpt lat="44.2972804" lon="11.0166101"><ele>783.0</ele><time>2026-03-28T13:00:03.059Z</time></trkpt><trkpt lat="44.2973158" lon="11.0168055"><ele>783.0</ele><time>2026-03-28T13:00:04.065Z</time></trkpt><trkpt lat="44.297362" lon="11.0169944"><ele>783.0</ele><time>2026-03-28T13:00:05.081Z</time></trkpt><trkpt lat="44.2974205" lon="11.0172174"><ele>783.6666666666667</ele><time>2026-03-28T13:00:06.399Z</time></trkpt><trkpt lat="44.2974776" lon="11.0175548"><ele>784.3333333333334</ele><time>2026-03-28T13:00:08.119Z</time></trkpt><trkpt lat="44.2974777" lon="11.0177277"><ele>785.0</ele><time>2026-03-28T13:00:09.114Z</time></trkpt><trkpt lat="44.2974546" lon="11.0178926"><ele>785.0</ele><time>2026-03-28T13:00:10.112Z</time></trkpt><trkpt lat="44.2974052" lon="11.018061"><ele>785.0</ele><time>2026-03-28T13:00:11.126Z</time></trkpt><trkpt lat="44.2973511" lon="11.0182384"><ele>785.0</ele><time>2026-03-28T13:00:12.124Z</time></trkpt><trkpt lat="44.2973086" lon="11.018449"><ele>785.0</ele><time>2026-03-28T13:00:13.125Z</time></trkpt><trkpt lat="44.2972816" lon="11.0186925"><ele>786.3333333333334</ele><time>2026-03-28T13:00:14.128Z</time></trkpt><trkpt lat="44.297262" lon="11.0189319"><ele>787.6666666666667</ele><time>2026-03-28T13:00:15.075Z</time></trkpt><trkpt lat="44.2972456" lon="11.0191579"><ele>789.0</ele><time>2026-03-28T13:00:16.061Z</time></trkpt><trkpt lat="44.2972117" lon="11.0193543"><ele>780.5</ele><time>2026-03-28T13:00:17.06Z</time></trkpt><trkpt lat="44.2971522" lon="11.0195171"><ele>772.0</ele><time>2026-03-28T13:00:18.071Z</time></trkpt><trkpt lat="44.2971032" lon="11.0196714"><ele>763.5</ele><time>2026-03-28T13:00:19.083Z</time></trkpt><trkpt lat="44.2970754" lon="11.0198257"><ele>755.0</ele><time>2026-03-28T13:00:20.067Z</time></trkpt><trkpt lat="44.2970724" lon="11.0199648"><ele>756.4</ele><time>2026-03-28T13:00:21.072Z</time></trkpt><trkpt lat="44.2970859" lon="11.0201091"><ele>757.8</ele><time>2026-03-28T13:00:22.067Z</time></trkpt><trkpt lat="44.2971039" lon="11.0202338"><ele>759.2</ele><time>2026-03-28T13:00:23.066Z</time></trkpt><trkpt lat="44.2971012" lon="11.0203227"><ele>760.6</ele><time>2026-03-28T13:00:24.073Z</time></trkpt><trkpt lat="44.2970067" lon="11.0204174"><ele>762.0</ele><time>2026-03-28T13:00:26.072Z</time></trkpt><trkpt lat="44.2968993" lon="11.0204486"><ele>762.0</ele><time>2026-03-28T13:00:27.071Z</time></trkpt><trkpt lat="44.2967511" lon="11.0204862"><ele>762.0</ele><time>2026-03-28T13:00:28.402Z</time></trkpt><trkpt lat="44.2966033" lon="11.0205773"><ele>762.0</ele><time>2026-03-28T13:00:30.129Z</time></trkpt><trkpt lat="44.2965184" lon="11.020708"><ele>762.0</ele><time>2026-03-28T13:00:31.132Z</time></trkpt><trkpt lat="44.296467" lon="11.020877"><ele>757.0</ele><time>2026-03-28T13:00:32.122Z</time></trkpt><trkpt lat="44.2964126" lon="11.021055"><ele>752.0</ele><time>2026-03-28T13:00:33.141Z</time></trkpt><trkpt lat="44.2963183" lon="11.0212271"><ele>747.0</ele><time>2026-03-28T13:00:34.126Z</time></trkpt><trkpt lat="44.2961931" lon="11.0214"><ele>747.0</ele><time>2026-03-28T13:00:35.122Z</time></trkpt><trkpt lat="44.2960735" lon="11.0215643"><ele>747.0</ele><time>2026-03-28T13:00:36.127Z</time></trkpt><trkpt lat="44.2959773" lon="11.0217207"><ele>747.0</ele><time>2026-03-28T13:00:37.136Z</time></trkpt><trkpt lat="44.2959045" lon="11.021872"><ele>747.0</ele><time>2026-03-28T13:00:38.119Z</time></trkpt><trkpt lat="44.295858" lon="11.0220332"><ele>750.5</ele><time>2026-03-28T13:00:39.131Z</time></trkpt><trkpt lat="44.2958361" lon="11.0222056"><ele>754.0</ele><time>2026-03-28T13:00:40.137Z</time></trkpt><trkpt lat="44.2958376" lon="11.0223877"><ele>757.5</ele><time>2026-03-28T13:00:41.114Z</time></trkpt><trkpt lat="44.2958496" lon="11.0225851"><ele>761.0</ele><time>2026-03-28T13:00:42.133Z</time></trkpt><trkpt lat="44.295863" lon="11.0227852"><ele>763.0</ele><time>2026-03-28T13:00:43.132Z</time></trkpt><trkpt lat="44.2958789" lon="11.0229944"><ele>765.0</ele><time>2026-03-28T13:00:44.123Z</time></trkpt><trkpt lat="44.295903" lon="11.0232251"><ele>767.0</ele><time>2026-03-28T13:00:45.125Z</time></trkpt><trkpt lat="44.2959261" lon="11.023464"><ele>767.0</ele><time>2026-03-28T13:00:46.117Z</time></trkpt><trkpt lat="44.2959357" lon="11.0237054"><ele>767.0</ele><time>2026-03-28T13:00:47.129Z</time></trkpt><trkpt lat="44.295926" lon="11.0239315"><ele>767.0</ele><time>2026-03-28T13:00:48.115Z</time></trkpt><trkpt lat="44.2958971" lon="11.0241471"><ele>767.25</ele><time>2026-03-28T13:00:49.126Z</time></trkpt><trkpt lat="44.2958488" lon="11.0243387"><ele>767.5</ele><time>2026-03-28T13:00:50.134Z</time></trkpt><trkpt lat="44.2957881" lon="11.0244996"><ele>767.75</ele><time>2026-03-28T13:00:51.132Z</time></trkpt><trkpt lat="44.2957364" lon="11.0246409"><ele>768.0</ele><time>2026-03-28T13:00:52.132Z</time></trkpt><trkpt lat="44.2957158" lon="11.0247733"><ele>768.0</ele><time>2026-03-28T13:00:53.106Z</time></trkpt><trkpt lat="44.2957302" lon="11.0249138"><ele>768.0</ele><time>2026-03-28T13:00:54.125Z</time></trkpt><trkpt lat="44.2957815" lon="11.0250536"><ele>768.0</ele><time>2026-03-28T13:00:55.122Z</time></trkpt><trkpt lat="44.2958713" lon="11.0251926"><ele>768.0</ele><time>2026-03-28T13:00:56.113Z</time></trkpt><trkpt lat="44.2959856" lon="11.0253503"><ele>766.6666666666666</ele><time>2026-03-28T13:00:57.143Z</time></trkpt><trkpt lat="44.296103" lon="11.0255081"><ele>765.3333333333333</ele><time>2026-03-28T13:00:58.122Z</time></trkpt><trkpt lat="44.2962311" lon="11.0256613"><ele>764.0</ele><time>2026-03-28T13:00:59.126Z</time></trkpt><trkpt lat="44.2963597" lon="11.0258011"><ele>766.25</ele><time>2026-03-28T13:01:00.125Z</time></trkpt><trkpt lat="44.2964884" lon="11.0259268"><ele>768.5</ele><time>2026-03-28T13:01:01.143Z</time></trkpt><trkpt lat="44.2966042" lon="11.0260296"><ele>770.75</ele><time>2026-03-28T13:01:02.139Z</time></trkpt><trkpt lat="44.2966965" lon="11.0261271"><ele>773.0</ele><time>2026-03-28T13:01:03.119Z</time></trkpt><trkpt lat="44.2967619" lon="11.0262482"><ele>773.0</ele><time>2026-03-28T13:01:04.134Z</time></trkpt><trkpt lat="44.2967886" lon="11.0263941"><ele>773.0</ele><time>2026-03-28T13:01:05.118Z</time></trkpt><trkpt lat="44.2967877" lon="11.0265592"><ele>773.0</ele><time>2026-03-28T13:01:06.116Z</time></trkpt><trkpt lat="44.2967858" lon="11.0267183"><ele>773.0</ele><time>2026-03-28T13:01:07.066Z</time></trkpt><trkpt lat="44.2968001" lon="11.0268717"><ele>767.4</ele><time>2026-03-28T13:01:08.076Z</time></trkpt><trkpt lat="44.296853" lon="11.0270028"><ele>761.8</ele><time>2026-03-28T13:01:09.07Z</time></trkpt><trkpt lat="44.2969428" lon="11.0271223"><ele>756.2</ele><time>2026-03-28T13:01:10.071Z</time></trkpt><trkpt lat="44.2970642" lon="11.0271973"><ele>750.6</ele><time>2026-03-28T13:01:11.073Z</time></trkpt><trkpt lat="44.2971332" lon="11.0272664"><ele>745.0</ele><time>2026-03-28T13:01:12.072Z</time></trkpt><trkpt lat="44.297149" lon="11.0273719"><ele>741.0</ele><time>2026-03-28T13:01:13.075Z</time></trkpt><trkpt lat="44.2971311" lon="11.0275448"><ele>737.0</ele><time>2026-03-28T13:01:14.07Z</time></trkpt><trkpt lat="44.2971406" lon="11.0277286"><ele>733.0</ele><time>2026-03-28T13:01:15.063Z</time></trkpt><trkpt lat="44.297187" lon="11.0279355"><ele>729.0</ele><time>2026-03-28T13:01:16.061Z</time></trkpt><trkpt lat="44.297266" lon="11.0281269"><ele>733.0</ele><time>2026-03-28T13:01:17.065Z</time></trkpt><trkpt lat="44.2973484" lon="11.0282851"><ele>737.0</ele><time>2026-03-28T13:01:18.083Z</time></trkpt><trkpt lat="44.2974298" lon="11.0283962"><ele>741.0</ele><time>2026-03-28T13:01:19.059Z</time></trkpt><trkpt lat="44.2975189" lon="11.0284739"><ele>745.0</ele><time>2026-03-28T13:01:20.065Z</time></trkpt><trkpt lat="44.297616" lon="11.0285117"><ele>745.0</ele><time>2026-03-28T13:01:21.091Z</time></trkpt><trkpt lat="44.2977004" lon="11.0285281"><ele>745.0</ele><time>2026-03-28T13:01:22.075Z</time></trkpt><trkpt lat="44.2977667" lon="11.0285509"><ele>745.0</ele><time>2026-03-28T13:01:23.069Z</time></trkpt><trkpt lat="44.2978397" lon="11.0286975"><ele>745.0</ele><time>2026-03-28T13:01:25.072Z</time></trkpt><trkpt lat="44.297839" lon="11.02882"><ele>745.0</ele><time>2026-03-28T13:01:26.073Z</time></trkpt><trkpt lat="44.2978342" lon="11.0289676"><ele>742.75</ele><time>2026-03-28T13:01:27.076Z</time></trkpt><trkpt lat="44.2978329" lon="11.0291437"><ele>740.5</ele><time>2026-03-28T13:01:28.086Z</time></trkpt><trkpt lat="44.2978353" lon="11.0293266"><ele>738.25</ele><time>2026-03-28T13:01:29.073Z</time></trkpt><trkpt lat="44.2978362" lon="11.0295119"><ele>736.0</ele><time>2026-03-28T13:01:30.085Z</time></trkpt><trkpt lat="44.2978167" lon="11.02969"><ele>736.0</ele><time>2026-03-28T13:01:31.073Z</time></trkpt><trkpt lat="44.2977729" lon="11.0298538"><ele>736.0</ele><time>2026-03-28T13:01:32.076Z</time></trkpt><trkpt lat="44.2976892" lon="11.0299818"><ele>736.0</ele><time>2026-03-28T13:01:33.08Z</time></trkpt><trkpt lat="44.2975878" lon="11.0301148"><ele>736.0</ele><time>2026-03-28T13:01:34.066Z</time></trkpt><trkpt lat="44.2974856" lon="11.0302512"><ele>737.25</ele><time>2026-03-28T13:01:35.063Z</time></trkpt><trkpt lat="44.297393" lon="11.0304172"><ele>738.5</ele><time>2026-03-28T13:01:36.063Z</time></trkpt><trkpt lat="44.2973221" lon="11.030598"><ele>739.75</ele><time>2026-03-28T13:01:37.073Z</time></trkpt><trkpt lat="44.2972608" lon="11.0307795"><ele>741.0</ele><time>2026-03-28T13:01:38.074Z</time></trkpt><trkpt lat="44.2972112" lon="11.0309548"><ele>741.0</ele><time>2026-03-28T13:01:39.062Z</time></trkpt><trkpt lat="44.297169" lon="11.031129"><ele>741.0</ele><time>2026-03-28T13:01:40.071Z</time></trkpt><trkpt lat="44.2971262" lon="11.0312919"><ele>741.0</ele><time>2026-03-28T13:01:41.088Z</time></trkpt><trkpt lat="44.2970643" lon="11.031412"><ele>741.0</ele><time>2026-03-28T13:01:42.067Z</time></trkpt><trkpt lat="44.2969877" lon="11.0315275"><ele>741.0</ele><time>2026-03-28T13:01:43.086Z</time></trkpt><trkpt lat="44.2969004" lon="11.0316254"><ele>741.0</ele><time>2026-03-28T13:01:44.07Z</time></trkpt><trkpt lat="44.2968089" lon="11.0317235"><ele>741.0</ele><time>2026-03-28T13:01:45.066Z</time></trkpt><trkpt lat="44.2967273" lon="11.0318319"><ele>741.0</ele><time>2026-03-28T13:01:46.072Z</time></trkpt><trkpt lat="44.2966731" lon="11.0319436"><ele>741.0</ele><time>2026-03-28T13:01:47.063Z</time></trkpt><trkpt lat="44.2966392" lon="11.0320781"><ele>744.25</ele><time>2026-03-28T13:01:48.062Z</time></trkpt><trkpt lat="44.2966312" lon="11.0322327"><ele>747.5</ele><time>2026-03-28T13:01:49.074Z</time></trkpt><trkpt lat="44.296648" lon="11.0324095"><ele>750.75</ele><time>2026-03-28T13:01:50.097Z</time></trkpt><trkpt lat="44.2966794" lon="11.0326011"><ele>754.0</ele><time>2026-03-28T13:01:51.059Z</time></trkpt><trkpt lat="44.2967195" lon="11.0328296"><ele>755.3333333333334</ele><time>2026-03-28T13:01:52.065Z</time></trkpt><trkpt lat="44.2967614" lon="11.0330921"><ele>756.6666666666666</ele><time>2026-03-28T13:01:53.084Z</time></trkpt><trkpt lat="44.2967997" lon="11.0333466"><ele>758.0</ele><time>2026-03-28T13:01:54.082Z</time></trkpt><trkpt lat="44.2968368" lon="11.0335786"><ele>760.75</ele><time>2026-03-28T13:01:55.076Z</time></trkpt><trkpt lat="44.2968707" lon="11.0337902"><ele>763.5</ele><time>2026-03-28T13:01:56.071Z</time></trkpt><trkpt lat="44.2969035" lon="11.0339965"><ele>766.25</ele><time>2026-03-28T13:01:57.081Z</time></trkpt><trkpt lat="44.2969384" lon="11.03419"><ele>769.0</ele><time>2026-03-28T13:01:58.057Z</time></trkpt><trkpt lat="44.29698" lon="11.0343937"><ele>770.3333333333333</ele><time>2026-03-28T13:01:59.084Z</time></trkpt><trkpt lat="44.2970284" lon="11.0345904"><ele>771.6666666666667</ele><time>2026-03-28T13:02:00.072Z</time></trkpt><trkpt lat="44.2970912" lon="11.0347869"><ele>773.0</ele><time>2026-03-28T13:02:01.059Z</time></trkpt><trkpt lat="44.2971655" lon="11.0349957"><ele>776.0</ele><time>2026-03-28T13:02:02.062Z</time></trkpt><trkpt lat="44.2972475" lon="11.0352283"><ele>779.0</ele><time>2026-03-28T13:02:03.086Z</time></trkpt><trkpt lat="44.2973394" lon="11.0354704"><ele>782.0</ele><time>2026-03-28T13:02:04.08Z</time></trkpt><trkpt lat="44.297436" lon="11.0357353"><ele>784.0</ele><time>2026-03-28T13:02:05.088Z</time></trkpt><trkpt lat="44.2975215" lon="11.0359776"><ele>786.0</ele><time>2026-03-28T13:02:06.059Z</time></trkpt><trkpt lat="44.2976035" lon="11.0362068"><ele>788.0</ele><time>2026-03-28T13:02:07.07Z</time></trkpt><trkpt lat="44.2976765" lon="11.0363927"><ele>788.0</ele><time>2026-03-28T13:02:08.074Z</time></trkpt><trkpt lat="44.2977394" lon="11.0365436"><ele>788.0</ele><time>2026-03-28T13:02:09.055Z</time></trkpt><trkpt lat="44.2978126" lon="11.0366733"><ele>788.0</ele><time>2026-03-28T13:02:10.083Z</time></trkpt><trkpt lat="44.2978973" lon="11.0367736"><ele>788.0</ele><time>2026-03-28T13:02:11.08Z</time></trkpt><trkpt lat="44.2979974" lon="11.0368346"><ele>790.25</ele><time>2026-03-28T13:02:12.066Z</time></trkpt><trkpt lat="44.2981314" lon="11.0368842"><ele>792.5</ele><time>2026-03-28T13:02:13.074Z</time></trkpt><trkpt lat="44.2982695" lon="11.0369239"><ele>794.75</ele><time>2026-03-28T13:02:14.067Z</time></trkpt><trkpt lat="44.2984126" lon="11.0369765"><ele>797.0</ele><time>2026-03-28T13:02:15.089Z</time></trkpt><trkpt lat="44.2985406" lon="11.037053"><ele>797.0</ele><time>2026-03-28T13:02:16.068Z</time></trkpt><trkpt lat="44.2986631" lon="11.0371639"><ele>797.0</ele><time>2026-03-28T13:02:17.064Z</time></trkpt><trkpt lat="44.2987808" lon="11.0373105"><ele>797.0</ele><time>2026-03-28T13:02:18.076Z</time></trkpt><trkpt lat="44.2988861" lon="11.0374501"><ele>797.0</ele><time>2026-03-28T13:02:19.065Z</time></trkpt><trkpt lat="44.2989807" lon="11.0375763"><ele>791.5</ele><time>2026-03-28T13:02:20.064Z</time></trkpt><trkpt lat="44.2990784" lon="11.0376686"><ele>786.0</ele><time>2026-03-28T13:02:21.079Z</time></trkpt><trkpt lat="44.2991807" lon="11.0377057"><ele>780.5</ele><time>2026-03-28T13:02:22.076Z</time></trkpt><trkpt lat="44.2992858" lon="11.037682"><ele>775.0</ele><time>2026-03-28T13:02:23.075Z</time></trkpt><trkpt lat="44.2993882" lon="11.0375887"><ele>782.5</ele><time>2026-03-28T13:02:24.046Z</time></trkpt><trkpt lat="44.2994759" lon="11.0374571"><ele>790.0</ele><time>2026-03-28T13:02:25.066Z</time></trkpt><trkpt lat="44.2995579" lon="11.0372939"><ele>797.5</ele><time>2026-03-28T13:02:26.072Z</time></trkpt><trkpt lat="44.2996238" lon="11.0370991"><ele>805.0</ele><time>2026-03-28T13:02:27.077Z</time></trkpt><trkpt lat="44.2996709" lon="11.0368818"><ele>805.0</ele><time>2026-03-28T13:02:28.086Z</time></trkpt><trkpt lat="44.2997189" lon="11.0366748"><ele>805.0</ele><time>2026-03-28T13:02:29.072Z</time></trkpt><trkpt lat="44.2997738" lon="11.0364865"><ele>805.0</ele><time>2026-03-28T13:02:30.068Z</time></trkpt><trkpt lat="44.2998425" lon="11.0363191"><ele>805.0</ele><time>2026-03-28T13:02:31.074Z</time></trkpt><trkpt lat="44.2999248" lon="11.0361834"><ele>804.75</ele><time>2026-03-28T13:02:32.079Z</time></trkpt><trkpt lat="44.3000261" lon="11.0360593"><ele>804.5</ele><time>2026-03-28T13:02:33.071Z</time></trkpt><trkpt lat="44.300135" lon="11.0359452"><ele>804.25</ele><time>2026-03-28T13:02:34.064Z</time></trkpt><trkpt lat="44.3002349" lon="11.0358291"><ele>804.0</ele><time>2026-03-28T13:02:35.06Z</time></trkpt><trkpt lat="44.3003244" lon="11.0356994"><ele>804.0</ele><time>2026-03-28T13:02:36.058Z</time></trkpt><trkpt lat="44.3004036" lon="11.0355392"><ele>804.0</ele><time>2026-03-28T13:02:37.09Z</time></trkpt><trkpt lat="44.3004749" lon="11.0353561"><ele>804.0</ele><time>2026-03-28T13:02:38.072Z</time></trkpt><trkpt lat="44.3005463" lon="11.0351537"><ele>795.25</ele><time>2026-03-28T13:02:39.068Z</time></trkpt><trkpt lat="44.3006163" lon="11.0349632"><ele>786.5</ele><time>2026-03-28T13:02:40.079Z</time></trkpt><trkpt lat="44.3006768" lon="11.0347988"><ele>777.75</ele><time>2026-03-28T13:02:41.07Z</time></trkpt><trkpt lat="44.3007427" lon="11.0346584"><ele>769.0</ele><time>2026-03-28T13:02:42.069Z</time></trkpt><trkpt lat="44.3008136" lon="11.0345656"><ele>769.0</ele><time>2026-03-28T13:02:43.079Z</time></trkpt><trkpt lat="44.3008996" lon="11.0345112"><ele>769.0</ele><time>2026-03-28T13:02:44.069Z</time></trkpt><trkpt lat="44.3010071" lon="11.0344822"><ele>769.0</ele><time>2026-03-28T13:02:45.064Z</time></trkpt><trkpt lat="44.301121" lon="11.0344923"><ele>769.0</ele><time>2026-03-28T13:02:46.073Z</time></trkpt><trkpt lat="44.3012585" lon="11.0345206"><ele>769.0</ele><time>2026-03-28T13:02:47.079Z</time></trkpt><trkpt lat="44.3014035" lon="11.0345634"><ele>769.0</ele><time>2026-03-28T13:02:48.064Z</time></trkpt><trkpt lat="44.3015743" lon="11.0346324"><ele>769.0</ele><time>2026-03-28T13:02:49.078Z</time></trkpt><trkpt lat="44.3017505" lon="11.0347235"><ele>769.6666666666666</ele><time>2026-03-28T13:02:50.078Z</time></trkpt><trkpt lat="44.3019222" lon="11.0348399"><ele>770.3333333333333</ele><time>2026-03-28T13:02:51.077Z</time></trkpt><trkpt lat="44.3020929" lon="11.0349564"><ele>771.0</ele><time>2026-03-28T13:02:52.081Z</time></trkpt><trkpt lat="44.3022588" lon="11.0350669"><ele>767.3333333333334</ele><time>2026-03-28T13:02:53.06Z</time></trkpt><trkpt lat="44.3024235" lon="11.035178"><ele>763.6666666666667</ele><time>2026-03-28T13:02:54.069Z</time></trkpt><trkpt lat="44.3025658" lon="11.0353052"><ele>760.0</ele><time>2026-03-28T13:02:55.061Z</time></trkpt><trkpt lat="44.30269" lon="11.0354604"><ele>760.0</ele><time>2026-03-28T13:02:56.076Z</time></trkpt><trkpt lat="44.3028014" lon="11.0356424"><ele>760.0</ele><time>2026-03-28T13:02:57.083Z</time></trkpt><trkpt lat="44.3029115" lon="11.035842"><ele>760.0</ele><time>2026-03-28T13:02:58.08Z</time></trkpt><trkpt lat="44.3030318" lon="11.0360367"><ele>760.3333333333334</ele><time>2026-03-28T13:02:59.067Z</time></trkpt><trkpt lat="44.3031549" lon="11.0362304"><ele>760.6666666666666</ele><time>2026-03-28T13:03:00.06Z</time></trkpt><trkpt lat="44.3032741" lon="11.0364204"><ele>761.0</ele><time>2026-03-28T13:03:01.068Z</time></trkpt><trkpt lat="44.3033788" lon="11.0365959"><ele>754.0</ele><time>2026-03-28T13:03:02.084Z</time></trkpt><trkpt lat="44.3034772" lon="11.0367497"><ele>747.0</ele><time>2026-03-28T13:03:03.074Z</time></trkpt><trkpt lat="44.3035854" lon="11.0368797"><ele>740.0</ele><time>2026-03-28T13:03:04.078Z</time></trkpt><trkpt lat="44.3037087" lon="11.0369827"><ele>733.0</ele><time>2026-03-28T13:03:05.078Z</time></trkpt><trkpt lat="44.3038371" lon="11.0370557"><ele>731.5999999999999</ele><time>2026-03-28T13:03:06.076Z</time></trkpt><trkpt lat="44.3039484" lon="11.03712"><ele>730.1999999999999</ele><time>2026-03-28T13:03:07.083Z</time></trkpt><trkpt lat="44.3040349" lon="11.0371925"><ele>728.8</ele><time>2026-03-28T13:03:08.077Z</time></trkpt><trkpt lat="44.3041004" lon="11.0372843"><ele>727.4</ele><time>2026-03-28T13:03:09.076Z</time></trkpt><trkpt lat="44.3041514" lon="11.0374137"><ele>726.0</ele><time>2026-03-28T13:03:10.093Z</time></trkpt><trkpt lat="44.3041728" lon="11.0375731"><ele>726.0</ele><time>2026-03-28T13:03:11.065Z</time></trkpt><trkpt lat="44.3041765" lon="11.0377739"><ele>726.0</ele><time>2026-03-28T13:03:12.087Z</time></trkpt><trkpt lat="44.3041689" lon="11.0379827"><ele>726.0</ele><time>2026-03-28T13:03:13.062Z</time></trkpt><trkpt lat="44.3041574" lon="11.0382121"><ele>724.6666666666666</ele><time>2026-03-28T13:03:14.064Z</time></trkpt><trkpt lat="44.3041442" lon="11.038435"><ele>723.3333333333333</ele><time>2026-03-28T13:03:15.068Z</time></trkpt><trkpt lat="44.304114" lon="11.0386261"><ele>722.0</ele><time>2026-03-28T13:03:16.065Z</time></trkpt><trkpt lat="44.3040651" lon="11.0388304"><ele>722.0</ele><time>2026-03-28T13:03:17.08Z</time></trkpt><trkpt lat="44.303998" lon="11.0390236"><ele>722.0</ele><time>2026-03-28T13:03:18.075Z</time></trkpt><trkpt lat="44.3039313" lon="11.0392097"><ele>722.0</ele><time>2026-03-28T13:03:19.093Z</time></trkpt><trkpt lat="44.3038781" lon="11.0393733"><ele>722.0</ele><time>2026-03-28T13:03:20.081Z</time></trkpt><trkpt lat="44.3038468" lon="11.0395464"><ele>722.25</ele><time>2026-03-28T13:03:21.079Z</time></trkpt><trkpt lat="44.3038551" lon="11.0396966"><ele>722.5</ele><time>2026-03-28T13:03:22.075Z</time></trkpt><trkpt lat="44.3038934" lon="11.0398735"><ele>722.75</ele><time>2026-03-28T13:03:23.061Z</time></trkpt><trkpt lat="44.3039435" lon="11.0400563"><ele>723.0</ele><time>2026-03-28T13:03:24.072Z</time></trkpt><trkpt lat="44.303974" lon="11.0402241"><ele>723.0</ele><time>2026-03-28T13:03:25.067Z</time></trkpt><trkpt lat="44.3039743" lon="11.0403847"><ele>723.0</ele><time>2026-03-28T13:03:26.078Z</time></trkpt><trkpt lat="44.3039401" lon="11.0405222"><ele>723.0</ele><time>2026-03-28T13:03:27.066Z</time></trkpt><trkpt lat="44.3038866" lon="11.0406792"><ele>723.0</ele><time>2026-03-28T13:03:28.082Z</time></trkpt><trkpt lat="44.3038509" lon="11.0408407"><ele>721.0</ele><time>2026-03-28T13:03:29.074Z</time></trkpt><trkpt lat="44.303847" lon="11.0410002"><ele>719.0</ele><time>2026-03-28T13:03:30.074Z</time></trkpt><trkpt lat="44.303886" lon="11.041147"><ele>717.0</ele><time>2026-03-28T13:03:31.062Z</time></trkpt><trkpt lat="44.3039647" lon="11.0412807"><ele>715.0</ele><time>2026-03-28T13:03:32.069Z</time></trkpt><trkpt lat="44.3040828" lon="11.0414173"><ele>715.0</ele><time>2026-03-28T13:03:33.081Z</time></trkpt><trkpt lat="44.3042216" lon="11.041551"><ele>715.0</ele><time>2026-03-28T13:03:34.084Z</time></trkpt><trkpt lat="44.3043517" lon="11.0416923"><ele>715.0</ele><time>2026-03-28T13:03:35.087Z</time></trkpt><trkpt lat="44.3044602" lon="11.0418369"><ele>708.75</ele><time>2026-03-28T13:03:36.074Z</time></trkpt><trkpt lat="44.3045485" lon="11.0419812"><ele>702.5</ele><time>2026-03-28T13:03:37.081Z</time></trkpt><trkpt lat="44.3045985" lon="11.0421234"><ele>696.25</ele><time>2026-03-28T13:03:38.093Z</time></trkpt><trkpt lat="44.3046111" lon="11.0422795"><ele>690.0</ele><time>2026-03-28T13:03:39.067Z</time></trkpt><trkpt lat="44.3045949" lon="11.0424712"><ele>685.6666666666666</ele><time>2026-03-28T13:03:40.057Z</time></trkpt><trkpt lat="44.3045703" lon="11.0426918"><ele>681.3333333333333</ele><time>2026-03-28T13:03:41.061Z</time></trkpt><trkpt lat="44.3045362" lon="11.0429209"><ele>677.0</ele><time>2026-03-28T13:03:42.073Z</time></trkpt><trkpt lat="44.3045172" lon="11.0431536"><ele>675.3333333333333</ele><time>2026-03-28T13:03:43.067Z</time></trkpt><trkpt lat="44.3045143" lon="11.0433819"><ele>673.6666666666666</ele><time>2026-03-28T13:03:44.092Z</time></trkpt><trkpt lat="44.3045258" lon="11.0435825"><ele>672.0</ele><time>2026-03-28T13:03:45.055Z</time></trkpt><trkpt lat="44.3045558" lon="11.0437813"><ele>672.0</ele><time>2026-03-28T13:03:46.079Z</time></trkpt><trkpt lat="44.3046034" lon="11.0439598"><ele>672.0</ele><time>2026-03-28T13:03:47.068Z</time></trkpt><trkpt lat="44.3046575" lon="11.0441255"><ele>672.0</ele><time>2026-03-28T13:03:48.081Z</time></trkpt><trkpt lat="44.3046913" lon="11.0442704"><ele>672.0</ele><time>2026-03-28T13:03:49.078Z</time></trkpt><trkpt lat="44.304689" lon="11.0444118"><ele>672.0</ele><time>2026-03-28T13:03:50.096Z</time></trkpt><trkpt lat="44.3046514" lon="11.0445372"><ele>672.0</ele><time>2026-03-28T13:03:51.072Z</time></trkpt><trkpt lat="44.3045793" lon="11.0446859"><ele>672.0</ele><time>2026-03-28T13:03:52.074Z</time></trkpt><trkpt lat="44.3044888" lon="11.044821"><ele>672.0</ele><time>2026-03-28T13:03:53.06Z</time></trkpt><trkpt lat="44.3044005" lon="11.0449373"><ele>673.0</ele><time>2026-03-28T13:03:54.055Z</time></trkpt><trkpt lat="44.3043157" lon="11.0450434"><ele>674.0</ele><time>2026-03-28T13:03:55.073Z</time></trkpt><trkpt lat="44.3042548" lon="11.0451224"><ele>675.0</ele><time>2026-03-28T13:03:56.07Z</time></trkpt><trkpt lat="44.3042151" lon="11.0452013"><ele>676.0</ele><time>2026-03-28T13:03:57.086Z</time></trkpt><trkpt lat="44.3042169" lon="11.0453616"><ele>677.0</ele><time>2026-03-28T13:03:59.071Z</time></trkpt><trkpt lat="44.3042608" lon="11.0454295"><ele>678.0</ele><time>2026-03-28T13:04:00.053Z</time></trkpt><trkpt lat="44.3043343" lon="11.0454867"><ele>678.0</ele><time>2026-03-28T13:04:01.08Z</time></trkpt><trkpt lat="44.304433" lon="11.0455305"><ele>678.0</ele><time>2026-03-28T13:04:02.078Z</time></trkpt><trkpt lat="44.3045495" lon="11.0455685"><ele>678.0</ele><time>2026-03-28T13:04:03.068Z</time></trkpt><trkpt lat="44.3046736" lon="11.0456038"><ele>678.0</ele><time>2026-03-28T13:04:04.071Z</time></trkpt><trkpt lat="44.3047987" lon="11.0456213"><ele>679.75</ele><time>2026-03-28T13:04:05.079Z</time></trkpt><trkpt lat="44.304915" lon="11.0456023"><ele>681.5</ele><time>2026-03-28T13:04:06.071Z</time></trkpt><trkpt lat="44.3050283" lon="11.0455359"><ele>683.25</ele><time>2026-03-28T13:04:07.086Z</time></trkpt><trkpt lat="44.3051486" lon="11.0454434"><ele>685.0</ele><time>2026-03-28T13:04:08.077Z</time></trkpt><trkpt lat="44.305264" lon="11.0453523"><ele>685.0</ele><time>2026-03-28T13:04:09.079Z</time></trkpt><trkpt lat="44.3053724" lon="11.0452874"><ele>685.0</ele><time>2026-03-28T13:04:10.069Z</time></trkpt><trkpt lat="44.3054673" lon="11.0452667"><ele>685.0</ele><time>2026-03-28T13:04:11.077Z</time></trkpt><trkpt lat="44.30555" lon="11.045299"><ele>685.0</ele><time>2026-03-28T13:04:12.078Z</time></trkpt><trkpt lat="44.3056285" lon="11.0453939"><ele>685.0</ele><time>2026-03-28T13:04:13.068Z</time></trkpt><trkpt lat="44.3057311" lon="11.0455686"><ele>686.6666666666667</ele><time>2026-03-28T13:04:14.063Z</time></trkpt><trkpt lat="44.3058121" lon="11.0457611"><ele>688.3333333333334</ele><time>2026-03-28T13:04:15.063Z</time></trkpt><trkpt lat="44.3059051" lon="11.0459448"><ele>690.0</ele><time>2026-03-28T13:04:16.08Z</time></trkpt><trkpt lat="44.306013" lon="11.0461221"><ele>686.3333333333334</ele><time>2026-03-28T13:04:17.073Z</time></trkpt><trkpt lat="44.3061354" lon="11.0462635"><ele>682.6666666666667</ele><time>2026-03-28T13:04:18.078Z</time></trkpt><trkpt lat="44.3062732" lon="11.0463751"><ele>679.0</ele><time>2026-03-28T13:04:19.083Z</time></trkpt><trkpt lat="44.3064022" lon="11.0464407"><ele>677.8000000000001</ele><time>2026-03-28T13:04:20.073Z</time></trkpt><trkpt lat="44.3065287" lon="11.0464905"><ele>676.6</ele><time>2026-03-28T13:04:21.083Z</time></trkpt><trkpt lat="44.3066447" lon="11.0465235"><ele>675.4</ele><time>2026-03-28T13:04:22.078Z</time></trkpt><trkpt lat="44.3067422" lon="11.0465579"><ele>674.2</ele><time>2026-03-28T13:04:23.076Z</time></trkpt><trkpt lat="44.3068264" lon="11.0466115"><ele>673.0</ele><time>2026-03-28T13:04:24.078Z</time></trkpt><trkpt lat="44.306887" lon="11.0466912"><ele>673.0</ele><time>2026-03-28T13:04:25.075Z</time></trkpt><trkpt lat="44.3069289" lon="11.0467964"><ele>673.0</ele><time>2026-03-28T13:04:26.082Z</time></trkpt><trkpt lat="44.3069337" lon="11.0469357"><ele>673.0</ele><time>2026-03-28T13:04:27.065Z</time></trkpt><trkpt lat="44.3069113" lon="11.0471092"><ele>673.0</ele><time>2026-03-28T13:04:28.071Z</time></trkpt><trkpt lat="44.3068606" lon="11.0472732"><ele>673.0</ele><time>2026-03-28T13:04:29.062Z</time></trkpt><trkpt lat="44.3067792" lon="11.0474262"><ele>671.8</ele><time>2026-03-28T13:04:30.072Z</time></trkpt><trkpt lat="44.3067072" lon="11.0475723"><ele>670.5999999999999</ele><time>2026-03-28T13:04:31.074Z</time></trkpt><trkpt lat="44.3066554" lon="11.0477127"><ele>669.4000000000001</ele><time>2026-03-28T13:04:32.071Z</time></trkpt><trkpt lat="44.3066293" lon="11.0478622"><ele>668.2</ele><time>2026-03-28T13:04:33.084Z</time></trkpt><trkpt lat="44.306644" lon="11.0479819"><ele>667.0</ele><time>2026-03-28T13:04:34.081Z</time></trkpt><trkpt lat="44.3066889" lon="11.0481346"><ele>667.0</ele><time>2026-03-28T13:04:35.078Z</time></trkpt><trkpt lat="44.3067441" lon="11.0482772"><ele>667.0</ele><time>2026-03-28T13:04:36.065Z</time></trkpt><trkpt lat="44.3067716" lon="11.048413"><ele>667.0</ele><time>2026-03-28T13:04:37.074Z</time></trkpt><trkpt lat="44.3067555" lon="11.0485512"><ele>667.0</ele><time>2026-03-28T13:04:38.068Z</time></trkpt><trkpt lat="44.3067138" lon="11.0487149"><ele>667.0</ele><time>2026-03-28T13:04:39.056Z</time></trkpt><trkpt lat="44.3066762" lon="11.048897"><ele>666.6666666666667</ele><time>2026-03-28T13:04:40.085Z</time></trkpt><trkpt lat="44.306654" lon="11.0490974"><ele>666.3333333333334</ele><time>2026-03-28T13:04:41.073Z</time></trkpt><trkpt lat="44.3066621" lon="11.0493039"><ele>666.0</ele><time>2026-03-28T13:04:42.069Z</time></trkpt><trkpt lat="44.3066965" lon="11.0495235"><ele>665.75</ele><time>2026-03-28T13:04:43.07Z</time></trkpt><trkpt lat="44.3067226" lon="11.0497386"><ele>665.5</ele><time>2026-03-28T13:04:44.077Z</time></trkpt><trkpt lat="44.3067348" lon="11.0499291"><ele>665.25</ele><time>2026-03-28T13:04:45.064Z</time></trkpt><trkpt lat="44.3067154" lon="11.0501162"><ele>665.0</ele><time>2026-03-28T13:04:46.084Z</time></trkpt><trkpt lat="44.306672" lon="11.0502819"><ele>663.75</ele><time>2026-03-28T13:04:47.083Z</time></trkpt><trkpt lat="44.3066327" lon="11.0504246"><ele>662.5</ele><time>2026-03-28T13:04:48.07Z</time></trkpt><trkpt lat="44.306619" lon="11.0505757"><ele>661.25</ele><time>2026-03-28T13:04:49.061Z</time></trkpt><trkpt lat="44.306648" lon="11.0507582"><ele>660.0</ele><time>2026-03-28T13:04:50.103Z</time></trkpt><trkpt lat="44.3066966" lon="11.0509367"><ele>660.0</ele><time>2026-03-28T13:04:51.078Z</time></trkpt><trkpt lat="44.3067326" lon="11.0511183"><ele>660.0</ele><time>2026-03-28T13:04:52.076Z</time></trkpt><trkpt lat="44.3067401" lon="11.0513035"><ele>660.0</ele><time>2026-03-28T13:04:53.105Z</time></trkpt><trkpt lat="44.3067446" lon="11.0514602"><ele>660.0</ele><time>2026-03-28T13:04:54.05Z</time></trkpt><trkpt lat="44.3067642" lon="11.0516116"><ele>657.8</ele><time>2026-03-28T13:04:55.067Z</time></trkpt><trkpt lat="44.3068134" lon="11.0517193"><ele>655.6</ele><time>2026-03-28T13:04:56.076Z</time></trkpt><trkpt lat="44.306885" lon="11.0517928"><ele>653.4000000000001</ele><time>2026-03-28T13:04:57.069Z</time></trkpt><trkpt lat="44.3069814" lon="11.0518306"><ele>651.2</ele><time>2026-03-28T13:04:58.055Z</time></trkpt><trkpt lat="44.3071103" lon="11.0518318"><ele>649.0</ele><time>2026-03-28T13:04:59.062Z</time></trkpt><trkpt lat="44.3072483" lon="11.0518082"><ele>656.75</ele><time>2026-03-28T13:05:00.061Z</time></trkpt><trkpt lat="44.3073794" lon="11.0517869"><ele>664.5</ele><time>2026-03-28T13:05:01.075Z</time></trkpt><trkpt lat="44.3075014" lon="11.0517974"><ele>672.25</ele><time>2026-03-28T13:05:02.076Z</time></trkpt><trkpt lat="44.3076083" lon="11.0518562"><ele>680.0</ele><time>2026-03-28T13:05:03.079Z</time></trkpt><trkpt lat="44.3077091" lon="11.0519724"><ele>680.0</ele><time>2026-03-28T13:05:04.086Z</time></trkpt><trkpt lat="44.3077797" lon="11.0521353"><ele>680.0</ele><time>2026-03-28T13:05:05.061Z</time></trkpt><trkpt lat="44.3078391" lon="11.0523469"><ele>680.0</ele><time>2026-03-28T13:05:06.073Z</time></trkpt><trkpt lat="44.3078966" lon="11.0525622"><ele>671.3333333333333</ele><time>2026-03-28T13:05:07.065Z</time></trkpt><trkpt lat="44.3079351" lon="11.0527804"><ele>662.6666666666666</ele><time>2026-03-28T13:05:08.069Z</time></trkpt><trkpt lat="44.3079293" lon="11.0529903"><ele>654.0</ele><time>2026-03-28T13:05:09.064Z</time></trkpt><trkpt lat="44.3079029" lon="11.0532114"><ele>651.3333333333334</ele><time>2026-03-28T13:05:10.081Z</time></trkpt><trkpt lat="44.3078713" lon="11.0534377"><ele>648.6666666666667</ele><time>2026-03-28T13:05:11.076Z</time></trkpt><trkpt lat="44.307835" lon="11.0536567"><ele>646.0</ele><time>2026-03-28T13:05:12.064Z</time></trkpt><trkpt lat="44.3077709" lon="11.0538394"><ele>646.0</ele><time>2026-03-28T13:05:13.066Z</time></trkpt><trkpt lat="44.3077164" lon="11.0540195"><ele>646.0</ele><time>2026-03-28T13:05:14.068Z</time></trkpt><trkpt lat="44.3076791" lon="11.0542183"><ele>646.0</ele><time>2026-03-28T13:05:15.083Z</time></trkpt><trkpt lat="44.3076729" lon="11.0544473"><ele>648.3333333333334</ele><time>2026-03-28T13:05:16.077Z</time></trkpt><trkpt lat="44.3076777" lon="11.054676"><ele>650.6666666666666</ele><time>2026-03-28T13:05:17.066Z</time></trkpt><trkpt lat="44.3076783" lon="11.0548966"><ele>653.0</ele><time>2026-03-28T13:05:18.065Z</time></trkpt><trkpt lat="44.3076748" lon="11.055096"><ele>653.25</ele><time>2026-03-28T13:05:19.061Z</time></trkpt><trkpt lat="44.3076549" lon="11.0552803"><ele>653.5</ele><time>2026-03-28T13:05:20.06Z</time></trkpt><trkpt lat="44.3076142" lon="11.0554753"><ele>653.75</ele><time>2026-03-28T13:05:21.077Z</time></trkpt><trkpt lat="44.30757" lon="11.0556528"><ele>654.0</ele><time>2026-03-28T13:05:22.075Z</time></trkpt><trkpt lat="44.3075171" lon="11.0558328"><ele>655.75</ele><time>2026-03-28T13:05:23.065Z</time></trkpt><trkpt lat="44.3074558" lon="11.0560115"><ele>657.5</ele><time>2026-03-28T13:05:24.067Z</time></trkpt><trkpt lat="44.307389" lon="11.0561837"><ele>659.25</ele><time>2026-03-28T13:05:25.076Z</time></trkpt><trkpt lat="44.307323" lon="11.0563468"><ele>661.0</ele><time>2026-03-28T13:05:26.076Z</time></trkpt><trkpt lat="44.307255" lon="11.056493"><ele>662.1666666666667</ele><time>2026-03-28T13:05:27.072Z</time></trkpt><trkpt lat="44.307204" lon="11.0566226"><ele>663.3333333333334</ele><time>2026-03-28T13:05:28.072Z</time></trkpt><trkpt lat="44.3071933" lon="11.0567169"><ele>664.5</ele><time>2026-03-28T13:05:29.074Z</time></trkpt><trkpt lat="44.3072077" lon="11.0568213"><ele>665.6666666666666</ele><time>2026-03-28T13:05:30.075Z</time></trkpt><trkpt lat="44.3072458" lon="11.0569117"><ele>666.8333333333333</ele><time>2026-03-28T13:05:31.064Z</time></trkpt><trkpt lat="44.3073134" lon="11.056978"><ele>668.0</ele><time>2026-03-28T13:05:32.083Z</time></trkpt><trkpt lat="44.3074069" lon="11.0570153"><ele>668.0</ele><time>2026-03-28T13:05:33.062Z</time></trkpt><trkpt lat="44.307525" lon="11.0570349"><ele>668.0</ele><time>2026-03-28T13:05:34.086Z</time></trkpt><trkpt lat="44.3076465" lon="11.0570506"><ele>668.0</ele><time>2026-03-28T13:05:35.072Z</time></trkpt><trkpt lat="44.3077592" lon="11.0570648"><ele>668.0</ele><time>2026-03-28T13:05:36.08Z</time></trkpt><trkpt lat="44.3078552" lon="11.0570831"><ele>668.0</ele><time>2026-03-28T13:05:37.062Z</time></trkpt><trkpt lat="44.3079261" lon="11.0571113"><ele>668.0</ele><time>2026-03-28T13:05:38.059Z</time></trkpt><trkpt lat="44.3079769" lon="11.0571772"><ele>668.0</ele><time>2026-03-28T13:05:39.066Z</time></trkpt><trkpt lat="44.3080038" lon="11.0572741"><ele>668.0</ele><time>2026-03-28T13:05:40.08Z</time></trkpt><trkpt lat="44.3079987" lon="11.0573758"><ele>668.0</ele><time>2026-03-28T13:05:41.071Z</time></trkpt><trkpt lat="44.3079584" lon="11.0574676"><ele>668.0</ele><time>2026-03-28T13:05:42.073Z</time></trkpt><trkpt lat="44.3078888" lon="11.0575386"><ele>666.0</ele><time>2026-03-28T13:05:43.073Z</time></trkpt><trkpt lat="44.3078001" lon="11.0576034"><ele>664.0</ele><time>2026-03-28T13:05:44.074Z</time></trkpt><trkpt lat="44.3077212" lon="11.0576752"><ele>662.0</ele><time>2026-03-28T13:05:45.096Z</time></trkpt><trkpt lat="44.3076636" lon="11.057749"><ele>660.0</ele><time>2026-03-28T13:05:46.08Z</time></trkpt><trkpt lat="44.3076163" lon="11.0578346"><ele>658.0</ele><time>2026-03-28T13:05:47.086Z</time></trkpt><trkpt lat="44.3075779" lon="11.0579132"><ele>656.0</ele><time>2026-03-28T13:05:48.075Z</time></trkpt><trkpt lat="44.3075186" lon="11.058043"><ele>656.0</ele><time>2026-03-28T13:05:50.081Z</time></trkpt><trkpt lat="44.3074485" lon="11.0580749"><ele>656.0</ele><time>2026-03-28T13:06:42.076Z</time></trkpt><trkpt lat="44.3073912" lon="11.0581926"><ele>656.0</ele><time>2026-03-28T13:06:44.078Z</time></trkpt><trkpt lat="44.3073326" lon="11.0582801"><ele>656.0</ele><time>2026-03-28T13:06:52.072Z</time></trkpt><trkpt lat="44.3072866" lon="11.0583418"><ele>656.0</ele><time>2026-03-28T13:06:53.079Z</time></trkpt><trkpt lat="44.3072061" lon="11.0584419"><ele>656.0</ele><time>2026-03-28T13:06:54.076Z</time></trkpt><trkpt lat="44.3071388" lon="11.0585414"><ele>650.0</ele><time>2026-03-28T13:06:55.087Z</time></trkpt><trkpt lat="44.3070718" lon="11.0586615"><ele>644.0</ele><time>2026-03-28T13:06:56.076Z</time></trkpt><trkpt lat="44.3070051" lon="11.0587982"><ele>638.0</ele><time>2026-03-28T13:06:57.074Z</time></trkpt><trkpt lat="44.3069331" lon="11.0589323"><ele>632.0</ele><time>2026-03-28T13:06:58.061Z</time></trkpt><trkpt lat="44.306845" lon="11.0590596"><ele>635.2</ele><time>2026-03-28T13:06:59.087Z</time></trkpt><trkpt lat="44.3067523" lon="11.0591613"><ele>638.4000000000001</ele><time>2026-03-28T13:07:00.077Z</time></trkpt><trkpt lat="44.3066674" lon="11.0592548"><ele>641.5999999999999</ele><time>2026-03-28T13:07:01.071Z</time></trkpt><trkpt lat="44.306594" lon="11.0593572"><ele>644.8</ele><time>2026-03-28T13:07:02.075Z</time></trkpt><trkpt lat="44.3065327" lon="11.0594796"><ele>648.0</ele><time>2026-03-28T13:07:03.071Z</time></trkpt><trkpt lat="44.3064789" lon="11.059624"><ele>648.0</ele><time>2026-03-28T13:07:04.076Z</time></trkpt><trkpt lat="44.3064219" lon="11.0597792"><ele>648.0</ele><time>2026-03-28T13:07:05.078Z</time></trkpt><trkpt lat="44.30636" lon="11.0599222"><ele>648.0</ele><time>2026-03-28T13:07:06.086Z</time></trkpt><trkpt lat="44.3062942" lon="11.0600338"><ele>648.0</ele><time>2026-03-28T13:07:07.072Z</time></trkpt><trkpt lat="44.3062112" lon="11.0601045"><ele>648.0</ele><time>2026-03-28T13:07:08.078Z</time></trkpt><trkpt lat="44.3061139" lon="11.0601437"><ele>645.1999999999999</ele><time>2026-03-28T13:07:09.084Z</time></trkpt><trkpt lat="44.3060124" lon="11.0601831"><ele>642.4</ele><time>2026-03-28T13:07:10.081Z</time></trkpt><trkpt lat="44.3059213" lon="11.0602418"><ele>639.5999999999999</ele><time>2026-03-28T13:07:11.083Z</time></trkpt><trkpt lat="44.3058599" lon="11.0603234"><ele>636.8</ele><time>2026-03-28T13:07:12.065Z</time></trkpt><trkpt lat="44.3058283" lon="11.0604412"><ele>634.0</ele><time>2026-03-28T13:07:13.089Z</time></trkpt><trkpt lat="44.3058297" lon="11.0605852"><ele>634.0</ele><time>2026-03-28T13:07:14.087Z</time></trkpt><trkpt lat="44.3058431" lon="11.0607637"><ele>634.0</ele><time>2026-03-28T13:07:15.073Z</time></trkpt><trkpt lat="44.3058734" lon="11.0609674"><ele>634.0</ele><time>2026-03-28T13:07:16.066Z</time></trkpt><trkpt lat="44.3058982" lon="11.0611854"><ele>634.0</ele><time>2026-03-28T13:07:17.077Z</time></trkpt><trkpt lat="44.3058961" lon="11.0613941"><ele>636.5</ele><time>2026-03-28T13:07:18.068Z</time></trkpt><trkpt lat="44.3058654" lon="11.0615712"><ele>639.0</ele><time>2026-03-28T13:07:19.068Z</time></trkpt><trkpt lat="44.3058011" lon="11.0617072"><ele>641.5</ele><time>2026-03-28T13:07:20.076Z</time></trkpt><trkpt lat="44.305719" lon="11.0618152"><ele>644.0</ele><time>2026-03-28T13:07:21.068Z</time></trkpt><trkpt lat="44.3056366" lon="11.0619155"><ele>645.4000000000001</ele><time>2026-03-28T13:07:22.074Z</time></trkpt><trkpt lat="44.30557" lon="11.0619943"><ele>646.8</ele><time>2026-03-28T13:07:23.084Z</time></trkpt><trkpt lat="44.3055295" lon="11.0620775"><ele>648.2</ele><time>2026-03-28T13:07:24.08Z</time></trkpt><trkpt lat="44.3055366" lon="11.0622429"><ele>649.5999999999999</ele><time>2026-03-28T13:07:26.072Z</time></trkpt><trkpt lat="44.3055982" lon="11.0623367"><ele>651.0</ele><time>2026-03-28T13:07:27.08Z</time></trkpt><trkpt lat="44.3056909" lon="11.0624335"><ele>649.5</ele><time>2026-03-28T13:07:28.075Z</time></trkpt><trkpt lat="44.3057907" lon="11.062527"><ele>648.0</ele><time>2026-03-28T13:07:29.088Z</time></trkpt><trkpt lat="44.3058955" lon="11.0626263"><ele>646.5</ele><time>2026-03-28T13:07:30.078Z</time></trkpt><trkpt lat="44.3060017" lon="11.0627332"><ele>645.0</ele><time>2026-03-28T13:07:31.082Z</time></trkpt><trkpt lat="44.3061003" lon="11.0628419"><ele>645.0</ele><time>2026-03-28T13:07:32.071Z</time></trkpt><trkpt lat="44.3062321" lon="11.0629922"><ele>645.0</ele><time>2026-03-28T13:07:33.392Z</time></trkpt><trkpt lat="44.3063739" lon="11.0632019"><ele>645.0</ele><time>2026-03-28T13:07:35.131Z</time></trkpt><trkpt lat="44.306447" lon="11.063311"><ele>645.6666666666666</ele><time>2026-03-28T13:07:36.154Z</time></trkpt><trkpt lat="44.3065126" lon="11.0633931"><ele>646.3333333333334</ele><time>2026-03-28T13:07:37.124Z</time></trkpt><trkpt lat="44.3065846" lon="11.0634543"><ele>647.0</ele><time>2026-03-28T13:07:38.126Z</time></trkpt><trkpt lat="44.3066619" lon="11.0634885"><ele>647.6666666666667</ele><time>2026-03-28T13:07:39.136Z</time></trkpt><trkpt lat="44.306737" lon="11.0634993"><ele>648.3333333333334</ele><time>2026-03-28T13:07:40.07Z</time></trkpt><trkpt lat="44.3068208" lon="11.0634913"><ele>649.0</ele><time>2026-03-28T13:07:41.083Z</time></trkpt><trkpt lat="44.3069279" lon="11.0634877"><ele>649.0</ele><time>2026-03-28T13:07:42.414Z</time></trkpt><trkpt lat="44.3070297" lon="11.0635354"><ele>649.0</ele><time>2026-03-28T13:07:44.126Z</time></trkpt><trkpt lat="44.3070893" lon="11.0635774"><ele>649.0</ele><time>2026-03-28T13:07:45.124Z</time></trkpt><trkpt lat="44.3071444" lon="11.0636366"><ele>649.0</ele><time>2026-03-28T13:07:46.131Z</time></trkpt><trkpt lat="44.3071954" lon="11.0637118"><ele>649.0</ele><time>2026-03-28T13:07:47.129Z</time></trkpt><trkpt lat="44.3072381" lon="11.0638023"><ele>649.0</ele><time>2026-03-28T13:07:48.131Z</time></trkpt><trkpt lat="44.3072667" lon="11.063912"><ele>649.0</ele><time>2026-03-28T13:07:49.137Z</time></trkpt><trkpt lat="44.3072788" lon="11.0640293"><ele>649.0</ele><time>2026-03-28T13:07:50.114Z</time></trkpt><trkpt lat="44.3072821" lon="11.0641607"><ele>649.0</ele><time>2026-03-28T13:07:51.145Z</time></trkpt><trkpt lat="44.3072779" lon="11.0642893"><ele>649.0</ele><time>2026-03-28T13:07:52.131Z</time></trkpt><trkpt lat="44.3072711" lon="11.0644235"><ele>649.0</ele><time>2026-03-28T13:07:53.139Z</time></trkpt><trkpt lat="44.3072725" lon="11.0645557"><ele>649.0</ele><time>2026-03-28T13:07:54.122Z</time></trkpt><trkpt lat="44.3072857" lon="11.0646897"><ele>649.0</ele><time>2026-03-28T13:07:55.121Z</time></trkpt><trkpt lat="44.3073066" lon="11.0648146"><ele>649.0</ele><time>2026-03-28T13:07:56.127Z</time></trkpt><trkpt lat="44.3073327" lon="11.0649276"><ele>649.0</ele><time>2026-03-28T13:07:57.118Z</time></trkpt><trkpt lat="44.3073556" lon="11.0650401"><ele>649.0</ele><time>2026-03-28T13:07:58.137Z</time></trkpt><trkpt lat="44.30737" lon="11.06515"><ele>649.0</ele><time>2026-03-28T13:07:59.13Z</time></trkpt><trkpt lat="44.3073714" lon="11.0652574"><ele>648.8333333333334</ele><time>2026-03-28T13:08:00.124Z</time></trkpt><trkpt lat="44.3073553" lon="11.0653676"><ele>648.6666666666667</ele><time>2026-03-28T13:08:01.142Z</time></trkpt><trkpt lat="44.3073264" lon="11.0654753"><ele>648.5</ele><time>2026-03-28T13:08:02.133Z</time></trkpt><trkpt lat="44.3072878" lon="11.0655889"><ele>648.3333333333334</ele><time>2026-03-28T13:08:03.147Z</time></trkpt><trkpt lat="44.3072474" lon="11.0657037"><ele>648.1666666666666</ele><time>2026-03-28T13:08:04.121Z</time></trkpt><trkpt lat="44.3072108" lon="11.0658343"><ele>648.0</ele><time>2026-03-28T13:08:05.116Z</time></trkpt><trkpt lat="44.307183" lon="11.0659832"><ele>642.5</ele><time>2026-03-28T13:08:06.129Z</time></trkpt><trkpt lat="44.3071632" lon="11.0661452"><ele>637.0</ele><time>2026-03-28T13:08:07.139Z</time></trkpt><trkpt lat="44.3071434" lon="11.0663116"><ele>631.5</ele><time>2026-03-28T13:08:08.126Z</time></trkpt><trkpt lat="44.3071229" lon="11.0664684"><ele>626.0</ele><time>2026-03-28T13:08:09.108Z</time></trkpt><trkpt lat="44.3071019" lon="11.0666234"><ele>626.0</ele><time>2026-03-28T13:08:10.136Z</time></trkpt><trkpt lat="44.3070847" lon="11.0667642"><ele>626.0</ele><time>2026-03-28T13:08:11.138Z</time></trkpt><trkpt lat="44.3070699" lon="11.0668846"><ele>626.0</ele><time>2026-03-28T13:08:12.135Z</time></trkpt><trkpt lat="44.3070574" lon="11.066974"><ele>626.0</ele><time>2026-03-28T13:08:13.145Z</time></trkpt><trkpt lat="44.3070483" lon="11.0670641"><ele>626.0</ele><time>2026-03-28T13:08:15.135Z</time></trkpt><trkpt lat="44.3070418" lon="11.067157"><ele>626.0</ele><time>2026-03-28T13:08:57.071Z</time></trkpt><trkpt lat="44.3070518" lon="11.0672817"><ele>627.4</ele><time>2026-03-28T13:09:09.07Z</time></trkpt><trkpt lat="44.3070589" lon="11.0674546"><ele>628.8</ele><time>2026-03-28T13:09:11.1Z</time></trkpt><trkpt lat="44.3070524" lon="11.0675641"><ele>630.1999999999999</ele><time>2026-03-28T13:09:12.086Z</time></trkpt><trkpt lat="44.3070353" lon="11.0676808"><ele>631.6</ele><time>2026-03-28T13:09:13.077Z</time></trkpt><trkpt lat="44.3070019" lon="11.0677938"><ele>633.0</ele><time>2026-03-28T13:09:14.062Z</time></trkpt><trkpt lat="44.3069546" lon="11.0679178"><ele>633.0</ele><time>2026-03-28T13:09:15.091Z</time></trkpt><trkpt lat="44.3068948" lon="11.0680362"><ele>633.0</ele><time>2026-03-28T13:09:16.07Z</time></trkpt><trkpt lat="44.3068271" lon="11.0681666"><ele>633.0</ele><time>2026-03-28T13:09:17.092Z</time></trkpt><trkpt lat="44.3067709" lon="11.0682897"><ele>633.0</ele><time>2026-03-28T13:09:18.082Z</time></trkpt><trkpt lat="44.3067251" lon="11.0684107"><ele>633.0</ele><time>2026-03-28T13:09:19.073Z</time></trkpt><trkpt lat="44.3066771" lon="11.0685264"><ele>633.3333333333334</ele><time>2026-03-28T13:09:20.077Z</time></trkpt><trkpt lat="44.3066246" lon="11.0686326"><ele>633.6666666666666</ele><time>2026-03-28T13:09:21.073Z</time></trkpt><trkpt lat="44.3065682" lon="11.0687362"><ele>634.0</ele><time>2026-03-28T13:09:22.078Z</time></trkpt><trkpt lat="44.3065118" lon="11.0688327"><ele>634.3333333333333</ele><time>2026-03-28T13:09:23.079Z</time></trkpt><trkpt lat="44.3064568" lon="11.0689236"><ele>634.6666666666666</ele><time>2026-03-28T13:09:24.074Z</time></trkpt><trkpt lat="44.3064" lon="11.0690146"><ele>635.0</ele><time>2026-03-28T13:09:25.081Z</time></trkpt><trkpt lat="44.3063433" lon="11.0691045"><ele>633.0</ele><time>2026-03-28T13:09:26.075Z</time></trkpt><trkpt lat="44.306283" lon="11.0692048"><ele>631.0</ele><time>2026-03-28T13:09:27.075Z</time></trkpt><trkpt lat="44.3062163" lon="11.0693145"><ele>629.0</ele><time>2026-03-28T13:09:28.099Z</time></trkpt><trkpt lat="44.3061537" lon="11.0694241"><ele>627.0</ele><time>2026-03-28T13:09:29.064Z</time></trkpt><trkpt lat="44.3060861" lon="11.0695475"><ele>625.0</ele><time>2026-03-28T13:09:30.073Z</time></trkpt><trkpt lat="44.3060149" lon="11.0696742"><ele>625.0</ele><time>2026-03-28T13:09:31.06Z</time></trkpt><trkpt lat="44.3059366" lon="11.0698125"><ele>625.0</ele><time>2026-03-28T13:09:32.076Z</time></trkpt><trkpt lat="44.3058615" lon="11.0699366"><ele>625.0</ele><time>2026-03-28T13:09:33.068Z</time></trkpt><trkpt lat="44.3057816" lon="11.0700478"><ele>625.0</ele><time>2026-03-28T13:09:34.064Z</time></trkpt><trkpt lat="44.3057023" lon="11.0701437"><ele>624.5</ele><time>2026-03-28T13:09:35.079Z</time></trkpt><trkpt lat="44.305616" lon="11.0702247"><ele>624.0</ele><time>2026-03-28T13:09:36.075Z</time></trkpt><trkpt lat="44.3055078" lon="11.0702911"><ele>623.5</ele><time>2026-03-28T13:09:37.076Z</time></trkpt><trkpt lat="44.3053824" lon="11.0703506"><ele>623.0</ele><time>2026-03-28T13:09:38.074Z</time></trkpt><trkpt lat="44.3052416" lon="11.0704011"><ele>623.0</ele><time>2026-03-28T13:09:39.076Z</time></trkpt><trkpt lat="44.3050974" lon="11.0704408"><ele>623.0</ele><time>2026-03-28T13:09:40.086Z</time></trkpt><trkpt lat="44.3049601" lon="11.0704619"><ele>623.0</ele><time>2026-03-28T13:09:41.079Z</time></trkpt><trkpt lat="44.3048239" lon="11.0704539"><ele>623.0</ele><time>2026-03-28T13:09:42.084Z</time></trkpt><trkpt lat="44.3046707" lon="11.0704213"><ele>620.3333333333333</ele><time>2026-03-28T13:09:43.096Z</time></trkpt><trkpt lat="44.3045108" lon="11.0703801"><ele>617.6666666666666</ele><time>2026-03-28T13:09:44.08Z</time></trkpt><trkpt lat="44.3043425" lon="11.0703304"><ele>615.0</ele><time>2026-03-28T13:09:45.075Z</time></trkpt><trkpt lat="44.3041814" lon="11.0702708"><ele>615.0</ele><time>2026-03-28T13:09:46.078Z</time></trkpt><trkpt lat="44.3040356" lon="11.0702178"><ele>615.0</ele><time>2026-03-28T13:09:47.073Z</time></trkpt><trkpt lat="44.3038929" lon="11.0701821"><ele>615.0</ele><time>2026-03-28T13:09:48.072Z</time></trkpt><trkpt lat="44.3037479" lon="11.0701765"><ele>615.0</ele><time>2026-03-28T13:09:49.06Z</time></trkpt><trkpt lat="44.3036032" lon="11.0701927"><ele>614.0</ele><time>2026-03-28T13:09:50.085Z</time></trkpt><trkpt lat="44.3034607" lon="11.0702064"><ele>613.0</ele><time>2026-03-28T13:09:51.086Z</time></trkpt><trkpt lat="44.303326" lon="11.0701979"><ele>612.0</ele><time>2026-03-28T13:09:52.086Z</time></trkpt><trkpt lat="44.3031997" lon="11.0701562"><ele>611.0</ele><time>2026-03-28T13:09:53.082Z</time></trkpt><trkpt lat="44.3030867" lon="11.0701191"><ele>609.0</ele><time>2026-03-28T13:09:54.071Z</time></trkpt><trkpt lat="44.3029839" lon="11.0701157"><ele>607.0</ele><time>2026-03-28T13:09:55.077Z</time></trkpt><trkpt lat="44.3029" lon="11.0701487"><ele>605.0</ele><time>2026-03-28T13:09:56.065Z</time></trkpt><trkpt lat="44.302833" lon="11.0702253"><ele>603.0</ele><time>2026-03-28T13:09:57.076Z</time></trkpt><trkpt lat="44.3027897" lon="11.0703337"><ele>601.0</ele><time>2026-03-28T13:09:58.071Z</time></trkpt><trkpt lat="44.3027743" lon="11.0704719"><ele>601.0</ele><time>2026-03-28T13:09:59.085Z</time></trkpt><trkpt lat="44.3027616" lon="11.0705944"><ele>601.0</ele><time>2026-03-28T13:10:00.068Z</time></trkpt><trkpt lat="44.3027669" lon="11.0707541"><ele>601.0</ele><time>2026-03-28T13:10:01.076Z</time></trkpt><trkpt lat="44.3027747" lon="11.0709362"><ele>601.0</ele><time>2026-03-28T13:10:02.094Z</time></trkpt><trkpt lat="44.3027673" lon="11.0711089"><ele>601.0</ele><time>2026-03-28T13:10:03.077Z</time></trkpt><trkpt lat="44.3027421" lon="11.0712629"><ele>601.0</ele><time>2026-03-28T13:10:04.085Z</time></trkpt><trkpt lat="44.3027215" lon="11.0713932"><ele>601.0</ele><time>2026-03-28T13:10:05.076Z</time></trkpt><trkpt lat="44.3026854" lon="11.0715079"><ele>601.0</ele><time>2026-03-28T13:10:06.077Z</time></trkpt><trkpt lat="44.3026406" lon="11.071611"><ele>601.0</ele><time>2026-03-28T13:10:07.079Z</time></trkpt><trkpt lat="44.3025769" lon="11.0717109"><ele>604.5</ele><time>2026-03-28T13:10:08.097Z</time></trkpt><trkpt lat="44.3024551" lon="11.0718059"><ele>608.0</ele><time>2026-03-28T13:10:09.058Z</time></trkpt><trkpt lat="44.302071" lon="11.0719285"><ele>603.0</ele><time>2026-03-28T13:10:10.097Z</time></trkpt><trkpt lat="44.3019457" lon="11.0720153"><ele>598.0</ele><time>2026-03-28T13:10:11.062Z</time></trkpt><trkpt lat="44.3018459" lon="11.0721249"><ele>593.0</ele><time>2026-03-28T13:10:12.073Z</time></trkpt><trkpt lat="44.3017622" lon="11.0722629"><ele>588.0</ele><time>2026-03-28T13:10:13.063Z</time></trkpt><trkpt lat="44.3016811" lon="11.0724306"><ele>585.25</ele><time>2026-03-28T13:10:14.087Z</time></trkpt><trkpt lat="44.3015961" lon="11.0725807"><ele>582.5</ele><time>2026-03-28T13:10:15.072Z</time></trkpt><trkpt lat="44.3014949" lon="11.072713"><ele>579.75</ele><time>2026-03-28T13:10:16.079Z</time></trkpt><trkpt lat="44.3013878" lon="11.0728265"><ele>577.0</ele><time>2026-03-28T13:10:17.076Z</time></trkpt><trkpt lat="44.3012923" lon="11.0729354"><ele>577.0</ele><time>2026-03-28T13:10:18.07Z</time></trkpt><trkpt lat="44.3012045" lon="11.0730542"><ele>577.0</ele><time>2026-03-28T13:10:19.062Z</time></trkpt><trkpt lat="44.301136" lon="11.0732138"><ele>577.0</ele><time>2026-03-28T13:10:20.071Z</time></trkpt><trkpt lat="44.3011268" lon="11.0734014"><ele>577.0</ele><time>2026-03-28T13:10:21.077Z</time></trkpt><trkpt lat="44.3011394" lon="11.073581"><ele>578.1666666666667</ele><time>2026-03-28T13:10:22.067Z</time></trkpt><trkpt lat="44.3011556" lon="11.0737415"><ele>579.3333333333334</ele><time>2026-03-28T13:10:23.085Z</time></trkpt><trkpt lat="44.3011641" lon="11.0738711"><ele>580.5</ele><time>2026-03-28T13:10:24.086Z</time></trkpt><trkpt lat="44.3011584" lon="11.0739784"><ele>581.6666666666666</ele><time>2026-03-28T13:10:25.06Z</time></trkpt><trkpt lat="44.3011289" lon="11.0740696"><ele>582.8333333333333</ele><time>2026-03-28T13:10:26.067Z</time></trkpt><trkpt lat="44.3010719" lon="11.0741201"><ele>584.0</ele><time>2026-03-28T13:10:27.064Z</time></trkpt><trkpt lat="44.3010033" lon="11.0741066"><ele>584.0</ele><time>2026-03-28T13:10:28.079Z</time></trkpt><trkpt lat="44.3009378" lon="11.0740372"><ele>584.0</ele><time>2026-03-28T13:10:29.084Z</time></trkpt><trkpt lat="44.3008833" lon="11.0739061"><ele>584.0</ele><time>2026-03-28T13:10:30.073Z</time></trkpt><trkpt lat="44.3008771" lon="11.0737153"><ele>584.0</ele><time>2026-03-28T13:10:31.082Z</time></trkpt><trkpt lat="44.3008848" lon="11.0735264"><ele>584.0</ele><time>2026-03-28T13:10:32.071Z</time></trkpt><trkpt lat="44.3009345" lon="11.0733276"><ele>584.0</ele><time>2026-03-28T13:10:33.067Z</time></trkpt><trkpt lat="44.3009876" lon="11.0731371"><ele>584.0</ele><time>2026-03-28T13:10:34.078Z</time></trkpt><trkpt lat="44.3010336" lon="11.0729644"><ele>584.0</ele><time>2026-03-28T13:10:35.075Z</time></trkpt><trkpt lat="44.3010848" lon="11.072751"><ele>585.3333333333333</ele><time>2026-03-28T13:10:36.405Z</time></trkpt><trkpt lat="44.3012724" lon="11.0725679"><ele>586.6666666666666</ele><time>2026-03-28T13:10:38.117Z</time></trkpt><trkpt lat="44.3013689" lon="11.0724413"><ele>588.0</ele><time>2026-03-28T13:10:39.129Z</time></trkpt><trkpt lat="44.3014603" lon="11.0723017"><ele>588.0</ele><time>2026-03-28T13:10:40.125Z</time></trkpt><trkpt lat="44.3015353" lon="11.0721396"><ele>588.0</ele><time>2026-03-28T13:10:41.129Z</time></trkpt><trkpt lat="44.3015965" lon="11.0719664"><ele>588.0</ele><time>2026-03-28T13:10:42.128Z</time></trkpt><trkpt lat="44.3016561" lon="11.0717952"><ele>588.0</ele><time>2026-03-28T13:10:43.116Z</time></trkpt><trkpt lat="44.30171" lon="11.0716228"><ele>585.75</ele><time>2026-03-28T13:10:44.128Z</time></trkpt><trkpt lat="44.301749" lon="11.0714425"><ele>583.5</ele><time>2026-03-28T13:10:45.127Z</time></trkpt><trkpt lat="44.3017742" lon="11.0712483"><ele>581.25</ele><time>2026-03-28T13:10:46.144Z</time></trkpt><trkpt lat="44.301789" lon="11.0710502"><ele>579.0</ele><time>2026-03-28T13:10:47.153Z</time></trkpt><trkpt lat="44.3018025" lon="11.0708559"><ele>580.0</ele><time>2026-03-28T13:10:48.143Z</time></trkpt><trkpt lat="44.3018135" lon="11.0706705"><ele>581.0</ele><time>2026-03-28T13:10:49.14Z</time></trkpt><trkpt lat="44.3018113" lon="11.0705013"><ele>582.0</ele><time>2026-03-28T13:10:50.118Z</time></trkpt><trkpt lat="44.3017918" lon="11.0703353"><ele>583.0</ele><time>2026-03-28T13:10:51.129Z</time></trkpt><trkpt lat="44.3017609" lon="11.0701764"><ele>583.0</ele><time>2026-03-28T13:10:52.126Z</time></trkpt><trkpt lat="44.3017204" lon="11.0700188"><ele>583.0</ele><time>2026-03-28T13:10:53.148Z</time></trkpt><trkpt lat="44.3016706" lon="11.0698809"><ele>583.0</ele><time>2026-03-28T13:10:54.134Z</time></trkpt><trkpt lat="44.3016022" lon="11.069759"><ele>583.0</ele><time>2026-03-28T13:10:55.121Z</time></trkpt><trkpt lat="44.3015076" lon="11.0696447"><ele>580.5</ele><time>2026-03-28T13:10:56.141Z</time></trkpt><trkpt lat="44.3014059" lon="11.0695459"><ele>578.0</ele><time>2026-03-28T13:10:57.082Z</time></trkpt><trkpt lat="44.3012882" lon="11.0694465"><ele>575.5</ele><time>2026-03-28T13:10:58.067Z</time></trkpt><trkpt lat="44.3011559" lon="11.0693453"><ele>573.0</ele><time>2026-03-28T13:10:59.086Z</time></trkpt><trkpt lat="44.3010235" lon="11.0692595"><ele>573.0</ele><time>2026-03-28T13:11:00.065Z</time></trkpt><trkpt lat="44.3008979" lon="11.0691795"><ele>573.0</ele><time>2026-03-28T13:11:01.082Z</time></trkpt><trkpt lat="44.3007869" lon="11.069127"><ele>573.0</ele><time>2026-03-28T13:11:02.074Z</time></trkpt><trkpt lat="44.3006718" lon="11.0690999"><ele>573.0</ele><time>2026-03-28T13:11:03.068Z</time></trkpt><trkpt lat="44.3005607" lon="11.0691138"><ele>572.4</ele><time>2026-03-28T13:11:04.075Z</time></trkpt><trkpt lat="44.3004542" lon="11.0691371"><ele>571.8</ele><time>2026-03-28T13:11:05.073Z</time></trkpt><trkpt lat="44.3003467" lon="11.0691462"><ele>571.2</ele><time>2026-03-28T13:11:06.077Z</time></trkpt><trkpt lat="44.3002376" lon="11.0691177"><ele>570.6</ele><time>2026-03-28T13:11:07.068Z</time></trkpt><trkpt lat="44.300132" lon="11.0690312"><ele>570.0</ele><time>2026-03-28T13:11:08.068Z</time></trkpt><trkpt lat="44.3000096" lon="11.0689142"><ele>570.0</ele><time>2026-03-28T13:11:09.075Z</time></trkpt><trkpt lat="44.2998825" lon="11.0687734"><ele>570.0</ele><time>2026-03-28T13:11:10.076Z</time></trkpt><trkpt lat="44.2997577" lon="11.0686321"><ele>570.0</ele><time>2026-03-28T13:11:11.073Z</time></trkpt><trkpt lat="44.2996441" lon="11.0685034"><ele>570.0</ele><time>2026-03-28T13:11:12.085Z</time></trkpt><trkpt lat="44.2995513" lon="11.0684045"><ele>570.0</ele><time>2026-03-28T13:11:13.099Z</time></trkpt><trkpt lat="44.2994484" lon="11.0683382"><ele>570.0</ele><time>2026-03-28T13:11:14.061Z</time></trkpt><trkpt lat="44.2993299" lon="11.0682983"><ele>570.0</ele><time>2026-03-28T13:11:15.077Z</time></trkpt><trkpt lat="44.2992246" lon="11.0682566"><ele>570.0</ele><time>2026-03-28T13:11:16.075Z</time></trkpt><trkpt lat="44.2991362" lon="11.0682312"><ele>570.0</ele><time>2026-03-28T13:11:17.084Z</time></trkpt><trkpt lat="44.2990718" lon="11.0682407"><ele>570.0</ele><time>2026-03-28T13:11:18.073Z</time></trkpt><trkpt lat="44.2990082" lon="11.0683733"><ele>570.0</ele><time>2026-03-28T13:11:20.082Z</time></trkpt><trkpt lat="44.2990295" lon="11.0684804"><ele>570.0</ele><time>2026-03-28T13:11:21.09Z</time></trkpt><trkpt lat="44.2990932" lon="11.0685738"><ele>570.0</ele><time>2026-03-28T13:11:22.081Z</time></trkpt><trkpt lat="44.2991938" lon="11.0686151"><ele>569.0</ele><time>2026-03-28T13:11:23.074Z</time></trkpt><trkpt lat="44.2993133" lon="11.0686134"><ele>568.0</ele><time>2026-03-28T13:11:24.073Z</time></trkpt><trkpt lat="44.2994331" lon="11.0686166"><ele>567.0</ele><time>2026-03-28T13:11:25.077Z</time></trkpt><trkpt lat="44.2995387" lon="11.0686579"><ele>566.0</ele><time>2026-03-28T13:11:26.078Z</time></trkpt><trkpt lat="44.2996359" lon="11.0687467"><ele>566.0</ele><time>2026-03-28T13:11:27.074Z</time></trkpt><trkpt lat="44.2997309" lon="11.0688809"><ele>566.0</ele><time>2026-03-28T13:11:28.068Z</time></trkpt><trkpt lat="44.299823" lon="11.069057"><ele>566.0</ele><time>2026-03-28T13:11:29.097Z</time></trkpt><trkpt lat="44.2998985" lon="11.0692408"><ele>566.0</ele><time>2026-03-28T13:11:30.078Z</time></trkpt><trkpt lat="44.2999638" lon="11.0694138"><ele>565.0</ele><time>2026-03-28T13:11:31.071Z</time></trkpt><trkpt lat="44.300031" lon="11.0695639"><ele>564.0</ele><time>2026-03-28T13:11:32.075Z</time></trkpt><trkpt lat="44.3001101" lon="11.0696781"><ele>563.0</ele><time>2026-03-28T13:11:33.073Z</time></trkpt><trkpt lat="44.300201" lon="11.0697482"><ele>562.0</ele><time>2026-03-28T13:11:34.065Z</time></trkpt><trkpt lat="44.3003016" lon="11.0698115"><ele>562.0</ele><time>2026-03-28T13:11:35.088Z</time></trkpt><trkpt lat="44.3003888" lon="11.0698836"><ele>562.0</ele><time>2026-03-28T13:11:36.082Z</time></trkpt><trkpt lat="44.3004603" lon="11.0699663"><ele>562.0</ele><time>2026-03-28T13:11:37.09Z</time></trkpt><trkpt lat="44.3005127" lon="11.0700671"><ele>562.0</ele><time>2026-03-28T13:11:38.086Z</time></trkpt><trkpt lat="44.3005495" lon="11.0701895"><ele>562.0</ele><time>2026-03-28T13:11:39.068Z</time></trkpt><trkpt lat="44.3005654" lon="11.0703447"><ele>558.0</ele><time>2026-03-28T13:11:40.071Z</time></trkpt><trkpt lat="44.3005626" lon="11.0705052"><ele>554.0</ele><time>2026-03-28T13:11:41.081Z</time></trkpt><trkpt lat="44.3005522" lon="11.0706641"><ele>550.0</ele><time>2026-03-28T13:11:42.07Z</time></trkpt><trkpt lat="44.3005377" lon="11.0708214"><ele>546.0</ele><time>2026-03-28T13:11:43.074Z</time></trkpt><trkpt lat="44.3005001" lon="11.0709571"><ele>542.0</ele><time>2026-03-28T13:11:44.076Z</time></trkpt><trkpt lat="44.3004413" lon="11.0710704"><ele>540.5</ele><time>2026-03-28T13:11:45.076Z</time></trkpt><trkpt lat="44.3003661" lon="11.071184"><ele>539.0</ele><time>2026-03-28T13:11:46.079Z</time></trkpt><trkpt lat="44.300286" lon="11.0712999"><ele>537.5</ele><time>2026-03-28T13:11:47.08Z</time></trkpt><trkpt lat="44.3002081" lon="11.0714265"><ele>536.0</ele><time>2026-03-28T13:11:48.076Z</time></trkpt><trkpt lat="44.3001312" lon="11.0715528"><ele>537.4</ele><time>2026-03-28T13:11:49.062Z</time></trkpt><trkpt lat="44.3000528" lon="11.0716684"><ele>538.8</ele><time>2026-03-28T13:11:50.084Z</time></trkpt><trkpt lat="44.2999781" lon="11.0717706"><ele>540.1999999999999</ele><time>2026-03-28T13:11:51.07Z</time></trkpt><trkpt lat="44.2999005" lon="11.0718693"><ele>541.6</ele><time>2026-03-28T13:11:52.098Z</time></trkpt><trkpt lat="44.2998255" lon="11.0719588"><ele>543.0</ele><time>2026-03-28T13:11:53.087Z</time></trkpt><trkpt lat="44.2997449" lon="11.0720481"><ele>539.0</ele><time>2026-03-28T13:11:54.092Z</time></trkpt><trkpt lat="44.2996679" lon="11.0721294"><ele>535.0</ele><time>2026-03-28T13:11:55.083Z</time></trkpt><trkpt lat="44.2995956" lon="11.0722073"><ele>531.0</ele><time>2026-03-28T13:11:56.083Z</time></trkpt><trkpt lat="44.2995249" lon="11.0722838"><ele>527.0</ele><time>2026-03-28T13:11:57.096Z</time></trkpt><trkpt lat="44.2994559" lon="11.0723534"><ele>523.0</ele><time>2026-03-28T13:11:58.091Z</time></trkpt><trkpt lat="44.2993825" lon="11.0724236"><ele>524.5</ele><time>2026-03-28T13:11:59.072Z</time></trkpt><trkpt lat="44.2993205" lon="11.0724969"><ele>526.0</ele><time>2026-03-28T13:12:00.063Z</time></trkpt><trkpt lat="44.2992759" lon="11.0725975"><ele>527.5</ele><time>2026-03-28T13:12:01.078Z</time></trkpt><trkpt lat="44.2992639" lon="11.0727077"><ele>529.0</ele><time>2026-03-28T13:12:02.072Z</time></trkpt><trkpt lat="44.2992849" lon="11.0728292"><ele>530.5</ele><time>2026-03-28T13:12:03.079Z</time></trkpt><trkpt lat="44.2993323" lon="11.0729589"><ele>532.0</ele><time>2026-03-28T13:12:04.084Z</time></trkpt><trkpt lat="44.2993921" lon="11.0730923"><ele>532.0</ele><time>2026-03-28T13:12:05.063Z</time></trkpt><trkpt lat="44.2994598" lon="11.0732333"><ele>532.0</ele><time>2026-03-28T13:12:06.075Z</time></trkpt><trkpt lat="44.2995237" lon="11.0733774"><ele>532.0</ele><time>2026-03-28T13:12:07.083Z</time></trkpt><trkpt lat="44.2995661" lon="11.0735299"><ele>532.0</ele><time>2026-03-28T13:12:08.074Z</time></trkpt><trkpt lat="44.2995867" lon="11.0736939"><ele>531.0</ele><time>2026-03-28T13:12:09.08Z</time></trkpt><trkpt lat="44.2995923" lon="11.0738637"><ele>530.0</ele><time>2026-03-28T13:12:10.075Z</time></trkpt><trkpt lat="44.2996045" lon="11.0740401"><ele>529.0</ele><time>2026-03-28T13:12:11.094Z</time></trkpt><trkpt lat="44.2996399" lon="11.0741902"><ele>528.0</ele><time>2026-03-28T13:12:12.07Z</time></trkpt><trkpt lat="44.2996827" lon="11.0743222"><ele>526.4</ele><time>2026-03-28T13:12:13.072Z</time></trkpt><trkpt lat="44.2997196" lon="11.0744499"><ele>524.8</ele><time>2026-03-28T13:12:14.077Z</time></trkpt><trkpt lat="44.2997417" lon="11.0745802"><ele>523.2</ele><time>2026-03-28T13:12:15.081Z</time></trkpt><trkpt lat="44.2997473" lon="11.074724"><ele>521.6</ele><time>2026-03-28T13:12:16.07Z</time></trkpt><trkpt lat="44.2997431" lon="11.0748671"><ele>520.0</ele><time>2026-03-28T13:12:17.075Z</time></trkpt><trkpt lat="44.299728" lon="11.0749989"><ele>518.8</ele><time>2026-03-28T13:12:18.07Z</time></trkpt><trkpt lat="44.2996938" lon="11.0751217"><ele>517.6</ele><time>2026-03-28T13:12:19.082Z</time></trkpt><trkpt lat="44.299645" lon="11.075232"><ele>516.4</ele><time>2026-03-28T13:12:20.087Z</time></trkpt><trkpt lat="44.2995768" lon="11.0753398"><ele>515.2</ele><time>2026-03-28T13:12:21.085Z</time></trkpt><trkpt lat="44.2995063" lon="11.0754551"><ele>514.0</ele><time>2026-03-28T13:12:22.074Z</time></trkpt><trkpt lat="44.2994433" lon="11.075585"><ele>514.0</ele><time>2026-03-28T13:12:23.085Z</time></trkpt><trkpt lat="44.2993874" lon="11.0757215"><ele>514.0</ele><time>2026-03-28T13:12:24.069Z</time></trkpt><trkpt lat="44.2993442" lon="11.0758606"><ele>514.0</ele><time>2026-03-28T13:12:25.069Z</time></trkpt><trkpt lat="44.2993202" lon="11.0759952"><ele>514.0</ele><time>2026-03-28T13:12:26.074Z</time></trkpt><trkpt lat="44.299312" lon="11.0761204"><ele>514.0</ele><time>2026-03-28T13:12:27.079Z</time></trkpt><trkpt lat="44.2993263" lon="11.0762208"><ele>514.8</ele><time>2026-03-28T13:12:28.084Z</time></trkpt><trkpt lat="44.2993629" lon="11.0763009"><ele>515.5999999999999</ele><time>2026-03-28T13:12:29.064Z</time></trkpt><trkpt lat="44.2994262" lon="11.0763733"><ele>516.4</ele><time>2026-03-28T13:12:30.081Z</time></trkpt><trkpt lat="44.2995173" lon="11.0764397"><ele>517.1999999999999</ele><time>2026-03-28T13:12:31.078Z</time></trkpt><trkpt lat="44.29962" lon="11.0765026"><ele>518.0</ele><time>2026-03-28T13:12:32.074Z</time></trkpt><trkpt lat="44.2997135" lon="11.0765647"><ele>521.25</ele><time>2026-03-28T13:12:33.067Z</time></trkpt><trkpt lat="44.299815" lon="11.076636"><ele>524.5</ele><time>2026-03-28T13:12:34.079Z</time></trkpt><trkpt lat="44.2999207" lon="11.0767107"><ele>527.75</ele><time>2026-03-28T13:12:35.081Z</time></trkpt><trkpt lat="44.3000281" lon="11.0767815"><ele>531.0</ele><time>2026-03-28T13:12:36.075Z</time></trkpt><trkpt lat="44.3001247" lon="11.0768488"><ele>531.0</ele><time>2026-03-28T13:12:37.082Z</time></trkpt><trkpt lat="44.3001936" lon="11.0769227"><ele>531.0</ele><time>2026-03-28T13:12:38.074Z</time></trkpt><trkpt lat="44.3002558" lon="11.0770379"><ele>531.0</ele><time>2026-03-28T13:12:39.066Z</time></trkpt><trkpt lat="44.3002893" lon="11.077173"><ele>531.0</ele><time>2026-03-28T13:12:40.068Z</time></trkpt><trkpt lat="44.3003093" lon="11.0773382"><ele>531.0</ele><time>2026-03-28T13:12:41.086Z</time></trkpt><trkpt lat="44.3003178" lon="11.0775138"><ele>526.75</ele><time>2026-03-28T13:12:42.086Z</time></trkpt><trkpt lat="44.3003335" lon="11.0776959"><ele>522.5</ele><time>2026-03-28T13:12:43.088Z</time></trkpt><trkpt lat="44.3003714" lon="11.0778656"><ele>518.25</ele><time>2026-03-28T13:12:44.074Z</time></trkpt><trkpt lat="44.3004298" lon="11.078037"><ele>514.0</ele><time>2026-03-28T13:12:45.077Z</time></trkpt><trkpt lat="44.3004919" lon="11.0781946"><ele>511.2</ele><time>2026-03-28T13:12:46.067Z</time></trkpt><trkpt lat="44.3005449" lon="11.078333"><ele>508.4</ele><time>2026-03-28T13:12:47.073Z</time></trkpt><trkpt lat="44.3005789" lon="11.0784724"><ele>505.6</ele><time>2026-03-28T13:12:48.085Z</time></trkpt><trkpt lat="44.3005772" lon="11.0786017"><ele>502.8</ele><time>2026-03-28T13:12:49.087Z</time></trkpt><trkpt lat="44.3005454" lon="11.0787251"><ele>500.0</ele><time>2026-03-28T13:12:50.062Z</time></trkpt><trkpt lat="44.3004882" lon="11.0788771"><ele>500.0</ele><time>2026-03-28T13:12:51.065Z</time></trkpt><trkpt lat="44.3004241" lon="11.0790332"><ele>500.0</ele><time>2026-03-28T13:12:52.074Z</time></trkpt><trkpt lat="44.3003664" lon="11.079201"><ele>500.0</ele><time>2026-03-28T13:12:53.071Z</time></trkpt><trkpt lat="44.3003062" lon="11.0793581"><ele>500.0</ele><time>2026-03-28T13:12:54.075Z</time></trkpt><trkpt lat="44.3002467" lon="11.0795053"><ele>500.2</ele><time>2026-03-28T13:12:55.103Z</time></trkpt><trkpt lat="44.3001975" lon="11.0796349"><ele>500.4</ele><time>2026-03-28T13:12:56.075Z</time></trkpt><trkpt lat="44.300172" lon="11.0797689"><ele>500.6</ele><time>2026-03-28T13:12:57.087Z</time></trkpt><trkpt lat="44.3001801" lon="11.0798789"><ele>500.8</ele><time>2026-03-28T13:12:58.075Z</time></trkpt><trkpt lat="44.3002221" lon="11.0799977"><ele>501.0</ele><time>2026-03-28T13:12:59.1Z</time></trkpt><trkpt lat="44.3002797" lon="11.0801034"><ele>501.20000000000005</ele><time>2026-03-28T13:13:00.075Z</time></trkpt><trkpt lat="44.3003511" lon="11.0802154"><ele>501.40000000000003</ele><time>2026-03-28T13:13:01.085Z</time></trkpt><trkpt lat="44.3004247" lon="11.080325"><ele>501.6</ele><time>2026-03-28T13:13:02.089Z</time></trkpt><trkpt lat="44.3004908" lon="11.0804404"><ele>501.8</ele><time>2026-03-28T13:13:03.072Z</time></trkpt><trkpt lat="44.3005519" lon="11.0805684"><ele>502.0</ele><time>2026-03-28T13:13:04.096Z</time></trkpt><trkpt lat="44.3005946" lon="11.08069"><ele>505.33333333333337</ele><time>2026-03-28T13:13:05.084Z</time></trkpt><trkpt lat="44.3006201" lon="11.0807909"><ele>508.6666666666667</ele><time>2026-03-28T13:13:06.063Z</time></trkpt><trkpt lat="44.300637" lon="11.0808842"><ele>512.0</ele><time>2026-03-28T13:13:07.091Z</time></trkpt><trkpt lat="44.3006576" lon="11.0810073"><ele>515.3333333333334</ele><time>2026-03-28T13:13:09.109Z</time></trkpt><trkpt lat="44.3006702" lon="11.0811231"><ele>518.6666666666666</ele><time>2026-03-28T13:13:12.072Z</time></trkpt><trkpt lat="44.3006787" lon="11.0812109"><ele>522.0</ele><time>2026-03-28T13:13:25.082Z</time></trkpt><trkpt lat="44.3007162" lon="11.0813443"><ele>522.0</ele><time>2026-03-28T13:13:27.09Z</time></trkpt><trkpt lat="44.3007511" lon="11.0814342"><ele>522.0</ele><time>2026-03-28T13:13:28.101Z</time></trkpt><trkpt lat="44.3007966" lon="11.0815197"><ele>522.0</ele><time>2026-03-28T13:13:29.073Z</time></trkpt><trkpt lat="44.3008628" lon="11.0816042"><ele>522.0</ele><time>2026-03-28T13:13:30.07Z</time></trkpt><trkpt lat="44.3009363" lon="11.0816724"><ele>522.0</ele><time>2026-03-28T13:13:31.062Z</time></trkpt><trkpt lat="44.3010198" lon="11.0817164"><ele>522.0</ele><time>2026-03-28T13:13:32.088Z</time></trkpt><trkpt lat="44.3010935" lon="11.0817245"><ele>521.0</ele><time>2026-03-28T13:13:33.083Z</time></trkpt><trkpt lat="44.3011661" lon="11.0817047"><ele>520.0</ele><time>2026-03-28T13:13:34.089Z</time></trkpt><trkpt lat="44.3012337" lon="11.0816685"><ele>519.0</ele><time>2026-03-28T13:13:35.074Z</time></trkpt><trkpt lat="44.3013002" lon="11.0816252"><ele>518.0</ele><time>2026-03-28T13:13:36.086Z</time></trkpt><trkpt lat="44.3014075" lon="11.0816268"><ele>517.0</ele><time>2026-03-28T13:13:38.09Z</time></trkpt><trkpt lat="44.3014589" lon="11.0817505"><ele>516.0</ele><time>2026-03-28T13:13:40.08Z</time></trkpt><trkpt lat="44.3013907" lon="11.0819197"><ele>513.2</ele><time>2026-03-28T13:13:42.078Z</time></trkpt><trkpt lat="44.3013196" lon="11.0820187"><ele>510.40000000000003</ele><time>2026-03-28T13:13:43.084Z</time></trkpt><trkpt lat="44.3012435" lon="11.0821387"><ele>507.6</ele><time>2026-03-28T13:13:44.074Z</time></trkpt><trkpt lat="44.3011719" lon="11.0822603"><ele>504.8</ele><time>2026-03-28T13:13:45.075Z</time></trkpt><trkpt lat="44.3010855" lon="11.0823705"><ele>502.0</ele><time>2026-03-28T13:13:46.102Z</time></trkpt><trkpt lat="44.300986" lon="11.0824477"><ele>501.40000000000003</ele><time>2026-03-28T13:13:47.084Z</time></trkpt><trkpt lat="44.3008735" lon="11.0824957"><ele>500.80000000000007</ele><time>2026-03-28T13:13:48.076Z</time></trkpt><trkpt lat="44.3007637" lon="11.082533"><ele>500.2</ele><time>2026-03-28T13:13:49.087Z</time></trkpt><trkpt lat="44.3006659" lon="11.0825791"><ele>499.6</ele><time>2026-03-28T13:13:50.079Z</time></trkpt><trkpt lat="44.3005816" lon="11.0826562"><ele>499.0</ele><time>2026-03-28T13:13:51.086Z</time></trkpt><trkpt lat="44.3005094" lon="11.0827552"><ele>494.6</ele><time>2026-03-28T13:13:52.086Z</time></trkpt><trkpt lat="44.3004477" lon="11.0828774"><ele>490.2</ele><time>2026-03-28T13:13:53.086Z</time></trkpt><trkpt lat="44.3004118" lon="11.083018"><ele>485.80000000000007</ele><time>2026-03-28T13:13:54.08Z</time></trkpt><trkpt lat="44.3003978" lon="11.0831721"><ele>481.40000000000003</ele><time>2026-03-28T13:13:55.076Z</time></trkpt><trkpt lat="44.3004013" lon="11.0833291"><ele>477.0</ele><time>2026-03-28T13:13:56.079Z</time></trkpt><trkpt lat="44.3004015" lon="11.0834816"><ele>477.0</ele><time>2026-03-28T13:13:57.076Z</time></trkpt><trkpt lat="44.30039" lon="11.0836287"><ele>477.00000000000006</ele><time>2026-03-28T13:13:58.067Z</time></trkpt><trkpt lat="44.3003626" lon="11.0837755"><ele>477.00000000000006</ele><time>2026-03-28T13:13:59.078Z</time></trkpt><trkpt lat="44.300321" lon="11.0839092"><ele>477.0</ele><time>2026-03-28T13:14:00.07Z</time></trkpt><trkpt lat="44.3002734" lon="11.0840321"><ele>477.0</ele><time>2026-03-28T13:14:01.067Z</time></trkpt><trkpt lat="44.3002204" lon="11.0841475"><ele>478.0</ele><time>2026-03-28T13:14:02.085Z</time></trkpt><trkpt lat="44.300169" lon="11.0842586"><ele>479.00000000000006</ele><time>2026-03-28T13:14:03.068Z</time></trkpt><trkpt lat="44.3001264" lon="11.0843743"><ele>480.00000000000006</ele><time>2026-03-28T13:14:04.069Z</time></trkpt><trkpt lat="44.3000998" lon="11.0845022"><ele>481.0</ele><time>2026-03-28T13:14:05.079Z</time></trkpt><trkpt lat="44.3000872" lon="11.0846398"><ele>482.0</ele><time>2026-03-28T13:14:06.081Z</time></trkpt><trkpt lat="44.3000835" lon="11.0847836"><ele>482.0</ele><time>2026-03-28T13:14:07.082Z</time></trkpt><trkpt lat="44.3000754" lon="11.0849208"><ele>482.00000000000006</ele><time>2026-03-28T13:14:08.066Z</time></trkpt><trkpt lat="44.3000512" lon="11.0850557"><ele>482.00000000000006</ele><time>2026-03-28T13:14:09.083Z</time></trkpt><trkpt lat="44.3000097" lon="11.0851853"><ele>482.0</ele><time>2026-03-28T13:14:10.074Z</time></trkpt><trkpt lat="44.2999476" lon="11.0853145"><ele>482.0</ele><time>2026-03-28T13:14:11.085Z</time></trkpt><trkpt lat="44.299875" lon="11.0854328"><ele>482.20000000000005</ele><time>2026-03-28T13:14:12.073Z</time></trkpt><trkpt lat="44.2997972" lon="11.0855518"><ele>482.40000000000003</ele><time>2026-03-28T13:14:13.068Z</time></trkpt><trkpt lat="44.2997339" lon="11.0856649"><ele>482.59999999999997</ele><time>2026-03-28T13:14:14.082Z</time></trkpt><trkpt lat="44.2996997" lon="11.0857742"><ele>482.79999999999995</ele><time>2026-03-28T13:14:15.076Z</time></trkpt><trkpt lat="44.2996994" lon="11.0858779"><ele>483.0</ele><time>2026-03-28T13:14:16.069Z</time></trkpt><trkpt lat="44.2997322" lon="11.0859724"><ele>483.2</ele><time>2026-03-28T13:14:17.073Z</time></trkpt><trkpt lat="44.2997974" lon="11.086046"><ele>483.4</ele><time>2026-03-28T13:14:18.071Z</time></trkpt><trkpt lat="44.2998909" lon="11.0861158"><ele>483.59999999999997</ele><time>2026-03-28T13:14:19.083Z</time></trkpt><trkpt lat="44.2999908" lon="11.086171"><ele>483.79999999999995</ele><time>2026-03-28T13:14:20.071Z</time></trkpt><trkpt lat="44.3000978" lon="11.0862152"><ele>484.0</ele><time>2026-03-28T13:14:21.068Z</time></trkpt><trkpt lat="44.3001901" lon="11.0862504"><ele>484.0</ele><time>2026-03-28T13:14:22.072Z</time></trkpt><trkpt lat="44.3002596" lon="11.0862915"><ele>484.0</ele><time>2026-03-28T13:14:23.078Z</time></trkpt><trkpt lat="44.3003106" lon="11.0864029"><ele>484.0</ele><time>2026-03-28T13:14:25.079Z</time></trkpt><trkpt lat="44.3001933" lon="11.0865399"><ele>484.0</ele><time>2026-03-28T13:14:27.071Z</time></trkpt><trkpt lat="44.3000973" lon="11.0865979"><ele>484.0</ele><time>2026-03-28T13:14:28.072Z</time></trkpt><trkpt lat="44.2999965" lon="11.086687"><ele>484.5</ele><time>2026-03-28T13:14:29.07Z</time></trkpt><trkpt lat="44.2998991" lon="11.0868092"><ele>485.0</ele><time>2026-03-28T13:14:30.073Z</time></trkpt><trkpt lat="44.2998044" lon="11.086947"><ele>485.5</ele><time>2026-03-28T13:14:31.074Z</time></trkpt><trkpt lat="44.2997067" lon="11.0870852"><ele>486.0</ele><time>2026-03-28T13:14:32.092Z</time></trkpt><trkpt lat="44.2996135" lon="11.0871892"><ele>480.5</ele><time>2026-03-28T13:14:33.066Z</time></trkpt><trkpt lat="44.2995077" lon="11.087258"><ele>475.0</ele><time>2026-03-28T13:14:34.074Z</time></trkpt><trkpt lat="44.2993974" lon="11.0873046"><ele>469.5</ele><time>2026-03-28T13:14:35.082Z</time></trkpt><trkpt lat="44.2992785" lon="11.0873269"><ele>464.0</ele><time>2026-03-28T13:14:36.081Z</time></trkpt><trkpt lat="44.2991572" lon="11.0873408"><ele>464.0</ele><time>2026-03-28T13:14:37.081Z</time></trkpt><trkpt lat="44.2990391" lon="11.0873414"><ele>464.0</ele><time>2026-03-28T13:14:38.079Z</time></trkpt><trkpt lat="44.2989234" lon="11.0873293"><ele>464.0</ele><time>2026-03-28T13:14:39.089Z</time></trkpt><trkpt lat="44.2988122" lon="11.0873118"><ele>464.0</ele><time>2026-03-28T13:14:40.079Z</time></trkpt><trkpt lat="44.2987082" lon="11.0872946"><ele>464.2</ele><time>2026-03-28T13:14:41.077Z</time></trkpt><trkpt lat="44.2986049" lon="11.0872808"><ele>464.4</ele><time>2026-03-28T13:14:42.074Z</time></trkpt><trkpt lat="44.2985069" lon="11.0872801"><ele>464.6</ele><time>2026-03-28T13:14:43.082Z</time></trkpt><trkpt lat="44.2984139" lon="11.0872962"><ele>464.8</ele><time>2026-03-28T13:14:44.085Z</time></trkpt><trkpt lat="44.2982839" lon="11.0873409"><ele>465.0</ele><time>2026-03-28T13:14:45.419Z</time></trkpt><trkpt lat="44.298156" lon="11.087485"><ele>461.0</ele><time>2026-03-28T13:14:47.128Z</time></trkpt><trkpt lat="44.2980815" lon="11.0875953"><ele>457.0</ele><time>2026-03-28T13:14:48.131Z</time></trkpt><trkpt lat="44.2980023" lon="11.0877359"><ele>453.0</ele><time>2026-03-28T13:14:49.13Z</time></trkpt><trkpt lat="44.2979281" lon="11.0878745"><ele>449.0</ele><time>2026-03-28T13:14:50.147Z</time></trkpt><trkpt lat="44.2978598" lon="11.0879998"><ele>449.0</ele><time>2026-03-28T13:14:51.13Z</time></trkpt><trkpt lat="44.2977921" lon="11.0881315"><ele>449.0</ele><time>2026-03-28T13:14:52.146Z</time></trkpt><trkpt lat="44.2977228" lon="11.08826"><ele>449.0</ele><time>2026-03-28T13:14:53.149Z</time></trkpt><trkpt lat="44.2976507" lon="11.0883847"><ele>449.0</ele><time>2026-03-28T13:14:54.129Z</time></trkpt><trkpt lat="44.297579" lon="11.0885062"><ele>450.6</ele><time>2026-03-28T13:14:55.133Z</time></trkpt><trkpt lat="44.2975091" lon="11.0886226"><ele>452.2</ele><time>2026-03-28T13:14:56.142Z</time></trkpt><trkpt lat="44.2974412" lon="11.0887307"><ele>453.80000000000007</ele><time>2026-03-28T13:14:57.145Z</time></trkpt><trkpt lat="44.2973868" lon="11.088835"><ele>455.40000000000003</ele><time>2026-03-28T13:14:58.132Z</time></trkpt><trkpt lat="44.2973559" lon="11.0889502"><ele>457.0</ele><time>2026-03-28T13:14:59.136Z</time></trkpt><trkpt lat="44.2973597" lon="11.089069"><ele>455.8</ele><time>2026-03-28T13:15:00.116Z</time></trkpt><trkpt lat="44.2974003" lon="11.0891972"><ele>454.6</ele><time>2026-03-28T13:15:01.134Z</time></trkpt><trkpt lat="44.2974625" lon="11.0893268"><ele>453.40000000000003</ele><time>2026-03-28T13:15:02.142Z</time></trkpt><trkpt lat="44.2975219" lon="11.0894609"><ele>452.20000000000005</ele><time>2026-03-28T13:15:03.137Z</time></trkpt><trkpt lat="44.297568" lon="11.0895981"><ele>451.0</ele><time>2026-03-28T13:15:04.131Z</time></trkpt><trkpt lat="44.2976023" lon="11.0897414"><ele>451.0</ele><time>2026-03-28T13:15:05.119Z</time></trkpt><trkpt lat="44.2976121" lon="11.0898853"><ele>451.0</ele><time>2026-03-28T13:15:06.081Z</time></trkpt><trkpt lat="44.297592" lon="11.090039"><ele>451.0</ele><time>2026-03-28T13:15:07.072Z</time></trkpt><trkpt lat="44.2975365" lon="11.0901889"><ele>451.0</ele><time>2026-03-28T13:15:08.071Z</time></trkpt><trkpt lat="44.2974547" lon="11.0903398"><ele>451.33333333333337</ele><time>2026-03-28T13:15:09.069Z</time></trkpt><trkpt lat="44.2973578" lon="11.0905299"><ele>451.66666666666663</ele><time>2026-03-28T13:15:10.381Z</time></trkpt><trkpt lat="44.2974209" lon="11.0907611"><ele>452.0</ele><time>2026-03-28T13:15:12.116Z</time></trkpt><trkpt lat="44.2974827" lon="11.0908877"><ele>452.75</ele><time>2026-03-28T13:15:13.144Z</time></trkpt><trkpt lat="44.2975602" lon="11.0910152"><ele>453.5</ele><time>2026-03-28T13:15:14.142Z</time></trkpt><trkpt lat="44.2976435" lon="11.091149"><ele>454.25</ele><time>2026-03-28T13:15:15.137Z</time></trkpt><trkpt lat="44.2977315" lon="11.0912839"><ele>455.0</ele><time>2026-03-28T13:15:16.142Z</time></trkpt><trkpt lat="44.2978186" lon="11.0914043"><ele>455.0</ele><time>2026-03-28T13:15:17.132Z</time></trkpt><trkpt lat="44.2979055" lon="11.091508"><ele>455.0</ele><time>2026-03-28T13:15:18.131Z</time></trkpt><trkpt lat="44.2979816" lon="11.0916"><ele>455.0</ele><time>2026-03-28T13:15:19.135Z</time></trkpt><trkpt lat="44.2980384" lon="11.0916892"><ele>455.0</ele><time>2026-03-28T13:15:20.148Z</time></trkpt><trkpt lat="44.298055" lon="11.0917788"><ele>455.0</ele><time>2026-03-28T13:15:21.143Z</time></trkpt><trkpt lat="44.2979865" lon="11.0919213"><ele>454.0</ele><time>2026-03-28T13:15:23.136Z</time></trkpt><trkpt lat="44.2979129" lon="11.0919298"><ele>453.0</ele><time>2026-03-28T13:15:24.144Z</time></trkpt><trkpt lat="44.2978305" lon="11.091899"><ele>452.0</ele><time>2026-03-28T13:15:25.135Z</time></trkpt><trkpt lat="44.2977482" lon="11.0918517"><ele>451.0</ele><time>2026-03-28T13:15:26.069Z</time></trkpt><trkpt lat="44.297649" lon="11.0917965"><ele>450.0</ele><time>2026-03-28T13:15:27.084Z</time></trkpt><trkpt lat="44.2975374" lon="11.0917578"><ele>450.0</ele><time>2026-03-28T13:15:28.085Z</time></trkpt><trkpt lat="44.2974168" lon="11.091734"><ele>450.0</ele><time>2026-03-28T13:15:29.077Z</time></trkpt><trkpt lat="44.297283" lon="11.091719"><ele>450.0</ele><time>2026-03-28T13:15:30.068Z</time></trkpt><trkpt lat="44.2971462" lon="11.0917056"><ele>450.0</ele><time>2026-03-28T13:15:31.073Z</time></trkpt><trkpt lat="44.2970176" lon="11.0917007"><ele>445.75</ele><time>2026-03-28T13:15:32.081Z</time></trkpt><trkpt lat="44.296881" lon="11.0917013"><ele>441.5</ele><time>2026-03-28T13:15:33.071Z</time></trkpt><trkpt lat="44.2967507" lon="11.0917068"><ele>437.25</ele><time>2026-03-28T13:15:34.098Z</time></trkpt><trkpt lat="44.2966322" lon="11.0917036"><ele>433.0</ele><time>2026-03-28T13:15:35.072Z</time></trkpt><trkpt lat="44.2965172" lon="11.0917095"><ele>433.0</ele><time>2026-03-28T13:15:36.087Z</time></trkpt><trkpt lat="44.2964262" lon="11.0917497"><ele>432.99999999999994</ele><time>2026-03-28T13:15:37.073Z</time></trkpt><trkpt lat="44.2963432" lon="11.0918253"><ele>432.99999999999994</ele><time>2026-03-28T13:15:38.074Z</time></trkpt><trkpt lat="44.2962806" lon="11.0919331"><ele>433.0</ele><time>2026-03-28T13:15:39.083Z</time></trkpt><trkpt lat="44.2962346" lon="11.0920622"><ele>433.0</ele><time>2026-03-28T13:15:40.081Z</time></trkpt><trkpt lat="44.2962059" lon="11.0922226"><ele>429.5</ele><time>2026-03-28T13:15:41.089Z</time></trkpt><trkpt lat="44.2961879" lon="11.0923971"><ele>426.0</ele><time>2026-03-28T13:15:42.095Z</time></trkpt><trkpt lat="44.2961824" lon="11.0925645"><ele>422.5</ele><time>2026-03-28T13:15:43.071Z</time></trkpt><trkpt lat="44.2962045" lon="11.0927246"><ele>419.0</ele><time>2026-03-28T13:15:44.079Z</time></trkpt><trkpt lat="44.2962486" lon="11.0928608"><ele>418.99999999999994</ele><time>2026-03-28T13:15:45.08Z</time></trkpt><trkpt lat="44.2962942" lon="11.0929901"><ele>419.0</ele><time>2026-03-28T13:15:46.083Z</time></trkpt><trkpt lat="44.2963243" lon="11.0931009"><ele>419.0</ele><time>2026-03-28T13:15:47.081Z</time></trkpt><trkpt lat="44.2962802" lon="11.0932199"><ele>419.0</ele><time>2026-03-28T13:15:49.08Z</time></trkpt><trkpt lat="44.2962069" lon="11.0932532"><ele>418.99999999999994</ele><time>2026-03-28T13:15:50.095Z</time></trkpt><trkpt lat="44.2961325" lon="11.0932157"><ele>419.0</ele><time>2026-03-28T13:15:51.087Z</time></trkpt><trkpt lat="44.2960545" lon="11.0931265"><ele>419.0</ele><time>2026-03-28T13:15:52.097Z</time></trkpt><trkpt lat="44.295969" lon="11.0930006"><ele>419.0</ele><time>2026-03-28T13:15:53.102Z</time></trkpt><trkpt lat="44.2958837" lon="11.0929051"><ele>419.0</ele><time>2026-03-28T13:15:54.076Z</time></trkpt><trkpt lat="44.2957907" lon="11.0928348"><ele>419.0</ele><time>2026-03-28T13:15:55.089Z</time></trkpt><trkpt lat="44.2957031" lon="11.0928159"><ele>419.0</ele><time>2026-03-28T13:15:56.082Z</time></trkpt><trkpt lat="44.2956022" lon="11.0928576"><ele>415.5</ele><time>2026-03-28T13:15:57.092Z</time></trkpt><trkpt lat="44.2955153" lon="11.0929416"><ele>412.0</ele><time>2026-03-28T13:15:58.074Z</time></trkpt><trkpt lat="44.2954465" lon="11.0930691"><ele>408.5</ele><time>2026-03-28T13:15:59.085Z</time></trkpt><trkpt lat="44.2953876" lon="11.0932204"><ele>405.0</ele><time>2026-03-28T13:16:00.071Z</time></trkpt><trkpt lat="44.2953211" lon="11.0933855"><ele>405.0</ele><time>2026-03-28T13:16:01.088Z</time></trkpt><trkpt lat="44.2952493" lon="11.0935538"><ele>405.0</ele><time>2026-03-28T13:16:02.075Z</time></trkpt><trkpt lat="44.2951698" lon="11.0937265"><ele>405.0</ele><time>2026-03-28T13:16:03.071Z</time></trkpt><trkpt lat="44.2950813" lon="11.0938932"><ele>405.0</ele><time>2026-03-28T13:16:04.083Z</time></trkpt><trkpt lat="44.2949899" lon="11.094047"><ele>401.5</ele><time>2026-03-28T13:16:05.068Z</time></trkpt><trkpt lat="44.2948884" lon="11.0941832"><ele>398.0</ele><time>2026-03-28T13:16:06.083Z</time></trkpt><trkpt lat="44.2947817" lon="11.0942951"><ele>394.5</ele><time>2026-03-28T13:16:07.105Z</time></trkpt><trkpt lat="44.2946744" lon="11.0943803"><ele>391.0</ele><time>2026-03-28T13:16:08.079Z</time></trkpt><trkpt lat="44.2945669" lon="11.0944522"><ele>391.0</ele><time>2026-03-28T13:16:09.071Z</time></trkpt><trkpt lat="44.29446" lon="11.0945345"><ele>391.0</ele><time>2026-03-28T13:16:10.073Z</time></trkpt><trkpt lat="44.294361" lon="11.0946548"><ele>391.0</ele><time>2026-03-28T13:16:11.072Z</time></trkpt><trkpt lat="44.2942587" lon="11.0948338"><ele>391.0</ele><time>2026-03-28T13:16:12.09Z</time></trkpt><trkpt lat="44.2941488" lon="11.095026"><ele>397.33333333333337</ele><time>2026-03-28T13:16:13.072Z</time></trkpt><trkpt lat="44.2940218" lon="11.0952351"><ele>403.66666666666663</ele><time>2026-03-28T13:16:14.097Z</time></trkpt><trkpt lat="44.2938932" lon="11.0954383"><ele>410.0</ele><time>2026-03-28T13:16:15.081Z</time></trkpt><trkpt lat="44.293748" lon="11.0956234"><ele>403.3333333333333</ele><time>2026-03-28T13:16:16.065Z</time></trkpt><trkpt lat="44.2936054" lon="11.0957931"><ele>396.66666666666663</ele><time>2026-03-28T13:16:17.065Z</time></trkpt><trkpt lat="44.2935242" lon="11.0959632"><ele>390.0</ele><time>2026-03-28T13:16:18.066Z</time></trkpt><trkpt lat="44.2934329" lon="11.0961617"><ele>390.0</ele><time>2026-03-28T13:16:19.088Z</time></trkpt><trkpt lat="44.293345" lon="11.0963505"><ele>390.0</ele><time>2026-03-28T13:16:20.081Z</time></trkpt><trkpt lat="44.293249" lon="11.0965404"><ele>390.0</ele><time>2026-03-28T13:16:21.094Z</time></trkpt><trkpt lat="44.2931564" lon="11.0967154"><ele>388.0</ele><time>2026-03-28T13:16:22.084Z</time></trkpt><trkpt lat="44.2930802" lon="11.0968963"><ele>386.0</ele><time>2026-03-28T13:16:23.094Z</time></trkpt><trkpt lat="44.2930419" lon="11.0970591"><ele>384.0</ele><time>2026-03-28T13:16:24.067Z</time></trkpt><trkpt lat="44.2930101" lon="11.0972552"><ele>382.0</ele><time>2026-03-28T13:16:25.074Z</time></trkpt><trkpt lat="44.2929808" lon="11.0974686"><ele>382.0</ele><time>2026-03-28T13:16:26.065Z</time></trkpt><trkpt lat="44.2929415" lon="11.0976909"><ele>382.0</ele><time>2026-03-28T13:16:27.078Z</time></trkpt><trkpt lat="44.2928871" lon="11.0978959"><ele>382.0</ele><time>2026-03-28T13:16:28.078Z</time></trkpt><trkpt lat="44.2928491" lon="11.098102"><ele>383.0</ele><time>2026-03-28T13:16:29.089Z</time></trkpt><trkpt lat="44.2928141" lon="11.0983019"><ele>384.0</ele><time>2026-03-28T13:16:30.071Z</time></trkpt><trkpt lat="44.2927655" lon="11.0985083"><ele>385.0</ele><time>2026-03-28T13:16:31.077Z</time></trkpt><trkpt lat="44.2927047" lon="11.0987108"><ele>385.0</ele><time>2026-03-28T13:16:32.077Z</time></trkpt><trkpt lat="44.2926414" lon="11.0989054"><ele>385.0</ele><time>2026-03-28T13:16:33.101Z</time></trkpt><trkpt lat="44.2925803" lon="11.0990776"><ele>385.0</ele><time>2026-03-28T13:16:34.068Z</time></trkpt><trkpt lat="44.2925059" lon="11.0992427"><ele>385.0</ele><time>2026-03-28T13:16:35.084Z</time></trkpt><trkpt lat="44.2924217" lon="11.0993977"><ele>389.0</ele><time>2026-03-28T13:16:36.075Z</time></trkpt><trkpt lat="44.2923251" lon="11.0995501"><ele>393.0</ele><time>2026-03-28T13:16:37.08Z</time></trkpt><trkpt lat="44.2922286" lon="11.0996928"><ele>397.0</ele><time>2026-03-28T13:16:38.086Z</time></trkpt><trkpt lat="44.2921272" lon="11.099815"><ele>401.0</ele><time>2026-03-28T13:16:39.086Z</time></trkpt><trkpt lat="44.292019" lon="11.0999115"><ele>398.75</ele><time>2026-03-28T13:16:40.085Z</time></trkpt><trkpt lat="44.2918996" lon="11.1000023"><ele>396.5</ele><time>2026-03-28T13:16:41.084Z</time></trkpt><trkpt lat="44.2917847" lon="11.1001124"><ele>394.25</ele><time>2026-03-28T13:16:42.099Z</time></trkpt><trkpt lat="44.2916666" lon="11.100242"><ele>392.0</ele><time>2026-03-28T13:16:43.078Z</time></trkpt><trkpt lat="44.2915386" lon="11.1003861"><ele>387.0</ele><time>2026-03-28T13:16:44.08Z</time></trkpt><trkpt lat="44.2914001" lon="11.1005377"><ele>382.0</ele><time>2026-03-28T13:16:45.096Z</time></trkpt><trkpt lat="44.2912568" lon="11.1006853"><ele>377.0</ele><time>2026-03-28T13:16:46.087Z</time></trkpt><trkpt lat="44.2911098" lon="11.100837"><ele>377.0</ele><time>2026-03-28T13:16:47.078Z</time></trkpt><trkpt lat="44.2909639" lon="11.1009871"><ele>377.0</ele><time>2026-03-28T13:16:48.071Z</time></trkpt><trkpt lat="44.2908199" lon="11.1011439"><ele>377.0</ele><time>2026-03-28T13:16:49.081Z</time></trkpt><trkpt lat="44.2906873" lon="11.1012868"><ele>377.75</ele><time>2026-03-28T13:16:50.069Z</time></trkpt><trkpt lat="44.2905518" lon="11.1014114"><ele>378.5</ele><time>2026-03-28T13:16:51.085Z</time></trkpt><trkpt lat="44.2904184" lon="11.1015017"><ele>379.25</ele><time>2026-03-28T13:16:52.081Z</time></trkpt><trkpt lat="44.2903029" lon="11.1015844"><ele>380.0</ele><time>2026-03-28T13:16:53.074Z</time></trkpt><trkpt lat="44.290208" lon="11.1016745"><ele>380.0</ele><time>2026-03-28T13:16:54.065Z</time></trkpt><trkpt lat="44.2901425" lon="11.1017841"><ele>380.0</ele><time>2026-03-28T13:16:55.082Z</time></trkpt><trkpt lat="44.2901141" lon="11.1019001"><ele>380.0</ele><time>2026-03-28T13:16:56.076Z</time></trkpt><trkpt lat="44.2901209" lon="11.102044"><ele>380.0</ele><time>2026-03-28T13:16:57.074Z</time></trkpt><trkpt lat="44.2901734" lon="11.1021644"><ele>380.0</ele><time>2026-03-28T13:16:58.089Z</time></trkpt><trkpt lat="44.2902652" lon="11.1022657"><ele>380.0</ele><time>2026-03-28T13:16:59.087Z</time></trkpt><trkpt lat="44.2903729" lon="11.1023655"><ele>380.0</ele><time>2026-03-28T13:17:00.064Z</time></trkpt><trkpt lat="44.2904965" lon="11.1024456"><ele>380.0</ele><time>2026-03-28T13:17:01.081Z</time></trkpt><trkpt lat="44.2906203" lon="11.102498"><ele>380.0</ele><time>2026-03-28T13:17:02.098Z</time></trkpt><trkpt lat="44.2907292" lon="11.1025376"><ele>382.6666666666667</ele><time>2026-03-28T13:17:03.071Z</time></trkpt><trkpt lat="44.2908253" lon="11.1025841"><ele>385.33333333333337</ele><time>2026-03-28T13:17:04.078Z</time></trkpt><trkpt lat="44.2908811" lon="11.1026423"><ele>388.0</ele><time>2026-03-28T13:17:05.078Z</time></trkpt><trkpt lat="44.290894" lon="11.1027312"><ele>390.6666666666667</ele><time>2026-03-28T13:17:06.074Z</time></trkpt><trkpt lat="44.2908683" lon="11.1028268"><ele>393.3333333333333</ele><time>2026-03-28T13:17:07.068Z</time></trkpt><trkpt lat="44.2908055" lon="11.1028802"><ele>396.0</ele><time>2026-03-28T13:17:08.076Z</time></trkpt><trkpt lat="44.2907147" lon="11.1028902"><ele>396.0</ele><time>2026-03-28T13:17:09.084Z</time></trkpt><trkpt lat="44.2905989" lon="11.1028611"><ele>396.0</ele><time>2026-03-28T13:17:10.06Z</time></trkpt><trkpt lat="44.2904743" lon="11.1028147"><ele>396.0</ele><time>2026-03-28T13:17:11.085Z</time></trkpt><trkpt lat="44.2903411" lon="11.1027692"><ele>396.0</ele><time>2026-03-28T13:17:12.068Z</time></trkpt><trkpt lat="44.2902085" lon="11.102723"><ele>391.6666666666667</ele><time>2026-03-28T13:17:13.082Z</time></trkpt><trkpt lat="44.2900756" lon="11.1026804"><ele>387.33333333333337</ele><time>2026-03-28T13:17:14.071Z</time></trkpt><trkpt lat="44.2899327" lon="11.1026592"><ele>383.0</ele><time>2026-03-28T13:17:15.085Z</time></trkpt><trkpt lat="44.2897456" lon="11.1026829"><ele>378.6666666666667</ele><time>2026-03-28T13:17:16.419Z</time></trkpt><trkpt lat="44.2895248" lon="11.1027212"><ele>374.3333333333333</ele><time>2026-03-28T13:17:18.161Z</time></trkpt><trkpt lat="44.2893923" lon="11.10272"><ele>370.0</ele><time>2026-03-28T13:17:19.123Z</time></trkpt><trkpt lat="44.289234" lon="11.1026958"><ele>370.0</ele><time>2026-03-28T13:17:20.13Z</time></trkpt><trkpt lat="44.2890625" lon="11.1026374"><ele>370.0</ele><time>2026-03-28T13:17:21.129Z</time></trkpt><trkpt lat="44.2889028" lon="11.1025965"><ele>370.0</ele><time>2026-03-28T13:17:22.122Z</time></trkpt><trkpt lat="44.2887525" lon="11.1025666"><ele>368.0</ele><time>2026-03-28T13:17:23.138Z</time></trkpt><trkpt lat="44.288623" lon="11.1025463"><ele>366.0</ele><time>2026-03-28T13:17:24.148Z</time></trkpt><trkpt lat="44.2885196" lon="11.102512"><ele>364.0</ele><time>2026-03-28T13:17:25.131Z</time></trkpt><trkpt lat="44.2884414" lon="11.1024484"><ele>362.0</ele><time>2026-03-28T13:17:26.119Z</time></trkpt><trkpt lat="44.2883967" lon="11.1023519"><ele>360.0</ele><time>2026-03-28T13:17:27.155Z</time></trkpt><trkpt lat="44.2883871" lon="11.1022301"><ele>358.5</ele><time>2026-03-28T13:17:28.136Z</time></trkpt><trkpt lat="44.2884227" lon="11.1020809"><ele>357.0</ele><time>2026-03-28T13:17:29.133Z</time></trkpt><trkpt lat="44.2884872" lon="11.1019312"><ele>355.5</ele><time>2026-03-28T13:17:30.138Z</time></trkpt><trkpt lat="44.2885757" lon="11.1017805"><ele>354.0</ele><time>2026-03-28T13:17:31.137Z</time></trkpt><trkpt lat="44.288675" lon="11.1016273"><ele>355.25</ele><time>2026-03-28T13:17:32.142Z</time></trkpt><trkpt lat="44.2887653" lon="11.1014888"><ele>356.5</ele><time>2026-03-28T13:17:33.085Z</time></trkpt><trkpt lat="44.2888521" lon="11.1013571"><ele>357.75</ele><time>2026-03-28T13:17:34.072Z</time></trkpt><trkpt lat="44.288928" lon="11.1012466"><ele>359.0</ele><time>2026-03-28T13:17:35.076Z</time></trkpt><trkpt lat="44.2889784" lon="11.1011592"><ele>359.0</ele><time>2026-03-28T13:17:36.084Z</time></trkpt><trkpt lat="44.2890034" lon="11.1010709"><ele>359.0</ele><time>2026-03-28T13:17:37.08Z</time></trkpt><trkpt lat="44.2889826" lon="11.1009837"><ele>359.0</ele><time>2026-03-28T13:17:38.073Z</time></trkpt><trkpt lat="44.2889233" lon="11.1008928"><ele>359.0</ele><time>2026-03-28T13:17:39.07Z</time></trkpt><trkpt lat="44.2888418" lon="11.1008607"><ele>359.0</ele><time>2026-03-28T13:17:40.074Z</time></trkpt><trkpt lat="44.2887685" lon="11.100895"><ele>359.0</ele><time>2026-03-28T13:17:41.075Z</time></trkpt><trkpt lat="44.2887226" lon="11.10098"><ele>354.75</ele><time>2026-03-28T13:17:42.061Z</time></trkpt><trkpt lat="44.2886875" lon="11.1010981"><ele>350.5</ele><time>2026-03-28T13:17:43.076Z</time></trkpt><trkpt lat="44.2886228" lon="11.1012808"><ele>346.25</ele><time>2026-03-28T13:17:44.4Z</time></trkpt><trkpt lat="44.2884874" lon="11.1014511"><ele>342.0</ele><time>2026-03-28T13:17:46.132Z</time></trkpt><trkpt lat="44.2883852" lon="11.1015504"><ele>340.0</ele><time>2026-03-28T13:17:47.127Z</time></trkpt><trkpt lat="44.2882857" lon="11.101659"><ele>338.0</ele><time>2026-03-28T13:17:48.124Z</time></trkpt><trkpt lat="44.2881915" lon="11.1017935"><ele>336.0</ele><time>2026-03-28T13:17:49.155Z</time></trkpt><trkpt lat="44.2881146" lon="11.1019418"><ele>334.0</ele><time>2026-03-28T13:17:50.135Z</time></trkpt><trkpt lat="44.2880496" lon="11.1020963"><ele>334.0</ele><time>2026-03-28T13:17:51.133Z</time></trkpt><trkpt lat="44.2880071" lon="11.1022589"><ele>334.0</ele><time>2026-03-28T13:17:52.13Z</time></trkpt><trkpt lat="44.2879911" lon="11.102433"><ele>334.0</ele><time>2026-03-28T13:17:53.132Z</time></trkpt><trkpt lat="44.287995" lon="11.1026107"><ele>334.0</ele><time>2026-03-28T13:17:54.142Z</time></trkpt><trkpt lat="44.2880093" lon="11.1027684"><ele>334.25</ele><time>2026-03-28T13:17:55.135Z</time></trkpt><trkpt lat="44.2880409" lon="11.1029039"><ele>334.5</ele><time>2026-03-28T13:17:56.149Z</time></trkpt><trkpt lat="44.2881095" lon="11.1030004"><ele>334.75</ele><time>2026-03-28T13:17:57.144Z</time></trkpt><trkpt lat="44.2882162" lon="11.1030824"><ele>335.0</ele><time>2026-03-28T13:17:58.145Z</time></trkpt><trkpt lat="44.288335" lon="11.1031504"><ele>337.75</ele><time>2026-03-28T13:17:59.139Z</time></trkpt><trkpt lat="44.2884609" lon="11.1032357"><ele>340.5</ele><time>2026-03-28T13:18:00.144Z</time></trkpt><trkpt lat="44.2885823" lon="11.1033429"><ele>343.25</ele><time>2026-03-28T13:18:01.127Z</time></trkpt><trkpt lat="44.2886983" lon="11.1034624"><ele>346.0</ele><time>2026-03-28T13:18:02.092Z</time></trkpt><trkpt lat="44.2887988" lon="11.1035814"><ele>346.0</ele><time>2026-03-28T13:18:03.069Z</time></trkpt><trkpt lat="44.288889" lon="11.1036976"><ele>346.0</ele><time>2026-03-28T13:18:04.083Z</time></trkpt><trkpt lat="44.2889702" lon="11.1037851"><ele>346.0</ele><time>2026-03-28T13:18:05.087Z</time></trkpt><trkpt lat="44.2890568" lon="11.1038293"><ele>346.0</ele><time>2026-03-28T13:18:06.093Z</time></trkpt><trkpt lat="44.2891552" lon="11.1038427"><ele>346.0</ele><time>2026-03-28T13:18:07.081Z</time></trkpt><trkpt lat="44.2892259" lon="11.1038362"><ele>344.5</ele><time>2026-03-28T13:18:08.072Z</time></trkpt><trkpt lat="44.2892881" lon="11.1038513"><ele>343.0</ele><time>2026-03-28T13:18:09.099Z</time></trkpt><trkpt lat="44.2893323" lon="11.1039914"><ele>341.5</ele><time>2026-03-28T13:18:11.08Z</time></trkpt><trkpt lat="44.2892969" lon="11.1040859"><ele>340.0</ele><time>2026-03-28T13:18:12.075Z</time></trkpt><trkpt lat="44.2892306" lon="11.1041333"><ele>338.5</ele><time>2026-03-28T13:18:13.069Z</time></trkpt><trkpt lat="44.2891504" lon="11.1041341"><ele>337.0</ele><time>2026-03-28T13:18:14.079Z</time></trkpt><trkpt lat="44.2890685" lon="11.1041049"><ele>338.8</ele><time>2026-03-28T13:18:15.073Z</time></trkpt><trkpt lat="44.2889861" lon="11.1040721"><ele>340.6</ele><time>2026-03-28T13:18:16.073Z</time></trkpt><trkpt lat="44.2888967" lon="11.1040235"><ele>342.40000000000003</ele><time>2026-03-28T13:18:17.097Z</time></trkpt><trkpt lat="44.288817" lon="11.1039426"><ele>344.20000000000005</ele><time>2026-03-28T13:18:18.102Z</time></trkpt><trkpt lat="44.2887411" lon="11.1038465"><ele>346.0</ele><time>2026-03-28T13:18:19.082Z</time></trkpt><trkpt lat="44.2886591" lon="11.1037489"><ele>346.0</ele><time>2026-03-28T13:18:20.074Z</time></trkpt><trkpt lat="44.2885194" lon="11.1036543"><ele>346.0</ele><time>2026-03-28T13:18:21.414Z</time></trkpt><trkpt lat="44.2883175" lon="11.1036406"><ele>346.0</ele><time>2026-03-28T13:18:23.129Z</time></trkpt><trkpt lat="44.2881894" lon="11.1036423"><ele>341.75</ele><time>2026-03-28T13:18:24.147Z</time></trkpt><trkpt lat="44.2880672" lon="11.1036352"><ele>337.5</ele><time>2026-03-28T13:18:25.137Z</time></trkpt><trkpt lat="44.2879519" lon="11.1036119"><ele>333.25</ele><time>2026-03-28T13:18:26.136Z</time></trkpt><trkpt lat="44.2878456" lon="11.1035722"><ele>329.0</ele><time>2026-03-28T13:18:27.137Z</time></trkpt><trkpt lat="44.2877525" lon="11.1035098"><ele>329.0</ele><time>2026-03-28T13:18:28.143Z</time></trkpt><trkpt lat="44.2876777" lon="11.1034276"><ele>329.0</ele><time>2026-03-28T13:18:29.135Z</time></trkpt><trkpt lat="44.2876199" lon="11.103317"><ele>329.0</ele><time>2026-03-28T13:18:30.125Z</time></trkpt><trkpt lat="44.287573" lon="11.1031729"><ele>329.0</ele><time>2026-03-28T13:18:31.134Z</time></trkpt><trkpt lat="44.2875243" lon="11.1030149"><ele>329.0</ele><time>2026-03-28T13:18:32.124Z</time></trkpt><trkpt lat="44.2874619" lon="11.1028487"><ele>330.25</ele><time>2026-03-28T13:18:33.138Z</time></trkpt><trkpt lat="44.2873981" lon="11.1026912"><ele>331.5</ele><time>2026-03-28T13:18:34.128Z</time></trkpt><trkpt lat="44.2873405" lon="11.1025356"><ele>332.75</ele><time>2026-03-28T13:18:35.141Z</time></trkpt><trkpt lat="44.2872967" lon="11.1023953"><ele>334.0</ele><time>2026-03-28T13:18:36.079Z</time></trkpt><trkpt lat="44.2872695" lon="11.1022488"><ele>334.0</ele><time>2026-03-28T13:18:37.071Z</time></trkpt><trkpt lat="44.2872707" lon="11.1021125"><ele>334.0</ele><time>2026-03-28T13:18:38.077Z</time></trkpt><trkpt lat="44.2873007" lon="11.1019972"><ele>334.0</ele><time>2026-03-28T13:18:39.067Z</time></trkpt><trkpt lat="44.287313" lon="11.1018916"><ele>334.0</ele><time>2026-03-28T13:18:40.074Z</time></trkpt><trkpt lat="44.2872941" lon="11.101803"><ele>334.0</ele><time>2026-03-28T13:18:41.086Z</time></trkpt><trkpt lat="44.2871863" lon="11.1017592"><ele>334.0</ele><time>2026-03-28T13:18:43.071Z</time></trkpt><trkpt lat="44.2870764" lon="11.1018491"><ele>328.75</ele><time>2026-03-28T13:18:44.076Z</time></trkpt><trkpt lat="44.2870133" lon="11.1019575"><ele>323.5</ele><time>2026-03-28T13:18:45.075Z</time></trkpt><trkpt lat="44.2869699" lon="11.1020839"><ele>318.25</ele><time>2026-03-28T13:18:46.089Z</time></trkpt><trkpt lat="44.2869849" lon="11.1022446"><ele>313.0</ele><time>2026-03-28T13:18:47.096Z</time></trkpt><trkpt lat="44.2870634" lon="11.1024527"><ele>312.0</ele><time>2026-03-28T13:18:48.086Z</time></trkpt><trkpt lat="44.2871313" lon="11.1026485"><ele>311.0</ele><time>2026-03-28T13:18:49.09Z</time></trkpt><trkpt lat="44.2871768" lon="11.1028255"><ele>310.0</ele><time>2026-03-28T13:18:50.082Z</time></trkpt><trkpt lat="44.2872074" lon="11.102984"><ele>309.0</ele><time>2026-03-28T13:18:51.086Z</time></trkpt><trkpt lat="44.2872219" lon="11.1031351"><ele>308.5</ele><time>2026-03-28T13:18:52.074Z</time></trkpt><trkpt lat="44.2872104" lon="11.1032786"><ele>308.0</ele><time>2026-03-28T13:18:53.081Z</time></trkpt><trkpt lat="44.2871648" lon="11.1034255"><ele>307.5</ele><time>2026-03-28T13:18:54.07Z</time></trkpt><trkpt lat="44.2871061" lon="11.1035743"><ele>307.0</ele><time>2026-03-28T13:18:55.072Z</time></trkpt><trkpt lat="44.287055" lon="11.1037167"><ele>307.0</ele><time>2026-03-28T13:18:56.085Z</time></trkpt><trkpt lat="44.2870236" lon="11.1038507"><ele>307.0</ele><time>2026-03-28T13:18:57.066Z</time></trkpt><trkpt lat="44.2870198" lon="11.1039813"><ele>307.0</ele><time>2026-03-28T13:18:58.073Z</time></trkpt><trkpt lat="44.2870742" lon="11.1041006"><ele>307.0</ele><time>2026-03-28T13:18:59.083Z</time></trkpt><trkpt lat="44.2871625" lon="11.1041953"><ele>307.0</ele><time>2026-03-28T13:19:00.066Z</time></trkpt><trkpt lat="44.2873095" lon="11.1042578"><ele>309.0</ele><time>2026-03-28T13:19:01.072Z</time></trkpt><trkpt lat="44.2874594" lon="11.1042767"><ele>311.0</ele><time>2026-03-28T13:19:02.101Z</time></trkpt><trkpt lat="44.2875866" lon="11.1042762"><ele>313.0</ele><time>2026-03-28T13:19:03.099Z</time></trkpt><trkpt lat="44.2876932" lon="11.1042865"><ele>315.0</ele><time>2026-03-28T13:19:04.084Z</time></trkpt><trkpt lat="44.2877832" lon="11.1043112"><ele>315.0</ele><time>2026-03-28T13:19:05.075Z</time></trkpt><trkpt lat="44.2878489" lon="11.1043552"><ele>315.0</ele><time>2026-03-28T13:19:06.08Z</time></trkpt><trkpt lat="44.2878871" lon="11.1044298"><ele>315.0</ele><time>2026-03-28T13:19:07.089Z</time></trkpt><trkpt lat="44.287886" lon="11.1045222"><ele>315.0</ele><time>2026-03-28T13:19:08.072Z</time></trkpt><trkpt lat="44.287847" lon="11.1046066"><ele>315.0</ele><time>2026-03-28T13:19:09.079Z</time></trkpt><trkpt lat="44.2877722" lon="11.1046646"><ele>315.0</ele><time>2026-03-28T13:19:10.081Z</time></trkpt><trkpt lat="44.2876886" lon="11.1046377"><ele>315.0</ele><time>2026-03-28T13:19:11.068Z</time></trkpt><trkpt lat="44.287593" lon="11.1045685"><ele>315.0</ele><time>2026-03-28T13:19:12.073Z</time></trkpt><trkpt lat="44.2874951" lon="11.1044911"><ele>315.0</ele><time>2026-03-28T13:19:13.076Z</time></trkpt><trkpt lat="44.2873876" lon="11.1044461"><ele>315.0</ele><time>2026-03-28T13:19:14.083Z</time></trkpt><trkpt lat="44.2872786" lon="11.104438"><ele>315.0</ele><time>2026-03-28T13:19:15.094Z</time></trkpt><trkpt lat="44.2871767" lon="11.1044517"><ele>315.0</ele><time>2026-03-28T13:19:16.083Z</time></trkpt><trkpt lat="44.2870769" lon="11.1044633"><ele>313.4</ele><time>2026-03-28T13:19:17.075Z</time></trkpt><trkpt lat="44.2869822" lon="11.1044635"><ele>311.8</ele><time>2026-03-28T13:19:18.066Z</time></trkpt><trkpt lat="44.2868938" lon="11.1044111"><ele>310.2</ele><time>2026-03-28T13:19:19.079Z</time></trkpt><trkpt lat="44.2868122" lon="11.1043085"><ele>308.6</ele><time>2026-03-28T13:19:20.083Z</time></trkpt><trkpt lat="44.2867374" lon="11.1041815"><ele>307.0</ele><time>2026-03-28T13:19:21.069Z</time></trkpt><trkpt lat="44.2866625" lon="11.1040419"><ele>307.0</ele><time>2026-03-28T13:19:22.081Z</time></trkpt><trkpt lat="44.2865879" lon="11.1039118"><ele>307.0</ele><time>2026-03-28T13:19:23.095Z</time></trkpt><trkpt lat="44.2865134" lon="11.1037896"><ele>307.0</ele><time>2026-03-28T13:19:24.089Z</time></trkpt><trkpt lat="44.2864572" lon="11.1036583"><ele>307.0</ele><time>2026-03-28T13:19:25.084Z</time></trkpt><trkpt lat="44.2864096" lon="11.1035081"><ele>307.5</ele><time>2026-03-28T13:19:26.069Z</time></trkpt><trkpt lat="44.2863788" lon="11.10334"><ele>308.0</ele><time>2026-03-28T13:19:27.084Z</time></trkpt><trkpt lat="44.2863789" lon="11.1031704"><ele>308.5</ele><time>2026-03-28T13:19:28.083Z</time></trkpt><trkpt lat="44.2863987" lon="11.1030038"><ele>309.0</ele><time>2026-03-28T13:19:29.079Z</time></trkpt><trkpt lat="44.2864349" lon="11.1028558"><ele>309.0</ele><time>2026-03-28T13:19:30.081Z</time></trkpt><trkpt lat="44.2864574" lon="11.1027207"><ele>309.0</ele><time>2026-03-28T13:19:31.078Z</time></trkpt><trkpt lat="44.2864383" lon="11.102596"><ele>309.0</ele><time>2026-03-28T13:19:32.076Z</time></trkpt><trkpt lat="44.2863729" lon="11.1024758"><ele>309.0</ele><time>2026-03-28T13:19:33.076Z</time></trkpt><trkpt lat="44.2862838" lon="11.1023664"><ele>309.0</ele><time>2026-03-28T13:19:34.066Z</time></trkpt><trkpt lat="44.2861787" lon="11.1022481"><ele>304.5</ele><time>2026-03-28T13:19:35.076Z</time></trkpt><trkpt lat="44.2860804" lon="11.1021038"><ele>300.0</ele><time>2026-03-28T13:19:36.078Z</time></trkpt><trkpt lat="44.2859959" lon="11.1019427"><ele>295.5</ele><time>2026-03-28T13:19:37.092Z</time></trkpt><trkpt lat="44.2859151" lon="11.1018012"><ele>291.0</ele><time>2026-03-28T13:19:38.072Z</time></trkpt><trkpt lat="44.2858314" lon="11.1016769"><ele>290.2</ele><time>2026-03-28T13:19:39.072Z</time></trkpt><trkpt lat="44.2857586" lon="11.1015541"><ele>289.40000000000003</ele><time>2026-03-28T13:19:40.076Z</time></trkpt><trkpt lat="44.2857114" lon="11.1014265"><ele>288.6</ele><time>2026-03-28T13:19:41.067Z</time></trkpt><trkpt lat="44.2856872" lon="11.101302"><ele>287.8</ele><time>2026-03-28T13:19:42.078Z</time></trkpt><trkpt lat="44.2856928" lon="11.1011885"><ele>287.0</ele><time>2026-03-28T13:19:43.078Z</time></trkpt><trkpt lat="44.2857255" lon="11.1010865"><ele>287.0</ele><time>2026-03-28T13:19:44.103Z</time></trkpt><trkpt lat="44.2857799" lon="11.1009844"><ele>287.0</ele><time>2026-03-28T13:19:45.082Z</time></trkpt><trkpt lat="44.2858573" lon="11.1009"><ele>287.0</ele><time>2026-03-28T13:19:46.076Z</time></trkpt><trkpt lat="44.2859443" lon="11.1008332"><ele>287.0</ele><time>2026-03-28T13:19:47.089Z</time></trkpt><trkpt lat="44.286037" lon="11.100774"><ele>287.0</ele><time>2026-03-28T13:19:48.085Z</time></trkpt><trkpt lat="44.2861278" lon="11.1006975"><ele>284.25</ele><time>2026-03-28T13:19:49.069Z</time></trkpt><trkpt lat="44.2861929" lon="11.1006055"><ele>281.5</ele><time>2026-03-28T13:19:50.075Z</time></trkpt><trkpt lat="44.2862519" lon="11.1004785"><ele>278.75</ele><time>2026-03-28T13:19:51.063Z</time></trkpt><trkpt lat="44.2863176" lon="11.1003309"><ele>276.0</ele><time>2026-03-28T13:19:52.075Z</time></trkpt><trkpt lat="44.2864153" lon="11.1001867"><ele>276.0</ele><time>2026-03-28T13:19:53.074Z</time></trkpt><trkpt lat="44.2865239" lon="11.100048"><ele>276.0</ele><time>2026-03-28T13:19:54.07Z</time></trkpt><trkpt lat="44.2866346" lon="11.099904"><ele>276.0</ele><time>2026-03-28T13:19:55.076Z</time></trkpt><trkpt lat="44.2867257" lon="11.0997381"><ele>276.0</ele><time>2026-03-28T13:19:56.073Z</time></trkpt><trkpt lat="44.2867903" lon="11.0995596"><ele>276.0</ele><time>2026-03-28T13:19:57.094Z</time></trkpt><trkpt lat="44.2868419" lon="11.099407"><ele>276.0</ele><time>2026-03-28T13:19:58.078Z</time></trkpt><trkpt lat="44.2869004" lon="11.0992744"><ele>276.0</ele><time>2026-03-28T13:19:59.086Z</time></trkpt><trkpt lat="44.2869797" lon="11.0991806"><ele>276.0</ele><time>2026-03-28T13:20:00.079Z</time></trkpt><trkpt lat="44.2870635" lon="11.0991242"><ele>276.0</ele><time>2026-03-28T13:20:01.073Z</time></trkpt><trkpt lat="44.2871586" lon="11.0990822"><ele>276.75</ele><time>2026-03-28T13:20:02.086Z</time></trkpt><trkpt lat="44.287249" lon="11.0990572"><ele>277.5</ele><time>2026-03-28T13:20:03.085Z</time></trkpt><trkpt lat="44.2873688" lon="11.0990362"><ele>278.25</ele><time>2026-03-28T13:20:04.072Z</time></trkpt><trkpt lat="44.2875317" lon="11.0989937"><ele>279.0</ele><time>2026-03-28T13:20:05.077Z</time></trkpt><trkpt lat="44.2876427" lon="11.0989213"><ele>279.0</ele><time>2026-03-28T13:20:06.064Z</time></trkpt><trkpt lat="44.2877339" lon="11.0988137"><ele>279.0</ele><time>2026-03-28T13:20:07.065Z</time></trkpt><trkpt lat="44.2878097" lon="11.0986713"><ele>279.0</ele><time>2026-03-28T13:20:08.068Z</time></trkpt><trkpt lat="44.2878599" lon="11.0984953"><ele>279.0</ele><time>2026-03-28T13:20:09.077Z</time></trkpt><trkpt lat="44.287883" lon="11.0982744"><ele>276.6666666666667</ele><time>2026-03-28T13:20:10.066Z</time></trkpt><trkpt lat="44.2878997" lon="11.0980185"><ele>274.33333333333337</ele><time>2026-03-28T13:20:11.077Z</time></trkpt><trkpt lat="44.2879266" lon="11.0977502"><ele>272.0</ele><time>2026-03-28T13:20:12.083Z</time></trkpt><trkpt lat="44.2879708" lon="11.0974729"><ele>270.0</ele><time>2026-03-28T13:20:13.081Z</time></trkpt><trkpt lat="44.288036" lon="11.0971992"><ele>268.0</ele><time>2026-03-28T13:20:14.075Z</time></trkpt><trkpt lat="44.2881136" lon="11.0969289"><ele>266.0</ele><time>2026-03-28T13:20:15.07Z</time></trkpt><trkpt lat="44.2881981" lon="11.0966615"><ele>268.0</ele><time>2026-03-28T13:20:16.096Z</time></trkpt><trkpt lat="44.2882687" lon="11.0964303"><ele>270.0</ele><time>2026-03-28T13:20:17.073Z</time></trkpt><trkpt lat="44.2882996" lon="11.096221"><ele>272.0</ele><time>2026-03-28T13:20:18.079Z</time></trkpt><trkpt lat="44.2883399" lon="11.0960363"><ele>272.0</ele><time>2026-03-28T13:20:19.089Z</time></trkpt><trkpt lat="44.2884028" lon="11.0958756"><ele>272.0</ele><time>2026-03-28T13:20:20.079Z</time></trkpt><trkpt lat="44.2884854" lon="11.0957436"><ele>272.0</ele><time>2026-03-28T13:20:21.074Z</time></trkpt><trkpt lat="44.2885757" lon="11.0956166"><ele>272.0</ele><time>2026-03-28T13:20:22.067Z</time></trkpt><trkpt lat="44.2886597" lon="11.0954897"><ele>270.0</ele><time>2026-03-28T13:20:23.079Z</time></trkpt><trkpt lat="44.2887268" lon="11.0953384"><ele>268.0</ele><time>2026-03-28T13:20:24.09Z</time></trkpt><trkpt lat="44.2887718" lon="11.0951571"><ele>266.0</ele><time>2026-03-28T13:20:25.066Z</time></trkpt><trkpt lat="44.2888103" lon="11.0949288"><ele>264.0</ele><time>2026-03-28T13:20:26.09Z</time></trkpt><trkpt lat="44.2888444" lon="11.0946943"><ele>261.3333333333333</ele><time>2026-03-28T13:20:27.083Z</time></trkpt><trkpt lat="44.2888704" lon="11.0944559"><ele>258.66666666666663</ele><time>2026-03-28T13:20:28.094Z</time></trkpt><trkpt lat="44.2888721" lon="11.0942374"><ele>256.0</ele><time>2026-03-28T13:20:29.067Z</time></trkpt><trkpt lat="44.2888474" lon="11.0940092"><ele>254.75</ele><time>2026-03-28T13:20:30.086Z</time></trkpt><trkpt lat="44.2888222" lon="11.0937958"><ele>253.5</ele><time>2026-03-28T13:20:31.08Z</time></trkpt><trkpt lat="44.2888118" lon="11.0935868"><ele>252.25</ele><time>2026-03-28T13:20:32.085Z</time></trkpt><trkpt lat="44.2888265" lon="11.0933923"><ele>251.0</ele><time>2026-03-28T13:20:33.082Z</time></trkpt><trkpt lat="44.2888594" lon="11.0932168"><ele>249.8</ele><time>2026-03-28T13:20:34.07Z</time></trkpt><trkpt lat="44.288889" lon="11.0930634"><ele>248.60000000000002</ele><time>2026-03-28T13:20:35.07Z</time></trkpt><trkpt lat="44.2888972" lon="11.0929262"><ele>247.4</ele><time>2026-03-28T13:20:36.079Z</time></trkpt><trkpt lat="44.2888626" lon="11.0928108"><ele>246.2</ele><time>2026-03-28T13:20:37.061Z</time></trkpt><trkpt lat="44.2887893" lon="11.0927178"><ele>245.0</ele><time>2026-03-28T13:20:38.065Z</time></trkpt><trkpt lat="44.2886891" lon="11.092669"><ele>245.0</ele><time>2026-03-28T13:20:39.07Z</time></trkpt><trkpt lat="44.28859" lon="11.0926815"><ele>245.0</ele><time>2026-03-28T13:20:40.099Z</time></trkpt><trkpt lat="44.2884935" lon="11.0927448"><ele>245.0</ele><time>2026-03-28T13:20:41.07Z</time></trkpt><trkpt lat="44.288403" lon="11.0928591"><ele>245.0</ele><time>2026-03-28T13:20:42.089Z</time></trkpt><trkpt lat="44.2883188" lon="11.0930052"><ele>245.0</ele><time>2026-03-28T13:20:43.08Z</time></trkpt><trkpt lat="44.2882368" lon="11.0931749"><ele>245.0</ele><time>2026-03-28T13:20:44.087Z</time></trkpt><trkpt lat="44.2881524" lon="11.0933621"><ele>245.0</ele><time>2026-03-28T13:20:45.072Z</time></trkpt><trkpt lat="44.2880686" lon="11.09356"><ele>245.66666666666669</ele><time>2026-03-28T13:20:46.066Z</time></trkpt><trkpt lat="44.2879974" lon="11.0937639"><ele>246.33333333333331</ele><time>2026-03-28T13:20:47.062Z</time></trkpt><trkpt lat="44.2879233" lon="11.0939632"><ele>247.0</ele><time>2026-03-28T13:20:48.065Z</time></trkpt><trkpt lat="44.2878459" lon="11.0941535"><ele>247.0</ele><time>2026-03-28T13:20:49.063Z</time></trkpt><trkpt lat="44.2877624" lon="11.0943228"><ele>247.0</ele><time>2026-03-28T13:20:50.07Z</time></trkpt><trkpt lat="44.2876729" lon="11.0944625"><ele>247.0</ele><time>2026-03-28T13:20:51.067Z</time></trkpt><trkpt lat="44.2875657" lon="11.0945725"><ele>247.0</ele><time>2026-03-28T13:20:52.078Z</time></trkpt><trkpt lat="44.2874461" lon="11.094642"><ele>247.0</ele><time>2026-03-28T13:20:53.079Z</time></trkpt><trkpt lat="44.2873432" lon="11.0946614"><ele>247.0</ele><time>2026-03-28T13:20:54.095Z</time></trkpt><trkpt lat="44.2872042" lon="11.0946847"><ele>247.0</ele><time>2026-03-28T13:20:55.077Z</time></trkpt><trkpt lat="44.287054" lon="11.0947152"><ele>247.0</ele><time>2026-03-28T13:20:56.079Z</time></trkpt><trkpt lat="44.2868965" lon="11.094747"><ele>246.5</ele><time>2026-03-28T13:20:57.091Z</time></trkpt><trkpt lat="44.2867461" lon="11.0947836"><ele>246.0</ele><time>2026-03-28T13:20:58.076Z</time></trkpt><trkpt lat="44.2865974" lon="11.0948396"><ele>245.5</ele><time>2026-03-28T13:20:59.084Z</time></trkpt><trkpt lat="44.2864923" lon="11.0949289"><ele>245.0</ele><time>2026-03-28T13:21:00.067Z</time></trkpt><trkpt lat="44.2863999" lon="11.0950486"><ele>241.75</ele><time>2026-03-28T13:21:01.084Z</time></trkpt><trkpt lat="44.2863289" lon="11.0951975"><ele>238.5</ele><time>2026-03-28T13:21:02.087Z</time></trkpt><trkpt lat="44.2862827" lon="11.0953873"><ele>235.25</ele><time>2026-03-28T13:21:03.078Z</time></trkpt><trkpt lat="44.2862464" lon="11.095582"><ele>232.0</ele><time>2026-03-28T13:21:04.092Z</time></trkpt><trkpt lat="44.2862116" lon="11.0957604"><ele>232.0</ele><time>2026-03-28T13:21:05.075Z</time></trkpt><trkpt lat="44.2861524" lon="11.0959265"><ele>232.0</ele><time>2026-03-28T13:21:06.085Z</time></trkpt><trkpt lat="44.2860661" lon="11.0960665"><ele>232.0</ele><time>2026-03-28T13:21:07.076Z</time></trkpt><trkpt lat="44.2859539" lon="11.0961601"><ele>232.0</ele><time>2026-03-28T13:21:08.078Z</time></trkpt><trkpt lat="44.2858256" lon="11.0962497"><ele>232.0</ele><time>2026-03-28T13:21:09.074Z</time></trkpt><trkpt lat="44.2856844" lon="11.0963136"><ele>232.0</ele><time>2026-03-28T13:21:10.075Z</time></trkpt><trkpt lat="44.2855562" lon="11.0964161"><ele>232.0</ele><time>2026-03-28T13:21:11.08Z</time></trkpt><trkpt lat="44.2854561" lon="11.0965743"><ele>232.0</ele><time>2026-03-28T13:21:12.092Z</time></trkpt><trkpt lat="44.28538" lon="11.0967628"><ele>229.33333333333331</ele><time>2026-03-28T13:21:13.088Z</time></trkpt><trkpt lat="44.2853152" lon="11.0969759"><ele>226.66666666666669</ele><time>2026-03-28T13:21:14.078Z</time></trkpt><trkpt lat="44.2852419" lon="11.0971932"><ele>224.0</ele><time>2026-03-28T13:21:15.08Z</time></trkpt><trkpt lat="44.2851817" lon="11.0974092"><ele>224.33333333333334</ele><time>2026-03-28T13:21:16.069Z</time></trkpt><trkpt lat="44.2851038" lon="11.0976164"><ele>224.66666666666669</ele><time>2026-03-28T13:21:17.06Z</time></trkpt><trkpt lat="44.2850189" lon="11.0978188"><ele>225.0</ele><time>2026-03-28T13:21:18.078Z</time></trkpt><trkpt lat="44.2849331" lon="11.0980113"><ele>225.0</ele><time>2026-03-28T13:21:19.075Z</time></trkpt><trkpt lat="44.2848446" lon="11.098189"><ele>225.0</ele><time>2026-03-28T13:21:20.081Z</time></trkpt><trkpt lat="44.2847527" lon="11.0983598"><ele>225.0</ele><time>2026-03-28T13:21:21.092Z</time></trkpt><trkpt lat="44.2846628" lon="11.0985068"><ele>225.0</ele><time>2026-03-28T13:21:22.072Z</time></trkpt><trkpt lat="44.2845605" lon="11.0986356"><ele>224.0</ele><time>2026-03-28T13:21:23.085Z</time></trkpt><trkpt lat="44.2844509" lon="11.0987582"><ele>223.0</ele><time>2026-03-28T13:21:24.079Z</time></trkpt><trkpt lat="44.2843447" lon="11.0988894"><ele>222.0</ele><time>2026-03-28T13:21:25.088Z</time></trkpt><trkpt lat="44.2842455" lon="11.0990303"><ele>221.0</ele><time>2026-03-28T13:21:26.084Z</time></trkpt><trkpt lat="44.2841531" lon="11.0991805"><ele>221.0</ele><time>2026-03-28T13:21:27.074Z</time></trkpt><trkpt lat="44.2840531" lon="11.0993337"><ele>221.0</ele><time>2026-03-28T13:21:28.073Z</time></trkpt><trkpt lat="44.2839494" lon="11.0994871"><ele>221.0</ele><time>2026-03-28T13:21:29.077Z</time></trkpt><trkpt lat="44.2838519" lon="11.0996408"><ele>221.0</ele><time>2026-03-28T13:21:30.073Z</time></trkpt><trkpt lat="44.2837625" lon="11.0997975"><ele>219.75</ele><time>2026-03-28T13:21:31.082Z</time></trkpt><trkpt lat="44.2836884" lon="11.0999507"><ele>218.5</ele><time>2026-03-28T13:21:32.073Z</time></trkpt><trkpt lat="44.2836265" lon="11.1001006"><ele>217.25</ele><time>2026-03-28T13:21:33.07Z</time></trkpt><trkpt lat="44.2835664" lon="11.1002595"><ele>216.0</ele><time>2026-03-28T13:21:34.072Z</time></trkpt><trkpt lat="44.2835197" lon="11.1004209"><ele>216.0</ele><time>2026-03-28T13:21:35.087Z</time></trkpt><trkpt lat="44.2834814" lon="11.1005915"><ele>216.0</ele><time>2026-03-28T13:21:36.083Z</time></trkpt><trkpt lat="44.2834508" lon="11.1007708"><ele>216.0</ele><time>2026-03-28T13:21:37.081Z</time></trkpt><trkpt lat="44.2834251" lon="11.1009732"><ele>216.0</ele><time>2026-03-28T13:21:38.073Z</time></trkpt><trkpt lat="44.2834048" lon="11.1011926"><ele>216.33333333333331</ele><time>2026-03-28T13:21:39.075Z</time></trkpt><trkpt lat="44.2833867" lon="11.1014191"><ele>216.66666666666666</ele><time>2026-03-28T13:21:40.102Z</time></trkpt><trkpt lat="44.2833778" lon="11.1016334"><ele>217.0</ele><time>2026-03-28T13:21:41.067Z</time></trkpt><trkpt lat="44.2833759" lon="11.1018442"><ele>216.5</ele><time>2026-03-28T13:21:42.076Z</time></trkpt><trkpt lat="44.2833802" lon="11.1020431"><ele>216.0</ele><time>2026-03-28T13:21:43.095Z</time></trkpt><trkpt lat="44.283387" lon="11.102224"><ele>215.5</ele><time>2026-03-28T13:21:44.075Z</time></trkpt><trkpt lat="44.2833942" lon="11.1023978"><ele>215.0</ele><time>2026-03-28T13:21:45.075Z</time></trkpt><trkpt lat="44.2834014" lon="11.1025625"><ele>214.75</ele><time>2026-03-28T13:21:46.071Z</time></trkpt><trkpt lat="44.2834055" lon="11.102728"><ele>214.5</ele><time>2026-03-28T13:21:47.084Z</time></trkpt><trkpt lat="44.2834058" lon="11.1028932"><ele>214.25</ele><time>2026-03-28T13:21:48.098Z</time></trkpt><trkpt lat="44.2834044" lon="11.1030542"><ele>214.0</ele><time>2026-03-28T13:21:49.078Z</time></trkpt><trkpt lat="44.2833995" lon="11.1032195"><ele>213.25</ele><time>2026-03-28T13:21:50.081Z</time></trkpt><trkpt lat="44.2833929" lon="11.1033862"><ele>212.5</ele><time>2026-03-28T13:21:51.074Z</time></trkpt><trkpt lat="44.2833871" lon="11.1035589"><ele>211.75</ele><time>2026-03-28T13:21:52.076Z</time></trkpt><trkpt lat="44.2833831" lon="11.1037339"><ele>211.0</ele><time>2026-03-28T13:21:53.082Z</time></trkpt><trkpt lat="44.2833768" lon="11.1039124"><ele>210.75</ele><time>2026-03-28T13:21:54.09Z</time></trkpt><trkpt lat="44.2833599" lon="11.1040826"><ele>210.5</ele><time>2026-03-28T13:21:55.069Z</time></trkpt><trkpt lat="44.2833294" lon="11.1042528"><ele>210.25</ele><time>2026-03-28T13:21:56.079Z</time></trkpt><trkpt lat="44.283294" lon="11.1044146"><ele>210.0</ele><time>2026-03-28T13:21:57.077Z</time></trkpt><trkpt lat="44.283256" lon="11.1045744"><ele>210.0</ele><time>2026-03-28T13:21:58.083Z</time></trkpt><trkpt lat="44.2832138" lon="11.104732"><ele>210.0</ele><time>2026-03-28T13:21:59.096Z</time></trkpt><trkpt lat="44.2831696" lon="11.1048824"><ele>210.0</ele><time>2026-03-28T13:22:00.07Z</time></trkpt><trkpt lat="44.2831258" lon="11.1050471"><ele>210.0</ele><time>2026-03-28T13:22:01.091Z</time></trkpt><trkpt lat="44.2830932" lon="11.1052052"><ele>209.5</ele><time>2026-03-28T13:22:02.075Z</time></trkpt><trkpt lat="44.2830711" lon="11.1053731"><ele>209.0</ele><time>2026-03-28T13:22:03.073Z</time></trkpt><trkpt lat="44.2830604" lon="11.1055426"><ele>208.5</ele><time>2026-03-28T13:22:04.074Z</time></trkpt><trkpt lat="44.2830527" lon="11.1057108"><ele>208.0</ele><time>2026-03-28T13:22:05.085Z</time></trkpt><trkpt lat="44.283056" lon="11.1058767"><ele>207.75</ele><time>2026-03-28T13:22:06.085Z</time></trkpt><trkpt lat="44.2830608" lon="11.106038"><ele>207.5</ele><time>2026-03-28T13:22:07.089Z</time></trkpt><trkpt lat="44.2830638" lon="11.1061947"><ele>207.25</ele><time>2026-03-28T13:22:08.069Z</time></trkpt><trkpt lat="44.2830696" lon="11.1063563"><ele>207.0</ele><time>2026-03-28T13:22:09.076Z</time></trkpt><trkpt lat="44.2830747" lon="11.1065225"><ele>207.0</ele><time>2026-03-28T13:22:10.083Z</time></trkpt><trkpt lat="44.2830819" lon="11.106687"><ele>207.0</ele><time>2026-03-28T13:22:11.077Z</time></trkpt><trkpt lat="44.2830895" lon="11.1068504"><ele>207.0</ele><time>2026-03-28T13:22:12.079Z</time></trkpt><trkpt lat="44.2830958" lon="11.1070087"><ele>207.0</ele><time>2026-03-28T13:22:13.076Z</time></trkpt><trkpt lat="44.2831037" lon="11.1071728"><ele>207.0</ele><time>2026-03-28T13:22:14.076Z</time></trkpt><trkpt lat="44.2831101" lon="11.107336"><ele>207.0</ele><time>2026-03-28T13:22:15.074Z</time></trkpt><trkpt lat="44.2831139" lon="11.1075015"><ele>207.0</ele><time>2026-03-28T13:22:16.084Z</time></trkpt><trkpt lat="44.2831192" lon="11.1076595"><ele>207.0</ele><time>2026-03-28T13:22:17.076Z</time></trkpt><trkpt lat="44.2831243" lon="11.107823"><ele>207.0</ele><time>2026-03-28T13:22:18.085Z</time></trkpt><trkpt lat="44.2831328" lon="11.107984"><ele>207.0</ele><time>2026-03-28T13:22:19.075Z</time></trkpt><trkpt lat="44.2831413" lon="11.1081456"><ele>207.0</ele><time>2026-03-28T13:22:20.074Z</time></trkpt><trkpt lat="44.2831502" lon="11.1083111"><ele>207.0</ele><time>2026-03-28T13:22:21.083Z</time></trkpt><trkpt lat="44.2831595" lon="11.1084741"><ele>207.0</ele><time>2026-03-28T13:22:22.069Z</time></trkpt><trkpt lat="44.2831687" lon="11.1086434"><ele>207.0</ele><time>2026-03-28T13:22:23.1Z</time></trkpt><trkpt lat="44.2831777" lon="11.1088018"><ele>207.0</ele><time>2026-03-28T13:22:24.068Z</time></trkpt><trkpt lat="44.2831846" lon="11.1089614"><ele>207.0</ele><time>2026-03-28T13:22:25.069Z</time></trkpt><trkpt lat="44.283192" lon="11.1091176"><ele>207.2</ele><time>2026-03-28T13:22:26.07Z</time></trkpt><trkpt lat="44.283201" lon="11.1092757"><ele>207.39999999999998</ele><time>2026-03-28T13:22:27.081Z</time></trkpt><trkpt lat="44.2832084" lon="11.1094348"><ele>207.60000000000002</ele><time>2026-03-28T13:22:28.091Z</time></trkpt><trkpt lat="44.2832153" lon="11.1095908"><ele>207.8</ele><time>2026-03-28T13:22:29.087Z</time></trkpt><trkpt lat="44.2832231" lon="11.1097407"><ele>208.0</ele><time>2026-03-28T13:22:30.086Z</time></trkpt><trkpt lat="44.2832348" lon="11.109885"><ele>207.4</ele><time>2026-03-28T13:22:31.097Z</time></trkpt><trkpt lat="44.2832438" lon="11.1100208"><ele>206.8</ele><time>2026-03-28T13:22:32.087Z</time></trkpt><trkpt lat="44.2832494" lon="11.1101578"><ele>206.2</ele><time>2026-03-28T13:22:33.087Z</time></trkpt><trkpt lat="44.2832544" lon="11.1102875"><ele>205.6</ele><time>2026-03-28T13:22:34.088Z</time></trkpt><trkpt lat="44.2832618" lon="11.1104096"><ele>205.0</ele><time>2026-03-28T13:22:35.073Z</time></trkpt><trkpt lat="44.283269" lon="11.110521"><ele>204.99999999999997</ele><time>2026-03-28T13:22:36.073Z</time></trkpt><trkpt lat="44.2832763" lon="11.1106119"><ele>205.0</ele><time>2026-03-28T13:22:37.093Z</time></trkpt><trkpt lat="44.2832807" lon="11.1107208"><ele>205.0</ele><time>2026-03-28T13:22:39.098Z</time></trkpt><trkpt lat="44.2833145" lon="11.1108385"><ele>205.0</ele><time>2026-03-28T13:23:35.076Z</time></trkpt><trkpt lat="44.2833056" lon="11.1109266"><ele>204.99999999999997</ele><time>2026-03-28T13:23:36.083Z</time></trkpt><trkpt lat="44.2832904" lon="11.1110856"><ele>205.0</ele><time>2026-03-28T13:23:38.081Z</time></trkpt><trkpt lat="44.2832917" lon="11.1111853"><ele>204.49999999999997</ele><time>2026-03-28T13:23:40.083Z</time></trkpt><trkpt lat="44.2833141" lon="11.1112737"><ele>204.0</ele><time>2026-03-28T13:23:43.086Z</time></trkpt><trkpt lat="44.2833358" lon="11.1113755"><ele>203.5</ele><time>2026-03-28T13:23:58.079Z</time></trkpt><trkpt lat="44.2833672" lon="11.1114619"><ele>203.0</ele><time>2026-03-28T13:23:59.078Z</time></trkpt><trkpt lat="44.2834157" lon="11.1115482"><ele>202.49999999999997</ele><time>2026-03-28T13:24:00.072Z</time></trkpt><trkpt lat="44.2834844" lon="11.1116351"><ele>202.0</ele><time>2026-03-28T13:24:01.078Z</time></trkpt><trkpt lat="44.2835683" lon="11.1117098"><ele>201.75</ele><time>2026-03-28T13:24:02.073Z</time></trkpt><trkpt lat="44.2836651" lon="11.1117745"><ele>201.5</ele><time>2026-03-28T13:24:03.076Z</time></trkpt><trkpt lat="44.2837846" lon="11.1118368"><ele>201.25</ele><time>2026-03-28T13:24:04.086Z</time></trkpt><trkpt lat="44.2839129" lon="11.111897"><ele>201.0</ele><time>2026-03-28T13:24:05.083Z</time></trkpt><trkpt lat="44.2840557" lon="11.1119606"><ele>202.0</ele><time>2026-03-28T13:24:06.085Z</time></trkpt><trkpt lat="44.2842004" lon="11.1120401"><ele>203.0</ele><time>2026-03-28T13:24:07.072Z</time></trkpt><trkpt lat="44.2843497" lon="11.1121271"><ele>204.0</ele><time>2026-03-28T13:24:08.077Z</time></trkpt><trkpt lat="44.2844967" lon="11.112207"><ele>204.0</ele><time>2026-03-28T13:24:09.104Z</time></trkpt><trkpt lat="44.2846252" lon="11.1122672"><ele>204.0</ele><time>2026-03-28T13:24:10.078Z</time></trkpt><trkpt lat="44.2847438" lon="11.1123288"><ele>204.0</ele><time>2026-03-28T13:24:11.08Z</time></trkpt><trkpt lat="44.2848593" lon="11.1123866"><ele>204.0</ele><time>2026-03-28T13:24:12.076Z</time></trkpt><trkpt lat="44.2849721" lon="11.1124462"><ele>202.5</ele><time>2026-03-28T13:24:13.093Z</time></trkpt><trkpt lat="44.2850807" lon="11.1125006"><ele>201.0</ele><time>2026-03-28T13:24:14.08Z</time></trkpt><trkpt lat="44.2852011" lon="11.1125432"><ele>199.5</ele><time>2026-03-28T13:24:15.095Z</time></trkpt><trkpt lat="44.2853205" lon="11.1125714"><ele>198.0</ele><time>2026-03-28T13:24:16.08Z</time></trkpt><trkpt lat="44.2854409" lon="11.1125901"><ele>198.0</ele><time>2026-03-28T13:24:17.073Z</time></trkpt><trkpt lat="44.2855671" lon="11.1125974"><ele>198.0</ele><time>2026-03-28T13:24:18.089Z</time></trkpt><trkpt lat="44.2856919" lon="11.1125925"><ele>198.0</ele><time>2026-03-28T13:24:19.088Z</time></trkpt><trkpt lat="44.2858158" lon="11.1125753"><ele>198.0</ele><time>2026-03-28T13:24:20.087Z</time></trkpt><trkpt lat="44.285928" lon="11.1125517"><ele>198.0</ele><time>2026-03-28T13:24:21.084Z</time></trkpt><trkpt lat="44.2860354" lon="11.1125261"><ele>198.0</ele><time>2026-03-28T13:24:22.083Z</time></trkpt><trkpt lat="44.2861373" lon="11.112502"><ele>198.0</ele><time>2026-03-28T13:24:23.081Z</time></trkpt><trkpt lat="44.286243" lon="11.1124782"><ele>198.0</ele><time>2026-03-28T13:24:24.077Z</time></trkpt><trkpt lat="44.2863574" lon="11.1124497"><ele>198.0</ele><time>2026-03-28T13:24:25.086Z</time></trkpt><trkpt lat="44.2864822" lon="11.1124162"><ele>199.5</ele><time>2026-03-28T13:24:26.086Z</time></trkpt><trkpt lat="44.2866141" lon="11.1123821"><ele>201.0</ele><time>2026-03-28T13:24:27.096Z</time></trkpt><trkpt lat="44.2867467" lon="11.1123501"><ele>202.5</ele><time>2026-03-28T13:24:28.082Z</time></trkpt><trkpt lat="44.2868861" lon="11.1123169"><ele>204.0</ele><time>2026-03-28T13:24:29.081Z</time></trkpt><trkpt lat="44.2870347" lon="11.1122773"><ele>204.0</ele><time>2026-03-28T13:24:30.083Z</time></trkpt><trkpt lat="44.2871876" lon="11.1122348"><ele>204.0</ele><time>2026-03-28T13:24:31.093Z</time></trkpt><trkpt lat="44.2873288" lon="11.1121963"><ele>204.0</ele><time>2026-03-28T13:24:32.073Z</time></trkpt><trkpt lat="44.2874742" lon="11.1121547"><ele>204.0</ele><time>2026-03-28T13:24:33.085Z</time></trkpt><trkpt lat="44.2876143" lon="11.1121183"><ele>203.5</ele><time>2026-03-28T13:24:34.086Z</time></trkpt><trkpt lat="44.2877496" lon="11.1120808"><ele>203.0</ele><time>2026-03-28T13:24:35.083Z</time></trkpt><trkpt lat="44.2878873" lon="11.1120486"><ele>202.5</ele><time>2026-03-28T13:24:36.089Z</time></trkpt><trkpt lat="44.2880286" lon="11.1120314"><ele>202.0</ele><time>2026-03-28T13:24:37.086Z</time></trkpt><trkpt lat="44.2881679" lon="11.1120312"><ele>202.0</ele><time>2026-03-28T13:24:38.075Z</time></trkpt><trkpt lat="44.2883045" lon="11.1120621"><ele>202.0</ele><time>2026-03-28T13:24:39.094Z</time></trkpt><trkpt lat="44.2884352" lon="11.1121143"><ele>202.0</ele><time>2026-03-28T13:24:40.08Z</time></trkpt><trkpt lat="44.2885675" lon="11.1121883"><ele>202.0</ele><time>2026-03-28T13:24:41.085Z</time></trkpt><trkpt lat="44.2887023" lon="11.1122613"><ele>202.0</ele><time>2026-03-28T13:24:42.08Z</time></trkpt><trkpt lat="44.2888391" lon="11.1123253"><ele>202.0</ele><time>2026-03-28T13:24:43.081Z</time></trkpt><trkpt lat="44.2889671" lon="11.1123787"><ele>202.0</ele><time>2026-03-28T13:24:44.066Z</time></trkpt><trkpt lat="44.2890913" lon="11.1124375"><ele>202.0</ele><time>2026-03-28T13:24:45.091Z</time></trkpt><trkpt lat="44.2892072" lon="11.1125073"><ele>201.0</ele><time>2026-03-28T13:24:46.094Z</time></trkpt><trkpt lat="44.2893039" lon="11.1126047"><ele>200.0</ele><time>2026-03-28T13:24:47.081Z</time></trkpt><trkpt lat="44.289389" lon="11.1127454"><ele>199.0</ele><time>2026-03-28T13:24:48.078Z</time></trkpt><trkpt lat="44.2894565" lon="11.1129235"><ele>198.0</ele><time>2026-03-28T13:24:49.083Z</time></trkpt><trkpt lat="44.289504" lon="11.1131267"><ele>196.0</ele><time>2026-03-28T13:24:50.065Z</time></trkpt><trkpt lat="44.2895399" lon="11.1133398"><ele>194.0</ele><time>2026-03-28T13:24:51.066Z</time></trkpt><trkpt lat="44.2895708" lon="11.1135706"><ele>192.0</ele><time>2026-03-28T13:24:52.115Z</time></trkpt><trkpt lat="44.2895998" lon="11.1137804"><ele>192.0</ele><time>2026-03-28T13:24:53.084Z</time></trkpt><trkpt lat="44.289646" lon="11.1139875"><ele>192.0</ele><time>2026-03-28T13:24:54.082Z</time></trkpt><trkpt lat="44.2897063" lon="11.1141815"><ele>192.0</ele><time>2026-03-28T13:24:55.073Z</time></trkpt><trkpt lat="44.2897892" lon="11.1143666"><ele>194.33333333333331</ele><time>2026-03-28T13:24:56.074Z</time></trkpt><trkpt lat="44.2898966" lon="11.1145384"><ele>196.66666666666666</ele><time>2026-03-28T13:24:57.091Z</time></trkpt><trkpt lat="44.2900232" lon="11.1146864"><ele>199.0</ele><time>2026-03-28T13:24:58.089Z</time></trkpt><trkpt lat="44.2901727" lon="11.1148182"><ele>197.0</ele><time>2026-03-28T13:24:59.069Z</time></trkpt><trkpt lat="44.2903329" lon="11.114946"><ele>195.0</ele><time>2026-03-28T13:25:00.069Z</time></trkpt><trkpt lat="44.2904849" lon="11.1150672"><ele>193.0</ele><time>2026-03-28T13:25:01.084Z</time></trkpt><trkpt lat="44.2906265" lon="11.115177"><ele>193.0</ele><time>2026-03-28T13:25:02.073Z</time></trkpt><trkpt lat="44.2907647" lon="11.1152838"><ele>193.0</ele><time>2026-03-28T13:25:03.094Z</time></trkpt><trkpt lat="44.2908951" lon="11.1153878"><ele>193.0</ele><time>2026-03-28T13:25:04.1Z</time></trkpt><trkpt lat="44.2910233" lon="11.1154924"><ele>193.0</ele><time>2026-03-28T13:25:05.08Z</time></trkpt><trkpt lat="44.291154" lon="11.1156066"><ele>193.0</ele><time>2026-03-28T13:25:06.087Z</time></trkpt><trkpt lat="44.2912942" lon="11.1157323"><ele>193.0</ele><time>2026-03-28T13:25:07.103Z</time></trkpt><trkpt lat="44.2914303" lon="11.1158526"><ele>192.33333333333331</ele><time>2026-03-28T13:25:08.086Z</time></trkpt><trkpt lat="44.2915729" lon="11.1159758"><ele>191.66666666666666</ele><time>2026-03-28T13:25:09.095Z</time></trkpt><trkpt lat="44.2917111" lon="11.1160878"><ele>191.0</ele><time>2026-03-28T13:25:10.071Z</time></trkpt><trkpt lat="44.2918556" lon="11.1161931"><ele>191.0</ele><time>2026-03-28T13:25:11.073Z</time></trkpt><trkpt lat="44.2920022" lon="11.1162834"><ele>191.0</ele><time>2026-03-28T13:25:12.072Z</time></trkpt><trkpt lat="44.2921575" lon="11.1163459"><ele>191.0</ele><time>2026-03-28T13:25:13.083Z</time></trkpt><trkpt lat="44.2923214" lon="11.1163794"><ele>190.66666666666666</ele><time>2026-03-28T13:25:14.089Z</time></trkpt><trkpt lat="44.2924922" lon="11.1163863"><ele>190.33333333333334</ele><time>2026-03-28T13:25:15.084Z</time></trkpt><trkpt lat="44.2926644" lon="11.1163703"><ele>190.0</ele><time>2026-03-28T13:25:16.092Z</time></trkpt><trkpt lat="44.2928316" lon="11.1163469"><ele>190.0</ele><time>2026-03-28T13:25:17.088Z</time></trkpt><trkpt lat="44.293" lon="11.1163359"><ele>190.0</ele><time>2026-03-28T13:25:18.087Z</time></trkpt><trkpt lat="44.2931743" lon="11.1163475"><ele>190.0</ele><time>2026-03-28T13:25:19.081Z</time></trkpt><trkpt lat="44.2933537" lon="11.1163893"><ele>190.0</ele><time>2026-03-28T13:25:20.09Z</time></trkpt><trkpt lat="44.2935287" lon="11.1164486"><ele>190.0</ele><time>2026-03-28T13:25:21.08Z</time></trkpt><trkpt lat="44.2936916" lon="11.1165172"><ele>190.0</ele><time>2026-03-28T13:25:22.079Z</time></trkpt><trkpt lat="44.2938369" lon="11.1165773"><ele>189.0</ele><time>2026-03-28T13:25:23.073Z</time></trkpt><trkpt lat="44.2939741" lon="11.1166158"><ele>188.0</ele><time>2026-03-28T13:25:24.076Z</time></trkpt><trkpt lat="44.2941084" lon="11.1166219"><ele>187.0</ele><time>2026-03-28T13:25:25.084Z</time></trkpt><trkpt lat="44.2942332" lon="11.1166031"><ele>186.0</ele><time>2026-03-28T13:25:26.088Z</time></trkpt><trkpt lat="44.2943598" lon="11.1165605"><ele>188.0</ele><time>2026-03-28T13:25:27.086Z</time></trkpt><trkpt lat="44.2944926" lon="11.1164952"><ele>190.0</ele><time>2026-03-28T13:25:28.08Z</time></trkpt><trkpt lat="44.2946236" lon="11.1164122"><ele>192.0</ele><time>2026-03-28T13:25:29.079Z</time></trkpt><trkpt lat="44.294744" lon="11.1163272"><ele>194.0</ele><time>2026-03-28T13:25:30.075Z</time></trkpt><trkpt lat="44.2948624" lon="11.1162608"><ele>194.0</ele><time>2026-03-28T13:25:31.098Z</time></trkpt><trkpt lat="44.2949803" lon="11.1162182"><ele>194.0</ele><time>2026-03-28T13:25:32.073Z</time></trkpt><trkpt lat="44.2951179" lon="11.1162068"><ele>194.0</ele><time>2026-03-28T13:25:33.089Z</time></trkpt><trkpt lat="44.2952653" lon="11.1162253"><ele>194.0</ele><time>2026-03-28T13:25:34.087Z</time></trkpt><trkpt lat="44.2954061" lon="11.1162652"><ele>194.0</ele><time>2026-03-28T13:25:35.085Z</time></trkpt><trkpt lat="44.2955349" lon="11.1163245"><ele>194.0</ele><time>2026-03-28T13:25:36.093Z</time></trkpt><trkpt lat="44.2956395" lon="11.1164107"><ele>194.0</ele><time>2026-03-28T13:25:37.079Z</time></trkpt><trkpt lat="44.2957276" lon="11.1165374"><ele>194.0</ele><time>2026-03-28T13:25:38.084Z</time></trkpt><trkpt lat="44.2958051" lon="11.1167083"><ele>192.66666666666669</ele><time>2026-03-28T13:25:39.101Z</time></trkpt><trkpt lat="44.2958782" lon="11.1169082"><ele>191.33333333333334</ele><time>2026-03-28T13:25:40.08Z</time></trkpt><trkpt lat="44.2959395" lon="11.1171082"><ele>190.0</ele><time>2026-03-28T13:25:41.072Z</time></trkpt><trkpt lat="44.2960028" lon="11.117289"><ele>190.5</ele><time>2026-03-28T13:25:42.094Z</time></trkpt><trkpt lat="44.2960786" lon="11.117441"><ele>191.0</ele><time>2026-03-28T13:25:43.084Z</time></trkpt><trkpt lat="44.2961875" lon="11.1175704"><ele>191.5</ele><time>2026-03-28T13:25:44.083Z</time></trkpt><trkpt lat="44.2963305" lon="11.1176883"><ele>192.0</ele><time>2026-03-28T13:25:45.083Z</time></trkpt><trkpt lat="44.2964908" lon="11.1177909"><ele>192.0</ele><time>2026-03-28T13:25:46.077Z</time></trkpt><trkpt lat="44.2966556" lon="11.1178734"><ele>192.0</ele><time>2026-03-28T13:25:47.079Z</time></trkpt><trkpt lat="44.2968185" lon="11.1179492"><ele>192.0</ele><time>2026-03-28T13:25:48.102Z</time></trkpt><trkpt lat="44.2969706" lon="11.1180165"><ele>192.0</ele><time>2026-03-28T13:25:49.102Z</time></trkpt><trkpt lat="44.2971123" lon="11.118086"><ele>192.0</ele><time>2026-03-28T13:25:50.073Z</time></trkpt><trkpt lat="44.2972562" lon="11.1181519"><ele>192.0</ele><time>2026-03-28T13:25:51.077Z</time></trkpt><trkpt lat="44.2973885" lon="11.1182134"><ele>192.0</ele><time>2026-03-28T13:25:52.084Z</time></trkpt><trkpt lat="44.297513" lon="11.1182736"><ele>190.2</ele><time>2026-03-28T13:25:53.088Z</time></trkpt><trkpt lat="44.2976313" lon="11.118331"><ele>188.39999999999998</ele><time>2026-03-28T13:25:54.104Z</time></trkpt><trkpt lat="44.2977359" lon="11.118383"><ele>186.60000000000002</ele><time>2026-03-28T13:25:55.096Z</time></trkpt><trkpt lat="44.2978357" lon="11.1184314"><ele>184.8</ele><time>2026-03-28T13:25:56.084Z</time></trkpt><trkpt lat="44.2979349" lon="11.1184871"><ele>183.0</ele><time>2026-03-28T13:25:57.096Z</time></trkpt><trkpt lat="44.298034" lon="11.1185432"><ele>184.75</ele><time>2026-03-28T13:25:58.081Z</time></trkpt><trkpt lat="44.2981349" lon="11.1186125"><ele>186.5</ele><time>2026-03-28T13:25:59.073Z</time></trkpt><trkpt lat="44.2982442" lon="11.1186967"><ele>188.25</ele><time>2026-03-28T13:26:00.079Z</time></trkpt><trkpt lat="44.2983597" lon="11.1187952"><ele>190.0</ele><time>2026-03-28T13:26:01.088Z</time></trkpt><trkpt lat="44.2984854" lon="11.1189124"><ele>190.0</ele><time>2026-03-28T13:26:02.081Z</time></trkpt><trkpt lat="44.2986246" lon="11.1190569"><ele>190.0</ele><time>2026-03-28T13:26:03.095Z</time></trkpt><trkpt lat="44.2987565" lon="11.11921"><ele>190.0</ele><time>2026-03-28T13:26:04.092Z</time></trkpt><trkpt lat="44.2988825" lon="11.1193808"><ele>191.0</ele><time>2026-03-28T13:26:05.101Z</time></trkpt><trkpt lat="44.2989965" lon="11.1195598"><ele>192.0</ele><time>2026-03-28T13:26:06.097Z</time></trkpt><trkpt lat="44.2991078" lon="11.1197588"><ele>193.0</ele><time>2026-03-28T13:26:07.103Z</time></trkpt><trkpt lat="44.2992198" lon="11.1199675"><ele>188.66666666666666</ele><time>2026-03-28T13:26:08.096Z</time></trkpt><trkpt lat="44.2993336" lon="11.1201856"><ele>184.33333333333331</ele><time>2026-03-28T13:26:09.097Z</time></trkpt><trkpt lat="44.2994468" lon="11.1204016"><ele>180.0</ele><time>2026-03-28T13:26:10.095Z</time></trkpt><trkpt lat="44.2995609" lon="11.1206117"><ele>179.33333333333334</ele><time>2026-03-28T13:26:11.103Z</time></trkpt><trkpt lat="44.2996709" lon="11.1208123"><ele>178.66666666666669</ele><time>2026-03-28T13:26:12.08Z</time></trkpt><trkpt lat="44.2997804" lon="11.1210198"><ele>178.0</ele><time>2026-03-28T13:26:13.1Z</time></trkpt><trkpt lat="44.2998917" lon="11.1212221"><ele>178.66666666666669</ele><time>2026-03-28T13:26:14.089Z</time></trkpt><trkpt lat="44.3000169" lon="11.121436"><ele>179.33333333333334</ele><time>2026-03-28T13:26:15.101Z</time></trkpt><trkpt lat="44.3001415" lon="11.1216465"><ele>180.0</ele><time>2026-03-28T13:26:16.092Z</time></trkpt><trkpt lat="44.3002654" lon="11.1218423"><ele>180.0</ele><time>2026-03-28T13:26:17.072Z</time></trkpt><trkpt lat="44.3003886" lon="11.1220321"><ele>180.0</ele><time>2026-03-28T13:26:18.098Z</time></trkpt><trkpt lat="44.3004951" lon="11.1222021"><ele>180.0</ele><time>2026-03-28T13:26:19.085Z</time></trkpt><trkpt lat="44.3005982" lon="11.1223629"><ele>181.5</ele><time>2026-03-28T13:26:20.08Z</time></trkpt><trkpt lat="44.300695" lon="11.122515"><ele>183.0</ele><time>2026-03-28T13:26:21.078Z</time></trkpt><trkpt lat="44.3007851" lon="11.1226576"><ele>184.5</ele><time>2026-03-28T13:26:22.087Z</time></trkpt><trkpt lat="44.3008812" lon="11.1228056"><ele>186.0</ele><time>2026-03-28T13:26:23.094Z</time></trkpt><trkpt lat="44.3009839" lon="11.1229667"><ele>186.0</ele><time>2026-03-28T13:26:24.102Z</time></trkpt><trkpt lat="44.3010888" lon="11.1231262"><ele>186.0</ele><time>2026-03-28T13:26:25.081Z</time></trkpt><trkpt lat="44.3011998" lon="11.1232911"><ele>186.0</ele><time>2026-03-28T13:26:26.093Z</time></trkpt><trkpt lat="44.3013072" lon="11.1234566"><ele>186.0</ele><time>2026-03-28T13:26:27.106Z</time></trkpt><trkpt lat="44.3014009" lon="11.1236079"><ele>186.0</ele><time>2026-03-28T13:26:28.083Z</time></trkpt><trkpt lat="44.3014834" lon="11.1237558"><ele>186.0</ele><time>2026-03-28T13:26:29.076Z</time></trkpt><trkpt lat="44.3015471" lon="11.1239115"><ele>186.0</ele><time>2026-03-28T13:26:30.088Z</time></trkpt><trkpt lat="44.3015955" lon="11.1240781"><ele>186.0</ele><time>2026-03-28T13:26:31.078Z</time></trkpt><trkpt lat="44.3016264" lon="11.1242653"><ele>186.0</ele><time>2026-03-28T13:26:32.082Z</time></trkpt><trkpt lat="44.3016428" lon="11.1244695"><ele>186.0</ele><time>2026-03-28T13:26:33.084Z</time></trkpt><trkpt lat="44.3016451" lon="11.1246966"><ele>186.0</ele><time>2026-03-28T13:26:34.103Z</time></trkpt><trkpt lat="44.3016366" lon="11.1249343"><ele>184.33333333333334</ele><time>2026-03-28T13:26:35.082Z</time></trkpt><trkpt lat="44.3016276" lon="11.1251848"><ele>182.66666666666669</ele><time>2026-03-28T13:26:36.084Z</time></trkpt><trkpt lat="44.3016166" lon="11.1254368"><ele>181.0</ele><time>2026-03-28T13:26:37.103Z</time></trkpt><trkpt lat="44.3016073" lon="11.1256754"><ele>181.0</ele><time>2026-03-28T13:26:38.087Z</time></trkpt><trkpt lat="44.3016105" lon="11.1259183"><ele>181.0</ele><time>2026-03-28T13:26:39.095Z</time></trkpt><trkpt lat="44.3016253" lon="11.1261516"><ele>181.0</ele><time>2026-03-28T13:26:40.091Z</time></trkpt><trkpt lat="44.3016486" lon="11.126382"><ele>180.33333333333334</ele><time>2026-03-28T13:26:41.078Z</time></trkpt><trkpt lat="44.3016765" lon="11.1266164"><ele>179.66666666666666</ele><time>2026-03-28T13:26:42.082Z</time></trkpt><trkpt lat="44.3017105" lon="11.1268631"><ele>179.0</ele><time>2026-03-28T13:26:43.097Z</time></trkpt><trkpt lat="44.3017483" lon="11.1271207"><ele>179.33333333333331</ele><time>2026-03-28T13:26:44.084Z</time></trkpt><trkpt lat="44.30179" lon="11.1273973"><ele>179.66666666666666</ele><time>2026-03-28T13:26:45.086Z</time></trkpt><trkpt lat="44.3018289" lon="11.1276734"><ele>180.0</ele><time>2026-03-28T13:26:46.075Z</time></trkpt><trkpt lat="44.3018673" lon="11.1279518"><ele>180.0</ele><time>2026-03-28T13:26:47.08Z</time></trkpt><trkpt lat="44.3019051" lon="11.128225"><ele>180.0</ele><time>2026-03-28T13:26:48.123Z</time></trkpt><trkpt lat="44.3019421" lon="11.1284632"><ele>180.0</ele><time>2026-03-28T13:26:49.105Z</time></trkpt><trkpt lat="44.3019767" lon="11.1286901"><ele>180.0</ele><time>2026-03-28T13:26:50.099Z</time></trkpt><trkpt lat="44.3020099" lon="11.1289077"><ele>180.0</ele><time>2026-03-28T13:26:51.115Z</time></trkpt><trkpt lat="44.3020393" lon="11.1291059"><ele>180.0</ele><time>2026-03-28T13:26:52.098Z</time></trkpt><trkpt lat="44.302057" lon="11.1292989"><ele>180.0</ele><time>2026-03-28T13:26:53.095Z</time></trkpt><trkpt lat="44.3020601" lon="11.1294907"><ele>180.0</ele><time>2026-03-28T13:26:54.091Z</time></trkpt><trkpt lat="44.3020302" lon="11.1296801"><ele>180.0</ele><time>2026-03-28T13:26:55.079Z</time></trkpt><trkpt lat="44.3019635" lon="11.1298838"><ele>180.0</ele><time>2026-03-28T13:26:56.079Z</time></trkpt><trkpt lat="44.3018692" lon="11.1300974"><ele>181.0</ele><time>2026-03-28T13:26:57.069Z</time></trkpt><trkpt lat="44.3017657" lon="11.1303173"><ele>182.0</ele><time>2026-03-28T13:26:58.077Z</time></trkpt><trkpt lat="44.3016759" lon="11.130527"><ele>183.0</ele><time>2026-03-28T13:26:59.084Z</time></trkpt><trkpt lat="44.3016179" lon="11.1307314"><ele>183.33333333333334</ele><time>2026-03-28T13:27:00.095Z</time></trkpt><trkpt lat="44.3016024" lon="11.1309554"><ele>183.66666666666669</ele><time>2026-03-28T13:27:01.078Z</time></trkpt><trkpt lat="44.301623" lon="11.1312095"><ele>184.0</ele><time>2026-03-28T13:27:02.083Z</time></trkpt><trkpt lat="44.3016672" lon="11.1314648"><ele>183.5</ele><time>2026-03-28T13:27:03.093Z</time></trkpt><trkpt lat="44.3017103" lon="11.1317032"><ele>183.0</ele><time>2026-03-28T13:27:04.102Z</time></trkpt><trkpt lat="44.301725" lon="11.1319021"><ele>182.5</ele><time>2026-03-28T13:27:05.095Z</time></trkpt><trkpt lat="44.3017151" lon="11.1320719"><ele>182.0</ele><time>2026-03-28T13:27:06.083Z</time></trkpt><trkpt lat="44.3016685" lon="11.1322366"><ele>183.0</ele><time>2026-03-28T13:27:07.065Z</time></trkpt><trkpt lat="44.3015839" lon="11.132406"><ele>184.0</ele><time>2026-03-28T13:27:08.069Z</time></trkpt><trkpt lat="44.3014719" lon="11.1325867"><ele>185.0</ele><time>2026-03-28T13:27:09.08Z</time></trkpt><trkpt lat="44.3013543" lon="11.1327713"><ele>183.33333333333331</ele><time>2026-03-28T13:27:10.083Z</time></trkpt><trkpt lat="44.3012381" lon="11.1329618"><ele>181.66666666666666</ele><time>2026-03-28T13:27:11.092Z</time></trkpt><trkpt lat="44.3011264" lon="11.13314"><ele>180.0</ele><time>2026-03-28T13:27:12.089Z</time></trkpt><trkpt lat="44.3010218" lon="11.1333143"><ele>180.0</ele><time>2026-03-28T13:27:13.097Z</time></trkpt><trkpt lat="44.3009359" lon="11.1334791"><ele>180.0</ele><time>2026-03-28T13:27:14.086Z</time></trkpt><trkpt lat="44.3008752" lon="11.133652"><ele>180.0</ele><time>2026-03-28T13:27:15.097Z</time></trkpt><trkpt lat="44.3008391" lon="11.1338331"><ele>180.0</ele><time>2026-03-28T13:27:16.082Z</time></trkpt><trkpt lat="44.3008251" lon="11.1340384"><ele>180.25</ele><time>2026-03-28T13:27:17.112Z</time></trkpt><trkpt lat="44.3008405" lon="11.1342287"><ele>180.5</ele><time>2026-03-28T13:27:18.078Z</time></trkpt><trkpt lat="44.300898" lon="11.1344175"><ele>180.75</ele><time>2026-03-28T13:27:19.096Z</time></trkpt><trkpt lat="44.3009963" lon="11.1345874"><ele>181.0</ele><time>2026-03-28T13:27:20.103Z</time></trkpt><trkpt lat="44.3011239" lon="11.1347201"><ele>181.0</ele><time>2026-03-28T13:27:21.08Z</time></trkpt><trkpt lat="44.3012551" lon="11.1348341"><ele>181.0</ele><time>2026-03-28T13:27:22.082Z</time></trkpt><trkpt lat="44.3013692" lon="11.1349392"><ele>181.0</ele><time>2026-03-28T13:27:23.093Z</time></trkpt><trkpt lat="44.3014575" lon="11.1350494"><ele>181.0</ele><time>2026-03-28T13:27:24.09Z</time></trkpt><trkpt lat="44.3015143" lon="11.1351496"><ele>184.4</ele><time>2026-03-28T13:27:25.073Z</time></trkpt><trkpt lat="44.3015641" lon="11.1352835"><ele>187.8</ele><time>2026-03-28T13:27:26.09Z</time></trkpt><trkpt lat="44.3015891" lon="11.1354291"><ele>191.20000000000002</ele><time>2026-03-28T13:27:27.098Z</time></trkpt><trkpt lat="44.3015915" lon="11.135579"><ele>194.60000000000002</ele><time>2026-03-28T13:27:28.084Z</time></trkpt><trkpt lat="44.3015816" lon="11.1357329"><ele>198.0</ele><time>2026-03-28T13:27:29.1Z</time></trkpt><trkpt lat="44.301567" lon="11.13588"><ele>198.0</ele><time>2026-03-28T13:27:30.084Z</time></trkpt><trkpt lat="44.3015551" lon="11.1360198"><ele>198.0</ele><time>2026-03-28T13:27:31.086Z</time></trkpt><trkpt lat="44.3015495" lon="11.1361606"><ele>198.0</ele><time>2026-03-28T13:27:32.082Z</time></trkpt><trkpt lat="44.3015594" lon="11.1363031"><ele>198.0</ele><time>2026-03-28T13:27:33.095Z</time></trkpt><trkpt lat="44.3015806" lon="11.136439"><ele>198.0</ele><time>2026-03-28T13:27:34.091Z</time></trkpt><trkpt lat="44.3016072" lon="11.1365776"><ele>198.0</ele><time>2026-03-28T13:27:35.087Z</time></trkpt><trkpt lat="44.3016278" lon="11.1367122"><ele>198.0</ele><time>2026-03-28T13:27:36.089Z</time></trkpt><trkpt lat="44.3016462" lon="11.1368439"><ele>198.0</ele><time>2026-03-28T13:27:37.069Z</time></trkpt><trkpt lat="44.301664" lon="11.1369922"><ele>198.0</ele><time>2026-03-28T13:27:38.096Z</time></trkpt><trkpt lat="44.3016716" lon="11.1371479"><ele>198.0</ele><time>2026-03-28T13:27:39.095Z</time></trkpt><trkpt lat="44.3016768" lon="11.1373075"><ele>197.4</ele><time>2026-03-28T13:27:40.09Z</time></trkpt><trkpt lat="44.3016861" lon="11.1374661"><ele>196.8</ele><time>2026-03-28T13:27:41.08Z</time></trkpt><trkpt lat="44.3016979" lon="11.1376188"><ele>196.2</ele><time>2026-03-28T13:27:42.092Z</time></trkpt><trkpt lat="44.3017197" lon="11.1377521"><ele>195.6</ele><time>2026-03-28T13:27:43.087Z</time></trkpt><trkpt lat="44.3017523" lon="11.1378757"><ele>195.0</ele><time>2026-03-28T13:27:44.086Z</time></trkpt><trkpt lat="44.3017879" lon="11.1379983"><ele>195.0</ele><time>2026-03-28T13:27:45.101Z</time></trkpt><trkpt lat="44.301821" lon="11.1381219"><ele>195.0</ele><time>2026-03-28T13:27:46.1Z</time></trkpt><trkpt lat="44.3018518" lon="11.138232"><ele>195.0</ele><time>2026-03-28T13:27:47.083Z</time></trkpt><trkpt lat="44.3018852" lon="11.1383458"><ele>195.0</ele><time>2026-03-28T13:27:48.081Z</time></trkpt><trkpt lat="44.301919" lon="11.1384615"><ele>195.0</ele><time>2026-03-28T13:27:49.107Z</time></trkpt><trkpt lat="44.3019578" lon="11.1385752"><ele>195.0</ele><time>2026-03-28T13:27:50.097Z</time></trkpt><trkpt lat="44.3020036" lon="11.1386973"><ele>192.75</ele><time>2026-03-28T13:27:51.07Z</time></trkpt><trkpt lat="44.3020677" lon="11.1388317"><ele>190.5</ele><time>2026-03-28T13:27:52.089Z</time></trkpt><trkpt lat="44.302137" lon="11.1389614"><ele>188.25</ele><time>2026-03-28T13:27:53.107Z</time></trkpt><trkpt lat="44.3022073" lon="11.1390837"><ele>186.0</ele><time>2026-03-28T13:27:54.087Z</time></trkpt><trkpt lat="44.3022778" lon="11.1392107"><ele>192.5</ele><time>2026-03-28T13:27:55.1Z</time></trkpt><trkpt lat="44.3023474" lon="11.1393359"><ele>199.0</ele><time>2026-03-28T13:27:56.088Z</time></trkpt><trkpt lat="44.3024223" lon="11.1394666"><ele>205.5</ele><time>2026-03-28T13:27:57.095Z</time></trkpt><trkpt lat="44.3024962" lon="11.1395974"><ele>212.0</ele><time>2026-03-28T13:27:58.07Z</time></trkpt><trkpt lat="44.3025699" lon="11.1397435"><ele>208.0</ele><time>2026-03-28T13:27:59.091Z</time></trkpt><trkpt lat="44.3026265" lon="11.1398981"><ele>204.0</ele><time>2026-03-28T13:28:00.08Z</time></trkpt><trkpt lat="44.3026711" lon="11.1400665"><ele>200.0</ele><time>2026-03-28T13:28:01.081Z</time></trkpt><trkpt lat="44.3027001" lon="11.1402445"><ele>196.0</ele><time>2026-03-28T13:28:02.095Z</time></trkpt><trkpt lat="44.3027196" lon="11.1404145"><ele>196.0</ele><time>2026-03-28T13:28:03.081Z</time></trkpt><trkpt lat="44.3027326" lon="11.1405923"><ele>196.0</ele><time>2026-03-28T13:28:04.082Z</time></trkpt><trkpt lat="44.3027326" lon="11.1407775"><ele>196.0</ele><time>2026-03-28T13:28:05.094Z</time></trkpt><trkpt lat="44.3027169" lon="11.1409678"><ele>196.0</ele><time>2026-03-28T13:28:06.086Z</time></trkpt><trkpt lat="44.3026819" lon="11.1411682"><ele>194.25</ele><time>2026-03-28T13:28:07.094Z</time></trkpt><trkpt lat="44.3026489" lon="11.1413657"><ele>192.5</ele><time>2026-03-28T13:28:08.089Z</time></trkpt><trkpt lat="44.3026245" lon="11.1415612"><ele>190.75</ele><time>2026-03-28T13:28:09.085Z</time></trkpt><trkpt lat="44.302611" lon="11.1417526"><ele>189.0</ele><time>2026-03-28T13:28:10.091Z</time></trkpt><trkpt lat="44.3026078" lon="11.1419452"><ele>189.0</ele><time>2026-03-28T13:28:11.089Z</time></trkpt><trkpt lat="44.3026084" lon="11.1421494"><ele>189.0</ele><time>2026-03-28T13:28:12.098Z</time></trkpt><trkpt lat="44.3026101" lon="11.1423774"><ele>189.0</ele><time>2026-03-28T13:28:13.105Z</time></trkpt><trkpt lat="44.302609" lon="11.142626"><ele>189.66666666666666</ele><time>2026-03-28T13:28:14.092Z</time></trkpt><trkpt lat="44.3026083" lon="11.1428754"><ele>190.33333333333331</ele><time>2026-03-28T13:28:15.093Z</time></trkpt><trkpt lat="44.3026043" lon="11.143114"><ele>191.0</ele><time>2026-03-28T13:28:16.095Z</time></trkpt><trkpt lat="44.3025997" lon="11.1433286"><ele>191.0</ele><time>2026-03-28T13:28:17.111Z</time></trkpt><trkpt lat="44.3025968" lon="11.1435117"><ele>191.0</ele><time>2026-03-28T13:28:18.08Z</time></trkpt><trkpt lat="44.3025972" lon="11.1436919"><ele>191.0</ele><time>2026-03-28T13:28:19.089Z</time></trkpt><trkpt lat="44.3025962" lon="11.1438634"><ele>191.0</ele><time>2026-03-28T13:28:20.119Z</time></trkpt><trkpt lat="44.3025925" lon="11.1440173"><ele>191.25</ele><time>2026-03-28T13:28:21.095Z</time></trkpt><trkpt lat="44.3025882" lon="11.1441719"><ele>191.5</ele><time>2026-03-28T13:28:22.099Z</time></trkpt><trkpt lat="44.3025842" lon="11.1443238"><ele>191.75</ele><time>2026-03-28T13:28:23.091Z</time></trkpt><trkpt lat="44.3025858" lon="11.1444892"><ele>192.0</ele><time>2026-03-28T13:28:24.088Z</time></trkpt><trkpt lat="44.3025995" lon="11.1446606"><ele>192.0</ele><time>2026-03-28T13:28:25.088Z</time></trkpt><trkpt lat="44.3026197" lon="11.1448261"><ele>192.0</ele><time>2026-03-28T13:28:26.072Z</time></trkpt><trkpt lat="44.3026452" lon="11.1449831"><ele>192.0</ele><time>2026-03-28T13:28:27.071Z</time></trkpt><trkpt lat="44.3026745" lon="11.1451305"><ele>192.0</ele><time>2026-03-28T13:28:28.079Z</time></trkpt><trkpt lat="44.3027105" lon="11.1452732"><ele>192.2</ele><time>2026-03-28T13:28:29.096Z</time></trkpt><trkpt lat="44.3027502" lon="11.1454076"><ele>192.39999999999998</ele><time>2026-03-28T13:28:30.088Z</time></trkpt><trkpt lat="44.3028029" lon="11.1455354"><ele>192.60000000000002</ele><time>2026-03-28T13:28:31.08Z</time></trkpt><trkpt lat="44.3028708" lon="11.1456598"><ele>192.8</ele><time>2026-03-28T13:28:32.078Z</time></trkpt><trkpt lat="44.3029554" lon="11.1457726"><ele>193.0</ele><time>2026-03-28T13:28:33.08Z</time></trkpt><trkpt lat="44.3030555" lon="11.1458727"><ele>194.0</ele><time>2026-03-28T13:28:34.103Z</time></trkpt><trkpt lat="44.3031589" lon="11.1459587"><ele>195.0</ele><time>2026-03-28T13:28:35.074Z</time></trkpt><trkpt lat="44.3032679" lon="11.1460403"><ele>196.0</ele><time>2026-03-28T13:28:36.095Z</time></trkpt><trkpt lat="44.3033716" lon="11.1461191"><ele>197.0</ele><time>2026-03-28T13:28:37.088Z</time></trkpt><trkpt lat="44.3034729" lon="11.1462127"><ele>197.0</ele><time>2026-03-28T13:28:38.081Z</time></trkpt><trkpt lat="44.3035604" lon="11.1463224"><ele>197.0</ele><time>2026-03-28T13:28:39.078Z</time></trkpt><trkpt lat="44.303632" lon="11.1464444"><ele>197.0</ele><time>2026-03-28T13:28:40.102Z</time></trkpt><trkpt lat="44.3036898" lon="11.1465624"><ele>197.0</ele><time>2026-03-28T13:28:41.09Z</time></trkpt><trkpt lat="44.3037477" lon="11.1466802"><ele>197.0</ele><time>2026-03-28T13:28:42.079Z</time></trkpt><trkpt lat="44.3038125" lon="11.146796"><ele>197.25</ele><time>2026-03-28T13:28:43.091Z</time></trkpt><trkpt lat="44.3038895" lon="11.146906"><ele>197.5</ele><time>2026-03-28T13:28:44.088Z</time></trkpt><trkpt lat="44.3039828" lon="11.1470047"><ele>197.75</ele><time>2026-03-28T13:28:45.088Z</time></trkpt><trkpt lat="44.3041084" lon="11.1470896"><ele>198.0</ele><time>2026-03-28T13:28:46.08Z</time></trkpt><trkpt lat="44.3042684" lon="11.1471833"><ele>198.0</ele><time>2026-03-28T13:28:47.082Z</time></trkpt><trkpt lat="44.3044148" lon="11.1472654"><ele>198.0</ele><time>2026-03-28T13:28:48.085Z</time></trkpt><trkpt lat="44.3045452" lon="11.1473432"><ele>198.0</ele><time>2026-03-28T13:28:49.072Z</time></trkpt><trkpt lat="44.3046729" lon="11.147427"><ele>198.0</ele><time>2026-03-28T13:28:50.081Z</time></trkpt><trkpt lat="44.3047907" lon="11.1475367"><ele>199.0</ele><time>2026-03-28T13:28:51.091Z</time></trkpt><trkpt lat="44.3049039" lon="11.1476491"><ele>200.0</ele><time>2026-03-28T13:28:52.108Z</time></trkpt><trkpt lat="44.3050038" lon="11.1477485"><ele>201.0</ele><time>2026-03-28T13:28:53.093Z</time></trkpt><trkpt lat="44.3050961" lon="11.1478366"><ele>202.0</ele><time>2026-03-28T13:28:54.083Z</time></trkpt><trkpt lat="44.30518" lon="11.1479293"><ele>202.0</ele><time>2026-03-28T13:28:55.1Z</time></trkpt><trkpt lat="44.3052518" lon="11.1480206"><ele>202.0</ele><time>2026-03-28T13:28:56.082Z</time></trkpt><trkpt lat="44.3053118" lon="11.148131"><ele>202.0</ele><time>2026-03-28T13:28:57.091Z</time></trkpt><trkpt lat="44.3053572" lon="11.1482581"><ele>202.0</ele><time>2026-03-28T13:28:58.078Z</time></trkpt><trkpt lat="44.3053897" lon="11.1484115"><ele>202.0</ele><time>2026-03-28T13:28:59.091Z</time></trkpt><trkpt lat="44.3054047" lon="11.1485753"><ele>199.75</ele><time>2026-03-28T13:29:00.083Z</time></trkpt><trkpt lat="44.3054017" lon="11.1487427"><ele>197.5</ele><time>2026-03-28T13:29:01.087Z</time></trkpt><trkpt lat="44.3053887" lon="11.1488996"><ele>195.25</ele><time>2026-03-28T13:29:02.083Z</time></trkpt><trkpt lat="44.3053674" lon="11.1490545"><ele>193.0</ele><time>2026-03-28T13:29:03.095Z</time></trkpt><trkpt lat="44.3053465" lon="11.1492106"><ele>193.0</ele><time>2026-03-28T13:29:04.102Z</time></trkpt><trkpt lat="44.3053314" lon="11.1493629"><ele>193.0</ele><time>2026-03-28T13:29:05.095Z</time></trkpt><trkpt lat="44.3053151" lon="11.1495165"><ele>193.0</ele><time>2026-03-28T13:29:06.109Z</time></trkpt><trkpt lat="44.3053019" lon="11.1496564"><ele>193.0</ele><time>2026-03-28T13:29:07.098Z</time></trkpt><trkpt lat="44.3052887" lon="11.1497987"><ele>193.0</ele><time>2026-03-28T13:29:08.098Z</time></trkpt><trkpt lat="44.3052762" lon="11.1499398"><ele>192.25</ele><time>2026-03-28T13:29:09.086Z</time></trkpt><trkpt lat="44.3052622" lon="11.1500911"><ele>191.5</ele><time>2026-03-28T13:29:10.116Z</time></trkpt><trkpt lat="44.3052497" lon="11.150239"><ele>190.75</ele><time>2026-03-28T13:29:11.097Z</time></trkpt><trkpt lat="44.3052368" lon="11.1503919"><ele>190.0</ele><time>2026-03-28T13:29:12.07Z</time></trkpt><trkpt lat="44.3052202" lon="11.1505666"><ele>188.0</ele><time>2026-03-28T13:29:13.099Z</time></trkpt><trkpt lat="44.3052074" lon="11.1507714"><ele>186.0</ele><time>2026-03-28T13:29:14.081Z</time></trkpt><trkpt lat="44.3051854" lon="11.1510305"><ele>184.0</ele><time>2026-03-28T13:29:15.104Z</time></trkpt><trkpt lat="44.3051555" lon="11.1513208"><ele>184.0</ele><time>2026-03-28T13:29:16.083Z</time></trkpt><trkpt lat="44.3051229" lon="11.1516476"><ele>184.0</ele><time>2026-03-28T13:29:17.09Z</time></trkpt><trkpt lat="44.3050832" lon="11.1520017"><ele>184.0</ele><time>2026-03-28T13:29:18.104Z</time></trkpt><trkpt lat="44.3050476" lon="11.1523556"><ele>184.0</ele><time>2026-03-28T13:29:19.095Z</time></trkpt><trkpt lat="44.3050165" lon="11.1527073"><ele>182.5</ele><time>2026-03-28T13:29:20.085Z</time></trkpt><trkpt lat="44.3049856" lon="11.1530585"><ele>181.0</ele><time>2026-03-28T13:29:21.113Z</time></trkpt><trkpt lat="44.3049574" lon="11.1533868"><ele>180.33333333333334</ele><time>2026-03-28T13:29:22.122Z</time></trkpt><trkpt lat="44.3049355" lon="11.1536848"><ele>179.66666666666666</ele><time>2026-03-28T13:29:23.093Z</time></trkpt><trkpt lat="44.304923" lon="11.1539737"><ele>179.0</ele><time>2026-03-28T13:29:24.065Z</time></trkpt><trkpt lat="44.3049239" lon="11.1542719"><ele>179.0</ele><time>2026-03-28T13:29:25.086Z</time></trkpt><trkpt lat="44.3049375" lon="11.1545592"><ele>179.0</ele><time>2026-03-28T13:29:26.083Z</time></trkpt><trkpt lat="44.3049588" lon="11.1548445"><ele>179.0</ele><time>2026-03-28T13:29:27.072Z</time></trkpt><trkpt lat="44.3050015" lon="11.1551285"><ele>179.33333333333331</ele><time>2026-03-28T13:29:28.084Z</time></trkpt><trkpt lat="44.3050674" lon="11.1553993"><ele>179.66666666666666</ele><time>2026-03-28T13:29:29.07Z</time></trkpt><trkpt lat="44.3051632" lon="11.1556647"><ele>180.0</ele><time>2026-03-28T13:29:30.078Z</time></trkpt><trkpt lat="44.3052851" lon="11.155908"><ele>180.0</ele><time>2026-03-28T13:29:31.084Z</time></trkpt><trkpt lat="44.3054364" lon="11.1561213"><ele>180.0</ele><time>2026-03-28T13:29:32.088Z</time></trkpt><trkpt lat="44.3056039" lon="11.1562968"><ele>180.0</ele><time>2026-03-28T13:29:33.095Z</time></trkpt><trkpt lat="44.3057867" lon="11.1564304"><ele>180.33333333333334</ele><time>2026-03-28T13:29:34.082Z</time></trkpt><trkpt lat="44.305996" lon="11.1565248"><ele>180.66666666666669</ele><time>2026-03-28T13:29:35.101Z</time></trkpt><trkpt lat="44.3062143" lon="11.1565864"><ele>181.0</ele><time>2026-03-28T13:29:36.105Z</time></trkpt><trkpt lat="44.3064226" lon="11.1566464"><ele>181.0</ele><time>2026-03-28T13:29:37.089Z</time></trkpt><trkpt lat="44.3066196" lon="11.1567167"><ele>181.0</ele><time>2026-03-28T13:29:38.08Z</time></trkpt><trkpt lat="44.3068018" lon="11.1568129"><ele>181.0</ele><time>2026-03-28T13:29:39.076Z</time></trkpt><trkpt lat="44.3069749" lon="11.1569211"><ele>181.0</ele><time>2026-03-28T13:29:40.074Z</time></trkpt><trkpt lat="44.3071373" lon="11.1570372"><ele>181.0</ele><time>2026-03-28T13:29:41.103Z</time></trkpt><trkpt lat="44.307282" lon="11.157156"><ele>181.0</ele><time>2026-03-28T13:29:42.106Z</time></trkpt><trkpt lat="44.3074134" lon="11.1572738"><ele>179.0</ele><time>2026-03-28T13:29:43.102Z</time></trkpt><trkpt lat="44.3075354" lon="11.1573758"><ele>177.0</ele><time>2026-03-28T13:29:44.09Z</time></trkpt><trkpt lat="44.3076658" lon="11.1574613"><ele>175.0</ele><time>2026-03-28T13:29:45.085Z</time></trkpt><trkpt lat="44.3078112" lon="11.1575242"><ele>173.0</ele><time>2026-03-28T13:29:46.09Z</time></trkpt><trkpt lat="44.3079697" lon="11.15757"><ele>176.0</ele><time>2026-03-28T13:29:47.086Z</time></trkpt><trkpt lat="44.3081391" lon="11.1576056"><ele>179.0</ele><time>2026-03-28T13:29:48.093Z</time></trkpt><trkpt lat="44.3083126" lon="11.1576341"><ele>182.0</ele><time>2026-03-28T13:29:49.101Z</time></trkpt><trkpt lat="44.3084823" lon="11.1576536"><ele>182.0</ele><time>2026-03-28T13:29:50.079Z</time></trkpt><trkpt lat="44.308665" lon="11.1576746"><ele>182.0</ele><time>2026-03-28T13:29:51.088Z</time></trkpt><trkpt lat="44.3088543" lon="11.1576962"><ele>182.0</ele><time>2026-03-28T13:29:52.079Z</time></trkpt><trkpt lat="44.3090524" lon="11.157718"><ele>180.0</ele><time>2026-03-28T13:29:53.08Z</time></trkpt><trkpt lat="44.3092502" lon="11.1577383"><ele>178.0</ele><time>2026-03-28T13:29:54.09Z</time></trkpt><trkpt lat="44.3094436" lon="11.1577514"><ele>176.0</ele><time>2026-03-28T13:29:55.093Z</time></trkpt><trkpt lat="44.3096358" lon="11.1577493"><ele>171.66666666666666</ele><time>2026-03-28T13:29:56.077Z</time></trkpt><trkpt lat="44.3098253" lon="11.1577419"><ele>167.33333333333334</ele><time>2026-03-28T13:29:57.09Z</time></trkpt><trkpt lat="44.3100168" lon="11.157734"><ele>163.0</ele><time>2026-03-28T13:29:58.1Z</time></trkpt><trkpt lat="44.3102014" lon="11.1577256"><ele>163.0</ele><time>2026-03-28T13:29:59.099Z</time></trkpt><trkpt lat="44.3103775" lon="11.1577214"><ele>163.0</ele><time>2026-03-28T13:30:00.066Z</time></trkpt><trkpt lat="44.3105601" lon="11.1577203"><ele>163.0</ele><time>2026-03-28T13:30:01.087Z</time></trkpt><trkpt lat="44.3107396" lon="11.157722"><ele>163.0</ele><time>2026-03-28T13:30:02.089Z</time></trkpt><trkpt lat="44.3109187" lon="11.157724"><ele>163.0</ele><time>2026-03-28T13:30:03.107Z</time></trkpt><trkpt lat="44.311086" lon="11.157723"><ele>163.0</ele><time>2026-03-28T13:30:04.097Z</time></trkpt><trkpt lat="44.3112481" lon="11.1577233"><ele>163.66666666666669</ele><time>2026-03-28T13:30:05.085Z</time></trkpt><trkpt lat="44.3114097" lon="11.1577318"><ele>164.33333333333334</ele><time>2026-03-28T13:30:06.098Z</time></trkpt><trkpt lat="44.3115645" lon="11.1577534"><ele>165.0</ele><time>2026-03-28T13:30:07.072Z</time></trkpt><trkpt lat="44.3117245" lon="11.1577968"><ele>165.0</ele><time>2026-03-28T13:30:08.078Z</time></trkpt><trkpt lat="44.3118877" lon="11.1578569"><ele>165.0</ele><time>2026-03-28T13:30:09.097Z</time></trkpt><trkpt lat="44.3120433" lon="11.1579279"><ele>165.0</ele><time>2026-03-28T13:30:10.086Z</time></trkpt><trkpt lat="44.3121968" lon="11.158002"><ele>163.25</ele><time>2026-03-28T13:30:11.081Z</time></trkpt><trkpt lat="44.3123471" lon="11.1580734"><ele>161.5</ele><time>2026-03-28T13:30:12.087Z</time></trkpt><trkpt lat="44.3124886" lon="11.1581367"><ele>159.75</ele><time>2026-03-28T13:30:13.093Z</time></trkpt><trkpt lat="44.3126107" lon="11.1581936"><ele>158.0</ele><time>2026-03-28T13:30:14.086Z</time></trkpt><trkpt lat="44.3127175" lon="11.1582495"><ele>158.0</ele><time>2026-03-28T13:30:15.075Z</time></trkpt><trkpt lat="44.312813" lon="11.1583115"><ele>158.0</ele><time>2026-03-28T13:30:16.086Z</time></trkpt><trkpt lat="44.3128964" lon="11.1583785"><ele>158.0</ele><time>2026-03-28T13:30:17.079Z</time></trkpt><trkpt lat="44.3129729" lon="11.1584536"><ele>158.0</ele><time>2026-03-28T13:30:18.082Z</time></trkpt><trkpt lat="44.3130469" lon="11.1585413"><ele>158.0</ele><time>2026-03-28T13:30:19.093Z</time></trkpt><trkpt lat="44.3131288" lon="11.158647"><ele>159.0</ele><time>2026-03-28T13:30:20.091Z</time></trkpt><trkpt lat="44.3132142" lon="11.1587813"><ele>160.0</ele><time>2026-03-28T13:30:21.084Z</time></trkpt><trkpt lat="44.3133021" lon="11.1589522"><ele>161.0</ele><time>2026-03-28T13:30:22.077Z</time></trkpt><trkpt lat="44.3133923" lon="11.1591622"><ele>161.0</ele><time>2026-03-28T13:30:23.085Z</time></trkpt><trkpt lat="44.3134711" lon="11.1594103"><ele>161.0</ele><time>2026-03-28T13:30:24.093Z</time></trkpt><trkpt lat="44.3135362" lon="11.1596892"><ele>161.0</ele><time>2026-03-28T13:30:25.076Z</time></trkpt><trkpt lat="44.3135741" lon="11.1599805"><ele>160.0</ele><time>2026-03-28T13:30:26.073Z</time></trkpt><trkpt lat="44.3135749" lon="11.160269"><ele>159.0</ele><time>2026-03-28T13:30:27.078Z</time></trkpt><trkpt lat="44.3135502" lon="11.1605458"><ele>158.0</ele><time>2026-03-28T13:30:28.093Z</time></trkpt><trkpt lat="44.3135103" lon="11.1608139"><ele>158.0</ele><time>2026-03-28T13:30:29.084Z</time></trkpt><trkpt lat="44.313454" lon="11.1610905"><ele>158.0</ele><time>2026-03-28T13:30:30.084Z</time></trkpt><trkpt lat="44.313379" lon="11.1613533"><ele>158.0</ele><time>2026-03-28T13:30:31.08Z</time></trkpt><trkpt lat="44.3132962" lon="11.1615914"><ele>161.0</ele><time>2026-03-28T13:30:32.075Z</time></trkpt><trkpt lat="44.3132111" lon="11.1618118"><ele>164.0</ele><time>2026-03-28T13:30:33.093Z</time></trkpt><trkpt lat="44.313151" lon="11.1620132"><ele>167.0</ele><time>2026-03-28T13:30:34.08Z</time></trkpt><trkpt lat="44.3131038" lon="11.162231"><ele>164.0</ele><time>2026-03-28T13:30:35.082Z</time></trkpt><trkpt lat="44.3130658" lon="11.1624385"><ele>161.0</ele><time>2026-03-28T13:30:36.09Z</time></trkpt><trkpt lat="44.3130166" lon="11.1626187"><ele>158.0</ele><time>2026-03-28T13:30:37.088Z</time></trkpt><trkpt lat="44.3129732" lon="11.1627815"><ele>155.0</ele><time>2026-03-28T13:30:38.078Z</time></trkpt><trkpt lat="44.3129445" lon="11.1629498"><ele>155.0</ele><time>2026-03-28T13:30:39.089Z</time></trkpt><trkpt lat="44.3129465" lon="11.1631277"><ele>155.0</ele><time>2026-03-28T13:30:40.082Z</time></trkpt><trkpt lat="44.3129916" lon="11.1633203"><ele>155.0</ele><time>2026-03-28T13:30:41.093Z</time></trkpt><trkpt lat="44.3130694" lon="11.1635256"><ele>155.0</ele><time>2026-03-28T13:30:42.09Z</time></trkpt><trkpt lat="44.3131768" lon="11.1637471"><ele>159.33333333333331</ele><time>2026-03-28T13:30:43.084Z</time></trkpt><trkpt lat="44.3132844" lon="11.1639674"><ele>163.66666666666666</ele><time>2026-03-28T13:30:44.082Z</time></trkpt><trkpt lat="44.3133835" lon="11.1641747"><ele>168.0</ele><time>2026-03-28T13:30:45.114Z</time></trkpt><trkpt lat="44.3134701" lon="11.1643509"><ele>168.0</ele><time>2026-03-28T13:30:46.1Z</time></trkpt><trkpt lat="44.3135436" lon="11.164513"><ele>168.0</ele><time>2026-03-28T13:30:47.109Z</time></trkpt><trkpt lat="44.3136071" lon="11.1646521"><ele>168.0</ele><time>2026-03-28T13:30:48.099Z</time></trkpt><trkpt lat="44.3136655" lon="11.1647842"><ele>168.0</ele><time>2026-03-28T13:30:49.09Z</time></trkpt><trkpt lat="44.3137276" lon="11.1649119"><ele>167.0</ele><time>2026-03-28T13:30:50.087Z</time></trkpt><trkpt lat="44.3137865" lon="11.1650404"><ele>166.0</ele><time>2026-03-28T13:30:51.09Z</time></trkpt><trkpt lat="44.313831" lon="11.1651813"><ele>165.0</ele><time>2026-03-28T13:30:52.096Z</time></trkpt><trkpt lat="44.313853" lon="11.1653346"><ele>164.0</ele><time>2026-03-28T13:30:53.109Z</time></trkpt><trkpt lat="44.313856" lon="11.1654908"><ele>163.0</ele><time>2026-03-28T13:30:54.086Z</time></trkpt><trkpt lat="44.3138335" lon="11.1656575"><ele>163.2</ele><time>2026-03-28T13:30:55.093Z</time></trkpt><trkpt lat="44.3137887" lon="11.1658103"><ele>163.4</ele><time>2026-03-28T13:30:56.089Z</time></trkpt><trkpt lat="44.3137446" lon="11.1659359"><ele>163.6</ele><time>2026-03-28T13:30:57.078Z</time></trkpt><trkpt lat="44.313704" lon="11.1660598"><ele>163.79999999999998</ele><time>2026-03-28T13:30:58.086Z</time></trkpt><trkpt lat="44.3136952" lon="11.1661916"><ele>164.0</ele><time>2026-03-28T13:30:59.096Z</time></trkpt><trkpt lat="44.3137094" lon="11.1663454"><ele>164.0</ele><time>2026-03-28T13:31:00.084Z</time></trkpt><trkpt lat="44.3137623" lon="11.1665083"><ele>164.0</ele><time>2026-03-28T13:31:01.088Z</time></trkpt><trkpt lat="44.3138387" lon="11.1666595"><ele>164.0</ele><time>2026-03-28T13:31:02.091Z</time></trkpt><trkpt lat="44.3139235" lon="11.166791"><ele>164.0</ele><time>2026-03-28T13:31:03.098Z</time></trkpt><trkpt lat="44.3140076" lon="11.1669156"><ele>166.2</ele><time>2026-03-28T13:31:04.095Z</time></trkpt><trkpt lat="44.3140889" lon="11.1670321"><ele>168.39999999999998</ele><time>2026-03-28T13:31:05.084Z</time></trkpt><trkpt lat="44.3141672" lon="11.1671404"><ele>170.6</ele><time>2026-03-28T13:31:06.065Z</time></trkpt><trkpt lat="44.3142554" lon="11.1672368"><ele>172.8</ele><time>2026-03-28T13:31:07.08Z</time></trkpt><trkpt lat="44.3143497" lon="11.1673165"><ele>175.0</ele><time>2026-03-28T13:31:08.078Z</time></trkpt><trkpt lat="44.3144567" lon="11.1673742"><ele>175.0</ele><time>2026-03-28T13:31:09.09Z</time></trkpt><trkpt lat="44.3145724" lon="11.1674099"><ele>175.0</ele><time>2026-03-28T13:31:10.08Z</time></trkpt><trkpt lat="44.3146897" lon="11.1674307"><ele>175.0</ele><time>2026-03-28T13:31:11.09Z</time></trkpt><trkpt lat="44.314795" lon="11.1674447"><ele>175.0</ele><time>2026-03-28T13:31:12.069Z</time></trkpt><trkpt lat="44.3148872" lon="11.1674789"><ele>175.0</ele><time>2026-03-28T13:31:13.095Z</time></trkpt><trkpt lat="44.3149687" lon="11.1675348"><ele>177.0</ele><time>2026-03-28T13:31:14.087Z</time></trkpt><trkpt lat="44.3150451" lon="11.1676181"><ele>179.0</ele><time>2026-03-28T13:31:15.084Z</time></trkpt><trkpt lat="44.3151028" lon="11.1677294"><ele>181.0</ele><time>2026-03-28T13:31:16.084Z</time></trkpt><trkpt lat="44.3151349" lon="11.1678619"><ele>183.0</ele><time>2026-03-28T13:31:17.077Z</time></trkpt><trkpt lat="44.3151429" lon="11.1680215"><ele>185.0</ele><time>2026-03-28T13:31:18.072Z</time></trkpt><trkpt lat="44.3151266" lon="11.1681872"><ele>185.8</ele><time>2026-03-28T13:31:19.096Z</time></trkpt><trkpt lat="44.3150975" lon="11.1683425"><ele>186.6</ele><time>2026-03-28T13:31:20.101Z</time></trkpt><trkpt lat="44.3150687" lon="11.1684835"><ele>187.39999999999998</ele><time>2026-03-28T13:31:21.08Z</time></trkpt><trkpt lat="44.3150383" lon="11.1686253"><ele>188.2</ele><time>2026-03-28T13:31:22.078Z</time></trkpt><trkpt lat="44.3150087" lon="11.1687681"><ele>189.0</ele><time>2026-03-28T13:31:23.1Z</time></trkpt><trkpt lat="44.3149763" lon="11.1689056"><ele>187.25</ele><time>2026-03-28T13:31:24.093Z</time></trkpt><trkpt lat="44.3149324" lon="11.1690436"><ele>185.5</ele><time>2026-03-28T13:31:25.072Z</time></trkpt><trkpt lat="44.3148708" lon="11.1691804"><ele>183.75</ele><time>2026-03-28T13:31:26.077Z</time></trkpt><trkpt lat="44.3147819" lon="11.1693132"><ele>182.0</ele><time>2026-03-28T13:31:27.092Z</time></trkpt><trkpt lat="44.3146753" lon="11.1694216"><ele>182.0</ele><time>2026-03-28T13:31:28.077Z</time></trkpt><trkpt lat="44.3145681" lon="11.169522"><ele>182.0</ele><time>2026-03-28T13:31:29.068Z</time></trkpt><trkpt lat="44.3144681" lon="11.1696146"><ele>182.0</ele><time>2026-03-28T13:31:30.092Z</time></trkpt><trkpt lat="44.31437" lon="11.1697023"><ele>182.0</ele><time>2026-03-28T13:31:31.078Z</time></trkpt><trkpt lat="44.3142743" lon="11.1697979"><ele>183.75</ele><time>2026-03-28T13:31:32.089Z</time></trkpt><trkpt lat="44.3141769" lon="11.1699008"><ele>185.5</ele><time>2026-03-28T13:31:33.091Z</time></trkpt><trkpt lat="44.3140865" lon="11.1700118"><ele>187.25</ele><time>2026-03-28T13:31:34.072Z</time></trkpt><trkpt lat="44.3139987" lon="11.1701463"><ele>189.0</ele><time>2026-03-28T13:31:35.087Z</time></trkpt><trkpt lat="44.3139229" lon="11.1702913"><ele>184.0</ele><time>2026-03-28T13:31:36.096Z</time></trkpt><trkpt lat="44.3138629" lon="11.1704431"><ele>179.0</ele><time>2026-03-28T13:31:37.078Z</time></trkpt><trkpt lat="44.3138125" lon="11.170618"><ele>174.0</ele><time>2026-03-28T13:31:38.085Z</time></trkpt><trkpt lat="44.3137832" lon="11.1708323"><ele>169.0</ele><time>2026-03-28T13:31:39.1Z</time></trkpt><trkpt lat="44.3137645" lon="11.1710539"><ele>169.0</ele><time>2026-03-28T13:31:40.087Z</time></trkpt><trkpt lat="44.3137505" lon="11.171262"><ele>169.0</ele><time>2026-03-28T13:31:41.084Z</time></trkpt><trkpt lat="44.3137382" lon="11.1714612"><ele>169.0</ele><time>2026-03-28T13:31:42.101Z</time></trkpt><trkpt lat="44.313732" lon="11.1716591"><ele>169.0</ele><time>2026-03-28T13:31:43.089Z</time></trkpt><trkpt lat="44.3137308" lon="11.1718564"><ele>168.75</ele><time>2026-03-28T13:31:44.082Z</time></trkpt><trkpt lat="44.31374" lon="11.1720529"><ele>168.5</ele><time>2026-03-28T13:31:45.081Z</time></trkpt><trkpt lat="44.3137533" lon="11.1722584"><ele>168.25</ele><time>2026-03-28T13:31:46.108Z</time></trkpt><trkpt lat="44.3137732" lon="11.1724522"><ele>168.0</ele><time>2026-03-28T13:31:47.072Z</time></trkpt><trkpt lat="44.3137941" lon="11.1726527"><ele>167.25</ele><time>2026-03-28T13:31:48.102Z</time></trkpt><trkpt lat="44.3138155" lon="11.1728431"><ele>166.5</ele><time>2026-03-28T13:31:49.094Z</time></trkpt><trkpt lat="44.3138434" lon="11.1730291"><ele>165.75</ele><time>2026-03-28T13:31:50.09Z</time></trkpt><trkpt lat="44.3138826" lon="11.1732104"><ele>165.0</ele><time>2026-03-28T13:31:51.089Z</time></trkpt><trkpt lat="44.3139399" lon="11.1733913"><ele>174.25</ele><time>2026-03-28T13:31:52.091Z</time></trkpt><trkpt lat="44.3140227" lon="11.1735683"><ele>183.5</ele><time>2026-03-28T13:31:53.095Z</time></trkpt><trkpt lat="44.314116" lon="11.1737295"><ele>192.75</ele><time>2026-03-28T13:31:54.09Z</time></trkpt><trkpt lat="44.3142087" lon="11.1738763"><ele>202.0</ele><time>2026-03-28T13:31:55.077Z</time></trkpt><trkpt lat="44.314305" lon="11.1740189"><ele>199.25</ele><time>2026-03-28T13:31:56.103Z</time></trkpt><trkpt lat="44.3143972" lon="11.1741545"><ele>196.5</ele><time>2026-03-28T13:31:57.079Z</time></trkpt><trkpt lat="44.3144869" lon="11.1743019"><ele>193.75</ele><time>2026-03-28T13:31:58.084Z</time></trkpt><trkpt lat="44.3145693" lon="11.1744588"><ele>191.0</ele><time>2026-03-28T13:31:59.095Z</time></trkpt><trkpt lat="44.3146401" lon="11.1746282"><ele>191.0</ele><time>2026-03-28T13:32:00.097Z</time></trkpt><trkpt lat="44.3146941" lon="11.1748111"><ele>191.0</ele><time>2026-03-28T13:32:01.105Z</time></trkpt><trkpt lat="44.314728" lon="11.1749976"><ele>191.0</ele><time>2026-03-28T13:32:02.083Z</time></trkpt><trkpt lat="44.3147425" lon="11.1751886"><ele>191.0</ele><time>2026-03-28T13:32:03.084Z</time></trkpt><trkpt lat="44.3147444" lon="11.1753848"><ele>196.33333333333331</ele><time>2026-03-28T13:32:04.105Z</time></trkpt><trkpt lat="44.3147582" lon="11.1755838"><ele>201.66666666666666</ele><time>2026-03-28T13:32:05.098Z</time></trkpt><trkpt lat="44.3147958" lon="11.1758158"><ele>207.0</ele><time>2026-03-28T13:32:06.107Z</time></trkpt><trkpt lat="44.314871" lon="11.1760561"><ele>207.0</ele><time>2026-03-28T13:32:07.069Z</time></trkpt><trkpt lat="44.3149895" lon="11.1763521"><ele>207.0</ele><time>2026-03-28T13:32:08.108Z</time></trkpt><trkpt lat="44.3151186" lon="11.1766698"><ele>202.5</ele><time>2026-03-28T13:32:09.104Z</time></trkpt><trkpt lat="44.3152404" lon="11.1770028"><ele>198.0</ele><time>2026-03-28T13:32:10.098Z</time></trkpt><trkpt lat="44.3153505" lon="11.1773307"><ele>190.0</ele><time>2026-03-28T13:32:11.096Z</time></trkpt><trkpt lat="44.3154475" lon="11.1776388"><ele>182.0</ele><time>2026-03-28T13:32:12.095Z</time></trkpt><trkpt lat="44.3155238" lon="11.1779199"><ele>190.66666666666666</ele><time>2026-03-28T13:32:13.082Z</time></trkpt><trkpt lat="44.3155773" lon="11.1781828"><ele>199.33333333333331</ele><time>2026-03-28T13:32:14.089Z</time></trkpt><trkpt lat="44.315616" lon="11.1784274"><ele>208.0</ele><time>2026-03-28T13:32:15.09Z</time></trkpt><trkpt lat="44.3156647" lon="11.1786537"><ele>208.0</ele><time>2026-03-28T13:32:16.094Z</time></trkpt><trkpt lat="44.3157473" lon="11.1788543"><ele>208.0</ele><time>2026-03-28T13:32:17.076Z</time></trkpt><trkpt lat="44.3158686" lon="11.1790439"><ele>208.0</ele><time>2026-03-28T13:32:18.102Z</time></trkpt><trkpt lat="44.3160128" lon="11.179203"><ele>210.0</ele><time>2026-03-28T13:32:19.09Z</time></trkpt><trkpt lat="44.3161636" lon="11.1793461"><ele>212.0</ele><time>2026-03-28T13:32:20.098Z</time></trkpt><trkpt lat="44.3163051" lon="11.1794991"><ele>214.0</ele><time>2026-03-28T13:32:21.093Z</time></trkpt><trkpt lat="44.3164249" lon="11.1796856"><ele>204.66666666666666</ele><time>2026-03-28T13:32:22.068Z</time></trkpt><trkpt lat="44.3165357" lon="11.1799195"><ele>195.33333333333331</ele><time>2026-03-28T13:32:23.063Z</time></trkpt><trkpt lat="44.3166709" lon="11.1801835"><ele>186.0</ele><time>2026-03-28T13:32:24.097Z</time></trkpt><trkpt lat="44.3168089" lon="11.1804239"><ele>186.0</ele><time>2026-03-28T13:32:25.086Z</time></trkpt><trkpt lat="44.3169467" lon="11.1806429"><ele>186.0</ele><time>2026-03-28T13:32:26.096Z</time></trkpt><trkpt lat="44.3170831" lon="11.1808282"><ele>186.0</ele><time>2026-03-28T13:32:27.099Z</time></trkpt><trkpt lat="44.3172189" lon="11.1809772"><ele>183.66666666666666</ele><time>2026-03-28T13:32:28.074Z</time></trkpt><trkpt lat="44.317364" lon="11.1810901"><ele>181.33333333333331</ele><time>2026-03-28T13:32:29.087Z</time></trkpt><trkpt lat="44.3175055" lon="11.1811484"><ele>179.0</ele><time>2026-03-28T13:32:30.099Z</time></trkpt><trkpt lat="44.3176519" lon="11.181141"><ele>179.0</ele><time>2026-03-28T13:32:31.09Z</time></trkpt><trkpt lat="44.3178067" lon="11.1810713"><ele>179.0</ele><time>2026-03-28T13:32:32.086Z</time></trkpt><trkpt lat="44.3179808" lon="11.1809372"><ele>179.0</ele><time>2026-03-28T13:32:33.102Z</time></trkpt><trkpt lat="44.3181817" lon="11.1807614"><ele>180.5</ele><time>2026-03-28T13:32:34.085Z</time></trkpt><trkpt lat="44.3184151" lon="11.1805592"><ele>182.0</ele><time>2026-03-28T13:32:35.09Z</time></trkpt><trkpt lat="44.318651" lon="11.1803612"><ele>182.0</ele><time>2026-03-28T13:32:36.098Z</time></trkpt><trkpt lat="44.3188735" lon="11.1801761"><ele>182.0</ele><time>2026-03-28T13:32:37.099Z</time></trkpt><trkpt lat="44.3190805" lon="11.1800105"><ele>178.33333333333331</ele><time>2026-03-28T13:32:38.087Z</time></trkpt><trkpt lat="44.3192695" lon="11.1798599"><ele>174.66666666666666</ele><time>2026-03-28T13:32:39.1Z</time></trkpt><trkpt lat="44.3194245" lon="11.1797287"><ele>171.0</ele><time>2026-03-28T13:32:40.1Z</time></trkpt><trkpt lat="44.3195659" lon="11.1796174"><ele>171.0</ele><time>2026-03-28T13:32:41.109Z</time></trkpt><trkpt lat="44.3196987" lon="11.1795421"><ele>171.0</ele><time>2026-03-28T13:32:42.09Z</time></trkpt><trkpt lat="44.3198359" lon="11.1794962"><ele>171.0</ele><time>2026-03-28T13:32:43.106Z</time></trkpt><trkpt lat="44.3199735" lon="11.1794827"><ele>171.0</ele><time>2026-03-28T13:32:44.088Z</time></trkpt><trkpt lat="44.3201193" lon="11.1794939"><ele>167.0</ele><time>2026-03-28T13:32:45.085Z</time></trkpt><trkpt lat="44.3202707" lon="11.1795442"><ele>163.0</ele><time>2026-03-28T13:32:46.105Z</time></trkpt><trkpt lat="44.3204114" lon="11.1796349"><ele>159.0</ele><time>2026-03-28T13:32:47.066Z</time></trkpt><trkpt lat="44.3205601" lon="11.1797573"><ele>157.66666666666666</ele><time>2026-03-28T13:32:48.095Z</time></trkpt><trkpt lat="44.3207032" lon="11.1798807"><ele>156.33333333333331</ele><time>2026-03-28T13:32:49.103Z</time></trkpt><trkpt lat="44.3208426" lon="11.1800049"><ele>155.0</ele><time>2026-03-28T13:32:50.09Z</time></trkpt><trkpt lat="44.3209753" lon="11.1801171"><ele>155.0</ele><time>2026-03-28T13:32:51.077Z</time></trkpt><trkpt lat="44.3211037" lon="11.1802191"><ele>155.0</ele><time>2026-03-28T13:32:52.092Z</time></trkpt><trkpt lat="44.3212246" lon="11.1803019"><ele>155.0</ele><time>2026-03-28T13:32:53.106Z</time></trkpt><trkpt lat="44.3213445" lon="11.180357"><ele>155.0</ele><time>2026-03-28T13:32:54.084Z</time></trkpt><trkpt lat="44.3214818" lon="11.1803934"><ele>155.33333333333331</ele><time>2026-03-28T13:32:55.107Z</time></trkpt><trkpt lat="44.3216279" lon="11.180408"><ele>155.66666666666666</ele><time>2026-03-28T13:32:56.075Z</time></trkpt><trkpt lat="44.3217881" lon="11.1803939"><ele>156.0</ele><time>2026-03-28T13:32:57.1Z</time></trkpt><trkpt lat="44.3219332" lon="11.1803548"><ele>156.0</ele><time>2026-03-28T13:32:58.084Z</time></trkpt><trkpt lat="44.3220891" lon="11.1803094"><ele>156.0</ele><time>2026-03-28T13:32:59.092Z</time></trkpt><trkpt lat="44.3222341" lon="11.1802646"><ele>156.0</ele><time>2026-03-28T13:33:00.079Z</time></trkpt><trkpt lat="44.3223755" lon="11.1802252"><ele>155.75</ele><time>2026-03-28T13:33:01.079Z</time></trkpt><trkpt lat="44.3225175" lon="11.1801801"><ele>155.5</ele><time>2026-03-28T13:33:02.12Z</time></trkpt><trkpt lat="44.3226461" lon="11.1801331"><ele>155.25</ele><time>2026-03-28T13:33:03.091Z</time></trkpt><trkpt lat="44.3227828" lon="11.1800783"><ele>155.0</ele><time>2026-03-28T13:33:04.093Z</time></trkpt><trkpt lat="44.3229211" lon="11.180009"><ele>155.0</ele><time>2026-03-28T13:33:05.115Z</time></trkpt><trkpt lat="44.3230552" lon="11.1799386"><ele>155.0</ele><time>2026-03-28T13:33:06.103Z</time></trkpt><trkpt lat="44.3231991" lon="11.1798553"><ele>155.0</ele><time>2026-03-28T13:33:07.1Z</time></trkpt><trkpt lat="44.3233516" lon="11.1797676"><ele>156.66666666666666</ele><time>2026-03-28T13:33:08.088Z</time></trkpt><trkpt lat="44.3235095" lon="11.1796931"><ele>158.33333333333334</ele><time>2026-03-28T13:33:09.087Z</time></trkpt><trkpt lat="44.3236747" lon="11.1796536"><ele>160.0</ele><time>2026-03-28T13:33:10.092Z</time></trkpt><trkpt lat="44.323832" lon="11.1796366"><ele>163.25</ele><time>2026-03-28T13:33:11.099Z</time></trkpt><trkpt lat="44.3239638" lon="11.1796494"><ele>166.5</ele><time>2026-03-28T13:33:12.082Z</time></trkpt><trkpt lat="44.32408" lon="11.1797016"><ele>169.75</ele><time>2026-03-28T13:33:13.109Z</time></trkpt><trkpt lat="44.3241703" lon="11.1797917"><ele>173.0</ele><time>2026-03-28T13:33:14.086Z</time></trkpt><trkpt lat="44.3242283" lon="11.1799329"><ele>173.0</ele><time>2026-03-28T13:33:15.099Z</time></trkpt><trkpt lat="44.3242506" lon="11.1801248"><ele>173.0</ele><time>2026-03-28T13:33:16.101Z</time></trkpt><trkpt lat="44.3242635" lon="11.1803558"><ele>173.0</ele><time>2026-03-28T13:33:17.1Z</time></trkpt><trkpt lat="44.3242921" lon="11.1806303"><ele>170.0</ele><time>2026-03-28T13:33:18.105Z</time></trkpt><trkpt lat="44.3243428" lon="11.1809068"><ele>167.0</ele><time>2026-03-28T13:33:19.086Z</time></trkpt><trkpt lat="44.3244251" lon="11.1811665"><ele>164.0</ele><time>2026-03-28T13:33:20.099Z</time></trkpt><trkpt lat="44.3245299" lon="11.1814005"><ele>161.33333333333331</ele><time>2026-03-28T13:33:21.092Z</time></trkpt><trkpt lat="44.3246352" lon="11.1816316"><ele>158.66666666666666</ele><time>2026-03-28T13:33:22.09Z</time></trkpt><trkpt lat="44.3247155" lon="11.1818577"><ele>156.0</ele><time>2026-03-28T13:33:23.092Z</time></trkpt><trkpt lat="44.3247573" lon="11.1820824"><ele>163.33333333333334</ele><time>2026-03-28T13:33:24.078Z</time></trkpt><trkpt lat="44.3247684" lon="11.1823119"><ele>170.66666666666669</ele><time>2026-03-28T13:33:25.077Z</time></trkpt><trkpt lat="44.3247881" lon="11.1825535"><ele>178.0</ele><time>2026-03-28T13:33:26.083Z</time></trkpt><trkpt lat="44.3248321" lon="11.1827925"><ele>178.0</ele><time>2026-03-28T13:33:27.126Z</time></trkpt><trkpt lat="44.3248908" lon="11.1829976"><ele>178.0</ele><time>2026-03-28T13:33:28.083Z</time></trkpt><trkpt lat="44.3249666" lon="11.1831981"><ele>178.0</ele><time>2026-03-28T13:33:29.079Z</time></trkpt><trkpt lat="44.3250724" lon="11.1834031"><ele>173.66666666666669</ele><time>2026-03-28T13:33:30.099Z</time></trkpt><trkpt lat="44.3251997" lon="11.1836112"><ele>169.33333333333334</ele><time>2026-03-28T13:33:31.095Z</time></trkpt><trkpt lat="44.3253351" lon="11.1838348"><ele>165.0</ele><time>2026-03-28T13:33:32.084Z</time></trkpt><trkpt lat="44.3254711" lon="11.1840674"><ele>168.0</ele><time>2026-03-28T13:33:33.108Z</time></trkpt><trkpt lat="44.3255967" lon="11.1842804"><ele>171.0</ele><time>2026-03-28T13:33:34.086Z</time></trkpt><trkpt lat="44.3257145" lon="11.1844817"><ele>174.0</ele><time>2026-03-28T13:33:35.095Z</time></trkpt><trkpt lat="44.3258222" lon="11.1846651"><ele>174.0</ele><time>2026-03-28T13:33:36.091Z</time></trkpt><trkpt lat="44.3259286" lon="11.1848304"><ele>174.0</ele><time>2026-03-28T13:33:37.106Z</time></trkpt><trkpt lat="44.3260292" lon="11.1849819"><ele>174.0</ele><time>2026-03-28T13:33:38.113Z</time></trkpt><trkpt lat="44.3261359" lon="11.1851246"><ele>175.0</ele><time>2026-03-28T13:33:39.098Z</time></trkpt><trkpt lat="44.3262562" lon="11.1852544"><ele>176.0</ele><time>2026-03-28T13:33:40.077Z</time></trkpt><trkpt lat="44.3263974" lon="11.1853719"><ele>177.0</ele><time>2026-03-28T13:33:41.081Z</time></trkpt><trkpt lat="44.3265624" lon="11.1854655"><ele>177.0</ele><time>2026-03-28T13:33:42.105Z</time></trkpt><trkpt lat="44.3267246" lon="11.1855378"><ele>177.0</ele><time>2026-03-28T13:33:43.097Z</time></trkpt><trkpt lat="44.3268869" lon="11.1855757"><ele>177.0</ele><time>2026-03-28T13:33:44.098Z</time></trkpt><trkpt lat="44.3270347" lon="11.1855648"><ele>177.0</ele><time>2026-03-28T13:33:45.082Z</time></trkpt><trkpt lat="44.3271912" lon="11.1854805"><ele>177.0</ele><time>2026-03-28T13:33:46.11Z</time></trkpt><trkpt lat="44.3273415" lon="11.1853277"><ele>177.0</ele><time>2026-03-28T13:33:47.087Z</time></trkpt><trkpt lat="44.3275018" lon="11.1851406"><ele>181.0</ele><time>2026-03-28T13:33:48.092Z</time></trkpt><trkpt lat="44.327661" lon="11.1849642"><ele>185.0</ele><time>2026-03-28T13:33:49.098Z</time></trkpt><trkpt lat="44.3278353" lon="11.1848207"><ele>189.0</ele><time>2026-03-28T13:33:50.101Z</time></trkpt><trkpt lat="44.3280308" lon="11.1847112"><ele>185.0</ele><time>2026-03-28T13:33:51.09Z</time></trkpt><trkpt lat="44.3282227" lon="11.1846192"><ele>181.0</ele><time>2026-03-28T13:33:52.069Z</time></trkpt><trkpt lat="44.3284131" lon="11.1845327"><ele>177.0</ele><time>2026-03-28T13:33:53.096Z</time></trkpt><trkpt lat="44.3285791" lon="11.1844633"><ele>177.0</ele><time>2026-03-28T13:33:54.085Z</time></trkpt><trkpt lat="44.3287361" lon="11.1844248"><ele>177.0</ele><time>2026-03-28T13:33:55.08Z</time></trkpt><trkpt lat="44.3288917" lon="11.1844168"><ele>177.0</ele><time>2026-03-28T13:33:56.076Z</time></trkpt><trkpt lat="44.3290525" lon="11.1844531"><ele>174.0</ele><time>2026-03-28T13:33:57.098Z</time></trkpt><trkpt lat="44.3292116" lon="11.1845255"><ele>171.0</ele><time>2026-03-28T13:33:58.103Z</time></trkpt><trkpt lat="44.329365" lon="11.1846177"><ele>168.0</ele><time>2026-03-28T13:33:59.107Z</time></trkpt><trkpt lat="44.3295068" lon="11.1847179"><ele>168.0</ele><time>2026-03-28T13:34:00.084Z</time></trkpt><trkpt lat="44.3296557" lon="11.1848163"><ele>168.0</ele><time>2026-03-28T13:34:01.102Z</time></trkpt><trkpt lat="44.3298004" lon="11.18489"><ele>168.0</ele><time>2026-03-28T13:34:02.083Z</time></trkpt><trkpt lat="44.3299561" lon="11.1849488"><ele>163.75</ele><time>2026-03-28T13:34:03.095Z</time></trkpt><trkpt lat="44.3301087" lon="11.1849968"><ele>159.5</ele><time>2026-03-28T13:34:04.11Z</time></trkpt><trkpt lat="44.3302481" lon="11.1850464"><ele>155.25</ele><time>2026-03-28T13:34:05.078Z</time></trkpt><trkpt lat="44.3303826" lon="11.1851046"><ele>151.0</ele><time>2026-03-28T13:34:06.091Z</time></trkpt><trkpt lat="44.330501" lon="11.1851704"><ele>151.0</ele><time>2026-03-28T13:34:07.089Z</time></trkpt><trkpt lat="44.3306119" lon="11.1852482"><ele>151.0</ele><time>2026-03-28T13:34:08.089Z</time></trkpt><trkpt lat="44.3307218" lon="11.1853386"><ele>151.0</ele><time>2026-03-28T13:34:09.083Z</time></trkpt><trkpt lat="44.3308428" lon="11.1854503"><ele>151.0</ele><time>2026-03-28T13:34:10.092Z</time></trkpt><trkpt lat="44.3309634" lon="11.1855793"><ele>149.33333333333334</ele><time>2026-03-28T13:34:11.081Z</time></trkpt><trkpt lat="44.3310875" lon="11.1857243"><ele>147.66666666666666</ele><time>2026-03-28T13:34:12.082Z</time></trkpt><trkpt lat="44.33122" lon="11.1858765"><ele>146.0</ele><time>2026-03-28T13:34:13.08Z</time></trkpt><trkpt lat="44.3313506" lon="11.1860341"><ele>146.33333333333331</ele><time>2026-03-28T13:34:14.08Z</time></trkpt><trkpt lat="44.3314825" lon="11.1861957"><ele>146.66666666666666</ele><time>2026-03-28T13:34:15.078Z</time></trkpt><trkpt lat="44.331615" lon="11.1863601"><ele>147.0</ele><time>2026-03-28T13:34:16.106Z</time></trkpt><trkpt lat="44.3317392" lon="11.1865172"><ele>147.0</ele><time>2026-03-28T13:34:17.103Z</time></trkpt><trkpt lat="44.3318589" lon="11.1866749"><ele>147.0</ele><time>2026-03-28T13:34:18.106Z</time></trkpt><trkpt lat="44.3319788" lon="11.1868264"><ele>147.0</ele><time>2026-03-28T13:34:19.113Z</time></trkpt><trkpt lat="44.3320947" lon="11.1869753"><ele>147.0</ele><time>2026-03-28T13:34:20.103Z</time></trkpt><trkpt lat="44.3322073" lon="11.1871274"><ele>147.0</ele><time>2026-03-28T13:34:21.083Z</time></trkpt><trkpt lat="44.3323186" lon="11.187282"><ele>147.0</ele><time>2026-03-28T13:34:22.076Z</time></trkpt><trkpt lat="44.3324321" lon="11.1874501"><ele>147.0</ele><time>2026-03-28T13:34:23.099Z</time></trkpt><trkpt lat="44.3325285" lon="11.187623"><ele>147.0</ele><time>2026-03-28T13:34:24.114Z</time></trkpt><trkpt lat="44.3326096" lon="11.1877997"><ele>147.0</ele><time>2026-03-28T13:34:25.093Z</time></trkpt><trkpt lat="44.3326838" lon="11.1879938"><ele>146.66666666666666</ele><time>2026-03-28T13:34:26.084Z</time></trkpt><trkpt lat="44.3327627" lon="11.1882137"><ele>146.33333333333331</ele><time>2026-03-28T13:34:27.117Z</time></trkpt><trkpt lat="44.33284" lon="11.1884282"><ele>146.0</ele><time>2026-03-28T13:34:28.101Z</time></trkpt><trkpt lat="44.332911" lon="11.1886419"><ele>146.0</ele><time>2026-03-28T13:34:29.082Z</time></trkpt><trkpt lat="44.3329858" lon="11.1888669"><ele>146.0</ele><time>2026-03-28T13:34:30.1Z</time></trkpt><trkpt lat="44.3330563" lon="11.1890821"><ele>146.0</ele><time>2026-03-28T13:34:31.113Z</time></trkpt><trkpt lat="44.3331203" lon="11.1892865"><ele>145.66666666666666</ele><time>2026-03-28T13:34:32.091Z</time></trkpt><trkpt lat="44.333187" lon="11.1895043"><ele>145.33333333333334</ele><time>2026-03-28T13:34:33.114Z</time></trkpt><trkpt lat="44.3332524" lon="11.1897129"><ele>145.0</ele><time>2026-03-28T13:34:34.101Z</time></trkpt><trkpt lat="44.3333192" lon="11.1899263"><ele>144.33333333333334</ele><time>2026-03-28T13:34:35.1Z</time></trkpt><trkpt lat="44.3333841" lon="11.1901446"><ele>143.66666666666666</ele><time>2026-03-28T13:34:36.093Z</time></trkpt><trkpt lat="44.3334511" lon="11.1903648"><ele>143.0</ele><time>2026-03-28T13:34:37.1Z</time></trkpt><trkpt lat="44.3335173" lon="11.1905784"><ele>142.33333333333331</ele><time>2026-03-28T13:34:38.104Z</time></trkpt><trkpt lat="44.3335865" lon="11.1907954"><ele>141.66666666666666</ele><time>2026-03-28T13:34:39.096Z</time></trkpt><trkpt lat="44.3336573" lon="11.1910094"><ele>141.0</ele><time>2026-03-28T13:34:40.087Z</time></trkpt><trkpt lat="44.3337243" lon="11.1912149"><ele>141.0</ele><time>2026-03-28T13:34:41.1Z</time></trkpt><trkpt lat="44.3337917" lon="11.1914149"><ele>141.0</ele><time>2026-03-28T13:34:42.095Z</time></trkpt><trkpt lat="44.3338577" lon="11.1916182"><ele>141.0</ele><time>2026-03-28T13:34:43.089Z</time></trkpt><trkpt lat="44.3339263" lon="11.1918288"><ele>141.33333333333334</ele><time>2026-03-28T13:34:44.098Z</time></trkpt><trkpt lat="44.3339865" lon="11.1920214"><ele>141.66666666666669</ele><time>2026-03-28T13:34:45.074Z</time></trkpt><trkpt lat="44.3340532" lon="11.192231"><ele>142.0</ele><time>2026-03-28T13:34:46.083Z</time></trkpt><trkpt lat="44.3341193" lon="11.1924457"><ele>142.0</ele><time>2026-03-28T13:34:47.095Z</time></trkpt><trkpt lat="44.3341777" lon="11.1926659"><ele>142.0</ele><time>2026-03-28T13:34:48.102Z</time></trkpt><trkpt lat="44.334231" lon="11.1928945"><ele>142.0</ele><time>2026-03-28T13:34:49.097Z</time></trkpt><trkpt lat="44.334286" lon="11.1931305"><ele>141.33333333333334</ele><time>2026-03-28T13:34:50.1Z</time></trkpt><trkpt lat="44.3343458" lon="11.1933723"><ele>140.66666666666666</ele><time>2026-03-28T13:34:51.107Z</time></trkpt><trkpt lat="44.3344077" lon="11.1936263"><ele>140.0</ele><time>2026-03-28T13:34:52.11Z</time></trkpt><trkpt lat="44.3344684" lon="11.19388"><ele>139.66666666666666</ele><time>2026-03-28T13:34:53.095Z</time></trkpt><trkpt lat="44.3345302" lon="11.1941366"><ele>139.33333333333334</ele><time>2026-03-28T13:34:54.091Z</time></trkpt><trkpt lat="44.3345904" lon="11.1943827"><ele>139.0</ele><time>2026-03-28T13:34:55.089Z</time></trkpt><trkpt lat="44.3346493" lon="11.194632"><ele>138.0</ele><time>2026-03-28T13:34:56.086Z</time></trkpt><trkpt lat="44.3347099" lon="11.1948803"><ele>137.0</ele><time>2026-03-28T13:34:57.094Z</time></trkpt><trkpt lat="44.334772" lon="11.1951321"><ele>136.0</ele><time>2026-03-28T13:34:58.103Z</time></trkpt><trkpt lat="44.3348359" lon="11.1953865"><ele>140.33333333333334</ele><time>2026-03-28T13:34:59.108Z</time></trkpt><trkpt lat="44.3348976" lon="11.1956346"><ele>144.66666666666666</ele><time>2026-03-28T13:35:00.092Z</time></trkpt><trkpt lat="44.3349633" lon="11.1959006"><ele>149.0</ele><time>2026-03-28T13:35:01.122Z</time></trkpt><trkpt lat="44.335026" lon="11.1961604"><ele>149.0</ele><time>2026-03-28T13:35:02.121Z</time></trkpt><trkpt lat="44.33509" lon="11.1964259"><ele>149.0</ele><time>2026-03-28T13:35:03.102Z</time></trkpt><trkpt lat="44.3351607" lon="11.1967102"><ele>149.0</ele><time>2026-03-28T13:35:04.125Z</time></trkpt><trkpt lat="44.3352268" lon="11.1969692"><ele>147.66666666666666</ele><time>2026-03-28T13:35:05.109Z</time></trkpt><trkpt lat="44.3352861" lon="11.1972081"><ele>146.33333333333334</ele><time>2026-03-28T13:35:06.11Z</time></trkpt><trkpt lat="44.3353389" lon="11.1974214"><ele>145.0</ele><time>2026-03-28T13:35:07.083Z</time></trkpt><trkpt lat="44.3353893" lon="11.1976318"><ele>144.0</ele><time>2026-03-28T13:35:08.121Z</time></trkpt><trkpt lat="44.3354283" lon="11.197819"><ele>143.0</ele><time>2026-03-28T13:35:09.106Z</time></trkpt><trkpt lat="44.335455" lon="11.1980134"><ele>142.0</ele><time>2026-03-28T13:35:10.112Z</time></trkpt><trkpt lat="44.3354603" lon="11.1982006"><ele>141.0</ele><time>2026-03-28T13:35:11.078Z</time></trkpt><trkpt lat="44.3354442" lon="11.1984175"><ele>141.0</ele><time>2026-03-28T13:35:12.098Z</time></trkpt><trkpt lat="44.3354001" lon="11.1986616"><ele>141.0</ele><time>2026-03-28T13:35:13.097Z</time></trkpt><trkpt lat="44.335347" lon="11.1989085"><ele>141.0</ele><time>2026-03-28T13:35:14.095Z</time></trkpt><trkpt lat="44.335305" lon="11.1991463"><ele>143.33333333333334</ele><time>2026-03-28T13:35:15.076Z</time></trkpt><trkpt lat="44.3352637" lon="11.1993791"><ele>145.66666666666669</ele><time>2026-03-28T13:35:16.087Z</time></trkpt><trkpt lat="44.3352269" lon="11.1996031"><ele>148.0</ele><time>2026-03-28T13:35:17.094Z</time></trkpt><trkpt lat="44.3351976" lon="11.1998161"><ele>149.25</ele><time>2026-03-28T13:35:18.106Z</time></trkpt><trkpt lat="44.3351856" lon="11.2000092"><ele>150.5</ele><time>2026-03-28T13:35:19.075Z</time></trkpt><trkpt lat="44.3351962" lon="11.2002068"><ele>151.75</ele><time>2026-03-28T13:35:20.087Z</time></trkpt><trkpt lat="44.3352329" lon="11.2004065"><ele>153.0</ele><time>2026-03-28T13:35:21.094Z</time></trkpt><trkpt lat="44.3352975" lon="11.2005921"><ele>154.33333333333334</ele><time>2026-03-28T13:35:22.093Z</time></trkpt><trkpt lat="44.3354131" lon="11.2007675"><ele>155.66666666666669</ele><time>2026-03-28T13:35:23.097Z</time></trkpt><trkpt lat="44.3355591" lon="11.200913"><ele>157.0</ele><time>2026-03-28T13:35:24.106Z</time></trkpt><trkpt lat="44.3356872" lon="11.2010534"><ele>160.33333333333334</ele><time>2026-03-28T13:35:25.104Z</time></trkpt><trkpt lat="44.3358167" lon="11.2012003"><ele>163.66666666666666</ele><time>2026-03-28T13:35:26.088Z</time></trkpt><trkpt lat="44.3359816" lon="11.2013548"><ele>167.0</ele><time>2026-03-28T13:35:27.103Z</time></trkpt><trkpt lat="44.3361827" lon="11.201494"><ele>165.66666666666666</ele><time>2026-03-28T13:35:28.08Z</time></trkpt><trkpt lat="44.3363626" lon="11.2016568"><ele>164.33333333333334</ele><time>2026-03-28T13:35:29.105Z</time></trkpt><trkpt lat="44.3365305" lon="11.2017719"><ele>163.0</ele><time>2026-03-28T13:35:30.099Z</time></trkpt><trkpt lat="44.3366652" lon="11.2019058"><ele>163.0</ele><time>2026-03-28T13:35:31.094Z</time></trkpt><trkpt lat="44.3367836" lon="11.2020333"><ele>163.0</ele><time>2026-03-28T13:35:32.087Z</time></trkpt><trkpt lat="44.336878" lon="11.2021734"><ele>163.0</ele><time>2026-03-28T13:35:33.102Z</time></trkpt><trkpt lat="44.3369434" lon="11.2023204"><ele>163.0</ele><time>2026-03-28T13:35:34.078Z</time></trkpt><trkpt lat="44.3369931" lon="11.202501"><ele>161.75</ele><time>2026-03-28T13:35:35.097Z</time></trkpt><trkpt lat="44.3370094" lon="11.2026807"><ele>160.5</ele><time>2026-03-28T13:35:36.099Z</time></trkpt><trkpt lat="44.3370353" lon="11.2028468"><ele>159.25</ele><time>2026-03-28T13:35:37.085Z</time></trkpt><trkpt lat="44.3370837" lon="11.2030112"><ele>158.0</ele><time>2026-03-28T13:35:38.074Z</time></trkpt><trkpt lat="44.3371691" lon="11.2031514"><ele>157.0</ele><time>2026-03-28T13:35:39.072Z</time></trkpt><trkpt lat="44.3372833" lon="11.2032689"><ele>156.0</ele><time>2026-03-28T13:35:40.092Z</time></trkpt><trkpt lat="44.3374131" lon="11.2033553"><ele>155.0</ele><time>2026-03-28T13:35:41.083Z</time></trkpt><trkpt lat="44.3375513" lon="11.203402"><ele>154.0</ele><time>2026-03-28T13:35:42.098Z</time></trkpt><trkpt lat="44.3376881" lon="11.2034129"><ele>154.0</ele><time>2026-03-28T13:35:43.086Z</time></trkpt><trkpt lat="44.337835" lon="11.2033997"><ele>154.0</ele><time>2026-03-28T13:35:44.1Z</time></trkpt><trkpt lat="44.3379927" lon="11.2033523"><ele>154.0</ele><time>2026-03-28T13:35:45.109Z</time></trkpt><trkpt lat="44.3381722" lon="11.2032849"><ele>156.0</ele><time>2026-03-28T13:35:46.103Z</time></trkpt><trkpt lat="44.338374" lon="11.2032052"><ele>158.0</ele><time>2026-03-28T13:35:47.112Z</time></trkpt><trkpt lat="44.3385639" lon="11.2031279"><ele>160.0</ele><time>2026-03-28T13:35:48.096Z</time></trkpt><trkpt lat="44.3387504" lon="11.2030548"><ele>159.33333333333334</ele><time>2026-03-28T13:35:49.092Z</time></trkpt><trkpt lat="44.3389391" lon="11.2029895"><ele>158.66666666666666</ele><time>2026-03-28T13:35:50.112Z</time></trkpt><trkpt lat="44.3391084" lon="11.2029426"><ele>158.0</ele><time>2026-03-28T13:35:51.081Z</time></trkpt><trkpt lat="44.3392738" lon="11.2029048"><ele>158.0</ele><time>2026-03-28T13:35:52.073Z</time></trkpt><trkpt lat="44.3394476" lon="11.202883"><ele>158.0</ele><time>2026-03-28T13:35:53.092Z</time></trkpt><trkpt lat="44.3396109" lon="11.2028704"><ele>158.0</ele><time>2026-03-28T13:35:54.096Z</time></trkpt><trkpt lat="44.3397693" lon="11.2028639"><ele>155.33333333333331</ele><time>2026-03-28T13:35:55.087Z</time></trkpt><trkpt lat="44.3399312" lon="11.202867"><ele>152.66666666666666</ele><time>2026-03-28T13:35:56.087Z</time></trkpt><trkpt lat="44.3400863" lon="11.2028782"><ele>150.0</ele><time>2026-03-28T13:35:57.087Z</time></trkpt><trkpt lat="44.3402348" lon="11.2029005"><ele>150.0</ele><time>2026-03-28T13:35:58.096Z</time></trkpt><trkpt lat="44.3403791" lon="11.2029482"><ele>150.0</ele><time>2026-03-28T13:35:59.105Z</time></trkpt><trkpt lat="44.3405086" lon="11.2030297"><ele>150.0</ele><time>2026-03-28T13:36:00.083Z</time></trkpt><trkpt lat="44.3406377" lon="11.2031346"><ele>150.0</ele><time>2026-03-28T13:36:01.075Z</time></trkpt><trkpt lat="44.3407639" lon="11.2032643"><ele>146.0</ele><time>2026-03-28T13:36:02.109Z</time></trkpt><trkpt lat="44.3408761" lon="11.2033962"><ele>142.0</ele><time>2026-03-28T13:36:03.099Z</time></trkpt><trkpt lat="44.3409742" lon="11.20353"><ele>138.0</ele><time>2026-03-28T13:36:04.085Z</time></trkpt><trkpt lat="44.3410604" lon="11.2036558"><ele>134.0</ele><time>2026-03-28T13:36:05.104Z</time></trkpt><trkpt lat="44.3411405" lon="11.203771"><ele>134.0</ele><time>2026-03-28T13:36:06.112Z</time></trkpt><trkpt lat="44.3412171" lon="11.2038793"><ele>134.0</ele><time>2026-03-28T13:36:07.098Z</time></trkpt><trkpt lat="44.3412883" lon="11.2039832"><ele>134.0</ele><time>2026-03-28T13:36:08.08Z</time></trkpt><trkpt lat="44.3413577" lon="11.2040899"><ele>134.0</ele><time>2026-03-28T13:36:09.102Z</time></trkpt><trkpt lat="44.3414244" lon="11.2041933"><ele>134.0</ele><time>2026-03-28T13:36:10.092Z</time></trkpt><trkpt lat="44.3414917" lon="11.2042924"><ele>134.4</ele><time>2026-03-28T13:36:11.105Z</time></trkpt><trkpt lat="44.3415551" lon="11.2043805"><ele>134.8</ele><time>2026-03-28T13:36:12.08Z</time></trkpt><trkpt lat="44.3416198" lon="11.2044684"><ele>135.2</ele><time>2026-03-28T13:36:13.088Z</time></trkpt><trkpt lat="44.3416817" lon="11.2045529"><ele>135.6</ele><time>2026-03-28T13:36:14.094Z</time></trkpt><trkpt lat="44.3417474" lon="11.2046436"><ele>136.0</ele><time>2026-03-28T13:36:15.08Z</time></trkpt><trkpt lat="44.3418259" lon="11.2047432"><ele>134.5</ele><time>2026-03-28T13:36:16.111Z</time></trkpt><trkpt lat="44.3419109" lon="11.2048555"><ele>133.0</ele><time>2026-03-28T13:36:17.11Z</time></trkpt><trkpt lat="44.3419971" lon="11.2049812"><ele>131.5</ele><time>2026-03-28T13:36:18.098Z</time></trkpt><trkpt lat="44.3420904" lon="11.2051125"><ele>130.0</ele><time>2026-03-28T13:36:19.082Z</time></trkpt><trkpt lat="44.3421913" lon="11.2052504"><ele>130.0</ele><time>2026-03-28T13:36:20.106Z</time></trkpt><trkpt lat="44.3422895" lon="11.2053908"><ele>130.0</ele><time>2026-03-28T13:36:21.095Z</time></trkpt><trkpt lat="44.3423871" lon="11.2055263"><ele>130.0</ele><time>2026-03-28T13:36:22.077Z</time></trkpt><trkpt lat="44.3424857" lon="11.2056624"><ele>130.0</ele><time>2026-03-28T13:36:23.084Z</time></trkpt><trkpt lat="44.3425878" lon="11.2058022"><ele>130.0</ele><time>2026-03-28T13:36:24.102Z</time></trkpt><trkpt lat="44.3426896" lon="11.2059383"><ele>130.0</ele><time>2026-03-28T13:36:25.102Z</time></trkpt><trkpt lat="44.342789" lon="11.2060751"><ele>130.0</ele><time>2026-03-28T13:36:26.092Z</time></trkpt><trkpt lat="44.3428906" lon="11.2062129"><ele>130.0</ele><time>2026-03-28T13:36:27.105Z</time></trkpt><trkpt lat="44.3429851" lon="11.2063478"><ele>131.25</ele><time>2026-03-28T13:36:28.098Z</time></trkpt><trkpt lat="44.3430861" lon="11.2064836"><ele>132.5</ele><time>2026-03-28T13:36:29.108Z</time></trkpt><trkpt lat="44.3431884" lon="11.2066094"><ele>133.75</ele><time>2026-03-28T13:36:30.089Z</time></trkpt><trkpt lat="44.3433057" lon="11.2067186"><ele>135.0</ele><time>2026-03-28T13:36:31.11Z</time></trkpt><trkpt lat="44.3434313" lon="11.2067867"><ele>135.0</ele><time>2026-03-28T13:36:32.102Z</time></trkpt><trkpt lat="44.3435721" lon="11.2068131"><ele>135.0</ele><time>2026-03-28T13:36:33.096Z</time></trkpt><trkpt lat="44.3437425" lon="11.2067947"><ele>135.0</ele><time>2026-03-28T13:36:34.101Z</time></trkpt><trkpt lat="44.3439136" lon="11.2067399"><ele>139.0</ele><time>2026-03-28T13:36:35.072Z</time></trkpt><trkpt lat="44.3440882" lon="11.2066722"><ele>143.0</ele><time>2026-03-28T13:36:36.077Z</time></trkpt><trkpt lat="44.3442594" lon="11.2066055"><ele>147.0</ele><time>2026-03-28T13:36:37.108Z</time></trkpt><trkpt lat="44.344413" lon="11.206535"><ele>146.33333333333334</ele><time>2026-03-28T13:36:38.091Z</time></trkpt><trkpt lat="44.3445623" lon="11.2064597"><ele>145.66666666666669</ele><time>2026-03-28T13:36:39.082Z</time></trkpt><trkpt lat="44.3447027" lon="11.2063674"><ele>145.0</ele><time>2026-03-28T13:36:40.094Z</time></trkpt><trkpt lat="44.3448303" lon="11.2062516"><ele>145.0</ele><time>2026-03-28T13:36:41.1Z</time></trkpt><trkpt lat="44.3449413" lon="11.2061082"><ele>145.0</ele><time>2026-03-28T13:36:42.096Z</time></trkpt><trkpt lat="44.3450261" lon="11.2059468"><ele>145.0</ele><time>2026-03-28T13:36:43.105Z</time></trkpt><trkpt lat="44.3450887" lon="11.2057789"><ele>145.0</ele><time>2026-03-28T13:36:44.094Z</time></trkpt><trkpt lat="44.3451422" lon="11.2056116"><ele>147.0</ele><time>2026-03-28T13:36:45.109Z</time></trkpt><trkpt lat="44.3451931" lon="11.205447"><ele>149.0</ele><time>2026-03-28T13:36:46.11Z</time></trkpt><trkpt lat="44.3452406" lon="11.2052919"><ele>151.0</ele><time>2026-03-28T13:36:47.104Z</time></trkpt><trkpt lat="44.3452893" lon="11.2051575"><ele>153.0</ele><time>2026-03-28T13:36:48.086Z</time></trkpt><trkpt lat="44.3453478" lon="11.2050285"><ele>153.0</ele><time>2026-03-28T13:36:49.111Z</time></trkpt><trkpt lat="44.3454088" lon="11.2049211"><ele>153.0</ele><time>2026-03-28T13:36:50.078Z</time></trkpt><trkpt lat="44.3454798" lon="11.2048294"><ele>153.0</ele><time>2026-03-28T13:36:51.104Z</time></trkpt><trkpt lat="44.3455608" lon="11.2047582"><ele>153.0</ele><time>2026-03-28T13:36:52.098Z</time></trkpt><trkpt lat="44.3456504" lon="11.2047096"><ele>153.0</ele><time>2026-03-28T13:36:53.116Z</time></trkpt><trkpt lat="44.3457357" lon="11.2046894"><ele>150.6</ele><time>2026-03-28T13:36:54.083Z</time></trkpt><trkpt lat="44.3458304" lon="11.2046878"><ele>148.20000000000002</ele><time>2026-03-28T13:36:55.099Z</time></trkpt><trkpt lat="44.34593" lon="11.2047087"><ele>145.8</ele><time>2026-03-28T13:36:56.11Z</time></trkpt><trkpt lat="44.3460338" lon="11.2047485"><ele>143.4</ele><time>2026-03-28T13:36:57.104Z</time></trkpt><trkpt lat="44.3461433" lon="11.2048066"><ele>141.0</ele><time>2026-03-28T13:36:58.105Z</time></trkpt><trkpt lat="44.3462483" lon="11.2048667"><ele>140.25</ele><time>2026-03-28T13:36:59.095Z</time></trkpt><trkpt lat="44.346357" lon="11.2049299"><ele>139.5</ele><time>2026-03-28T13:37:00.081Z</time></trkpt><trkpt lat="44.3464721" lon="11.2049961"><ele>138.75</ele><time>2026-03-28T13:37:01.086Z</time></trkpt><trkpt lat="44.3465881" lon="11.2050523"><ele>138.0</ele><time>2026-03-28T13:37:02.085Z</time></trkpt><trkpt lat="44.3467158" lon="11.2050915"><ele>138.0</ele><time>2026-03-28T13:37:03.103Z</time></trkpt><trkpt lat="44.3468522" lon="11.2051051"><ele>138.0</ele><time>2026-03-28T13:37:04.092Z</time></trkpt><trkpt lat="44.3469939" lon="11.2050931"><ele>138.0</ele><time>2026-03-28T13:37:05.099Z</time></trkpt><trkpt lat="44.34713" lon="11.2050662"><ele>138.0</ele><time>2026-03-28T13:37:06.115Z</time></trkpt><trkpt lat="44.347257" lon="11.2050399"><ele>139.0</ele><time>2026-03-28T13:37:07.106Z</time></trkpt><trkpt lat="44.3473704" lon="11.2050163"><ele>140.0</ele><time>2026-03-28T13:37:08.078Z</time></trkpt><trkpt lat="44.3474917" lon="11.2050014"><ele>141.0</ele><time>2026-03-28T13:37:09.1Z</time></trkpt><trkpt lat="44.3476096" lon="11.2050034"><ele>142.0</ele><time>2026-03-28T13:37:10.11Z</time></trkpt><trkpt lat="44.3477308" lon="11.2050213"><ele>142.0</ele><time>2026-03-28T13:37:11.086Z</time></trkpt><trkpt lat="44.3478618" lon="11.2050488"><ele>142.0</ele><time>2026-03-28T13:37:12.098Z</time></trkpt><trkpt lat="44.3479916" lon="11.205087"><ele>142.0</ele><time>2026-03-28T13:37:13.092Z</time></trkpt><trkpt lat="44.3481329" lon="11.2051377"><ele>142.0</ele><time>2026-03-28T13:37:14.133Z</time></trkpt><trkpt lat="44.3482625" lon="11.2051946"><ele>142.5</ele><time>2026-03-28T13:37:15.094Z</time></trkpt><trkpt lat="44.3483905" lon="11.2052609"><ele>143.0</ele><time>2026-03-28T13:37:16.079Z</time></trkpt><trkpt lat="44.3485179" lon="11.2053313"><ele>143.5</ele><time>2026-03-28T13:37:17.116Z</time></trkpt><trkpt lat="44.3486344" lon="11.20539"><ele>144.0</ele><time>2026-03-28T13:37:18.096Z</time></trkpt><trkpt lat="44.3487463" lon="11.2054508"><ele>144.0</ele><time>2026-03-28T13:37:19.115Z</time></trkpt><trkpt lat="44.3488589" lon="11.2055147"><ele>144.0</ele><time>2026-03-28T13:37:20.108Z</time></trkpt><trkpt lat="44.3489825" lon="11.2055806"><ele>144.0</ele><time>2026-03-28T13:37:21.091Z</time></trkpt><trkpt lat="44.3491253" lon="11.205643"><ele>144.0</ele><time>2026-03-28T13:37:22.091Z</time></trkpt><trkpt lat="44.3492904" lon="11.2057047"><ele>142.0</ele><time>2026-03-28T13:37:23.098Z</time></trkpt><trkpt lat="44.3494656" lon="11.2057722"><ele>140.0</ele><time>2026-03-28T13:37:24.088Z</time></trkpt><trkpt lat="44.3496458" lon="11.2058393"><ele>138.0</ele><time>2026-03-28T13:37:25.09Z</time></trkpt><trkpt lat="44.3498251" lon="11.2059101"><ele>138.0</ele><time>2026-03-28T13:37:26.077Z</time></trkpt><trkpt lat="44.3499875" lon="11.2059753"><ele>138.0</ele><time>2026-03-28T13:37:27.1Z</time></trkpt><trkpt lat="44.3501227" lon="11.2060171"><ele>138.0</ele><time>2026-03-28T13:37:28.115Z</time></trkpt><trkpt lat="44.3502467" lon="11.2060372"><ele>138.0</ele><time>2026-03-28T13:37:29.103Z</time></trkpt><trkpt lat="44.3503721" lon="11.2060432"><ele>138.0</ele><time>2026-03-28T13:37:30.089Z</time></trkpt><trkpt lat="44.3505072" lon="11.2060398"><ele>138.0</ele><time>2026-03-28T13:37:31.105Z</time></trkpt><trkpt lat="44.3506412" lon="11.2060272"><ele>138.0</ele><time>2026-03-28T13:37:32.096Z</time></trkpt><trkpt lat="44.3507765" lon="11.2060123"><ele>138.0</ele><time>2026-03-28T13:37:33.079Z</time></trkpt><trkpt lat="44.35092" lon="11.2059911"><ele>139.0</ele><time>2026-03-28T13:37:34.1Z</time></trkpt><trkpt lat="44.3510655" lon="11.2059679"><ele>140.0</ele><time>2026-03-28T13:37:35.094Z</time></trkpt><trkpt lat="44.351215" lon="11.2059433"><ele>141.0</ele><time>2026-03-28T13:37:36.103Z</time></trkpt><trkpt lat="44.3513655" lon="11.2059179"><ele>142.0</ele><time>2026-03-28T13:37:37.11Z</time></trkpt><trkpt lat="44.3515112" lon="11.2058954"><ele>143.0</ele><time>2026-03-28T13:37:38.092Z</time></trkpt><trkpt lat="44.3516589" lon="11.2058861"><ele>144.0</ele><time>2026-03-28T13:37:39.105Z</time></trkpt><trkpt lat="44.3517995" lon="11.2058925"><ele>145.0</ele><time>2026-03-28T13:37:40.091Z</time></trkpt><trkpt lat="44.3519403" lon="11.2059075"><ele>146.0</ele><time>2026-03-28T13:37:41.098Z</time></trkpt><trkpt lat="44.3520798" lon="11.2059287"><ele>145.75</ele><time>2026-03-28T13:37:42.094Z</time></trkpt><trkpt lat="44.3522161" lon="11.2059565"><ele>145.5</ele><time>2026-03-28T13:37:43.112Z</time></trkpt><trkpt lat="44.3523522" lon="11.2059773"><ele>145.25</ele><time>2026-03-28T13:37:44.098Z</time></trkpt><trkpt lat="44.352493" lon="11.2059998"><ele>145.0</ele><time>2026-03-28T13:37:45.107Z</time></trkpt><trkpt lat="44.352633" lon="11.2060171"><ele>145.0</ele><time>2026-03-28T13:37:46.105Z</time></trkpt><trkpt lat="44.3527748" lon="11.2060329"><ele>145.0</ele><time>2026-03-28T13:37:47.098Z</time></trkpt><trkpt lat="44.3529278" lon="11.2060483"><ele>145.0</ele><time>2026-03-28T13:37:48.091Z</time></trkpt><trkpt lat="44.3530863" lon="11.2060711"><ele>147.33333333333334</ele><time>2026-03-28T13:37:49.092Z</time></trkpt><trkpt lat="44.3532443" lon="11.2060965"><ele>149.66666666666666</ele><time>2026-03-28T13:37:50.105Z</time></trkpt><trkpt lat="44.3533927" lon="11.2061265"><ele>152.0</ele><time>2026-03-28T13:37:51.116Z</time></trkpt><trkpt lat="44.3535346" lon="11.2061588"><ele>152.0</ele><time>2026-03-28T13:37:52.113Z</time></trkpt><trkpt lat="44.3536672" lon="11.2061984"><ele>152.0</ele><time>2026-03-28T13:37:53.102Z</time></trkpt><trkpt lat="44.3537966" lon="11.2062402"><ele>152.0</ele><time>2026-03-28T13:37:54.109Z</time></trkpt><trkpt lat="44.3539228" lon="11.2062841"><ele>152.0</ele><time>2026-03-28T13:37:55.094Z</time></trkpt><trkpt lat="44.354059" lon="11.2063249"><ele>153.0</ele><time>2026-03-28T13:37:56.115Z</time></trkpt><trkpt lat="44.3541913" lon="11.2063667"><ele>154.0</ele><time>2026-03-28T13:37:57.084Z</time></trkpt><trkpt lat="44.3543316" lon="11.2064011"><ele>155.0</ele><time>2026-03-28T13:37:58.109Z</time></trkpt><trkpt lat="44.3544706" lon="11.2064287"><ele>156.0</ele><time>2026-03-28T13:37:59.113Z</time></trkpt><trkpt lat="44.3546016" lon="11.206447"><ele>156.0</ele><time>2026-03-28T13:38:00.09Z</time></trkpt><trkpt lat="44.3547252" lon="11.2064632"><ele>156.0</ele><time>2026-03-28T13:38:01.065Z</time></trkpt><trkpt lat="44.3548478" lon="11.2064778"><ele>156.0</ele><time>2026-03-28T13:38:02.097Z</time></trkpt><trkpt lat="44.3549633" lon="11.2064913"><ele>156.0</ele><time>2026-03-28T13:38:03.122Z</time></trkpt><trkpt lat="44.3550779" lon="11.2065044"><ele>151.5</ele><time>2026-03-28T13:38:04.106Z</time></trkpt><trkpt lat="44.3551953" lon="11.2065202"><ele>147.0</ele><time>2026-03-28T13:38:05.107Z</time></trkpt><trkpt lat="44.3553148" lon="11.2065377"><ele>142.5</ele><time>2026-03-28T13:38:06.091Z</time></trkpt><trkpt lat="44.3554385" lon="11.2065683"><ele>138.0</ele><time>2026-03-28T13:38:07.097Z</time></trkpt><trkpt lat="44.3555598" lon="11.2066202"><ele>137.5</ele><time>2026-03-28T13:38:08.074Z</time></trkpt><trkpt lat="44.3556867" lon="11.2067047"><ele>137.0</ele><time>2026-03-28T13:38:09.105Z</time></trkpt><trkpt lat="44.3558071" lon="11.2068102"><ele>136.5</ele><time>2026-03-28T13:38:10.1Z</time></trkpt><trkpt lat="44.3559269" lon="11.2069311"><ele>136.0</ele><time>2026-03-28T13:38:11.093Z</time></trkpt><trkpt lat="44.3560305" lon="11.2070525"><ele>136.0</ele><time>2026-03-28T13:38:12.09Z</time></trkpt><trkpt lat="44.3561308" lon="11.2071697"><ele>136.0</ele><time>2026-03-28T13:38:13.1Z</time></trkpt><trkpt lat="44.3562186" lon="11.2072766"><ele>136.0</ele><time>2026-03-28T13:38:14.105Z</time></trkpt><trkpt lat="44.356299" lon="11.2073767"><ele>136.0</ele><time>2026-03-28T13:38:15.082Z</time></trkpt><trkpt lat="44.3563788" lon="11.2074733"><ele>136.0</ele><time>2026-03-28T13:38:16.101Z</time></trkpt><trkpt lat="44.356448" lon="11.2075558"><ele>136.0</ele><time>2026-03-28T13:38:17.078Z</time></trkpt><trkpt lat="44.3565092" lon="11.2076327"><ele>136.0</ele><time>2026-03-28T13:38:18.098Z</time></trkpt><trkpt lat="44.3565673" lon="11.207705"><ele>136.0</ele><time>2026-03-28T13:38:19.099Z</time></trkpt><trkpt lat="44.356613" lon="11.2077756"><ele>136.0</ele><time>2026-03-28T13:38:20.091Z</time></trkpt><trkpt lat="44.356658" lon="11.2078461"><ele>136.0</ele><time>2026-03-28T13:38:21.114Z</time></trkpt><trkpt lat="44.3567006" lon="11.2079149"><ele>136.0</ele><time>2026-03-28T13:38:22.09Z</time></trkpt><trkpt lat="44.3567435" lon="11.2079911"><ele>136.0</ele><time>2026-03-28T13:38:23.117Z</time></trkpt><trkpt lat="44.356783" lon="11.2080704"><ele>136.0</ele><time>2026-03-28T13:38:24.084Z</time></trkpt><trkpt lat="44.356851" lon="11.2081918"><ele>136.0</ele><time>2026-03-28T13:38:26.099Z</time></trkpt><trkpt lat="44.3569374" lon="11.2083376"><ele>136.0</ele><time>2026-03-28T13:38:28.097Z</time></trkpt><trkpt lat="44.3569828" lon="11.2084129"><ele>135.42857142857142</ele><time>2026-03-28T13:38:29.099Z</time></trkpt><trkpt lat="44.3570308" lon="11.2084747"><ele>134.85714285714286</ele><time>2026-03-28T13:38:30.098Z</time></trkpt><trkpt lat="44.3570827" lon="11.208535"><ele>134.28571428571428</ele><time>2026-03-28T13:38:31.086Z</time></trkpt><trkpt lat="44.3571397" lon="11.2085944"><ele>133.71428571428572</ele><time>2026-03-28T13:38:32.099Z</time></trkpt><trkpt lat="44.3572148" lon="11.2086413"><ele>133.14285714285714</ele><time>2026-03-28T13:38:33.1Z</time></trkpt><trkpt lat="44.3572889" lon="11.2086678"><ele>132.57142857142856</ele><time>2026-03-28T13:38:34.086Z</time></trkpt><trkpt lat="44.3573662" lon="11.2086731"><ele>132.0</ele><time>2026-03-28T13:38:35.099Z</time></trkpt><trkpt lat="44.3574435" lon="11.2086628"><ele>132.0</ele><time>2026-03-28T13:38:36.11Z</time></trkpt><trkpt lat="44.3575089" lon="11.2086499"><ele>132.0</ele><time>2026-03-28T13:38:37.075Z</time></trkpt><trkpt lat="44.357606" lon="11.2085932"><ele>132.0</ele><time>2026-03-28T13:38:39.083Z</time></trkpt><trkpt lat="44.3576736" lon="11.2085349"><ele>132.0</ele><time>2026-03-28T13:38:41.084Z</time></trkpt><trkpt lat="44.3577261" lon="11.2084794"><ele>132.0</ele><time>2026-03-28T13:38:45.112Z</time></trkpt><trkpt lat="44.3577892" lon="11.2084259"><ele>132.0</ele><time>2026-03-28T13:39:55.103Z</time></trkpt><trkpt lat="44.357857" lon="11.2083359"><ele>132.0</ele><time>2026-03-28T13:39:57.096Z</time></trkpt><trkpt lat="44.3579209" lon="11.2082484"><ele>132.0</ele><time>2026-03-28T13:39:59.101Z</time></trkpt><trkpt lat="44.3579797" lon="11.2081612"><ele>132.0</ele><time>2026-03-28T13:40:01.095Z</time></trkpt><trkpt lat="44.3580503" lon="11.2080534"><ele>132.0</ele><time>2026-03-28T13:40:03.098Z</time></trkpt><trkpt lat="44.358096" lon="11.2079879"><ele>132.0</ele><time>2026-03-28T13:40:04.102Z</time></trkpt><trkpt lat="44.3581484" lon="11.2079115"><ele>132.0</ele><time>2026-03-28T13:40:05.083Z</time></trkpt><trkpt lat="44.3582124" lon="11.2078247"><ele>131.6</ele><time>2026-03-28T13:40:06.098Z</time></trkpt><trkpt lat="44.3582805" lon="11.2077266"><ele>131.2</ele><time>2026-03-28T13:40:07.11Z</time></trkpt><trkpt lat="44.3583482" lon="11.2076217"><ele>130.8</ele><time>2026-03-28T13:40:08.099Z</time></trkpt><trkpt lat="44.3584176" lon="11.2075173"><ele>130.4</ele><time>2026-03-28T13:40:09.085Z</time></trkpt><trkpt lat="44.3584882" lon="11.2074052"><ele>130.0</ele><time>2026-03-28T13:40:10.103Z</time></trkpt><trkpt lat="44.3585635" lon="11.2072993"><ele>126.4</ele><time>2026-03-28T13:40:11.094Z</time></trkpt><trkpt lat="44.358633" lon="11.2071871"><ele>122.8</ele><time>2026-03-28T13:40:12.107Z</time></trkpt><trkpt lat="44.358695" lon="11.2070749"><ele>119.19999999999999</ele><time>2026-03-28T13:40:13.096Z</time></trkpt><trkpt lat="44.3587597" lon="11.2069611"><ele>115.6</ele><time>2026-03-28T13:40:14.106Z</time></trkpt><trkpt lat="44.3588263" lon="11.2068505"><ele>112.0</ele><time>2026-03-28T13:40:15.089Z</time></trkpt><trkpt lat="44.3588947" lon="11.2067489"><ele>112.0</ele><time>2026-03-28T13:40:16.106Z</time></trkpt><trkpt lat="44.3589572" lon="11.2066537"><ele>111.99999999999999</ele><time>2026-03-28T13:40:17.091Z</time></trkpt><trkpt lat="44.3590265" lon="11.2065522"><ele>111.99999999999999</ele><time>2026-03-28T13:40:18.121Z</time></trkpt><trkpt lat="44.3590997" lon="11.206445"><ele>112.0</ele><time>2026-03-28T13:40:19.106Z</time></trkpt><trkpt lat="44.359186" lon="11.2063282"><ele>112.0</ele><time>2026-03-28T13:40:20.085Z</time></trkpt><trkpt lat="44.3592775" lon="11.2062059"><ele>116.39999999999999</ele><time>2026-03-28T13:40:21.098Z</time></trkpt><trkpt lat="44.3593664" lon="11.2060877"><ele>120.79999999999998</ele><time>2026-03-28T13:40:22.097Z</time></trkpt><trkpt lat="44.3594516" lon="11.2059846"><ele>125.2</ele><time>2026-03-28T13:40:23.105Z</time></trkpt><trkpt lat="44.3595272" lon="11.2058896"><ele>129.6</ele><time>2026-03-28T13:40:24.096Z</time></trkpt><trkpt lat="44.3596006" lon="11.2057998"><ele>134.0</ele><time>2026-03-28T13:40:25.097Z</time></trkpt><trkpt lat="44.3596703" lon="11.2057124"><ele>133.8</ele><time>2026-03-28T13:40:26.105Z</time></trkpt><trkpt lat="44.3597393" lon="11.2056231"><ele>133.60000000000002</ele><time>2026-03-28T13:40:27.097Z</time></trkpt><trkpt lat="44.3598149" lon="11.2055309"><ele>133.4</ele><time>2026-03-28T13:40:28.09Z</time></trkpt><trkpt lat="44.3598992" lon="11.2054368"><ele>133.20000000000002</ele><time>2026-03-28T13:40:29.103Z</time></trkpt><trkpt lat="44.3599903" lon="11.2053467"><ele>133.0</ele><time>2026-03-28T13:40:30.117Z</time></trkpt><trkpt lat="44.36008" lon="11.2052732"><ele>133.0</ele><time>2026-03-28T13:40:31.086Z</time></trkpt><trkpt lat="44.3601678" lon="11.2052005"><ele>133.0</ele><time>2026-03-28T13:40:32.089Z</time></trkpt><trkpt lat="44.3602595" lon="11.2051335"><ele>133.0</ele><time>2026-03-28T13:40:33.1Z</time></trkpt><trkpt lat="44.3603588" lon="11.205078"><ele>133.0</ele><time>2026-03-28T13:40:34.09Z</time></trkpt><trkpt lat="44.3604708" lon="11.2050277"><ele>133.0</ele><time>2026-03-28T13:40:35.115Z</time></trkpt><trkpt lat="44.3605843" lon="11.2049852"><ele>135.75</ele><time>2026-03-28T13:40:36.102Z</time></trkpt><trkpt lat="44.3607066" lon="11.2049404"><ele>138.5</ele><time>2026-03-28T13:40:37.127Z</time></trkpt><trkpt lat="44.3608246" lon="11.2048967"><ele>141.25</ele><time>2026-03-28T13:40:38.082Z</time></trkpt><trkpt lat="44.3609445" lon="11.2048542"><ele>144.0</ele><time>2026-03-28T13:40:39.09Z</time></trkpt><trkpt lat="44.3610584" lon="11.2048129"><ele>144.0</ele><time>2026-03-28T13:40:40.091Z</time></trkpt><trkpt lat="44.3611631" lon="11.2047755"><ele>144.0</ele><time>2026-03-28T13:40:41.081Z</time></trkpt><trkpt lat="44.3612693" lon="11.2047401"><ele>144.0</ele><time>2026-03-28T13:40:42.099Z</time></trkpt><trkpt lat="44.36138" lon="11.2047009"><ele>144.0</ele><time>2026-03-28T13:40:43.108Z</time></trkpt><trkpt lat="44.361493" lon="11.2046631"><ele>144.0</ele><time>2026-03-28T13:40:44.102Z</time></trkpt><trkpt lat="44.3616138" lon="11.2046287"><ele>141.5</ele><time>2026-03-28T13:40:45.103Z</time></trkpt><trkpt lat="44.3617407" lon="11.2045967"><ele>139.0</ele><time>2026-03-28T13:40:46.098Z</time></trkpt><trkpt lat="44.3618746" lon="11.2045846"><ele>136.5</ele><time>2026-03-28T13:40:47.1Z</time></trkpt><trkpt lat="44.3620056" lon="11.2045938"><ele>134.0</ele><time>2026-03-28T13:40:48.105Z</time></trkpt><trkpt lat="44.362125" lon="11.2046326"><ele>134.75</ele><time>2026-03-28T13:40:49.09Z</time></trkpt><trkpt lat="44.3622497" lon="11.2047014"><ele>135.5</ele><time>2026-03-28T13:40:50.104Z</time></trkpt><trkpt lat="44.3623646" lon="11.204797"><ele>136.25</ele><time>2026-03-28T13:40:51.089Z</time></trkpt><trkpt lat="44.3624785" lon="11.2049061"><ele>137.0</ele><time>2026-03-28T13:40:52.085Z</time></trkpt><trkpt lat="44.3625865" lon="11.20503"><ele>132.5</ele><time>2026-03-28T13:40:53.083Z</time></trkpt><trkpt lat="44.3626772" lon="11.2051678"><ele>128.0</ele><time>2026-03-28T13:40:54.077Z</time></trkpt><trkpt lat="44.3627554" lon="11.2053261"><ele>123.5</ele><time>2026-03-28T13:40:55.08Z</time></trkpt><trkpt lat="44.3628201" lon="11.2055006"><ele>119.0</ele><time>2026-03-28T13:40:56.106Z</time></trkpt><trkpt lat="44.3628698" lon="11.2056711"><ele>117.75</ele><time>2026-03-28T13:40:57.095Z</time></trkpt><trkpt lat="44.3629202" lon="11.2058443"><ele>116.5</ele><time>2026-03-28T13:40:58.111Z</time></trkpt><trkpt lat="44.3629643" lon="11.2059975"><ele>115.25</ele><time>2026-03-28T13:40:59.091Z</time></trkpt><trkpt lat="44.3630078" lon="11.2061443"><ele>114.0</ele><time>2026-03-28T13:41:00.091Z</time></trkpt><trkpt lat="44.3630506" lon="11.2062772"><ele>116.2</ele><time>2026-03-28T13:41:01.08Z</time></trkpt><trkpt lat="44.3630994" lon="11.2064047"><ele>118.4</ele><time>2026-03-28T13:41:02.105Z</time></trkpt><trkpt lat="44.3631539" lon="11.206525"><ele>120.6</ele><time>2026-03-28T13:41:03.091Z</time></trkpt><trkpt lat="44.363219" lon="11.2066525"><ele>122.8</ele><time>2026-03-28T13:41:04.099Z</time></trkpt><trkpt lat="44.3632894" lon="11.2067863"><ele>125.0</ele><time>2026-03-28T13:41:05.098Z</time></trkpt><trkpt lat="44.3633595" lon="11.2069273"><ele>125.0</ele><time>2026-03-28T13:41:06.095Z</time></trkpt><trkpt lat="44.3634262" lon="11.2070606"><ele>125.0</ele><time>2026-03-28T13:41:07.093Z</time></trkpt><trkpt lat="44.3634929" lon="11.2071909"><ele>125.0</ele><time>2026-03-28T13:41:08.096Z</time></trkpt><trkpt lat="44.363556" lon="11.2073206"><ele>125.0</ele><time>2026-03-28T13:41:09.097Z</time></trkpt><trkpt lat="44.3636198" lon="11.2074467"><ele>122.8</ele><time>2026-03-28T13:41:10.101Z</time></trkpt><trkpt lat="44.3636814" lon="11.2075642"><ele>120.6</ele><time>2026-03-28T13:41:11.089Z</time></trkpt><trkpt lat="44.3637395" lon="11.2076927"><ele>118.4</ele><time>2026-03-28T13:41:12.098Z</time></trkpt><trkpt lat="44.3637989" lon="11.2078221"><ele>116.2</ele><time>2026-03-28T13:41:13.095Z</time></trkpt><trkpt lat="44.3638562" lon="11.207946"><ele>114.0</ele><time>2026-03-28T13:41:14.099Z</time></trkpt><trkpt lat="44.3639105" lon="11.2080713"><ele>116.4</ele><time>2026-03-28T13:41:15.103Z</time></trkpt><trkpt lat="44.3639661" lon="11.2081994"><ele>118.80000000000001</ele><time>2026-03-28T13:41:16.108Z</time></trkpt><trkpt lat="44.3640214" lon="11.20832"><ele>121.19999999999999</ele><time>2026-03-28T13:41:17.088Z</time></trkpt><trkpt lat="44.3640772" lon="11.2084474"><ele>123.6</ele><time>2026-03-28T13:41:18.091Z</time></trkpt><trkpt lat="44.3641352" lon="11.208582"><ele>126.0</ele><time>2026-03-28T13:41:19.101Z</time></trkpt><trkpt lat="44.3641912" lon="11.2087114"><ele>126.0</ele><time>2026-03-28T13:41:20.086Z</time></trkpt><trkpt lat="44.3642492" lon="11.2088462"><ele>126.0</ele><time>2026-03-28T13:41:21.09Z</time></trkpt><trkpt lat="44.3643088" lon="11.2089776"><ele>126.0</ele><time>2026-03-28T13:41:22.089Z</time></trkpt><trkpt lat="44.3643717" lon="11.2091084"><ele>126.0</ele><time>2026-03-28T13:41:23.107Z</time></trkpt><trkpt lat="44.3644394" lon="11.2092381"><ele>124.6</ele><time>2026-03-28T13:41:24.098Z</time></trkpt><trkpt lat="44.3645093" lon="11.2093613"><ele>123.19999999999999</ele><time>2026-03-28T13:41:25.085Z</time></trkpt><trkpt lat="44.3645843" lon="11.2094871"><ele>121.80000000000001</ele><time>2026-03-28T13:41:26.106Z</time></trkpt><trkpt lat="44.3646508" lon="11.2095989"><ele>120.4</ele><time>2026-03-28T13:41:27.081Z</time></trkpt><trkpt lat="44.364714" lon="11.2097081"><ele>119.0</ele><time>2026-03-28T13:41:28.09Z</time></trkpt><trkpt lat="44.3647759" lon="11.2098243"><ele>119.6</ele><time>2026-03-28T13:41:29.097Z</time></trkpt><trkpt lat="44.3648324" lon="11.2099501"><ele>120.2</ele><time>2026-03-28T13:41:30.079Z</time></trkpt><trkpt lat="44.3648848" lon="11.2100864"><ele>120.79999999999998</ele><time>2026-03-28T13:41:31.105Z</time></trkpt><trkpt lat="44.3649356" lon="11.2102246"><ele>121.39999999999999</ele><time>2026-03-28T13:41:32.097Z</time></trkpt><trkpt lat="44.3649907" lon="11.2103684"><ele>122.0</ele><time>2026-03-28T13:41:33.089Z</time></trkpt><trkpt lat="44.3650521" lon="11.2105282"><ele>120.0</ele><time>2026-03-28T13:41:34.097Z</time></trkpt><trkpt lat="44.3651165" lon="11.2106931"><ele>118.0</ele><time>2026-03-28T13:41:35.107Z</time></trkpt><trkpt lat="44.365177" lon="11.210852"><ele>116.0</ele><time>2026-03-28T13:41:36.094Z</time></trkpt><trkpt lat="44.3652328" lon="11.2110015"><ele>114.0</ele><time>2026-03-28T13:41:37.107Z</time></trkpt><trkpt lat="44.3652812" lon="11.2111383"><ele>114.0</ele><time>2026-03-28T13:41:38.102Z</time></trkpt><trkpt lat="44.3653253" lon="11.2112682"><ele>114.0</ele><time>2026-03-28T13:41:39.117Z</time></trkpt><trkpt lat="44.3653662" lon="11.2113906"><ele>114.0</ele><time>2026-03-28T13:41:40.091Z</time></trkpt><trkpt lat="44.3654072" lon="11.2115122"><ele>114.0</ele><time>2026-03-28T13:41:41.089Z</time></trkpt><trkpt lat="44.3654521" lon="11.2116435"><ele>114.0</ele><time>2026-03-28T13:41:42.085Z</time></trkpt><trkpt lat="44.3654937" lon="11.2117786"><ele>117.80000000000001</ele><time>2026-03-28T13:41:43.108Z</time></trkpt><trkpt lat="44.3655334" lon="11.2119133"><ele>121.60000000000001</ele><time>2026-03-28T13:41:44.105Z</time></trkpt><trkpt lat="44.3655758" lon="11.2120497"><ele>125.4</ele><time>2026-03-28T13:41:45.103Z</time></trkpt><trkpt lat="44.3656167" lon="11.2121877"><ele>129.20000000000002</ele><time>2026-03-28T13:41:46.088Z</time></trkpt><trkpt lat="44.365659" lon="11.2123298"><ele>133.0</ele><time>2026-03-28T13:41:47.084Z</time></trkpt><trkpt lat="44.3657007" lon="11.2124732"><ele>133.0</ele><time>2026-03-28T13:41:48.101Z</time></trkpt><trkpt lat="44.3657424" lon="11.2126126"><ele>133.0</ele><time>2026-03-28T13:41:49.093Z</time></trkpt><trkpt lat="44.3657857" lon="11.2127555"><ele>133.0</ele><time>2026-03-28T13:41:50.116Z</time></trkpt><trkpt lat="44.3658338" lon="11.2128861"><ele>133.0</ele><time>2026-03-28T13:41:51.085Z</time></trkpt><trkpt lat="44.3658934" lon="11.2130148"><ele>133.0</ele><time>2026-03-28T13:41:52.093Z</time></trkpt><trkpt lat="44.3659596" lon="11.2131467"><ele>130.25</ele><time>2026-03-28T13:41:53.102Z</time></trkpt><trkpt lat="44.3660307" lon="11.2132724"><ele>127.5</ele><time>2026-03-28T13:41:54.081Z</time></trkpt><trkpt lat="44.3661159" lon="11.2133968"><ele>124.75</ele><time>2026-03-28T13:41:55.097Z</time></trkpt><trkpt lat="44.3662094" lon="11.2135078"><ele>122.0</ele><time>2026-03-28T13:41:56.094Z</time></trkpt><trkpt lat="44.3663112" lon="11.2136096"><ele>124.5</ele><time>2026-03-28T13:41:57.099Z</time></trkpt><trkpt lat="44.3664213" lon="11.2136939"><ele>127.0</ele><time>2026-03-28T13:41:58.1Z</time></trkpt><trkpt lat="44.3665325" lon="11.2137599"><ele>129.5</ele><time>2026-03-28T13:41:59.093Z</time></trkpt><trkpt lat="44.3666455" lon="11.2138122"><ele>132.0</ele><time>2026-03-28T13:42:00.077Z</time></trkpt><trkpt lat="44.3667677" lon="11.2138564"><ele>132.0</ele><time>2026-03-28T13:42:01.087Z</time></trkpt><trkpt lat="44.3668904" lon="11.2138886"><ele>132.0</ele><time>2026-03-28T13:42:02.081Z</time></trkpt><trkpt lat="44.3670164" lon="11.2139145"><ele>132.0</ele><time>2026-03-28T13:42:03.107Z</time></trkpt><trkpt lat="44.3671376" lon="11.2139302"><ele>132.0</ele><time>2026-03-28T13:42:04.081Z</time></trkpt><trkpt lat="44.3672616" lon="11.2139492"><ele>132.75</ele><time>2026-03-28T13:42:05.081Z</time></trkpt><trkpt lat="44.3673803" lon="11.2139702"><ele>133.5</ele><time>2026-03-28T13:42:06.078Z</time></trkpt><trkpt lat="44.3674907" lon="11.2140034"><ele>134.25</ele><time>2026-03-28T13:42:07.085Z</time></trkpt><trkpt lat="44.367606" lon="11.2140473"><ele>135.0</ele><time>2026-03-28T13:42:08.111Z</time></trkpt><trkpt lat="44.3677212" lon="11.2140989"><ele>133.75</ele><time>2026-03-28T13:42:09.095Z</time></trkpt><trkpt lat="44.3678392" lon="11.2141603"><ele>132.5</ele><time>2026-03-28T13:42:10.103Z</time></trkpt><trkpt lat="44.3679552" lon="11.2142287"><ele>131.25</ele><time>2026-03-28T13:42:11.101Z</time></trkpt><trkpt lat="44.3680723" lon="11.2143117"><ele>130.0</ele><time>2026-03-28T13:42:12.097Z</time></trkpt><trkpt lat="44.3681886" lon="11.2144151"><ele>130.0</ele><time>2026-03-28T13:42:13.107Z</time></trkpt><trkpt lat="44.3683001" lon="11.2145325"><ele>130.0</ele><time>2026-03-28T13:42:14.105Z</time></trkpt><trkpt lat="44.3684043" lon="11.2146519"><ele>130.0</ele><time>2026-03-28T13:42:15.081Z</time></trkpt><trkpt lat="44.3685069" lon="11.2147808"><ele>130.0</ele><time>2026-03-28T13:42:16.098Z</time></trkpt><trkpt lat="44.368603" lon="11.2149095"><ele>130.0</ele><time>2026-03-28T13:42:17.092Z</time></trkpt><trkpt lat="44.3687005" lon="11.2150355"><ele>130.0</ele><time>2026-03-28T13:42:18.085Z</time></trkpt><trkpt lat="44.3687988" lon="11.2151731"><ele>130.0</ele><time>2026-03-28T13:42:19.097Z</time></trkpt><trkpt lat="44.3688986" lon="11.2153157"><ele>130.0</ele><time>2026-03-28T13:42:20.105Z</time></trkpt><trkpt lat="44.3690009" lon="11.215466"><ele>130.0</ele><time>2026-03-28T13:42:21.107Z</time></trkpt><trkpt lat="44.3691092" lon="11.2156246"><ele>130.0</ele><time>2026-03-28T13:42:22.095Z</time></trkpt><trkpt lat="44.3692281" lon="11.2157872"><ele>130.0</ele><time>2026-03-28T13:42:23.098Z</time></trkpt><trkpt lat="44.3693506" lon="11.2159573"><ele>127.66666666666667</ele><time>2026-03-28T13:42:24.102Z</time></trkpt><trkpt lat="44.3694693" lon="11.2161206"><ele>125.33333333333334</ele><time>2026-03-28T13:42:25.103Z</time></trkpt><trkpt lat="44.3695793" lon="11.2162802"><ele>123.0</ele><time>2026-03-28T13:42:26.08Z</time></trkpt><trkpt lat="44.3696903" lon="11.2164415"><ele>125.5</ele><time>2026-03-28T13:42:27.109Z</time></trkpt><trkpt lat="44.3697891" lon="11.2165867"><ele>128.0</ele><time>2026-03-28T13:42:28.097Z</time></trkpt><trkpt lat="44.3698839" lon="11.2167222"><ele>130.5</ele><time>2026-03-28T13:42:29.097Z</time></trkpt><trkpt lat="44.3699695" lon="11.216852"><ele>133.0</ele><time>2026-03-28T13:42:30.099Z</time></trkpt><trkpt lat="44.3700527" lon="11.2169678"><ele>133.0</ele><time>2026-03-28T13:42:31.102Z</time></trkpt><trkpt lat="44.3701307" lon="11.2170751"><ele>133.0</ele><time>2026-03-28T13:42:32.109Z</time></trkpt><trkpt lat="44.3702082" lon="11.2171846"><ele>133.0</ele><time>2026-03-28T13:42:33.1Z</time></trkpt><trkpt lat="44.3702884" lon="11.2173049"><ele>133.0</ele><time>2026-03-28T13:42:34.097Z</time></trkpt><trkpt lat="44.3703509" lon="11.2174373"><ele>129.75</ele><time>2026-03-28T13:42:35.08Z</time></trkpt><trkpt lat="44.3703949" lon="11.2175979"><ele>126.5</ele><time>2026-03-28T13:42:36.093Z</time></trkpt><trkpt lat="44.3704257" lon="11.217772"><ele>123.25</ele><time>2026-03-28T13:42:37.095Z</time></trkpt><trkpt lat="44.3704498" lon="11.217959"><ele>120.0</ele><time>2026-03-28T13:42:38.094Z</time></trkpt><trkpt lat="44.3704721" lon="11.2181576"><ele>117.75</ele><time>2026-03-28T13:42:39.099Z</time></trkpt><trkpt lat="44.3704982" lon="11.2183581"><ele>115.5</ele><time>2026-03-28T13:42:40.099Z</time></trkpt><trkpt lat="44.3705268" lon="11.2185565"><ele>113.25</ele><time>2026-03-28T13:42:41.099Z</time></trkpt><trkpt lat="44.3705542" lon="11.218761"><ele>111.0</ele><time>2026-03-28T13:42:42.12Z</time></trkpt><trkpt lat="44.3705819" lon="11.2189541"><ele>114.5</ele><time>2026-03-28T13:42:43.1Z</time></trkpt><trkpt lat="44.3706091" lon="11.2191482"><ele>118.0</ele><time>2026-03-28T13:42:44.095Z</time></trkpt><trkpt lat="44.3706399" lon="11.2193453"><ele>121.5</ele><time>2026-03-28T13:42:45.1Z</time></trkpt><trkpt lat="44.3706779" lon="11.2195359"><ele>125.0</ele><time>2026-03-28T13:42:46.096Z</time></trkpt><trkpt lat="44.3707288" lon="11.2197328"><ele>122.33333333333333</ele><time>2026-03-28T13:42:47.112Z</time></trkpt><trkpt lat="44.3707915" lon="11.2199239"><ele>119.66666666666666</ele><time>2026-03-28T13:42:48.101Z</time></trkpt><trkpt lat="44.3708683" lon="11.2201238"><ele>117.0</ele><time>2026-03-28T13:42:49.097Z</time></trkpt><trkpt lat="44.3709576" lon="11.2203244"><ele>117.0</ele><time>2026-03-28T13:42:50.073Z</time></trkpt><trkpt lat="44.3710648" lon="11.2205284"><ele>117.0</ele><time>2026-03-28T13:42:51.102Z</time></trkpt><trkpt lat="44.3711762" lon="11.2207152"><ele>117.0</ele><time>2026-03-28T13:42:52.088Z</time></trkpt><trkpt lat="44.3712958" lon="11.2209036"><ele>121.33333333333334</ele><time>2026-03-28T13:42:53.094Z</time></trkpt><trkpt lat="44.3714184" lon="11.22109"><ele>125.66666666666667</ele><time>2026-03-28T13:42:54.101Z</time></trkpt><trkpt lat="44.3715463" lon="11.2212834"><ele>130.0</ele><time>2026-03-28T13:42:55.117Z</time></trkpt><trkpt lat="44.3716718" lon="11.2214724"><ele>125.33333333333334</ele><time>2026-03-28T13:42:56.078Z</time></trkpt><trkpt lat="44.3718026" lon="11.2216664"><ele>120.66666666666666</ele><time>2026-03-28T13:42:57.091Z</time></trkpt><trkpt lat="44.3719293" lon="11.2218546"><ele>116.0</ele><time>2026-03-28T13:42:58.082Z</time></trkpt><trkpt lat="44.3720522" lon="11.2220298"><ele>116.0</ele><time>2026-03-28T13:42:59.074Z</time></trkpt><trkpt lat="44.3721651" lon="11.222192"><ele>116.0</ele><time>2026-03-28T13:43:00.072Z</time></trkpt><trkpt lat="44.3722754" lon="11.2223397"><ele>116.0</ele><time>2026-03-28T13:43:01.078Z</time></trkpt><trkpt lat="44.3723834" lon="11.2224741"><ele>118.0</ele><time>2026-03-28T13:43:02.082Z</time></trkpt><trkpt lat="44.3724889" lon="11.2225955"><ele>120.0</ele><time>2026-03-28T13:43:03.086Z</time></trkpt><trkpt lat="44.372603" lon="11.2227201"><ele>122.0</ele><time>2026-03-28T13:43:04.077Z</time></trkpt><trkpt lat="44.3727215" lon="11.2228465"><ele>124.0</ele><time>2026-03-28T13:43:05.073Z</time></trkpt><trkpt lat="44.3728466" lon="11.2229733"><ele>124.0</ele><time>2026-03-28T13:43:06.086Z</time></trkpt><trkpt lat="44.3729708" lon="11.2230989"><ele>124.0</ele><time>2026-03-28T13:43:07.09Z</time></trkpt><trkpt lat="44.373097" lon="11.2232173"><ele>124.0</ele><time>2026-03-28T13:43:08.084Z</time></trkpt><trkpt lat="44.373226" lon="11.2233356"><ele>124.0</ele><time>2026-03-28T13:43:09.08Z</time></trkpt><trkpt lat="44.3733563" lon="11.2234604"><ele>124.0</ele><time>2026-03-28T13:43:10.088Z</time></trkpt><trkpt lat="44.3734815" lon="11.2235901"><ele>124.0</ele><time>2026-03-28T13:43:11.094Z</time></trkpt><trkpt lat="44.3735996" lon="11.2237292"><ele>124.0</ele><time>2026-03-28T13:43:12.076Z</time></trkpt><trkpt lat="44.3737142" lon="11.2238834"><ele>124.0</ele><time>2026-03-28T13:43:13.085Z</time></trkpt><trkpt lat="44.3738263" lon="11.2240444"><ele>124.0</ele><time>2026-03-28T13:43:14.11Z</time></trkpt><trkpt lat="44.373931" lon="11.2241981"><ele>123.33333333333334</ele><time>2026-03-28T13:43:15.082Z</time></trkpt><trkpt lat="44.3740398" lon="11.2243583"><ele>122.66666666666666</ele><time>2026-03-28T13:43:16.097Z</time></trkpt><trkpt lat="44.3741505" lon="11.2245126"><ele>122.0</ele><time>2026-03-28T13:43:17.097Z</time></trkpt><trkpt lat="44.3742615" lon="11.2246672"><ele>119.66666666666666</ele><time>2026-03-28T13:43:18.097Z</time></trkpt><trkpt lat="44.3743736" lon="11.224815"><ele>117.33333333333334</ele><time>2026-03-28T13:43:19.107Z</time></trkpt><trkpt lat="44.374489" lon="11.2249548"><ele>115.0</ele><time>2026-03-28T13:43:20.102Z</time></trkpt><trkpt lat="44.3746053" lon="11.2250793"><ele>117.66666666666667</ele><time>2026-03-28T13:43:21.084Z</time></trkpt><trkpt lat="44.3747242" lon="11.2252033"><ele>120.33333333333334</ele><time>2026-03-28T13:43:22.073Z</time></trkpt><trkpt lat="44.3748531" lon="11.2253385"><ele>123.0</ele><time>2026-03-28T13:43:23.108Z</time></trkpt><trkpt lat="44.3749851" lon="11.2254712"><ele>123.0</ele><time>2026-03-28T13:43:24.094Z</time></trkpt><trkpt lat="44.3751294" lon="11.2256198"><ele>123.0</ele><time>2026-03-28T13:43:25.103Z</time></trkpt><trkpt lat="44.3752732" lon="11.2257728"><ele>123.0</ele><time>2026-03-28T13:43:26.093Z</time></trkpt><trkpt lat="44.3754131" lon="11.2259295"><ele>125.33333333333334</ele><time>2026-03-28T13:43:27.091Z</time></trkpt><trkpt lat="44.3755469" lon="11.2260942"><ele>127.66666666666667</ele><time>2026-03-28T13:43:28.105Z</time></trkpt><trkpt lat="44.3756673" lon="11.226256"><ele>130.0</ele><time>2026-03-28T13:43:29.087Z</time></trkpt><trkpt lat="44.375785" lon="11.2264247"><ele>125.33333333333334</ele><time>2026-03-28T13:43:30.115Z</time></trkpt><trkpt lat="44.3758871" lon="11.2265842"><ele>120.66666666666666</ele><time>2026-03-28T13:43:31.089Z</time></trkpt><trkpt lat="44.3759851" lon="11.2267484"><ele>116.0</ele><time>2026-03-28T13:43:32.087Z</time></trkpt><trkpt lat="44.3760795" lon="11.2269152"><ele>116.0</ele><time>2026-03-28T13:43:33.082Z</time></trkpt><trkpt lat="44.3761667" lon="11.2270867"><ele>116.0</ele><time>2026-03-28T13:43:34.106Z</time></trkpt><trkpt lat="44.3762435" lon="11.2272546"><ele>116.0</ele><time>2026-03-28T13:43:35.096Z</time></trkpt><trkpt lat="44.3763182" lon="11.2274196"><ele>116.0</ele><time>2026-03-28T13:43:36.1Z</time></trkpt><trkpt lat="44.376392" lon="11.227583"><ele>116.75</ele><time>2026-03-28T13:43:37.104Z</time></trkpt><trkpt lat="44.3764623" lon="11.2277469"><ele>117.5</ele><time>2026-03-28T13:43:38.094Z</time></trkpt><trkpt lat="44.3765295" lon="11.2279185"><ele>118.25</ele><time>2026-03-28T13:43:39.094Z</time></trkpt><trkpt lat="44.3765978" lon="11.2280954"><ele>119.0</ele><time>2026-03-28T13:43:40.108Z</time></trkpt><trkpt lat="44.3766675" lon="11.2282721"><ele>119.0</ele><time>2026-03-28T13:43:41.113Z</time></trkpt><trkpt lat="44.376735" lon="11.2284394"><ele>119.0</ele><time>2026-03-28T13:43:42.103Z</time></trkpt><trkpt lat="44.3768" lon="11.2286101"><ele>119.0</ele><time>2026-03-28T13:43:43.082Z</time></trkpt><trkpt lat="44.3768677" lon="11.22879"><ele>119.0</ele><time>2026-03-28T13:43:44.106Z</time></trkpt><trkpt lat="44.3769354" lon="11.2289618"><ele>117.0</ele><time>2026-03-28T13:43:45.098Z</time></trkpt><trkpt lat="44.3770055" lon="11.2291365"><ele>115.0</ele><time>2026-03-28T13:43:46.091Z</time></trkpt><trkpt lat="44.3770842" lon="11.2293094"><ele>113.0</ele><time>2026-03-28T13:43:47.095Z</time></trkpt><trkpt lat="44.3771719" lon="11.2294746"><ele>111.0</ele><time>2026-03-28T13:43:48.093Z</time></trkpt><trkpt lat="44.3772675" lon="11.2296341"><ele>113.5</ele><time>2026-03-28T13:43:49.1Z</time></trkpt><trkpt lat="44.3773635" lon="11.2297769"><ele>116.0</ele><time>2026-03-28T13:43:50.081Z</time></trkpt><trkpt lat="44.3774621" lon="11.2299091"><ele>118.5</ele><time>2026-03-28T13:43:51.108Z</time></trkpt><trkpt lat="44.3775471" lon="11.2300157"><ele>121.0</ele><time>2026-03-28T13:43:52.108Z</time></trkpt><trkpt lat="44.3776217" lon="11.230107"><ele>121.00000000000001</ele><time>2026-03-28T13:43:53.103Z</time></trkpt><trkpt lat="44.377684" lon="11.2301785"><ele>121.0</ele><time>2026-03-28T13:43:54.084Z</time></trkpt><trkpt lat="44.3777452" lon="11.2302443"><ele>121.0</ele><time>2026-03-28T13:43:55.111Z</time></trkpt><trkpt lat="44.3778027" lon="11.2303064"><ele>121.0</ele><time>2026-03-28T13:43:56.082Z</time></trkpt><trkpt lat="44.3778755" lon="11.2303763"><ele>121.00000000000001</ele><time>2026-03-28T13:43:57.113Z</time></trkpt><trkpt lat="44.3779552" lon="11.2304442"><ele>121.0</ele><time>2026-03-28T13:43:58.124Z</time></trkpt><trkpt lat="44.3780413" lon="11.2305212"><ele>121.25</ele><time>2026-03-28T13:43:59.123Z</time></trkpt><trkpt lat="44.3781343" lon="11.2306089"><ele>121.5</ele><time>2026-03-28T13:44:00.088Z</time></trkpt><trkpt lat="44.3782345" lon="11.2307048"><ele>121.75</ele><time>2026-03-28T13:44:01.096Z</time></trkpt><trkpt lat="44.3783421" lon="11.230806"><ele>122.0</ele><time>2026-03-28T13:44:02.116Z</time></trkpt><trkpt lat="44.3784541" lon="11.23091"><ele>122.0</ele><time>2026-03-28T13:44:03.106Z</time></trkpt><trkpt lat="44.3785867" lon="11.2310276"><ele>122.0</ele><time>2026-03-28T13:44:04.093Z</time></trkpt><trkpt lat="44.3787341" lon="11.231152"><ele>122.0</ele><time>2026-03-28T13:44:05.096Z</time></trkpt><trkpt lat="44.3788799" lon="11.2312715"><ele>122.66666666666666</ele><time>2026-03-28T13:44:06.096Z</time></trkpt><trkpt lat="44.3790165" lon="11.2313852"><ele>123.33333333333334</ele><time>2026-03-28T13:44:07.11Z</time></trkpt><trkpt lat="44.3791481" lon="11.2314975"><ele>124.0</ele><time>2026-03-28T13:44:08.095Z</time></trkpt><trkpt lat="44.3792785" lon="11.2316138"><ele>124.0</ele><time>2026-03-28T13:44:09.099Z</time></trkpt><trkpt lat="44.3793945" lon="11.2317189"><ele>124.0</ele><time>2026-03-28T13:44:10.098Z</time></trkpt><trkpt lat="44.3795016" lon="11.2318125"><ele>124.0</ele><time>2026-03-28T13:44:11.085Z</time></trkpt><trkpt lat="44.3795939" lon="11.2318914"><ele>124.0</ele><time>2026-03-28T13:44:12.104Z</time></trkpt><trkpt lat="44.3796763" lon="11.2319626"><ele>125.0</ele><time>2026-03-28T13:44:13.093Z</time></trkpt><trkpt lat="44.3797616" lon="11.2320368"><ele>126.0</ele><time>2026-03-28T13:44:14.077Z</time></trkpt><trkpt lat="44.3798524" lon="11.2321214"><ele>127.0</ele><time>2026-03-28T13:44:15.092Z</time></trkpt><trkpt lat="44.3799558" lon="11.2322255"><ele>128.0</ele><time>2026-03-28T13:44:16.085Z</time></trkpt><trkpt lat="44.3800853" lon="11.2323504"><ele>128.0</ele><time>2026-03-28T13:44:17.094Z</time></trkpt><trkpt lat="44.3802303" lon="11.2325064"><ele>128.0</ele><time>2026-03-28T13:44:18.113Z</time></trkpt><trkpt lat="44.3803677" lon="11.232659"><ele>128.0</ele><time>2026-03-28T13:44:19.1Z</time></trkpt><trkpt lat="44.3804962" lon="11.2328049"><ele>128.66666666666666</ele><time>2026-03-28T13:44:20.097Z</time></trkpt><trkpt lat="44.3806206" lon="11.2329455"><ele>129.33333333333334</ele><time>2026-03-28T13:44:21.122Z</time></trkpt><trkpt lat="44.3807465" lon="11.2330783"><ele>130.0</ele><time>2026-03-28T13:44:22.089Z</time></trkpt><trkpt lat="44.3808886" lon="11.2332155"><ele>130.0</ele><time>2026-03-28T13:44:23.086Z</time></trkpt><trkpt lat="44.3810623" lon="11.2334066"><ele>130.0</ele><time>2026-03-28T13:44:24.136Z</time></trkpt><trkpt lat="44.381222" lon="11.2335897"><ele>130.0</ele><time>2026-03-28T13:44:25.122Z</time></trkpt><trkpt lat="44.3813729" lon="11.2337576"><ele>130.0</ele><time>2026-03-28T13:44:26.107Z</time></trkpt><trkpt lat="44.3815179" lon="11.2339195"><ele>130.0</ele><time>2026-03-28T13:44:27.107Z</time></trkpt><trkpt lat="44.3816535" lon="11.2340707"><ele>130.0</ele><time>2026-03-28T13:44:28.113Z</time></trkpt><trkpt lat="44.3817801" lon="11.2342071"><ele>128.33333333333334</ele><time>2026-03-28T13:44:29.103Z</time></trkpt><trkpt lat="44.3819036" lon="11.2343344"><ele>126.66666666666666</ele><time>2026-03-28T13:44:30.102Z</time></trkpt><trkpt lat="44.3820231" lon="11.2344581"><ele>125.0</ele><time>2026-03-28T13:44:31.098Z</time></trkpt><trkpt lat="44.382143" lon="11.2345829"><ele>125.0</ele><time>2026-03-28T13:44:32.105Z</time></trkpt><trkpt lat="44.3822584" lon="11.2347012"><ele>125.0</ele><time>2026-03-28T13:44:33.102Z</time></trkpt><trkpt lat="44.3823722" lon="11.2348136"><ele>125.0</ele><time>2026-03-28T13:44:34.109Z</time></trkpt><trkpt lat="44.3824765" lon="11.2349244"><ele>125.0</ele><time>2026-03-28T13:44:35.084Z</time></trkpt><trkpt lat="44.3825977" lon="11.2350496"><ele>125.0</ele><time>2026-03-28T13:44:36.096Z</time></trkpt><trkpt lat="44.3827345" lon="11.2351802"><ele>125.0</ele><time>2026-03-28T13:44:37.104Z</time></trkpt><trkpt lat="44.3828815" lon="11.2353149"><ele>125.0</ele><time>2026-03-28T13:44:38.106Z</time></trkpt><trkpt lat="44.3830258" lon="11.235443"><ele>125.0</ele><time>2026-03-28T13:44:39.078Z</time></trkpt><trkpt lat="44.3831807" lon="11.2355747"><ele>125.0</ele><time>2026-03-28T13:44:40.096Z</time></trkpt><trkpt lat="44.3833342" lon="11.2357001"><ele>125.0</ele><time>2026-03-28T13:44:41.097Z</time></trkpt><trkpt lat="44.3834884" lon="11.235815"><ele>124.66666666666666</ele><time>2026-03-28T13:44:42.098Z</time></trkpt><trkpt lat="44.3836498" lon="11.235927"><ele>124.33333333333334</ele><time>2026-03-28T13:44:43.103Z</time></trkpt><trkpt lat="44.3838155" lon="11.2360338"><ele>124.0</ele><time>2026-03-28T13:44:44.084Z</time></trkpt><trkpt lat="44.3839936" lon="11.2361387"><ele>125.0</ele><time>2026-03-28T13:44:45.096Z</time></trkpt><trkpt lat="44.3841649" lon="11.2362354"><ele>126.0</ele><time>2026-03-28T13:44:46.096Z</time></trkpt><trkpt lat="44.3843308" lon="11.2363267"><ele>127.0</ele><time>2026-03-28T13:44:47.107Z</time></trkpt><trkpt lat="44.3844875" lon="11.2364162"><ele>127.33333333333334</ele><time>2026-03-28T13:44:48.098Z</time></trkpt><trkpt lat="44.3846407" lon="11.2365186"><ele>127.66666666666666</ele><time>2026-03-28T13:44:49.097Z</time></trkpt><trkpt lat="44.384793" lon="11.2366285"><ele>128.0</ele><time>2026-03-28T13:44:50.102Z</time></trkpt><trkpt lat="44.3849386" lon="11.2367457"><ele>128.0</ele><time>2026-03-28T13:44:51.095Z</time></trkpt><trkpt lat="44.3850867" lon="11.2368724"><ele>128.0</ele><time>2026-03-28T13:44:52.104Z</time></trkpt><trkpt lat="44.385232" lon="11.2370045"><ele>128.0</ele><time>2026-03-28T13:44:53.095Z</time></trkpt><trkpt lat="44.3853706" lon="11.2371428"><ele>128.0</ele><time>2026-03-28T13:44:54.092Z</time></trkpt><trkpt lat="44.3855008" lon="11.2372894"><ele>128.0</ele><time>2026-03-28T13:44:55.107Z</time></trkpt><trkpt lat="44.3856237" lon="11.2374413"><ele>128.0</ele><time>2026-03-28T13:44:56.095Z</time></trkpt><trkpt lat="44.3857384" lon="11.2376016"><ele>127.33333333333333</ele><time>2026-03-28T13:44:57.098Z</time></trkpt><trkpt lat="44.3858526" lon="11.237771"><ele>126.66666666666666</ele><time>2026-03-28T13:44:58.096Z</time></trkpt><trkpt lat="44.3859728" lon="11.2379587"><ele>126.0</ele><time>2026-03-28T13:44:59.102Z</time></trkpt><trkpt lat="44.386098" lon="11.2381673"><ele>126.66666666666666</ele><time>2026-03-28T13:45:00.083Z</time></trkpt><trkpt lat="44.3862245" lon="11.2383878"><ele>127.33333333333333</ele><time>2026-03-28T13:45:01.091Z</time></trkpt><trkpt lat="44.3863503" lon="11.2386016"><ele>128.0</ele><time>2026-03-28T13:45:02.119Z</time></trkpt><trkpt lat="44.3864654" lon="11.2387914"><ele>126.66666666666666</ele><time>2026-03-28T13:45:03.11Z</time></trkpt><trkpt lat="44.3865758" lon="11.2389702"><ele>125.33333333333334</ele><time>2026-03-28T13:45:04.126Z</time></trkpt><trkpt lat="44.3866762" lon="11.2391342"><ele>124.0</ele><time>2026-03-28T13:45:05.142Z</time></trkpt><trkpt lat="44.3867651" lon="11.23928"><ele>124.0</ele><time>2026-03-28T13:45:06.084Z</time></trkpt><trkpt lat="44.3868569" lon="11.2394328"><ele>124.0</ele><time>2026-03-28T13:45:07.098Z</time></trkpt><trkpt lat="44.3869413" lon="11.2395961"><ele>124.0</ele><time>2026-03-28T13:45:08.103Z</time></trkpt><trkpt lat="44.3870265" lon="11.2397664"><ele>124.0</ele><time>2026-03-28T13:45:09.092Z</time></trkpt><trkpt lat="44.3871126" lon="11.239954"><ele>134.66666666666669</ele><time>2026-03-28T13:45:10.096Z</time></trkpt><trkpt lat="44.3871933" lon="11.2401547"><ele>145.33333333333334</ele><time>2026-03-28T13:45:11.087Z</time></trkpt><trkpt lat="44.3872654" lon="11.2403816"><ele>156.0</ele><time>2026-03-28T13:45:12.088Z</time></trkpt><trkpt lat="44.3873243" lon="11.2406251"><ele>154.66666666666666</ele><time>2026-03-28T13:45:13.101Z</time></trkpt><trkpt lat="44.3873665" lon="11.2408605"><ele>153.33333333333331</ele><time>2026-03-28T13:45:14.084Z</time></trkpt><trkpt lat="44.3874014" lon="11.2410999"><ele>152.0</ele><time>2026-03-28T13:45:15.094Z</time></trkpt><trkpt lat="44.3874303" lon="11.2413281"><ele>151.25</ele><time>2026-03-28T13:45:16.109Z</time></trkpt><trkpt lat="44.3874527" lon="11.2415336"><ele>150.5</ele><time>2026-03-28T13:45:17.103Z</time></trkpt><trkpt lat="44.3874742" lon="11.2417212"><ele>149.75</ele><time>2026-03-28T13:45:18.107Z</time></trkpt><trkpt lat="44.3874942" lon="11.241888"><ele>149.0</ele><time>2026-03-28T13:45:19.089Z</time></trkpt><trkpt lat="44.3875146" lon="11.2420529"><ele>149.0</ele><time>2026-03-28T13:45:20.098Z</time></trkpt><trkpt lat="44.3875259" lon="11.2422039"><ele>149.0</ele><time>2026-03-28T13:45:21.09Z</time></trkpt><trkpt lat="44.3875292" lon="11.2423533"><ele>149.0</ele><time>2026-03-28T13:45:22.105Z</time></trkpt><trkpt lat="44.3875403" lon="11.2424927"><ele>149.0</ele><time>2026-03-28T13:45:23.089Z</time></trkpt><trkpt lat="44.3875751" lon="11.2426302"><ele>149.0</ele><time>2026-03-28T13:45:24.099Z</time></trkpt><trkpt lat="44.3876403" lon="11.2427657"><ele>141.66666666666666</ele><time>2026-03-28T13:45:25.109Z</time></trkpt><trkpt lat="44.3877284" lon="11.2429061"><ele>134.33333333333334</ele><time>2026-03-28T13:45:26.095Z</time></trkpt><trkpt lat="44.3878391" lon="11.2430588"><ele>127.0</ele><time>2026-03-28T13:45:27.097Z</time></trkpt><trkpt lat="44.3879586" lon="11.243216"><ele>141.33333333333334</ele><time>2026-03-28T13:45:28.087Z</time></trkpt><trkpt lat="44.3880813" lon="11.243382"><ele>155.66666666666666</ele><time>2026-03-28T13:45:29.095Z</time></trkpt><trkpt lat="44.3881594" lon="11.2435583"><ele>170.0</ele><time>2026-03-28T13:45:30.097Z</time></trkpt><trkpt lat="44.3882453" lon="11.243705"><ele>170.0</ele><time>2026-03-28T13:45:31.108Z</time></trkpt><trkpt lat="44.388333" lon="11.2438206"><ele>170.0</ele><time>2026-03-28T13:45:32.099Z</time></trkpt><trkpt lat="44.3884286" lon="11.2439232"><ele>170.0</ele><time>2026-03-28T13:45:33.093Z</time></trkpt><trkpt lat="44.388533" lon="11.2440171"><ele>170.0</ele><time>2026-03-28T13:45:34.106Z</time></trkpt><trkpt lat="44.3886375" lon="11.2440988"><ele>163.75</ele><time>2026-03-28T13:45:35.084Z</time></trkpt><trkpt lat="44.3887571" lon="11.2441741"><ele>157.5</ele><time>2026-03-28T13:45:36.104Z</time></trkpt><trkpt lat="44.3888658" lon="11.2442521"><ele>151.25</ele><time>2026-03-28T13:45:37.101Z</time></trkpt><trkpt lat="44.3889641" lon="11.2443529"><ele>145.0</ele><time>2026-03-28T13:45:38.104Z</time></trkpt><trkpt lat="44.3890579" lon="11.2444739"><ele>145.0</ele><time>2026-03-28T13:45:39.093Z</time></trkpt><trkpt lat="44.3891573" lon="11.2446199"><ele>145.0</ele><time>2026-03-28T13:45:40.109Z</time></trkpt><trkpt lat="44.3892531" lon="11.2447663"><ele>145.0</ele><time>2026-03-28T13:45:41.101Z</time></trkpt><trkpt lat="44.3893385" lon="11.2449"><ele>145.0</ele><time>2026-03-28T13:45:42.087Z</time></trkpt><trkpt lat="44.3894306" lon="11.2450204"><ele>139.25</ele><time>2026-03-28T13:45:43.102Z</time></trkpt><trkpt lat="44.3895247" lon="11.2451126"><ele>133.5</ele><time>2026-03-28T13:45:44.086Z</time></trkpt><trkpt lat="44.3896422" lon="11.2451986"><ele>127.75</ele><time>2026-03-28T13:45:45.09Z</time></trkpt><trkpt lat="44.3897761" lon="11.2452646"><ele>122.0</ele><time>2026-03-28T13:45:46.101Z</time></trkpt><trkpt lat="44.3899076" lon="11.2453161"><ele>122.0</ele><time>2026-03-28T13:45:47.099Z</time></trkpt><trkpt lat="44.3900397" lon="11.2453719"><ele>122.0</ele><time>2026-03-28T13:45:48.096Z</time></trkpt><trkpt lat="44.3901589" lon="11.245425"><ele>122.0</ele><time>2026-03-28T13:45:49.093Z</time></trkpt><trkpt lat="44.3902634" lon="11.2454698"><ele>122.0</ele><time>2026-03-28T13:45:50.099Z</time></trkpt><trkpt lat="44.39037" lon="11.2455167"><ele>121.99999999999999</ele><time>2026-03-28T13:45:51.112Z</time></trkpt><trkpt lat="44.3904584" lon="11.2455561"><ele>122.0</ele><time>2026-03-28T13:45:52.097Z</time></trkpt><trkpt lat="44.3905307" lon="11.2456018"><ele>122.0</ele><time>2026-03-28T13:45:53.088Z</time></trkpt><trkpt lat="44.3905873" lon="11.2456584"><ele>122.0</ele><time>2026-03-28T13:45:54.082Z</time></trkpt><trkpt lat="44.3906305" lon="11.2457276"><ele>121.99999999999999</ele><time>2026-03-28T13:45:55.093Z</time></trkpt><trkpt lat="44.3906714" lon="11.2459101"><ele>122.0</ele><time>2026-03-28T13:45:57.107Z</time></trkpt><trkpt lat="44.3906639" lon="11.2460357"><ele>122.99999999999999</ele><time>2026-03-28T13:45:58.108Z</time></trkpt><trkpt lat="44.3906726" lon="11.2461553"><ele>124.0</ele><time>2026-03-28T13:45:59.099Z</time></trkpt><trkpt lat="44.3907493" lon="11.246245"><ele>125.0</ele><time>2026-03-28T13:46:00.08Z</time></trkpt><trkpt lat="44.3908475" lon="11.2462996"><ele>126.0</ele><time>2026-03-28T13:46:01.085Z</time></trkpt><trkpt lat="44.3909315" lon="11.2462981"><ele>126.99999999999999</ele><time>2026-03-28T13:46:02.108Z</time></trkpt><trkpt lat="44.3909964" lon="11.2462811"><ele>128.0</ele><time>2026-03-28T13:46:03.088Z</time></trkpt><trkpt lat="44.3910609" lon="11.2462515"><ele>128.0</ele><time>2026-03-28T13:46:04.095Z</time></trkpt><trkpt lat="44.3912444" lon="11.2462197"><ele>128.0</ele><time>2026-03-28T13:46:06.123Z</time></trkpt><trkpt lat="44.3913711" lon="11.2462225"><ele>128.0</ele><time>2026-03-28T13:46:07.082Z</time></trkpt><trkpt lat="44.3915207" lon="11.2462464"><ele>129.0</ele><time>2026-03-28T13:46:08.1Z</time></trkpt><trkpt lat="44.3917343" lon="11.2462598"><ele>130.0</ele><time>2026-03-28T13:46:09.107Z</time></trkpt><trkpt lat="44.3918823" lon="11.2463068"><ele>131.0</ele><time>2026-03-28T13:46:10.091Z</time></trkpt><trkpt lat="44.3920278" lon="11.2463414"><ele>131.0</ele><time>2026-03-28T13:46:11.118Z</time></trkpt><trkpt lat="44.3921845" lon="11.2463899"><ele>131.0</ele><time>2026-03-28T13:46:12.117Z</time></trkpt><trkpt lat="44.392341" lon="11.2464357"><ele>131.0</ele><time>2026-03-28T13:46:13.093Z</time></trkpt><trkpt lat="44.3924933" lon="11.2464883"><ele>130.25</ele><time>2026-03-28T13:46:14.097Z</time></trkpt><trkpt lat="44.3926098" lon="11.2465292"><ele>129.5</ele><time>2026-03-28T13:46:15.085Z</time></trkpt><trkpt lat="44.392721" lon="11.2465685"><ele>128.75</ele><time>2026-03-28T13:46:16.088Z</time></trkpt><trkpt lat="44.3928325" lon="11.2466091"><ele>128.0</ele><time>2026-03-28T13:46:17.106Z</time></trkpt><trkpt lat="44.3929323" lon="11.2466492"><ele>127.5</ele><time>2026-03-28T13:46:18.111Z</time></trkpt><trkpt lat="44.3930349" lon="11.2466928"><ele>127.0</ele><time>2026-03-28T13:46:19.102Z</time></trkpt><trkpt lat="44.3931448" lon="11.2467399"><ele>126.5</ele><time>2026-03-28T13:46:20.107Z</time></trkpt><trkpt lat="44.3932571" lon="11.246796"><ele>126.0</ele><time>2026-03-28T13:46:21.126Z</time></trkpt><trkpt lat="44.3933623" lon="11.2468477"><ele>126.0</ele><time>2026-03-28T13:46:22.124Z</time></trkpt><trkpt lat="44.3934584" lon="11.2468951"><ele>126.0</ele><time>2026-03-28T13:46:23.096Z</time></trkpt><trkpt lat="44.3935549" lon="11.2469425"><ele>126.0</ele><time>2026-03-28T13:46:24.122Z</time></trkpt><trkpt lat="44.3936494" lon="11.2469902"><ele>126.0</ele><time>2026-03-28T13:46:25.081Z</time></trkpt><trkpt lat="44.3937585" lon="11.2470372"><ele>126.0</ele><time>2026-03-28T13:46:26.113Z</time></trkpt><trkpt lat="44.3938681" lon="11.2470862"><ele>125.75</ele><time>2026-03-28T13:46:27.114Z</time></trkpt><trkpt lat="44.3939782" lon="11.2471461"><ele>125.5</ele><time>2026-03-28T13:46:28.118Z</time></trkpt><trkpt lat="44.3940943" lon="11.2472104"><ele>125.25</ele><time>2026-03-28T13:46:29.112Z</time></trkpt><trkpt lat="44.3942166" lon="11.2472732"><ele>125.0</ele><time>2026-03-28T13:46:30.103Z</time></trkpt><trkpt lat="44.3943526" lon="11.247338"><ele>125.0</ele><time>2026-03-28T13:46:31.111Z</time></trkpt><trkpt lat="44.3945011" lon="11.2474143"><ele>125.0</ele><time>2026-03-28T13:46:32.108Z</time></trkpt><trkpt lat="44.3946533" lon="11.2474856"><ele>125.0</ele><time>2026-03-28T13:46:33.093Z</time></trkpt><trkpt lat="44.3947944" lon="11.2475481"><ele>125.33333333333333</ele><time>2026-03-28T13:46:34.109Z</time></trkpt><trkpt lat="44.3949411" lon="11.2476091"><ele>125.66666666666666</ele><time>2026-03-28T13:46:35.108Z</time></trkpt><trkpt lat="44.3950851" lon="11.2476733"><ele>126.0</ele><time>2026-03-28T13:46:36.113Z</time></trkpt><trkpt lat="44.3952318" lon="11.2477449"><ele>126.0</ele><time>2026-03-28T13:46:37.095Z</time></trkpt><trkpt lat="44.3953754" lon="11.2478115"><ele>126.0</ele><time>2026-03-28T13:46:38.112Z</time></trkpt><trkpt lat="44.3954992" lon="11.2478707"><ele>126.0</ele><time>2026-03-28T13:46:39.097Z</time></trkpt><trkpt lat="44.3956204" lon="11.2479228"><ele>126.0</ele><time>2026-03-28T13:46:40.089Z</time></trkpt><trkpt lat="44.3957436" lon="11.2479653"><ele>126.5</ele><time>2026-03-28T13:46:41.108Z</time></trkpt><trkpt lat="44.3958682" lon="11.2479978"><ele>127.0</ele><time>2026-03-28T13:46:42.106Z</time></trkpt><trkpt lat="44.3959917" lon="11.2480213"><ele>127.5</ele><time>2026-03-28T13:46:43.104Z</time></trkpt><trkpt lat="44.3961192" lon="11.2480344"><ele>128.0</ele><time>2026-03-28T13:46:44.091Z</time></trkpt><trkpt lat="44.3962492" lon="11.248045"><ele>128.25</ele><time>2026-03-28T13:46:45.092Z</time></trkpt><trkpt lat="44.3963786" lon="11.2480494"><ele>128.5</ele><time>2026-03-28T13:46:46.095Z</time></trkpt><trkpt lat="44.3965038" lon="11.2480553"><ele>128.75</ele><time>2026-03-28T13:46:47.113Z</time></trkpt><trkpt lat="44.3966204" lon="11.2480581"><ele>129.0</ele><time>2026-03-28T13:46:48.115Z</time></trkpt><trkpt lat="44.3967297" lon="11.248055"><ele>129.0</ele><time>2026-03-28T13:46:49.107Z</time></trkpt><trkpt lat="44.3968363" lon="11.2480567"><ele>129.0</ele><time>2026-03-28T13:46:50.113Z</time></trkpt><trkpt lat="44.3969415" lon="11.2480572"><ele>129.0</ele><time>2026-03-28T13:46:51.109Z</time></trkpt><trkpt lat="44.3970438" lon="11.2480623"><ele>129.0</ele><time>2026-03-28T13:46:52.119Z</time></trkpt><trkpt lat="44.3971439" lon="11.2480662"><ele>129.0</ele><time>2026-03-28T13:46:53.122Z</time></trkpt><trkpt lat="44.3972459" lon="11.248065"><ele>129.25</ele><time>2026-03-28T13:46:54.098Z</time></trkpt><trkpt lat="44.3973599" lon="11.2480631"><ele>129.5</ele><time>2026-03-28T13:46:55.111Z</time></trkpt><trkpt lat="44.3974787" lon="11.2480634"><ele>129.75</ele><time>2026-03-28T13:46:56.118Z</time></trkpt><trkpt lat="44.3975953" lon="11.2480649"><ele>130.0</ele><time>2026-03-28T13:46:57.085Z</time></trkpt><trkpt lat="44.3977093" lon="11.2480673"><ele>130.0</ele><time>2026-03-28T13:46:58.108Z</time></trkpt><trkpt lat="44.3978084" lon="11.2480679"><ele>130.0</ele><time>2026-03-28T13:46:59.093Z</time></trkpt><trkpt lat="44.3979027" lon="11.2480735"><ele>130.0</ele><time>2026-03-28T13:47:00.081Z</time></trkpt><trkpt lat="44.3979931" lon="11.2480784"><ele>130.0</ele><time>2026-03-28T13:47:01.104Z</time></trkpt><trkpt lat="44.3980744" lon="11.2480779"><ele>130.0</ele><time>2026-03-28T13:47:02.13Z</time></trkpt><trkpt lat="44.3981582" lon="11.2480712"><ele>130.0</ele><time>2026-03-28T13:47:03.12Z</time></trkpt><trkpt lat="44.3982566" lon="11.2480679"><ele>130.5</ele><time>2026-03-28T13:47:04.113Z</time></trkpt><trkpt lat="44.3983644" lon="11.2480672"><ele>131.0</ele><time>2026-03-28T13:47:05.102Z</time></trkpt><trkpt lat="44.3984712" lon="11.2480707"><ele>131.5</ele><time>2026-03-28T13:47:06.112Z</time></trkpt><trkpt lat="44.3985993" lon="11.2480817"><ele>132.0</ele><time>2026-03-28T13:47:07.103Z</time></trkpt><trkpt lat="44.398741" lon="11.2480885"><ele>133.0</ele><time>2026-03-28T13:47:08.079Z</time></trkpt><trkpt lat="44.3989044" lon="11.248098"><ele>134.0</ele><time>2026-03-28T13:47:09.104Z</time></trkpt><trkpt lat="44.3990686" lon="11.2481019"><ele>135.0</ele><time>2026-03-28T13:47:10.077Z</time></trkpt><trkpt lat="44.3992711" lon="11.2480982"><ele>135.0</ele><time>2026-03-28T13:47:11.093Z</time></trkpt><trkpt lat="44.3994887" lon="11.2481025"><ele>135.0</ele><time>2026-03-28T13:47:12.106Z</time></trkpt><trkpt lat="44.3996859" lon="11.248114"><ele>135.0</ele><time>2026-03-28T13:47:13.101Z</time></trkpt><trkpt lat="44.3998574" lon="11.2481258"><ele>133.0</ele><time>2026-03-28T13:47:14.085Z</time></trkpt><trkpt lat="44.4000176" lon="11.2481375"><ele>131.0</ele><time>2026-03-28T13:47:15.096Z</time></trkpt><trkpt lat="44.4001698" lon="11.2481496"><ele>129.0</ele><time>2026-03-28T13:47:16.103Z</time></trkpt><trkpt lat="44.4003119" lon="11.2481615"><ele>129.0</ele><time>2026-03-28T13:47:17.103Z</time></trkpt><trkpt lat="44.4004375" lon="11.2481729"><ele>129.0</ele><time>2026-03-28T13:47:18.086Z</time></trkpt><trkpt lat="44.4005684" lon="11.2481829"><ele>129.0</ele><time>2026-03-28T13:47:19.11Z</time></trkpt><trkpt lat="44.4006929" lon="11.2482037"><ele>129.0</ele><time>2026-03-28T13:47:20.1Z</time></trkpt><trkpt lat="44.4008215" lon="11.2482366"><ele>128.75</ele><time>2026-03-28T13:47:21.098Z</time></trkpt><trkpt lat="44.4009513" lon="11.2482732"><ele>128.5</ele><time>2026-03-28T13:47:22.1Z</time></trkpt><trkpt lat="44.4010934" lon="11.2483243"><ele>128.25</ele><time>2026-03-28T13:47:23.104Z</time></trkpt><trkpt lat="44.4012349" lon="11.2483847"><ele>128.0</ele><time>2026-03-28T13:47:24.095Z</time></trkpt><trkpt lat="44.4013774" lon="11.2484543"><ele>129.33333333333331</ele><time>2026-03-28T13:47:25.083Z</time></trkpt><trkpt lat="44.4015227" lon="11.2485374"><ele>130.66666666666666</ele><time>2026-03-28T13:47:26.098Z</time></trkpt><trkpt lat="44.4016614" lon="11.2486266"><ele>132.0</ele><time>2026-03-28T13:47:27.084Z</time></trkpt><trkpt lat="44.4018052" lon="11.2487321"><ele>132.0</ele><time>2026-03-28T13:47:28.112Z</time></trkpt><trkpt lat="44.4019434" lon="11.2488348"><ele>132.0</ele><time>2026-03-28T13:47:29.099Z</time></trkpt><trkpt lat="44.4020846" lon="11.2489402"><ele>132.0</ele><time>2026-03-28T13:47:30.101Z</time></trkpt><trkpt lat="44.4022358" lon="11.2490507"><ele>130.66666666666666</ele><time>2026-03-28T13:47:31.113Z</time></trkpt><trkpt lat="44.4023876" lon="11.2491555"><ele>129.33333333333331</ele><time>2026-03-28T13:47:32.106Z</time></trkpt><trkpt lat="44.4025409" lon="11.2492581"><ele>128.0</ele><time>2026-03-28T13:47:33.102Z</time></trkpt><trkpt lat="44.402695" lon="11.2493612"><ele>128.0</ele><time>2026-03-28T13:47:34.128Z</time></trkpt><trkpt lat="44.4028422" lon="11.2494597"><ele>128.0</ele><time>2026-03-28T13:47:35.082Z</time></trkpt><trkpt lat="44.4029988" lon="11.2495672"><ele>128.0</ele><time>2026-03-28T13:47:36.097Z</time></trkpt><trkpt lat="44.4031561" lon="11.2496779"><ele>128.0</ele><time>2026-03-28T13:47:37.11Z</time></trkpt><trkpt lat="44.4033156" lon="11.2497892"><ele>128.0</ele><time>2026-03-28T13:47:38.127Z</time></trkpt><trkpt lat="44.403455" lon="11.2498858"><ele>128.0</ele><time>2026-03-28T13:47:39.077Z</time></trkpt><trkpt lat="44.4035898" lon="11.2499768"><ele>128.0</ele><time>2026-03-28T13:47:40.107Z</time></trkpt><trkpt lat="44.4037057" lon="11.2500579"><ele>128.0</ele><time>2026-03-28T13:47:41.109Z</time></trkpt><trkpt lat="44.4038094" lon="11.2501306"><ele>128.0</ele><time>2026-03-28T13:47:42.1Z</time></trkpt><trkpt lat="44.4039088" lon="11.2501972"><ele>128.0</ele><time>2026-03-28T13:47:43.11Z</time></trkpt><trkpt lat="44.4040082" lon="11.2502656"><ele>127.75</ele><time>2026-03-28T13:47:44.102Z</time></trkpt><trkpt lat="44.4041165" lon="11.2503398"><ele>127.5</ele><time>2026-03-28T13:47:45.095Z</time></trkpt><trkpt lat="44.4042439" lon="11.2504234"><ele>127.25</ele><time>2026-03-28T13:47:46.102Z</time></trkpt><trkpt lat="44.404381" lon="11.2505179"><ele>127.0</ele><time>2026-03-28T13:47:47.114Z</time></trkpt><trkpt lat="44.4045172" lon="11.2506181"><ele>126.66666666666667</ele><time>2026-03-28T13:47:48.131Z</time></trkpt><trkpt lat="44.4046579" lon="11.2507163"><ele>126.33333333333334</ele><time>2026-03-28T13:47:49.089Z</time></trkpt><trkpt lat="44.4048159" lon="11.2508199"><ele>126.0</ele><time>2026-03-28T13:47:50.115Z</time></trkpt><trkpt lat="44.4049638" lon="11.2509164"><ele>127.0</ele><time>2026-03-28T13:47:51.097Z</time></trkpt><trkpt lat="44.4051273" lon="11.2510305"><ele>128.0</ele><time>2026-03-28T13:47:52.081Z</time></trkpt><trkpt lat="44.4053032" lon="11.2511557"><ele>129.0</ele><time>2026-03-28T13:47:53.114Z</time></trkpt><trkpt lat="44.4054723" lon="11.251274"><ele>129.66666666666666</ele><time>2026-03-28T13:47:54.1Z</time></trkpt><trkpt lat="44.4056399" lon="11.2513924"><ele>130.33333333333331</ele><time>2026-03-28T13:47:55.089Z</time></trkpt><trkpt lat="44.4058097" lon="11.2515156"><ele>131.0</ele><time>2026-03-28T13:47:56.092Z</time></trkpt><trkpt lat="44.4059798" lon="11.2516356"><ele>131.0</ele><time>2026-03-28T13:47:57.095Z</time></trkpt><trkpt lat="44.406154" lon="11.2517537"><ele>131.0</ele><time>2026-03-28T13:47:58.114Z</time></trkpt><trkpt lat="44.4063191" lon="11.2518549"><ele>131.0</ele><time>2026-03-28T13:47:59.095Z</time></trkpt><trkpt lat="44.4064837" lon="11.2519568"><ele>129.66666666666666</ele><time>2026-03-28T13:48:00.082Z</time></trkpt><trkpt lat="44.4066524" lon="11.2520648"><ele>128.33333333333334</ele><time>2026-03-28T13:48:01.099Z</time></trkpt><trkpt lat="44.4068142" lon="11.2521703"><ele>127.0</ele><time>2026-03-28T13:48:02.114Z</time></trkpt><trkpt lat="44.4069686" lon="11.2522744"><ele>125.66666666666667</ele><time>2026-03-28T13:48:03.104Z</time></trkpt><trkpt lat="44.4071263" lon="11.2523753"><ele>124.33333333333334</ele><time>2026-03-28T13:48:04.099Z</time></trkpt><trkpt lat="44.407285" lon="11.2524759"><ele>123.0</ele><time>2026-03-28T13:48:05.105Z</time></trkpt><trkpt lat="44.4074386" lon="11.2525803"><ele>122.66666666666666</ele><time>2026-03-28T13:48:06.083Z</time></trkpt><trkpt lat="44.4075896" lon="11.2526847"><ele>122.33333333333333</ele><time>2026-03-28T13:48:07.1Z</time></trkpt><trkpt lat="44.4077396" lon="11.252793"><ele>122.0</ele><time>2026-03-28T13:48:08.098Z</time></trkpt><trkpt lat="44.4078769" lon="11.2529063"><ele>122.0</ele><time>2026-03-28T13:48:09.099Z</time></trkpt><trkpt lat="44.4079928" lon="11.2530192"><ele>122.0</ele><time>2026-03-28T13:48:10.095Z</time></trkpt><trkpt lat="44.4080924" lon="11.2531417"><ele>122.0</ele><time>2026-03-28T13:48:11.097Z</time></trkpt><trkpt lat="44.4081703" lon="11.2532628"><ele>122.0</ele><time>2026-03-28T13:48:12.107Z</time></trkpt><trkpt lat="44.4082248" lon="11.2533776"><ele>120.8</ele><time>2026-03-28T13:48:13.109Z</time></trkpt><trkpt lat="44.4082703" lon="11.2534655"><ele>119.6</ele><time>2026-03-28T13:48:14.096Z</time></trkpt><trkpt lat="44.4083691" lon="11.2535128"><ele>118.39999999999999</ele><time>2026-03-28T13:48:16.096Z</time></trkpt><trkpt lat="44.4084421" lon="11.2534752"><ele>117.19999999999999</ele><time>2026-03-28T13:48:17.089Z</time></trkpt><trkpt lat="44.4084946" lon="11.2533734"><ele>116.0</ele><time>2026-03-28T13:48:18.119Z</time></trkpt><trkpt lat="44.4085457" lon="11.2532008"><ele>116.5</ele><time>2026-03-28T13:48:19.101Z</time></trkpt><trkpt lat="44.4085811" lon="11.2530073"><ele>117.0</ele><time>2026-03-28T13:48:20.094Z</time></trkpt><trkpt lat="44.4086323" lon="11.2528087"><ele>117.5</ele><time>2026-03-28T13:48:21.094Z</time></trkpt><trkpt lat="44.4087042" lon="11.2526203"><ele>118.0</ele><time>2026-03-28T13:48:22.096Z</time></trkpt><trkpt lat="44.4087941" lon="11.2524421"><ele>119.0</ele><time>2026-03-28T13:48:23.123Z</time></trkpt><trkpt lat="44.4088734" lon="11.2522756"><ele>120.0</ele><time>2026-03-28T13:48:24.108Z</time></trkpt><trkpt lat="44.4089534" lon="11.2521389"><ele>121.0</ele><time>2026-03-28T13:48:25.106Z</time></trkpt><trkpt lat="44.4090296" lon="11.2520181"><ele>122.0</ele><time>2026-03-28T13:48:26.115Z</time></trkpt><trkpt lat="44.4091003" lon="11.2518728"><ele>122.0</ele><time>2026-03-28T13:48:27.125Z</time></trkpt><trkpt lat="44.4091601" lon="11.2517435"><ele>121.99999999999999</ele><time>2026-03-28T13:48:28.101Z</time></trkpt><trkpt lat="44.4092133" lon="11.2516173"><ele>121.99999999999999</ele><time>2026-03-28T13:48:29.105Z</time></trkpt><trkpt lat="44.4092617" lon="11.2514787"><ele>122.0</ele><time>2026-03-28T13:48:30.102Z</time></trkpt><trkpt lat="44.4092886" lon="11.2513486"><ele>122.0</ele><time>2026-03-28T13:48:31.098Z</time></trkpt><trkpt lat="44.4092986" lon="11.2512092"><ele>122.6</ele><time>2026-03-28T13:48:32.1Z</time></trkpt><trkpt lat="44.4092972" lon="11.2511"><ele>123.19999999999999</ele><time>2026-03-28T13:48:33.097Z</time></trkpt><trkpt lat="44.4093023" lon="11.2509542"><ele>123.8</ele><time>2026-03-28T13:48:34.088Z</time></trkpt><trkpt lat="44.4093246" lon="11.2508"><ele>124.4</ele><time>2026-03-28T13:48:35.09Z</time></trkpt><trkpt lat="44.4093544" lon="11.2507066"><ele>125.0</ele><time>2026-03-28T13:48:36.079Z</time></trkpt><trkpt lat="44.4094189" lon="11.2505653"><ele>126.0</ele><time>2026-03-28T13:48:37.086Z</time></trkpt><trkpt lat="44.4094825" lon="11.2504312"><ele>127.0</ele><time>2026-03-28T13:48:38.1Z</time></trkpt><trkpt lat="44.4095398" lon="11.2503188"><ele>128.0</ele><time>2026-03-28T13:48:39.086Z</time></trkpt><trkpt lat="44.4095898" lon="11.2502145"><ele>129.0</ele><time>2026-03-28T13:48:40.098Z</time></trkpt><trkpt lat="44.4096297" lon="11.2501174"><ele>130.0</ele><time>2026-03-28T13:48:41.085Z</time></trkpt><trkpt lat="44.4096667" lon="11.2500075"><ele>130.2</ele><time>2026-03-28T13:48:42.115Z</time></trkpt><trkpt lat="44.4097041" lon="11.2498928"><ele>130.4</ele><time>2026-03-28T13:48:43.104Z</time></trkpt><trkpt lat="44.4097392" lon="11.2497568"><ele>130.6</ele><time>2026-03-28T13:48:44.111Z</time></trkpt><trkpt lat="44.4097548" lon="11.2496053"><ele>130.8</ele><time>2026-03-28T13:48:45.093Z</time></trkpt><trkpt lat="44.4097254" lon="11.2494293"><ele>131.0</ele><time>2026-03-28T13:48:46.077Z</time></trkpt><trkpt lat="44.4096786" lon="11.2492085"><ele>132.0</ele><time>2026-03-28T13:48:47.092Z</time></trkpt><trkpt lat="44.409623" lon="11.2489799"><ele>133.0</ele><time>2026-03-28T13:48:48.094Z</time></trkpt><trkpt lat="44.4095779" lon="11.2487453"><ele>134.0</ele><time>2026-03-28T13:48:49.087Z</time></trkpt><trkpt lat="44.4095317" lon="11.2485118"><ele>132.33333333333331</ele><time>2026-03-28T13:48:50.072Z</time></trkpt><trkpt lat="44.4094902" lon="11.2482603"><ele>130.66666666666666</ele><time>2026-03-28T13:48:51.089Z</time></trkpt><trkpt lat="44.4094609" lon="11.2480108"><ele>129.0</ele><time>2026-03-28T13:48:52.105Z</time></trkpt><trkpt lat="44.4094403" lon="11.2478014"><ele>129.0</ele><time>2026-03-28T13:48:53.091Z</time></trkpt><trkpt lat="44.4094298" lon="11.2476169"><ele>129.0</ele><time>2026-03-28T13:48:54.104Z</time></trkpt><trkpt lat="44.4094521" lon="11.2474592"><ele>129.0</ele><time>2026-03-28T13:48:55.088Z</time></trkpt><trkpt lat="44.4095044" lon="11.2472941"><ele>129.0</ele><time>2026-03-28T13:48:56.116Z</time></trkpt><trkpt lat="44.4095796" lon="11.2471483"><ele>130.0</ele><time>2026-03-28T13:48:57.105Z</time></trkpt><trkpt lat="44.4096373" lon="11.2469925"><ele>131.0</ele><time>2026-03-28T13:48:58.088Z</time></trkpt><trkpt lat="44.4096677" lon="11.2468375"><ele>132.0</ele><time>2026-03-28T13:48:59.089Z</time></trkpt><trkpt lat="44.40966" lon="11.2466781"><ele>133.0</ele><time>2026-03-28T13:49:00.076Z</time></trkpt><trkpt lat="44.4096213" lon="11.2465101"><ele>132.75</ele><time>2026-03-28T13:49:01.1Z</time></trkpt><trkpt lat="44.4095483" lon="11.2463559"><ele>132.5</ele><time>2026-03-28T13:49:02.097Z</time></trkpt><trkpt lat="44.4094406" lon="11.2462248"><ele>132.25</ele><time>2026-03-28T13:49:03.108Z</time></trkpt><trkpt lat="44.4093161" lon="11.2461229"><ele>132.0</ele><time>2026-03-28T13:49:04.081Z</time></trkpt><trkpt lat="44.4091913" lon="11.2460378"><ele>132.0</ele><time>2026-03-28T13:49:05.1Z</time></trkpt><trkpt lat="44.4090874" lon="11.2459579"><ele>132.0</ele><time>2026-03-28T13:49:06.097Z</time></trkpt><trkpt lat="44.409011" lon="11.2458582"><ele>132.0</ele><time>2026-03-28T13:49:07.094Z</time></trkpt><trkpt lat="44.4089691" lon="11.2457276"><ele>132.0</ele><time>2026-03-28T13:49:08.111Z</time></trkpt><trkpt lat="44.408955" lon="11.2455703"><ele>132.0</ele><time>2026-03-28T13:49:09.104Z</time></trkpt><trkpt lat="44.408977" lon="11.245414"><ele>133.75</ele><time>2026-03-28T13:49:10.097Z</time></trkpt><trkpt lat="44.4090223" lon="11.2452452"><ele>135.5</ele><time>2026-03-28T13:49:11.096Z</time></trkpt><trkpt lat="44.4090729" lon="11.2450738"><ele>137.25</ele><time>2026-03-28T13:49:12.096Z</time></trkpt><trkpt lat="44.4091152" lon="11.2448942"><ele>139.0</ele><time>2026-03-28T13:49:13.096Z</time></trkpt><trkpt lat="44.4091294" lon="11.2447066"><ele>139.0</ele><time>2026-03-28T13:49:14.09Z</time></trkpt><trkpt lat="44.4091095" lon="11.2444863"><ele>139.0</ele><time>2026-03-28T13:49:15.111Z</time></trkpt><trkpt lat="44.4090694" lon="11.2442601"><ele>139.0</ele><time>2026-03-28T13:49:16.088Z</time></trkpt><trkpt lat="44.4090319" lon="11.2440456"><ele>138.75</ele><time>2026-03-28T13:49:17.083Z</time></trkpt><trkpt lat="44.408999" lon="11.2438515"><ele>138.5</ele><time>2026-03-28T13:49:18.084Z</time></trkpt><trkpt lat="44.408991" lon="11.2436744"><ele>138.25</ele><time>2026-03-28T13:49:19.09Z</time></trkpt><trkpt lat="44.4090176" lon="11.2435191"><ele>138.0</ele><time>2026-03-28T13:49:20.091Z</time></trkpt><trkpt lat="44.4090829" lon="11.2433865"><ele>138.0</ele><time>2026-03-28T13:49:21.09Z</time></trkpt><trkpt lat="44.4091779" lon="11.2432619"><ele>138.0</ele><time>2026-03-28T13:49:22.092Z</time></trkpt><trkpt lat="44.4092939" lon="11.2431212"><ele>138.0</ele><time>2026-03-28T13:49:23.085Z</time></trkpt><trkpt lat="44.4094288" lon="11.2429462"><ele>140.66666666666666</ele><time>2026-03-28T13:49:24.084Z</time></trkpt><trkpt lat="44.4095532" lon="11.242763"><ele>143.33333333333331</ele><time>2026-03-28T13:49:25.091Z</time></trkpt><trkpt lat="44.4096605" lon="11.2425929"><ele>146.0</ele><time>2026-03-28T13:49:26.105Z</time></trkpt><trkpt lat="44.4097454" lon="11.2424512"><ele>146.25</ele><time>2026-03-28T13:49:27.097Z</time></trkpt><trkpt lat="44.4097991" lon="11.2423268"><ele>146.5</ele><time>2026-03-28T13:49:28.094Z</time></trkpt><trkpt lat="44.4098279" lon="11.2421852"><ele>146.75</ele><time>2026-03-28T13:49:29.086Z</time></trkpt><trkpt lat="44.4098277" lon="11.2420054"><ele>147.0</ele><time>2026-03-28T13:49:30.098Z</time></trkpt><trkpt lat="44.4098072" lon="11.2418028"><ele>146.5</ele><time>2026-03-28T13:49:31.108Z</time></trkpt><trkpt lat="44.4097887" lon="11.2416086"><ele>146.0</ele><time>2026-03-28T13:49:32.106Z</time></trkpt><trkpt lat="44.4097921" lon="11.2414101"><ele>145.5</ele><time>2026-03-28T13:49:33.105Z</time></trkpt><trkpt lat="44.4098277" lon="11.241242"><ele>145.0</ele><time>2026-03-28T13:49:34.101Z</time></trkpt><trkpt lat="44.4098841" lon="11.2410605"><ele>145.0</ele><time>2026-03-28T13:49:35.096Z</time></trkpt><trkpt lat="44.4099639" lon="11.2408878"><ele>145.0</ele><time>2026-03-28T13:49:36.094Z</time></trkpt><trkpt lat="44.410071" lon="11.2407131"><ele>145.0</ele><time>2026-03-28T13:49:37.089Z</time></trkpt><trkpt lat="44.4101941" lon="11.2405501"><ele>148.25</ele><time>2026-03-28T13:49:38.082Z</time></trkpt><trkpt lat="44.4103127" lon="11.2404057"><ele>151.5</ele><time>2026-03-28T13:49:39.106Z</time></trkpt><trkpt lat="44.4104084" lon="11.2402698"><ele>154.75</ele><time>2026-03-28T13:49:40.104Z</time></trkpt><trkpt lat="44.4104858" lon="11.2401241"><ele>158.0</ele><time>2026-03-28T13:49:41.101Z</time></trkpt><trkpt lat="44.4105285" lon="11.2399565"><ele>157.0</ele><time>2026-03-28T13:49:42.09Z</time></trkpt><trkpt lat="44.4105574" lon="11.2397493"><ele>156.0</ele><time>2026-03-28T13:49:43.099Z</time></trkpt><trkpt lat="44.4105802" lon="11.2395064"><ele>155.0</ele><time>2026-03-28T13:49:44.107Z</time></trkpt><trkpt lat="44.410605" lon="11.2392653"><ele>155.0</ele><time>2026-03-28T13:49:45.106Z</time></trkpt><trkpt lat="44.410635" lon="11.2390329"><ele>155.0</ele><time>2026-03-28T13:49:46.098Z</time></trkpt><trkpt lat="44.4106736" lon="11.2388113"><ele>155.0</ele><time>2026-03-28T13:49:47.094Z</time></trkpt><trkpt lat="44.4107151" lon="11.238601"><ele>155.5</ele><time>2026-03-28T13:49:48.097Z</time></trkpt><trkpt lat="44.4107531" lon="11.2384097"><ele>156.0</ele><time>2026-03-28T13:49:49.108Z</time></trkpt><trkpt lat="44.4107839" lon="11.2382432"><ele>156.5</ele><time>2026-03-28T13:49:50.1Z</time></trkpt><trkpt lat="44.4108138" lon="11.2380973"><ele>157.0</ele><time>2026-03-28T13:49:51.102Z</time></trkpt><trkpt lat="44.4108221" lon="11.2379643"><ele>157.75</ele><time>2026-03-28T13:49:52.087Z</time></trkpt><trkpt lat="44.4107938" lon="11.2378386"><ele>158.5</ele><time>2026-03-28T13:49:53.107Z</time></trkpt><trkpt lat="44.4107574" lon="11.2376904"><ele>159.25</ele><time>2026-03-28T13:49:54.096Z</time></trkpt><trkpt lat="44.410727" lon="11.2375198"><ele>160.0</ele><time>2026-03-28T13:49:55.098Z</time></trkpt><trkpt lat="44.4107113" lon="11.2373268"><ele>161.66666666666669</ele><time>2026-03-28T13:49:56.094Z</time></trkpt><trkpt lat="44.410714" lon="11.2371081"><ele>163.33333333333334</ele><time>2026-03-28T13:49:57.099Z</time></trkpt><trkpt lat="44.4107367" lon="11.2368833"><ele>165.0</ele><time>2026-03-28T13:49:58.092Z</time></trkpt><trkpt lat="44.41077" lon="11.2366795"><ele>165.0</ele><time>2026-03-28T13:49:59.093Z</time></trkpt><trkpt lat="44.4107894" lon="11.2365002"><ele>165.0</ele><time>2026-03-28T13:50:00.086Z</time></trkpt><trkpt lat="44.4107861" lon="11.2363133"><ele>165.0</ele><time>2026-03-28T13:50:01.098Z</time></trkpt><trkpt lat="44.410762" lon="11.2361153"><ele>165.0</ele><time>2026-03-28T13:50:02.093Z</time></trkpt><trkpt lat="44.4107302" lon="11.2359261"><ele>165.5</ele><time>2026-03-28T13:50:03.096Z</time></trkpt><trkpt lat="44.4107107" lon="11.235732"><ele>166.0</ele><time>2026-03-28T13:50:04.086Z</time></trkpt><trkpt lat="44.4107039" lon="11.2355455"><ele>166.5</ele><time>2026-03-28T13:50:05.1Z</time></trkpt><trkpt lat="44.4107086" lon="11.2353806"><ele>167.0</ele><time>2026-03-28T13:50:06.1Z</time></trkpt><trkpt lat="44.410721" lon="11.2352221"><ele>167.0</ele><time>2026-03-28T13:50:07.094Z</time></trkpt><trkpt lat="44.4107521" lon="11.2350729"><ele>167.0</ele><time>2026-03-28T13:50:08.088Z</time></trkpt><trkpt lat="44.410801" lon="11.23491"><ele>167.0</ele><time>2026-03-28T13:50:09.106Z</time></trkpt><trkpt lat="44.4108334" lon="11.2347454"><ele>167.0</ele><time>2026-03-28T13:50:10.089Z</time></trkpt><trkpt lat="44.4108411" lon="11.2345467"><ele>167.0</ele><time>2026-03-28T13:50:11.074Z</time></trkpt><trkpt lat="44.4108153" lon="11.2343178"><ele>167.0</ele><time>2026-03-28T13:50:12.081Z</time></trkpt><trkpt lat="44.4107809" lon="11.2340861"><ele>167.0</ele><time>2026-03-28T13:50:13.083Z</time></trkpt><trkpt lat="44.4107424" lon="11.2338474"><ele>167.0</ele><time>2026-03-28T13:50:14.097Z</time></trkpt><trkpt lat="44.4107078" lon="11.2336284"><ele>167.0</ele><time>2026-03-28T13:50:15.112Z</time></trkpt><trkpt lat="44.4106943" lon="11.2334313"><ele>167.0</ele><time>2026-03-28T13:50:16.11Z</time></trkpt><trkpt lat="44.4106916" lon="11.233259"><ele>167.0</ele><time>2026-03-28T13:50:17.078Z</time></trkpt><trkpt lat="44.4107367" lon="11.2330963"><ele>168.5</ele><time>2026-03-28T13:50:18.094Z</time></trkpt><trkpt lat="44.4107959" lon="11.2329534"><ele>170.0</ele><time>2026-03-28T13:50:19.093Z</time></trkpt><trkpt lat="44.410888" lon="11.2328283"><ele>171.5</ele><time>2026-03-28T13:50:20.101Z</time></trkpt><trkpt lat="44.4109904" lon="11.2327137"><ele>173.0</ele><time>2026-03-28T13:50:21.112Z</time></trkpt><trkpt lat="44.4110781" lon="11.2325902"><ele>173.0</ele><time>2026-03-28T13:50:22.102Z</time></trkpt><trkpt lat="44.4111378" lon="11.2324432"><ele>173.0</ele><time>2026-03-28T13:50:23.106Z</time></trkpt><trkpt lat="44.4111677" lon="11.2322689"><ele>173.0</ele><time>2026-03-28T13:50:24.105Z</time></trkpt><trkpt lat="44.4111506" lon="11.2320718"><ele>173.0</ele><time>2026-03-28T13:50:25.102Z</time></trkpt><trkpt lat="44.4111001" lon="11.2318627"><ele>174.5</ele><time>2026-03-28T13:50:26.105Z</time></trkpt><trkpt lat="44.4110446" lon="11.2316713"><ele>176.0</ele><time>2026-03-28T13:50:27.099Z</time></trkpt><trkpt lat="44.4110044" lon="11.2314963"><ele>177.5</ele><time>2026-03-28T13:50:28.089Z</time></trkpt><trkpt lat="44.4109989" lon="11.2313341"><ele>179.0</ele><time>2026-03-28T13:50:29.09Z</time></trkpt><trkpt lat="44.4110302" lon="11.2311743"><ele>181.0</ele><time>2026-03-28T13:50:30.09Z</time></trkpt><trkpt lat="44.4110918" lon="11.2310314"><ele>183.0</ele><time>2026-03-28T13:50:31.108Z</time></trkpt><trkpt lat="44.4111694" lon="11.2308958"><ele>185.0</ele><time>2026-03-28T13:50:32.091Z</time></trkpt><trkpt lat="44.4112434" lon="11.230753"><ele>187.0</ele><time>2026-03-28T13:50:33.086Z</time></trkpt><trkpt lat="44.4112974" lon="11.23059"><ele>187.5</ele><time>2026-03-28T13:50:34.097Z</time></trkpt><trkpt lat="44.4113296" lon="11.230398"><ele>188.0</ele><time>2026-03-28T13:50:35.105Z</time></trkpt><trkpt lat="44.4113266" lon="11.2302069"><ele>188.5</ele><time>2026-03-28T13:50:36.078Z</time></trkpt><trkpt lat="44.4112978" lon="11.2300167"><ele>189.0</ele><time>2026-03-28T13:50:37.095Z</time></trkpt><trkpt lat="44.4112606" lon="11.2298545"><ele>188.39999999999998</ele><time>2026-03-28T13:50:38.117Z</time></trkpt><trkpt lat="44.411245" lon="11.2297247"><ele>187.8</ele><time>2026-03-28T13:50:39.089Z</time></trkpt><trkpt lat="44.4112541" lon="11.2295981"><ele>187.2</ele><time>2026-03-28T13:50:40.096Z</time></trkpt><trkpt lat="44.4112924" lon="11.2294884"><ele>186.60000000000002</ele><time>2026-03-28T13:50:41.094Z</time></trkpt><trkpt lat="44.4113685" lon="11.2293905"><ele>186.0</ele><time>2026-03-28T13:50:42.077Z</time></trkpt><trkpt lat="44.4114911" lon="11.2293028"><ele>186.0</ele><time>2026-03-28T13:50:43.097Z</time></trkpt><trkpt lat="44.4116026" lon="11.2292266"><ele>186.0</ele><time>2026-03-28T13:50:44.088Z</time></trkpt><trkpt lat="44.4117024" lon="11.229136"><ele>186.0</ele><time>2026-03-28T13:50:45.094Z</time></trkpt><trkpt lat="44.4117722" lon="11.2290082"><ele>186.0</ele><time>2026-03-28T13:50:46.089Z</time></trkpt><trkpt lat="44.4118187" lon="11.22884"><ele>185.0</ele><time>2026-03-28T13:50:47.095Z</time></trkpt><trkpt lat="44.4118634" lon="11.228627"><ele>184.0</ele><time>2026-03-28T13:50:48.118Z</time></trkpt><trkpt lat="44.4118938" lon="11.2284187"><ele>183.0</ele><time>2026-03-28T13:50:49.107Z</time></trkpt><trkpt lat="44.4119206" lon="11.228226"><ele>183.2</ele><time>2026-03-28T13:50:50.113Z</time></trkpt><trkpt lat="44.4119446" lon="11.2280621"><ele>183.4</ele><time>2026-03-28T13:50:51.112Z</time></trkpt><trkpt lat="44.4119842" lon="11.2279108"><ele>183.6</ele><time>2026-03-28T13:50:52.1Z</time></trkpt><trkpt lat="44.412032" lon="11.2277917"><ele>183.79999999999998</ele><time>2026-03-28T13:50:53.086Z</time></trkpt><trkpt lat="44.4120924" lon="11.2276929"><ele>184.0</ele><time>2026-03-28T13:50:54.096Z</time></trkpt><trkpt lat="44.4121505" lon="11.2276202"><ele>184.66666666666669</ele><time>2026-03-28T13:50:55.093Z</time></trkpt><trkpt lat="44.412204" lon="11.2275559"><ele>185.33333333333334</ele><time>2026-03-28T13:50:56.093Z</time></trkpt><trkpt lat="44.4122599" lon="11.2274533"><ele>186.0</ele><time>2026-03-28T13:50:57.093Z</time></trkpt><trkpt lat="44.412278" lon="11.2273506"><ele>186.66666666666666</ele><time>2026-03-28T13:50:58.093Z</time></trkpt><trkpt lat="44.4122604" lon="11.2272355"><ele>187.33333333333331</ele><time>2026-03-28T13:50:59.102Z</time></trkpt><trkpt lat="44.4122158" lon="11.2270833"><ele>188.0</ele><time>2026-03-28T13:51:00.096Z</time></trkpt><trkpt lat="44.4121491" lon="11.2269374"><ele>188.0</ele><time>2026-03-28T13:51:01.12Z</time></trkpt><trkpt lat="44.4120867" lon="11.2267839"><ele>188.0</ele><time>2026-03-28T13:51:02.098Z</time></trkpt><trkpt lat="44.4120377" lon="11.2266271"><ele>188.0</ele><time>2026-03-28T13:51:03.091Z</time></trkpt><trkpt lat="44.4120059" lon="11.2264719"><ele>188.0</ele><time>2026-03-28T13:51:04.097Z</time></trkpt><trkpt lat="44.4119951" lon="11.2263314"><ele>189.60000000000002</ele><time>2026-03-28T13:51:05.11Z</time></trkpt><trkpt lat="44.412004" lon="11.2262161"><ele>191.20000000000002</ele><time>2026-03-28T13:51:06.107Z</time></trkpt><trkpt lat="44.4120109" lon="11.2260945"><ele>192.8</ele><time>2026-03-28T13:51:07.078Z</time></trkpt><trkpt lat="44.4120067" lon="11.2259556"><ele>194.4</ele><time>2026-03-28T13:51:08.085Z</time></trkpt><trkpt lat="44.4119764" lon="11.2257952"><ele>196.0</ele><time>2026-03-28T13:51:09.104Z</time></trkpt><trkpt lat="44.4119309" lon="11.2256358"><ele>197.5</ele><time>2026-03-28T13:51:10.109Z</time></trkpt><trkpt lat="44.4118843" lon="11.2254869"><ele>199.0</ele><time>2026-03-28T13:51:11.085Z</time></trkpt><trkpt lat="44.4118523" lon="11.2253338"><ele>200.5</ele><time>2026-03-28T13:51:12.116Z</time></trkpt><trkpt lat="44.4118436" lon="11.2251687"><ele>202.0</ele><time>2026-03-28T13:51:13.13Z</time></trkpt><trkpt lat="44.4118642" lon="11.2249739"><ele>202.0</ele><time>2026-03-28T13:51:14.095Z</time></trkpt><trkpt lat="44.4119084" lon="11.2248203"><ele>202.0</ele><time>2026-03-28T13:51:15.12Z</time></trkpt><trkpt lat="44.4119746" lon="11.2247016"><ele>202.0</ele><time>2026-03-28T13:51:16.08Z</time></trkpt><trkpt lat="44.4120474" lon="11.2245899"><ele>202.0</ele><time>2026-03-28T13:51:17.11Z</time></trkpt><trkpt lat="44.412106" lon="11.2245171"><ele>202.0</ele><time>2026-03-28T13:51:18.109Z</time></trkpt><trkpt lat="44.4121949" lon="11.2245451"><ele>206.2</ele><time>2026-03-28T13:51:20.1Z</time></trkpt><trkpt lat="44.4122256" lon="11.2246438"><ele>210.39999999999998</ele><time>2026-03-28T13:51:21.093Z</time></trkpt><trkpt lat="44.4122252" lon="11.2247962"><ele>214.60000000000002</ele><time>2026-03-28T13:51:22.095Z</time></trkpt><trkpt lat="44.4122115" lon="11.2249639"><ele>218.8</ele><time>2026-03-28T13:51:23.086Z</time></trkpt><trkpt lat="44.4121896" lon="11.2251225"><ele>223.0</ele><time>2026-03-28T13:51:24.11Z</time></trkpt><trkpt lat="44.4121703" lon="11.2252713"><ele>226.5</ele><time>2026-03-28T13:51:25.108Z</time></trkpt><trkpt lat="44.4121927" lon="11.2254122"><ele>230.0</ele><time>2026-03-28T13:51:26.099Z</time></trkpt><trkpt lat="44.412248" lon="11.2255604"><ele>233.5</ele><time>2026-03-28T13:51:27.089Z</time></trkpt><trkpt lat="44.4123098" lon="11.2257174"><ele>237.0</ele><time>2026-03-28T13:51:28.113Z</time></trkpt><trkpt lat="44.4123548" lon="11.2258726"><ele>237.0</ele><time>2026-03-28T13:51:29.116Z</time></trkpt><trkpt lat="44.4123499" lon="11.2260248"><ele>237.0</ele><time>2026-03-28T13:51:30.102Z</time></trkpt><trkpt lat="44.4123238" lon="11.2261543"><ele>237.0</ele><time>2026-03-28T13:51:31.12Z</time></trkpt><trkpt lat="44.4123091" lon="11.2262602"><ele>237.0</ele><time>2026-03-28T13:51:32.112Z</time></trkpt><trkpt lat="44.4123532" lon="11.226384"><ele>237.0</ele><time>2026-03-28T13:51:34.116Z</time></trkpt><trkpt lat="44.4124012" lon="11.2262635"><ele>237.0</ele><time>2026-03-28T13:51:36.107Z</time></trkpt><trkpt lat="44.4123688" lon="11.2261719"><ele>237.0</ele><time>2026-03-28T13:51:37.076Z</time></trkpt><trkpt lat="44.412321" lon="11.2260804"><ele>237.0</ele><time>2026-03-28T13:51:38.096Z</time></trkpt><trkpt lat="44.4122859" lon="11.2259776"><ele>237.0</ele><time>2026-03-28T13:51:39.093Z</time></trkpt><trkpt lat="44.4122241" lon="11.2258935"><ele>237.0</ele><time>2026-03-28T13:51:40.089Z</time></trkpt><trkpt lat="44.412397" lon="11.2252472"><ele>237.2</ele><time>2026-03-28T13:51:41.088Z</time></trkpt><trkpt lat="44.4123715" lon="11.2251077"><ele>237.39999999999998</ele><time>2026-03-28T13:51:42.107Z</time></trkpt><trkpt lat="44.4123685" lon="11.2249669"><ele>237.60000000000002</ele><time>2026-03-28T13:51:43.091Z</time></trkpt><trkpt lat="44.4123972" lon="11.2248337"><ele>237.8</ele><time>2026-03-28T13:51:44.084Z</time></trkpt><trkpt lat="44.4124429" lon="11.2247056"><ele>238.0</ele><time>2026-03-28T13:51:45.093Z</time></trkpt><trkpt lat="44.4125422" lon="11.2245966"><ele>233.0</ele><time>2026-03-28T13:51:46.106Z</time></trkpt><trkpt lat="44.4126559" lon="11.2245047"><ele>228.0</ele><time>2026-03-28T13:51:47.097Z</time></trkpt><trkpt lat="44.4127984" lon="11.2244268"><ele>223.0</ele><time>2026-03-28T13:51:48.106Z</time></trkpt><trkpt lat="44.412964" lon="11.2243282"><ele>231.66666666666666</ele><time>2026-03-28T13:51:49.086Z</time></trkpt><trkpt lat="44.4131191" lon="11.2242296"><ele>240.33333333333331</ele><time>2026-03-28T13:51:50.105Z</time></trkpt><trkpt lat="44.4132625" lon="11.2241425"><ele>249.0</ele><time>2026-03-28T13:51:51.108Z</time></trkpt><trkpt lat="44.4134063" lon="11.2240682"><ele>249.0</ele><time>2026-03-28T13:51:52.103Z</time></trkpt><trkpt lat="44.4135527" lon="11.223986"><ele>249.0</ele><time>2026-03-28T13:51:53.103Z</time></trkpt><trkpt lat="44.4136802" lon="11.2238784"><ele>249.0</ele><time>2026-03-28T13:51:54.096Z</time></trkpt><trkpt lat="44.4138004" lon="11.2237608"><ele>252.0</ele><time>2026-03-28T13:51:55.105Z</time></trkpt><trkpt lat="44.4139142" lon="11.2236302"><ele>255.0</ele><time>2026-03-28T13:51:56.108Z</time></trkpt><trkpt lat="44.4140106" lon="11.2234917"><ele>258.0</ele><time>2026-03-28T13:51:57.102Z</time></trkpt><trkpt lat="44.41409" lon="11.2233529"><ele>261.0</ele><time>2026-03-28T13:51:58.099Z</time></trkpt><trkpt lat="44.414158" lon="11.2232025"><ele>258.0</ele><time>2026-03-28T13:51:59.109Z</time></trkpt><trkpt lat="44.4142127" lon="11.2230379"><ele>255.0</ele><time>2026-03-28T13:52:00.09Z</time></trkpt><trkpt lat="44.4142517" lon="11.2228662"><ele>252.0</ele><time>2026-03-28T13:52:01.094Z</time></trkpt><trkpt lat="44.4142814" lon="11.2227102"><ele>249.0</ele><time>2026-03-28T13:52:02.094Z</time></trkpt><trkpt lat="44.4143235" lon="11.2225787"><ele>249.0</ele><time>2026-03-28T13:52:03.1Z</time></trkpt><trkpt lat="44.4143902" lon="11.2224789"><ele>248.99999999999997</ele><time>2026-03-28T13:52:04.105Z</time></trkpt><trkpt lat="44.4144689" lon="11.2223779"><ele>248.99999999999997</ele><time>2026-03-28T13:52:05.1Z</time></trkpt><trkpt lat="44.4145526" lon="11.2222632"><ele>249.0</ele><time>2026-03-28T13:52:06.11Z</time></trkpt><trkpt lat="44.4146142" lon="11.2221307"><ele>249.0</ele><time>2026-03-28T13:52:07.11Z</time></trkpt><trkpt lat="44.4146437" lon="11.2219717"><ele>256.5</ele><time>2026-03-28T13:52:08.091Z</time></trkpt><trkpt lat="44.414662" lon="11.2217981"><ele>264.0</ele><time>2026-03-28T13:52:09.094Z</time></trkpt><trkpt lat="44.4146881" lon="11.2216388"><ele>271.5</ele><time>2026-03-28T13:52:10.099Z</time></trkpt><trkpt lat="44.4147364" lon="11.2214934"><ele>279.0</ele><time>2026-03-28T13:52:11.099Z</time></trkpt><trkpt lat="44.4147524" lon="11.2213039"><ele>279.25</ele><time>2026-03-28T13:52:12.105Z</time></trkpt><trkpt lat="44.4147443" lon="11.2210818"><ele>279.5</ele><time>2026-03-28T13:52:13.096Z</time></trkpt><trkpt lat="44.4147202" lon="11.2208721"><ele>279.75</ele><time>2026-03-28T13:52:14.112Z</time></trkpt><trkpt lat="44.4147015" lon="11.2206961"><ele>280.0</ele><time>2026-03-28T13:52:15.103Z</time></trkpt><trkpt lat="44.4146977" lon="11.2205347"><ele>280.0</ele><time>2026-03-28T13:52:16.112Z</time></trkpt><trkpt lat="44.4147152" lon="11.2203639"><ele>280.0</ele><time>2026-03-28T13:52:17.1Z</time></trkpt><trkpt lat="44.4147473" lon="11.2201903"><ele>280.0</ele><time>2026-03-28T13:52:18.102Z</time></trkpt><trkpt lat="44.4147887" lon="11.2200101"><ele>280.0</ele><time>2026-03-28T13:52:19.101Z</time></trkpt><trkpt lat="44.414835" lon="11.2198211"><ele>280.25</ele><time>2026-03-28T13:52:20.092Z</time></trkpt><trkpt lat="44.4148832" lon="11.2196339"><ele>280.5</ele><time>2026-03-28T13:52:21.083Z</time></trkpt><trkpt lat="44.4149323" lon="11.2194543"><ele>280.75</ele><time>2026-03-28T13:52:22.116Z</time></trkpt><trkpt lat="44.4149695" lon="11.219295"><ele>281.0</ele><time>2026-03-28T13:52:23.097Z</time></trkpt><trkpt lat="44.4149781" lon="11.219139"><ele>281.0</ele><time>2026-03-28T13:52:24.097Z</time></trkpt><trkpt lat="44.4149575" lon="11.2190384"><ele>281.0</ele><time>2026-03-28T13:52:25.098Z</time></trkpt><trkpt lat="44.4148719" lon="11.2188994"><ele>281.0</ele><time>2026-03-28T13:52:26.108Z</time></trkpt><trkpt lat="44.4147444" lon="11.2187862"><ele>281.0</ele><time>2026-03-28T13:52:27.1Z</time></trkpt><trkpt lat="44.414616" lon="11.2187125"><ele>282.6</ele><time>2026-03-28T13:52:28.102Z</time></trkpt><trkpt lat="44.4145011" lon="11.2186551"><ele>284.20000000000005</ele><time>2026-03-28T13:52:29.103Z</time></trkpt><trkpt lat="44.4144084" lon="11.2185931"><ele>285.79999999999995</ele><time>2026-03-28T13:52:30.116Z</time></trkpt><trkpt lat="44.4143354" lon="11.2185139"><ele>287.4</ele><time>2026-03-28T13:52:31.092Z</time></trkpt><trkpt lat="44.4142461" lon="11.2184256"><ele>289.0</ele><time>2026-03-28T13:52:32.1Z</time></trkpt><trkpt lat="44.4141498" lon="11.2183581"><ele>289.0</ele><time>2026-03-28T13:52:33.091Z</time></trkpt><trkpt lat="44.4140358" lon="11.2183393"><ele>289.0</ele><time>2026-03-28T13:52:34.105Z</time></trkpt><trkpt lat="44.4138976" lon="11.218379"><ele>289.0</ele><time>2026-03-28T13:52:35.113Z</time></trkpt><trkpt lat="44.413776" lon="11.2184627"><ele>289.0</ele><time>2026-03-28T13:52:36.1Z</time></trkpt><trkpt lat="44.4136683" lon="11.2185667"><ele>288.0</ele><time>2026-03-28T13:52:37.091Z</time></trkpt><trkpt lat="44.4135676" lon="11.2186728"><ele>287.0</ele><time>2026-03-28T13:52:38.108Z</time></trkpt><trkpt lat="44.4135079" lon="11.2186001"><ele>286.0</ele><time>2026-03-28T13:52:42.098Z</time></trkpt><trkpt lat="44.4136078" lon="11.2184701"><ele>285.0</ele><time>2026-03-28T13:52:44.113Z</time></trkpt><trkpt lat="44.4136981" lon="11.218393"><ele>284.0</ele><time>2026-03-28T13:52:45.104Z</time></trkpt><trkpt lat="44.4137965" lon="11.2183039"><ele>285.25</ele><time>2026-03-28T13:52:46.107Z</time></trkpt><trkpt lat="44.4139064" lon="11.2182108"><ele>286.5</ele><time>2026-03-28T13:52:47.098Z</time></trkpt><trkpt lat="44.4140309" lon="11.2181227"><ele>287.75</ele><time>2026-03-28T13:52:48.094Z</time></trkpt><trkpt lat="44.4141533" lon="11.2180134"><ele>289.0</ele><time>2026-03-28T13:52:49.116Z</time></trkpt><trkpt lat="44.4142739" lon="11.217905"><ele>291.0</ele><time>2026-03-28T13:52:50.095Z</time></trkpt><trkpt lat="44.4143658" lon="11.2177909"><ele>293.0</ele><time>2026-03-28T13:52:51.077Z</time></trkpt><trkpt lat="44.4144167" lon="11.2176399"><ele>295.0</ele><time>2026-03-28T13:52:52.118Z</time></trkpt><trkpt lat="44.4143117" lon="11.2176623"><ele>297.0</ele><time>2026-03-28T13:52:53.098Z</time></trkpt><trkpt lat="44.4143178" lon="11.2174921"><ele>300.0</ele><time>2026-03-28T13:52:54.087Z</time></trkpt><trkpt lat="44.4143045" lon="11.2172838"><ele>303.0</ele><time>2026-03-28T13:52:55.125Z</time></trkpt><trkpt lat="44.4142545" lon="11.2171218"><ele>306.0</ele><time>2026-03-28T13:52:56.104Z</time></trkpt><trkpt lat="44.4142403" lon="11.2169567"><ele>309.0</ele><time>2026-03-28T13:52:57.084Z</time></trkpt><trkpt lat="44.4142024" lon="11.2167718"><ele>309.0</ele><time>2026-03-28T13:52:58.111Z</time></trkpt><trkpt lat="44.4141607" lon="11.2166941"><ele>309.0</ele><time>2026-03-28T13:52:59.144Z</time></trkpt><trkpt lat="44.4141048" lon="11.2165687"><ele>309.0</ele><time>2026-03-28T13:53:00.09Z</time></trkpt><trkpt lat="44.4140549" lon="11.2164424"><ele>309.0</ele><time>2026-03-28T13:53:01.099Z</time></trkpt><trkpt lat="44.4140209" lon="11.2163261"><ele>309.0</ele><time>2026-03-28T13:53:02.109Z</time></trkpt><trkpt lat="44.4139808" lon="11.2161883"><ele>311.0</ele><time>2026-03-28T13:53:03.084Z</time></trkpt><trkpt lat="44.4139409" lon="11.2159868"><ele>313.0</ele><time>2026-03-28T13:53:04.107Z</time></trkpt><trkpt lat="44.4139632" lon="11.2158699"><ele>315.0</ele><time>2026-03-28T13:53:05.101Z</time></trkpt><trkpt lat="44.4140237" lon="11.2157716"><ele>317.0</ele><time>2026-03-28T13:53:06.094Z</time></trkpt><trkpt lat="44.4141295" lon="11.2156731"><ele>317.0</ele><time>2026-03-28T13:53:07.095Z</time></trkpt><trkpt lat="44.4142492" lon="11.2155311"><ele>317.0</ele><time>2026-03-28T13:53:08.104Z</time></trkpt><trkpt lat="44.4143708" lon="11.2153293"><ele>317.0</ele><time>2026-03-28T13:53:09.085Z</time></trkpt><trkpt lat="44.4144718" lon="11.2151132"><ele>317.0</ele><time>2026-03-28T13:53:10.098Z</time></trkpt><trkpt lat="44.4145524" lon="11.2149367"><ele>317.0</ele><time>2026-03-28T13:53:11.1Z</time></trkpt><trkpt lat="44.4146288" lon="11.2147977"><ele>317.0</ele><time>2026-03-28T13:53:12.111Z</time></trkpt><trkpt lat="44.4147321" lon="11.2146639"><ele>317.0</ele><time>2026-03-28T13:53:13.107Z</time></trkpt><trkpt lat="44.4148462" lon="11.2145366"><ele>320.0</ele><time>2026-03-28T13:53:14.108Z</time></trkpt><trkpt lat="44.4149803" lon="11.214398"><ele>323.0</ele><time>2026-03-28T13:53:15.11Z</time></trkpt><trkpt lat="44.4151178" lon="11.214238"><ele>326.0</ele><time>2026-03-28T13:53:16.118Z</time></trkpt><trkpt lat="44.4152422" lon="11.214068"><ele>324.6666666666667</ele><time>2026-03-28T13:53:17.101Z</time></trkpt><trkpt lat="44.4153693" lon="11.2138917"><ele>323.3333333333333</ele><time>2026-03-28T13:53:18.097Z</time></trkpt><trkpt lat="44.4154694" lon="11.2137192"><ele>322.0</ele><time>2026-03-28T13:53:19.097Z</time></trkpt><trkpt lat="44.4155459" lon="11.2135482"><ele>325.5</ele><time>2026-03-28T13:53:20.119Z</time></trkpt><trkpt lat="44.4155723" lon="11.2134076"><ele>329.0</ele><time>2026-03-28T13:53:21.094Z</time></trkpt><trkpt lat="44.4156127" lon="11.2132454"><ele>332.5</ele><time>2026-03-28T13:53:22.089Z</time></trkpt><trkpt lat="44.4156396" lon="11.2130763"><ele>336.0</ele><time>2026-03-28T13:53:23.101Z</time></trkpt><trkpt lat="44.4156595" lon="11.2129091"><ele>336.0</ele><time>2026-03-28T13:53:24.446Z</time></trkpt><trkpt lat="44.415734" lon="11.2127859"><ele>336.0</ele><time>2026-03-28T13:53:26.143Z</time></trkpt><trkpt lat="44.4158108" lon="11.2127726"><ele>336.0</ele><time>2026-03-28T13:53:27.145Z</time></trkpt><trkpt lat="44.4159109" lon="11.2127985"><ele>336.0</ele><time>2026-03-28T13:53:28.145Z</time></trkpt><trkpt lat="44.4160251" lon="11.2128442"><ele>336.0</ele><time>2026-03-28T13:53:29.156Z</time></trkpt><trkpt lat="44.4161529" lon="11.2128697"><ele>336.0</ele><time>2026-03-28T13:53:30.157Z</time></trkpt><trkpt lat="44.4162882" lon="11.212859"><ele>336.0</ele><time>2026-03-28T13:53:31.136Z</time></trkpt><trkpt lat="44.4164403" lon="11.2128003"><ele>336.0</ele><time>2026-03-28T13:53:32.158Z</time></trkpt><trkpt lat="44.416574" lon="11.2126857"><ele>339.0</ele><time>2026-03-28T13:53:33.156Z</time></trkpt><trkpt lat="44.4166867" lon="11.2125383"><ele>342.0</ele><time>2026-03-28T13:53:34.145Z</time></trkpt><trkpt lat="44.4168127" lon="11.2123808"><ele>345.0</ele><time>2026-03-28T13:53:35.109Z</time></trkpt><trkpt lat="44.4169574" lon="11.21221"><ele>345.0</ele><time>2026-03-28T13:53:36.104Z</time></trkpt><trkpt lat="44.4171005" lon="11.21204"><ele>345.0</ele><time>2026-03-28T13:53:37.093Z</time></trkpt><trkpt lat="44.4172431" lon="11.2118797"><ele>345.0</ele><time>2026-03-28T13:53:38.101Z</time></trkpt><trkpt lat="44.4173733" lon="11.2117305"><ele>347.0</ele><time>2026-03-28T13:53:39.11Z</time></trkpt><trkpt lat="44.4174806" lon="11.2116017"><ele>349.0</ele><time>2026-03-28T13:53:40.089Z</time></trkpt><trkpt lat="44.4175735" lon="11.2114863"><ele>351.0</ele><time>2026-03-28T13:53:41.095Z</time></trkpt><trkpt lat="44.4176561" lon="11.2113648"><ele>353.0</ele><time>2026-03-28T13:53:42.097Z</time></trkpt><trkpt lat="44.4176966" lon="11.2112567"><ele>354.25</ele><time>2026-03-28T13:53:43.094Z</time></trkpt><trkpt lat="44.4177411" lon="11.2111104"><ele>355.5</ele><time>2026-03-28T13:53:44.112Z</time></trkpt><trkpt lat="44.4177813" lon="11.2109494"><ele>356.75</ele><time>2026-03-28T13:53:45.112Z</time></trkpt><trkpt lat="44.417826" lon="11.2107862"><ele>358.0</ele><time>2026-03-28T13:53:46.089Z</time></trkpt><trkpt lat="44.4178746" lon="11.2106163"><ele>357.59999999999997</ele><time>2026-03-28T13:53:47.104Z</time></trkpt><trkpt lat="44.4179192" lon="11.2104607"><ele>357.2</ele><time>2026-03-28T13:53:48.098Z</time></trkpt><trkpt lat="44.4179695" lon="11.2103259"><ele>356.8</ele><time>2026-03-28T13:53:49.113Z</time></trkpt><trkpt lat="44.4180237" lon="11.2102308"><ele>356.4</ele><time>2026-03-28T13:53:50.122Z</time></trkpt><trkpt lat="44.4180941" lon="11.210151"><ele>356.0</ele><time>2026-03-28T13:53:51.091Z</time></trkpt><trkpt lat="44.4181804" lon="11.210092"><ele>356.0</ele><time>2026-03-28T13:53:52.094Z</time></trkpt><trkpt lat="44.4182812" lon="11.2100182"><ele>356.0</ele><time>2026-03-28T13:53:53.107Z</time></trkpt><trkpt lat="44.4183931" lon="11.2099066"><ele>356.0</ele><time>2026-03-28T13:53:54.11Z</time></trkpt><trkpt lat="44.4185035" lon="11.2097533"><ele>356.0</ele><time>2026-03-28T13:53:55.117Z</time></trkpt><trkpt lat="44.4186058" lon="11.2095819"><ele>362.6666666666667</ele><time>2026-03-28T13:53:56.089Z</time></trkpt><trkpt lat="44.4186783" lon="11.2093873"><ele>369.3333333333333</ele><time>2026-03-28T13:53:57.11Z</time></trkpt><trkpt lat="44.4187227" lon="11.2091816"><ele>376.0</ele><time>2026-03-28T13:53:58.103Z</time></trkpt><trkpt lat="44.4187483" lon="11.2089807"><ele>378.5</ele><time>2026-03-28T13:53:59.095Z</time></trkpt><trkpt lat="44.4187752" lon="11.2088087"><ele>381.0</ele><time>2026-03-28T13:54:00.083Z</time></trkpt><trkpt lat="44.4188224" lon="11.2086549"><ele>383.5</ele><time>2026-03-28T13:54:01.096Z</time></trkpt><trkpt lat="44.4188932" lon="11.2084962"><ele>386.0</ele><time>2026-03-28T13:54:02.087Z</time></trkpt><trkpt lat="44.4189471" lon="11.2083157"><ele>375.5</ele><time>2026-03-28T13:54:03.105Z</time></trkpt><trkpt lat="44.418987" lon="11.2081329"><ele>365.0</ele><time>2026-03-28T13:54:04.102Z</time></trkpt><trkpt lat="44.4190073" lon="11.2079513"><ele>354.5</ele><time>2026-03-28T13:54:05.093Z</time></trkpt><trkpt lat="44.4190103" lon="11.2077597"><ele>344.0</ele><time>2026-03-28T13:54:06.116Z</time></trkpt><trkpt lat="44.4189889" lon="11.2075611"><ele>344.0</ele><time>2026-03-28T13:54:07.104Z</time></trkpt><trkpt lat="44.4189537" lon="11.2073571"><ele>344.0</ele><time>2026-03-28T13:54:08.099Z</time></trkpt><trkpt lat="44.4189174" lon="11.2071675"><ele>344.0</ele><time>2026-03-28T13:54:09.125Z</time></trkpt><trkpt lat="44.4189031" lon="11.2070081"><ele>344.0</ele><time>2026-03-28T13:54:10.096Z</time></trkpt><trkpt lat="44.418922" lon="11.2068376"><ele>343.75</ele><time>2026-03-28T13:54:11.099Z</time></trkpt><trkpt lat="44.4189613" lon="11.2066687"><ele>343.5</ele><time>2026-03-28T13:54:12.114Z</time></trkpt><trkpt lat="44.4189925" lon="11.2065027"><ele>343.25</ele><time>2026-03-28T13:54:13.087Z</time></trkpt><trkpt lat="44.4189809" lon="11.2063369"><ele>343.0</ele><time>2026-03-28T13:54:14.09Z</time></trkpt><trkpt lat="44.4189405" lon="11.206166"><ele>344.0</ele><time>2026-03-28T13:54:15.118Z</time></trkpt><trkpt lat="44.4188819" lon="11.2060099"><ele>345.0</ele><time>2026-03-28T13:54:16.094Z</time></trkpt><trkpt lat="44.4188313" lon="11.2058533"><ele>346.0</ele><time>2026-03-28T13:54:17.088Z</time></trkpt><trkpt lat="44.4188081" lon="11.2056849"><ele>347.0</ele><time>2026-03-28T13:54:18.105Z</time></trkpt><trkpt lat="44.4188044" lon="11.205506"><ele>347.0</ele><time>2026-03-28T13:54:19.096Z</time></trkpt><trkpt lat="44.4187966" lon="11.2053096"><ele>347.0</ele><time>2026-03-28T13:54:20.089Z</time></trkpt><trkpt lat="44.4187824" lon="11.2050808"><ele>347.0</ele><time>2026-03-28T13:54:21.103Z</time></trkpt><trkpt lat="44.4187609" lon="11.2048738"><ele>344.25</ele><time>2026-03-28T13:54:22.099Z</time></trkpt><trkpt lat="44.4187348" lon="11.2046776"><ele>341.5</ele><time>2026-03-28T13:54:23.116Z</time></trkpt><trkpt lat="44.4187232" lon="11.2045031"><ele>338.75</ele><time>2026-03-28T13:54:24.107Z</time></trkpt><trkpt lat="44.4187243" lon="11.2043328"><ele>336.0</ele><time>2026-03-28T13:54:25.116Z</time></trkpt><trkpt lat="44.4187481" lon="11.2041812"><ele>336.0</ele><time>2026-03-28T13:54:26.105Z</time></trkpt><trkpt lat="44.4187944" lon="11.2040157"><ele>336.0</ele><time>2026-03-28T13:54:27.115Z</time></trkpt><trkpt lat="44.4188468" lon="11.2038445"><ele>336.0</ele><time>2026-03-28T13:54:28.463Z</time></trkpt><trkpt lat="44.4188846" lon="11.2036113"><ele>336.0</ele><time>2026-03-28T13:54:30.17Z</time></trkpt><trkpt lat="44.4188558" lon="11.203513"><ele>332.6</ele><time>2026-03-28T13:54:31.157Z</time></trkpt><trkpt lat="44.4187966" lon="11.2034513"><ele>329.20000000000005</ele><time>2026-03-28T13:54:32.167Z</time></trkpt><trkpt lat="44.418716" lon="11.2034357"><ele>325.79999999999995</ele><time>2026-03-28T13:54:33.165Z</time></trkpt><trkpt lat="44.41862" lon="11.2034623"><ele>322.4</ele><time>2026-03-28T13:54:34.154Z</time></trkpt><trkpt lat="44.4185086" lon="11.2035261"><ele>319.0</ele><time>2026-03-28T13:54:35.16Z</time></trkpt><trkpt lat="44.4183901" lon="11.2035896"><ele>319.0</ele><time>2026-03-28T13:54:36.143Z</time></trkpt><trkpt lat="44.418266" lon="11.2036296"><ele>319.0</ele><time>2026-03-28T13:54:37.161Z</time></trkpt><trkpt lat="44.4181456" lon="11.2036439"><ele>319.0</ele><time>2026-03-28T13:54:38.161Z</time></trkpt><trkpt lat="44.4180305" lon="11.2036494"><ele>319.0</ele><time>2026-03-28T13:54:39.167Z</time></trkpt><trkpt lat="44.4179284" lon="11.2036588"><ele>318.8</ele><time>2026-03-28T13:54:40.172Z</time></trkpt><trkpt lat="44.4178438" lon="11.2036893"><ele>318.59999999999997</ele><time>2026-03-28T13:54:41.156Z</time></trkpt><trkpt lat="44.4177689" lon="11.2037498"><ele>318.4</ele><time>2026-03-28T13:54:42.15Z</time></trkpt><trkpt lat="44.417706" lon="11.203839"><ele>318.2</ele><time>2026-03-28T13:54:43.137Z</time></trkpt><trkpt lat="44.4176482" lon="11.2039549"><ele>318.0</ele><time>2026-03-28T13:54:44.166Z</time></trkpt><trkpt lat="44.4175941" lon="11.2040804"><ele>318.0</ele><time>2026-03-28T13:54:45.16Z</time></trkpt><trkpt lat="44.4175437" lon="11.2042058"><ele>318.0</ele><time>2026-03-28T13:54:46.157Z</time></trkpt><trkpt lat="44.4174948" lon="11.2043299"><ele>318.0</ele><time>2026-03-28T13:54:47.158Z</time></trkpt><trkpt lat="44.4174435" lon="11.2044499"><ele>318.0</ele><time>2026-03-28T13:54:48.169Z</time></trkpt><trkpt lat="44.417389" lon="11.2045579"><ele>318.0</ele><time>2026-03-28T13:54:49.159Z</time></trkpt><trkpt lat="44.4173268" lon="11.2046539"><ele>318.0</ele><time>2026-03-28T13:54:50.153Z</time></trkpt><trkpt lat="44.4172568" lon="11.2047361"><ele>318.0</ele><time>2026-03-28T13:54:51.164Z</time></trkpt><trkpt lat="44.4171904" lon="11.2047974"><ele>318.0</ele><time>2026-03-28T13:54:52.155Z</time></trkpt><trkpt lat="44.4171333" lon="11.204839"><ele>318.0</ele><time>2026-03-28T13:54:53.155Z</time></trkpt><trkpt lat="44.4170445" lon="11.2048736"><ele>318.0</ele><time>2026-03-28T13:54:55.148Z</time></trkpt><trkpt lat="44.4169673" lon="11.2048292"><ele>318.0</ele><time>2026-03-28T13:54:57.164Z</time></trkpt><trkpt lat="44.4169365" lon="11.2047183"><ele>318.0</ele><time>2026-03-28T13:54:59.148Z</time></trkpt><trkpt lat="44.4169878" lon="11.2046188"><ele>318.0</ele><time>2026-03-28T13:55:01.155Z</time></trkpt><trkpt lat="44.4170837" lon="11.2045761"><ele>318.0</ele><time>2026-03-28T13:55:03.149Z</time></trkpt><trkpt lat="44.4171931" lon="11.2045094"><ele>318.0</ele><time>2026-03-28T13:55:05.142Z</time></trkpt><trkpt lat="44.417241" lon="11.2044477"><ele>318.0</ele><time>2026-03-28T13:55:06.145Z</time></trkpt><trkpt lat="44.4172699" lon="11.204365"><ele>318.0</ele><time>2026-03-28T13:55:07.178Z</time></trkpt><trkpt lat="44.4172817" lon="11.2042735"><ele>318.0</ele><time>2026-03-28T13:55:08.142Z</time></trkpt><trkpt lat="44.4172809" lon="11.2041682"><ele>318.0</ele><time>2026-03-28T13:55:09.158Z</time></trkpt><trkpt lat="44.4172712" lon="11.2040649"><ele>318.0</ele><time>2026-03-28T13:55:10.153Z</time></trkpt><trkpt lat="44.4172557" lon="11.2039638"><ele>318.0</ele><time>2026-03-28T13:55:11.17Z</time></trkpt><trkpt lat="44.4172356" lon="11.2038632"><ele>318.0</ele><time>2026-03-28T13:55:12.158Z</time></trkpt><trkpt lat="44.4172118" lon="11.2037613"><ele>318.0</ele><time>2026-03-28T13:55:13.16Z</time></trkpt><trkpt lat="44.417191" lon="11.2036629"><ele>318.0</ele><time>2026-03-28T13:55:14.173Z</time></trkpt><trkpt lat="44.4171834" lon="11.2035729"><ele>315.6666666666667</ele><time>2026-03-28T13:55:15.145Z</time></trkpt><trkpt lat="44.4171922" lon="11.2034783"><ele>313.3333333333333</ele><time>2026-03-28T13:55:16.148Z</time></trkpt><trkpt lat="44.4172229" lon="11.2033854"><ele>311.0</ele><time>2026-03-28T13:55:17.15Z</time></trkpt><trkpt lat="44.4172763" lon="11.2032931"><ele>308.66666666666663</ele><time>2026-03-28T13:55:18.176Z</time></trkpt><trkpt lat="44.4173393" lon="11.2032024"><ele>306.3333333333333</ele><time>2026-03-28T13:55:19.154Z</time></trkpt><trkpt lat="44.4174045" lon="11.203113"><ele>304.0</ele><time>2026-03-28T13:55:20.163Z</time></trkpt><trkpt lat="44.4174651" lon="11.2030309"><ele>300.4</ele><time>2026-03-28T13:55:21.147Z</time></trkpt><trkpt lat="44.417523" lon="11.202946"><ele>296.79999999999995</ele><time>2026-03-28T13:55:22.141Z</time></trkpt><trkpt lat="44.4175867" lon="11.2028354"><ele>293.20000000000005</ele><time>2026-03-28T13:55:23.151Z</time></trkpt><trkpt lat="44.4176641" lon="11.2026939"><ele>289.6</ele><time>2026-03-28T13:55:24.158Z</time></trkpt><trkpt lat="44.4177434" lon="11.2025434"><ele>286.0</ele><time>2026-03-28T13:55:25.134Z</time></trkpt><trkpt lat="44.4178369" lon="11.202357"><ele>286.0</ele><time>2026-03-28T13:55:26.163Z</time></trkpt><trkpt lat="44.4179343" lon="11.2021423"><ele>286.0</ele><time>2026-03-28T13:55:27.176Z</time></trkpt><trkpt lat="44.4180254" lon="11.2019297"><ele>286.0</ele><time>2026-03-28T13:55:28.157Z</time></trkpt><trkpt lat="44.4181094" lon="11.2017201"><ele>286.0</ele><time>2026-03-28T13:55:29.146Z</time></trkpt><trkpt lat="44.4181804" lon="11.20152"><ele>286.0</ele><time>2026-03-28T13:55:30.157Z</time></trkpt><trkpt lat="44.4182304" lon="11.201331"><ele>286.0</ele><time>2026-03-28T13:55:31.146Z</time></trkpt><trkpt lat="44.418259" lon="11.2011433"><ele>286.0</ele><time>2026-03-28T13:55:32.148Z</time></trkpt><trkpt lat="44.4182678" lon="11.2009731"><ele>283.75</ele><time>2026-03-28T13:55:33.159Z</time></trkpt><trkpt lat="44.4182803" lon="11.2008354"><ele>281.5</ele><time>2026-03-28T13:55:34.134Z</time></trkpt><trkpt lat="44.4183208" lon="11.2007124"><ele>279.25</ele><time>2026-03-28T13:55:35.138Z</time></trkpt><trkpt lat="44.4183981" lon="11.2005947"><ele>277.0</ele><time>2026-03-28T13:55:36.139Z</time></trkpt><trkpt lat="44.4185179" lon="11.2004663"><ele>276.0</ele><time>2026-03-28T13:55:37.146Z</time></trkpt><trkpt lat="44.418662" lon="11.2003414"><ele>275.0</ele><time>2026-03-28T13:55:38.136Z</time></trkpt><trkpt lat="44.418798" lon="11.200202"><ele>274.0</ele><time>2026-03-28T13:55:39.156Z</time></trkpt><trkpt lat="44.418909" lon="11.2000462"><ele>274.0</ele><time>2026-03-28T13:55:40.163Z</time></trkpt><trkpt lat="44.4189987" lon="11.1998949"><ele>274.0</ele><time>2026-03-28T13:55:41.151Z</time></trkpt><trkpt lat="44.4190634" lon="11.199761"><ele>274.0</ele><time>2026-03-28T13:55:42.149Z</time></trkpt><trkpt lat="44.4191097" lon="11.1996496"><ele>274.0</ele><time>2026-03-28T13:55:43.151Z</time></trkpt><trkpt lat="44.4191318" lon="11.1995498"><ele>274.0</ele><time>2026-03-28T13:55:44.15Z</time></trkpt><trkpt lat="44.4190754" lon="11.1994141"><ele>270.59999999999997</ele><time>2026-03-28T13:55:46.153Z</time></trkpt><trkpt lat="44.4190057" lon="11.1994071"><ele>267.2</ele><time>2026-03-28T13:55:47.155Z</time></trkpt><trkpt lat="44.4189267" lon="11.1994538"><ele>263.79999999999995</ele><time>2026-03-28T13:55:48.158Z</time></trkpt><trkpt lat="44.4188291" lon="11.1995485"><ele>260.4</ele><time>2026-03-28T13:55:49.172Z</time></trkpt><trkpt lat="44.4187248" lon="11.1996405"><ele>257.0</ele><time>2026-03-28T13:55:50.166Z</time></trkpt><trkpt lat="44.4185992" lon="11.1997099"><ele>256.0</ele><time>2026-03-28T13:55:51.167Z</time></trkpt><trkpt lat="44.4184549" lon="11.1997504"><ele>255.0</ele><time>2026-03-28T13:55:52.153Z</time></trkpt><trkpt lat="44.4182959" lon="11.1997657"><ele>254.0</ele><time>2026-03-28T13:55:53.152Z</time></trkpt><trkpt lat="44.4181549" lon="11.1997625"><ele>253.0</ele><time>2026-03-28T13:55:54.149Z</time></trkpt><trkpt lat="44.4180323" lon="11.1997482"><ele>253.2</ele><time>2026-03-28T13:55:55.147Z</time></trkpt><trkpt lat="44.4179339" lon="11.1997062"><ele>253.4</ele><time>2026-03-28T13:55:56.141Z</time></trkpt><trkpt lat="44.4178497" lon="11.1996219"><ele>253.59999999999997</ele><time>2026-03-28T13:55:57.16Z</time></trkpt><trkpt lat="44.4177909" lon="11.199502"><ele>253.79999999999998</ele><time>2026-03-28T13:55:58.144Z</time></trkpt><trkpt lat="44.4177632" lon="11.199361"><ele>254.0</ele><time>2026-03-28T13:55:59.163Z</time></trkpt><trkpt lat="44.4177703" lon="11.1992213"><ele>254.0</ele><time>2026-03-28T13:56:00.148Z</time></trkpt><trkpt lat="44.4178157" lon="11.1990875"><ele>253.99999999999997</ele><time>2026-03-28T13:56:01.166Z</time></trkpt><trkpt lat="44.4178894" lon="11.1989777"><ele>253.99999999999997</ele><time>2026-03-28T13:56:02.163Z</time></trkpt><trkpt lat="44.4179521" lon="11.1988743"><ele>254.0</ele><time>2026-03-28T13:56:03.151Z</time></trkpt><trkpt lat="44.4179821" lon="11.1987454"><ele>254.0</ele><time>2026-03-28T13:56:04.154Z</time></trkpt><trkpt lat="44.4179744" lon="11.1986039"><ele>251.66666666666669</ele><time>2026-03-28T13:56:05.157Z</time></trkpt><trkpt lat="44.4179635" lon="11.1984785"><ele>249.33333333333334</ele><time>2026-03-28T13:56:06.165Z</time></trkpt><trkpt lat="44.41798" lon="11.1983772"><ele>247.0</ele><time>2026-03-28T13:56:07.148Z</time></trkpt><trkpt lat="44.4180262" lon="11.1983026"><ele>244.66666666666669</ele><time>2026-03-28T13:56:08.149Z</time></trkpt><trkpt lat="44.4180959" lon="11.198267"><ele>242.33333333333334</ele><time>2026-03-28T13:56:09.16Z</time></trkpt><trkpt lat="44.4181882" lon="11.1982671"><ele>240.0</ele><time>2026-03-28T13:56:10.18Z</time></trkpt><trkpt lat="44.4182935" lon="11.1982955"><ele>240.0</ele><time>2026-03-28T13:56:11.144Z</time></trkpt><trkpt lat="44.4184127" lon="11.1983481"><ele>240.0</ele><time>2026-03-28T13:56:12.144Z</time></trkpt><trkpt lat="44.4185358" lon="11.1984277"><ele>240.0</ele><time>2026-03-28T13:56:13.148Z</time></trkpt><trkpt lat="44.4186696" lon="11.19853"><ele>240.0</ele><time>2026-03-28T13:56:14.158Z</time></trkpt><trkpt lat="44.4187985" lon="11.1986306"><ele>238.0</ele><time>2026-03-28T13:56:15.16Z</time></trkpt><trkpt lat="44.418923" lon="11.1987198"><ele>236.0</ele><time>2026-03-28T13:56:16.143Z</time></trkpt><trkpt lat="44.4190489" lon="11.1987907"><ele>234.0</ele><time>2026-03-28T13:56:17.153Z</time></trkpt><trkpt lat="44.4191699" lon="11.198835"><ele>232.0</ele><time>2026-03-28T13:56:18.166Z</time></trkpt><trkpt lat="44.4192732" lon="11.1988489"><ele>232.0</ele><time>2026-03-28T13:56:19.146Z</time></trkpt><trkpt lat="44.4193615" lon="11.1988188"><ele>232.0</ele><time>2026-03-28T13:56:20.152Z</time></trkpt><trkpt lat="44.4194289" lon="11.1987454"><ele>232.0</ele><time>2026-03-28T13:56:21.163Z</time></trkpt><trkpt lat="44.4194678" lon="11.1986439"><ele>232.0</ele><time>2026-03-28T13:56:22.142Z</time></trkpt><trkpt lat="44.4194781" lon="11.1985098"><ele>232.0</ele><time>2026-03-28T13:56:23.143Z</time></trkpt><trkpt lat="44.4194562" lon="11.1983447"><ele>229.25</ele><time>2026-03-28T13:56:24.144Z</time></trkpt><trkpt lat="44.4194178" lon="11.1981467"><ele>226.5</ele><time>2026-03-28T13:56:25.157Z</time></trkpt><trkpt lat="44.4193767" lon="11.1979427"><ele>223.75</ele><time>2026-03-28T13:56:26.159Z</time></trkpt><trkpt lat="44.4193295" lon="11.1977413"><ele>221.0</ele><time>2026-03-28T13:56:27.144Z</time></trkpt><trkpt lat="44.4192683" lon="11.1975498"><ele>221.0</ele><time>2026-03-28T13:56:28.136Z</time></trkpt><trkpt lat="44.4191973" lon="11.1973815"><ele>221.00000000000003</ele><time>2026-03-28T13:56:29.139Z</time></trkpt><trkpt lat="44.4191328" lon="11.1972387"><ele>221.00000000000003</ele><time>2026-03-28T13:56:30.151Z</time></trkpt><trkpt lat="44.4190824" lon="11.1971186"><ele>221.0</ele><time>2026-03-28T13:56:31.159Z</time></trkpt><trkpt lat="44.4190585" lon="11.1970255"><ele>221.0</ele><time>2026-03-28T13:56:32.156Z</time></trkpt><trkpt lat="44.4190966" lon="11.1969202"><ele>219.60000000000002</ele><time>2026-03-28T13:56:34.15Z</time></trkpt><trkpt lat="44.4192183" lon="11.1969474"><ele>218.20000000000002</ele><time>2026-03-28T13:56:36.155Z</time></trkpt><trkpt lat="44.4193006" lon="11.1970103"><ele>216.79999999999998</ele><time>2026-03-28T13:56:37.143Z</time></trkpt><trkpt lat="44.4193963" lon="11.1970686"><ele>215.39999999999998</ele><time>2026-03-28T13:56:38.148Z</time></trkpt><trkpt lat="44.4194982" lon="11.1971023"><ele>214.0</ele><time>2026-03-28T13:56:39.145Z</time></trkpt><trkpt lat="44.4195989" lon="11.1971122"><ele>213.83333333333331</ele><time>2026-03-28T13:56:40.157Z</time></trkpt><trkpt lat="44.4196935" lon="11.1971013"><ele>213.66666666666666</ele><time>2026-03-28T13:56:41.146Z</time></trkpt><trkpt lat="44.4197823" lon="11.1970699"><ele>213.5</ele><time>2026-03-28T13:56:42.148Z</time></trkpt><trkpt lat="44.4198577" lon="11.1970082"><ele>213.33333333333331</ele><time>2026-03-28T13:56:43.156Z</time></trkpt><trkpt lat="44.4199079" lon="11.1969142"><ele>213.16666666666666</ele><time>2026-03-28T13:56:44.157Z</time></trkpt><trkpt lat="44.4199295" lon="11.1967928"><ele>213.0</ele><time>2026-03-28T13:56:45.152Z</time></trkpt><trkpt lat="44.4199346" lon="11.1966585"><ele>213.0</ele><time>2026-03-28T13:56:46.153Z</time></trkpt><trkpt lat="44.4199401" lon="11.1965369"><ele>213.0</ele><time>2026-03-28T13:56:47.154Z</time></trkpt><trkpt lat="44.4199586" lon="11.1964368"><ele>213.0</ele><time>2026-03-28T13:56:48.167Z</time></trkpt><trkpt lat="44.4199927" lon="11.1963594"><ele>213.0</ele><time>2026-03-28T13:56:49.157Z</time></trkpt><trkpt lat="44.4200474" lon="11.1963007"><ele>213.0</ele><time>2026-03-28T13:56:50.154Z</time></trkpt><trkpt lat="44.420121" lon="11.1962697"><ele>213.0</ele><time>2026-03-28T13:56:51.145Z</time></trkpt><trkpt lat="44.4202158" lon="11.19627"><ele>215.75</ele><time>2026-03-28T13:56:52.151Z</time></trkpt><trkpt lat="44.4203301" lon="11.1962933"><ele>218.5</ele><time>2026-03-28T13:56:53.163Z</time></trkpt><trkpt lat="44.420448" lon="11.1963211"><ele>221.25</ele><time>2026-03-28T13:56:54.163Z</time></trkpt><trkpt lat="44.4205763" lon="11.1963422"><ele>224.0</ele><time>2026-03-28T13:56:55.169Z</time></trkpt><trkpt lat="44.4207072" lon="11.1963594"><ele>226.25</ele><time>2026-03-28T13:56:56.174Z</time></trkpt><trkpt lat="44.4208255" lon="11.1963845"><ele>228.5</ele><time>2026-03-28T13:56:57.157Z</time></trkpt><trkpt lat="44.4209368" lon="11.1964339"><ele>230.75</ele><time>2026-03-28T13:56:58.162Z</time></trkpt><trkpt lat="44.4210334" lon="11.1965163"><ele>233.0</ele><time>2026-03-28T13:56:59.144Z</time></trkpt><trkpt lat="44.4211219" lon="11.1966322"><ele>227.75</ele><time>2026-03-28T13:57:00.143Z</time></trkpt><trkpt lat="44.4212087" lon="11.1967664"><ele>222.5</ele><time>2026-03-28T13:57:01.149Z</time></trkpt><trkpt lat="44.4212969" lon="11.1969085"><ele>217.25</ele><time>2026-03-28T13:57:02.167Z</time></trkpt><trkpt lat="44.4213728" lon="11.1970591"><ele>212.0</ele><time>2026-03-28T13:57:03.157Z</time></trkpt><trkpt lat="44.4214351" lon="11.1972318"><ele>210.0</ele><time>2026-03-28T13:57:04.183Z</time></trkpt><trkpt lat="44.4214815" lon="11.1974025"><ele>208.0</ele><time>2026-03-28T13:57:05.16Z</time></trkpt><trkpt lat="44.4215212" lon="11.1975686"><ele>206.0</ele><time>2026-03-28T13:57:06.156Z</time></trkpt><trkpt lat="44.4215635" lon="11.1977265"><ele>204.0</ele><time>2026-03-28T13:57:07.167Z</time></trkpt><trkpt lat="44.42161" lon="11.1978639"><ele>204.0</ele><time>2026-03-28T13:57:08.155Z</time></trkpt><trkpt lat="44.4216734" lon="11.1979759"><ele>204.0</ele><time>2026-03-28T13:57:09.147Z</time></trkpt><trkpt lat="44.4217708" lon="11.1980631"><ele>204.0</ele><time>2026-03-28T13:57:10.148Z</time></trkpt><trkpt lat="44.4219095" lon="11.1981228"><ele>204.0</ele><time>2026-03-28T13:57:11.161Z</time></trkpt><trkpt lat="44.422051" lon="11.1981596"><ele>204.0</ele><time>2026-03-28T13:57:12.158Z</time></trkpt><trkpt lat="44.4221839" lon="11.1981805"><ele>204.0</ele><time>2026-03-28T13:57:13.164Z</time></trkpt><trkpt lat="44.4223055" lon="11.1981714"><ele>204.0</ele><time>2026-03-28T13:57:14.153Z</time></trkpt><trkpt lat="44.4224224" lon="11.1981276"><ele>204.0</ele><time>2026-03-28T13:57:15.153Z</time></trkpt><trkpt lat="44.4225425" lon="11.198045"><ele>203.0</ele><time>2026-03-28T13:57:16.157Z</time></trkpt><trkpt lat="44.4226527" lon="11.1979474"><ele>202.0</ele><time>2026-03-28T13:57:17.148Z</time></trkpt><trkpt lat="44.4227627" lon="11.1978356"><ele>201.0</ele><time>2026-03-28T13:57:18.152Z</time></trkpt><trkpt lat="44.4228695" lon="11.1977196"><ele>200.0</ele><time>2026-03-28T13:57:19.143Z</time></trkpt><trkpt lat="44.4229793" lon="11.197595"><ele>199.75</ele><time>2026-03-28T13:57:20.149Z</time></trkpt><trkpt lat="44.4230821" lon="11.1974653"><ele>199.5</ele><time>2026-03-28T13:57:21.169Z</time></trkpt><trkpt lat="44.4231849" lon="11.197344"><ele>199.25</ele><time>2026-03-28T13:57:22.153Z</time></trkpt><trkpt lat="44.423288" lon="11.1972154"><ele>199.0</ele><time>2026-03-28T13:57:23.161Z</time></trkpt><trkpt lat="44.4233958" lon="11.1970879"><ele>199.0</ele><time>2026-03-28T13:57:24.192Z</time></trkpt><trkpt lat="44.4235018" lon="11.1969768"><ele>199.0</ele><time>2026-03-28T13:57:25.159Z</time></trkpt><trkpt lat="44.4236121" lon="11.196881"><ele>199.0</ele><time>2026-03-28T13:57:26.155Z</time></trkpt><trkpt lat="44.423722" lon="11.1968025"><ele>199.0</ele><time>2026-03-28T13:57:27.156Z</time></trkpt><trkpt lat="44.4238336" lon="11.196743"><ele>197.5</ele><time>2026-03-28T13:57:28.143Z</time></trkpt><trkpt lat="44.4239609" lon="11.1967113"><ele>196.0</ele><time>2026-03-28T13:57:29.15Z</time></trkpt><trkpt lat="44.4241009" lon="11.1967119"><ele>194.5</ele><time>2026-03-28T13:57:30.139Z</time></trkpt><trkpt lat="44.4242686" lon="11.1967383"><ele>193.0</ele><time>2026-03-28T13:57:31.169Z</time></trkpt><trkpt lat="44.4244422" lon="11.1967662"><ele>193.0</ele><time>2026-03-28T13:57:32.175Z</time></trkpt><trkpt lat="44.4246085" lon="11.1967871"><ele>193.0</ele><time>2026-03-28T13:57:33.15Z</time></trkpt><trkpt lat="44.4247721" lon="11.1968058"><ele>193.0</ele><time>2026-03-28T13:57:34.156Z</time></trkpt><trkpt lat="44.4249261" lon="11.1968162"><ele>192.75</ele><time>2026-03-28T13:57:35.156Z</time></trkpt><trkpt lat="44.4250732" lon="11.1968157"><ele>192.5</ele><time>2026-03-28T13:57:36.167Z</time></trkpt><trkpt lat="44.4252092" lon="11.1968016"><ele>192.25</ele><time>2026-03-28T13:57:37.163Z</time></trkpt><trkpt lat="44.4253355" lon="11.196775"><ele>192.0</ele><time>2026-03-28T13:57:38.159Z</time></trkpt><trkpt lat="44.42546" lon="11.1967426"><ele>192.25</ele><time>2026-03-28T13:57:39.162Z</time></trkpt><trkpt lat="44.4255859" lon="11.1967152"><ele>192.5</ele><time>2026-03-28T13:57:40.148Z</time></trkpt><trkpt lat="44.4257189" lon="11.1966966"><ele>192.75</ele><time>2026-03-28T13:57:41.148Z</time></trkpt><trkpt lat="44.4258566" lon="11.1966886"><ele>193.0</ele><time>2026-03-28T13:57:42.153Z</time></trkpt><trkpt lat="44.4259948" lon="11.1966861"><ele>193.0</ele><time>2026-03-28T13:57:43.148Z</time></trkpt><trkpt lat="44.4261359" lon="11.1966863"><ele>193.0</ele><time>2026-03-28T13:57:44.154Z</time></trkpt><trkpt lat="44.4262653" lon="11.1966879"><ele>193.0</ele><time>2026-03-28T13:57:45.104Z</time></trkpt><trkpt lat="44.4264069" lon="11.1966907"><ele>193.0</ele><time>2026-03-28T13:57:46.082Z</time></trkpt><trkpt lat="44.4265526" lon="11.196686"><ele>192.0</ele><time>2026-03-28T13:57:47.098Z</time></trkpt><trkpt lat="44.4266877" lon="11.1966735"><ele>191.0</ele><time>2026-03-28T13:57:48.088Z</time></trkpt><trkpt lat="44.4268267" lon="11.1966559"><ele>190.0</ele><time>2026-03-28T13:57:49.095Z</time></trkpt><trkpt lat="44.4269604" lon="11.1966367"><ele>189.0</ele><time>2026-03-28T13:57:50.102Z</time></trkpt><trkpt lat="44.4270925" lon="11.1966201"><ele>188.5</ele><time>2026-03-28T13:57:51.084Z</time></trkpt><trkpt lat="44.427217" lon="11.1966056"><ele>188.0</ele><time>2026-03-28T13:57:52.095Z</time></trkpt><trkpt lat="44.4273381" lon="11.1965901"><ele>187.5</ele><time>2026-03-28T13:57:53.105Z</time></trkpt><trkpt lat="44.4274563" lon="11.1965796"><ele>187.0</ele><time>2026-03-28T13:57:54.094Z</time></trkpt><trkpt lat="44.4275803" lon="11.1965645"><ele>187.0</ele><time>2026-03-28T13:57:55.095Z</time></trkpt><trkpt lat="44.4277032" lon="11.1965434"><ele>187.0</ele><time>2026-03-28T13:57:56.099Z</time></trkpt><trkpt lat="44.4278266" lon="11.1965231"><ele>187.0</ele><time>2026-03-28T13:57:57.114Z</time></trkpt><trkpt lat="44.4279513" lon="11.1965045"><ele>187.0</ele><time>2026-03-28T13:57:58.102Z</time></trkpt><trkpt lat="44.4280843" lon="11.1964835"><ele>186.5</ele><time>2026-03-28T13:57:59.088Z</time></trkpt><trkpt lat="44.4282256" lon="11.1964567"><ele>186.0</ele><time>2026-03-28T13:58:00.091Z</time></trkpt><trkpt lat="44.4283693" lon="11.1964235"><ele>185.5</ele><time>2026-03-28T13:58:01.099Z</time></trkpt><trkpt lat="44.4285072" lon="11.1963829"><ele>185.0</ele><time>2026-03-28T13:58:02.097Z</time></trkpt><trkpt lat="44.4286478" lon="11.1963408"><ele>185.0</ele><time>2026-03-28T13:58:03.096Z</time></trkpt><trkpt lat="44.4287893" lon="11.1963038"><ele>185.0</ele><time>2026-03-28T13:58:04.1Z</time></trkpt><trkpt lat="44.428933" lon="11.1962722"><ele>185.0</ele><time>2026-03-28T13:58:05.097Z</time></trkpt><trkpt lat="44.4290862" lon="11.1962459"><ele>185.0</ele><time>2026-03-28T13:58:06.102Z</time></trkpt><trkpt lat="44.4292407" lon="11.1962276"><ele>184.5</ele><time>2026-03-28T13:58:07.105Z</time></trkpt><trkpt lat="44.4293834" lon="11.1962181"><ele>184.0</ele><time>2026-03-28T13:58:08.1Z</time></trkpt><trkpt lat="44.4295189" lon="11.1962086"><ele>183.5</ele><time>2026-03-28T13:58:09.113Z</time></trkpt><trkpt lat="44.4296591" lon="11.1962034"><ele>183.0</ele><time>2026-03-28T13:58:10.103Z</time></trkpt><trkpt lat="44.4298065" lon="11.1962089"><ele>183.0</ele><time>2026-03-28T13:58:11.094Z</time></trkpt><trkpt lat="44.4299713" lon="11.1962291"><ele>183.0</ele><time>2026-03-28T13:58:12.102Z</time></trkpt><trkpt lat="44.4301449" lon="11.1962595"><ele>183.0</ele><time>2026-03-28T13:58:13.113Z</time></trkpt><trkpt lat="44.4303079" lon="11.1962969"><ele>182.33333333333334</ele><time>2026-03-28T13:58:14.096Z</time></trkpt><trkpt lat="44.4304769" lon="11.1963429"><ele>181.66666666666669</ele><time>2026-03-28T13:58:15.1Z</time></trkpt><trkpt lat="44.4306373" lon="11.196398"><ele>181.0</ele><time>2026-03-28T13:58:16.102Z</time></trkpt><trkpt lat="44.4307926" lon="11.196463"><ele>179.0</ele><time>2026-03-28T13:58:17.101Z</time></trkpt><trkpt lat="44.4309275" lon="11.1965372"><ele>177.0</ele><time>2026-03-28T13:58:18.086Z</time></trkpt><trkpt lat="44.4310574" lon="11.196621"><ele>175.0</ele><time>2026-03-28T13:58:19.107Z</time></trkpt><trkpt lat="44.4311771" lon="11.1967042"><ele>173.0</ele><time>2026-03-28T13:58:20.095Z</time></trkpt><trkpt lat="44.4312892" lon="11.1967856"><ele>172.75</ele><time>2026-03-28T13:58:21.083Z</time></trkpt><trkpt lat="44.4314072" lon="11.1968623"><ele>172.5</ele><time>2026-03-28T13:58:22.1Z</time></trkpt><trkpt lat="44.4315235" lon="11.1969308"><ele>172.25</ele><time>2026-03-28T13:58:23.1Z</time></trkpt><trkpt lat="44.4316475" lon="11.1969871"><ele>172.0</ele><time>2026-03-28T13:58:24.111Z</time></trkpt><trkpt lat="44.4317712" lon="11.1970236"><ele>172.0</ele><time>2026-03-28T13:58:25.098Z</time></trkpt><trkpt lat="44.4319052" lon="11.1970505"><ele>172.0</ele><time>2026-03-28T13:58:26.098Z</time></trkpt><trkpt lat="44.4320389" lon="11.1970739"><ele>172.0</ele><time>2026-03-28T13:58:27.1Z</time></trkpt><trkpt lat="44.4321796" lon="11.1970843"><ele>172.0</ele><time>2026-03-28T13:58:28.109Z</time></trkpt><trkpt lat="44.4323279" lon="11.1970691"><ele>170.66666666666669</ele><time>2026-03-28T13:58:29.112Z</time></trkpt><trkpt lat="44.4324798" lon="11.1970337"><ele>169.33333333333334</ele><time>2026-03-28T13:58:30.101Z</time></trkpt><trkpt lat="44.4326407" lon="11.1969854"><ele>168.0</ele><time>2026-03-28T13:58:31.11Z</time></trkpt><trkpt lat="44.4328263" lon="11.1968654"><ele>168.66666666666666</ele><time>2026-03-28T13:58:32.091Z</time></trkpt><trkpt lat="44.4330046" lon="11.1967689"><ele>169.33333333333331</ele><time>2026-03-28T13:58:33.095Z</time></trkpt><trkpt lat="44.4331783" lon="11.1966971"><ele>170.0</ele><time>2026-03-28T13:58:34.093Z</time></trkpt><trkpt lat="44.4333583" lon="11.1966768"><ele>170.0</ele><time>2026-03-28T13:58:35.107Z</time></trkpt><trkpt lat="44.4335291" lon="11.1967231"><ele>170.0</ele><time>2026-03-28T13:58:36.104Z</time></trkpt><trkpt lat="44.4336836" lon="11.1968143"><ele>170.0</ele><time>2026-03-28T13:58:37.088Z</time></trkpt><trkpt lat="44.4338393" lon="11.196947"><ele>171.33333333333331</ele><time>2026-03-28T13:58:38.101Z</time></trkpt><trkpt lat="44.4339774" lon="11.1971267"><ele>172.66666666666666</ele><time>2026-03-28T13:58:39.091Z</time></trkpt><trkpt lat="44.4340984" lon="11.1973726"><ele>174.0</ele><time>2026-03-28T13:58:40.096Z</time></trkpt><trkpt lat="44.4342011" lon="11.197622"><ele>171.0</ele><time>2026-03-28T13:58:41.101Z</time></trkpt><trkpt lat="44.4343049" lon="11.1978118"><ele>168.0</ele><time>2026-03-28T13:58:42.119Z</time></trkpt><trkpt lat="44.4344304" lon="11.197974"><ele>165.0</ele><time>2026-03-28T13:58:43.112Z</time></trkpt><trkpt lat="44.4345805" lon="11.1981093"><ele>163.33333333333334</ele><time>2026-03-28T13:58:44.089Z</time></trkpt><trkpt lat="44.4347664" lon="11.1982198"><ele>161.66666666666669</ele><time>2026-03-28T13:58:45.103Z</time></trkpt><trkpt lat="44.4349698" lon="11.1983158"><ele>160.0</ele><time>2026-03-28T13:58:46.099Z</time></trkpt><trkpt lat="44.4352003" lon="11.1983981"><ele>160.0</ele><time>2026-03-28T13:58:47.109Z</time></trkpt><trkpt lat="44.4354366" lon="11.1984505"><ele>160.0</ele><time>2026-03-28T13:58:48.1Z</time></trkpt><trkpt lat="44.4356717" lon="11.1984968"><ele>159.0</ele><time>2026-03-28T13:58:49.097Z</time></trkpt><trkpt lat="44.4359026" lon="11.1985407"><ele>158.0</ele><time>2026-03-28T13:58:50.112Z</time></trkpt><trkpt lat="44.4361265" lon="11.198587"><ele>158.33333333333331</ele><time>2026-03-28T13:58:51.11Z</time></trkpt><trkpt lat="44.4363492" lon="11.1986357"><ele>158.66666666666666</ele><time>2026-03-28T13:58:52.107Z</time></trkpt><trkpt lat="44.436561" lon="11.1986871"><ele>159.0</ele><time>2026-03-28T13:58:53.094Z</time></trkpt><trkpt lat="44.4367684" lon="11.1987367"><ele>159.0</ele><time>2026-03-28T13:58:54.092Z</time></trkpt><trkpt lat="44.436972" lon="11.1987845"><ele>159.0</ele><time>2026-03-28T13:58:55.085Z</time></trkpt><trkpt lat="44.4371697" lon="11.1988318"><ele>159.0</ele><time>2026-03-28T13:58:56.096Z</time></trkpt><trkpt lat="44.4373582" lon="11.1988741"><ele>159.0</ele><time>2026-03-28T13:58:57.093Z</time></trkpt><trkpt lat="44.4375463" lon="11.1989176"><ele>159.0</ele><time>2026-03-28T13:58:58.105Z</time></trkpt><trkpt lat="44.4377302" lon="11.1989568"><ele>159.0</ele><time>2026-03-28T13:58:59.106Z</time></trkpt><trkpt lat="44.4379109" lon="11.1989889"><ele>156.66666666666666</ele><time>2026-03-28T13:59:00.09Z</time></trkpt><trkpt lat="44.4380925" lon="11.1990156"><ele>154.33333333333331</ele><time>2026-03-28T13:59:01.103Z</time></trkpt><trkpt lat="44.4382611" lon="11.1990411"><ele>152.0</ele><time>2026-03-28T13:59:02.094Z</time></trkpt><trkpt lat="44.4384192" lon="11.1990684"><ele>152.0</ele><time>2026-03-28T13:59:03.096Z</time></trkpt><trkpt lat="44.4385719" lon="11.1991075"><ele>152.0</ele><time>2026-03-28T13:59:04.078Z</time></trkpt><trkpt lat="44.4387252" lon="11.1991721"><ele>152.0</ele><time>2026-03-28T13:59:05.116Z</time></trkpt><trkpt lat="44.4388688" lon="11.1992738"><ele>151.66666666666666</ele><time>2026-03-28T13:59:06.099Z</time></trkpt><trkpt lat="44.4390036" lon="11.1994049"><ele>151.33333333333334</ele><time>2026-03-28T13:59:07.094Z</time></trkpt><trkpt lat="44.4391316" lon="11.1995543"><ele>151.0</ele><time>2026-03-28T13:59:08.088Z</time></trkpt><trkpt lat="44.4392444" lon="11.199711"><ele>150.5</ele><time>2026-03-28T13:59:09.097Z</time></trkpt><trkpt lat="44.4393469" lon="11.1998505"><ele>150.0</ele><time>2026-03-28T13:59:10.106Z</time></trkpt><trkpt lat="44.4394457" lon="11.1999715"><ele>149.5</ele><time>2026-03-28T13:59:11.1Z</time></trkpt><trkpt lat="44.4395545" lon="11.2000622"><ele>149.0</ele><time>2026-03-28T13:59:12.077Z</time></trkpt><trkpt lat="44.4396859" lon="11.20014"><ele>148.0</ele><time>2026-03-28T13:59:13.118Z</time></trkpt><trkpt lat="44.4398245" lon="11.2001705"><ele>147.0</ele><time>2026-03-28T13:59:14.1Z</time></trkpt><trkpt lat="44.4399846" lon="11.2001578"><ele>146.0</ele><time>2026-03-28T13:59:15.1Z</time></trkpt><trkpt lat="44.4401656" lon="11.2001066"><ele>146.0</ele><time>2026-03-28T13:59:16.122Z</time></trkpt><trkpt lat="44.4403443" lon="11.2000157"><ele>146.0</ele><time>2026-03-28T13:59:17.097Z</time></trkpt><trkpt lat="44.4405235" lon="11.1998815"><ele>146.0</ele><time>2026-03-28T13:59:18.088Z</time></trkpt><trkpt lat="44.4406923" lon="11.1997248"><ele>146.33333333333331</ele><time>2026-03-28T13:59:19.093Z</time></trkpt><trkpt lat="44.4408545" lon="11.1995808"><ele>146.66666666666666</ele><time>2026-03-28T13:59:20.099Z</time></trkpt><trkpt lat="44.4410085" lon="11.199466"><ele>147.0</ele><time>2026-03-28T13:59:21.106Z</time></trkpt><trkpt lat="44.4411616" lon="11.1993751"><ele>146.0</ele><time>2026-03-28T13:59:22.113Z</time></trkpt><trkpt lat="44.4413121" lon="11.1993063"><ele>145.0</ele><time>2026-03-28T13:59:23.098Z</time></trkpt><trkpt lat="44.4414544" lon="11.1992649"><ele>144.0</ele><time>2026-03-28T13:59:24.097Z</time></trkpt><trkpt lat="44.4416111" lon="11.1992359"><ele>144.0</ele><time>2026-03-28T13:59:25.108Z</time></trkpt><trkpt lat="44.4417542" lon="11.1992298"><ele>144.0</ele><time>2026-03-28T13:59:26.098Z</time></trkpt><trkpt lat="44.4419041" lon="11.199243"><ele>144.0</ele><time>2026-03-28T13:59:27.1Z</time></trkpt><trkpt lat="44.4420563" lon="11.1992779"><ele>144.0</ele><time>2026-03-28T13:59:28.101Z</time></trkpt><trkpt lat="44.4422197" lon="11.1993392"><ele>145.66666666666666</ele><time>2026-03-28T13:59:29.081Z</time></trkpt><trkpt lat="44.4423562" lon="11.1994375"><ele>147.33333333333331</ele><time>2026-03-28T13:59:30.087Z</time></trkpt><trkpt lat="44.4424829" lon="11.1995783"><ele>149.0</ele><time>2026-03-28T13:59:31.099Z</time></trkpt><trkpt lat="44.4426052" lon="11.1997358"><ele>147.75</ele><time>2026-03-28T13:59:32.104Z</time></trkpt><trkpt lat="44.4427284" lon="11.1998837"><ele>146.5</ele><time>2026-03-28T13:59:33.093Z</time></trkpt><trkpt lat="44.4428592" lon="11.199996"><ele>145.25</ele><time>2026-03-28T13:59:34.1Z</time></trkpt><trkpt lat="44.4429749" lon="11.2000191"><ele>144.0</ele><time>2026-03-28T13:59:35.109Z</time></trkpt><trkpt lat="44.4431268" lon="11.2000014"><ele>144.33333333333334</ele><time>2026-03-28T13:59:36.103Z</time></trkpt><trkpt lat="44.4432517" lon="11.1999111"><ele>144.66666666666669</ele><time>2026-03-28T13:59:37.084Z</time></trkpt><trkpt lat="44.4434095" lon="11.1997499"><ele>145.0</ele><time>2026-03-28T13:59:38.109Z</time></trkpt><trkpt lat="44.4435554" lon="11.1995477"><ele>145.0</ele><time>2026-03-28T13:59:39.106Z</time></trkpt><trkpt lat="44.4436867" lon="11.1993474"><ele>145.0</ele><time>2026-03-28T13:59:40.109Z</time></trkpt><trkpt lat="44.4438155" lon="11.1992058"><ele>145.0</ele><time>2026-03-28T13:59:41.089Z</time></trkpt><trkpt lat="44.4439555" lon="11.1991042"><ele>143.0</ele><time>2026-03-28T13:59:42.106Z</time></trkpt><trkpt lat="44.4441099" lon="11.1990627"><ele>141.0</ele><time>2026-03-28T13:59:43.084Z</time></trkpt><trkpt lat="44.4442775" lon="11.1990401"><ele>139.0</ele><time>2026-03-28T13:59:44.092Z</time></trkpt><trkpt lat="44.444441" lon="11.1990215"><ele>139.0</ele><time>2026-03-28T13:59:45.1Z</time></trkpt><trkpt lat="44.444617" lon="11.1990255"><ele>139.0</ele><time>2026-03-28T13:59:46.1Z</time></trkpt><trkpt lat="44.4447851" lon="11.1990194"><ele>139.0</ele><time>2026-03-28T13:59:47.104Z</time></trkpt><trkpt lat="44.4449568" lon="11.1990107"><ele>140.66666666666669</ele><time>2026-03-28T13:59:48.098Z</time></trkpt><trkpt lat="44.4451119" lon="11.1989862"><ele>142.33333333333334</ele><time>2026-03-28T13:59:49.091Z</time></trkpt><trkpt lat="44.445259" lon="11.1989549"><ele>144.0</ele><time>2026-03-28T13:59:50.097Z</time></trkpt><trkpt lat="44.445407" lon="11.1989111"><ele>141.66666666666666</ele><time>2026-03-28T13:59:51.1Z</time></trkpt><trkpt lat="44.4455485" lon="11.1988351"><ele>139.33333333333331</ele><time>2026-03-28T13:59:52.094Z</time></trkpt><trkpt lat="44.4456934" lon="11.1987081"><ele>137.0</ele><time>2026-03-28T13:59:53.107Z</time></trkpt><trkpt lat="44.445807" lon="11.1985505"><ele>137.0</ele><time>2026-03-28T13:59:54.108Z</time></trkpt><trkpt lat="44.4459353" lon="11.1983632"><ele>137.0</ele><time>2026-03-28T13:59:55.084Z</time></trkpt><trkpt lat="44.4460644" lon="11.1981769"><ele>137.0</ele><time>2026-03-28T13:59:56.109Z</time></trkpt><trkpt lat="44.4461652" lon="11.1980604"><ele>139.66666666666666</ele><time>2026-03-28T13:59:57.089Z</time></trkpt><trkpt lat="44.4462971" lon="11.1979529"><ele>142.33333333333334</ele><time>2026-03-28T13:59:58.086Z</time></trkpt><trkpt lat="44.4464366" lon="11.1978603"><ele>145.0</ele><time>2026-03-28T13:59:59.108Z</time></trkpt><trkpt lat="44.4465881" lon="11.1977838"><ele>145.0</ele><time>2026-03-28T14:00:00.088Z</time></trkpt><trkpt lat="44.4467528" lon="11.1977251"><ele>145.0</ele><time>2026-03-28T14:00:01.11Z</time></trkpt><trkpt lat="44.4468936" lon="11.1976781"><ele>145.0</ele><time>2026-03-28T14:00:02.103Z</time></trkpt><trkpt lat="44.4470672" lon="11.1976217"><ele>145.33333333333334</ele><time>2026-03-28T14:00:03.105Z</time></trkpt><trkpt lat="44.4472562" lon="11.1975672"><ele>145.66666666666666</ele><time>2026-03-28T14:00:04.114Z</time></trkpt><trkpt lat="44.4474392" lon="11.1975269"><ele>146.0</ele><time>2026-03-28T14:00:05.097Z</time></trkpt><trkpt lat="44.4476162" lon="11.1974926"><ele>146.0</ele><time>2026-03-28T14:00:06.104Z</time></trkpt><trkpt lat="44.4477795" lon="11.1974517"><ele>146.0</ele><time>2026-03-28T14:00:07.105Z</time></trkpt><trkpt lat="44.4479174" lon="11.1973782"><ele>146.0</ele><time>2026-03-28T14:00:08.111Z</time></trkpt><trkpt lat="44.4480469" lon="11.1972599"><ele>146.66666666666666</ele><time>2026-03-28T14:00:09.099Z</time></trkpt><trkpt lat="44.4481782" lon="11.1971026"><ele>147.33333333333334</ele><time>2026-03-28T14:00:10.09Z</time></trkpt><trkpt lat="44.4482988" lon="11.196921"><ele>148.0</ele><time>2026-03-28T14:00:11.097Z</time></trkpt><trkpt lat="44.4484144" lon="11.1967549"><ele>148.0</ele><time>2026-03-28T14:00:12.099Z</time></trkpt><trkpt lat="44.4485156" lon="11.1966384"><ele>148.0</ele><time>2026-03-28T14:00:13.088Z</time></trkpt><trkpt lat="44.4486469" lon="11.196533"><ele>148.0</ele><time>2026-03-28T14:00:14.084Z</time></trkpt><trkpt lat="44.4487966" lon="11.1964447"><ele>148.0</ele><time>2026-03-28T14:00:15.093Z</time></trkpt><trkpt lat="44.4489677" lon="11.1963779"><ele>143.0</ele><time>2026-03-28T14:00:16.112Z</time></trkpt><trkpt lat="44.4491288" lon="11.1963408"><ele>138.0</ele><time>2026-03-28T14:00:17.095Z</time></trkpt><trkpt lat="44.4493038" lon="11.1963079"><ele>133.0</ele><time>2026-03-28T14:00:18.116Z</time></trkpt><trkpt lat="44.4494704" lon="11.196262"><ele>130.33333333333334</ele><time>2026-03-28T14:00:19.092Z</time></trkpt><trkpt lat="44.4496382" lon="11.1961872"><ele>127.66666666666666</ele><time>2026-03-28T14:00:20.088Z</time></trkpt><trkpt lat="44.449805" lon="11.1960901"><ele>125.0</ele><time>2026-03-28T14:00:21.108Z</time></trkpt><trkpt lat="44.4499673" lon="11.1959937"><ele>125.0</ele><time>2026-03-28T14:00:22.103Z</time></trkpt><trkpt lat="44.4501245" lon="11.1958945"><ele>125.0</ele><time>2026-03-28T14:00:23.117Z</time></trkpt><trkpt lat="44.4502629" lon="11.1957914"><ele>125.0</ele><time>2026-03-28T14:00:24.105Z</time></trkpt><trkpt lat="44.4503858" lon="11.1956638"><ele>124.5</ele><time>2026-03-28T14:00:25.119Z</time></trkpt><trkpt lat="44.4504843" lon="11.1955112"><ele>124.0</ele><time>2026-03-28T14:00:26.101Z</time></trkpt><trkpt lat="44.4505627" lon="11.195337"><ele>123.5</ele><time>2026-03-28T14:00:27.098Z</time></trkpt><trkpt lat="44.4506119" lon="11.1951696"><ele>123.0</ele><time>2026-03-28T14:00:28.09Z</time></trkpt><trkpt lat="44.4506407" lon="11.1950196"><ele>123.0</ele><time>2026-03-28T14:00:29.102Z</time></trkpt><trkpt lat="44.4506678" lon="11.1948883"><ele>123.0</ele><time>2026-03-28T14:00:30.104Z</time></trkpt><trkpt lat="44.4507022" lon="11.1947583"><ele>123.0</ele><time>2026-03-28T14:00:31.102Z</time></trkpt><trkpt lat="44.4507336" lon="11.1946417"><ele>123.0</ele><time>2026-03-28T14:00:32.1Z</time></trkpt><trkpt lat="44.4507599" lon="11.1945366"><ele>123.0</ele><time>2026-03-28T14:00:33.104Z</time></trkpt><trkpt lat="44.450786" lon="11.1944527"><ele>123.0</ele><time>2026-03-28T14:00:34.11Z</time></trkpt><trkpt lat="44.4508462" lon="11.1943403"><ele>123.5</ele><time>2026-03-28T14:00:36.102Z</time></trkpt><trkpt lat="44.4509648" lon="11.1943023"><ele>124.0</ele><time>2026-03-28T14:00:38.103Z</time></trkpt><trkpt lat="44.4510319" lon="11.1943344"><ele>124.5</ele><time>2026-03-28T14:00:39.102Z</time></trkpt><trkpt lat="44.4510927" lon="11.1943868"><ele>125.0</ele><time>2026-03-28T14:00:40.109Z</time></trkpt><trkpt lat="44.4511623" lon="11.1944506"><ele>125.5</ele><time>2026-03-28T14:00:41.111Z</time></trkpt><trkpt lat="44.4512443" lon="11.19451"><ele>126.0</ele><time>2026-03-28T14:00:42.104Z</time></trkpt><trkpt lat="44.4513289" lon="11.1945707"><ele>126.5</ele><time>2026-03-28T14:00:43.084Z</time></trkpt><trkpt lat="44.4514097" lon="11.1946248"><ele>127.0</ele><time>2026-03-28T14:00:44.112Z</time></trkpt><trkpt lat="44.4514829" lon="11.1946673"><ele>127.5</ele><time>2026-03-28T14:00:45.1Z</time></trkpt><trkpt lat="44.4515513" lon="11.1947074"><ele>128.0</ele><time>2026-03-28T14:00:46.085Z</time></trkpt><trkpt lat="44.4516297" lon="11.1947586"><ele>128.5</ele><time>2026-03-28T14:00:47.113Z</time></trkpt><trkpt lat="44.4517051" lon="11.1948059"><ele>129.0</ele><time>2026-03-28T14:00:48.104Z</time></trkpt><trkpt lat="44.4517818" lon="11.1948547"><ele>128.5</ele><time>2026-03-28T14:00:49.108Z</time></trkpt><trkpt lat="44.4518576" lon="11.1948959"><ele>128.0</ele><time>2026-03-28T14:00:50.098Z</time></trkpt><trkpt lat="44.4519373" lon="11.1949395"><ele>127.5</ele><time>2026-03-28T14:00:51.102Z</time></trkpt><trkpt lat="44.4520161" lon="11.1949821"><ele>127.0</ele><time>2026-03-28T14:00:52.105Z</time></trkpt><trkpt lat="44.4520794" lon="11.1950167"><ele>126.5</ele><time>2026-03-28T14:00:53.102Z</time></trkpt><trkpt lat="44.4521399" lon="11.1950515"><ele>126.0</ele><time>2026-03-28T14:00:54.128Z</time></trkpt><trkpt lat="44.4522479" lon="11.1951195"><ele>126.0</ele><time>2026-03-28T14:00:56.124Z</time></trkpt><trkpt lat="44.452306" lon="11.1951537"><ele>126.0</ele><time>2026-03-28T14:00:57.098Z</time></trkpt><trkpt lat="44.4523741" lon="11.1951957"><ele>126.0</ele><time>2026-03-28T14:00:58.109Z</time></trkpt><trkpt lat="44.4524455" lon="11.1952331"><ele>126.0</ele><time>2026-03-28T14:00:59.124Z</time></trkpt><trkpt lat="44.4525135" lon="11.1952737"><ele>126.0</ele><time>2026-03-28T14:01:00.102Z</time></trkpt><trkpt lat="44.4525768" lon="11.1953066"><ele>126.0</ele><time>2026-03-28T14:01:01.097Z</time></trkpt><trkpt lat="44.4526902" lon="11.1953706"><ele>126.0</ele><time>2026-03-28T14:01:03.098Z</time></trkpt><trkpt lat="44.4527984" lon="11.1954423"><ele>126.0</ele><time>2026-03-28T14:01:05.094Z</time></trkpt><trkpt lat="44.4528688" lon="11.1954863"><ele>126.0</ele><time>2026-03-28T14:01:06.107Z</time></trkpt><trkpt lat="44.4529456" lon="11.1955331"><ele>126.0</ele><time>2026-03-28T14:01:07.117Z</time></trkpt><trkpt lat="44.4530263" lon="11.1955918"><ele>126.0</ele><time>2026-03-28T14:01:08.112Z</time></trkpt><trkpt lat="44.4531109" lon="11.1956484"><ele>125.0</ele><time>2026-03-28T14:01:09.112Z</time></trkpt><trkpt lat="44.4532103" lon="11.195718"><ele>124.0</ele><time>2026-03-28T14:01:10.124Z</time></trkpt><trkpt lat="44.4533122" lon="11.1957859"><ele>123.0</ele><time>2026-03-28T14:01:11.099Z</time></trkpt><trkpt lat="44.4534224" lon="11.1958562"><ele>122.0</ele><time>2026-03-28T14:01:12.105Z</time></trkpt><trkpt lat="44.4535286" lon="11.1959335"><ele>122.0</ele><time>2026-03-28T14:01:13.104Z</time></trkpt><trkpt lat="44.4536314" lon="11.1960175"><ele>122.0</ele><time>2026-03-28T14:01:14.101Z</time></trkpt><trkpt lat="44.4537362" lon="11.1961096"><ele>122.0</ele><time>2026-03-28T14:01:15.12Z</time></trkpt><trkpt lat="44.4538319" lon="11.1962025"><ele>122.0</ele><time>2026-03-28T14:01:16.122Z</time></trkpt><trkpt lat="44.4539161" lon="11.196292"><ele>122.8</ele><time>2026-03-28T14:01:17.087Z</time></trkpt><trkpt lat="44.4539985" lon="11.1963753"><ele>123.6</ele><time>2026-03-28T14:01:18.083Z</time></trkpt><trkpt lat="44.4540793" lon="11.196465"><ele>124.39999999999999</ele><time>2026-03-28T14:01:19.116Z</time></trkpt><trkpt lat="44.454151" lon="11.1965492"><ele>125.19999999999999</ele><time>2026-03-28T14:01:20.116Z</time></trkpt><trkpt lat="44.454221" lon="11.1966366"><ele>126.0</ele><time>2026-03-28T14:01:21.096Z</time></trkpt><trkpt lat="44.454304" lon="11.1967361"><ele>125.0</ele><time>2026-03-28T14:01:22.097Z</time></trkpt><trkpt lat="44.4543957" lon="11.1968427"><ele>124.0</ele><time>2026-03-28T14:01:23.114Z</time></trkpt><trkpt lat="44.4544856" lon="11.1969413"><ele>123.0</ele><time>2026-03-28T14:01:24.126Z</time></trkpt><trkpt lat="44.4545688" lon="11.1970285"><ele>122.0</ele><time>2026-03-28T14:01:25.102Z</time></trkpt><trkpt lat="44.4546499" lon="11.1971158"><ele>121.0</ele><time>2026-03-28T14:01:26.095Z</time></trkpt><trkpt lat="44.4547395" lon="11.1972071"><ele>121.0</ele><time>2026-03-28T14:01:27.119Z</time></trkpt><trkpt lat="44.4548285" lon="11.1973004"><ele>121.0</ele><time>2026-03-28T14:01:28.11Z</time></trkpt><trkpt lat="44.454913" lon="11.1973923"><ele>121.0</ele><time>2026-03-28T14:01:29.104Z</time></trkpt><trkpt lat="44.4549958" lon="11.1974767"><ele>121.0</ele><time>2026-03-28T14:01:30.118Z</time></trkpt><trkpt lat="44.4550712" lon="11.1975485"><ele>121.0</ele><time>2026-03-28T14:01:31.122Z</time></trkpt><trkpt lat="44.4551356" lon="11.1976161"><ele>120.4</ele><time>2026-03-28T14:01:32.101Z</time></trkpt><trkpt lat="44.4552043" lon="11.1976867"><ele>119.8</ele><time>2026-03-28T14:01:33.114Z</time></trkpt><trkpt lat="44.4552724" lon="11.1977567"><ele>119.20000000000002</ele><time>2026-03-28T14:01:34.1Z</time></trkpt><trkpt lat="44.455357" lon="11.1978348"><ele>118.60000000000001</ele><time>2026-03-28T14:01:35.125Z</time></trkpt><trkpt lat="44.4554412" lon="11.1979232"><ele>118.0</ele><time>2026-03-28T14:01:36.116Z</time></trkpt><trkpt lat="44.4555251" lon="11.1980146"><ele>118.0</ele><time>2026-03-28T14:01:37.109Z</time></trkpt><trkpt lat="44.4556123" lon="11.1981085"><ele>118.00000000000001</ele><time>2026-03-28T14:01:38.11Z</time></trkpt><trkpt lat="44.4556979" lon="11.1981979"><ele>118.00000000000001</ele><time>2026-03-28T14:01:39.105Z</time></trkpt><trkpt lat="44.4557829" lon="11.1982825"><ele>118.0</ele><time>2026-03-28T14:01:40.12Z</time></trkpt><trkpt lat="44.4558578" lon="11.198359"><ele>118.0</ele><time>2026-03-28T14:01:41.103Z</time></trkpt><trkpt lat="44.4559281" lon="11.198432"><ele>117.60000000000001</ele><time>2026-03-28T14:01:42.107Z</time></trkpt><trkpt lat="44.4559909" lon="11.1984993"><ele>117.20000000000002</ele><time>2026-03-28T14:01:43.092Z</time></trkpt><trkpt lat="44.456058" lon="11.1985709"><ele>116.8</ele><time>2026-03-28T14:01:44.114Z</time></trkpt><trkpt lat="44.4561229" lon="11.1986372"><ele>116.4</ele><time>2026-03-28T14:01:45.086Z</time></trkpt><trkpt lat="44.4561882" lon="11.1987136"><ele>116.0</ele><time>2026-03-28T14:01:46.091Z</time></trkpt><trkpt lat="44.4563462" lon="11.1988771"><ele>115.99999999999999</ele><time>2026-03-28T14:01:48.075Z</time></trkpt><trkpt lat="44.456411" lon="11.1989492"><ele>116.0</ele><time>2026-03-28T14:01:49.081Z</time></trkpt><trkpt lat="44.4564783" lon="11.1990198"><ele>116.0</ele><time>2026-03-28T14:01:50.088Z</time></trkpt><trkpt lat="44.4565406" lon="11.1990791"><ele>116.0</ele><time>2026-03-28T14:01:51.081Z</time></trkpt><trkpt lat="44.4566147" lon="11.1991505"><ele>115.99999999999999</ele><time>2026-03-28T14:01:52.097Z</time></trkpt><trkpt lat="44.4566924" lon="11.1992313"><ele>116.0</ele><time>2026-03-28T14:01:53.09Z</time></trkpt><trkpt lat="44.4567761" lon="11.1993191"><ele>115.4</ele><time>2026-03-28T14:01:54.106Z</time></trkpt><trkpt lat="44.4568641" lon="11.1994072"><ele>114.8</ele><time>2026-03-28T14:01:55.095Z</time></trkpt><trkpt lat="44.4569559" lon="11.1995006"><ele>114.20000000000002</ele><time>2026-03-28T14:01:56.11Z</time></trkpt><trkpt lat="44.4570481" lon="11.1995964"><ele>113.60000000000001</ele><time>2026-03-28T14:01:57.126Z</time></trkpt><trkpt lat="44.4571371" lon="11.1996814"><ele>113.0</ele><time>2026-03-28T14:01:58.103Z</time></trkpt><trkpt lat="44.4572278" lon="11.1997627"><ele>113.0</ele><time>2026-03-28T14:01:59.092Z</time></trkpt><trkpt lat="44.4573263" lon="11.1998309"><ele>113.00000000000001</ele><time>2026-03-28T14:02:00.095Z</time></trkpt><trkpt lat="44.4574282" lon="11.1998855"><ele>113.00000000000001</ele><time>2026-03-28T14:02:01.102Z</time></trkpt><trkpt lat="44.4575257" lon="11.1999113"><ele>113.0</ele><time>2026-03-28T14:02:02.096Z</time></trkpt><trkpt lat="44.4576374" lon="11.1999251"><ele>113.0</ele><time>2026-03-28T14:02:03.098Z</time></trkpt><trkpt lat="44.457748" lon="11.1999355"><ele>112.4</ele><time>2026-03-28T14:02:04.095Z</time></trkpt><trkpt lat="44.4578564" lon="11.1999466"><ele>111.80000000000001</ele><time>2026-03-28T14:02:05.106Z</time></trkpt><trkpt lat="44.4579645" lon="11.1999551"><ele>111.2</ele><time>2026-03-28T14:02:06.11Z</time></trkpt><trkpt lat="44.4580708" lon="11.1999686"><ele>110.6</ele><time>2026-03-28T14:02:07.108Z</time></trkpt><trkpt lat="44.4581836" lon="11.1999829"><ele>110.0</ele><time>2026-03-28T14:02:08.105Z</time></trkpt><trkpt lat="44.4582904" lon="11.1999936"><ele>110.0</ele><time>2026-03-28T14:02:09.103Z</time></trkpt><trkpt lat="44.4583962" lon="11.2000027"><ele>110.0</ele><time>2026-03-28T14:02:10.108Z</time></trkpt><trkpt lat="44.4584991" lon="11.2000204"><ele>110.0</ele><time>2026-03-28T14:02:11.101Z</time></trkpt><trkpt lat="44.4586097" lon="11.2000345"><ele>110.0</ele><time>2026-03-28T14:02:12.107Z</time></trkpt><trkpt lat="44.4587231" lon="11.2000344"><ele>110.0</ele><time>2026-03-28T14:02:13.097Z</time></trkpt><trkpt lat="44.4588463" lon="11.2000383"><ele>110.25</ele><time>2026-03-28T14:02:14.098Z</time></trkpt><trkpt lat="44.458979" lon="11.200024"><ele>110.5</ele><time>2026-03-28T14:02:15.095Z</time></trkpt><trkpt lat="44.4591274" lon="11.1999866"><ele>110.75</ele><time>2026-03-28T14:02:16.104Z</time></trkpt><trkpt lat="44.4592756" lon="11.1999277"><ele>111.0</ele><time>2026-03-28T14:02:17.099Z</time></trkpt><trkpt lat="44.4594195" lon="11.1998643"><ele>110.5</ele><time>2026-03-28T14:02:18.091Z</time></trkpt><trkpt lat="44.4595526" lon="11.199798"><ele>110.0</ele><time>2026-03-28T14:02:19.097Z</time></trkpt><trkpt lat="44.4596778" lon="11.1997351"><ele>109.5</ele><time>2026-03-28T14:02:20.098Z</time></trkpt><trkpt lat="44.4598004" lon="11.199674"><ele>109.0</ele><time>2026-03-28T14:02:21.093Z</time></trkpt><trkpt lat="44.4599288" lon="11.1996048"><ele>109.0</ele><time>2026-03-28T14:02:22.121Z</time></trkpt><trkpt lat="44.4600541" lon="11.1995381"><ele>109.0</ele><time>2026-03-28T14:02:23.095Z</time></trkpt><trkpt lat="44.4601906" lon="11.1994639"><ele>109.0</ele><time>2026-03-28T14:02:24.111Z</time></trkpt><trkpt lat="44.4603249" lon="11.1993819"><ele>109.0</ele><time>2026-03-28T14:02:25.091Z</time></trkpt><trkpt lat="44.4604631" lon="11.1992807"><ele>109.0</ele><time>2026-03-28T14:02:26.095Z</time></trkpt><trkpt lat="44.4605992" lon="11.1991689"><ele>109.0</ele><time>2026-03-28T14:02:27.1Z</time></trkpt><trkpt lat="44.4607318" lon="11.1990555"><ele>109.0</ele><time>2026-03-28T14:02:28.107Z</time></trkpt><trkpt lat="44.460861" lon="11.198949"><ele>108.75</ele><time>2026-03-28T14:02:29.103Z</time></trkpt><trkpt lat="44.4609917" lon="11.1988511"><ele>108.5</ele><time>2026-03-28T14:02:30.097Z</time></trkpt><trkpt lat="44.4611233" lon="11.1987677"><ele>108.25</ele><time>2026-03-28T14:02:31.095Z</time></trkpt><trkpt lat="44.4612564" lon="11.1987068"><ele>108.0</ele><time>2026-03-28T14:02:32.1Z</time></trkpt><trkpt lat="44.4613936" lon="11.1986596"><ele>108.0</ele><time>2026-03-28T14:02:33.102Z</time></trkpt><trkpt lat="44.4615278" lon="11.1986241"><ele>108.0</ele><time>2026-03-28T14:02:34.088Z</time></trkpt><trkpt lat="44.4616653" lon="11.198592"><ele>108.0</ele><time>2026-03-28T14:02:35.104Z</time></trkpt><trkpt lat="44.4617954" lon="11.1985648"><ele>108.0</ele><time>2026-03-28T14:02:36.097Z</time></trkpt><trkpt lat="44.4619188" lon="11.1985389"><ele>108.0</ele><time>2026-03-28T14:02:37.101Z</time></trkpt><trkpt lat="44.4620366" lon="11.1985121"><ele>108.0</ele><time>2026-03-28T14:02:38.105Z</time></trkpt><trkpt lat="44.4621513" lon="11.1984891"><ele>108.0</ele><time>2026-03-28T14:02:39.099Z</time></trkpt><trkpt lat="44.4622702" lon="11.1984578"><ele>108.0</ele><time>2026-03-28T14:02:40.113Z</time></trkpt><trkpt lat="44.4623864" lon="11.198431"><ele>108.5</ele><time>2026-03-28T14:02:41.107Z</time></trkpt><trkpt lat="44.4624988" lon="11.1984054"><ele>109.0</ele><time>2026-03-28T14:02:42.086Z</time></trkpt><trkpt lat="44.4626138" lon="11.1983749"><ele>109.5</ele><time>2026-03-28T14:02:43.092Z</time></trkpt><trkpt lat="44.4627282" lon="11.1983465"><ele>110.0</ele><time>2026-03-28T14:02:44.103Z</time></trkpt><trkpt lat="44.4628465" lon="11.198323"><ele>109.8</ele><time>2026-03-28T14:02:45.103Z</time></trkpt><trkpt lat="44.4629573" lon="11.198304"><ele>109.6</ele><time>2026-03-28T14:02:46.101Z</time></trkpt><trkpt lat="44.4630668" lon="11.1982893"><ele>109.4</ele><time>2026-03-28T14:02:47.106Z</time></trkpt><trkpt lat="44.4631723" lon="11.1982806"><ele>109.2</ele><time>2026-03-28T14:02:48.108Z</time></trkpt><trkpt lat="44.4632731" lon="11.1982815"><ele>109.0</ele><time>2026-03-28T14:02:49.1Z</time></trkpt><trkpt lat="44.4633709" lon="11.1982891"><ele>109.00000000000001</ele><time>2026-03-28T14:02:50.089Z</time></trkpt><trkpt lat="44.4634606" lon="11.1983127"><ele>109.0</ele><time>2026-03-28T14:02:51.096Z</time></trkpt><trkpt lat="44.4635336" lon="11.1983564"><ele>109.0</ele><time>2026-03-28T14:02:52.09Z</time></trkpt><trkpt lat="44.4635892" lon="11.1984246"><ele>109.0</ele><time>2026-03-28T14:02:53.1Z</time></trkpt><trkpt lat="44.4636324" lon="11.1985269"><ele>109.00000000000001</ele><time>2026-03-28T14:02:54.08Z</time></trkpt><trkpt lat="44.4636604" lon="11.1986561"><ele>109.0</ele><time>2026-03-28T14:02:55.096Z</time></trkpt><trkpt lat="44.463681" lon="11.1988094"><ele>106.66666666666667</ele><time>2026-03-28T14:02:56.093Z</time></trkpt><trkpt lat="44.4637308" lon="11.1991616"><ele>104.33333333333334</ele><time>2026-03-28T14:02:58.087Z</time></trkpt><trkpt lat="44.4637533" lon="11.199331"><ele>102.0</ele><time>2026-03-28T14:02:59.09Z</time></trkpt><trkpt lat="44.4637722" lon="11.1994877"><ele>102.19999999999999</ele><time>2026-03-28T14:03:00.087Z</time></trkpt><trkpt lat="44.4637945" lon="11.1996394"><ele>102.4</ele><time>2026-03-28T14:03:01.106Z</time></trkpt><trkpt lat="44.4638262" lon="11.1997706"><ele>102.6</ele><time>2026-03-28T14:03:02.099Z</time></trkpt><trkpt lat="44.4638888" lon="11.1999044"><ele>102.80000000000001</ele><time>2026-03-28T14:03:03.109Z</time></trkpt><trkpt lat="44.463974" lon="11.2000319"><ele>103.0</ele><time>2026-03-28T14:03:04.103Z</time></trkpt><trkpt lat="44.464074" lon="11.2001278"><ele>103.0</ele><time>2026-03-28T14:03:05.089Z</time></trkpt><trkpt lat="44.4642088" lon="11.2002317"><ele>103.0</ele><time>2026-03-28T14:03:06.098Z</time></trkpt><trkpt lat="44.4643348" lon="11.2003189"><ele>103.0</ele><time>2026-03-28T14:03:07.099Z</time></trkpt><trkpt lat="44.4644571" lon="11.2003987"><ele>103.0</ele><time>2026-03-28T14:03:08.113Z</time></trkpt><trkpt lat="44.4645694" lon="11.2004685"><ele>103.0</ele><time>2026-03-28T14:03:09.094Z</time></trkpt><trkpt lat="44.46469" lon="11.2005445"><ele>103.0</ele><time>2026-03-28T14:03:10.109Z</time></trkpt><trkpt lat="44.4648137" lon="11.2006189"><ele>103.0</ele><time>2026-03-28T14:03:11.121Z</time></trkpt><trkpt lat="44.4649414" lon="11.2006979"><ele>103.0</ele><time>2026-03-28T14:03:12.1Z</time></trkpt><trkpt lat="44.4650761" lon="11.2007844"><ele>103.33333333333334</ele><time>2026-03-28T14:03:13.111Z</time></trkpt><trkpt lat="44.4652181" lon="11.2008753"><ele>103.66666666666666</ele><time>2026-03-28T14:03:14.109Z</time></trkpt><trkpt lat="44.4653712" lon="11.2009726"><ele>104.0</ele><time>2026-03-28T14:03:15.091Z</time></trkpt><trkpt lat="44.4655543" lon="11.2010848"><ele>102.66666666666666</ele><time>2026-03-28T14:03:16.094Z</time></trkpt><trkpt lat="44.4657481" lon="11.2012082"><ele>101.33333333333334</ele><time>2026-03-28T14:03:17.104Z</time></trkpt><trkpt lat="44.4659377" lon="11.2013254"><ele>100.0</ele><time>2026-03-28T14:03:18.101Z</time></trkpt><trkpt lat="44.4661144" lon="11.2014379"><ele>101.25</ele><time>2026-03-28T14:03:19.116Z</time></trkpt><trkpt lat="44.4662692" lon="11.2015328"><ele>102.5</ele><time>2026-03-28T14:03:20.117Z</time></trkpt><trkpt lat="44.4664052" lon="11.2016094"><ele>103.75</ele><time>2026-03-28T14:03:21.099Z</time></trkpt><trkpt lat="44.4665267" lon="11.2016728"><ele>105.0</ele><time>2026-03-28T14:03:22.105Z</time></trkpt><trkpt lat="44.4666355" lon="11.201725"><ele>105.0</ele><time>2026-03-28T14:03:23.102Z</time></trkpt><trkpt lat="44.4667405" lon="11.2017693"><ele>105.0</ele><time>2026-03-28T14:03:24.111Z</time></trkpt><trkpt lat="44.4668413" lon="11.2017983"><ele>105.0</ele><time>2026-03-28T14:03:25.119Z</time></trkpt><trkpt lat="44.4669498" lon="11.2018188"><ele>105.0</ele><time>2026-03-28T14:03:26.124Z</time></trkpt><trkpt lat="44.4670593" lon="11.201831"><ele>105.0</ele><time>2026-03-28T14:03:27.109Z</time></trkpt><trkpt lat="44.46717" lon="11.201835"><ele>104.8</ele><time>2026-03-28T14:03:28.092Z</time></trkpt><trkpt lat="44.4672823" lon="11.2018293"><ele>104.6</ele><time>2026-03-28T14:03:29.106Z</time></trkpt><trkpt lat="44.4673796" lon="11.2018207"><ele>104.4</ele><time>2026-03-28T14:03:30.103Z</time></trkpt><trkpt lat="44.4674762" lon="11.2018097"><ele>104.2</ele><time>2026-03-28T14:03:31.121Z</time></trkpt><trkpt lat="44.4675721" lon="11.2017982"><ele>104.0</ele><time>2026-03-28T14:03:32.112Z</time></trkpt><trkpt lat="44.4676644" lon="11.2017843"><ele>103.99999999999999</ele><time>2026-03-28T14:03:33.091Z</time></trkpt><trkpt lat="44.4677542" lon="11.2017708"><ele>104.0</ele><time>2026-03-28T14:03:34.113Z</time></trkpt><trkpt lat="44.4678304" lon="11.2017616"><ele>104.0</ele><time>2026-03-28T14:03:35.088Z</time></trkpt><trkpt lat="44.4679039" lon="11.2017533"><ele>104.0</ele><time>2026-03-28T14:03:36.109Z</time></trkpt><trkpt lat="44.4679766" lon="11.2017503"><ele>103.99999999999999</ele><time>2026-03-28T14:03:37.118Z</time></trkpt><trkpt lat="44.4680505" lon="11.2017475"><ele>104.0</ele><time>2026-03-28T14:03:38.13Z</time></trkpt><trkpt lat="44.4681237" lon="11.2017615"><ele>105.2</ele><time>2026-03-28T14:03:39.096Z</time></trkpt><trkpt lat="44.4682014" lon="11.2017934"><ele>106.4</ele><time>2026-03-28T14:03:40.104Z</time></trkpt><trkpt lat="44.4682867" lon="11.2018576"><ele>107.6</ele><time>2026-03-28T14:03:41.12Z</time></trkpt><trkpt lat="44.4683673" lon="11.2019502"><ele>108.8</ele><time>2026-03-28T14:03:42.104Z</time></trkpt><trkpt lat="44.4684535" lon="11.2020791"><ele>110.0</ele><time>2026-03-28T14:03:43.103Z</time></trkpt><trkpt lat="44.468537" lon="11.2022279"><ele>109.75</ele><time>2026-03-28T14:03:44.101Z</time></trkpt><trkpt lat="44.468622" lon="11.2023914"><ele>109.5</ele><time>2026-03-28T14:03:45.11Z</time></trkpt><trkpt lat="44.4687108" lon="11.2025517"><ele>109.25</ele><time>2026-03-28T14:03:46.101Z</time></trkpt><trkpt lat="44.468802" lon="11.2027039"><ele>109.0</ele><time>2026-03-28T14:03:47.105Z</time></trkpt><trkpt lat="44.4688843" lon="11.2028345"><ele>109.0</ele><time>2026-03-28T14:03:48.097Z</time></trkpt><trkpt lat="44.4689627" lon="11.2029638"><ele>109.0</ele><time>2026-03-28T14:03:49.123Z</time></trkpt><trkpt lat="44.4690384" lon="11.203074"><ele>109.0</ele><time>2026-03-28T14:03:50.089Z</time></trkpt><trkpt lat="44.4691217" lon="11.2031983"><ele>109.0</ele><time>2026-03-28T14:03:51.109Z</time></trkpt><trkpt lat="44.4692077" lon="11.203339"><ele>109.33333333333334</ele><time>2026-03-28T14:03:52.104Z</time></trkpt><trkpt lat="44.4692991" lon="11.2034977"><ele>109.66666666666666</ele><time>2026-03-28T14:03:53.106Z</time></trkpt><trkpt lat="44.4693993" lon="11.2036758"><ele>110.0</ele><time>2026-03-28T14:03:54.116Z</time></trkpt><trkpt lat="44.4694963" lon="11.2038545"><ele>109.75</ele><time>2026-03-28T14:03:55.103Z</time></trkpt><trkpt lat="44.4695928" lon="11.2040252"><ele>109.5</ele><time>2026-03-28T14:03:56.095Z</time></trkpt><trkpt lat="44.4696854" lon="11.2041855"><ele>109.25</ele><time>2026-03-28T14:03:57.108Z</time></trkpt><trkpt lat="44.4697705" lon="11.2043313"><ele>109.0</ele><time>2026-03-28T14:03:58.105Z</time></trkpt><trkpt lat="44.4698507" lon="11.2044673"><ele>109.0</ele><time>2026-03-28T14:03:59.104Z</time></trkpt><trkpt lat="44.4699221" lon="11.2045964"><ele>109.0</ele><time>2026-03-28T14:04:00.088Z</time></trkpt><trkpt lat="44.4700024" lon="11.2047269"><ele>109.0</ele><time>2026-03-28T14:04:01.096Z</time></trkpt><trkpt lat="44.4700959" lon="11.2048567"><ele>109.0</ele><time>2026-03-28T14:04:02.106Z</time></trkpt><trkpt lat="44.4701987" lon="11.2049873"><ele>109.25</ele><time>2026-03-28T14:04:03.118Z</time></trkpt><trkpt lat="44.4703002" lon="11.2051043"><ele>109.5</ele><time>2026-03-28T14:04:04.107Z</time></trkpt><trkpt lat="44.4704019" lon="11.2052066"><ele>109.75</ele><time>2026-03-28T14:04:05.099Z</time></trkpt><trkpt lat="44.4705062" lon="11.2052974"><ele>110.0</ele><time>2026-03-28T14:04:06.109Z</time></trkpt><trkpt lat="44.4706141" lon="11.2053838"><ele>110.0</ele><time>2026-03-28T14:04:07.105Z</time></trkpt><trkpt lat="44.4707261" lon="11.2054649"><ele>110.0</ele><time>2026-03-28T14:04:08.088Z</time></trkpt><trkpt lat="44.4708486" lon="11.2055365"><ele>110.0</ele><time>2026-03-28T14:04:09.095Z</time></trkpt><trkpt lat="44.4709772" lon="11.2056077"><ele>110.0</ele><time>2026-03-28T14:04:10.126Z</time></trkpt><trkpt lat="44.4710905" lon="11.2056643"><ele>111.25</ele><time>2026-03-28T14:04:11.097Z</time></trkpt><trkpt lat="44.4712017" lon="11.2057242"><ele>112.5</ele><time>2026-03-28T14:04:12.094Z</time></trkpt><trkpt lat="44.4713172" lon="11.2058002"><ele>113.75</ele><time>2026-03-28T14:04:13.104Z</time></trkpt><trkpt lat="44.4714215" lon="11.2059026"><ele>115.0</ele><time>2026-03-28T14:04:14.097Z</time></trkpt><trkpt lat="44.4715257" lon="11.2060291"><ele>112.0</ele><time>2026-03-28T14:04:15.092Z</time></trkpt><trkpt lat="44.4716257" lon="11.20618"><ele>109.0</ele><time>2026-03-28T14:04:16.107Z</time></trkpt><trkpt lat="44.4717257" lon="11.2063535"><ele>106.0</ele><time>2026-03-28T14:04:17.112Z</time></trkpt><trkpt lat="44.4718078" lon="11.2065308"><ele>106.0</ele><time>2026-03-28T14:04:18.107Z</time></trkpt><trkpt lat="44.4718796" lon="11.2067076"><ele>106.0</ele><time>2026-03-28T14:04:19.101Z</time></trkpt><trkpt lat="44.471946" lon="11.2068849"><ele>106.0</ele><time>2026-03-28T14:04:20.108Z</time></trkpt><trkpt lat="44.4720019" lon="11.2070538"><ele>106.0</ele><time>2026-03-28T14:04:21.092Z</time></trkpt><trkpt lat="44.4720488" lon="11.2072178"><ele>106.0</ele><time>2026-03-28T14:04:22.102Z</time></trkpt><trkpt lat="44.4720902" lon="11.2073744"><ele>106.0</ele><time>2026-03-28T14:04:23.103Z</time></trkpt><trkpt lat="44.4721337" lon="11.2075349"><ele>106.0</ele><time>2026-03-28T14:04:24.101Z</time></trkpt><trkpt lat="44.4721737" lon="11.2077073"><ele>106.0</ele><time>2026-03-28T14:04:25.104Z</time></trkpt><trkpt lat="44.4722087" lon="11.2078789"><ele>105.5</ele><time>2026-03-28T14:04:26.104Z</time></trkpt><trkpt lat="44.4722349" lon="11.2080464"><ele>105.0</ele><time>2026-03-28T14:04:27.097Z</time></trkpt><trkpt lat="44.4722569" lon="11.208215"><ele>104.5</ele><time>2026-03-28T14:04:28.1Z</time></trkpt><trkpt lat="44.4722754" lon="11.208381"><ele>104.0</ele><time>2026-03-28T14:04:29.101Z</time></trkpt><trkpt lat="44.4722922" lon="11.2085505"><ele>104.0</ele><time>2026-03-28T14:04:30.096Z</time></trkpt><trkpt lat="44.4723086" lon="11.2087288"><ele>104.0</ele><time>2026-03-28T14:04:31.102Z</time></trkpt><trkpt lat="44.4723303" lon="11.2089206"><ele>104.0</ele><time>2026-03-28T14:04:32.096Z</time></trkpt><trkpt lat="44.4723594" lon="11.2091233"><ele>104.0</ele><time>2026-03-28T14:04:33.11Z</time></trkpt><trkpt lat="44.4723934" lon="11.2093108"><ele>103.0</ele><time>2026-03-28T14:04:34.115Z</time></trkpt><trkpt lat="44.4724411" lon="11.2094893"><ele>102.0</ele><time>2026-03-28T14:04:35.113Z</time></trkpt><trkpt lat="44.4725044" lon="11.2096722"><ele>101.0</ele><time>2026-03-28T14:04:36.106Z</time></trkpt><trkpt lat="44.4725872" lon="11.2098711"><ele>100.0</ele><time>2026-03-28T14:04:37.118Z</time></trkpt><trkpt lat="44.4726803" lon="11.2101031"><ele>100.0</ele><time>2026-03-28T14:04:38.115Z</time></trkpt><trkpt lat="44.4727721" lon="11.210328"><ele>100.0</ele><time>2026-03-28T14:04:39.104Z</time></trkpt><trkpt lat="44.4728611" lon="11.2105425"><ele>100.0</ele><time>2026-03-28T14:04:40.115Z</time></trkpt><trkpt lat="44.4729444" lon="11.2107268"><ele>99.25</ele><time>2026-03-28T14:04:41.111Z</time></trkpt><trkpt lat="44.4730263" lon="11.2109025"><ele>98.5</ele><time>2026-03-28T14:04:42.111Z</time></trkpt><trkpt lat="44.4731028" lon="11.2110639"><ele>97.75</ele><time>2026-03-28T14:04:43.116Z</time></trkpt><trkpt lat="44.4731713" lon="11.211216"><ele>97.0</ele><time>2026-03-28T14:04:44.109Z</time></trkpt><trkpt lat="44.4732368" lon="11.2113615"><ele>97.5</ele><time>2026-03-28T14:04:45.111Z</time></trkpt><trkpt lat="44.4733024" lon="11.2115009"><ele>98.0</ele><time>2026-03-28T14:04:46.111Z</time></trkpt><trkpt lat="44.4733683" lon="11.2116393"><ele>98.5</ele><time>2026-03-28T14:04:47.106Z</time></trkpt><trkpt lat="44.4734294" lon="11.2117762"><ele>99.0</ele><time>2026-03-28T14:04:48.09Z</time></trkpt><trkpt lat="44.4734912" lon="11.2119192"><ele>99.0</ele><time>2026-03-28T14:04:49.096Z</time></trkpt><trkpt lat="44.4735536" lon="11.21207"><ele>99.0</ele><time>2026-03-28T14:04:50.128Z</time></trkpt><trkpt lat="44.4736107" lon="11.212218"><ele>99.0</ele><time>2026-03-28T14:04:51.11Z</time></trkpt><trkpt lat="44.4736697" lon="11.2123771"><ele>99.0</ele><time>2026-03-28T14:04:52.103Z</time></trkpt><trkpt lat="44.4737311" lon="11.2125394"><ele>99.25</ele><time>2026-03-28T14:04:53.099Z</time></trkpt><trkpt lat="44.4737942" lon="11.2127096"><ele>99.5</ele><time>2026-03-28T14:04:54.108Z</time></trkpt><trkpt lat="44.4738614" lon="11.212881"><ele>99.75</ele><time>2026-03-28T14:04:55.119Z</time></trkpt><trkpt lat="44.4739282" lon="11.2130417"><ele>100.0</ele><time>2026-03-28T14:04:56.105Z</time></trkpt><trkpt lat="44.4739971" lon="11.2131926"><ele>99.0</ele><time>2026-03-28T14:04:57.091Z</time></trkpt><trkpt lat="44.4740805" lon="11.2133306"><ele>98.0</ele><time>2026-03-28T14:04:58.103Z</time></trkpt><trkpt lat="44.4741716" lon="11.2134622"><ele>97.0</ele><time>2026-03-28T14:04:59.105Z</time></trkpt><trkpt lat="44.4742641" lon="11.2135881"><ele>96.0</ele><time>2026-03-28T14:05:00.097Z</time></trkpt><trkpt lat="44.4743536" lon="11.2137062"><ele>96.0</ele><time>2026-03-28T14:05:01.093Z</time></trkpt><trkpt lat="44.4744418" lon="11.2138241"><ele>96.0</ele><time>2026-03-28T14:05:02.116Z</time></trkpt><trkpt lat="44.4745225" lon="11.2139327"><ele>96.0</ele><time>2026-03-28T14:05:03.103Z</time></trkpt><trkpt lat="44.4746074" lon="11.2140458"><ele>96.0</ele><time>2026-03-28T14:05:04.103Z</time></trkpt><trkpt lat="44.4746942" lon="11.2141659"><ele>95.75</ele><time>2026-03-28T14:05:05.099Z</time></trkpt><trkpt lat="44.4747813" lon="11.2142939"><ele>95.5</ele><time>2026-03-28T14:05:06.103Z</time></trkpt><trkpt lat="44.474866" lon="11.2144374"><ele>95.25</ele><time>2026-03-28T14:05:07.109Z</time></trkpt><trkpt lat="44.4749395" lon="11.2145959"><ele>95.0</ele><time>2026-03-28T14:05:08.086Z</time></trkpt><trkpt lat="44.4750072" lon="11.214773"><ele>95.0</ele><time>2026-03-28T14:05:09.09Z</time></trkpt><trkpt lat="44.4750597" lon="11.2149572"><ele>95.0</ele><time>2026-03-28T14:05:10.116Z</time></trkpt><trkpt lat="44.4751003" lon="11.2151429"><ele>95.0</ele><time>2026-03-28T14:05:11.101Z</time></trkpt><trkpt lat="44.4751365" lon="11.2153342"><ele>95.0</ele><time>2026-03-28T14:05:12.097Z</time></trkpt><trkpt lat="44.4751713" lon="11.21554"><ele>94.5</ele><time>2026-03-28T14:05:13.103Z</time></trkpt><trkpt lat="44.475204" lon="11.2157512"><ele>94.0</ele><time>2026-03-28T14:05:14.11Z</time></trkpt><trkpt lat="44.4752353" lon="11.2159567"><ele>93.5</ele><time>2026-03-28T14:05:15.108Z</time></trkpt><trkpt lat="44.4752653" lon="11.2161528"><ele>93.0</ele><time>2026-03-28T14:05:16.115Z</time></trkpt><trkpt lat="44.4753015" lon="11.2163333"><ele>92.5</ele><time>2026-03-28T14:05:17.099Z</time></trkpt><trkpt lat="44.4753402" lon="11.2165055"><ele>92.0</ele><time>2026-03-28T14:05:18.111Z</time></trkpt><trkpt lat="44.4753857" lon="11.216671"><ele>91.5</ele><time>2026-03-28T14:05:19.097Z</time></trkpt><trkpt lat="44.4754418" lon="11.2168421"><ele>91.0</ele><time>2026-03-28T14:05:20.113Z</time></trkpt><trkpt lat="44.4755074" lon="11.2170055"><ele>89.33333333333333</ele><time>2026-03-28T14:05:21.091Z</time></trkpt><trkpt lat="44.4755933" lon="11.2172387"><ele>87.66666666666667</ele><time>2026-03-28T14:05:22.116Z</time></trkpt><trkpt lat="44.4756909" lon="11.217504"><ele>86.0</ele><time>2026-03-28T14:05:23.117Z</time></trkpt><trkpt lat="44.4757932" lon="11.2177862"><ele>86.0</ele><time>2026-03-28T14:05:24.108Z</time></trkpt><trkpt lat="44.4759039" lon="11.2180426"><ele>86.0</ele><time>2026-03-28T14:05:25.105Z</time></trkpt><trkpt lat="44.4760178" lon="11.2182776"><ele>86.0</ele><time>2026-03-28T14:05:26.112Z</time></trkpt><trkpt lat="44.4761354" lon="11.2185065"><ele>86.66666666666667</ele><time>2026-03-28T14:05:27.092Z</time></trkpt><trkpt lat="44.4762557" lon="11.2187383"><ele>87.33333333333333</ele><time>2026-03-28T14:05:28.126Z</time></trkpt><trkpt lat="44.4763762" lon="11.2189554"><ele>88.0</ele><time>2026-03-28T14:05:29.11Z</time></trkpt><trkpt lat="44.4764963" lon="11.2191699"><ele>88.0</ele><time>2026-03-28T14:05:30.104Z</time></trkpt><trkpt lat="44.476614" lon="11.219373"><ele>88.0</ele><time>2026-03-28T14:05:31.1Z</time></trkpt><trkpt lat="44.4767259" lon="11.2195693"><ele>88.0</ele><time>2026-03-28T14:05:32.116Z</time></trkpt><trkpt lat="44.4768261" lon="11.2197486"><ele>88.75</ele><time>2026-03-28T14:05:33.108Z</time></trkpt><trkpt lat="44.4769193" lon="11.2199162"><ele>89.5</ele><time>2026-03-28T14:05:34.108Z</time></trkpt><trkpt lat="44.4770056" lon="11.2200721"><ele>90.25</ele><time>2026-03-28T14:05:35.121Z</time></trkpt><trkpt lat="44.4770845" lon="11.2202151"><ele>91.0</ele><time>2026-03-28T14:05:36.11Z</time></trkpt><trkpt lat="44.4771618" lon="11.2203582"><ele>91.0</ele><time>2026-03-28T14:05:37.104Z</time></trkpt><trkpt lat="44.4772402" lon="11.2204977"><ele>91.0</ele><time>2026-03-28T14:05:38.1Z</time></trkpt><trkpt lat="44.4773176" lon="11.2206417"><ele>91.0</ele><time>2026-03-28T14:05:39.102Z</time></trkpt><trkpt lat="44.4773892" lon="11.2207883"><ele>91.0</ele><time>2026-03-28T14:05:40.107Z</time></trkpt><trkpt lat="44.4774459" lon="11.2209386"><ele>91.25</ele><time>2026-03-28T14:05:41.103Z</time></trkpt><trkpt lat="44.4774917" lon="11.2211026"><ele>91.5</ele><time>2026-03-28T14:05:42.099Z</time></trkpt><trkpt lat="44.4775385" lon="11.221267"><ele>91.75</ele><time>2026-03-28T14:05:43.107Z</time></trkpt><trkpt lat="44.4775794" lon="11.2214285"><ele>92.0</ele><time>2026-03-28T14:05:44.102Z</time></trkpt><trkpt lat="44.4776197" lon="11.2215853"><ele>92.25</ele><time>2026-03-28T14:05:45.105Z</time></trkpt><trkpt lat="44.4776578" lon="11.2217418"><ele>92.5</ele><time>2026-03-28T14:05:46.098Z</time></trkpt><trkpt lat="44.477695" lon="11.2219058"><ele>92.75</ele><time>2026-03-28T14:05:47.121Z</time></trkpt><trkpt lat="44.4777347" lon="11.2220643"><ele>93.0</ele><time>2026-03-28T14:05:48.102Z</time></trkpt><trkpt lat="44.4777821" lon="11.222226"><ele>94.25</ele><time>2026-03-28T14:05:49.114Z</time></trkpt><trkpt lat="44.4778392" lon="11.2223793"><ele>95.5</ele><time>2026-03-28T14:05:50.113Z</time></trkpt><trkpt lat="44.4779041" lon="11.2225251"><ele>96.75</ele><time>2026-03-28T14:05:51.104Z</time></trkpt><trkpt lat="44.4779772" lon="11.2226638"><ele>98.0</ele><time>2026-03-28T14:05:52.106Z</time></trkpt><trkpt lat="44.4780679" lon="11.2228124"><ele>96.5</ele><time>2026-03-28T14:05:53.119Z</time></trkpt><trkpt lat="44.4781719" lon="11.2229514"><ele>95.0</ele><time>2026-03-28T14:05:54.101Z</time></trkpt><trkpt lat="44.4782801" lon="11.2230794"><ele>93.5</ele><time>2026-03-28T14:05:55.099Z</time></trkpt><trkpt lat="44.4784006" lon="11.2231849"><ele>92.0</ele><time>2026-03-28T14:05:56.115Z</time></trkpt><trkpt lat="44.4785157" lon="11.2232717"><ele>92.0</ele><time>2026-03-28T14:05:57.107Z</time></trkpt><trkpt lat="44.4786402" lon="11.2233403"><ele>92.0</ele><time>2026-03-28T14:05:58.092Z</time></trkpt><trkpt lat="44.4787746" lon="11.2233861"><ele>92.0</ele><time>2026-03-28T14:05:59.103Z</time></trkpt><trkpt lat="44.4789094" lon="11.2234173"><ele>92.0</ele><time>2026-03-28T14:06:00.099Z</time></trkpt><trkpt lat="44.4790684" lon="11.2234434"><ele>90.0</ele><time>2026-03-28T14:06:01.108Z</time></trkpt><trkpt lat="44.4792332" lon="11.2234833"><ele>88.0</ele><time>2026-03-28T14:06:02.101Z</time></trkpt><trkpt lat="44.4793973" lon="11.2235276"><ele>86.0</ele><time>2026-03-28T14:06:03.11Z</time></trkpt><trkpt lat="44.4795445" lon="11.223569"><ele>85.0</ele><time>2026-03-28T14:06:04.109Z</time></trkpt><trkpt lat="44.4796755" lon="11.2236085"><ele>84.0</ele><time>2026-03-28T14:06:05.101Z</time></trkpt><trkpt lat="44.4797821" lon="11.2236499"><ele>83.0</ele><time>2026-03-28T14:06:06.08Z</time></trkpt><trkpt lat="44.4798898" lon="11.2236869"><ele>82.0</ele><time>2026-03-28T14:06:07.12Z</time></trkpt><trkpt lat="44.4799911" lon="11.2237184"><ele>82.0</ele><time>2026-03-28T14:06:08.113Z</time></trkpt><trkpt lat="44.4800882" lon="11.2237469"><ele>82.0</ele><time>2026-03-28T14:06:09.096Z</time></trkpt><trkpt lat="44.4801863" lon="11.2237757"><ele>82.0</ele><time>2026-03-28T14:06:10.111Z</time></trkpt><trkpt lat="44.4802867" lon="11.2238046"><ele>82.0</ele><time>2026-03-28T14:06:11.098Z</time></trkpt><trkpt lat="44.4803932" lon="11.223837"><ele>82.0</ele><time>2026-03-28T14:06:12.109Z</time></trkpt><trkpt lat="44.4805048" lon="11.223868"><ele>81.75</ele><time>2026-03-28T14:06:13.105Z</time></trkpt><trkpt lat="44.4806174" lon="11.2238942"><ele>81.5</ele><time>2026-03-28T14:06:14.11Z</time></trkpt><trkpt lat="44.4807268" lon="11.2239204"><ele>81.25</ele><time>2026-03-28T14:06:15.114Z</time></trkpt><trkpt lat="44.4808433" lon="11.2239576"><ele>81.0</ele><time>2026-03-28T14:06:16.102Z</time></trkpt><trkpt lat="44.4809687" lon="11.224003"><ele>81.4</ele><time>2026-03-28T14:06:17.107Z</time></trkpt><trkpt lat="44.4810842" lon="11.2240397"><ele>81.8</ele><time>2026-03-28T14:06:18.111Z</time></trkpt><trkpt lat="44.4811863" lon="11.2240678"><ele>82.2</ele><time>2026-03-28T14:06:19.105Z</time></trkpt><trkpt lat="44.4812808" lon="11.2240966"><ele>82.60000000000001</ele><time>2026-03-28T14:06:20.088Z</time></trkpt><trkpt lat="44.4813794" lon="11.2241229"><ele>83.0</ele><time>2026-03-28T14:06:21.126Z</time></trkpt><trkpt lat="44.4814838" lon="11.2241531"><ele>83.0</ele><time>2026-03-28T14:06:22.12Z</time></trkpt><trkpt lat="44.4815981" lon="11.2241858"><ele>83.0</ele><time>2026-03-28T14:06:23.121Z</time></trkpt><trkpt lat="44.4817183" lon="11.2242154"><ele>83.0</ele><time>2026-03-28T14:06:24.116Z</time></trkpt><trkpt lat="44.4818457" lon="11.2242467"><ele>83.0</ele><time>2026-03-28T14:06:25.123Z</time></trkpt><trkpt lat="44.4819724" lon="11.2242837"><ele>83.0</ele><time>2026-03-28T14:06:26.111Z</time></trkpt><trkpt lat="44.4820963" lon="11.2243201"><ele>83.0</ele><time>2026-03-28T14:06:27.1Z</time></trkpt><trkpt lat="44.4822168" lon="11.2243589"><ele>83.0</ele><time>2026-03-28T14:06:28.107Z</time></trkpt><trkpt lat="44.4823254" lon="11.2243935"><ele>83.0</ele><time>2026-03-28T14:06:29.119Z</time></trkpt><trkpt lat="44.4824193" lon="11.2244205"><ele>82.60000000000001</ele><time>2026-03-28T14:06:30.102Z</time></trkpt><trkpt lat="44.4825132" lon="11.2244477"><ele>82.2</ele><time>2026-03-28T14:06:31.122Z</time></trkpt><trkpt lat="44.482607" lon="11.2244725"><ele>81.8</ele><time>2026-03-28T14:06:32.105Z</time></trkpt><trkpt lat="44.482708" lon="11.2245028"><ele>81.4</ele><time>2026-03-28T14:06:33.12Z</time></trkpt><trkpt lat="44.4828151" lon="11.2245318"><ele>81.0</ele><time>2026-03-28T14:06:34.111Z</time></trkpt><trkpt lat="44.4829296" lon="11.2245664"><ele>80.5</ele><time>2026-03-28T14:06:35.112Z</time></trkpt><trkpt lat="44.4830518" lon="11.2246027"><ele>80.0</ele><time>2026-03-28T14:06:36.102Z</time></trkpt><trkpt lat="44.4831678" lon="11.2246359"><ele>79.5</ele><time>2026-03-28T14:06:37.094Z</time></trkpt><trkpt lat="44.483291" lon="11.2246707"><ele>79.0</ele><time>2026-03-28T14:06:38.106Z</time></trkpt><trkpt lat="44.4834032" lon="11.2247023"><ele>79.0</ele><time>2026-03-28T14:06:39.095Z</time></trkpt><trkpt lat="44.483519" lon="11.2247384"><ele>79.0</ele><time>2026-03-28T14:06:40.11Z</time></trkpt><trkpt lat="44.4836226" lon="11.2247721"><ele>79.0</ele><time>2026-03-28T14:06:41.126Z</time></trkpt><trkpt lat="44.4837202" lon="11.2248013"><ele>79.0</ele><time>2026-03-28T14:06:42.127Z</time></trkpt><trkpt lat="44.4838212" lon="11.2248342"><ele>79.0</ele><time>2026-03-28T14:06:43.094Z</time></trkpt><trkpt lat="44.4839313" lon="11.2248656"><ele>78.8</ele><time>2026-03-28T14:06:44.132Z</time></trkpt><trkpt lat="44.484036" lon="11.224893"><ele>78.60000000000001</ele><time>2026-03-28T14:06:45.111Z</time></trkpt><trkpt lat="44.4841512" lon="11.2249266"><ele>78.4</ele><time>2026-03-28T14:06:46.118Z</time></trkpt><trkpt lat="44.4842576" lon="11.2249585"><ele>78.2</ele><time>2026-03-28T14:06:47.108Z</time></trkpt><trkpt lat="44.4843494" lon="11.2249856"><ele>78.0</ele><time>2026-03-28T14:06:48.108Z</time></trkpt><trkpt lat="44.4844346" lon="11.2250087"><ele>78.0</ele><time>2026-03-28T14:06:49.107Z</time></trkpt><trkpt lat="44.4845032" lon="11.225027"><ele>78.0</ele><time>2026-03-28T14:06:50.098Z</time></trkpt><trkpt lat="44.484567" lon="11.2250454"><ele>78.0</ele><time>2026-03-28T14:06:51.114Z</time></trkpt><trkpt lat="44.4846584" lon="11.2250649"><ele>78.0</ele><time>2026-03-28T14:06:53.095Z</time></trkpt><trkpt lat="44.4847296" lon="11.2250855"><ele>78.0</ele><time>2026-03-28T14:06:56.097Z</time></trkpt><trkpt lat="44.484824" lon="11.2251179"><ele>78.0</ele><time>2026-03-28T14:06:58.103Z</time></trkpt><trkpt lat="44.4849019" lon="11.2251415"><ele>78.4</ele><time>2026-03-28T14:06:59.108Z</time></trkpt><trkpt lat="44.4849967" lon="11.2251698"><ele>78.8</ele><time>2026-03-28T14:07:00.092Z</time></trkpt><trkpt lat="44.4850982" lon="11.2252017"><ele>79.2</ele><time>2026-03-28T14:07:01.109Z</time></trkpt><trkpt lat="44.4852023" lon="11.225235"><ele>79.6</ele><time>2026-03-28T14:07:02.107Z</time></trkpt><trkpt lat="44.4852994" lon="11.2252691"><ele>80.0</ele><time>2026-03-28T14:07:03.097Z</time></trkpt><trkpt lat="44.485395" lon="11.2253081"><ele>79.8</ele><time>2026-03-28T14:07:04.125Z</time></trkpt><trkpt lat="44.4854856" lon="11.2253506"><ele>79.6</ele><time>2026-03-28T14:07:05.118Z</time></trkpt><trkpt lat="44.485573" lon="11.2254023"><ele>79.4</ele><time>2026-03-28T14:07:06.091Z</time></trkpt><trkpt lat="44.485666" lon="11.2254596"><ele>79.2</ele><time>2026-03-28T14:07:07.109Z</time></trkpt><trkpt lat="44.4857628" lon="11.2255218"><ele>79.0</ele><time>2026-03-28T14:07:08.106Z</time></trkpt><trkpt lat="44.4858572" lon="11.2255904"><ele>79.5</ele><time>2026-03-28T14:07:09.105Z</time></trkpt><trkpt lat="44.4859571" lon="11.2256626"><ele>80.0</ele><time>2026-03-28T14:07:10.11Z</time></trkpt><trkpt lat="44.4860633" lon="11.2257378"><ele>80.5</ele><time>2026-03-28T14:07:11.106Z</time></trkpt><trkpt lat="44.4861668" lon="11.22581"><ele>81.0</ele><time>2026-03-28T14:07:12.107Z</time></trkpt><trkpt lat="44.4862766" lon="11.2258877"><ele>81.0</ele><time>2026-03-28T14:07:13.104Z</time></trkpt><trkpt lat="44.4863834" lon="11.2259627"><ele>81.0</ele><time>2026-03-28T14:07:14.099Z</time></trkpt><trkpt lat="44.4864897" lon="11.2260364"><ele>81.0</ele><time>2026-03-28T14:07:15.105Z</time></trkpt><trkpt lat="44.4865931" lon="11.2261081"><ele>81.0</ele><time>2026-03-28T14:07:16.108Z</time></trkpt><trkpt lat="44.4866994" lon="11.2261852"><ele>81.0</ele><time>2026-03-28T14:07:17.11Z</time></trkpt><trkpt lat="44.4868043" lon="11.2262671"><ele>81.0</ele><time>2026-03-28T14:07:18.097Z</time></trkpt><trkpt lat="44.4869031" lon="11.2263572"><ele>81.0</ele><time>2026-03-28T14:07:19.125Z</time></trkpt><trkpt lat="44.4869753" lon="11.2264448"><ele>81.0</ele><time>2026-03-28T14:07:20.113Z</time></trkpt><trkpt lat="44.4870321" lon="11.2265279"><ele>81.0</ele><time>2026-03-28T14:07:21.102Z</time></trkpt><trkpt lat="44.4870772" lon="11.2266115"><ele>80.85714285714286</ele><time>2026-03-28T14:07:22.097Z</time></trkpt><trkpt lat="44.4871101" lon="11.2266936"><ele>80.71428571428571</ele><time>2026-03-28T14:07:23.102Z</time></trkpt><trkpt lat="44.4871365" lon="11.2268124"><ele>80.57142857142857</ele><time>2026-03-28T14:07:25.093Z</time></trkpt><trkpt lat="44.4871521" lon="11.226899"><ele>80.42857142857143</ele><time>2026-03-28T14:07:28.109Z</time></trkpt><trkpt lat="44.4871705" lon="11.2269901"><ele>80.28571428571429</ele><time>2026-03-28T14:07:31.113Z</time></trkpt><trkpt lat="44.4871864" lon="11.2270771"><ele>80.14285714285714</ele><time>2026-03-28T14:07:32.103Z</time></trkpt><trkpt lat="44.4872158" lon="11.2271982"><ele>80.0</ele><time>2026-03-28T14:07:33.113Z</time></trkpt><trkpt lat="44.4872577" lon="11.2273179"><ele>79.2</ele><time>2026-03-28T14:07:34.133Z</time></trkpt><trkpt lat="44.4873176" lon="11.2274125"><ele>78.4</ele><time>2026-03-28T14:07:35.099Z</time></trkpt><trkpt lat="44.4874082" lon="11.2274755"><ele>77.6</ele><time>2026-03-28T14:07:36.113Z</time></trkpt><trkpt lat="44.4875029" lon="11.2274865"><ele>76.8</ele><time>2026-03-28T14:07:37.111Z</time></trkpt><trkpt lat="44.4876085" lon="11.2274623"><ele>76.0</ele><time>2026-03-28T14:07:38.088Z</time></trkpt><trkpt lat="44.4877603" lon="11.227399"><ele>76.0</ele><time>2026-03-28T14:07:39.105Z</time></trkpt><trkpt lat="44.4878929" lon="11.2273137"><ele>76.0</ele><time>2026-03-28T14:07:40.092Z</time></trkpt><trkpt lat="44.4880256" lon="11.2272384"><ele>76.0</ele><time>2026-03-28T14:07:41.108Z</time></trkpt><trkpt lat="44.4881602" lon="11.2271799"><ele>76.0</ele><time>2026-03-28T14:07:42.113Z</time></trkpt><trkpt lat="44.4883044" lon="11.2271315"><ele>76.0</ele><time>2026-03-28T14:07:43.101Z</time></trkpt><trkpt lat="44.4884703" lon="11.2270904"><ele>76.0</ele><time>2026-03-28T14:07:44.111Z</time></trkpt><trkpt lat="44.4886553" lon="11.2270615"><ele>76.0</ele><time>2026-03-28T14:07:45.095Z</time></trkpt><trkpt lat="44.4888516" lon="11.2270606"><ele>76.0</ele><time>2026-03-28T14:07:46.097Z</time></trkpt><trkpt lat="44.4890347" lon="11.2270786"><ele>76.0</ele><time>2026-03-28T14:07:47.093Z</time></trkpt><trkpt lat="44.4892035" lon="11.2271159"><ele>76.0</ele><time>2026-03-28T14:07:48.108Z</time></trkpt><trkpt lat="44.4893614" lon="11.2271561"><ele>76.0</ele><time>2026-03-28T14:07:49.107Z</time></trkpt><trkpt lat="44.4895157" lon="11.2271946"><ele>76.0</ele><time>2026-03-28T14:07:50.113Z</time></trkpt><trkpt lat="44.4896668" lon="11.2272289"><ele>76.0</ele><time>2026-03-28T14:07:51.103Z</time></trkpt><trkpt lat="44.4898168" lon="11.227262"><ele>75.75</ele><time>2026-03-28T14:07:52.104Z</time></trkpt><trkpt lat="44.4899632" lon="11.227296"><ele>75.5</ele><time>2026-03-28T14:07:53.106Z</time></trkpt><trkpt lat="44.490102" lon="11.2273271"><ele>75.25</ele><time>2026-03-28T14:07:54.095Z</time></trkpt><trkpt lat="44.4902331" lon="11.2273542"><ele>75.0</ele><time>2026-03-28T14:07:55.117Z</time></trkpt><trkpt lat="44.4903603" lon="11.2273807"><ele>75.0</ele><time>2026-03-28T14:07:56.121Z</time></trkpt><trkpt lat="44.4904868" lon="11.2274028"><ele>75.0</ele><time>2026-03-28T14:07:57.105Z</time></trkpt><trkpt lat="44.4906092" lon="11.2274311"><ele>75.0</ele><time>2026-03-28T14:07:58.118Z</time></trkpt><trkpt lat="44.4907273" lon="11.2274589"><ele>75.0</ele><time>2026-03-28T14:07:59.088Z</time></trkpt><trkpt lat="44.4908448" lon="11.2274873"><ele>75.0</ele><time>2026-03-28T14:08:00.101Z</time></trkpt><trkpt lat="44.4909556" lon="11.227519"><ele>75.0</ele><time>2026-03-28T14:08:01.098Z</time></trkpt><trkpt lat="44.491071" lon="11.2275467"><ele>75.0</ele><time>2026-03-28T14:08:02.096Z</time></trkpt><trkpt lat="44.4911912" lon="11.2275654"><ele>75.0</ele><time>2026-03-28T14:08:03.105Z</time></trkpt><trkpt lat="44.4912923" lon="11.2275756"><ele>75.33333333333333</ele><time>2026-03-28T14:08:04.108Z</time></trkpt><trkpt lat="44.4913734" lon="11.2275858"><ele>75.66666666666667</ele><time>2026-03-28T14:08:05.117Z</time></trkpt><trkpt lat="44.4914391" lon="11.2275996"><ele>76.0</ele><time>2026-03-28T14:08:06.118Z</time></trkpt><trkpt lat="44.4915373" lon="11.2276173"><ele>76.33333333333334</ele><time>2026-03-28T14:08:08.101Z</time></trkpt><trkpt lat="44.491636" lon="11.2276381"><ele>76.66666666666667</ele><time>2026-03-28T14:08:10.098Z</time></trkpt><trkpt lat="44.4917074" lon="11.2276629"><ele>77.0</ele><time>2026-03-28T14:08:11.15Z</time></trkpt><trkpt lat="44.4917837" lon="11.2277002"><ele>77.0</ele><time>2026-03-28T14:08:12.131Z</time></trkpt><trkpt lat="44.4918522" lon="11.2277168"><ele>77.0</ele><time>2026-03-28T14:08:13.1Z</time></trkpt><trkpt lat="44.4919003" lon="11.2278144"><ele>77.0</ele><time>2026-03-28T14:08:14.102Z</time></trkpt><trkpt lat="44.491924" lon="11.2279401"><ele>77.0</ele><time>2026-03-28T14:08:15.105Z</time></trkpt><trkpt lat="44.4919384" lon="11.2280573"><ele>77.0</ele><time>2026-03-28T14:08:16.089Z</time></trkpt><trkpt lat="44.4919363" lon="11.2281877"><ele>77.0</ele><time>2026-03-28T14:08:17.106Z</time></trkpt><trkpt lat="44.4919281" lon="11.2283201"><ele>76.5</ele><time>2026-03-28T14:08:18.114Z</time></trkpt><trkpt lat="44.491912" lon="11.2284477"><ele>76.0</ele><time>2026-03-28T14:08:19.087Z</time></trkpt><trkpt lat="44.4918997" lon="11.2285798"><ele>75.5</ele><time>2026-03-28T14:08:20.108Z</time></trkpt><trkpt lat="44.491882" lon="11.2286943"><ele>75.0</ele><time>2026-03-28T14:08:21.1Z</time></trkpt><trkpt lat="44.4918647" lon="11.2288016"><ele>74.5</ele><time>2026-03-28T14:08:22.108Z</time></trkpt><trkpt lat="44.4918477" lon="11.228904"><ele>74.0</ele><time>2026-03-28T14:08:23.096Z</time></trkpt><trkpt lat="44.491828" lon="11.2290073"><ele>73.71428571428572</ele><time>2026-03-28T14:08:24.108Z</time></trkpt><trkpt lat="44.4918085" lon="11.2291115"><ele>73.42857142857143</ele><time>2026-03-28T14:08:25.098Z</time></trkpt><trkpt lat="44.4917901" lon="11.2292135"><ele>73.14285714285714</ele><time>2026-03-28T14:08:26.105Z</time></trkpt><trkpt lat="44.4917673" lon="11.2293091"><ele>72.85714285714286</ele><time>2026-03-28T14:08:27.119Z</time></trkpt><trkpt lat="44.4917487" lon="11.229402"><ele>72.57142857142857</ele><time>2026-03-28T14:08:28.091Z</time></trkpt><trkpt lat="44.4917369" lon="11.2294995"><ele>72.28571428571429</ele><time>2026-03-28T14:08:29.121Z</time></trkpt><trkpt lat="44.4917277" lon="11.229603"><ele>72.0</ele><time>2026-03-28T14:08:30.102Z</time></trkpt><trkpt lat="44.4917268" lon="11.2297088"><ele>72.0</ele><time>2026-03-28T14:08:31.105Z</time></trkpt><trkpt lat="44.4917323" lon="11.2298099"><ele>70.0</ele><time>2026-03-28T14:08:32.111Z</time></trkpt><trkpt lat="44.4917482" lon="11.2299621"><ele>70.0</ele><time>2026-03-28T14:08:34.11Z</time></trkpt><trkpt lat="44.4917441" lon="11.2300754"><ele>70.0</ele><time>2026-03-28T14:08:36.105Z</time></trkpt><trkpt lat="44.4916875" lon="11.2301223"><ele>70.0</ele><time>2026-03-28T14:08:38.089Z</time></trkpt><trkpt lat="44.4916246" lon="11.2300767"><ele>70.0</ele><time>2026-03-28T14:08:40.1Z</time></trkpt></trkseg></trk></gpx>